<?xml version="1.0" encoding="UTF-8"?>
<gpx
version="1.0"
creator="Polar ProTrainer 5 - www.polar.fi"
xmlns:xsi="http://www.w3.org/2001/XMLSchema-instance"
xmlns="http://www.topografix.com/GPX/1/0"
xsi:schemaLocation="http://www.topografix.com/GPX/1/0 http://www.topografix.com/GPX/1/0/gpx.xsd">
<time>2014-07-06T10:00:58Z</time>
<trk>
<trkseg>
<trkpt lat="60.897866667" lon="15.126593333">
<time>2014-07-06T10:01:00Z</time>
 <fix>none</fix>
 <sat>0</sat>
</trkpt>
<trkpt lat="60.897835000" lon="15.126598333">
<time>2014-07-06T10:01:01Z</time>
 <fix>none</fix>
 <sat>0</sat>
</trkpt>
<trkpt lat="60.897800000" lon="15.126601667">
<time>2014-07-06T10:01:02Z</time>
 <fix>none</fix>
 <sat>0</sat>
</trkpt>
<trkpt lat="60.897756667" lon="15.126610000">
<time>2014-07-06T10:01:03Z</time>
 <fix>none</fix>
 <sat>0</sat>
</trkpt>
<trkpt lat="60.897710000" lon="15.126610000">
<time>2014-07-06T10:01:04Z</time>
 <fix>none</fix>
 <sat>0</sat>
</trkpt>
<trkpt lat="60.897663333" lon="15.126620000">
<time>2014-07-06T10:01:05Z</time>
 <fix>none</fix>
 <sat>0</sat>
</trkpt>
<trkpt lat="60.897615000" lon="15.126630000">
<time>2014-07-06T10:01:06Z</time>
 <fix>none</fix>
 <sat>0</sat>
</trkpt>
<trkpt lat="60.897568333" lon="15.126640000">
<time>2014-07-06T10:01:07Z</time>
 <fix>none</fix>
 <sat>0</sat>
</trkpt>
<trkpt lat="60.897526667" lon="15.126653333">
<time>2014-07-06T10:01:08Z</time>
 <fix>none</fix>
 <sat>0</sat>
</trkpt>
<trkpt lat="60.897480000" lon="15.126683333">
<time>2014-07-06T10:01:09Z</time>
 <fix>none</fix>
 <sat>0</sat>
</trkpt>
<trkpt lat="60.897435000" lon="15.126700000">
<time>2014-07-06T10:01:10Z</time>
 <fix>none</fix>
 <sat>0</sat>
</trkpt>
<trkpt lat="60.897393333" lon="15.126711667">
<time>2014-07-06T10:01:11Z</time>
 <fix>none</fix>
 <sat>0</sat>
</trkpt>
<trkpt lat="60.897393333" lon="15.126711667">
<time>2014-07-06T10:01:12Z</time>
 <fix>none</fix>
 <sat>0</sat>
</trkpt>
<trkpt lat="60.897360000" lon="15.126711667">
<time>2014-07-06T10:01:13Z</time>
 <fix>none</fix>
 <sat>0</sat>
</trkpt>
<trkpt lat="60.897330000" lon="15.126713333">
<time>2014-07-06T10:01:14Z</time>
 <fix>none</fix>
 <sat>0</sat>
</trkpt>
<trkpt lat="60.897301667" lon="15.126720000">
<time>2014-07-06T10:01:15Z</time>
 <fix>none</fix>
 <sat>0</sat>
</trkpt>
<trkpt lat="60.897256667" lon="15.126740000">
<time>2014-07-06T10:01:16Z</time>
 <fix>none</fix>
 <sat>0</sat>
</trkpt>
<trkpt lat="60.897238333" lon="15.126750000">
<time>2014-07-06T10:01:17Z</time>
 <fix>none</fix>
 <sat>0</sat>
</trkpt>
<trkpt lat="60.897221667" lon="15.126751667">
<time>2014-07-06T10:01:18Z</time>
 <fix>none</fix>
 <sat>0</sat>
</trkpt>
<trkpt lat="60.897206667" lon="15.126751667">
<time>2014-07-06T10:01:19Z</time>
 <fix>none</fix>
 <sat>0</sat>
</trkpt>
<trkpt lat="60.897188333" lon="15.126751667">
<time>2014-07-06T10:01:20Z</time>
 <fix>none</fix>
 <sat>0</sat>
</trkpt>
<trkpt lat="60.897168333" lon="15.126748333">
<time>2014-07-06T10:01:21Z</time>
 <fix>none</fix>
 <sat>0</sat>
</trkpt>
<trkpt lat="60.897145000" lon="15.126748333">
<time>2014-07-06T10:01:22Z</time>
 <fix>none</fix>
 <sat>0</sat>
</trkpt>
<trkpt lat="60.897125000" lon="15.126743333">
<time>2014-07-06T10:01:23Z</time>
 <fix>none</fix>
 <sat>0</sat>
</trkpt>
<trkpt lat="60.897101667" lon="15.126740000">
<time>2014-07-06T10:01:24Z</time>
 <fix>none</fix>
 <sat>0</sat>
</trkpt>
<trkpt lat="60.897078333" lon="15.126738333">
<time>2014-07-06T10:01:25Z</time>
 <fix>none</fix>
 <sat>0</sat>
</trkpt>
<trkpt lat="60.897060000" lon="15.126735000">
<time>2014-07-06T10:01:26Z</time>
 <fix>none</fix>
 <sat>0</sat>
</trkpt>
<trkpt lat="60.897043333" lon="15.126728333">
<time>2014-07-06T10:01:27Z</time>
 <fix>none</fix>
 <sat>0</sat>
</trkpt>
<trkpt lat="60.897026667" lon="15.126716667">
<time>2014-07-06T10:01:28Z</time>
 <fix>none</fix>
 <sat>0</sat>
</trkpt>
<trkpt lat="60.897010000" lon="15.126695000">
<time>2014-07-06T10:01:29Z</time>
 <fix>none</fix>
 <sat>0</sat>
</trkpt>
<trkpt lat="60.896988333" lon="15.126673333">
<time>2014-07-06T10:01:30Z</time>
 <fix>none</fix>
 <sat>0</sat>
</trkpt>
<trkpt lat="60.896966667" lon="15.126635000">
<time>2014-07-06T10:01:31Z</time>
 <fix>none</fix>
 <sat>0</sat>
</trkpt>
<trkpt lat="60.896948333" lon="15.126586667">
<time>2014-07-06T10:01:32Z</time>
 <fix>none</fix>
 <sat>0</sat>
</trkpt>
<trkpt lat="60.896930000" lon="15.126543333">
<time>2014-07-06T10:01:33Z</time>
 <fix>none</fix>
 <sat>0</sat>
</trkpt>
<trkpt lat="60.896930000" lon="15.126543333">
<time>2014-07-06T10:01:34Z</time>
 <fix>none</fix>
 <sat>0</sat>
</trkpt>
<trkpt lat="60.896913333" lon="15.126503333">
<time>2014-07-06T10:01:35Z</time>
 <fix>none</fix>
 <sat>0</sat>
</trkpt>
<trkpt lat="60.896896667" lon="15.126451667">
<time>2014-07-06T10:01:36Z</time>
 <fix>none</fix>
 <sat>0</sat>
</trkpt>
<trkpt lat="60.896881667" lon="15.126388333">
<time>2014-07-06T10:01:37Z</time>
 <fix>none</fix>
 <sat>0</sat>
</trkpt>
<trkpt lat="60.896866667" lon="15.126323333">
<time>2014-07-06T10:01:38Z</time>
 <fix>none</fix>
 <sat>0</sat>
</trkpt>
<trkpt lat="60.896836667" lon="15.126205000">
<time>2014-07-06T10:01:39Z</time>
 <fix>none</fix>
 <sat>0</sat>
</trkpt>
<trkpt lat="60.896836667" lon="15.126205000">
<time>2014-07-06T10:01:40Z</time>
 <fix>none</fix>
 <sat>0</sat>
</trkpt>
<trkpt lat="60.896816667" lon="15.126161667">
<time>2014-07-06T10:01:41Z</time>
 <fix>none</fix>
 <sat>0</sat>
</trkpt>
<trkpt lat="60.896766667" lon="15.126095000">
<time>2014-07-06T10:01:42Z</time>
 <fix>none</fix>
 <sat>0</sat>
</trkpt>
<trkpt lat="60.896736667" lon="15.126086667">
<time>2014-07-06T10:01:43Z</time>
 <fix>none</fix>
 <sat>0</sat>
</trkpt>
<trkpt lat="60.896700000" lon="15.126093333">
<time>2014-07-06T10:01:44Z</time>
 <fix>none</fix>
 <sat>0</sat>
</trkpt>
<trkpt lat="60.896656667" lon="15.126126667">
<time>2014-07-06T10:01:45Z</time>
 <fix>none</fix>
 <sat>0</sat>
</trkpt>
<trkpt lat="60.896606667" lon="15.126165000">
<time>2014-07-06T10:01:46Z</time>
 <fix>none</fix>
 <sat>0</sat>
</trkpt>
<trkpt lat="60.896553333" lon="15.126206667">
<time>2014-07-06T10:01:47Z</time>
 <fix>none</fix>
 <sat>0</sat>
</trkpt>
<trkpt lat="60.896495000" lon="15.126250000">
<time>2014-07-06T10:01:48Z</time>
 <fix>none</fix>
 <sat>0</sat>
</trkpt>
<trkpt lat="60.896433333" lon="15.126285000">
<time>2014-07-06T10:01:49Z</time>
 <fix>none</fix>
 <sat>0</sat>
</trkpt>
<trkpt lat="60.896368333" lon="15.126315000">
<time>2014-07-06T10:01:50Z</time>
 <fix>none</fix>
 <sat>0</sat>
</trkpt>
<trkpt lat="60.896298333" lon="15.126333333">
<time>2014-07-06T10:01:51Z</time>
 <fix>none</fix>
 <sat>0</sat>
</trkpt>
<trkpt lat="60.896225000" lon="15.126348333">
<time>2014-07-06T10:01:52Z</time>
 <fix>none</fix>
 <sat>0</sat>
</trkpt>
<trkpt lat="60.896146667" lon="15.126363333">
<time>2014-07-06T10:01:53Z</time>
 <fix>none</fix>
 <sat>0</sat>
</trkpt>
<trkpt lat="60.896065000" lon="15.126365000">
<time>2014-07-06T10:01:54Z</time>
 <fix>none</fix>
 <sat>0</sat>
</trkpt>
<trkpt lat="60.895980000" lon="15.126366667">
<time>2014-07-06T10:01:55Z</time>
 <fix>none</fix>
 <sat>0</sat>
</trkpt>
<trkpt lat="60.895891667" lon="15.126370000">
<time>2014-07-06T10:01:56Z</time>
 <fix>none</fix>
 <sat>0</sat>
</trkpt>
<trkpt lat="60.895891667" lon="15.126370000">
<time>2014-07-06T10:01:57Z</time>
 <fix>none</fix>
 <sat>0</sat>
</trkpt>
<trkpt lat="60.895801667" lon="15.126370000">
<time>2014-07-06T10:01:58Z</time>
 <fix>none</fix>
 <sat>0</sat>
</trkpt>
<trkpt lat="60.895713333" lon="15.126366667">
<time>2014-07-06T10:01:59Z</time>
 <fix>none</fix>
 <sat>0</sat>
</trkpt>
<trkpt lat="60.895623333" lon="15.126360000">
<time>2014-07-06T10:02:00Z</time>
 <fix>none</fix>
 <sat>0</sat>
</trkpt>
<trkpt lat="60.895535000" lon="15.126355000">
<time>2014-07-06T10:02:01Z</time>
 <fix>none</fix>
 <sat>0</sat>
</trkpt>
<trkpt lat="60.895445000" lon="15.126345000">
<time>2014-07-06T10:02:02Z</time>
 <fix>none</fix>
 <sat>0</sat>
</trkpt>
<trkpt lat="60.895356667" lon="15.126336667">
<time>2014-07-06T10:02:03Z</time>
 <fix>none</fix>
 <sat>0</sat>
</trkpt>
<trkpt lat="60.895171667" lon="15.126311667">
<time>2014-07-06T10:02:04Z</time>
 <fix>none</fix>
 <sat>0</sat>
</trkpt>
<trkpt lat="60.895076667" lon="15.126295000">
<time>2014-07-06T10:02:05Z</time>
 <fix>none</fix>
 <sat>0</sat>
</trkpt>
<trkpt lat="60.894981667" lon="15.126273333">
<time>2014-07-06T10:02:06Z</time>
 <fix>none</fix>
 <sat>0</sat>
</trkpt>
<trkpt lat="60.894885000" lon="15.126248333">
<time>2014-07-06T10:02:07Z</time>
 <fix>none</fix>
 <sat>0</sat>
</trkpt>
<trkpt lat="60.894788333" lon="15.126220000">
<time>2014-07-06T10:02:08Z</time>
 <fix>none</fix>
 <sat>0</sat>
</trkpt>
<trkpt lat="60.894690000" lon="15.126190000">
<time>2014-07-06T10:02:09Z</time>
 <fix>none</fix>
 <sat>0</sat>
</trkpt>
<trkpt lat="60.894593333" lon="15.126158333">
<time>2014-07-06T10:02:10Z</time>
 <fix>none</fix>
 <sat>0</sat>
</trkpt>
<trkpt lat="60.894496667" lon="15.126125000">
<time>2014-07-06T10:02:11Z</time>
 <fix>none</fix>
 <sat>0</sat>
</trkpt>
<trkpt lat="60.894396667" lon="15.126095000">
<time>2014-07-06T10:02:12Z</time>
 <fix>none</fix>
 <sat>0</sat>
</trkpt>
<trkpt lat="60.894296667" lon="15.126061667">
<time>2014-07-06T10:02:13Z</time>
 <fix>none</fix>
 <sat>0</sat>
</trkpt>
<trkpt lat="60.894196667" lon="15.126030000">
<time>2014-07-06T10:02:14Z</time>
 <fix>none</fix>
 <sat>0</sat>
</trkpt>
<trkpt lat="60.894095000" lon="15.125991667">
<time>2014-07-06T10:02:15Z</time>
 <fix>none</fix>
 <sat>0</sat>
</trkpt>
<trkpt lat="60.893993333" lon="15.125953333">
<time>2014-07-06T10:02:16Z</time>
 <fix>none</fix>
 <sat>0</sat>
</trkpt>
<trkpt lat="60.893893333" lon="15.125915000">
<time>2014-07-06T10:02:17Z</time>
 <fix>none</fix>
 <sat>0</sat>
</trkpt>
<trkpt lat="60.893793333" lon="15.125881667">
<time>2014-07-06T10:02:18Z</time>
 <fix>none</fix>
 <sat>0</sat>
</trkpt>
<trkpt lat="60.893693333" lon="15.125846667">
<time>2014-07-06T10:02:19Z</time>
 <fix>none</fix>
 <sat>0</sat>
</trkpt>
<trkpt lat="60.893693333" lon="15.125846667">
<time>2014-07-06T10:02:20Z</time>
 <fix>none</fix>
 <sat>0</sat>
</trkpt>
<trkpt lat="60.893595000" lon="15.125810000">
<time>2014-07-06T10:02:21Z</time>
 <fix>none</fix>
 <sat>0</sat>
</trkpt>
<trkpt lat="60.893493333" lon="15.125776667">
<time>2014-07-06T10:02:22Z</time>
 <fix>none</fix>
 <sat>0</sat>
</trkpt>
<trkpt lat="60.893393333" lon="15.125743333">
<time>2014-07-06T10:02:23Z</time>
 <fix>none</fix>
 <sat>0</sat>
</trkpt>
<trkpt lat="60.893291667" lon="15.125708333">
<time>2014-07-06T10:02:24Z</time>
 <fix>none</fix>
 <sat>0</sat>
</trkpt>
<trkpt lat="60.893190000" lon="15.125673333">
<time>2014-07-06T10:02:25Z</time>
 <fix>none</fix>
 <sat>0</sat>
</trkpt>
<trkpt lat="60.893088333" lon="15.125636667">
<time>2014-07-06T10:02:26Z</time>
 <fix>none</fix>
 <sat>0</sat>
</trkpt>
<trkpt lat="60.892858333" lon="15.125543333">
<time>2014-07-06T10:02:27Z</time>
 <fix>none</fix>
 <sat>0</sat>
</trkpt>
<trkpt lat="60.892858333" lon="15.125543333">
<time>2014-07-06T10:02:28Z</time>
 <fix>none</fix>
 <sat>0</sat>
</trkpt>
<trkpt lat="60.892680000" lon="15.125471667">
<time>2014-07-06T10:02:29Z</time>
 <fix>none</fix>
 <sat>0</sat>
</trkpt>
<trkpt lat="60.892680000" lon="15.125471667">
<time>2014-07-06T10:02:30Z</time>
 <fix>none</fix>
 <sat>0</sat>
</trkpt>
<trkpt lat="60.892476667" lon="15.125411667">
<time>2014-07-06T10:02:31Z</time>
 <fix>none</fix>
 <sat>0</sat>
</trkpt>
<trkpt lat="60.892476667" lon="15.125411667">
<time>2014-07-06T10:02:32Z</time>
 <fix>none</fix>
 <sat>0</sat>
</trkpt>
<trkpt lat="60.892276667" lon="15.125331667">
<time>2014-07-06T10:02:33Z</time>
 <fix>none</fix>
 <sat>0</sat>
</trkpt>
<trkpt lat="60.892276667" lon="15.125331667">
<time>2014-07-06T10:02:34Z</time>
 <fix>none</fix>
 <sat>0</sat>
</trkpt>
<trkpt lat="60.892276667" lon="15.125331667">
<time>2014-07-06T10:02:35Z</time>
 <fix>none</fix>
 <sat>0</sat>
</trkpt>
<trkpt lat="60.892075000" lon="15.125240000">
<time>2014-07-06T10:02:36Z</time>
 <fix>none</fix>
 <sat>0</sat>
</trkpt>
<trkpt lat="60.891885000" lon="15.125148333">
<time>2014-07-06T10:02:37Z</time>
 <fix>none</fix>
 <sat>0</sat>
</trkpt>
<trkpt lat="60.891885000" lon="15.125148333">
<time>2014-07-06T10:02:38Z</time>
 <fix>none</fix>
 <sat>0</sat>
</trkpt>
<trkpt lat="60.891688333" lon="15.125081667">
<time>2014-07-06T10:02:39Z</time>
 <fix>none</fix>
 <sat>0</sat>
</trkpt>
<trkpt lat="60.891688333" lon="15.125081667">
<time>2014-07-06T10:02:40Z</time>
 <fix>none</fix>
 <sat>0</sat>
</trkpt>
<trkpt lat="60.891496667" lon="15.125018333">
<time>2014-07-06T10:02:41Z</time>
 <fix>none</fix>
 <sat>0</sat>
</trkpt>
<trkpt lat="60.891496667" lon="15.125018333">
<time>2014-07-06T10:02:42Z</time>
 <fix>none</fix>
 <sat>0</sat>
</trkpt>
<trkpt lat="60.891290000" lon="15.124976667">
<time>2014-07-06T10:02:43Z</time>
 <fix>none</fix>
 <sat>0</sat>
</trkpt>
<trkpt lat="60.891290000" lon="15.124976667">
<time>2014-07-06T10:02:44Z</time>
 <fix>none</fix>
 <sat>0</sat>
</trkpt>
<trkpt lat="60.891090000" lon="15.124920000">
<time>2014-07-06T10:02:45Z</time>
 <fix>none</fix>
 <sat>0</sat>
</trkpt>
<trkpt lat="60.891090000" lon="15.124920000">
<time>2014-07-06T10:02:46Z</time>
 <fix>none</fix>
 <sat>0</sat>
</trkpt>
<trkpt lat="60.890886667" lon="15.124835000">
<time>2014-07-06T10:02:47Z</time>
 <fix>none</fix>
 <sat>0</sat>
</trkpt>
<trkpt lat="60.890886667" lon="15.124835000">
<time>2014-07-06T10:02:48Z</time>
 <fix>none</fix>
 <sat>0</sat>
</trkpt>
<trkpt lat="60.890688333" lon="15.124730000">
<time>2014-07-06T10:02:49Z</time>
 <fix>none</fix>
 <sat>0</sat>
</trkpt>
<trkpt lat="60.890688333" lon="15.124730000">
<time>2014-07-06T10:02:50Z</time>
 <fix>none</fix>
 <sat>0</sat>
</trkpt>
<trkpt lat="60.890480000" lon="15.124655000">
<time>2014-07-06T10:02:51Z</time>
 <fix>none</fix>
 <sat>0</sat>
</trkpt>
<trkpt lat="60.890480000" lon="15.124655000">
<time>2014-07-06T10:02:52Z</time>
 <fix>none</fix>
 <sat>0</sat>
</trkpt>
<trkpt lat="60.890278333" lon="15.124561667">
<time>2014-07-06T10:02:53Z</time>
 <fix>none</fix>
 <sat>0</sat>
</trkpt>
<trkpt lat="60.890278333" lon="15.124561667">
<time>2014-07-06T10:02:54Z</time>
 <fix>none</fix>
 <sat>0</sat>
</trkpt>
<trkpt lat="60.890083333" lon="15.124483333">
<time>2014-07-06T10:02:55Z</time>
 <fix>none</fix>
 <sat>0</sat>
</trkpt>
<trkpt lat="60.890083333" lon="15.124483333">
<time>2014-07-06T10:02:56Z</time>
 <fix>none</fix>
 <sat>0</sat>
</trkpt>
<trkpt lat="60.889905000" lon="15.124413333">
<time>2014-07-06T10:02:57Z</time>
 <fix>none</fix>
 <sat>0</sat>
</trkpt>
<trkpt lat="60.889905000" lon="15.124413333">
<time>2014-07-06T10:02:58Z</time>
 <fix>none</fix>
 <sat>0</sat>
</trkpt>
<trkpt lat="60.889715000" lon="15.124358333">
<time>2014-07-06T10:02:59Z</time>
 <fix>none</fix>
 <sat>0</sat>
</trkpt>
<trkpt lat="60.889715000" lon="15.124358333">
<time>2014-07-06T10:03:00Z</time>
 <fix>none</fix>
 <sat>0</sat>
</trkpt>
<trkpt lat="60.889525000" lon="15.124305000">
<time>2014-07-06T10:03:01Z</time>
 <fix>none</fix>
 <sat>0</sat>
</trkpt>
<trkpt lat="60.889525000" lon="15.124305000">
<time>2014-07-06T10:03:02Z</time>
 <fix>none</fix>
 <sat>0</sat>
</trkpt>
<trkpt lat="60.889336667" lon="15.124240000">
<time>2014-07-06T10:03:03Z</time>
 <fix>none</fix>
 <sat>0</sat>
</trkpt>
<trkpt lat="60.889336667" lon="15.124240000">
<time>2014-07-06T10:03:04Z</time>
 <fix>none</fix>
 <sat>0</sat>
</trkpt>
<trkpt lat="60.889145000" lon="15.124173333">
<time>2014-07-06T10:03:05Z</time>
 <fix>none</fix>
 <sat>0</sat>
</trkpt>
<trkpt lat="60.889145000" lon="15.124173333">
<time>2014-07-06T10:03:06Z</time>
 <fix>none</fix>
 <sat>0</sat>
</trkpt>
<trkpt lat="60.888965000" lon="15.124116667">
<time>2014-07-06T10:03:07Z</time>
 <fix>none</fix>
 <sat>0</sat>
</trkpt>
<trkpt lat="60.888965000" lon="15.124116667">
<time>2014-07-06T10:03:08Z</time>
 <fix>none</fix>
 <sat>0</sat>
</trkpt>
<trkpt lat="60.888788333" lon="15.124046667">
<time>2014-07-06T10:03:09Z</time>
 <fix>none</fix>
 <sat>0</sat>
</trkpt>
<trkpt lat="60.888788333" lon="15.124046667">
<time>2014-07-06T10:03:10Z</time>
 <fix>none</fix>
 <sat>0</sat>
</trkpt>
<trkpt lat="60.888618333" lon="15.123983333">
<time>2014-07-06T10:03:11Z</time>
 <fix>none</fix>
 <sat>0</sat>
</trkpt>
<trkpt lat="60.888618333" lon="15.123983333">
<time>2014-07-06T10:03:12Z</time>
 <fix>none</fix>
 <sat>0</sat>
</trkpt>
<trkpt lat="60.888443333" lon="15.123898333">
<time>2014-07-06T10:03:13Z</time>
 <fix>none</fix>
 <sat>0</sat>
</trkpt>
<trkpt lat="60.888443333" lon="15.123898333">
<time>2014-07-06T10:03:14Z</time>
 <fix>none</fix>
 <sat>0</sat>
</trkpt>
<trkpt lat="60.888286667" lon="15.123806667">
<time>2014-07-06T10:03:15Z</time>
 <fix>none</fix>
 <sat>0</sat>
</trkpt>
<trkpt lat="60.888286667" lon="15.123806667">
<time>2014-07-06T10:03:16Z</time>
 <fix>none</fix>
 <sat>0</sat>
</trkpt>
<trkpt lat="60.888150000" lon="15.123710000">
<time>2014-07-06T10:03:17Z</time>
 <fix>none</fix>
 <sat>0</sat>
</trkpt>
<trkpt lat="60.888150000" lon="15.123710000">
<time>2014-07-06T10:03:18Z</time>
 <fix>none</fix>
 <sat>0</sat>
</trkpt>
<trkpt lat="60.888055000" lon="15.123521667">
<time>2014-07-06T10:03:19Z</time>
 <fix>none</fix>
 <sat>0</sat>
</trkpt>
<trkpt lat="60.888021667" lon="15.123438333">
<time>2014-07-06T10:03:20Z</time>
 <fix>none</fix>
 <sat>0</sat>
</trkpt>
<trkpt lat="60.887983333" lon="15.123335000">
<time>2014-07-06T10:03:21Z</time>
 <fix>none</fix>
 <sat>0</sat>
</trkpt>
<trkpt lat="60.887945000" lon="15.123228333">
<time>2014-07-06T10:03:22Z</time>
 <fix>none</fix>
 <sat>0</sat>
</trkpt>
<trkpt lat="60.887901667" lon="15.123125000">
<time>2014-07-06T10:03:23Z</time>
 <fix>none</fix>
 <sat>0</sat>
</trkpt>
<trkpt lat="60.887858333" lon="15.123021667">
<time>2014-07-06T10:03:24Z</time>
 <fix>none</fix>
 <sat>0</sat>
</trkpt>
<trkpt lat="60.887813333" lon="15.122911667">
<time>2014-07-06T10:03:25Z</time>
 <fix>none</fix>
 <sat>0</sat>
</trkpt>
<trkpt lat="60.887766667" lon="15.122823333">
<time>2014-07-06T10:03:26Z</time>
 <fix>none</fix>
 <sat>0</sat>
</trkpt>
<trkpt lat="60.887713333" lon="15.122761667">
<time>2014-07-06T10:03:27Z</time>
 <fix>none</fix>
 <sat>0</sat>
</trkpt>
<trkpt lat="60.887713333" lon="15.122761667">
<time>2014-07-06T10:03:28Z</time>
 <fix>none</fix>
 <sat>0</sat>
</trkpt>
<trkpt lat="60.887658333" lon="15.122730000">
<time>2014-07-06T10:03:29Z</time>
 <fix>none</fix>
 <sat>0</sat>
</trkpt>
<trkpt lat="60.887603333" lon="15.122766667">
<time>2014-07-06T10:03:30Z</time>
 <fix>none</fix>
 <sat>0</sat>
</trkpt>
<trkpt lat="60.887548333" lon="15.122848333">
<time>2014-07-06T10:03:31Z</time>
 <fix>none</fix>
 <sat>0</sat>
</trkpt>
<trkpt lat="60.887496667" lon="15.122923333">
<time>2014-07-06T10:03:32Z</time>
 <fix>none</fix>
 <sat>0</sat>
</trkpt>
<trkpt lat="60.887441667" lon="15.122983333">
<time>2014-07-06T10:03:33Z</time>
 <fix>none</fix>
 <sat>0</sat>
</trkpt>
<trkpt lat="60.887385000" lon="15.123025000">
<time>2014-07-06T10:03:34Z</time>
 <fix>none</fix>
 <sat>0</sat>
</trkpt>
<trkpt lat="60.887255000" lon="15.123043333">
<time>2014-07-06T10:03:35Z</time>
 <fix>none</fix>
 <sat>0</sat>
</trkpt>
<trkpt lat="60.887255000" lon="15.123043333">
<time>2014-07-06T10:03:36Z</time>
 <fix>none</fix>
 <sat>0</sat>
</trkpt>
<trkpt lat="60.887111667" lon="15.122973333">
<time>2014-07-06T10:03:37Z</time>
 <fix>none</fix>
 <sat>0</sat>
</trkpt>
<trkpt lat="60.887111667" lon="15.122973333">
<time>2014-07-06T10:03:38Z</time>
 <fix>none</fix>
 <sat>0</sat>
</trkpt>
<trkpt lat="60.887111667" lon="15.122973333">
<time>2014-07-06T10:03:39Z</time>
 <fix>none</fix>
 <sat>0</sat>
</trkpt>
<trkpt lat="60.886898333" lon="15.122790000">
<time>2014-07-06T10:03:40Z</time>
 <fix>none</fix>
 <sat>0</sat>
</trkpt>
<trkpt lat="60.886898333" lon="15.122790000">
<time>2014-07-06T10:03:41Z</time>
 <fix>none</fix>
 <sat>0</sat>
</trkpt>
<trkpt lat="60.886763333" lon="15.122615000">
<time>2014-07-06T10:03:42Z</time>
 <fix>none</fix>
 <sat>0</sat>
</trkpt>
<trkpt lat="60.886763333" lon="15.122615000">
<time>2014-07-06T10:03:43Z</time>
 <fix>none</fix>
 <sat>0</sat>
</trkpt>
<trkpt lat="60.886638333" lon="15.122406667">
<time>2014-07-06T10:03:44Z</time>
 <fix>none</fix>
 <sat>0</sat>
</trkpt>
<trkpt lat="60.886638333" lon="15.122406667">
<time>2014-07-06T10:03:45Z</time>
 <fix>none</fix>
 <sat>0</sat>
</trkpt>
<trkpt lat="60.886510000" lon="15.122175000">
<time>2014-07-06T10:03:46Z</time>
 <fix>none</fix>
 <sat>0</sat>
</trkpt>
<trkpt lat="60.886510000" lon="15.122175000">
<time>2014-07-06T10:03:47Z</time>
 <fix>none</fix>
 <sat>0</sat>
</trkpt>
<trkpt lat="60.886381667" lon="15.121943333">
<time>2014-07-06T10:03:48Z</time>
 <fix>none</fix>
 <sat>0</sat>
</trkpt>
<trkpt lat="60.886318333" lon="15.121821667">
<time>2014-07-06T10:03:49Z</time>
 <fix>none</fix>
 <sat>0</sat>
</trkpt>
<trkpt lat="60.886256667" lon="15.121711667">
<time>2014-07-06T10:03:50Z</time>
 <fix>none</fix>
 <sat>0</sat>
</trkpt>
<trkpt lat="60.886256667" lon="15.121711667">
<time>2014-07-06T10:03:51Z</time>
 <fix>none</fix>
 <sat>0</sat>
</trkpt>
<trkpt lat="60.886193333" lon="15.121596667">
<time>2014-07-06T10:03:52Z</time>
 <fix>none</fix>
 <sat>0</sat>
</trkpt>
<trkpt lat="60.886130000" lon="15.121470000">
<time>2014-07-06T10:03:53Z</time>
 <fix>none</fix>
 <sat>0</sat>
</trkpt>
<trkpt lat="60.886063333" lon="15.121353333">
<time>2014-07-06T10:03:54Z</time>
 <fix>none</fix>
 <sat>0</sat>
</trkpt>
<trkpt lat="60.886000000" lon="15.121233333">
<time>2014-07-06T10:03:55Z</time>
 <fix>none</fix>
 <sat>0</sat>
</trkpt>
<trkpt lat="60.885933333" lon="15.121121667">
<time>2014-07-06T10:03:56Z</time>
 <fix>none</fix>
 <sat>0</sat>
</trkpt>
<trkpt lat="60.885811667" lon="15.120891667">
<time>2014-07-06T10:03:57Z</time>
 <fix>none</fix>
 <sat>0</sat>
</trkpt>
<trkpt lat="60.885811667" lon="15.120891667">
<time>2014-07-06T10:03:58Z</time>
 <fix>none</fix>
 <sat>0</sat>
</trkpt>
<trkpt lat="60.885705000" lon="15.120691667">
<time>2014-07-06T10:03:59Z</time>
 <fix>none</fix>
 <sat>0</sat>
</trkpt>
<trkpt lat="60.885655000" lon="15.120611667">
<time>2014-07-06T10:04:00Z</time>
 <fix>none</fix>
 <sat>0</sat>
</trkpt>
<trkpt lat="60.885611667" lon="15.120535000">
<time>2014-07-06T10:04:01Z</time>
 <fix>none</fix>
 <sat>0</sat>
</trkpt>
<trkpt lat="60.885573333" lon="15.120468333">
<time>2014-07-06T10:04:02Z</time>
 <fix>none</fix>
 <sat>0</sat>
</trkpt>
<trkpt lat="60.885538333" lon="15.120410000">
<time>2014-07-06T10:04:03Z</time>
 <fix>none</fix>
 <sat>0</sat>
</trkpt>
<trkpt lat="60.885501667" lon="15.120366667">
<time>2014-07-06T10:04:04Z</time>
 <fix>none</fix>
 <sat>0</sat>
</trkpt>
<trkpt lat="60.885460000" lon="15.120350000">
<time>2014-07-06T10:04:05Z</time>
 <fix>none</fix>
 <sat>0</sat>
</trkpt>
<trkpt lat="60.885416667" lon="15.120375000">
<time>2014-07-06T10:04:06Z</time>
 <fix>none</fix>
 <sat>0</sat>
</trkpt>
<trkpt lat="60.885375000" lon="15.120433333">
<time>2014-07-06T10:04:07Z</time>
 <fix>none</fix>
 <sat>0</sat>
</trkpt>
<trkpt lat="60.885375000" lon="15.120433333">
<time>2014-07-06T10:04:08Z</time>
 <fix>none</fix>
 <sat>0</sat>
</trkpt>
<trkpt lat="60.885375000" lon="15.120433333">
<time>2014-07-06T10:04:09Z</time>
 <fix>none</fix>
 <sat>0</sat>
</trkpt>
<trkpt lat="60.885225000" lon="15.120660000">
<time>2014-07-06T10:04:10Z</time>
 <fix>none</fix>
 <sat>0</sat>
</trkpt>
<trkpt lat="60.885225000" lon="15.120660000">
<time>2014-07-06T10:04:11Z</time>
 <fix>none</fix>
 <sat>0</sat>
</trkpt>
<trkpt lat="60.885105000" lon="15.120848333">
<time>2014-07-06T10:04:12Z</time>
 <fix>none</fix>
 <sat>0</sat>
</trkpt>
<trkpt lat="60.885105000" lon="15.120848333">
<time>2014-07-06T10:04:13Z</time>
 <fix>none</fix>
 <sat>0</sat>
</trkpt>
<trkpt lat="60.884988333" lon="15.121026667">
<time>2014-07-06T10:04:14Z</time>
 <fix>none</fix>
 <sat>0</sat>
</trkpt>
<trkpt lat="60.884988333" lon="15.121026667">
<time>2014-07-06T10:04:15Z</time>
 <fix>none</fix>
 <sat>0</sat>
</trkpt>
<trkpt lat="60.884870000" lon="15.121206667">
<time>2014-07-06T10:04:16Z</time>
 <fix>none</fix>
 <sat>0</sat>
</trkpt>
<trkpt lat="60.884870000" lon="15.121206667">
<time>2014-07-06T10:04:17Z</time>
 <fix>none</fix>
 <sat>0</sat>
</trkpt>
<trkpt lat="60.884738333" lon="15.121425000">
<time>2014-07-06T10:04:18Z</time>
 <fix>none</fix>
 <sat>0</sat>
</trkpt>
<trkpt lat="60.884721667" lon="15.121461667">
<time>2014-07-06T10:04:19Z</time>
 <fix>none</fix>
 <sat>0</sat>
</trkpt>
<trkpt lat="60.884663333" lon="15.121550000">
<time>2014-07-06T10:04:20Z</time>
 <fix>none</fix>
 <sat>0</sat>
</trkpt>
<trkpt lat="60.884525000" lon="15.121811667">
<time>2014-07-06T10:04:21Z</time>
 <fix>none</fix>
 <sat>0</sat>
</trkpt>
<trkpt lat="60.884450000" lon="15.121955000">
<time>2014-07-06T10:04:22Z</time>
 <fix>none</fix>
 <sat>0</sat>
</trkpt>
<trkpt lat="60.884375000" lon="15.122093333">
<time>2014-07-06T10:04:23Z</time>
 <fix>none</fix>
 <sat>0</sat>
</trkpt>
<trkpt lat="60.884301667" lon="15.122225000">
<time>2014-07-06T10:04:24Z</time>
 <fix>none</fix>
 <sat>0</sat>
</trkpt>
<trkpt lat="60.884233333" lon="15.122336667">
<time>2014-07-06T10:04:25Z</time>
 <fix>none</fix>
 <sat>0</sat>
</trkpt>
<trkpt lat="60.884163333" lon="15.122450000">
<time>2014-07-06T10:04:26Z</time>
 <fix>none</fix>
 <sat>0</sat>
</trkpt>
<trkpt lat="60.884095000" lon="15.122568333">
<time>2014-07-06T10:04:27Z</time>
 <fix>none</fix>
 <sat>0</sat>
</trkpt>
<trkpt lat="60.884026667" lon="15.122685000">
<time>2014-07-06T10:04:28Z</time>
 <fix>none</fix>
 <sat>0</sat>
</trkpt>
<trkpt lat="60.883963333" lon="15.122795000">
<time>2014-07-06T10:04:29Z</time>
 <fix>none</fix>
 <sat>0</sat>
</trkpt>
<trkpt lat="60.883900000" lon="15.122903333">
<time>2014-07-06T10:04:30Z</time>
 <fix>none</fix>
 <sat>0</sat>
</trkpt>
<trkpt lat="60.883836667" lon="15.123001667">
<time>2014-07-06T10:04:31Z</time>
 <fix>none</fix>
 <sat>0</sat>
</trkpt>
<trkpt lat="60.883778333" lon="15.123091667">
<time>2014-07-06T10:04:32Z</time>
 <fix>none</fix>
 <sat>0</sat>
</trkpt>
<trkpt lat="60.883716667" lon="15.123195000">
<time>2014-07-06T10:04:33Z</time>
 <fix>none</fix>
 <sat>0</sat>
</trkpt>
<trkpt lat="60.883656667" lon="15.123295000">
<time>2014-07-06T10:04:34Z</time>
 <fix>none</fix>
 <sat>0</sat>
</trkpt>
<trkpt lat="60.883598333" lon="15.123383333">
<time>2014-07-06T10:04:35Z</time>
 <fix>none</fix>
 <sat>0</sat>
</trkpt>
<trkpt lat="60.883543333" lon="15.123468333">
<time>2014-07-06T10:04:36Z</time>
 <fix>none</fix>
 <sat>0</sat>
</trkpt>
<trkpt lat="60.883543333" lon="15.123468333">
<time>2014-07-06T10:04:37Z</time>
 <fix>none</fix>
 <sat>0</sat>
</trkpt>
<trkpt lat="60.883491667" lon="15.123553333">
<time>2014-07-06T10:04:38Z</time>
 <fix>none</fix>
 <sat>0</sat>
</trkpt>
<trkpt lat="60.883445000" lon="15.123633333">
<time>2014-07-06T10:04:39Z</time>
 <fix>none</fix>
 <sat>0</sat>
</trkpt>
<trkpt lat="60.883400000" lon="15.123710000">
<time>2014-07-06T10:04:40Z</time>
 <fix>none</fix>
 <sat>0</sat>
</trkpt>
<trkpt lat="60.883360000" lon="15.123771667">
<time>2014-07-06T10:04:41Z</time>
 <fix>none</fix>
 <sat>0</sat>
</trkpt>
<trkpt lat="60.883316667" lon="15.123813333">
<time>2014-07-06T10:04:42Z</time>
 <fix>none</fix>
 <sat>0</sat>
</trkpt>
<trkpt lat="60.883273333" lon="15.123803333">
<time>2014-07-06T10:04:43Z</time>
 <fix>none</fix>
 <sat>0</sat>
</trkpt>
<trkpt lat="60.883195000" lon="15.123666667">
<time>2014-07-06T10:04:44Z</time>
 <fix>none</fix>
 <sat>0</sat>
</trkpt>
<trkpt lat="60.883158333" lon="15.123546667">
<time>2014-07-06T10:04:45Z</time>
 <fix>none</fix>
 <sat>0</sat>
</trkpt>
<trkpt lat="60.883121667" lon="15.123423333">
<time>2014-07-06T10:04:46Z</time>
 <fix>none</fix>
 <sat>0</sat>
</trkpt>
<trkpt lat="60.883080000" lon="15.123301667">
<time>2014-07-06T10:04:47Z</time>
 <fix>none</fix>
 <sat>0</sat>
</trkpt>
<trkpt lat="60.883035000" lon="15.123176667">
<time>2014-07-06T10:04:48Z</time>
 <fix>none</fix>
 <sat>0</sat>
</trkpt>
<trkpt lat="60.882995000" lon="15.123038333">
<time>2014-07-06T10:04:49Z</time>
 <fix>none</fix>
 <sat>0</sat>
</trkpt>
<trkpt lat="60.882946667" lon="15.122905000">
<time>2014-07-06T10:04:50Z</time>
 <fix>none</fix>
 <sat>0</sat>
</trkpt>
<trkpt lat="60.882896667" lon="15.122776667">
<time>2014-07-06T10:04:51Z</time>
 <fix>none</fix>
 <sat>0</sat>
</trkpt>
<trkpt lat="60.882846667" lon="15.122645000">
<time>2014-07-06T10:04:52Z</time>
 <fix>none</fix>
 <sat>0</sat>
</trkpt>
<trkpt lat="60.882796667" lon="15.122515000">
<time>2014-07-06T10:04:53Z</time>
 <fix>none</fix>
 <sat>0</sat>
</trkpt>
<trkpt lat="60.882746667" lon="15.122381667">
<time>2014-07-06T10:04:54Z</time>
 <fix>none</fix>
 <sat>0</sat>
</trkpt>
<trkpt lat="60.882696667" lon="15.122246667">
<time>2014-07-06T10:04:55Z</time>
 <fix>none</fix>
 <sat>0</sat>
</trkpt>
<trkpt lat="60.882646667" lon="15.122111667">
<time>2014-07-06T10:04:56Z</time>
 <fix>none</fix>
 <sat>0</sat>
</trkpt>
<trkpt lat="60.882595000" lon="15.121973333">
<time>2014-07-06T10:04:57Z</time>
 <fix>none</fix>
 <sat>0</sat>
</trkpt>
<trkpt lat="60.882546667" lon="15.121835000">
<time>2014-07-06T10:04:58Z</time>
 <fix>none</fix>
 <sat>0</sat>
</trkpt>
<trkpt lat="60.882505000" lon="15.121688333">
<time>2014-07-06T10:04:59Z</time>
 <fix>none</fix>
 <sat>0</sat>
</trkpt>
<trkpt lat="60.882505000" lon="15.121688333">
<time>2014-07-06T10:05:00Z</time>
 <fix>none</fix>
 <sat>0</sat>
</trkpt>
<trkpt lat="60.882470000" lon="15.121541667">
<time>2014-07-06T10:05:01Z</time>
 <fix>none</fix>
 <sat>0</sat>
</trkpt>
<trkpt lat="60.882425000" lon="15.121413333">
<time>2014-07-06T10:05:02Z</time>
 <fix>none</fix>
 <sat>0</sat>
</trkpt>
<trkpt lat="60.882381667" lon="15.121285000">
<time>2014-07-06T10:05:03Z</time>
 <fix>none</fix>
 <sat>0</sat>
</trkpt>
<trkpt lat="60.882335000" lon="15.121175000">
<time>2014-07-06T10:05:04Z</time>
 <fix>none</fix>
 <sat>0</sat>
</trkpt>
<trkpt lat="60.882298333" lon="15.121053333">
<time>2014-07-06T10:05:05Z</time>
 <fix>none</fix>
 <sat>0</sat>
</trkpt>
<trkpt lat="60.882261667" lon="15.120936667">
<time>2014-07-06T10:05:06Z</time>
 <fix>none</fix>
 <sat>0</sat>
</trkpt>
<trkpt lat="60.882221667" lon="15.120833333">
<time>2014-07-06T10:05:07Z</time>
 <fix>none</fix>
 <sat>0</sat>
</trkpt>
<trkpt lat="60.882128333" lon="15.120686667">
<time>2014-07-06T10:05:08Z</time>
 <fix>none</fix>
 <sat>0</sat>
</trkpt>
<trkpt lat="60.882070000" lon="15.120668333">
<time>2014-07-06T10:05:09Z</time>
 <fix>none</fix>
 <sat>0</sat>
</trkpt>
<trkpt lat="60.882005000" lon="15.120686667">
<time>2014-07-06T10:05:10Z</time>
 <fix>none</fix>
 <sat>0</sat>
</trkpt>
<trkpt lat="60.881935000" lon="15.120711667">
<time>2014-07-06T10:05:11Z</time>
 <fix>none</fix>
 <sat>0</sat>
</trkpt>
<trkpt lat="60.881866667" lon="15.120721667">
<time>2014-07-06T10:05:12Z</time>
 <fix>none</fix>
 <sat>0</sat>
</trkpt>
<trkpt lat="60.881795000" lon="15.120733333">
<time>2014-07-06T10:05:13Z</time>
 <fix>none</fix>
 <sat>0</sat>
</trkpt>
<trkpt lat="60.881726667" lon="15.120748333">
<time>2014-07-06T10:05:14Z</time>
 <fix>none</fix>
 <sat>0</sat>
</trkpt>
<trkpt lat="60.881655000" lon="15.120763333">
<time>2014-07-06T10:05:15Z</time>
 <fix>none</fix>
 <sat>0</sat>
</trkpt>
<trkpt lat="60.881583333" lon="15.120778333">
<time>2014-07-06T10:05:16Z</time>
 <fix>none</fix>
 <sat>0</sat>
</trkpt>
<trkpt lat="60.881518333" lon="15.120780000">
<time>2014-07-06T10:05:17Z</time>
 <fix>none</fix>
 <sat>0</sat>
</trkpt>
<trkpt lat="60.881451667" lon="15.120786667">
<time>2014-07-06T10:05:18Z</time>
 <fix>none</fix>
 <sat>0</sat>
</trkpt>
<trkpt lat="60.881451667" lon="15.120786667">
<time>2014-07-06T10:05:19Z</time>
 <fix>none</fix>
 <sat>0</sat>
</trkpt>
<trkpt lat="60.881451667" lon="15.120786667">
<time>2014-07-06T10:05:20Z</time>
 <fix>none</fix>
 <sat>0</sat>
</trkpt>
<trkpt lat="60.881253333" lon="15.120795000">
<time>2014-07-06T10:05:21Z</time>
 <fix>none</fix>
 <sat>0</sat>
</trkpt>
<trkpt lat="60.881253333" lon="15.120795000">
<time>2014-07-06T10:05:22Z</time>
 <fix>none</fix>
 <sat>0</sat>
</trkpt>
<trkpt lat="60.881115000" lon="15.120826667">
<time>2014-07-06T10:05:23Z</time>
 <fix>none</fix>
 <sat>0</sat>
</trkpt>
<trkpt lat="60.881115000" lon="15.120826667">
<time>2014-07-06T10:05:24Z</time>
 <fix>none</fix>
 <sat>0</sat>
</trkpt>
<trkpt lat="60.880973333" lon="15.120848333">
<time>2014-07-06T10:05:25Z</time>
 <fix>none</fix>
 <sat>0</sat>
</trkpt>
<trkpt lat="60.880973333" lon="15.120848333">
<time>2014-07-06T10:05:26Z</time>
 <fix>none</fix>
 <sat>0</sat>
</trkpt>
<trkpt lat="60.880830000" lon="15.120868333">
<time>2014-07-06T10:05:27Z</time>
 <fix>none</fix>
 <sat>0</sat>
</trkpt>
<trkpt lat="60.880830000" lon="15.120868333">
<time>2014-07-06T10:05:28Z</time>
 <fix>none</fix>
 <sat>0</sat>
</trkpt>
<trkpt lat="60.880691667" lon="15.120845000">
<time>2014-07-06T10:05:29Z</time>
 <fix>none</fix>
 <sat>0</sat>
</trkpt>
<trkpt lat="60.880691667" lon="15.120845000">
<time>2014-07-06T10:05:30Z</time>
 <fix>none</fix>
 <sat>0</sat>
</trkpt>
<trkpt lat="60.880560000" lon="15.120825000">
<time>2014-07-06T10:05:31Z</time>
 <fix>none</fix>
 <sat>0</sat>
</trkpt>
<trkpt lat="60.880560000" lon="15.120825000">
<time>2014-07-06T10:05:32Z</time>
 <fix>none</fix>
 <sat>0</sat>
</trkpt>
<trkpt lat="60.880435000" lon="15.120803333">
<time>2014-07-06T10:05:33Z</time>
 <fix>none</fix>
 <sat>0</sat>
</trkpt>
<trkpt lat="60.880435000" lon="15.120803333">
<time>2014-07-06T10:05:34Z</time>
 <fix>none</fix>
 <sat>0</sat>
</trkpt>
<trkpt lat="60.880315000" lon="15.120780000">
<time>2014-07-06T10:05:35Z</time>
 <fix>none</fix>
 <sat>0</sat>
</trkpt>
<trkpt lat="60.880315000" lon="15.120780000">
<time>2014-07-06T10:05:36Z</time>
 <fix>none</fix>
 <sat>0</sat>
</trkpt>
<trkpt lat="60.880195000" lon="15.120741667">
<time>2014-07-06T10:05:37Z</time>
 <fix>none</fix>
 <sat>0</sat>
</trkpt>
<trkpt lat="60.880195000" lon="15.120741667">
<time>2014-07-06T10:05:38Z</time>
 <fix>none</fix>
 <sat>0</sat>
</trkpt>
<trkpt lat="60.880081667" lon="15.120721667">
<time>2014-07-06T10:05:39Z</time>
 <fix>none</fix>
 <sat>0</sat>
</trkpt>
<trkpt lat="60.880081667" lon="15.120721667">
<time>2014-07-06T10:05:40Z</time>
 <fix>none</fix>
 <sat>0</sat>
</trkpt>
<trkpt lat="60.879988333" lon="15.120643333">
<time>2014-07-06T10:05:41Z</time>
 <fix>none</fix>
 <sat>0</sat>
</trkpt>
<trkpt lat="60.879988333" lon="15.120643333">
<time>2014-07-06T10:05:42Z</time>
 <fix>none</fix>
 <sat>0</sat>
</trkpt>
<trkpt lat="60.879903333" lon="15.120610000">
<time>2014-07-06T10:05:43Z</time>
 <fix>none</fix>
 <sat>0</sat>
</trkpt>
<trkpt lat="60.879903333" lon="15.120610000">
<time>2014-07-06T10:05:44Z</time>
 <fix>none</fix>
 <sat>0</sat>
</trkpt>
<trkpt lat="60.879826667" lon="15.120593333">
<time>2014-07-06T10:05:45Z</time>
 <fix>none</fix>
 <sat>0</sat>
</trkpt>
<trkpt lat="60.879826667" lon="15.120593333">
<time>2014-07-06T10:05:46Z</time>
 <fix>none</fix>
 <sat>0</sat>
</trkpt>
<trkpt lat="60.879761667" lon="15.120581667">
<time>2014-07-06T10:05:47Z</time>
 <fix>none</fix>
 <sat>0</sat>
</trkpt>
<trkpt lat="60.879761667" lon="15.120581667">
<time>2014-07-06T10:05:48Z</time>
 <fix>none</fix>
 <sat>0</sat>
</trkpt>
<trkpt lat="60.879706667" lon="15.120563333">
<time>2014-07-06T10:05:49Z</time>
 <fix>none</fix>
 <sat>0</sat>
</trkpt>
<trkpt lat="60.879706667" lon="15.120563333">
<time>2014-07-06T10:05:50Z</time>
 <fix>none</fix>
 <sat>0</sat>
</trkpt>
<trkpt lat="60.879660000" lon="15.120540000">
<time>2014-07-06T10:05:51Z</time>
 <fix>none</fix>
 <sat>0</sat>
</trkpt>
<trkpt lat="60.879660000" lon="15.120540000">
<time>2014-07-06T10:05:52Z</time>
 <fix>none</fix>
 <sat>0</sat>
</trkpt>
<trkpt lat="60.879611667" lon="15.120488333">
<time>2014-07-06T10:05:53Z</time>
 <fix>none</fix>
 <sat>0</sat>
</trkpt>
<trkpt lat="60.879611667" lon="15.120488333">
<time>2014-07-06T10:05:54Z</time>
 <fix>none</fix>
 <sat>0</sat>
</trkpt>
<trkpt lat="60.879561667" lon="15.120453333">
<time>2014-07-06T10:05:55Z</time>
 <fix>none</fix>
 <sat>0</sat>
</trkpt>
<trkpt lat="60.879561667" lon="15.120453333">
<time>2014-07-06T10:05:56Z</time>
 <fix>none</fix>
 <sat>0</sat>
</trkpt>
<trkpt lat="60.879505000" lon="15.120421667">
<time>2014-07-06T10:05:57Z</time>
 <fix>none</fix>
 <sat>0</sat>
</trkpt>
<trkpt lat="60.879505000" lon="15.120421667">
<time>2014-07-06T10:05:58Z</time>
 <fix>none</fix>
 <sat>0</sat>
</trkpt>
<trkpt lat="60.879423333" lon="15.120370000">
<time>2014-07-06T10:05:59Z</time>
 <fix>none</fix>
 <sat>0</sat>
</trkpt>
<trkpt lat="60.879423333" lon="15.120370000">
<time>2014-07-06T10:06:00Z</time>
 <fix>none</fix>
 <sat>0</sat>
</trkpt>
<trkpt lat="60.879351667" lon="15.120348333">
<time>2014-07-06T10:06:01Z</time>
 <fix>none</fix>
 <sat>0</sat>
</trkpt>
<trkpt lat="60.879351667" lon="15.120348333">
<time>2014-07-06T10:06:02Z</time>
 <fix>none</fix>
 <sat>0</sat>
</trkpt>
<trkpt lat="60.879285000" lon="15.120321667">
<time>2014-07-06T10:06:03Z</time>
 <fix>none</fix>
 <sat>0</sat>
</trkpt>
<trkpt lat="60.879285000" lon="15.120321667">
<time>2014-07-06T10:06:04Z</time>
 <fix>none</fix>
 <sat>0</sat>
</trkpt>
<trkpt lat="60.879223333" lon="15.120275000">
<time>2014-07-06T10:06:05Z</time>
 <fix>none</fix>
 <sat>0</sat>
</trkpt>
<trkpt lat="60.879223333" lon="15.120275000">
<time>2014-07-06T10:06:06Z</time>
 <fix>none</fix>
 <sat>0</sat>
</trkpt>
<trkpt lat="60.879153333" lon="15.120258333">
<time>2014-07-06T10:06:07Z</time>
 <fix>none</fix>
 <sat>0</sat>
</trkpt>
<trkpt lat="60.879153333" lon="15.120258333">
<time>2014-07-06T10:06:08Z</time>
 <fix>none</fix>
 <sat>0</sat>
</trkpt>
<trkpt lat="60.879088333" lon="15.120221667">
<time>2014-07-06T10:06:09Z</time>
 <fix>none</fix>
 <sat>0</sat>
</trkpt>
<trkpt lat="60.879088333" lon="15.120221667">
<time>2014-07-06T10:06:10Z</time>
 <fix>none</fix>
 <sat>0</sat>
</trkpt>
<trkpt lat="60.879028333" lon="15.120181667">
<time>2014-07-06T10:06:11Z</time>
 <fix>none</fix>
 <sat>0</sat>
</trkpt>
<trkpt lat="60.879028333" lon="15.120181667">
<time>2014-07-06T10:06:12Z</time>
 <fix>none</fix>
 <sat>0</sat>
</trkpt>
<trkpt lat="60.878968333" lon="15.120146667">
<time>2014-07-06T10:06:13Z</time>
 <fix>none</fix>
 <sat>0</sat>
</trkpt>
<trkpt lat="60.878968333" lon="15.120146667">
<time>2014-07-06T10:06:14Z</time>
 <fix>none</fix>
 <sat>0</sat>
</trkpt>
<trkpt lat="60.878968333" lon="15.120146667">
<time>2014-07-06T10:06:15Z</time>
 <fix>none</fix>
 <sat>0</sat>
</trkpt>
<trkpt lat="60.878905000" lon="15.120120000">
<time>2014-07-06T10:06:16Z</time>
 <fix>none</fix>
 <sat>0</sat>
</trkpt>
<trkpt lat="60.878838333" lon="15.120083333">
<time>2014-07-06T10:06:17Z</time>
 <fix>none</fix>
 <sat>0</sat>
</trkpt>
<trkpt lat="60.878838333" lon="15.120083333">
<time>2014-07-06T10:06:18Z</time>
 <fix>none</fix>
 <sat>0</sat>
</trkpt>
<trkpt lat="60.878775000" lon="15.120061667">
<time>2014-07-06T10:06:19Z</time>
 <fix>none</fix>
 <sat>0</sat>
</trkpt>
<trkpt lat="60.878748333" lon="15.120060000">
<time>2014-07-06T10:06:20Z</time>
 <fix>none</fix>
 <sat>0</sat>
</trkpt>
<trkpt lat="60.878720000" lon="15.120075000">
<time>2014-07-06T10:06:21Z</time>
 <fix>none</fix>
 <sat>0</sat>
</trkpt>
<trkpt lat="60.878683333" lon="15.120088333">
<time>2014-07-06T10:06:22Z</time>
 <fix>none</fix>
 <sat>0</sat>
</trkpt>
<trkpt lat="60.878643333" lon="15.120111667">
<time>2014-07-06T10:06:23Z</time>
 <fix>none</fix>
 <sat>0</sat>
</trkpt>
<trkpt lat="60.878606667" lon="15.120121667">
<time>2014-07-06T10:06:24Z</time>
 <fix>none</fix>
 <sat>0</sat>
</trkpt>
<trkpt lat="60.878575000" lon="15.120126667">
<time>2014-07-06T10:06:25Z</time>
 <fix>none</fix>
 <sat>0</sat>
</trkpt>
<trkpt lat="60.878548333" lon="15.120133333">
<time>2014-07-06T10:06:26Z</time>
 <fix>none</fix>
 <sat>0</sat>
</trkpt>
<trkpt lat="60.878515000" lon="15.120156667">
<time>2014-07-06T10:06:27Z</time>
 <fix>none</fix>
 <sat>0</sat>
</trkpt>
<trkpt lat="60.878481667" lon="15.120161667">
<time>2014-07-06T10:06:28Z</time>
 <fix>none</fix>
 <sat>0</sat>
</trkpt>
<trkpt lat="60.878451667" lon="15.120166667">
<time>2014-07-06T10:06:29Z</time>
 <fix>none</fix>
 <sat>0</sat>
</trkpt>
<trkpt lat="60.878420000" lon="15.120175000">
<time>2014-07-06T10:06:30Z</time>
 <fix>none</fix>
 <sat>0</sat>
</trkpt>
<trkpt lat="60.878420000" lon="15.120175000">
<time>2014-07-06T10:06:31Z</time>
 <fix>none</fix>
 <sat>0</sat>
</trkpt>
<trkpt lat="60.878390000" lon="15.120183333">
<time>2014-07-06T10:06:32Z</time>
 <fix>none</fix>
 <sat>0</sat>
</trkpt>
<trkpt lat="60.878361667" lon="15.120190000">
<time>2014-07-06T10:06:33Z</time>
 <fix>none</fix>
 <sat>0</sat>
</trkpt>
<trkpt lat="60.878331667" lon="15.120196667">
<time>2014-07-06T10:06:34Z</time>
 <fix>none</fix>
 <sat>0</sat>
</trkpt>
<trkpt lat="60.878301667" lon="15.120206667">
<time>2014-07-06T10:06:35Z</time>
 <fix>none</fix>
 <sat>0</sat>
</trkpt>
<trkpt lat="60.878270000" lon="15.120226667">
<time>2014-07-06T10:06:36Z</time>
 <fix>none</fix>
 <sat>0</sat>
</trkpt>
<trkpt lat="60.878240000" lon="15.120240000">
<time>2014-07-06T10:06:37Z</time>
 <fix>none</fix>
 <sat>0</sat>
</trkpt>
<trkpt lat="60.878211667" lon="15.120253333">
<time>2014-07-06T10:06:38Z</time>
 <fix>none</fix>
 <sat>0</sat>
</trkpt>
<trkpt lat="60.878211667" lon="15.120253333">
<time>2014-07-06T10:06:39Z</time>
 <fix>none</fix>
 <sat>0</sat>
</trkpt>
<trkpt lat="60.878130000" lon="15.120273333">
<time>2014-07-06T10:06:40Z</time>
 <fix>none</fix>
 <sat>0</sat>
</trkpt>
<trkpt lat="60.878130000" lon="15.120273333">
<time>2014-07-06T10:06:41Z</time>
 <fix>none</fix>
 <sat>0</sat>
</trkpt>
<trkpt lat="60.878076667" lon="15.120283333">
<time>2014-07-06T10:06:42Z</time>
 <fix>none</fix>
 <sat>0</sat>
</trkpt>
<trkpt lat="60.878076667" lon="15.120283333">
<time>2014-07-06T10:06:43Z</time>
 <fix>none</fix>
 <sat>0</sat>
</trkpt>
<trkpt lat="60.878023333" lon="15.120296667">
<time>2014-07-06T10:06:44Z</time>
 <fix>none</fix>
 <sat>0</sat>
</trkpt>
<trkpt lat="60.878023333" lon="15.120296667">
<time>2014-07-06T10:06:45Z</time>
 <fix>none</fix>
 <sat>0</sat>
</trkpt>
<trkpt lat="60.877976667" lon="15.120285000">
<time>2014-07-06T10:06:46Z</time>
 <fix>none</fix>
 <sat>0</sat>
</trkpt>
<trkpt lat="60.877976667" lon="15.120285000">
<time>2014-07-06T10:06:47Z</time>
 <fix>none</fix>
 <sat>0</sat>
</trkpt>
<trkpt lat="60.877928333" lon="15.120270000">
<time>2014-07-06T10:06:48Z</time>
 <fix>none</fix>
 <sat>0</sat>
</trkpt>
<trkpt lat="60.877928333" lon="15.120270000">
<time>2014-07-06T10:06:49Z</time>
 <fix>none</fix>
 <sat>0</sat>
</trkpt>
<trkpt lat="60.877871667" lon="15.120278333">
<time>2014-07-06T10:06:50Z</time>
 <fix>none</fix>
 <sat>0</sat>
</trkpt>
<trkpt lat="60.877871667" lon="15.120278333">
<time>2014-07-06T10:06:51Z</time>
 <fix>none</fix>
 <sat>0</sat>
</trkpt>
<trkpt lat="60.877815000" lon="15.120278333">
<time>2014-07-06T10:06:52Z</time>
 <fix>none</fix>
 <sat>0</sat>
</trkpt>
<trkpt lat="60.877786667" lon="15.120271667">
<time>2014-07-06T10:06:53Z</time>
 <fix>none</fix>
 <sat>0</sat>
</trkpt>
<trkpt lat="60.877786667" lon="15.120271667">
<time>2014-07-06T10:06:54Z</time>
 <fix>none</fix>
 <sat>0</sat>
</trkpt>
<trkpt lat="60.877755000" lon="15.120281667">
<time>2014-07-06T10:06:55Z</time>
 <fix>none</fix>
 <sat>0</sat>
</trkpt>
<trkpt lat="60.877715000" lon="15.120283333">
<time>2014-07-06T10:06:56Z</time>
 <fix>none</fix>
 <sat>0</sat>
</trkpt>
<trkpt lat="60.877681667" lon="15.120271667">
<time>2014-07-06T10:06:57Z</time>
 <fix>none</fix>
 <sat>0</sat>
</trkpt>
<trkpt lat="60.877651667" lon="15.120263333">
<time>2014-07-06T10:06:58Z</time>
 <fix>none</fix>
 <sat>0</sat>
</trkpt>
<trkpt lat="60.877618333" lon="15.120265000">
<time>2014-07-06T10:06:59Z</time>
 <fix>none</fix>
 <sat>0</sat>
</trkpt>
<trkpt lat="60.877560000" lon="15.120238333">
<time>2014-07-06T10:07:00Z</time>
 <fix>none</fix>
 <sat>0</sat>
</trkpt>
<trkpt lat="60.877560000" lon="15.120238333">
<time>2014-07-06T10:07:01Z</time>
 <fix>none</fix>
 <sat>0</sat>
</trkpt>
<trkpt lat="60.877505000" lon="15.120218333">
<time>2014-07-06T10:07:02Z</time>
 <fix>none</fix>
 <sat>0</sat>
</trkpt>
<trkpt lat="60.877475000" lon="15.120216667">
<time>2014-07-06T10:07:03Z</time>
 <fix>none</fix>
 <sat>0</sat>
</trkpt>
<trkpt lat="60.877445000" lon="15.120216667">
<time>2014-07-06T10:07:04Z</time>
 <fix>none</fix>
 <sat>0</sat>
</trkpt>
<trkpt lat="60.877415000" lon="15.120218333">
<time>2014-07-06T10:07:05Z</time>
 <fix>none</fix>
 <sat>0</sat>
</trkpt>
<trkpt lat="60.877415000" lon="15.120218333">
<time>2014-07-06T10:07:06Z</time>
 <fix>none</fix>
 <sat>0</sat>
</trkpt>
<trkpt lat="60.877415000" lon="15.120218333">
<time>2014-07-06T10:07:07Z</time>
 <fix>none</fix>
 <sat>0</sat>
</trkpt>
<trkpt lat="60.877323333" lon="15.120233333">
<time>2014-07-06T10:07:08Z</time>
 <fix>none</fix>
 <sat>0</sat>
</trkpt>
<trkpt lat="60.877323333" lon="15.120233333">
<time>2014-07-06T10:07:09Z</time>
 <fix>none</fix>
 <sat>0</sat>
</trkpt>
<trkpt lat="60.877256667" lon="15.120246667">
<time>2014-07-06T10:07:10Z</time>
 <fix>none</fix>
 <sat>0</sat>
</trkpt>
<trkpt lat="60.877256667" lon="15.120246667">
<time>2014-07-06T10:07:11Z</time>
 <fix>none</fix>
 <sat>0</sat>
</trkpt>
<trkpt lat="60.877195000" lon="15.120253333">
<time>2014-07-06T10:07:12Z</time>
 <fix>none</fix>
 <sat>0</sat>
</trkpt>
<trkpt lat="60.877195000" lon="15.120253333">
<time>2014-07-06T10:07:13Z</time>
 <fix>none</fix>
 <sat>0</sat>
</trkpt>
<trkpt lat="60.877138333" lon="15.120280000">
<time>2014-07-06T10:07:14Z</time>
 <fix>none</fix>
 <sat>0</sat>
</trkpt>
<trkpt lat="60.877138333" lon="15.120280000">
<time>2014-07-06T10:07:15Z</time>
 <fix>none</fix>
 <sat>0</sat>
</trkpt>
<trkpt lat="60.877078333" lon="15.120295000">
<time>2014-07-06T10:07:16Z</time>
 <fix>none</fix>
 <sat>0</sat>
</trkpt>
<trkpt lat="60.877078333" lon="15.120295000">
<time>2014-07-06T10:07:17Z</time>
 <fix>none</fix>
 <sat>0</sat>
</trkpt>
<trkpt lat="60.877016667" lon="15.120298333">
<time>2014-07-06T10:07:18Z</time>
 <fix>none</fix>
 <sat>0</sat>
</trkpt>
<trkpt lat="60.877016667" lon="15.120298333">
<time>2014-07-06T10:07:19Z</time>
 <fix>none</fix>
 <sat>0</sat>
</trkpt>
<trkpt lat="60.876950000" lon="15.120278333">
<time>2014-07-06T10:07:20Z</time>
 <fix>none</fix>
 <sat>0</sat>
</trkpt>
<trkpt lat="60.876950000" lon="15.120278333">
<time>2014-07-06T10:07:21Z</time>
 <fix>none</fix>
 <sat>0</sat>
</trkpt>
<trkpt lat="60.876890000" lon="15.120241667">
<time>2014-07-06T10:07:22Z</time>
 <fix>none</fix>
 <sat>0</sat>
</trkpt>
<trkpt lat="60.876890000" lon="15.120241667">
<time>2014-07-06T10:07:23Z</time>
 <fix>none</fix>
 <sat>0</sat>
</trkpt>
<trkpt lat="60.876890000" lon="15.120241667">
<time>2014-07-06T10:07:24Z</time>
 <fix>none</fix>
 <sat>0</sat>
</trkpt>
<trkpt lat="60.876831667" lon="15.120211667">
<time>2014-07-06T10:07:25Z</time>
 <fix>none</fix>
 <sat>0</sat>
</trkpt>
<trkpt lat="60.876766667" lon="15.120213333">
<time>2014-07-06T10:07:26Z</time>
 <fix>none</fix>
 <sat>0</sat>
</trkpt>
<trkpt lat="60.876766667" lon="15.120213333">
<time>2014-07-06T10:07:27Z</time>
 <fix>none</fix>
 <sat>0</sat>
</trkpt>
<trkpt lat="60.876700000" lon="15.120175000">
<time>2014-07-06T10:07:28Z</time>
 <fix>none</fix>
 <sat>0</sat>
</trkpt>
<trkpt lat="60.876700000" lon="15.120175000">
<time>2014-07-06T10:07:29Z</time>
 <fix>none</fix>
 <sat>0</sat>
</trkpt>
<trkpt lat="60.876630000" lon="15.120115000">
<time>2014-07-06T10:07:30Z</time>
 <fix>none</fix>
 <sat>0</sat>
</trkpt>
<trkpt lat="60.876630000" lon="15.120115000">
<time>2014-07-06T10:07:31Z</time>
 <fix>none</fix>
 <sat>0</sat>
</trkpt>
<trkpt lat="60.876558333" lon="15.120080000">
<time>2014-07-06T10:07:32Z</time>
 <fix>none</fix>
 <sat>0</sat>
</trkpt>
<trkpt lat="60.876558333" lon="15.120080000">
<time>2014-07-06T10:07:33Z</time>
 <fix>none</fix>
 <sat>0</sat>
</trkpt>
<trkpt lat="60.876485000" lon="15.120065000">
<time>2014-07-06T10:07:34Z</time>
 <fix>none</fix>
 <sat>0</sat>
</trkpt>
<trkpt lat="60.876485000" lon="15.120065000">
<time>2014-07-06T10:07:35Z</time>
 <fix>none</fix>
 <sat>0</sat>
</trkpt>
<trkpt lat="60.876408333" lon="15.120065000">
<time>2014-07-06T10:07:36Z</time>
 <fix>none</fix>
 <sat>0</sat>
</trkpt>
<trkpt lat="60.876408333" lon="15.120065000">
<time>2014-07-06T10:07:37Z</time>
 <fix>none</fix>
 <sat>0</sat>
</trkpt>
<trkpt lat="60.876333333" lon="15.120040000">
<time>2014-07-06T10:07:38Z</time>
 <fix>none</fix>
 <sat>0</sat>
</trkpt>
<trkpt lat="60.876333333" lon="15.120040000">
<time>2014-07-06T10:07:39Z</time>
 <fix>none</fix>
 <sat>0</sat>
</trkpt>
<trkpt lat="60.876256667" lon="15.120005000">
<time>2014-07-06T10:07:40Z</time>
 <fix>none</fix>
 <sat>0</sat>
</trkpt>
<trkpt lat="60.876256667" lon="15.120005000">
<time>2014-07-06T10:07:41Z</time>
 <fix>none</fix>
 <sat>0</sat>
</trkpt>
<trkpt lat="60.876180000" lon="15.119956667">
<time>2014-07-06T10:07:42Z</time>
 <fix>none</fix>
 <sat>0</sat>
</trkpt>
<trkpt lat="60.876180000" lon="15.119956667">
<time>2014-07-06T10:07:43Z</time>
 <fix>none</fix>
 <sat>0</sat>
</trkpt>
<trkpt lat="60.876096667" lon="15.119923333">
<time>2014-07-06T10:07:44Z</time>
 <fix>none</fix>
 <sat>0</sat>
</trkpt>
<trkpt lat="60.876096667" lon="15.119923333">
<time>2014-07-06T10:07:45Z</time>
 <fix>none</fix>
 <sat>0</sat>
</trkpt>
<trkpt lat="60.876018333" lon="15.119905000">
<time>2014-07-06T10:07:46Z</time>
 <fix>none</fix>
 <sat>0</sat>
</trkpt>
<trkpt lat="60.876018333" lon="15.119905000">
<time>2014-07-06T10:07:47Z</time>
 <fix>none</fix>
 <sat>0</sat>
</trkpt>
<trkpt lat="60.875931667" lon="15.119878333">
<time>2014-07-06T10:07:48Z</time>
 <fix>none</fix>
 <sat>0</sat>
</trkpt>
<trkpt lat="60.875901667" lon="15.119868333">
<time>2014-07-06T10:07:49Z</time>
 <fix>none</fix>
 <sat>0</sat>
</trkpt>
<trkpt lat="60.875865000" lon="15.119868333">
<time>2014-07-06T10:07:50Z</time>
 <fix>none</fix>
 <sat>0</sat>
</trkpt>
<trkpt lat="60.875826667" lon="15.119858333">
<time>2014-07-06T10:07:51Z</time>
 <fix>none</fix>
 <sat>0</sat>
</trkpt>
<trkpt lat="60.875826667" lon="15.119858333">
<time>2014-07-06T10:07:52Z</time>
 <fix>none</fix>
 <sat>0</sat>
</trkpt>
<trkpt lat="60.875753333" lon="15.119861667">
<time>2014-07-06T10:07:53Z</time>
 <fix>none</fix>
 <sat>0</sat>
</trkpt>
<trkpt lat="60.875715000" lon="15.119848333">
<time>2014-07-06T10:07:54Z</time>
 <fix>none</fix>
 <sat>0</sat>
</trkpt>
<trkpt lat="60.875681667" lon="15.119851667">
<time>2014-07-06T10:07:55Z</time>
 <fix>none</fix>
 <sat>0</sat>
</trkpt>
<trkpt lat="60.875645000" lon="15.119846667">
<time>2014-07-06T10:07:56Z</time>
 <fix>none</fix>
 <sat>0</sat>
</trkpt>
<trkpt lat="60.875611667" lon="15.119838333">
<time>2014-07-06T10:07:57Z</time>
 <fix>none</fix>
 <sat>0</sat>
</trkpt>
<trkpt lat="60.875573333" lon="15.119828333">
<time>2014-07-06T10:07:58Z</time>
 <fix>none</fix>
 <sat>0</sat>
</trkpt>
<trkpt lat="60.875535000" lon="15.119831667">
<time>2014-07-06T10:07:59Z</time>
 <fix>none</fix>
 <sat>0</sat>
</trkpt>
<trkpt lat="60.875498333" lon="15.119833333">
<time>2014-07-06T10:08:00Z</time>
 <fix>none</fix>
 <sat>0</sat>
</trkpt>
<trkpt lat="60.875461667" lon="15.119840000">
<time>2014-07-06T10:08:01Z</time>
 <fix>none</fix>
 <sat>0</sat>
</trkpt>
<trkpt lat="60.875461667" lon="15.119840000">
<time>2014-07-06T10:08:02Z</time>
 <fix>none</fix>
 <sat>0</sat>
</trkpt>
<trkpt lat="60.875423333" lon="15.119848333">
<time>2014-07-06T10:08:03Z</time>
 <fix>none</fix>
 <sat>0</sat>
</trkpt>
<trkpt lat="60.875388333" lon="15.119860000">
<time>2014-07-06T10:08:04Z</time>
 <fix>none</fix>
 <sat>0</sat>
</trkpt>
<trkpt lat="60.875351667" lon="15.119878333">
<time>2014-07-06T10:08:05Z</time>
 <fix>none</fix>
 <sat>0</sat>
</trkpt>
<trkpt lat="60.875316667" lon="15.119898333">
<time>2014-07-06T10:08:06Z</time>
 <fix>none</fix>
 <sat>0</sat>
</trkpt>
<trkpt lat="60.875283333" lon="15.119921667">
<time>2014-07-06T10:08:07Z</time>
 <fix>none</fix>
 <sat>0</sat>
</trkpt>
<trkpt lat="60.875250000" lon="15.119950000">
<time>2014-07-06T10:08:08Z</time>
 <fix>none</fix>
 <sat>0</sat>
</trkpt>
<trkpt lat="60.875250000" lon="15.119950000">
<time>2014-07-06T10:08:09Z</time>
 <fix>none</fix>
 <sat>0</sat>
</trkpt>
<trkpt lat="60.875141667" lon="15.120035000">
<time>2014-07-06T10:08:10Z</time>
 <fix>none</fix>
 <sat>0</sat>
</trkpt>
<trkpt lat="60.875115000" lon="15.120053333">
<time>2014-07-06T10:08:11Z</time>
 <fix>none</fix>
 <sat>0</sat>
</trkpt>
<trkpt lat="60.875091667" lon="15.120081667">
<time>2014-07-06T10:08:12Z</time>
 <fix>none</fix>
 <sat>0</sat>
</trkpt>
<trkpt lat="60.875063333" lon="15.120106667">
<time>2014-07-06T10:08:13Z</time>
 <fix>none</fix>
 <sat>0</sat>
</trkpt>
<trkpt lat="60.875038333" lon="15.120141667">
<time>2014-07-06T10:08:14Z</time>
 <fix>none</fix>
 <sat>0</sat>
</trkpt>
<trkpt lat="60.875010000" lon="15.120181667">
<time>2014-07-06T10:08:15Z</time>
 <fix>none</fix>
 <sat>0</sat>
</trkpt>
<trkpt lat="60.874978333" lon="15.120223333">
<time>2014-07-06T10:08:16Z</time>
 <fix>none</fix>
 <sat>0</sat>
</trkpt>
<trkpt lat="60.874946667" lon="15.120271667">
<time>2014-07-06T10:08:17Z</time>
 <fix>none</fix>
 <sat>0</sat>
</trkpt>
<trkpt lat="60.874913333" lon="15.120315000">
<time>2014-07-06T10:08:18Z</time>
 <fix>none</fix>
 <sat>0</sat>
</trkpt>
<trkpt lat="60.874883333" lon="15.120348333">
<time>2014-07-06T10:08:19Z</time>
 <fix>none</fix>
 <sat>0</sat>
</trkpt>
<trkpt lat="60.874853333" lon="15.120375000">
<time>2014-07-06T10:08:20Z</time>
 <fix>none</fix>
 <sat>0</sat>
</trkpt>
<trkpt lat="60.874821667" lon="15.120411667">
<time>2014-07-06T10:08:21Z</time>
 <fix>none</fix>
 <sat>0</sat>
</trkpt>
<trkpt lat="60.874790000" lon="15.120446667">
<time>2014-07-06T10:08:22Z</time>
 <fix>none</fix>
 <sat>0</sat>
</trkpt>
<trkpt lat="60.874756667" lon="15.120485000">
<time>2014-07-06T10:08:23Z</time>
 <fix>none</fix>
 <sat>0</sat>
</trkpt>
<trkpt lat="60.874723333" lon="15.120513333">
<time>2014-07-06T10:08:24Z</time>
 <fix>none</fix>
 <sat>0</sat>
</trkpt>
<trkpt lat="60.874723333" lon="15.120513333">
<time>2014-07-06T10:08:25Z</time>
 <fix>none</fix>
 <sat>0</sat>
</trkpt>
<trkpt lat="60.874693333" lon="15.120531667">
<time>2014-07-06T10:08:26Z</time>
 <fix>none</fix>
 <sat>0</sat>
</trkpt>
<trkpt lat="60.874660000" lon="15.120546667">
<time>2014-07-06T10:08:27Z</time>
 <fix>none</fix>
 <sat>0</sat>
</trkpt>
<trkpt lat="60.874626667" lon="15.120556667">
<time>2014-07-06T10:08:28Z</time>
 <fix>none</fix>
 <sat>0</sat>
</trkpt>
<trkpt lat="60.874591667" lon="15.120563333">
<time>2014-07-06T10:08:29Z</time>
 <fix>none</fix>
 <sat>0</sat>
</trkpt>
<trkpt lat="60.874555000" lon="15.120561667">
<time>2014-07-06T10:08:30Z</time>
 <fix>none</fix>
 <sat>0</sat>
</trkpt>
<trkpt lat="60.874480000" lon="15.120535000">
<time>2014-07-06T10:08:31Z</time>
 <fix>none</fix>
 <sat>0</sat>
</trkpt>
<trkpt lat="60.874440000" lon="15.120508333">
<time>2014-07-06T10:08:32Z</time>
 <fix>none</fix>
 <sat>0</sat>
</trkpt>
<trkpt lat="60.874401667" lon="15.120473333">
<time>2014-07-06T10:08:33Z</time>
 <fix>none</fix>
 <sat>0</sat>
</trkpt>
<trkpt lat="60.874363333" lon="15.120425000">
<time>2014-07-06T10:08:34Z</time>
 <fix>none</fix>
 <sat>0</sat>
</trkpt>
<trkpt lat="60.874325000" lon="15.120370000">
<time>2014-07-06T10:08:35Z</time>
 <fix>none</fix>
 <sat>0</sat>
</trkpt>
<trkpt lat="60.874285000" lon="15.120306667">
<time>2014-07-06T10:08:36Z</time>
 <fix>none</fix>
 <sat>0</sat>
</trkpt>
<trkpt lat="60.874243333" lon="15.120241667">
<time>2014-07-06T10:08:37Z</time>
 <fix>none</fix>
 <sat>0</sat>
</trkpt>
<trkpt lat="60.874198333" lon="15.120171667">
<time>2014-07-06T10:08:38Z</time>
 <fix>none</fix>
 <sat>0</sat>
</trkpt>
<trkpt lat="60.874153333" lon="15.120098333">
<time>2014-07-06T10:08:39Z</time>
 <fix>none</fix>
 <sat>0</sat>
</trkpt>
<trkpt lat="60.874106667" lon="15.120018333">
<time>2014-07-06T10:08:40Z</time>
 <fix>none</fix>
 <sat>0</sat>
</trkpt>
<trkpt lat="60.874058333" lon="15.119936667">
<time>2014-07-06T10:08:41Z</time>
 <fix>none</fix>
 <sat>0</sat>
</trkpt>
<trkpt lat="60.874011667" lon="15.119850000">
<time>2014-07-06T10:08:42Z</time>
 <fix>none</fix>
 <sat>0</sat>
</trkpt>
<trkpt lat="60.873961667" lon="15.119765000">
<time>2014-07-06T10:08:43Z</time>
 <fix>none</fix>
 <sat>0</sat>
</trkpt>
<trkpt lat="60.873908333" lon="15.119680000">
<time>2014-07-06T10:08:44Z</time>
 <fix>none</fix>
 <sat>0</sat>
</trkpt>
<trkpt lat="60.873853333" lon="15.119600000">
<time>2014-07-06T10:08:45Z</time>
 <fix>none</fix>
 <sat>0</sat>
</trkpt>
<trkpt lat="60.873796667" lon="15.119523333">
<time>2014-07-06T10:08:46Z</time>
 <fix>none</fix>
 <sat>0</sat>
</trkpt>
<trkpt lat="60.873740000" lon="15.119445000">
<time>2014-07-06T10:08:47Z</time>
 <fix>none</fix>
 <sat>0</sat>
</trkpt>
<trkpt lat="60.873740000" lon="15.119445000">
<time>2014-07-06T10:08:48Z</time>
 <fix>none</fix>
 <sat>0</sat>
</trkpt>
<trkpt lat="60.873683333" lon="15.119363333">
<time>2014-07-06T10:08:49Z</time>
 <fix>none</fix>
 <sat>0</sat>
</trkpt>
<trkpt lat="60.873626667" lon="15.119275000">
<time>2014-07-06T10:08:50Z</time>
 <fix>none</fix>
 <sat>0</sat>
</trkpt>
<trkpt lat="60.873576667" lon="15.119176667">
<time>2014-07-06T10:08:51Z</time>
 <fix>none</fix>
 <sat>0</sat>
</trkpt>
<trkpt lat="60.873530000" lon="15.119070000">
<time>2014-07-06T10:08:52Z</time>
 <fix>none</fix>
 <sat>0</sat>
</trkpt>
<trkpt lat="60.873448333" lon="15.118838333">
<time>2014-07-06T10:08:53Z</time>
 <fix>none</fix>
 <sat>0</sat>
</trkpt>
<trkpt lat="60.873448333" lon="15.118838333">
<time>2014-07-06T10:08:54Z</time>
 <fix>none</fix>
 <sat>0</sat>
</trkpt>
<trkpt lat="60.873371667" lon="15.118605000">
<time>2014-07-06T10:08:55Z</time>
 <fix>none</fix>
 <sat>0</sat>
</trkpt>
<trkpt lat="60.873331667" lon="15.118491667">
<time>2014-07-06T10:08:56Z</time>
 <fix>none</fix>
 <sat>0</sat>
</trkpt>
<trkpt lat="60.873291667" lon="15.118373333">
<time>2014-07-06T10:08:57Z</time>
 <fix>none</fix>
 <sat>0</sat>
</trkpt>
<trkpt lat="60.873291667" lon="15.118373333">
<time>2014-07-06T10:08:58Z</time>
 <fix>none</fix>
 <sat>0</sat>
</trkpt>
<trkpt lat="60.873208333" lon="15.118135000">
<time>2014-07-06T10:08:59Z</time>
 <fix>none</fix>
 <sat>0</sat>
</trkpt>
<trkpt lat="60.873166667" lon="15.118021667">
<time>2014-07-06T10:09:00Z</time>
 <fix>none</fix>
 <sat>0</sat>
</trkpt>
<trkpt lat="60.873121667" lon="15.117913333">
<time>2014-07-06T10:09:01Z</time>
 <fix>none</fix>
 <sat>0</sat>
</trkpt>
<trkpt lat="60.873073333" lon="15.117811667">
<time>2014-07-06T10:09:02Z</time>
 <fix>none</fix>
 <sat>0</sat>
</trkpt>
<trkpt lat="60.873020000" lon="15.117718333">
<time>2014-07-06T10:09:03Z</time>
 <fix>none</fix>
 <sat>0</sat>
</trkpt>
<trkpt lat="60.872963333" lon="15.117633333">
<time>2014-07-06T10:09:04Z</time>
 <fix>none</fix>
 <sat>0</sat>
</trkpt>
<trkpt lat="60.872903333" lon="15.117560000">
<time>2014-07-06T10:09:05Z</time>
 <fix>none</fix>
 <sat>0</sat>
</trkpt>
<trkpt lat="60.872838333" lon="15.117505000">
<time>2014-07-06T10:09:06Z</time>
 <fix>none</fix>
 <sat>0</sat>
</trkpt>
<trkpt lat="60.872771667" lon="15.117475000">
<time>2014-07-06T10:09:07Z</time>
 <fix>none</fix>
 <sat>0</sat>
</trkpt>
<trkpt lat="60.872771667" lon="15.117475000">
<time>2014-07-06T10:09:08Z</time>
 <fix>none</fix>
 <sat>0</sat>
</trkpt>
<trkpt lat="60.872771667" lon="15.117475000">
<time>2014-07-06T10:09:09Z</time>
 <fix>none</fix>
 <sat>0</sat>
</trkpt>
<trkpt lat="60.872593333" lon="15.117400000">
<time>2014-07-06T10:09:10Z</time>
 <fix>none</fix>
 <sat>0</sat>
</trkpt>
<trkpt lat="60.872593333" lon="15.117400000">
<time>2014-07-06T10:09:11Z</time>
 <fix>none</fix>
 <sat>0</sat>
</trkpt>
<trkpt lat="60.872491667" lon="15.117415000">
<time>2014-07-06T10:09:12Z</time>
 <fix>none</fix>
 <sat>0</sat>
</trkpt>
<trkpt lat="60.872491667" lon="15.117415000">
<time>2014-07-06T10:09:13Z</time>
 <fix>none</fix>
 <sat>0</sat>
</trkpt>
<trkpt lat="60.872396667" lon="15.117518333">
<time>2014-07-06T10:09:14Z</time>
 <fix>none</fix>
 <sat>0</sat>
</trkpt>
<trkpt lat="60.872396667" lon="15.117518333">
<time>2014-07-06T10:09:15Z</time>
 <fix>none</fix>
 <sat>0</sat>
</trkpt>
<trkpt lat="60.872306667" lon="15.117580000">
<time>2014-07-06T10:09:16Z</time>
 <fix>none</fix>
 <sat>0</sat>
</trkpt>
<trkpt lat="60.872306667" lon="15.117580000">
<time>2014-07-06T10:09:17Z</time>
 <fix>none</fix>
 <sat>0</sat>
</trkpt>
<trkpt lat="60.872216667" lon="15.117645000">
<time>2014-07-06T10:09:18Z</time>
 <fix>none</fix>
 <sat>0</sat>
</trkpt>
<trkpt lat="60.872216667" lon="15.117645000">
<time>2014-07-06T10:09:19Z</time>
 <fix>none</fix>
 <sat>0</sat>
</trkpt>
<trkpt lat="60.872138333" lon="15.117698333">
<time>2014-07-06T10:09:20Z</time>
 <fix>none</fix>
 <sat>0</sat>
</trkpt>
<trkpt lat="60.872138333" lon="15.117698333">
<time>2014-07-06T10:09:21Z</time>
 <fix>none</fix>
 <sat>0</sat>
</trkpt>
<trkpt lat="60.872061667" lon="15.117738333">
<time>2014-07-06T10:09:22Z</time>
 <fix>none</fix>
 <sat>0</sat>
</trkpt>
<trkpt lat="60.872061667" lon="15.117738333">
<time>2014-07-06T10:09:23Z</time>
 <fix>none</fix>
 <sat>0</sat>
</trkpt>
<trkpt lat="60.871990000" lon="15.117740000">
<time>2014-07-06T10:09:24Z</time>
 <fix>none</fix>
 <sat>0</sat>
</trkpt>
<trkpt lat="60.871990000" lon="15.117740000">
<time>2014-07-06T10:09:25Z</time>
 <fix>none</fix>
 <sat>0</sat>
</trkpt>
<trkpt lat="60.871903333" lon="15.117751667">
<time>2014-07-06T10:09:26Z</time>
 <fix>none</fix>
 <sat>0</sat>
</trkpt>
<trkpt lat="60.871903333" lon="15.117751667">
<time>2014-07-06T10:09:27Z</time>
 <fix>none</fix>
 <sat>0</sat>
</trkpt>
<trkpt lat="60.871835000" lon="15.117741667">
<time>2014-07-06T10:09:28Z</time>
 <fix>none</fix>
 <sat>0</sat>
</trkpt>
<trkpt lat="60.871835000" lon="15.117741667">
<time>2014-07-06T10:09:29Z</time>
 <fix>none</fix>
 <sat>0</sat>
</trkpt>
<trkpt lat="60.871765000" lon="15.117690000">
<time>2014-07-06T10:09:30Z</time>
 <fix>none</fix>
 <sat>0</sat>
</trkpt>
<trkpt lat="60.871736667" lon="15.117676667">
<time>2014-07-06T10:09:31Z</time>
 <fix>none</fix>
 <sat>0</sat>
</trkpt>
<trkpt lat="60.871700000" lon="15.117673333">
<time>2014-07-06T10:09:32Z</time>
 <fix>none</fix>
 <sat>0</sat>
</trkpt>
<trkpt lat="60.871700000" lon="15.117673333">
<time>2014-07-06T10:09:33Z</time>
 <fix>none</fix>
 <sat>0</sat>
</trkpt>
<trkpt lat="60.871656667" lon="15.117675000">
<time>2014-07-06T10:09:34Z</time>
 <fix>none</fix>
 <sat>0</sat>
</trkpt>
<trkpt lat="60.871621667" lon="15.117655000">
<time>2014-07-06T10:09:35Z</time>
 <fix>none</fix>
 <sat>0</sat>
</trkpt>
<trkpt lat="60.871591667" lon="15.117631667">
<time>2014-07-06T10:09:36Z</time>
 <fix>none</fix>
 <sat>0</sat>
</trkpt>
<trkpt lat="60.871561667" lon="15.117616667">
<time>2014-07-06T10:09:37Z</time>
 <fix>none</fix>
 <sat>0</sat>
</trkpt>
<trkpt lat="60.871528333" lon="15.117605000">
<time>2014-07-06T10:09:38Z</time>
 <fix>none</fix>
 <sat>0</sat>
</trkpt>
<trkpt lat="60.871495000" lon="15.117601667">
<time>2014-07-06T10:09:39Z</time>
 <fix>none</fix>
 <sat>0</sat>
</trkpt>
<trkpt lat="60.871461667" lon="15.117603333">
<time>2014-07-06T10:09:40Z</time>
 <fix>none</fix>
 <sat>0</sat>
</trkpt>
<trkpt lat="60.871405000" lon="15.117590000">
<time>2014-07-06T10:09:41Z</time>
 <fix>none</fix>
 <sat>0</sat>
</trkpt>
<trkpt lat="60.871376667" lon="15.117591667">
<time>2014-07-06T10:09:42Z</time>
 <fix>none</fix>
 <sat>0</sat>
</trkpt>
<trkpt lat="60.871376667" lon="15.117591667">
<time>2014-07-06T10:09:43Z</time>
 <fix>none</fix>
 <sat>0</sat>
</trkpt>
<trkpt lat="60.871376667" lon="15.117591667">
<time>2014-07-06T10:09:44Z</time>
 <fix>none</fix>
 <sat>0</sat>
</trkpt>
<trkpt lat="60.871301667" lon="15.117621667">
<time>2014-07-06T10:09:45Z</time>
 <fix>none</fix>
 <sat>0</sat>
</trkpt>
<trkpt lat="60.871301667" lon="15.117621667">
<time>2014-07-06T10:09:46Z</time>
 <fix>none</fix>
 <sat>0</sat>
</trkpt>
<trkpt lat="60.871251667" lon="15.117636667">
<time>2014-07-06T10:09:47Z</time>
 <fix>none</fix>
 <sat>0</sat>
</trkpt>
<trkpt lat="60.871251667" lon="15.117636667">
<time>2014-07-06T10:09:48Z</time>
 <fix>none</fix>
 <sat>0</sat>
</trkpt>
<trkpt lat="60.871196667" lon="15.117641667">
<time>2014-07-06T10:09:49Z</time>
 <fix>none</fix>
 <sat>0</sat>
</trkpt>
<trkpt lat="60.871176667" lon="15.117641667">
<time>2014-07-06T10:09:50Z</time>
 <fix>none</fix>
 <sat>0</sat>
</trkpt>
<trkpt lat="60.871150000" lon="15.117641667">
<time>2014-07-06T10:09:51Z</time>
 <fix>none</fix>
 <sat>0</sat>
</trkpt>
<trkpt lat="60.871125000" lon="15.117645000">
<time>2014-07-06T10:09:52Z</time>
 <fix>none</fix>
 <sat>0</sat>
</trkpt>
<trkpt lat="60.871100000" lon="15.117651667">
<time>2014-07-06T10:09:53Z</time>
 <fix>none</fix>
 <sat>0</sat>
</trkpt>
<trkpt lat="60.871075000" lon="15.117655000">
<time>2014-07-06T10:09:54Z</time>
 <fix>none</fix>
 <sat>0</sat>
</trkpt>
<trkpt lat="60.871053333" lon="15.117653333">
<time>2014-07-06T10:09:55Z</time>
 <fix>none</fix>
 <sat>0</sat>
</trkpt>
<trkpt lat="60.871053333" lon="15.117653333">
<time>2014-07-06T10:09:56Z</time>
 <fix>none</fix>
 <sat>0</sat>
</trkpt>
<trkpt lat="60.871028333" lon="15.117651667">
<time>2014-07-06T10:09:57Z</time>
 <fix>none</fix>
 <sat>0</sat>
</trkpt>
<trkpt lat="60.871006667" lon="15.117650000">
<time>2014-07-06T10:09:58Z</time>
 <fix>none</fix>
 <sat>0</sat>
</trkpt>
<trkpt lat="60.870985000" lon="15.117650000">
<time>2014-07-06T10:09:59Z</time>
 <fix>none</fix>
 <sat>0</sat>
</trkpt>
<trkpt lat="60.870965000" lon="15.117655000">
<time>2014-07-06T10:10:00Z</time>
 <fix>none</fix>
 <sat>0</sat>
</trkpt>
<trkpt lat="60.870943333" lon="15.117658333">
<time>2014-07-06T10:10:01Z</time>
 <fix>none</fix>
 <sat>0</sat>
</trkpt>
<trkpt lat="60.870900000" lon="15.117663333">
<time>2014-07-06T10:10:02Z</time>
 <fix>none</fix>
 <sat>0</sat>
</trkpt>
<trkpt lat="60.870900000" lon="15.117663333">
<time>2014-07-06T10:10:03Z</time>
 <fix>none</fix>
 <sat>0</sat>
</trkpt>
<trkpt lat="60.870878333" lon="15.117665000">
<time>2014-07-06T10:10:04Z</time>
 <fix>none</fix>
 <sat>0</sat>
</trkpt>
<trkpt lat="60.870831667" lon="15.117665000">
<time>2014-07-06T10:10:05Z</time>
 <fix>none</fix>
 <sat>0</sat>
</trkpt>
<trkpt lat="60.870810000" lon="15.117663333">
<time>2014-07-06T10:10:06Z</time>
 <fix>none</fix>
 <sat>0</sat>
</trkpt>
<trkpt lat="60.870786667" lon="15.117663333">
<time>2014-07-06T10:10:07Z</time>
 <fix>none</fix>
 <sat>0</sat>
</trkpt>
<trkpt lat="60.870786667" lon="15.117663333">
<time>2014-07-06T10:10:08Z</time>
 <fix>none</fix>
 <sat>0</sat>
</trkpt>
<trkpt lat="60.870786667" lon="15.117663333">
<time>2014-07-06T10:10:09Z</time>
 <fix>none</fix>
 <sat>0</sat>
</trkpt>
<trkpt lat="60.870725000" lon="15.117650000">
<time>2014-07-06T10:10:10Z</time>
 <fix>none</fix>
 <sat>0</sat>
</trkpt>
<trkpt lat="60.870725000" lon="15.117650000">
<time>2014-07-06T10:10:11Z</time>
 <fix>none</fix>
 <sat>0</sat>
</trkpt>
<trkpt lat="60.870686667" lon="15.117648333">
<time>2014-07-06T10:10:12Z</time>
 <fix>none</fix>
 <sat>0</sat>
</trkpt>
<trkpt lat="60.870686667" lon="15.117648333">
<time>2014-07-06T10:10:13Z</time>
 <fix>none</fix>
 <sat>0</sat>
</trkpt>
<trkpt lat="60.870645000" lon="15.117646667">
<time>2014-07-06T10:10:14Z</time>
 <fix>none</fix>
 <sat>0</sat>
</trkpt>
<trkpt lat="60.870645000" lon="15.117646667">
<time>2014-07-06T10:10:15Z</time>
 <fix>none</fix>
 <sat>0</sat>
</trkpt>
<trkpt lat="60.870598333" lon="15.117646667">
<time>2014-07-06T10:10:16Z</time>
 <fix>none</fix>
 <sat>0</sat>
</trkpt>
<trkpt lat="60.870598333" lon="15.117646667">
<time>2014-07-06T10:10:17Z</time>
 <fix>none</fix>
 <sat>0</sat>
</trkpt>
<trkpt lat="60.870550000" lon="15.117648333">
<time>2014-07-06T10:10:18Z</time>
 <fix>none</fix>
 <sat>0</sat>
</trkpt>
<trkpt lat="60.870546667" lon="15.117645000">
<time>2014-07-06T10:10:19Z</time>
 <fix>none</fix>
 <sat>0</sat>
</trkpt>
<trkpt lat="60.870525000" lon="15.117643333">
<time>2014-07-06T10:10:20Z</time>
 <fix>none</fix>
 <sat>0</sat>
</trkpt>
<trkpt lat="60.870496667" lon="15.117653333">
<time>2014-07-06T10:10:21Z</time>
 <fix>none</fix>
 <sat>0</sat>
</trkpt>
<trkpt lat="60.870471667" lon="15.117656667">
<time>2014-07-06T10:10:22Z</time>
 <fix>none</fix>
 <sat>0</sat>
</trkpt>
<trkpt lat="60.870446667" lon="15.117660000">
<time>2014-07-06T10:10:23Z</time>
 <fix>none</fix>
 <sat>0</sat>
</trkpt>
<trkpt lat="60.870421667" lon="15.117660000">
<time>2014-07-06T10:10:24Z</time>
 <fix>none</fix>
 <sat>0</sat>
</trkpt>
<trkpt lat="60.870371667" lon="15.117646667">
<time>2014-07-06T10:10:25Z</time>
 <fix>none</fix>
 <sat>0</sat>
</trkpt>
<trkpt lat="60.870371667" lon="15.117646667">
<time>2014-07-06T10:10:26Z</time>
 <fix>none</fix>
 <sat>0</sat>
</trkpt>
<trkpt lat="60.870323333" lon="15.117640000">
<time>2014-07-06T10:10:27Z</time>
 <fix>none</fix>
 <sat>0</sat>
</trkpt>
<trkpt lat="60.870298333" lon="15.117633333">
<time>2014-07-06T10:10:28Z</time>
 <fix>none</fix>
 <sat>0</sat>
</trkpt>
<trkpt lat="60.870275000" lon="15.117621667">
<time>2014-07-06T10:10:29Z</time>
 <fix>none</fix>
 <sat>0</sat>
</trkpt>
<trkpt lat="60.870250000" lon="15.117616667">
<time>2014-07-06T10:10:30Z</time>
 <fix>none</fix>
 <sat>0</sat>
</trkpt>
<trkpt lat="60.870225000" lon="15.117615000">
<time>2014-07-06T10:10:31Z</time>
 <fix>none</fix>
 <sat>0</sat>
</trkpt>
<trkpt lat="60.870201667" lon="15.117613333">
<time>2014-07-06T10:10:32Z</time>
 <fix>none</fix>
 <sat>0</sat>
</trkpt>
<trkpt lat="60.870176667" lon="15.117611667">
<time>2014-07-06T10:10:33Z</time>
 <fix>none</fix>
 <sat>0</sat>
</trkpt>
<trkpt lat="60.870150000" lon="15.117608333">
<time>2014-07-06T10:10:34Z</time>
 <fix>none</fix>
 <sat>0</sat>
</trkpt>
<trkpt lat="60.870125000" lon="15.117605000">
<time>2014-07-06T10:10:35Z</time>
 <fix>none</fix>
 <sat>0</sat>
</trkpt>
<trkpt lat="60.870100000" lon="15.117601667">
<time>2014-07-06T10:10:36Z</time>
 <fix>none</fix>
 <sat>0</sat>
</trkpt>
<trkpt lat="60.870076667" lon="15.117596667">
<time>2014-07-06T10:10:37Z</time>
 <fix>none</fix>
 <sat>0</sat>
</trkpt>
<trkpt lat="60.870076667" lon="15.117596667">
<time>2014-07-06T10:10:38Z</time>
 <fix>none</fix>
 <sat>0</sat>
</trkpt>
<trkpt lat="60.870076667" lon="15.117596667">
<time>2014-07-06T10:10:39Z</time>
 <fix>none</fix>
 <sat>0</sat>
</trkpt>
<trkpt lat="60.870000000" lon="15.117585000">
<time>2014-07-06T10:10:40Z</time>
 <fix>none</fix>
 <sat>0</sat>
</trkpt>
<trkpt lat="60.870000000" lon="15.117585000">
<time>2014-07-06T10:10:41Z</time>
 <fix>none</fix>
 <sat>0</sat>
</trkpt>
<trkpt lat="60.869950000" lon="15.117581667">
<time>2014-07-06T10:10:42Z</time>
 <fix>none</fix>
 <sat>0</sat>
</trkpt>
<trkpt lat="60.869950000" lon="15.117581667">
<time>2014-07-06T10:10:43Z</time>
 <fix>none</fix>
 <sat>0</sat>
</trkpt>
<trkpt lat="60.869898333" lon="15.117580000">
<time>2014-07-06T10:10:44Z</time>
 <fix>none</fix>
 <sat>0</sat>
</trkpt>
<trkpt lat="60.869898333" lon="15.117580000">
<time>2014-07-06T10:10:45Z</time>
 <fix>none</fix>
 <sat>0</sat>
</trkpt>
<trkpt lat="60.869846667" lon="15.117576667">
<time>2014-07-06T10:10:46Z</time>
 <fix>none</fix>
 <sat>0</sat>
</trkpt>
<trkpt lat="60.869846667" lon="15.117576667">
<time>2014-07-06T10:10:47Z</time>
 <fix>none</fix>
 <sat>0</sat>
</trkpt>
<trkpt lat="60.869791667" lon="15.117581667">
<time>2014-07-06T10:10:48Z</time>
 <fix>none</fix>
 <sat>0</sat>
</trkpt>
<trkpt lat="60.869791667" lon="15.117581667">
<time>2014-07-06T10:10:49Z</time>
 <fix>none</fix>
 <sat>0</sat>
</trkpt>
<trkpt lat="60.869736667" lon="15.117570000">
<time>2014-07-06T10:10:50Z</time>
 <fix>none</fix>
 <sat>0</sat>
</trkpt>
<trkpt lat="60.869736667" lon="15.117570000">
<time>2014-07-06T10:10:51Z</time>
 <fix>none</fix>
 <sat>0</sat>
</trkpt>
<trkpt lat="60.869690000" lon="15.117548333">
<time>2014-07-06T10:10:52Z</time>
 <fix>none</fix>
 <sat>0</sat>
</trkpt>
<trkpt lat="60.869690000" lon="15.117548333">
<time>2014-07-06T10:10:53Z</time>
 <fix>none</fix>
 <sat>0</sat>
</trkpt>
<trkpt lat="60.869643333" lon="15.117511667">
<time>2014-07-06T10:10:54Z</time>
 <fix>none</fix>
 <sat>0</sat>
</trkpt>
<trkpt lat="60.869643333" lon="15.117511667">
<time>2014-07-06T10:10:55Z</time>
 <fix>none</fix>
 <sat>0</sat>
</trkpt>
<trkpt lat="60.869591667" lon="15.117478333">
<time>2014-07-06T10:10:56Z</time>
 <fix>none</fix>
 <sat>0</sat>
</trkpt>
<trkpt lat="60.869591667" lon="15.117478333">
<time>2014-07-06T10:10:57Z</time>
 <fix>none</fix>
 <sat>0</sat>
</trkpt>
<trkpt lat="60.869538333" lon="15.117430000">
<time>2014-07-06T10:10:58Z</time>
 <fix>none</fix>
 <sat>0</sat>
</trkpt>
<trkpt lat="60.869538333" lon="15.117430000">
<time>2014-07-06T10:10:59Z</time>
 <fix>none</fix>
 <sat>0</sat>
</trkpt>
<trkpt lat="60.869481667" lon="15.117365000">
<time>2014-07-06T10:11:00Z</time>
 <fix>none</fix>
 <sat>0</sat>
</trkpt>
<trkpt lat="60.869481667" lon="15.117365000">
<time>2014-07-06T10:11:01Z</time>
 <fix>none</fix>
 <sat>0</sat>
</trkpt>
<trkpt lat="60.869421667" lon="15.117293333">
<time>2014-07-06T10:11:02Z</time>
 <fix>none</fix>
 <sat>0</sat>
</trkpt>
<trkpt lat="60.869421667" lon="15.117293333">
<time>2014-07-06T10:11:03Z</time>
 <fix>none</fix>
 <sat>0</sat>
</trkpt>
<trkpt lat="60.869356667" lon="15.117213333">
<time>2014-07-06T10:11:04Z</time>
 <fix>none</fix>
 <sat>0</sat>
</trkpt>
<trkpt lat="60.869356667" lon="15.117213333">
<time>2014-07-06T10:11:05Z</time>
 <fix>none</fix>
 <sat>0</sat>
</trkpt>
<trkpt lat="60.869286667" lon="15.117123333">
<time>2014-07-06T10:11:06Z</time>
 <fix>none</fix>
 <sat>0</sat>
</trkpt>
<trkpt lat="60.869286667" lon="15.117123333">
<time>2014-07-06T10:11:07Z</time>
 <fix>none</fix>
 <sat>0</sat>
</trkpt>
<trkpt lat="60.869205000" lon="15.117020000">
<time>2014-07-06T10:11:08Z</time>
 <fix>none</fix>
 <sat>0</sat>
</trkpt>
<trkpt lat="60.869205000" lon="15.117020000">
<time>2014-07-06T10:11:09Z</time>
 <fix>none</fix>
 <sat>0</sat>
</trkpt>
<trkpt lat="60.869123333" lon="15.116913333">
<time>2014-07-06T10:11:10Z</time>
 <fix>none</fix>
 <sat>0</sat>
</trkpt>
<trkpt lat="60.869123333" lon="15.116913333">
<time>2014-07-06T10:11:11Z</time>
 <fix>none</fix>
 <sat>0</sat>
</trkpt>
<trkpt lat="60.869041667" lon="15.116798333">
<time>2014-07-06T10:11:12Z</time>
 <fix>none</fix>
 <sat>0</sat>
</trkpt>
<trkpt lat="60.869041667" lon="15.116798333">
<time>2014-07-06T10:11:13Z</time>
 <fix>none</fix>
 <sat>0</sat>
</trkpt>
<trkpt lat="60.868958333" lon="15.116698333">
<time>2014-07-06T10:11:14Z</time>
 <fix>none</fix>
 <sat>0</sat>
</trkpt>
<trkpt lat="60.868958333" lon="15.116698333">
<time>2014-07-06T10:11:15Z</time>
 <fix>none</fix>
 <sat>0</sat>
</trkpt>
<trkpt lat="60.868866667" lon="15.116580000">
<time>2014-07-06T10:11:16Z</time>
 <fix>none</fix>
 <sat>0</sat>
</trkpt>
<trkpt lat="60.868866667" lon="15.116580000">
<time>2014-07-06T10:11:17Z</time>
 <fix>none</fix>
 <sat>0</sat>
</trkpt>
<trkpt lat="60.868763333" lon="15.116516667">
<time>2014-07-06T10:11:18Z</time>
 <fix>none</fix>
 <sat>0</sat>
</trkpt>
<trkpt lat="60.868763333" lon="15.116516667">
<time>2014-07-06T10:11:19Z</time>
 <fix>none</fix>
 <sat>0</sat>
</trkpt>
<trkpt lat="60.868658333" lon="15.116436667">
<time>2014-07-06T10:11:20Z</time>
 <fix>none</fix>
 <sat>0</sat>
</trkpt>
<trkpt lat="60.868658333" lon="15.116436667">
<time>2014-07-06T10:11:21Z</time>
 <fix>none</fix>
 <sat>0</sat>
</trkpt>
<trkpt lat="60.868550000" lon="15.116358333">
<time>2014-07-06T10:11:22Z</time>
 <fix>none</fix>
 <sat>0</sat>
</trkpt>
<trkpt lat="60.868550000" lon="15.116358333">
<time>2014-07-06T10:11:23Z</time>
 <fix>none</fix>
 <sat>0</sat>
</trkpt>
<trkpt lat="60.868445000" lon="15.116308333">
<time>2014-07-06T10:11:24Z</time>
 <fix>none</fix>
 <sat>0</sat>
</trkpt>
<trkpt lat="60.868445000" lon="15.116308333">
<time>2014-07-06T10:11:25Z</time>
 <fix>none</fix>
 <sat>0</sat>
</trkpt>
<trkpt lat="60.868338333" lon="15.116240000">
<time>2014-07-06T10:11:26Z</time>
 <fix>none</fix>
 <sat>0</sat>
</trkpt>
<trkpt lat="60.868338333" lon="15.116240000">
<time>2014-07-06T10:11:27Z</time>
 <fix>none</fix>
 <sat>0</sat>
</trkpt>
<trkpt lat="60.868233333" lon="15.116176667">
<time>2014-07-06T10:11:28Z</time>
 <fix>none</fix>
 <sat>0</sat>
</trkpt>
<trkpt lat="60.868233333" lon="15.116176667">
<time>2014-07-06T10:11:29Z</time>
 <fix>none</fix>
 <sat>0</sat>
</trkpt>
<trkpt lat="60.868123333" lon="15.116155000">
<time>2014-07-06T10:11:30Z</time>
 <fix>none</fix>
 <sat>0</sat>
</trkpt>
<trkpt lat="60.868123333" lon="15.116155000">
<time>2014-07-06T10:11:31Z</time>
 <fix>none</fix>
 <sat>0</sat>
</trkpt>
<trkpt lat="60.868010000" lon="15.116091667">
<time>2014-07-06T10:11:32Z</time>
 <fix>none</fix>
 <sat>0</sat>
</trkpt>
<trkpt lat="60.868010000" lon="15.116091667">
<time>2014-07-06T10:11:33Z</time>
 <fix>none</fix>
 <sat>0</sat>
</trkpt>
<trkpt lat="60.867896667" lon="15.115993333">
<time>2014-07-06T10:11:34Z</time>
 <fix>none</fix>
 <sat>0</sat>
</trkpt>
<trkpt lat="60.867896667" lon="15.115993333">
<time>2014-07-06T10:11:35Z</time>
 <fix>none</fix>
 <sat>0</sat>
</trkpt>
<trkpt lat="60.867761667" lon="15.115815000">
<time>2014-07-06T10:11:36Z</time>
 <fix>none</fix>
 <sat>0</sat>
</trkpt>
<trkpt lat="60.867761667" lon="15.115815000">
<time>2014-07-06T10:11:37Z</time>
 <fix>none</fix>
 <sat>0</sat>
</trkpt>
<trkpt lat="60.867633333" lon="15.115598333">
<time>2014-07-06T10:11:38Z</time>
 <fix>none</fix>
 <sat>0</sat>
</trkpt>
<trkpt lat="60.867633333" lon="15.115598333">
<time>2014-07-06T10:11:39Z</time>
 <fix>none</fix>
 <sat>0</sat>
</trkpt>
<trkpt lat="60.867518333" lon="15.115425000">
<time>2014-07-06T10:11:40Z</time>
 <fix>none</fix>
 <sat>0</sat>
</trkpt>
<trkpt lat="60.867518333" lon="15.115425000">
<time>2014-07-06T10:11:41Z</time>
 <fix>none</fix>
 <sat>0</sat>
</trkpt>
<trkpt lat="60.867396667" lon="15.115290000">
<time>2014-07-06T10:11:42Z</time>
 <fix>none</fix>
 <sat>0</sat>
</trkpt>
<trkpt lat="60.867396667" lon="15.115290000">
<time>2014-07-06T10:11:43Z</time>
 <fix>none</fix>
 <sat>0</sat>
</trkpt>
<trkpt lat="60.867265000" lon="15.115181667">
<time>2014-07-06T10:11:44Z</time>
 <fix>none</fix>
 <sat>0</sat>
</trkpt>
<trkpt lat="60.867265000" lon="15.115181667">
<time>2014-07-06T10:11:45Z</time>
 <fix>none</fix>
 <sat>0</sat>
</trkpt>
<trkpt lat="60.867123333" lon="15.115126667">
<time>2014-07-06T10:11:46Z</time>
 <fix>none</fix>
 <sat>0</sat>
</trkpt>
<trkpt lat="60.867076667" lon="15.115163333">
<time>2014-07-06T10:11:47Z</time>
 <fix>none</fix>
 <sat>0</sat>
</trkpt>
<trkpt lat="60.867091667" lon="15.115393333">
<time>2014-07-06T10:11:48Z</time>
 <fix>none</fix>
 <sat>0</sat>
</trkpt>
<trkpt lat="60.867111667" lon="15.115505000">
<time>2014-07-06T10:11:49Z</time>
 <fix>none</fix>
 <sat>0</sat>
</trkpt>
<trkpt lat="60.867111667" lon="15.115505000">
<time>2014-07-06T10:11:50Z</time>
 <fix>none</fix>
 <sat>0</sat>
</trkpt>
<trkpt lat="60.867118333" lon="15.115600000">
<time>2014-07-06T10:11:51Z</time>
 <fix>none</fix>
 <sat>0</sat>
</trkpt>
<trkpt lat="60.867121667" lon="15.115671667">
<time>2014-07-06T10:11:52Z</time>
 <fix>none</fix>
 <sat>0</sat>
</trkpt>
<trkpt lat="60.867125000" lon="15.115736667">
<time>2014-07-06T10:11:53Z</time>
 <fix>none</fix>
 <sat>0</sat>
</trkpt>
<trkpt lat="60.867125000" lon="15.115805000">
<time>2014-07-06T10:11:54Z</time>
 <fix>none</fix>
 <sat>0</sat>
</trkpt>
<trkpt lat="60.867123333" lon="15.115865000">
<time>2014-07-06T10:11:55Z</time>
 <fix>none</fix>
 <sat>0</sat>
</trkpt>
<trkpt lat="60.867111667" lon="15.115990000">
<time>2014-07-06T10:11:56Z</time>
 <fix>none</fix>
 <sat>0</sat>
</trkpt>
<trkpt lat="60.867111667" lon="15.116051667">
<time>2014-07-06T10:11:57Z</time>
 <fix>none</fix>
 <sat>0</sat>
</trkpt>
<trkpt lat="60.867103333" lon="15.116106667">
<time>2014-07-06T10:11:58Z</time>
 <fix>none</fix>
 <sat>0</sat>
</trkpt>
<trkpt lat="60.867103333" lon="15.116106667">
<time>2014-07-06T10:11:59Z</time>
 <fix>none</fix>
 <sat>0</sat>
</trkpt>
<trkpt lat="60.867083333" lon="15.116223333">
<time>2014-07-06T10:12:00Z</time>
 <fix>none</fix>
 <sat>0</sat>
</trkpt>
<trkpt lat="60.867078333" lon="15.116285000">
<time>2014-07-06T10:12:01Z</time>
 <fix>none</fix>
 <sat>0</sat>
</trkpt>
<trkpt lat="60.867078333" lon="15.116285000">
<time>2014-07-06T10:12:02Z</time>
 <fix>none</fix>
 <sat>0</sat>
</trkpt>
<trkpt lat="60.867078333" lon="15.116285000">
<time>2014-07-06T10:12:03Z</time>
 <fix>none</fix>
 <sat>0</sat>
</trkpt>
<trkpt lat="60.867063333" lon="15.116455000">
<time>2014-07-06T10:12:04Z</time>
 <fix>none</fix>
 <sat>0</sat>
</trkpt>
<trkpt lat="60.867063333" lon="15.116455000">
<time>2014-07-06T10:12:05Z</time>
 <fix>none</fix>
 <sat>0</sat>
</trkpt>
<trkpt lat="60.867063333" lon="15.116455000">
<time>2014-07-06T10:12:06Z</time>
 <fix>none</fix>
 <sat>0</sat>
</trkpt>
<trkpt lat="60.867085000" lon="15.116575000">
<time>2014-07-06T10:12:07Z</time>
 <fix>none</fix>
 <sat>0</sat>
</trkpt>
<trkpt lat="60.867105000" lon="15.116593333">
<time>2014-07-06T10:12:08Z</time>
 <fix>none</fix>
 <sat>0</sat>
</trkpt>
<trkpt lat="60.867121667" lon="15.116633333">
<time>2014-07-06T10:12:09Z</time>
 <fix>none</fix>
 <sat>0</sat>
</trkpt>
<trkpt lat="60.867136667" lon="15.116688333">
<time>2014-07-06T10:12:10Z</time>
 <fix>none</fix>
 <sat>0</sat>
</trkpt>
<trkpt lat="60.867156667" lon="15.116728333">
<time>2014-07-06T10:12:11Z</time>
 <fix>none</fix>
 <sat>0</sat>
</trkpt>
<trkpt lat="60.867158333" lon="15.116795000">
<time>2014-07-06T10:12:12Z</time>
 <fix>none</fix>
 <sat>0</sat>
</trkpt>
<trkpt lat="60.867158333" lon="15.116795000">
<time>2014-07-06T10:12:13Z</time>
 <fix>none</fix>
 <sat>0</sat>
</trkpt>
<trkpt lat="60.867158333" lon="15.116861667">
<time>2014-07-06T10:12:14Z</time>
 <fix>none</fix>
 <sat>0</sat>
</trkpt>
<trkpt lat="60.867161667" lon="15.116915000">
<time>2014-07-06T10:12:15Z</time>
 <fix>none</fix>
 <sat>0</sat>
</trkpt>
<trkpt lat="60.867168333" lon="15.116966667">
<time>2014-07-06T10:12:16Z</time>
 <fix>none</fix>
 <sat>0</sat>
</trkpt>
<trkpt lat="60.867165000" lon="15.117035000">
<time>2014-07-06T10:12:17Z</time>
 <fix>none</fix>
 <sat>0</sat>
</trkpt>
<trkpt lat="60.867168333" lon="15.117100000">
<time>2014-07-06T10:12:18Z</time>
 <fix>none</fix>
 <sat>0</sat>
</trkpt>
<trkpt lat="60.867180000" lon="15.117228333">
<time>2014-07-06T10:12:19Z</time>
 <fix>none</fix>
 <sat>0</sat>
</trkpt>
<trkpt lat="60.867180000" lon="15.117228333">
<time>2014-07-06T10:12:20Z</time>
 <fix>none</fix>
 <sat>0</sat>
</trkpt>
<trkpt lat="60.867186667" lon="15.117353333">
<time>2014-07-06T10:12:21Z</time>
 <fix>none</fix>
 <sat>0</sat>
</trkpt>
<trkpt lat="60.867195000" lon="15.117408333">
<time>2014-07-06T10:12:22Z</time>
 <fix>none</fix>
 <sat>0</sat>
</trkpt>
<trkpt lat="60.867208333" lon="15.117460000">
<time>2014-07-06T10:12:23Z</time>
 <fix>none</fix>
 <sat>0</sat>
</trkpt>
<trkpt lat="60.867225000" lon="15.117510000">
<time>2014-07-06T10:12:24Z</time>
 <fix>none</fix>
 <sat>0</sat>
</trkpt>
<trkpt lat="60.867241667" lon="15.117556667">
<time>2014-07-06T10:12:25Z</time>
 <fix>none</fix>
 <sat>0</sat>
</trkpt>
<trkpt lat="60.867253333" lon="15.117610000">
<time>2014-07-06T10:12:26Z</time>
 <fix>none</fix>
 <sat>0</sat>
</trkpt>
<trkpt lat="60.867265000" lon="15.117665000">
<time>2014-07-06T10:12:27Z</time>
 <fix>none</fix>
 <sat>0</sat>
</trkpt>
<trkpt lat="60.867273333" lon="15.117721667">
<time>2014-07-06T10:12:28Z</time>
 <fix>none</fix>
 <sat>0</sat>
</trkpt>
<trkpt lat="60.867281667" lon="15.117783333">
<time>2014-07-06T10:12:29Z</time>
 <fix>none</fix>
 <sat>0</sat>
</trkpt>
<trkpt lat="60.867290000" lon="15.117843333">
<time>2014-07-06T10:12:30Z</time>
 <fix>none</fix>
 <sat>0</sat>
</trkpt>
<trkpt lat="60.867296667" lon="15.117906667">
<time>2014-07-06T10:12:31Z</time>
 <fix>none</fix>
 <sat>0</sat>
</trkpt>
<trkpt lat="60.867305000" lon="15.117965000">
<time>2014-07-06T10:12:32Z</time>
 <fix>none</fix>
 <sat>0</sat>
</trkpt>
<trkpt lat="60.867315000" lon="15.118018333">
<time>2014-07-06T10:12:33Z</time>
 <fix>none</fix>
 <sat>0</sat>
</trkpt>
<trkpt lat="60.867326667" lon="15.118065000">
<time>2014-07-06T10:12:34Z</time>
 <fix>none</fix>
 <sat>0</sat>
</trkpt>
<trkpt lat="60.867336667" lon="15.118111667">
<time>2014-07-06T10:12:35Z</time>
 <fix>none</fix>
 <sat>0</sat>
</trkpt>
<trkpt lat="60.867336667" lon="15.118111667">
<time>2014-07-06T10:12:36Z</time>
 <fix>none</fix>
 <sat>0</sat>
</trkpt>
<trkpt lat="60.867353333" lon="15.118148333">
<time>2014-07-06T10:12:37Z</time>
 <fix>none</fix>
 <sat>0</sat>
</trkpt>
<trkpt lat="60.867370000" lon="15.118185000">
<time>2014-07-06T10:12:38Z</time>
 <fix>none</fix>
 <sat>0</sat>
</trkpt>
<trkpt lat="60.867375000" lon="15.118233333">
<time>2014-07-06T10:12:39Z</time>
 <fix>none</fix>
 <sat>0</sat>
</trkpt>
<trkpt lat="60.867381667" lon="15.118280000">
<time>2014-07-06T10:12:40Z</time>
 <fix>none</fix>
 <sat>0</sat>
</trkpt>
<trkpt lat="60.867390000" lon="15.118326667">
<time>2014-07-06T10:12:41Z</time>
 <fix>none</fix>
 <sat>0</sat>
</trkpt>
<trkpt lat="60.867403333" lon="15.118428333">
<time>2014-07-06T10:12:42Z</time>
 <fix>none</fix>
 <sat>0</sat>
</trkpt>
<trkpt lat="60.867410000" lon="15.118480000">
<time>2014-07-06T10:12:43Z</time>
 <fix>none</fix>
 <sat>0</sat>
</trkpt>
<trkpt lat="60.867415000" lon="15.118535000">
<time>2014-07-06T10:12:44Z</time>
 <fix>none</fix>
 <sat>0</sat>
</trkpt>
<trkpt lat="60.867421667" lon="15.118591667">
<time>2014-07-06T10:12:45Z</time>
 <fix>none</fix>
 <sat>0</sat>
</trkpt>
<trkpt lat="60.867426667" lon="15.118646667">
<time>2014-07-06T10:12:46Z</time>
 <fix>none</fix>
 <sat>0</sat>
</trkpt>
<trkpt lat="60.867433333" lon="15.118695000">
<time>2014-07-06T10:12:47Z</time>
 <fix>none</fix>
 <sat>0</sat>
</trkpt>
<trkpt lat="60.867441667" lon="15.118740000">
<time>2014-07-06T10:12:48Z</time>
 <fix>none</fix>
 <sat>0</sat>
</trkpt>
<trkpt lat="60.867450000" lon="15.118786667">
<time>2014-07-06T10:12:49Z</time>
 <fix>none</fix>
 <sat>0</sat>
</trkpt>
<trkpt lat="60.867455000" lon="15.118836667">
<time>2014-07-06T10:12:50Z</time>
 <fix>none</fix>
 <sat>0</sat>
</trkpt>
<trkpt lat="60.867460000" lon="15.118886667">
<time>2014-07-06T10:12:51Z</time>
 <fix>none</fix>
 <sat>0</sat>
</trkpt>
<trkpt lat="60.867461667" lon="15.118936667">
<time>2014-07-06T10:12:52Z</time>
 <fix>none</fix>
 <sat>0</sat>
</trkpt>
<trkpt lat="60.867465000" lon="15.118986667">
<time>2014-07-06T10:12:53Z</time>
 <fix>none</fix>
 <sat>0</sat>
</trkpt>
<trkpt lat="60.867470000" lon="15.119035000">
<time>2014-07-06T10:12:54Z</time>
 <fix>none</fix>
 <sat>0</sat>
</trkpt>
<trkpt lat="60.867473333" lon="15.119081667">
<time>2014-07-06T10:12:55Z</time>
 <fix>none</fix>
 <sat>0</sat>
</trkpt>
<trkpt lat="60.867475000" lon="15.119128333">
<time>2014-07-06T10:12:56Z</time>
 <fix>none</fix>
 <sat>0</sat>
</trkpt>
<trkpt lat="60.867475000" lon="15.119176667">
<time>2014-07-06T10:12:57Z</time>
 <fix>none</fix>
 <sat>0</sat>
</trkpt>
<trkpt lat="60.867475000" lon="15.119176667">
<time>2014-07-06T10:12:58Z</time>
 <fix>none</fix>
 <sat>0</sat>
</trkpt>
<trkpt lat="60.867476667" lon="15.119226667">
<time>2014-07-06T10:12:59Z</time>
 <fix>none</fix>
 <sat>0</sat>
</trkpt>
<trkpt lat="60.867478333" lon="15.119275000">
<time>2014-07-06T10:13:00Z</time>
 <fix>none</fix>
 <sat>0</sat>
</trkpt>
<trkpt lat="60.867480000" lon="15.119316667">
<time>2014-07-06T10:13:01Z</time>
 <fix>none</fix>
 <sat>0</sat>
</trkpt>
<trkpt lat="60.867483333" lon="15.119361667">
<time>2014-07-06T10:13:02Z</time>
 <fix>none</fix>
 <sat>0</sat>
</trkpt>
<trkpt lat="60.867481667" lon="15.119405000">
<time>2014-07-06T10:13:03Z</time>
 <fix>none</fix>
 <sat>0</sat>
</trkpt>
<trkpt lat="60.867476667" lon="15.119451667">
<time>2014-07-06T10:13:04Z</time>
 <fix>none</fix>
 <sat>0</sat>
</trkpt>
<trkpt lat="60.867470000" lon="15.119503333">
<time>2014-07-06T10:13:05Z</time>
 <fix>none</fix>
 <sat>0</sat>
</trkpt>
<trkpt lat="60.867468333" lon="15.119546667">
<time>2014-07-06T10:13:06Z</time>
 <fix>none</fix>
 <sat>0</sat>
</trkpt>
<trkpt lat="60.867470000" lon="15.119605000">
<time>2014-07-06T10:13:07Z</time>
 <fix>none</fix>
 <sat>0</sat>
</trkpt>
<trkpt lat="60.867470000" lon="15.119605000">
<time>2014-07-06T10:13:08Z</time>
 <fix>none</fix>
 <sat>0</sat>
</trkpt>
<trkpt lat="60.867470000" lon="15.119605000">
<time>2014-07-06T10:13:09Z</time>
 <fix>none</fix>
 <sat>0</sat>
</trkpt>
<trkpt lat="60.867466667" lon="15.119711667">
<time>2014-07-06T10:13:10Z</time>
 <fix>none</fix>
 <sat>0</sat>
</trkpt>
<trkpt lat="60.867466667" lon="15.119711667">
<time>2014-07-06T10:13:11Z</time>
 <fix>none</fix>
 <sat>0</sat>
</trkpt>
<trkpt lat="60.867476667" lon="15.119810000">
<time>2014-07-06T10:13:12Z</time>
 <fix>none</fix>
 <sat>0</sat>
</trkpt>
<trkpt lat="60.867476667" lon="15.119810000">
<time>2014-07-06T10:13:13Z</time>
 <fix>none</fix>
 <sat>0</sat>
</trkpt>
<trkpt lat="60.867475000" lon="15.119911667">
<time>2014-07-06T10:13:14Z</time>
 <fix>none</fix>
 <sat>0</sat>
</trkpt>
<trkpt lat="60.867468333" lon="15.119945000">
<time>2014-07-06T10:13:15Z</time>
 <fix>none</fix>
 <sat>0</sat>
</trkpt>
<trkpt lat="60.867460000" lon="15.119980000">
<time>2014-07-06T10:13:16Z</time>
 <fix>none</fix>
 <sat>0</sat>
</trkpt>
<trkpt lat="60.867446667" lon="15.120025000">
<time>2014-07-06T10:13:17Z</time>
 <fix>none</fix>
 <sat>0</sat>
</trkpt>
<trkpt lat="60.867441667" lon="15.120078333">
<time>2014-07-06T10:13:18Z</time>
 <fix>none</fix>
 <sat>0</sat>
</trkpt>
<trkpt lat="60.867431667" lon="15.120118333">
<time>2014-07-06T10:13:19Z</time>
 <fix>none</fix>
 <sat>0</sat>
</trkpt>
<trkpt lat="60.867426667" lon="15.120175000">
<time>2014-07-06T10:13:20Z</time>
 <fix>none</fix>
 <sat>0</sat>
</trkpt>
<trkpt lat="60.867426667" lon="15.120175000">
<time>2014-07-06T10:13:21Z</time>
 <fix>none</fix>
 <sat>0</sat>
</trkpt>
<trkpt lat="60.867421667" lon="15.120225000">
<time>2014-07-06T10:13:22Z</time>
 <fix>none</fix>
 <sat>0</sat>
</trkpt>
<trkpt lat="60.867416667" lon="15.120266667">
<time>2014-07-06T10:13:23Z</time>
 <fix>none</fix>
 <sat>0</sat>
</trkpt>
<trkpt lat="60.867416667" lon="15.120308333">
<time>2014-07-06T10:13:24Z</time>
 <fix>none</fix>
 <sat>0</sat>
</trkpt>
<trkpt lat="60.867420000" lon="15.120341667">
<time>2014-07-06T10:13:25Z</time>
 <fix>none</fix>
 <sat>0</sat>
</trkpt>
<trkpt lat="60.867421667" lon="15.120378333">
<time>2014-07-06T10:13:26Z</time>
 <fix>none</fix>
 <sat>0</sat>
</trkpt>
<trkpt lat="60.867421667" lon="15.120378333">
<time>2014-07-06T10:13:27Z</time>
 <fix>none</fix>
 <sat>0</sat>
</trkpt>
<trkpt lat="60.867435000" lon="15.120503333">
<time>2014-07-06T10:13:28Z</time>
 <fix>none</fix>
 <sat>0</sat>
</trkpt>
<trkpt lat="60.867435000" lon="15.120503333">
<time>2014-07-06T10:13:29Z</time>
 <fix>none</fix>
 <sat>0</sat>
</trkpt>
<trkpt lat="60.867480000" lon="15.120531667">
<time>2014-07-06T10:13:30Z</time>
 <fix>none</fix>
 <sat>0</sat>
</trkpt>
<trkpt lat="60.867480000" lon="15.120531667">
<time>2014-07-06T10:13:31Z</time>
 <fix>none</fix>
 <sat>0</sat>
</trkpt>
<trkpt lat="60.867506667" lon="15.120611667">
<time>2014-07-06T10:13:32Z</time>
 <fix>none</fix>
 <sat>0</sat>
</trkpt>
<trkpt lat="60.867506667" lon="15.120611667">
<time>2014-07-06T10:13:33Z</time>
 <fix>none</fix>
 <sat>0</sat>
</trkpt>
<trkpt lat="60.867516667" lon="15.120730000">
<time>2014-07-06T10:13:34Z</time>
 <fix>none</fix>
 <sat>0</sat>
</trkpt>
<trkpt lat="60.867516667" lon="15.120730000">
<time>2014-07-06T10:13:35Z</time>
 <fix>none</fix>
 <sat>0</sat>
</trkpt>
<trkpt lat="60.867506667" lon="15.120903333">
<time>2014-07-06T10:13:36Z</time>
 <fix>none</fix>
 <sat>0</sat>
</trkpt>
<trkpt lat="60.867506667" lon="15.120903333">
<time>2014-07-06T10:13:37Z</time>
 <fix>none</fix>
 <sat>0</sat>
</trkpt>
<trkpt lat="60.867508333" lon="15.121033333">
<time>2014-07-06T10:13:38Z</time>
 <fix>none</fix>
 <sat>0</sat>
</trkpt>
<trkpt lat="60.867506667" lon="15.121075000">
<time>2014-07-06T10:13:39Z</time>
 <fix>none</fix>
 <sat>0</sat>
</trkpt>
<trkpt lat="60.867510000" lon="15.121121667">
<time>2014-07-06T10:13:40Z</time>
 <fix>none</fix>
 <sat>0</sat>
</trkpt>
<trkpt lat="60.867518333" lon="15.121176667">
<time>2014-07-06T10:13:41Z</time>
 <fix>none</fix>
 <sat>0</sat>
</trkpt>
<trkpt lat="60.867525000" lon="15.121233333">
<time>2014-07-06T10:13:42Z</time>
 <fix>none</fix>
 <sat>0</sat>
</trkpt>
<trkpt lat="60.867526667" lon="15.121286667">
<time>2014-07-06T10:13:43Z</time>
 <fix>none</fix>
 <sat>0</sat>
</trkpt>
<trkpt lat="60.867526667" lon="15.121286667">
<time>2014-07-06T10:13:44Z</time>
 <fix>none</fix>
 <sat>0</sat>
</trkpt>
<trkpt lat="60.867530000" lon="15.121340000">
<time>2014-07-06T10:13:45Z</time>
 <fix>none</fix>
 <sat>0</sat>
</trkpt>
<trkpt lat="60.867528333" lon="15.121403333">
<time>2014-07-06T10:13:46Z</time>
 <fix>none</fix>
 <sat>0</sat>
</trkpt>
<trkpt lat="60.867525000" lon="15.121465000">
<time>2014-07-06T10:13:47Z</time>
 <fix>none</fix>
 <sat>0</sat>
</trkpt>
<trkpt lat="60.867526667" lon="15.121523333">
<time>2014-07-06T10:13:48Z</time>
 <fix>none</fix>
 <sat>0</sat>
</trkpt>
<trkpt lat="60.867528333" lon="15.121576667">
<time>2014-07-06T10:13:49Z</time>
 <fix>none</fix>
 <sat>0</sat>
</trkpt>
<trkpt lat="60.867538333" lon="15.121620000">
<time>2014-07-06T10:13:50Z</time>
 <fix>none</fix>
 <sat>0</sat>
</trkpt>
<trkpt lat="60.867546667" lon="15.121716667">
<time>2014-07-06T10:13:51Z</time>
 <fix>none</fix>
 <sat>0</sat>
</trkpt>
<trkpt lat="60.867546667" lon="15.121716667">
<time>2014-07-06T10:13:52Z</time>
 <fix>none</fix>
 <sat>0</sat>
</trkpt>
<trkpt lat="60.867540000" lon="15.121821667">
<time>2014-07-06T10:13:53Z</time>
 <fix>none</fix>
 <sat>0</sat>
</trkpt>
<trkpt lat="60.867540000" lon="15.121866667">
<time>2014-07-06T10:13:54Z</time>
 <fix>none</fix>
 <sat>0</sat>
</trkpt>
<trkpt lat="60.867546667" lon="15.121925000">
<time>2014-07-06T10:13:55Z</time>
 <fix>none</fix>
 <sat>0</sat>
</trkpt>
<trkpt lat="60.867551667" lon="15.121961667">
<time>2014-07-06T10:13:56Z</time>
 <fix>none</fix>
 <sat>0</sat>
</trkpt>
<trkpt lat="60.867563333" lon="15.122010000">
<time>2014-07-06T10:13:57Z</time>
 <fix>none</fix>
 <sat>0</sat>
</trkpt>
<trkpt lat="60.867573333" lon="15.122061667">
<time>2014-07-06T10:13:58Z</time>
 <fix>none</fix>
 <sat>0</sat>
</trkpt>
<trkpt lat="60.867580000" lon="15.122135000">
<time>2014-07-06T10:13:59Z</time>
 <fix>none</fix>
 <sat>0</sat>
</trkpt>
<trkpt lat="60.867590000" lon="15.122208333">
<time>2014-07-06T10:14:00Z</time>
 <fix>none</fix>
 <sat>0</sat>
</trkpt>
<trkpt lat="60.867606667" lon="15.122276667">
<time>2014-07-06T10:14:01Z</time>
 <fix>none</fix>
 <sat>0</sat>
</trkpt>
<trkpt lat="60.867606667" lon="15.122276667">
<time>2014-07-06T10:14:02Z</time>
 <fix>none</fix>
 <sat>0</sat>
</trkpt>
<trkpt lat="60.867606667" lon="15.122276667">
<time>2014-07-06T10:14:03Z</time>
 <fix>none</fix>
 <sat>0</sat>
</trkpt>
<trkpt lat="60.867638333" lon="15.122446667">
<time>2014-07-06T10:14:04Z</time>
 <fix>none</fix>
 <sat>0</sat>
</trkpt>
<trkpt lat="60.867638333" lon="15.122446667">
<time>2014-07-06T10:14:05Z</time>
 <fix>none</fix>
 <sat>0</sat>
</trkpt>
<trkpt lat="60.867653333" lon="15.122568333">
<time>2014-07-06T10:14:06Z</time>
 <fix>none</fix>
 <sat>0</sat>
</trkpt>
<trkpt lat="60.867653333" lon="15.122568333">
<time>2014-07-06T10:14:07Z</time>
 <fix>none</fix>
 <sat>0</sat>
</trkpt>
<trkpt lat="60.867665000" lon="15.122721667">
<time>2014-07-06T10:14:08Z</time>
 <fix>none</fix>
 <sat>0</sat>
</trkpt>
<trkpt lat="60.867665000" lon="15.122721667">
<time>2014-07-06T10:14:09Z</time>
 <fix>none</fix>
 <sat>0</sat>
</trkpt>
<trkpt lat="60.867686667" lon="15.122875000">
<time>2014-07-06T10:14:10Z</time>
 <fix>none</fix>
 <sat>0</sat>
</trkpt>
<trkpt lat="60.867686667" lon="15.122875000">
<time>2014-07-06T10:14:11Z</time>
 <fix>none</fix>
 <sat>0</sat>
</trkpt>
<trkpt lat="60.867688333" lon="15.123018333">
<time>2014-07-06T10:14:12Z</time>
 <fix>none</fix>
 <sat>0</sat>
</trkpt>
<trkpt lat="60.867688333" lon="15.123031667">
<time>2014-07-06T10:14:13Z</time>
 <fix>none</fix>
 <sat>0</sat>
</trkpt>
<trkpt lat="60.867690000" lon="15.123095000">
<time>2014-07-06T10:14:14Z</time>
 <fix>none</fix>
 <sat>0</sat>
</trkpt>
<trkpt lat="60.867688333" lon="15.123233333">
<time>2014-07-06T10:14:15Z</time>
 <fix>none</fix>
 <sat>0</sat>
</trkpt>
<trkpt lat="60.867696667" lon="15.123293333">
<time>2014-07-06T10:14:16Z</time>
 <fix>none</fix>
 <sat>0</sat>
</trkpt>
<trkpt lat="60.867690000" lon="15.123376667">
<time>2014-07-06T10:14:17Z</time>
 <fix>none</fix>
 <sat>0</sat>
</trkpt>
<trkpt lat="60.867686667" lon="15.123455000">
<time>2014-07-06T10:14:18Z</time>
 <fix>none</fix>
 <sat>0</sat>
</trkpt>
<trkpt lat="60.867681667" lon="15.123533333">
<time>2014-07-06T10:14:19Z</time>
 <fix>none</fix>
 <sat>0</sat>
</trkpt>
<trkpt lat="60.867675000" lon="15.123595000">
<time>2014-07-06T10:14:20Z</time>
 <fix>none</fix>
 <sat>0</sat>
</trkpt>
<trkpt lat="60.867665000" lon="15.123651667">
<time>2014-07-06T10:14:21Z</time>
 <fix>none</fix>
 <sat>0</sat>
</trkpt>
<trkpt lat="60.867653333" lon="15.123713333">
<time>2014-07-06T10:14:22Z</time>
 <fix>none</fix>
 <sat>0</sat>
</trkpt>
<trkpt lat="60.867640000" lon="15.123763333">
<time>2014-07-06T10:14:23Z</time>
 <fix>none</fix>
 <sat>0</sat>
</trkpt>
<trkpt lat="60.867623333" lon="15.123811667">
<time>2014-07-06T10:14:24Z</time>
 <fix>none</fix>
 <sat>0</sat>
</trkpt>
<trkpt lat="60.867600000" lon="15.123861667">
<time>2014-07-06T10:14:25Z</time>
 <fix>none</fix>
 <sat>0</sat>
</trkpt>
<trkpt lat="60.867576667" lon="15.123903333">
<time>2014-07-06T10:14:26Z</time>
 <fix>none</fix>
 <sat>0</sat>
</trkpt>
<trkpt lat="60.867555000" lon="15.123941667">
<time>2014-07-06T10:14:27Z</time>
 <fix>none</fix>
 <sat>0</sat>
</trkpt>
<trkpt lat="60.867533333" lon="15.123976667">
<time>2014-07-06T10:14:28Z</time>
 <fix>none</fix>
 <sat>0</sat>
</trkpt>
<trkpt lat="60.867533333" lon="15.123976667">
<time>2014-07-06T10:14:29Z</time>
 <fix>none</fix>
 <sat>0</sat>
</trkpt>
<trkpt lat="60.867513333" lon="15.124015000">
<time>2014-07-06T10:14:30Z</time>
 <fix>none</fix>
 <sat>0</sat>
</trkpt>
<trkpt lat="60.867513333" lon="15.124015000">
<time>2014-07-06T10:14:31Z</time>
 <fix>none</fix>
 <sat>0</sat>
</trkpt>
<trkpt lat="60.867455000" lon="15.124098333">
<time>2014-07-06T10:14:32Z</time>
 <fix>none</fix>
 <sat>0</sat>
</trkpt>
<trkpt lat="60.867455000" lon="15.124098333">
<time>2014-07-06T10:14:33Z</time>
 <fix>none</fix>
 <sat>0</sat>
</trkpt>
<trkpt lat="60.867416667" lon="15.124141667">
<time>2014-07-06T10:14:34Z</time>
 <fix>none</fix>
 <sat>0</sat>
</trkpt>
<trkpt lat="60.867375000" lon="15.124191667">
<time>2014-07-06T10:14:35Z</time>
 <fix>none</fix>
 <sat>0</sat>
</trkpt>
<trkpt lat="60.867375000" lon="15.124191667">
<time>2014-07-06T10:14:36Z</time>
 <fix>none</fix>
 <sat>0</sat>
</trkpt>
<trkpt lat="60.867375000" lon="15.124191667">
<time>2014-07-06T10:14:37Z</time>
 <fix>none</fix>
 <sat>0</sat>
</trkpt>
<trkpt lat="60.867326667" lon="15.124250000">
<time>2014-07-06T10:14:38Z</time>
 <fix>none</fix>
 <sat>0</sat>
</trkpt>
<trkpt lat="60.867326667" lon="15.124250000">
<time>2014-07-06T10:14:39Z</time>
 <fix>none</fix>
 <sat>0</sat>
</trkpt>
<trkpt lat="60.867286667" lon="15.124256667">
<time>2014-07-06T10:14:40Z</time>
 <fix>none</fix>
 <sat>0</sat>
</trkpt>
<trkpt lat="60.867286667" lon="15.124256667">
<time>2014-07-06T10:14:41Z</time>
 <fix>none</fix>
 <sat>0</sat>
</trkpt>
<trkpt lat="60.867238333" lon="15.124293333">
<time>2014-07-06T10:14:42Z</time>
 <fix>none</fix>
 <sat>0</sat>
</trkpt>
<trkpt lat="60.867220000" lon="15.124306667">
<time>2014-07-06T10:14:43Z</time>
 <fix>none</fix>
 <sat>0</sat>
</trkpt>
<trkpt lat="60.867191667" lon="15.124340000">
<time>2014-07-06T10:14:44Z</time>
 <fix>none</fix>
 <sat>0</sat>
</trkpt>
<trkpt lat="60.867161667" lon="15.124380000">
<time>2014-07-06T10:14:45Z</time>
 <fix>none</fix>
 <sat>0</sat>
</trkpt>
<trkpt lat="60.867131667" lon="15.124425000">
<time>2014-07-06T10:14:46Z</time>
 <fix>none</fix>
 <sat>0</sat>
</trkpt>
<trkpt lat="60.867100000" lon="15.124461667">
<time>2014-07-06T10:14:47Z</time>
 <fix>none</fix>
 <sat>0</sat>
</trkpt>
<trkpt lat="60.867071667" lon="15.124500000">
<time>2014-07-06T10:14:48Z</time>
 <fix>none</fix>
 <sat>0</sat>
</trkpt>
<trkpt lat="60.867043333" lon="15.124528333">
<time>2014-07-06T10:14:49Z</time>
 <fix>none</fix>
 <sat>0</sat>
</trkpt>
<trkpt lat="60.867018333" lon="15.124553333">
<time>2014-07-06T10:14:50Z</time>
 <fix>none</fix>
 <sat>0</sat>
</trkpt>
<trkpt lat="60.866991667" lon="15.124573333">
<time>2014-07-06T10:14:51Z</time>
 <fix>none</fix>
 <sat>0</sat>
</trkpt>
<trkpt lat="60.866991667" lon="15.124573333">
<time>2014-07-06T10:14:52Z</time>
 <fix>none</fix>
 <sat>0</sat>
</trkpt>
<trkpt lat="60.866966667" lon="15.124591667">
<time>2014-07-06T10:14:53Z</time>
 <fix>none</fix>
 <sat>0</sat>
</trkpt>
<trkpt lat="60.866941667" lon="15.124608333">
<time>2014-07-06T10:14:54Z</time>
 <fix>none</fix>
 <sat>0</sat>
</trkpt>
<trkpt lat="60.866921667" lon="15.124613333">
<time>2014-07-06T10:14:55Z</time>
 <fix>none</fix>
 <sat>0</sat>
</trkpt>
<trkpt lat="60.866898333" lon="15.124625000">
<time>2014-07-06T10:14:56Z</time>
 <fix>none</fix>
 <sat>0</sat>
</trkpt>
<trkpt lat="60.866870000" lon="15.124650000">
<time>2014-07-06T10:14:57Z</time>
 <fix>none</fix>
 <sat>0</sat>
</trkpt>
<trkpt lat="60.866870000" lon="15.124650000">
<time>2014-07-06T10:14:58Z</time>
 <fix>none</fix>
 <sat>0</sat>
</trkpt>
<trkpt lat="60.866788333" lon="15.124706667">
<time>2014-07-06T10:14:59Z</time>
 <fix>none</fix>
 <sat>0</sat>
</trkpt>
<trkpt lat="60.866788333" lon="15.124706667">
<time>2014-07-06T10:15:00Z</time>
 <fix>none</fix>
 <sat>0</sat>
</trkpt>
<trkpt lat="60.866738333" lon="15.124730000">
<time>2014-07-06T10:15:01Z</time>
 <fix>none</fix>
 <sat>0</sat>
</trkpt>
<trkpt lat="60.866738333" lon="15.124730000">
<time>2014-07-06T10:15:02Z</time>
 <fix>none</fix>
 <sat>0</sat>
</trkpt>
<trkpt lat="60.866688333" lon="15.124771667">
<time>2014-07-06T10:15:03Z</time>
 <fix>none</fix>
 <sat>0</sat>
</trkpt>
<trkpt lat="60.866688333" lon="15.124771667">
<time>2014-07-06T10:15:04Z</time>
 <fix>none</fix>
 <sat>0</sat>
</trkpt>
<trkpt lat="60.866630000" lon="15.124825000">
<time>2014-07-06T10:15:05Z</time>
 <fix>none</fix>
 <sat>0</sat>
</trkpt>
<trkpt lat="60.866630000" lon="15.124825000">
<time>2014-07-06T10:15:06Z</time>
 <fix>none</fix>
 <sat>0</sat>
</trkpt>
<trkpt lat="60.866580000" lon="15.124828333">
<time>2014-07-06T10:15:07Z</time>
 <fix>none</fix>
 <sat>0</sat>
</trkpt>
<trkpt lat="60.866580000" lon="15.124828333">
<time>2014-07-06T10:15:08Z</time>
 <fix>none</fix>
 <sat>0</sat>
</trkpt>
<trkpt lat="60.866535000" lon="15.124855000">
<time>2014-07-06T10:15:09Z</time>
 <fix>none</fix>
 <sat>0</sat>
</trkpt>
<trkpt lat="60.866535000" lon="15.124855000">
<time>2014-07-06T10:15:10Z</time>
 <fix>none</fix>
 <sat>0</sat>
</trkpt>
<trkpt lat="60.866488333" lon="15.124920000">
<time>2014-07-06T10:15:11Z</time>
 <fix>none</fix>
 <sat>0</sat>
</trkpt>
<trkpt lat="60.866488333" lon="15.124920000">
<time>2014-07-06T10:15:12Z</time>
 <fix>none</fix>
 <sat>0</sat>
</trkpt>
<trkpt lat="60.866436667" lon="15.124966667">
<time>2014-07-06T10:15:13Z</time>
 <fix>none</fix>
 <sat>0</sat>
</trkpt>
<trkpt lat="60.866436667" lon="15.124966667">
<time>2014-07-06T10:15:14Z</time>
 <fix>none</fix>
 <sat>0</sat>
</trkpt>
<trkpt lat="60.866373333" lon="15.125005000">
<time>2014-07-06T10:15:15Z</time>
 <fix>none</fix>
 <sat>0</sat>
</trkpt>
<trkpt lat="60.866373333" lon="15.125005000">
<time>2014-07-06T10:15:16Z</time>
 <fix>none</fix>
 <sat>0</sat>
</trkpt>
<trkpt lat="60.866313333" lon="15.125035000">
<time>2014-07-06T10:15:17Z</time>
 <fix>none</fix>
 <sat>0</sat>
</trkpt>
<trkpt lat="60.866313333" lon="15.125035000">
<time>2014-07-06T10:15:18Z</time>
 <fix>none</fix>
 <sat>0</sat>
</trkpt>
<trkpt lat="60.866256667" lon="15.125088333">
<time>2014-07-06T10:15:19Z</time>
 <fix>none</fix>
 <sat>0</sat>
</trkpt>
<trkpt lat="60.866256667" lon="15.125088333">
<time>2014-07-06T10:15:20Z</time>
 <fix>none</fix>
 <sat>0</sat>
</trkpt>
<trkpt lat="60.866205000" lon="15.125105000">
<time>2014-07-06T10:15:21Z</time>
 <fix>none</fix>
 <sat>0</sat>
</trkpt>
<trkpt lat="60.866205000" lon="15.125105000">
<time>2014-07-06T10:15:22Z</time>
 <fix>none</fix>
 <sat>0</sat>
</trkpt>
<trkpt lat="60.866138333" lon="15.125168333">
<time>2014-07-06T10:15:23Z</time>
 <fix>none</fix>
 <sat>0</sat>
</trkpt>
<trkpt lat="60.866138333" lon="15.125168333">
<time>2014-07-06T10:15:24Z</time>
 <fix>none</fix>
 <sat>0</sat>
</trkpt>
<trkpt lat="60.866070000" lon="15.125221667">
<time>2014-07-06T10:15:25Z</time>
 <fix>none</fix>
 <sat>0</sat>
</trkpt>
<trkpt lat="60.866045000" lon="15.125236667">
<time>2014-07-06T10:15:26Z</time>
 <fix>none</fix>
 <sat>0</sat>
</trkpt>
<trkpt lat="60.866015000" lon="15.125260000">
<time>2014-07-06T10:15:27Z</time>
 <fix>none</fix>
 <sat>0</sat>
</trkpt>
<trkpt lat="60.865986667" lon="15.125255000">
<time>2014-07-06T10:15:28Z</time>
 <fix>none</fix>
 <sat>0</sat>
</trkpt>
<trkpt lat="60.865970000" lon="15.125231667">
<time>2014-07-06T10:15:29Z</time>
 <fix>none</fix>
 <sat>0</sat>
</trkpt>
<trkpt lat="60.865948333" lon="15.125225000">
<time>2014-07-06T10:15:30Z</time>
 <fix>none</fix>
 <sat>0</sat>
</trkpt>
<trkpt lat="60.865926667" lon="15.125228333">
<time>2014-07-06T10:15:31Z</time>
 <fix>none</fix>
 <sat>0</sat>
</trkpt>
<trkpt lat="60.865906667" lon="15.125226667">
<time>2014-07-06T10:15:32Z</time>
 <fix>none</fix>
 <sat>0</sat>
</trkpt>
<trkpt lat="60.865888333" lon="15.125213333">
<time>2014-07-06T10:15:33Z</time>
 <fix>none</fix>
 <sat>0</sat>
</trkpt>
<trkpt lat="60.865870000" lon="15.125205000">
<time>2014-07-06T10:15:34Z</time>
 <fix>none</fix>
 <sat>0</sat>
</trkpt>
<trkpt lat="60.865855000" lon="15.125200000">
<time>2014-07-06T10:15:35Z</time>
 <fix>none</fix>
 <sat>0</sat>
</trkpt>
<trkpt lat="60.865820000" lon="15.125213333">
<time>2014-07-06T10:15:36Z</time>
 <fix>none</fix>
 <sat>0</sat>
</trkpt>
<trkpt lat="60.865788333" lon="15.125215000">
<time>2014-07-06T10:15:37Z</time>
 <fix>none</fix>
 <sat>0</sat>
</trkpt>
<trkpt lat="60.865788333" lon="15.125215000">
<time>2014-07-06T10:15:38Z</time>
 <fix>none</fix>
 <sat>0</sat>
</trkpt>
<trkpt lat="60.865758333" lon="15.125205000">
<time>2014-07-06T10:15:39Z</time>
 <fix>none</fix>
 <sat>0</sat>
</trkpt>
<trkpt lat="60.865730000" lon="15.125185000">
<time>2014-07-06T10:15:40Z</time>
 <fix>none</fix>
 <sat>0</sat>
</trkpt>
<trkpt lat="60.865701667" lon="15.125180000">
<time>2014-07-06T10:15:41Z</time>
 <fix>none</fix>
 <sat>0</sat>
</trkpt>
<trkpt lat="60.865673333" lon="15.125181667">
<time>2014-07-06T10:15:42Z</time>
 <fix>none</fix>
 <sat>0</sat>
</trkpt>
<trkpt lat="60.865645000" lon="15.125183333">
<time>2014-07-06T10:15:43Z</time>
 <fix>none</fix>
 <sat>0</sat>
</trkpt>
<trkpt lat="60.865585000" lon="15.125193333">
<time>2014-07-06T10:15:44Z</time>
 <fix>none</fix>
 <sat>0</sat>
</trkpt>
<trkpt lat="60.865585000" lon="15.125193333">
<time>2014-07-06T10:15:45Z</time>
 <fix>none</fix>
 <sat>0</sat>
</trkpt>
<trkpt lat="60.865513333" lon="15.125216667">
<time>2014-07-06T10:15:46Z</time>
 <fix>none</fix>
 <sat>0</sat>
</trkpt>
<trkpt lat="60.865513333" lon="15.125216667">
<time>2014-07-06T10:15:47Z</time>
 <fix>none</fix>
 <sat>0</sat>
</trkpt>
<trkpt lat="60.865513333" lon="15.125216667">
<time>2014-07-06T10:15:48Z</time>
 <fix>none</fix>
 <sat>0</sat>
</trkpt>
<trkpt lat="60.865430000" lon="15.125231667">
<time>2014-07-06T10:15:49Z</time>
 <fix>none</fix>
 <sat>0</sat>
</trkpt>
<trkpt lat="60.865430000" lon="15.125231667">
<time>2014-07-06T10:15:50Z</time>
 <fix>none</fix>
 <sat>0</sat>
</trkpt>
<trkpt lat="60.865371667" lon="15.125228333">
<time>2014-07-06T10:15:51Z</time>
 <fix>none</fix>
 <sat>0</sat>
</trkpt>
<trkpt lat="60.865348333" lon="15.125240000">
<time>2014-07-06T10:15:52Z</time>
 <fix>none</fix>
 <sat>0</sat>
</trkpt>
<trkpt lat="60.865318333" lon="15.125263333">
<time>2014-07-06T10:15:53Z</time>
 <fix>none</fix>
 <sat>0</sat>
</trkpt>
<trkpt lat="60.865285000" lon="15.125293333">
<time>2014-07-06T10:15:54Z</time>
 <fix>none</fix>
 <sat>0</sat>
</trkpt>
<trkpt lat="60.865251667" lon="15.125326667">
<time>2014-07-06T10:15:55Z</time>
 <fix>none</fix>
 <sat>0</sat>
</trkpt>
<trkpt lat="60.865220000" lon="15.125326667">
<time>2014-07-06T10:15:56Z</time>
 <fix>none</fix>
 <sat>0</sat>
</trkpt>
<trkpt lat="60.865193333" lon="15.125316667">
<time>2014-07-06T10:15:57Z</time>
 <fix>none</fix>
 <sat>0</sat>
</trkpt>
<trkpt lat="60.865165000" lon="15.125308333">
<time>2014-07-06T10:15:58Z</time>
 <fix>none</fix>
 <sat>0</sat>
</trkpt>
<trkpt lat="60.865140000" lon="15.125293333">
<time>2014-07-06T10:15:59Z</time>
 <fix>none</fix>
 <sat>0</sat>
</trkpt>
<trkpt lat="60.865111667" lon="15.125276667">
<time>2014-07-06T10:16:00Z</time>
 <fix>none</fix>
 <sat>0</sat>
</trkpt>
<trkpt lat="60.865111667" lon="15.125276667">
<time>2014-07-06T10:16:01Z</time>
 <fix>none</fix>
 <sat>0</sat>
</trkpt>
<trkpt lat="60.865085000" lon="15.125261667">
<time>2014-07-06T10:16:02Z</time>
 <fix>none</fix>
 <sat>0</sat>
</trkpt>
<trkpt lat="60.865055000" lon="15.125250000">
<time>2014-07-06T10:16:03Z</time>
 <fix>none</fix>
 <sat>0</sat>
</trkpt>
<trkpt lat="60.865025000" lon="15.125225000">
<time>2014-07-06T10:16:04Z</time>
 <fix>none</fix>
 <sat>0</sat>
</trkpt>
<trkpt lat="60.864996667" lon="15.125205000">
<time>2014-07-06T10:16:05Z</time>
 <fix>none</fix>
 <sat>0</sat>
</trkpt>
<trkpt lat="60.864971667" lon="15.125171667">
<time>2014-07-06T10:16:06Z</time>
 <fix>none</fix>
 <sat>0</sat>
</trkpt>
<trkpt lat="60.864946667" lon="15.125123333">
<time>2014-07-06T10:16:07Z</time>
 <fix>none</fix>
 <sat>0</sat>
</trkpt>
<trkpt lat="60.864946667" lon="15.125123333">
<time>2014-07-06T10:16:08Z</time>
 <fix>none</fix>
 <sat>0</sat>
</trkpt>
<trkpt lat="60.864946667" lon="15.125123333">
<time>2014-07-06T10:16:09Z</time>
 <fix>none</fix>
 <sat>0</sat>
</trkpt>
<trkpt lat="60.864880000" lon="15.124940000">
<time>2014-07-06T10:16:10Z</time>
 <fix>none</fix>
 <sat>0</sat>
</trkpt>
<trkpt lat="60.864835000" lon="15.124788333">
<time>2014-07-06T10:16:11Z</time>
 <fix>none</fix>
 <sat>0</sat>
</trkpt>
<trkpt lat="60.864835000" lon="15.124788333">
<time>2014-07-06T10:16:12Z</time>
 <fix>none</fix>
 <sat>0</sat>
</trkpt>
<trkpt lat="60.864768333" lon="15.124635000">
<time>2014-07-06T10:16:13Z</time>
 <fix>none</fix>
 <sat>0</sat>
</trkpt>
<trkpt lat="60.864768333" lon="15.124635000">
<time>2014-07-06T10:16:14Z</time>
 <fix>none</fix>
 <sat>0</sat>
</trkpt>
<trkpt lat="60.864695000" lon="15.124455000">
<time>2014-07-06T10:16:15Z</time>
 <fix>none</fix>
 <sat>0</sat>
</trkpt>
<trkpt lat="60.864695000" lon="15.124455000">
<time>2014-07-06T10:16:16Z</time>
 <fix>none</fix>
 <sat>0</sat>
</trkpt>
<trkpt lat="60.864620000" lon="15.124278333">
<time>2014-07-06T10:16:17Z</time>
 <fix>none</fix>
 <sat>0</sat>
</trkpt>
<trkpt lat="60.864620000" lon="15.124278333">
<time>2014-07-06T10:16:18Z</time>
 <fix>none</fix>
 <sat>0</sat>
</trkpt>
<trkpt lat="60.864570000" lon="15.124101667">
<time>2014-07-06T10:16:19Z</time>
 <fix>none</fix>
 <sat>0</sat>
</trkpt>
<trkpt lat="60.864570000" lon="15.124101667">
<time>2014-07-06T10:16:20Z</time>
 <fix>none</fix>
 <sat>0</sat>
</trkpt>
<trkpt lat="60.864515000" lon="15.123956667">
<time>2014-07-06T10:16:21Z</time>
 <fix>none</fix>
 <sat>0</sat>
</trkpt>
<trkpt lat="60.864515000" lon="15.123956667">
<time>2014-07-06T10:16:22Z</time>
 <fix>none</fix>
 <sat>0</sat>
</trkpt>
<trkpt lat="60.864463333" lon="15.123813333">
<time>2014-07-06T10:16:23Z</time>
 <fix>none</fix>
 <sat>0</sat>
</trkpt>
<trkpt lat="60.864455000" lon="15.123793333">
<time>2014-07-06T10:16:24Z</time>
 <fix>none</fix>
 <sat>0</sat>
</trkpt>
<trkpt lat="60.864431667" lon="15.123721667">
<time>2014-07-06T10:16:25Z</time>
 <fix>none</fix>
 <sat>0</sat>
</trkpt>
<trkpt lat="60.864396667" lon="15.123650000">
<time>2014-07-06T10:16:26Z</time>
 <fix>none</fix>
 <sat>0</sat>
</trkpt>
<trkpt lat="60.864350000" lon="15.123581667">
<time>2014-07-06T10:16:27Z</time>
 <fix>none</fix>
 <sat>0</sat>
</trkpt>
<trkpt lat="60.864308333" lon="15.123523333">
<time>2014-07-06T10:16:28Z</time>
 <fix>none</fix>
 <sat>0</sat>
</trkpt>
<trkpt lat="60.864268333" lon="15.123460000">
<time>2014-07-06T10:16:29Z</time>
 <fix>none</fix>
 <sat>0</sat>
</trkpt>
<trkpt lat="60.864196667" lon="15.123315000">
<time>2014-07-06T10:16:30Z</time>
 <fix>none</fix>
 <sat>0</sat>
</trkpt>
<trkpt lat="60.864156667" lon="15.123253333">
<time>2014-07-06T10:16:31Z</time>
 <fix>none</fix>
 <sat>0</sat>
</trkpt>
<trkpt lat="60.864111667" lon="15.123216667">
<time>2014-07-06T10:16:32Z</time>
 <fix>none</fix>
 <sat>0</sat>
</trkpt>
<trkpt lat="60.864063333" lon="15.123208333">
<time>2014-07-06T10:16:33Z</time>
 <fix>none</fix>
 <sat>0</sat>
</trkpt>
<trkpt lat="60.864021667" lon="15.123238333">
<time>2014-07-06T10:16:34Z</time>
 <fix>none</fix>
 <sat>0</sat>
</trkpt>
<trkpt lat="60.863988333" lon="15.123363333">
<time>2014-07-06T10:16:35Z</time>
 <fix>none</fix>
 <sat>0</sat>
</trkpt>
<trkpt lat="60.863973333" lon="15.123475000">
<time>2014-07-06T10:16:36Z</time>
 <fix>none</fix>
 <sat>0</sat>
</trkpt>
<trkpt lat="60.863966667" lon="15.123560000">
<time>2014-07-06T10:16:37Z</time>
 <fix>none</fix>
 <sat>0</sat>
</trkpt>
<trkpt lat="60.863953333" lon="15.123625000">
<time>2014-07-06T10:16:38Z</time>
 <fix>none</fix>
 <sat>0</sat>
</trkpt>
<trkpt lat="60.863941667" lon="15.123701667">
<time>2014-07-06T10:16:39Z</time>
 <fix>none</fix>
 <sat>0</sat>
</trkpt>
<trkpt lat="60.863925000" lon="15.123780000">
<time>2014-07-06T10:16:40Z</time>
 <fix>none</fix>
 <sat>0</sat>
</trkpt>
<trkpt lat="60.863908333" lon="15.123830000">
<time>2014-07-06T10:16:41Z</time>
 <fix>none</fix>
 <sat>0</sat>
</trkpt>
<trkpt lat="60.863895000" lon="15.123891667">
<time>2014-07-06T10:16:42Z</time>
 <fix>none</fix>
 <sat>0</sat>
</trkpt>
<trkpt lat="60.863888333" lon="15.123945000">
<time>2014-07-06T10:16:43Z</time>
 <fix>none</fix>
 <sat>0</sat>
</trkpt>
<trkpt lat="60.863886667" lon="15.123968333">
<time>2014-07-06T10:16:44Z</time>
 <fix>none</fix>
 <sat>0</sat>
</trkpt>
<trkpt lat="60.863885000" lon="15.123986667">
<time>2014-07-06T10:16:45Z</time>
 <fix>none</fix>
 <sat>0</sat>
</trkpt>
<trkpt lat="60.863885000" lon="15.123986667">
<time>2014-07-06T10:16:46Z</time>
 <fix>none</fix>
 <sat>0</sat>
</trkpt>
<trkpt lat="60.863873333" lon="15.123990000">
<time>2014-07-06T10:16:47Z</time>
 <fix>none</fix>
 <sat>0</sat>
</trkpt>
<trkpt lat="60.863865000" lon="15.123995000">
<time>2014-07-06T10:16:48Z</time>
 <fix>none</fix>
 <sat>0</sat>
</trkpt>
<trkpt lat="60.863865000" lon="15.123995000">
<time>2014-07-06T10:16:49Z</time>
 <fix>none</fix>
 <sat>0</sat>
</trkpt>
<trkpt lat="60.863851667" lon="15.124106667">
<time>2014-07-06T10:16:50Z</time>
 <fix>none</fix>
 <sat>0</sat>
</trkpt>
<trkpt lat="60.863851667" lon="15.124120000">
<time>2014-07-06T10:16:51Z</time>
 <fix>none</fix>
 <sat>0</sat>
</trkpt>
<trkpt lat="60.863845000" lon="15.124196667">
<time>2014-07-06T10:16:52Z</time>
 <fix>none</fix>
 <sat>0</sat>
</trkpt>
<trkpt lat="60.863840000" lon="15.124218333">
<time>2014-07-06T10:16:53Z</time>
 <fix>none</fix>
 <sat>0</sat>
</trkpt>
<trkpt lat="60.863831667" lon="15.124250000">
<time>2014-07-06T10:16:54Z</time>
 <fix>none</fix>
 <sat>0</sat>
</trkpt>
<trkpt lat="60.863823333" lon="15.124285000">
<time>2014-07-06T10:16:55Z</time>
 <fix>none</fix>
 <sat>0</sat>
</trkpt>
<trkpt lat="60.863811667" lon="15.124325000">
<time>2014-07-06T10:16:56Z</time>
 <fix>none</fix>
 <sat>0</sat>
</trkpt>
<trkpt lat="60.863810000" lon="15.124351667">
<time>2014-07-06T10:16:57Z</time>
 <fix>none</fix>
 <sat>0</sat>
</trkpt>
<trkpt lat="60.863806667" lon="15.124376667">
<time>2014-07-06T10:16:58Z</time>
 <fix>none</fix>
 <sat>0</sat>
</trkpt>
<trkpt lat="60.863810000" lon="15.124423333">
<time>2014-07-06T10:16:59Z</time>
 <fix>none</fix>
 <sat>0</sat>
</trkpt>
<trkpt lat="60.863815000" lon="15.124458333">
<time>2014-07-06T10:17:00Z</time>
 <fix>none</fix>
 <sat>0</sat>
</trkpt>
<trkpt lat="60.863810000" lon="15.124496667">
<time>2014-07-06T10:17:01Z</time>
 <fix>none</fix>
 <sat>0</sat>
</trkpt>
<trkpt lat="60.863803333" lon="15.124545000">
<time>2014-07-06T10:17:02Z</time>
 <fix>none</fix>
 <sat>0</sat>
</trkpt>
<trkpt lat="60.863791667" lon="15.124601667">
<time>2014-07-06T10:17:03Z</time>
 <fix>none</fix>
 <sat>0</sat>
</trkpt>
<trkpt lat="60.863783333" lon="15.124658333">
<time>2014-07-06T10:17:04Z</time>
 <fix>none</fix>
 <sat>0</sat>
</trkpt>
<trkpt lat="60.863773333" lon="15.124715000">
<time>2014-07-06T10:17:05Z</time>
 <fix>none</fix>
 <sat>0</sat>
</trkpt>
<trkpt lat="60.863763333" lon="15.124765000">
<time>2014-07-06T10:17:06Z</time>
 <fix>none</fix>
 <sat>0</sat>
</trkpt>
<trkpt lat="60.863746667" lon="15.124825000">
<time>2014-07-06T10:17:07Z</time>
 <fix>none</fix>
 <sat>0</sat>
</trkpt>
<trkpt lat="60.863746667" lon="15.124825000">
<time>2014-07-06T10:17:08Z</time>
 <fix>none</fix>
 <sat>0</sat>
</trkpt>
<trkpt lat="60.863746667" lon="15.124825000">
<time>2014-07-06T10:17:09Z</time>
 <fix>none</fix>
 <sat>0</sat>
</trkpt>
<trkpt lat="60.863710000" lon="15.125056667">
<time>2014-07-06T10:17:10Z</time>
 <fix>none</fix>
 <sat>0</sat>
</trkpt>
<trkpt lat="60.863710000" lon="15.125056667">
<time>2014-07-06T10:17:11Z</time>
 <fix>none</fix>
 <sat>0</sat>
</trkpt>
<trkpt lat="60.863685000" lon="15.125268333">
<time>2014-07-06T10:17:12Z</time>
 <fix>none</fix>
 <sat>0</sat>
</trkpt>
<trkpt lat="60.863678333" lon="15.125288333">
<time>2014-07-06T10:17:13Z</time>
 <fix>none</fix>
 <sat>0</sat>
</trkpt>
<trkpt lat="60.863666667" lon="15.125381667">
<time>2014-07-06T10:17:14Z</time>
 <fix>none</fix>
 <sat>0</sat>
</trkpt>
<trkpt lat="60.863645000" lon="15.125498333">
<time>2014-07-06T10:17:15Z</time>
 <fix>none</fix>
 <sat>0</sat>
</trkpt>
<trkpt lat="60.863613333" lon="15.125626667">
<time>2014-07-06T10:17:16Z</time>
 <fix>none</fix>
 <sat>0</sat>
</trkpt>
<trkpt lat="60.863585000" lon="15.125756667">
<time>2014-07-06T10:17:17Z</time>
 <fix>none</fix>
 <sat>0</sat>
</trkpt>
<trkpt lat="60.863530000" lon="15.125993333">
<time>2014-07-06T10:17:18Z</time>
 <fix>none</fix>
 <sat>0</sat>
</trkpt>
<trkpt lat="60.863503333" lon="15.126111667">
<time>2014-07-06T10:17:19Z</time>
 <fix>none</fix>
 <sat>0</sat>
</trkpt>
<trkpt lat="60.863476667" lon="15.126218333">
<time>2014-07-06T10:17:20Z</time>
 <fix>none</fix>
 <sat>0</sat>
</trkpt>
<trkpt lat="60.863448333" lon="15.126296667">
<time>2014-07-06T10:17:21Z</time>
 <fix>none</fix>
 <sat>0</sat>
</trkpt>
<trkpt lat="60.863418333" lon="15.126378333">
<time>2014-07-06T10:17:22Z</time>
 <fix>none</fix>
 <sat>0</sat>
</trkpt>
<trkpt lat="60.863386667" lon="15.126445000">
<time>2014-07-06T10:17:23Z</time>
 <fix>none</fix>
 <sat>0</sat>
</trkpt>
<trkpt lat="60.863353333" lon="15.126511667">
<time>2014-07-06T10:17:24Z</time>
 <fix>none</fix>
 <sat>0</sat>
</trkpt>
<trkpt lat="60.863320000" lon="15.126578333">
<time>2014-07-06T10:17:25Z</time>
 <fix>none</fix>
 <sat>0</sat>
</trkpt>
<trkpt lat="60.863291667" lon="15.126641667">
<time>2014-07-06T10:17:26Z</time>
 <fix>none</fix>
 <sat>0</sat>
</trkpt>
<trkpt lat="60.863263333" lon="15.126696667">
<time>2014-07-06T10:17:27Z</time>
 <fix>none</fix>
 <sat>0</sat>
</trkpt>
<trkpt lat="60.863236667" lon="15.126748333">
<time>2014-07-06T10:17:28Z</time>
 <fix>none</fix>
 <sat>0</sat>
</trkpt>
<trkpt lat="60.863210000" lon="15.126793333">
<time>2014-07-06T10:17:29Z</time>
 <fix>none</fix>
 <sat>0</sat>
</trkpt>
<trkpt lat="60.863185000" lon="15.126835000">
<time>2014-07-06T10:17:30Z</time>
 <fix>none</fix>
 <sat>0</sat>
</trkpt>
<trkpt lat="60.863156667" lon="15.126880000">
<time>2014-07-06T10:17:31Z</time>
 <fix>none</fix>
 <sat>0</sat>
</trkpt>
<trkpt lat="60.863156667" lon="15.126880000">
<time>2014-07-06T10:17:32Z</time>
 <fix>none</fix>
 <sat>0</sat>
</trkpt>
<trkpt lat="60.863120000" lon="15.126921667">
<time>2014-07-06T10:17:33Z</time>
 <fix>none</fix>
 <sat>0</sat>
</trkpt>
<trkpt lat="60.863066667" lon="15.126971667">
<time>2014-07-06T10:17:34Z</time>
 <fix>none</fix>
 <sat>0</sat>
</trkpt>
<trkpt lat="60.863008333" lon="15.127015000">
<time>2014-07-06T10:17:35Z</time>
 <fix>none</fix>
 <sat>0</sat>
</trkpt>
<trkpt lat="60.862946667" lon="15.127061667">
<time>2014-07-06T10:17:36Z</time>
 <fix>none</fix>
 <sat>0</sat>
</trkpt>
<trkpt lat="60.862946667" lon="15.127061667">
<time>2014-07-06T10:17:37Z</time>
 <fix>none</fix>
 <sat>0</sat>
</trkpt>
<trkpt lat="60.862786667" lon="15.127213333">
<time>2014-07-06T10:17:38Z</time>
 <fix>none</fix>
 <sat>0</sat>
</trkpt>
<trkpt lat="60.862786667" lon="15.127213333">
<time>2014-07-06T10:17:39Z</time>
 <fix>none</fix>
 <sat>0</sat>
</trkpt>
<trkpt lat="60.862786667" lon="15.127213333">
<time>2014-07-06T10:17:40Z</time>
 <fix>none</fix>
 <sat>0</sat>
</trkpt>
<trkpt lat="60.862706667" lon="15.127286667">
<time>2014-07-06T10:17:41Z</time>
 <fix>none</fix>
 <sat>0</sat>
</trkpt>
<trkpt lat="60.862643333" lon="15.127340000">
<time>2014-07-06T10:17:42Z</time>
 <fix>none</fix>
 <sat>0</sat>
</trkpt>
<trkpt lat="60.862643333" lon="15.127340000">
<time>2014-07-06T10:17:43Z</time>
 <fix>none</fix>
 <sat>0</sat>
</trkpt>
<trkpt lat="60.862595000" lon="15.127425000">
<time>2014-07-06T10:17:44Z</time>
 <fix>none</fix>
 <sat>0</sat>
</trkpt>
<trkpt lat="60.862595000" lon="15.127425000">
<time>2014-07-06T10:17:45Z</time>
 <fix>none</fix>
 <sat>0</sat>
</trkpt>
<trkpt lat="60.862526667" lon="15.127498333">
<time>2014-07-06T10:17:46Z</time>
 <fix>none</fix>
 <sat>0</sat>
</trkpt>
<trkpt lat="60.862498333" lon="15.127538333">
<time>2014-07-06T10:17:47Z</time>
 <fix>none</fix>
 <sat>0</sat>
</trkpt>
<trkpt lat="60.862456667" lon="15.127653333">
<time>2014-07-06T10:17:48Z</time>
 <fix>none</fix>
 <sat>0</sat>
</trkpt>
<trkpt lat="60.862420000" lon="15.127740000">
<time>2014-07-06T10:17:49Z</time>
 <fix>none</fix>
 <sat>0</sat>
</trkpt>
<trkpt lat="60.862393333" lon="15.127806667">
<time>2014-07-06T10:17:50Z</time>
 <fix>none</fix>
 <sat>0</sat>
</trkpt>
<trkpt lat="60.862356667" lon="15.127863333">
<time>2014-07-06T10:17:51Z</time>
 <fix>none</fix>
 <sat>0</sat>
</trkpt>
<trkpt lat="60.862331667" lon="15.127915000">
<time>2014-07-06T10:17:52Z</time>
 <fix>none</fix>
 <sat>0</sat>
</trkpt>
<trkpt lat="60.862310000" lon="15.127955000">
<time>2014-07-06T10:17:53Z</time>
 <fix>none</fix>
 <sat>0</sat>
</trkpt>
<trkpt lat="60.862286667" lon="15.127995000">
<time>2014-07-06T10:17:54Z</time>
 <fix>none</fix>
 <sat>0</sat>
</trkpt>
<trkpt lat="60.862286667" lon="15.127995000">
<time>2014-07-06T10:17:55Z</time>
 <fix>none</fix>
 <sat>0</sat>
</trkpt>
<trkpt lat="60.862270000" lon="15.128036667">
<time>2014-07-06T10:17:56Z</time>
 <fix>none</fix>
 <sat>0</sat>
</trkpt>
<trkpt lat="60.862248333" lon="15.128083333">
<time>2014-07-06T10:17:57Z</time>
 <fix>none</fix>
 <sat>0</sat>
</trkpt>
<trkpt lat="60.862220000" lon="15.128136667">
<time>2014-07-06T10:17:58Z</time>
 <fix>none</fix>
 <sat>0</sat>
</trkpt>
<trkpt lat="60.862188333" lon="15.128188333">
<time>2014-07-06T10:17:59Z</time>
 <fix>none</fix>
 <sat>0</sat>
</trkpt>
<trkpt lat="60.862155000" lon="15.128241667">
<time>2014-07-06T10:18:00Z</time>
 <fix>none</fix>
 <sat>0</sat>
</trkpt>
<trkpt lat="60.862095000" lon="15.128356667">
<time>2014-07-06T10:18:01Z</time>
 <fix>none</fix>
 <sat>0</sat>
</trkpt>
<trkpt lat="60.862095000" lon="15.128356667">
<time>2014-07-06T10:18:02Z</time>
 <fix>none</fix>
 <sat>0</sat>
</trkpt>
<trkpt lat="60.862040000" lon="15.128460000">
<time>2014-07-06T10:18:03Z</time>
 <fix>none</fix>
 <sat>0</sat>
</trkpt>
<trkpt lat="60.862011667" lon="15.128501667">
<time>2014-07-06T10:18:04Z</time>
 <fix>none</fix>
 <sat>0</sat>
</trkpt>
<trkpt lat="60.862011667" lon="15.128501667">
<time>2014-07-06T10:18:05Z</time>
 <fix>none</fix>
 <sat>0</sat>
</trkpt>
<trkpt lat="60.862011667" lon="15.128501667">
<time>2014-07-06T10:18:06Z</time>
 <fix>none</fix>
 <sat>0</sat>
</trkpt>
<trkpt lat="60.861935000" lon="15.128606667">
<time>2014-07-06T10:18:07Z</time>
 <fix>none</fix>
 <sat>0</sat>
</trkpt>
<trkpt lat="60.861935000" lon="15.128606667">
<time>2014-07-06T10:18:08Z</time>
 <fix>none</fix>
 <sat>0</sat>
</trkpt>
<trkpt lat="60.861881667" lon="15.128661667">
<time>2014-07-06T10:18:09Z</time>
 <fix>none</fix>
 <sat>0</sat>
</trkpt>
<trkpt lat="60.861881667" lon="15.128661667">
<time>2014-07-06T10:18:10Z</time>
 <fix>none</fix>
 <sat>0</sat>
</trkpt>
<trkpt lat="60.861806667" lon="15.128695000">
<time>2014-07-06T10:18:11Z</time>
 <fix>none</fix>
 <sat>0</sat>
</trkpt>
<trkpt lat="60.861806667" lon="15.128695000">
<time>2014-07-06T10:18:12Z</time>
 <fix>none</fix>
 <sat>0</sat>
</trkpt>
<trkpt lat="60.861705000" lon="15.128756667">
<time>2014-07-06T10:18:13Z</time>
 <fix>none</fix>
 <sat>0</sat>
</trkpt>
<trkpt lat="60.861705000" lon="15.128756667">
<time>2014-07-06T10:18:14Z</time>
 <fix>none</fix>
 <sat>0</sat>
</trkpt>
<trkpt lat="60.861603333" lon="15.128793333">
<time>2014-07-06T10:18:15Z</time>
 <fix>none</fix>
 <sat>0</sat>
</trkpt>
<trkpt lat="60.861603333" lon="15.128793333">
<time>2014-07-06T10:18:16Z</time>
 <fix>none</fix>
 <sat>0</sat>
</trkpt>
<trkpt lat="60.861491667" lon="15.128865000">
<time>2014-07-06T10:18:17Z</time>
 <fix>none</fix>
 <sat>0</sat>
</trkpt>
<trkpt lat="60.861491667" lon="15.128865000">
<time>2014-07-06T10:18:18Z</time>
 <fix>none</fix>
 <sat>0</sat>
</trkpt>
<trkpt lat="60.861371667" lon="15.128946667">
<time>2014-07-06T10:18:19Z</time>
 <fix>none</fix>
 <sat>0</sat>
</trkpt>
<trkpt lat="60.861355000" lon="15.128976667">
<time>2014-07-06T10:18:20Z</time>
 <fix>none</fix>
 <sat>0</sat>
</trkpt>
<trkpt lat="60.861306667" lon="15.129010000">
<time>2014-07-06T10:18:21Z</time>
 <fix>none</fix>
 <sat>0</sat>
</trkpt>
<trkpt lat="60.861255000" lon="15.129003333">
<time>2014-07-06T10:18:22Z</time>
 <fix>none</fix>
 <sat>0</sat>
</trkpt>
<trkpt lat="60.861195000" lon="15.129050000">
<time>2014-07-06T10:18:23Z</time>
 <fix>none</fix>
 <sat>0</sat>
</trkpt>
<trkpt lat="60.861126667" lon="15.129101667">
<time>2014-07-06T10:18:24Z</time>
 <fix>none</fix>
 <sat>0</sat>
</trkpt>
<trkpt lat="60.861061667" lon="15.129136667">
<time>2014-07-06T10:18:25Z</time>
 <fix>none</fix>
 <sat>0</sat>
</trkpt>
<trkpt lat="60.860940000" lon="15.129195000">
<time>2014-07-06T10:18:26Z</time>
 <fix>none</fix>
 <sat>0</sat>
</trkpt>
<trkpt lat="60.860880000" lon="15.129238333">
<time>2014-07-06T10:18:27Z</time>
 <fix>none</fix>
 <sat>0</sat>
</trkpt>
<trkpt lat="60.860818333" lon="15.129270000">
<time>2014-07-06T10:18:28Z</time>
 <fix>none</fix>
 <sat>0</sat>
</trkpt>
<trkpt lat="60.860755000" lon="15.129310000">
<time>2014-07-06T10:18:29Z</time>
 <fix>none</fix>
 <sat>0</sat>
</trkpt>
<trkpt lat="60.860698333" lon="15.129330000">
<time>2014-07-06T10:18:30Z</time>
 <fix>none</fix>
 <sat>0</sat>
</trkpt>
<trkpt lat="60.860698333" lon="15.129330000">
<time>2014-07-06T10:18:31Z</time>
 <fix>none</fix>
 <sat>0</sat>
</trkpt>
<trkpt lat="60.860698333" lon="15.129330000">
<time>2014-07-06T10:18:32Z</time>
 <fix>none</fix>
 <sat>0</sat>
</trkpt>
<trkpt lat="60.860523333" lon="15.129463333">
<time>2014-07-06T10:18:33Z</time>
 <fix>none</fix>
 <sat>0</sat>
</trkpt>
<trkpt lat="60.860523333" lon="15.129463333">
<time>2014-07-06T10:18:34Z</time>
 <fix>none</fix>
 <sat>0</sat>
</trkpt>
<trkpt lat="60.860410000" lon="15.129631667">
<time>2014-07-06T10:18:35Z</time>
 <fix>none</fix>
 <sat>0</sat>
</trkpt>
<trkpt lat="60.860410000" lon="15.129631667">
<time>2014-07-06T10:18:36Z</time>
 <fix>none</fix>
 <sat>0</sat>
</trkpt>
<trkpt lat="60.860296667" lon="15.129791667">
<time>2014-07-06T10:18:37Z</time>
 <fix>none</fix>
 <sat>0</sat>
</trkpt>
<trkpt lat="60.860296667" lon="15.129791667">
<time>2014-07-06T10:18:38Z</time>
 <fix>none</fix>
 <sat>0</sat>
</trkpt>
<trkpt lat="60.860195000" lon="15.129910000">
<time>2014-07-06T10:18:39Z</time>
 <fix>none</fix>
 <sat>0</sat>
</trkpt>
<trkpt lat="60.860195000" lon="15.129910000">
<time>2014-07-06T10:18:40Z</time>
 <fix>none</fix>
 <sat>0</sat>
</trkpt>
<trkpt lat="60.860138333" lon="15.129970000">
<time>2014-07-06T10:18:41Z</time>
 <fix>none</fix>
 <sat>0</sat>
</trkpt>
<trkpt lat="60.860138333" lon="15.129970000">
<time>2014-07-06T10:18:42Z</time>
 <fix>none</fix>
 <sat>0</sat>
</trkpt>
<trkpt lat="60.860076667" lon="15.130043333">
<time>2014-07-06T10:18:43Z</time>
 <fix>none</fix>
 <sat>0</sat>
</trkpt>
<trkpt lat="60.860075000" lon="15.130050000">
<time>2014-07-06T10:18:44Z</time>
 <fix>none</fix>
 <sat>0</sat>
</trkpt>
<trkpt lat="60.860051667" lon="15.130073333">
<time>2014-07-06T10:18:45Z</time>
 <fix>none</fix>
 <sat>0</sat>
</trkpt>
<trkpt lat="60.860046667" lon="15.130110000">
<time>2014-07-06T10:18:46Z</time>
 <fix>none</fix>
 <sat>0</sat>
</trkpt>
<trkpt lat="60.860016667" lon="15.130163333">
<time>2014-07-06T10:18:47Z</time>
 <fix>none</fix>
 <sat>0</sat>
</trkpt>
<trkpt lat="60.859973333" lon="15.130231667">
<time>2014-07-06T10:18:48Z</time>
 <fix>none</fix>
 <sat>0</sat>
</trkpt>
<trkpt lat="60.859863333" lon="15.130375000">
<time>2014-07-06T10:18:49Z</time>
 <fix>none</fix>
 <sat>0</sat>
</trkpt>
<trkpt lat="60.859815000" lon="15.130441667">
<time>2014-07-06T10:18:50Z</time>
 <fix>none</fix>
 <sat>0</sat>
</trkpt>
<trkpt lat="60.859775000" lon="15.130501667">
<time>2014-07-06T10:18:51Z</time>
 <fix>none</fix>
 <sat>0</sat>
</trkpt>
<trkpt lat="60.859748333" lon="15.130576667">
<time>2014-07-06T10:18:52Z</time>
 <fix>none</fix>
 <sat>0</sat>
</trkpt>
<trkpt lat="60.859725000" lon="15.130646667">
<time>2014-07-06T10:18:53Z</time>
 <fix>none</fix>
 <sat>0</sat>
</trkpt>
<trkpt lat="60.859711667" lon="15.130730000">
<time>2014-07-06T10:18:54Z</time>
 <fix>none</fix>
 <sat>0</sat>
</trkpt>
<trkpt lat="60.859698333" lon="15.130858333">
<time>2014-07-06T10:18:55Z</time>
 <fix>none</fix>
 <sat>0</sat>
</trkpt>
<trkpt lat="60.859686667" lon="15.130975000">
<time>2014-07-06T10:18:56Z</time>
 <fix>none</fix>
 <sat>0</sat>
</trkpt>
<trkpt lat="60.859680000" lon="15.131068333">
<time>2014-07-06T10:18:57Z</time>
 <fix>none</fix>
 <sat>0</sat>
</trkpt>
<trkpt lat="60.859681667" lon="15.131166667">
<time>2014-07-06T10:18:58Z</time>
 <fix>none</fix>
 <sat>0</sat>
</trkpt>
<trkpt lat="60.859695000" lon="15.131273333">
<time>2014-07-06T10:18:59Z</time>
 <fix>none</fix>
 <sat>0</sat>
</trkpt>
<trkpt lat="60.859715000" lon="15.131371667">
<time>2014-07-06T10:19:00Z</time>
 <fix>none</fix>
 <sat>0</sat>
</trkpt>
<trkpt lat="60.859735000" lon="15.131468333">
<time>2014-07-06T10:19:01Z</time>
 <fix>none</fix>
 <sat>0</sat>
</trkpt>
<trkpt lat="60.859755000" lon="15.131551667">
<time>2014-07-06T10:19:02Z</time>
 <fix>none</fix>
 <sat>0</sat>
</trkpt>
<trkpt lat="60.859755000" lon="15.131551667">
<time>2014-07-06T10:19:03Z</time>
 <fix>none</fix>
 <sat>0</sat>
</trkpt>
<trkpt lat="60.859775000" lon="15.131631667">
<time>2014-07-06T10:19:04Z</time>
 <fix>none</fix>
 <sat>0</sat>
</trkpt>
<trkpt lat="60.859795000" lon="15.131720000">
<time>2014-07-06T10:19:05Z</time>
 <fix>none</fix>
 <sat>0</sat>
</trkpt>
<trkpt lat="60.859821667" lon="15.131790000">
<time>2014-07-06T10:19:06Z</time>
 <fix>none</fix>
 <sat>0</sat>
</trkpt>
<trkpt lat="60.859846667" lon="15.131861667">
<time>2014-07-06T10:19:07Z</time>
 <fix>none</fix>
 <sat>0</sat>
</trkpt>
<trkpt lat="60.859873333" lon="15.131945000">
<time>2014-07-06T10:19:08Z</time>
 <fix>none</fix>
 <sat>0</sat>
</trkpt>
<trkpt lat="60.859920000" lon="15.132141667">
<time>2014-07-06T10:19:09Z</time>
 <fix>none</fix>
 <sat>0</sat>
</trkpt>
<trkpt lat="60.859958333" lon="15.132241667">
<time>2014-07-06T10:19:10Z</time>
 <fix>none</fix>
 <sat>0</sat>
</trkpt>
<trkpt lat="60.859958333" lon="15.132241667">
<time>2014-07-06T10:19:11Z</time>
 <fix>none</fix>
 <sat>0</sat>
</trkpt>
<trkpt lat="60.859998333" lon="15.132335000">
<time>2014-07-06T10:19:12Z</time>
 <fix>none</fix>
 <sat>0</sat>
</trkpt>
<trkpt lat="60.860041667" lon="15.132601667">
<time>2014-07-06T10:19:13Z</time>
 <fix>none</fix>
 <sat>0</sat>
</trkpt>
<trkpt lat="60.860066667" lon="15.132750000">
<time>2014-07-06T10:19:14Z</time>
 <fix>none</fix>
 <sat>0</sat>
</trkpt>
<trkpt lat="60.860086667" lon="15.132896667">
<time>2014-07-06T10:19:15Z</time>
 <fix>none</fix>
 <sat>0</sat>
</trkpt>
<trkpt lat="60.860110000" lon="15.133016667">
<time>2014-07-06T10:19:16Z</time>
 <fix>none</fix>
 <sat>0</sat>
</trkpt>
<trkpt lat="60.860133333" lon="15.133143333">
<time>2014-07-06T10:19:17Z</time>
 <fix>none</fix>
 <sat>0</sat>
</trkpt>
<trkpt lat="60.860151667" lon="15.133286667">
<time>2014-07-06T10:19:18Z</time>
 <fix>none</fix>
 <sat>0</sat>
</trkpt>
<trkpt lat="60.860175000" lon="15.133445000">
<time>2014-07-06T10:19:19Z</time>
 <fix>none</fix>
 <sat>0</sat>
</trkpt>
<trkpt lat="60.860200000" lon="15.133598333">
<time>2014-07-06T10:19:20Z</time>
 <fix>none</fix>
 <sat>0</sat>
</trkpt>
<trkpt lat="60.860223333" lon="15.133761667">
<time>2014-07-06T10:19:21Z</time>
 <fix>none</fix>
 <sat>0</sat>
</trkpt>
<trkpt lat="60.860198333" lon="15.133948333">
<time>2014-07-06T10:19:22Z</time>
 <fix>none</fix>
 <sat>0</sat>
</trkpt>
<trkpt lat="60.860215000" lon="15.134113333">
<time>2014-07-06T10:19:23Z</time>
 <fix>none</fix>
 <sat>0</sat>
</trkpt>
<trkpt lat="60.860230000" lon="15.134218333">
<time>2014-07-06T10:19:24Z</time>
 <fix>none</fix>
 <sat>0</sat>
</trkpt>
<trkpt lat="60.860250000" lon="15.134373333">
<time>2014-07-06T10:19:25Z</time>
 <fix>none</fix>
 <sat>0</sat>
</trkpt>
<trkpt lat="60.860250000" lon="15.134373333">
<time>2014-07-06T10:19:26Z</time>
 <fix>none</fix>
 <sat>0</sat>
</trkpt>
<trkpt lat="60.860290000" lon="15.134535000">
<time>2014-07-06T10:19:27Z</time>
 <fix>none</fix>
 <sat>0</sat>
</trkpt>
<trkpt lat="60.860326667" lon="15.134695000">
<time>2014-07-06T10:19:28Z</time>
 <fix>none</fix>
 <sat>0</sat>
</trkpt>
<trkpt lat="60.860358333" lon="15.134885000">
<time>2014-07-06T10:19:29Z</time>
 <fix>none</fix>
 <sat>0</sat>
</trkpt>
<trkpt lat="60.860391667" lon="15.135061667">
<time>2014-07-06T10:19:30Z</time>
 <fix>none</fix>
 <sat>0</sat>
</trkpt>
<trkpt lat="60.860423333" lon="15.135245000">
<time>2014-07-06T10:19:31Z</time>
 <fix>none</fix>
 <sat>0</sat>
</trkpt>
<trkpt lat="60.860448333" lon="15.135613333">
<time>2014-07-06T10:19:32Z</time>
 <fix>none</fix>
 <sat>0</sat>
</trkpt>
<trkpt lat="60.860448333" lon="15.135613333">
<time>2014-07-06T10:19:33Z</time>
 <fix>none</fix>
 <sat>0</sat>
</trkpt>
<trkpt lat="60.860471667" lon="15.135771667">
<time>2014-07-06T10:19:34Z</time>
 <fix>none</fix>
 <sat>0</sat>
</trkpt>
<trkpt lat="60.860516667" lon="15.136141667">
<time>2014-07-06T10:19:35Z</time>
 <fix>none</fix>
 <sat>0</sat>
</trkpt>
<trkpt lat="60.860538333" lon="15.136331667">
<time>2014-07-06T10:19:36Z</time>
 <fix>none</fix>
 <sat>0</sat>
</trkpt>
<trkpt lat="60.860578333" lon="15.136491667">
<time>2014-07-06T10:19:37Z</time>
 <fix>none</fix>
 <sat>0</sat>
</trkpt>
<trkpt lat="60.860618333" lon="15.136641667">
<time>2014-07-06T10:19:38Z</time>
 <fix>none</fix>
 <sat>0</sat>
</trkpt>
<trkpt lat="60.860661667" lon="15.136790000">
<time>2014-07-06T10:19:39Z</time>
 <fix>none</fix>
 <sat>0</sat>
</trkpt>
<trkpt lat="60.860728333" lon="15.136911667">
<time>2014-07-06T10:19:40Z</time>
 <fix>none</fix>
 <sat>0</sat>
</trkpt>
<trkpt lat="60.860810000" lon="15.137038333">
<time>2014-07-06T10:19:41Z</time>
 <fix>none</fix>
 <sat>0</sat>
</trkpt>
<trkpt lat="60.860888333" lon="15.137181667">
<time>2014-07-06T10:19:42Z</time>
 <fix>none</fix>
 <sat>0</sat>
</trkpt>
<trkpt lat="60.860976667" lon="15.137315000">
<time>2014-07-06T10:19:43Z</time>
 <fix>none</fix>
 <sat>0</sat>
</trkpt>
<trkpt lat="60.861061667" lon="15.137471667">
<time>2014-07-06T10:19:44Z</time>
 <fix>none</fix>
 <sat>0</sat>
</trkpt>
<trkpt lat="60.861131667" lon="15.137641667">
<time>2014-07-06T10:19:45Z</time>
 <fix>none</fix>
 <sat>0</sat>
</trkpt>
<trkpt lat="60.861200000" lon="15.137800000">
<time>2014-07-06T10:19:46Z</time>
 <fix>none</fix>
 <sat>0</sat>
</trkpt>
<trkpt lat="60.861276667" lon="15.137928333">
<time>2014-07-06T10:19:47Z</time>
 <fix>none</fix>
 <sat>0</sat>
</trkpt>
<trkpt lat="60.861330000" lon="15.138088333">
<time>2014-07-06T10:19:48Z</time>
 <fix>none</fix>
 <sat>0</sat>
</trkpt>
<trkpt lat="60.861330000" lon="15.138088333">
<time>2014-07-06T10:19:49Z</time>
 <fix>none</fix>
 <sat>0</sat>
</trkpt>
<trkpt lat="60.861391667" lon="15.138216667">
<time>2014-07-06T10:19:50Z</time>
 <fix>none</fix>
 <sat>0</sat>
</trkpt>
<trkpt lat="60.861456667" lon="15.138353333">
<time>2014-07-06T10:19:51Z</time>
 <fix>none</fix>
 <sat>0</sat>
</trkpt>
<trkpt lat="60.861506667" lon="15.138515000">
<time>2014-07-06T10:19:52Z</time>
 <fix>none</fix>
 <sat>0</sat>
</trkpt>
<trkpt lat="60.861570000" lon="15.138630000">
<time>2014-07-06T10:19:53Z</time>
 <fix>none</fix>
 <sat>0</sat>
</trkpt>
<trkpt lat="60.861631667" lon="15.138715000">
<time>2014-07-06T10:19:54Z</time>
 <fix>none</fix>
 <sat>0</sat>
</trkpt>
<trkpt lat="60.861715000" lon="15.138891667">
<time>2014-07-06T10:19:55Z</time>
 <fix>none</fix>
 <sat>0</sat>
</trkpt>
<trkpt lat="60.861715000" lon="15.138891667">
<time>2014-07-06T10:19:56Z</time>
 <fix>none</fix>
 <sat>0</sat>
</trkpt>
<trkpt lat="60.861873333" lon="15.139143333">
<time>2014-07-06T10:19:57Z</time>
 <fix>none</fix>
 <sat>0</sat>
</trkpt>
<trkpt lat="60.861940000" lon="15.139333333">
<time>2014-07-06T10:19:58Z</time>
 <fix>none</fix>
 <sat>0</sat>
</trkpt>
<trkpt lat="60.862006667" lon="15.139513333">
<time>2014-07-06T10:19:59Z</time>
 <fix>none</fix>
 <sat>0</sat>
</trkpt>
<trkpt lat="60.862048333" lon="15.139695000">
<time>2014-07-06T10:20:00Z</time>
 <fix>none</fix>
 <sat>0</sat>
</trkpt>
<trkpt lat="60.862096667" lon="15.139843333">
<time>2014-07-06T10:20:01Z</time>
 <fix>none</fix>
 <sat>0</sat>
</trkpt>
<trkpt lat="60.862141667" lon="15.140035000">
<time>2014-07-06T10:20:02Z</time>
 <fix>none</fix>
 <sat>0</sat>
</trkpt>
<trkpt lat="60.862195000" lon="15.140183333">
<time>2014-07-06T10:20:03Z</time>
 <fix>none</fix>
 <sat>0</sat>
</trkpt>
<trkpt lat="60.862255000" lon="15.140331667">
<time>2014-07-06T10:20:04Z</time>
 <fix>none</fix>
 <sat>0</sat>
</trkpt>
<trkpt lat="60.862310000" lon="15.140488333">
<time>2014-07-06T10:20:05Z</time>
 <fix>none</fix>
 <sat>0</sat>
</trkpt>
<trkpt lat="60.862360000" lon="15.140640000">
<time>2014-07-06T10:20:06Z</time>
 <fix>none</fix>
 <sat>0</sat>
</trkpt>
<trkpt lat="60.862401667" lon="15.140811667">
<time>2014-07-06T10:20:07Z</time>
 <fix>none</fix>
 <sat>0</sat>
</trkpt>
<trkpt lat="60.862441667" lon="15.140976667">
<time>2014-07-06T10:20:08Z</time>
 <fix>none</fix>
 <sat>0</sat>
</trkpt>
<trkpt lat="60.862483333" lon="15.141135000">
<time>2014-07-06T10:20:09Z</time>
 <fix>none</fix>
 <sat>0</sat>
</trkpt>
<trkpt lat="60.862526667" lon="15.141286667">
<time>2014-07-06T10:20:10Z</time>
 <fix>none</fix>
 <sat>0</sat>
</trkpt>
<trkpt lat="60.862566667" lon="15.141438333">
<time>2014-07-06T10:20:11Z</time>
 <fix>none</fix>
 <sat>0</sat>
</trkpt>
<trkpt lat="60.862566667" lon="15.141438333">
<time>2014-07-06T10:20:12Z</time>
 <fix>none</fix>
 <sat>0</sat>
</trkpt>
<trkpt lat="60.862591667" lon="15.141601667">
<time>2014-07-06T10:20:13Z</time>
 <fix>none</fix>
 <sat>0</sat>
</trkpt>
<trkpt lat="60.862616667" lon="15.141771667">
<time>2014-07-06T10:20:14Z</time>
 <fix>none</fix>
 <sat>0</sat>
</trkpt>
<trkpt lat="60.862641667" lon="15.141936667">
<time>2014-07-06T10:20:15Z</time>
 <fix>none</fix>
 <sat>0</sat>
</trkpt>
<trkpt lat="60.862671667" lon="15.142083333">
<time>2014-07-06T10:20:16Z</time>
 <fix>none</fix>
 <sat>0</sat>
</trkpt>
<trkpt lat="60.862701667" lon="15.142211667">
<time>2014-07-06T10:20:17Z</time>
 <fix>none</fix>
 <sat>0</sat>
</trkpt>
<trkpt lat="60.862745000" lon="15.142478333">
<time>2014-07-06T10:20:18Z</time>
 <fix>none</fix>
 <sat>0</sat>
</trkpt>
<trkpt lat="60.862745000" lon="15.142478333">
<time>2014-07-06T10:20:19Z</time>
 <fix>none</fix>
 <sat>0</sat>
</trkpt>
<trkpt lat="60.862771667" lon="15.142743333">
<time>2014-07-06T10:20:20Z</time>
 <fix>none</fix>
 <sat>0</sat>
</trkpt>
<trkpt lat="60.862770000" lon="15.142876667">
<time>2014-07-06T10:20:21Z</time>
 <fix>none</fix>
 <sat>0</sat>
</trkpt>
<trkpt lat="60.862768333" lon="15.143030000">
<time>2014-07-06T10:20:22Z</time>
 <fix>none</fix>
 <sat>0</sat>
</trkpt>
<trkpt lat="60.862763333" lon="15.143188333">
<time>2014-07-06T10:20:23Z</time>
 <fix>none</fix>
 <sat>0</sat>
</trkpt>
<trkpt lat="60.862760000" lon="15.143361667">
<time>2014-07-06T10:20:24Z</time>
 <fix>none</fix>
 <sat>0</sat>
</trkpt>
<trkpt lat="60.862755000" lon="15.143521667">
<time>2014-07-06T10:20:25Z</time>
 <fix>none</fix>
 <sat>0</sat>
</trkpt>
<trkpt lat="60.862756667" lon="15.143691667">
<time>2014-07-06T10:20:26Z</time>
 <fix>none</fix>
 <sat>0</sat>
</trkpt>
<trkpt lat="60.862770000" lon="15.143846667">
<time>2014-07-06T10:20:27Z</time>
 <fix>none</fix>
 <sat>0</sat>
</trkpt>
<trkpt lat="60.862790000" lon="15.144020000">
<time>2014-07-06T10:20:28Z</time>
 <fix>none</fix>
 <sat>0</sat>
</trkpt>
<trkpt lat="60.862811667" lon="15.144193333">
<time>2014-07-06T10:20:29Z</time>
 <fix>none</fix>
 <sat>0</sat>
</trkpt>
<trkpt lat="60.862831667" lon="15.144365000">
<time>2014-07-06T10:20:30Z</time>
 <fix>none</fix>
 <sat>0</sat>
</trkpt>
<trkpt lat="60.862850000" lon="15.144548333">
<time>2014-07-06T10:20:31Z</time>
 <fix>none</fix>
 <sat>0</sat>
</trkpt>
<trkpt lat="60.862875000" lon="15.144736667">
<time>2014-07-06T10:20:32Z</time>
 <fix>none</fix>
 <sat>0</sat>
</trkpt>
<trkpt lat="60.862920000" lon="15.144911667">
<time>2014-07-06T10:20:33Z</time>
 <fix>none</fix>
 <sat>0</sat>
</trkpt>
<trkpt lat="60.862920000" lon="15.144911667">
<time>2014-07-06T10:20:34Z</time>
 <fix>none</fix>
 <sat>0</sat>
</trkpt>
<trkpt lat="60.862973333" lon="15.145101667">
<time>2014-07-06T10:20:35Z</time>
 <fix>none</fix>
 <sat>0</sat>
</trkpt>
<trkpt lat="60.863021667" lon="15.145303333">
<time>2014-07-06T10:20:36Z</time>
 <fix>none</fix>
 <sat>0</sat>
</trkpt>
<trkpt lat="60.863100000" lon="15.145506667">
<time>2014-07-06T10:20:37Z</time>
 <fix>none</fix>
 <sat>0</sat>
</trkpt>
<trkpt lat="60.863160000" lon="15.145708333">
<time>2014-07-06T10:20:38Z</time>
 <fix>none</fix>
 <sat>0</sat>
</trkpt>
<trkpt lat="60.863253333" lon="15.145890000">
<time>2014-07-06T10:20:39Z</time>
 <fix>none</fix>
 <sat>0</sat>
</trkpt>
<trkpt lat="60.863333333" lon="15.146033333">
<time>2014-07-06T10:20:40Z</time>
 <fix>none</fix>
 <sat>0</sat>
</trkpt>
<trkpt lat="60.863360000" lon="15.146240000">
<time>2014-07-06T10:20:41Z</time>
 <fix>none</fix>
 <sat>0</sat>
</trkpt>
<trkpt lat="60.863440000" lon="15.146743333">
<time>2014-07-06T10:20:42Z</time>
 <fix>none</fix>
 <sat>0</sat>
</trkpt>
<trkpt lat="60.863473333" lon="15.146945000">
<time>2014-07-06T10:20:43Z</time>
 <fix>none</fix>
 <sat>0</sat>
</trkpt>
<trkpt lat="60.863508333" lon="15.147103333">
<time>2014-07-06T10:20:44Z</time>
 <fix>none</fix>
 <sat>0</sat>
</trkpt>
<trkpt lat="60.863536667" lon="15.147316667">
<time>2014-07-06T10:20:45Z</time>
 <fix>none</fix>
 <sat>0</sat>
</trkpt>
<trkpt lat="60.863578333" lon="15.147478333">
<time>2014-07-06T10:20:46Z</time>
 <fix>none</fix>
 <sat>0</sat>
</trkpt>
<trkpt lat="60.863621667" lon="15.147643333">
<time>2014-07-06T10:20:47Z</time>
 <fix>none</fix>
 <sat>0</sat>
</trkpt>
<trkpt lat="60.863671667" lon="15.147798333">
<time>2014-07-06T10:20:48Z</time>
 <fix>none</fix>
 <sat>0</sat>
</trkpt>
<trkpt lat="60.863671667" lon="15.147798333">
<time>2014-07-06T10:20:49Z</time>
 <fix>none</fix>
 <sat>0</sat>
</trkpt>
<trkpt lat="60.863761667" lon="15.148123333">
<time>2014-07-06T10:20:50Z</time>
 <fix>none</fix>
 <sat>0</sat>
</trkpt>
<trkpt lat="60.863813333" lon="15.148285000">
<time>2014-07-06T10:20:51Z</time>
 <fix>none</fix>
 <sat>0</sat>
</trkpt>
<trkpt lat="60.863860000" lon="15.148453333">
<time>2014-07-06T10:20:52Z</time>
 <fix>none</fix>
 <sat>0</sat>
</trkpt>
<trkpt lat="60.863903333" lon="15.148626667">
<time>2014-07-06T10:20:53Z</time>
 <fix>none</fix>
 <sat>0</sat>
</trkpt>
<trkpt lat="60.863946667" lon="15.148776667">
<time>2014-07-06T10:20:54Z</time>
 <fix>none</fix>
 <sat>0</sat>
</trkpt>
<trkpt lat="60.864000000" lon="15.148916667">
<time>2014-07-06T10:20:55Z</time>
 <fix>none</fix>
 <sat>0</sat>
</trkpt>
<trkpt lat="60.864058333" lon="15.149076667">
<time>2014-07-06T10:20:56Z</time>
 <fix>none</fix>
 <sat>0</sat>
</trkpt>
<trkpt lat="60.864058333" lon="15.149076667">
<time>2014-07-06T10:20:57Z</time>
 <fix>none</fix>
 <sat>0</sat>
</trkpt>
<trkpt lat="60.864115000" lon="15.149231667">
<time>2014-07-06T10:20:58Z</time>
 <fix>none</fix>
 <sat>0</sat>
</trkpt>
<trkpt lat="60.864165000" lon="15.149390000">
<time>2014-07-06T10:20:59Z</time>
 <fix>none</fix>
 <sat>0</sat>
</trkpt>
<trkpt lat="60.864210000" lon="15.149555000">
<time>2014-07-06T10:21:00Z</time>
 <fix>none</fix>
 <sat>0</sat>
</trkpt>
<trkpt lat="60.864240000" lon="15.149723333">
<time>2014-07-06T10:21:01Z</time>
 <fix>none</fix>
 <sat>0</sat>
</trkpt>
<trkpt lat="60.864253333" lon="15.149900000">
<time>2014-07-06T10:21:02Z</time>
 <fix>none</fix>
 <sat>0</sat>
</trkpt>
<trkpt lat="60.864255000" lon="15.150081667">
<time>2014-07-06T10:21:03Z</time>
 <fix>none</fix>
 <sat>0</sat>
</trkpt>
<trkpt lat="60.864240000" lon="15.150270000">
<time>2014-07-06T10:21:04Z</time>
 <fix>none</fix>
 <sat>0</sat>
</trkpt>
<trkpt lat="60.864213333" lon="15.150481667">
<time>2014-07-06T10:21:05Z</time>
 <fix>none</fix>
 <sat>0</sat>
</trkpt>
<trkpt lat="60.864218333" lon="15.150871667">
<time>2014-07-06T10:21:06Z</time>
 <fix>none</fix>
 <sat>0</sat>
</trkpt>
<trkpt lat="60.864235000" lon="15.151078333">
<time>2014-07-06T10:21:07Z</time>
 <fix>none</fix>
 <sat>0</sat>
</trkpt>
<trkpt lat="60.864251667" lon="15.151278333">
<time>2014-07-06T10:21:08Z</time>
 <fix>none</fix>
 <sat>0</sat>
</trkpt>
<trkpt lat="60.864276667" lon="15.151463333">
<time>2014-07-06T10:21:09Z</time>
 <fix>none</fix>
 <sat>0</sat>
</trkpt>
<trkpt lat="60.864338333" lon="15.151636667">
<time>2014-07-06T10:21:10Z</time>
 <fix>none</fix>
 <sat>0</sat>
</trkpt>
<trkpt lat="60.864405000" lon="15.151795000">
<time>2014-07-06T10:21:11Z</time>
 <fix>none</fix>
 <sat>0</sat>
</trkpt>
<trkpt lat="60.864461667" lon="15.151958333">
<time>2014-07-06T10:21:12Z</time>
 <fix>none</fix>
 <sat>0</sat>
</trkpt>
<trkpt lat="60.864510000" lon="15.152138333">
<time>2014-07-06T10:21:13Z</time>
 <fix>none</fix>
 <sat>0</sat>
</trkpt>
<trkpt lat="60.864545000" lon="15.152320000">
<time>2014-07-06T10:21:14Z</time>
 <fix>none</fix>
 <sat>0</sat>
</trkpt>
<trkpt lat="60.864553333" lon="15.152510000">
<time>2014-07-06T10:21:15Z</time>
 <fix>none</fix>
 <sat>0</sat>
</trkpt>
<trkpt lat="60.864555000" lon="15.152696667">
<time>2014-07-06T10:21:16Z</time>
 <fix>none</fix>
 <sat>0</sat>
</trkpt>
<trkpt lat="60.864561667" lon="15.152873333">
<time>2014-07-06T10:21:17Z</time>
 <fix>none</fix>
 <sat>0</sat>
</trkpt>
<trkpt lat="60.864561667" lon="15.153058333">
<time>2014-07-06T10:21:18Z</time>
 <fix>none</fix>
 <sat>0</sat>
</trkpt>
<trkpt lat="60.864560000" lon="15.153240000">
<time>2014-07-06T10:21:19Z</time>
 <fix>none</fix>
 <sat>0</sat>
</trkpt>
<trkpt lat="60.864560000" lon="15.153240000">
<time>2014-07-06T10:21:20Z</time>
 <fix>none</fix>
 <sat>0</sat>
</trkpt>
<trkpt lat="60.864558333" lon="15.153416667">
<time>2014-07-06T10:21:21Z</time>
 <fix>none</fix>
 <sat>0</sat>
</trkpt>
<trkpt lat="60.864555000" lon="15.153591667">
<time>2014-07-06T10:21:22Z</time>
 <fix>none</fix>
 <sat>0</sat>
</trkpt>
<trkpt lat="60.864555000" lon="15.153773333">
<time>2014-07-06T10:21:23Z</time>
 <fix>none</fix>
 <sat>0</sat>
</trkpt>
<trkpt lat="60.864563333" lon="15.153961667">
<time>2014-07-06T10:21:24Z</time>
 <fix>none</fix>
 <sat>0</sat>
</trkpt>
<trkpt lat="60.864578333" lon="15.154153333">
<time>2014-07-06T10:21:25Z</time>
 <fix>none</fix>
 <sat>0</sat>
</trkpt>
<trkpt lat="60.864596667" lon="15.154346667">
<time>2014-07-06T10:21:26Z</time>
 <fix>none</fix>
 <sat>0</sat>
</trkpt>
<trkpt lat="60.864601667" lon="15.154538333">
<time>2014-07-06T10:21:27Z</time>
 <fix>none</fix>
 <sat>0</sat>
</trkpt>
<trkpt lat="60.864600000" lon="15.154923333">
<time>2014-07-06T10:21:28Z</time>
 <fix>none</fix>
 <sat>0</sat>
</trkpt>
<trkpt lat="60.864600000" lon="15.154923333">
<time>2014-07-06T10:21:29Z</time>
 <fix>none</fix>
 <sat>0</sat>
</trkpt>
<trkpt lat="60.864608333" lon="15.155326667">
<time>2014-07-06T10:21:30Z</time>
 <fix>none</fix>
 <sat>0</sat>
</trkpt>
<trkpt lat="60.864616667" lon="15.155528333">
<time>2014-07-06T10:21:31Z</time>
 <fix>none</fix>
 <sat>0</sat>
</trkpt>
<trkpt lat="60.864626667" lon="15.155733333">
<time>2014-07-06T10:21:32Z</time>
 <fix>none</fix>
 <sat>0</sat>
</trkpt>
<trkpt lat="60.864628333" lon="15.155933333">
<time>2014-07-06T10:21:33Z</time>
 <fix>none</fix>
 <sat>0</sat>
</trkpt>
<trkpt lat="60.864621667" lon="15.156126667">
<time>2014-07-06T10:21:34Z</time>
 <fix>none</fix>
 <sat>0</sat>
</trkpt>
<trkpt lat="60.864608333" lon="15.156303333">
<time>2014-07-06T10:21:35Z</time>
 <fix>none</fix>
 <sat>0</sat>
</trkpt>
<trkpt lat="60.864586667" lon="15.156470000">
<time>2014-07-06T10:21:36Z</time>
 <fix>none</fix>
 <sat>0</sat>
</trkpt>
<trkpt lat="60.864563333" lon="15.156631667">
<time>2014-07-06T10:21:37Z</time>
 <fix>none</fix>
 <sat>0</sat>
</trkpt>
<trkpt lat="60.864563333" lon="15.156631667">
<time>2014-07-06T10:21:38Z</time>
 <fix>none</fix>
 <sat>0</sat>
</trkpt>
<trkpt lat="60.864563333" lon="15.156631667">
<time>2014-07-06T10:21:39Z</time>
 <fix>none</fix>
 <sat>0</sat>
</trkpt>
<trkpt lat="60.864483333" lon="15.157108333">
<time>2014-07-06T10:21:40Z</time>
 <fix>none</fix>
 <sat>0</sat>
</trkpt>
<trkpt lat="60.864483333" lon="15.157108333">
<time>2014-07-06T10:21:41Z</time>
 <fix>none</fix>
 <sat>0</sat>
</trkpt>
<trkpt lat="60.864410000" lon="15.157403333">
<time>2014-07-06T10:21:42Z</time>
 <fix>none</fix>
 <sat>0</sat>
</trkpt>
<trkpt lat="60.864410000" lon="15.157403333">
<time>2014-07-06T10:21:43Z</time>
 <fix>none</fix>
 <sat>0</sat>
</trkpt>
<trkpt lat="60.864253333" lon="15.157505000">
<time>2014-07-06T10:21:44Z</time>
 <fix>none</fix>
 <sat>0</sat>
</trkpt>
<trkpt lat="60.864253333" lon="15.157505000">
<time>2014-07-06T10:21:45Z</time>
 <fix>none</fix>
 <sat>0</sat>
</trkpt>
<trkpt lat="60.864081667" lon="15.157725000">
<time>2014-07-06T10:21:46Z</time>
 <fix>none</fix>
 <sat>0</sat>
</trkpt>
<trkpt lat="60.864081667" lon="15.157725000">
<time>2014-07-06T10:21:47Z</time>
 <fix>none</fix>
 <sat>0</sat>
</trkpt>
<trkpt lat="60.864056667" lon="15.157816667">
<time>2014-07-06T10:21:48Z</time>
 <fix>none</fix>
 <sat>0</sat>
</trkpt>
<trkpt lat="60.864056667" lon="15.157816667">
<time>2014-07-06T10:21:49Z</time>
 <fix>none</fix>
 <sat>0</sat>
</trkpt>
<trkpt lat="60.864056667" lon="15.157816667">
<time>2014-07-06T10:21:50Z</time>
 <fix>none</fix>
 <sat>0</sat>
</trkpt>
<trkpt lat="60.863986667" lon="15.157925000">
<time>2014-07-06T10:21:51Z</time>
 <fix>none</fix>
 <sat>0</sat>
</trkpt>
<trkpt lat="60.863956667" lon="15.158115000">
<time>2014-07-06T10:21:52Z</time>
 <fix>none</fix>
 <sat>0</sat>
</trkpt>
<trkpt lat="60.863956667" lon="15.158115000">
<time>2014-07-06T10:21:53Z</time>
 <fix>none</fix>
 <sat>0</sat>
</trkpt>
<trkpt lat="60.863891667" lon="15.158318333">
<time>2014-07-06T10:21:54Z</time>
 <fix>none</fix>
 <sat>0</sat>
</trkpt>
<trkpt lat="60.863891667" lon="15.158318333">
<time>2014-07-06T10:21:55Z</time>
 <fix>none</fix>
 <sat>0</sat>
</trkpt>
<trkpt lat="60.863841667" lon="15.158558333">
<time>2014-07-06T10:21:56Z</time>
 <fix>none</fix>
 <sat>0</sat>
</trkpt>
<trkpt lat="60.863841667" lon="15.158558333">
<time>2014-07-06T10:21:57Z</time>
 <fix>none</fix>
 <sat>0</sat>
</trkpt>
<trkpt lat="60.863770000" lon="15.158820000">
<time>2014-07-06T10:21:58Z</time>
 <fix>none</fix>
 <sat>0</sat>
</trkpt>
<trkpt lat="60.863745000" lon="15.158925000">
<time>2014-07-06T10:21:59Z</time>
 <fix>none</fix>
 <sat>0</sat>
</trkpt>
<trkpt lat="60.863705000" lon="15.159083333">
<time>2014-07-06T10:22:00Z</time>
 <fix>none</fix>
 <sat>0</sat>
</trkpt>
<trkpt lat="60.863666667" lon="15.159245000">
<time>2014-07-06T10:22:01Z</time>
 <fix>none</fix>
 <sat>0</sat>
</trkpt>
<trkpt lat="60.863623333" lon="15.159371667">
<time>2014-07-06T10:22:02Z</time>
 <fix>none</fix>
 <sat>0</sat>
</trkpt>
<trkpt lat="60.863583333" lon="15.159503333">
<time>2014-07-06T10:22:03Z</time>
 <fix>none</fix>
 <sat>0</sat>
</trkpt>
<trkpt lat="60.863546667" lon="15.159635000">
<time>2014-07-06T10:22:04Z</time>
 <fix>none</fix>
 <sat>0</sat>
</trkpt>
<trkpt lat="60.863511667" lon="15.159771667">
<time>2014-07-06T10:22:05Z</time>
 <fix>none</fix>
 <sat>0</sat>
</trkpt>
<trkpt lat="60.863511667" lon="15.159771667">
<time>2014-07-06T10:22:06Z</time>
 <fix>none</fix>
 <sat>0</sat>
</trkpt>
<trkpt lat="60.863471667" lon="15.159921667">
<time>2014-07-06T10:22:07Z</time>
 <fix>none</fix>
 <sat>0</sat>
</trkpt>
<trkpt lat="60.863448333" lon="15.160065000">
<time>2014-07-06T10:22:08Z</time>
 <fix>none</fix>
 <sat>0</sat>
</trkpt>
<trkpt lat="60.863461667" lon="15.160173333">
<time>2014-07-06T10:22:09Z</time>
 <fix>none</fix>
 <sat>0</sat>
</trkpt>
<trkpt lat="60.863473333" lon="15.160286667">
<time>2014-07-06T10:22:10Z</time>
 <fix>none</fix>
 <sat>0</sat>
</trkpt>
<trkpt lat="60.863510000" lon="15.160545000">
<time>2014-07-06T10:22:11Z</time>
 <fix>none</fix>
 <sat>0</sat>
</trkpt>
<trkpt lat="60.863538333" lon="15.160668333">
<time>2014-07-06T10:22:12Z</time>
 <fix>none</fix>
 <sat>0</sat>
</trkpt>
<trkpt lat="60.863538333" lon="15.160668333">
<time>2014-07-06T10:22:13Z</time>
 <fix>none</fix>
 <sat>0</sat>
</trkpt>
<trkpt lat="60.863650000" lon="15.160870000">
<time>2014-07-06T10:22:14Z</time>
 <fix>none</fix>
 <sat>0</sat>
</trkpt>
<trkpt lat="60.863666667" lon="15.160998333">
<time>2014-07-06T10:22:15Z</time>
 <fix>none</fix>
 <sat>0</sat>
</trkpt>
<trkpt lat="60.863688333" lon="15.161110000">
<time>2014-07-06T10:22:16Z</time>
 <fix>none</fix>
 <sat>0</sat>
</trkpt>
<trkpt lat="60.863711667" lon="15.161218333">
<time>2014-07-06T10:22:17Z</time>
 <fix>none</fix>
 <sat>0</sat>
</trkpt>
<trkpt lat="60.863730000" lon="15.161345000">
<time>2014-07-06T10:22:18Z</time>
 <fix>none</fix>
 <sat>0</sat>
</trkpt>
<trkpt lat="60.863751667" lon="15.161476667">
<time>2014-07-06T10:22:19Z</time>
 <fix>none</fix>
 <sat>0</sat>
</trkpt>
<trkpt lat="60.863773333" lon="15.161618333">
<time>2014-07-06T10:22:20Z</time>
 <fix>none</fix>
 <sat>0</sat>
</trkpt>
<trkpt lat="60.863808333" lon="15.161740000">
<time>2014-07-06T10:22:21Z</time>
 <fix>none</fix>
 <sat>0</sat>
</trkpt>
<trkpt lat="60.863858333" lon="15.161836667">
<time>2014-07-06T10:22:22Z</time>
 <fix>none</fix>
 <sat>0</sat>
</trkpt>
<trkpt lat="60.863903333" lon="15.161938333">
<time>2014-07-06T10:22:23Z</time>
 <fix>none</fix>
 <sat>0</sat>
</trkpt>
<trkpt lat="60.863945000" lon="15.162060000">
<time>2014-07-06T10:22:24Z</time>
 <fix>none</fix>
 <sat>0</sat>
</trkpt>
<trkpt lat="60.863991667" lon="15.162183333">
<time>2014-07-06T10:22:25Z</time>
 <fix>none</fix>
 <sat>0</sat>
</trkpt>
<trkpt lat="60.864041667" lon="15.162318333">
<time>2014-07-06T10:22:26Z</time>
 <fix>none</fix>
 <sat>0</sat>
</trkpt>
<trkpt lat="60.864103333" lon="15.162420000">
<time>2014-07-06T10:22:27Z</time>
 <fix>none</fix>
 <sat>0</sat>
</trkpt>
<trkpt lat="60.864103333" lon="15.162420000">
<time>2014-07-06T10:22:28Z</time>
 <fix>none</fix>
 <sat>0</sat>
</trkpt>
<trkpt lat="60.864163333" lon="15.162510000">
<time>2014-07-06T10:22:29Z</time>
 <fix>none</fix>
 <sat>0</sat>
</trkpt>
<trkpt lat="60.864215000" lon="15.162585000">
<time>2014-07-06T10:22:30Z</time>
 <fix>none</fix>
 <sat>0</sat>
</trkpt>
<trkpt lat="60.864271667" lon="15.162651667">
<time>2014-07-06T10:22:31Z</time>
 <fix>none</fix>
 <sat>0</sat>
</trkpt>
<trkpt lat="60.864330000" lon="15.162733333">
<time>2014-07-06T10:22:32Z</time>
 <fix>none</fix>
 <sat>0</sat>
</trkpt>
<trkpt lat="60.864385000" lon="15.162815000">
<time>2014-07-06T10:22:33Z</time>
 <fix>none</fix>
 <sat>0</sat>
</trkpt>
<trkpt lat="60.864486667" lon="15.162953333">
<time>2014-07-06T10:22:34Z</time>
 <fix>none</fix>
 <sat>0</sat>
</trkpt>
<trkpt lat="60.864536667" lon="15.163013333">
<time>2014-07-06T10:22:35Z</time>
 <fix>none</fix>
 <sat>0</sat>
</trkpt>
<trkpt lat="60.864536667" lon="15.163013333">
<time>2014-07-06T10:22:36Z</time>
 <fix>none</fix>
 <sat>0</sat>
</trkpt>
<trkpt lat="60.864626667" lon="15.163123333">
<time>2014-07-06T10:22:37Z</time>
 <fix>none</fix>
 <sat>0</sat>
</trkpt>
<trkpt lat="60.864680000" lon="15.163171667">
<time>2014-07-06T10:22:38Z</time>
 <fix>none</fix>
 <sat>0</sat>
</trkpt>
<trkpt lat="60.864733333" lon="15.163216667">
<time>2014-07-06T10:22:39Z</time>
 <fix>none</fix>
 <sat>0</sat>
</trkpt>
<trkpt lat="60.864776667" lon="15.163255000">
<time>2014-07-06T10:22:40Z</time>
 <fix>none</fix>
 <sat>0</sat>
</trkpt>
<trkpt lat="60.864811667" lon="15.163291667">
<time>2014-07-06T10:22:41Z</time>
 <fix>none</fix>
 <sat>0</sat>
</trkpt>
<trkpt lat="60.864841667" lon="15.163328333">
<time>2014-07-06T10:22:42Z</time>
 <fix>none</fix>
 <sat>0</sat>
</trkpt>
<trkpt lat="60.864871667" lon="15.163373333">
<time>2014-07-06T10:22:43Z</time>
 <fix>none</fix>
 <sat>0</sat>
</trkpt>
<trkpt lat="60.864908333" lon="15.163415000">
<time>2014-07-06T10:22:44Z</time>
 <fix>none</fix>
 <sat>0</sat>
</trkpt>
<trkpt lat="60.864935000" lon="15.163471667">
<time>2014-07-06T10:22:45Z</time>
 <fix>none</fix>
 <sat>0</sat>
</trkpt>
<trkpt lat="60.864951667" lon="15.163548333">
<time>2014-07-06T10:22:46Z</time>
 <fix>none</fix>
 <sat>0</sat>
</trkpt>
<trkpt lat="60.864966667" lon="15.163628333">
<time>2014-07-06T10:22:47Z</time>
 <fix>none</fix>
 <sat>0</sat>
</trkpt>
<trkpt lat="60.864983333" lon="15.163708333">
<time>2014-07-06T10:22:48Z</time>
 <fix>none</fix>
 <sat>0</sat>
</trkpt>
<trkpt lat="60.864995000" lon="15.163786667">
<time>2014-07-06T10:22:49Z</time>
 <fix>none</fix>
 <sat>0</sat>
</trkpt>
<trkpt lat="60.865018333" lon="15.163856667">
<time>2014-07-06T10:22:50Z</time>
 <fix>none</fix>
 <sat>0</sat>
</trkpt>
<trkpt lat="60.865018333" lon="15.163856667">
<time>2014-07-06T10:22:51Z</time>
 <fix>none</fix>
 <sat>0</sat>
</trkpt>
<trkpt lat="60.865046667" lon="15.163926667">
<time>2014-07-06T10:22:52Z</time>
 <fix>none</fix>
 <sat>0</sat>
</trkpt>
<trkpt lat="60.865056667" lon="15.164005000">
<time>2014-07-06T10:22:53Z</time>
 <fix>none</fix>
 <sat>0</sat>
</trkpt>
<trkpt lat="60.865075000" lon="15.164070000">
<time>2014-07-06T10:22:54Z</time>
 <fix>none</fix>
 <sat>0</sat>
</trkpt>
<trkpt lat="60.865093333" lon="15.164148333">
<time>2014-07-06T10:22:55Z</time>
 <fix>none</fix>
 <sat>0</sat>
</trkpt>
<trkpt lat="60.865120000" lon="15.164218333">
<time>2014-07-06T10:22:56Z</time>
 <fix>none</fix>
 <sat>0</sat>
</trkpt>
<trkpt lat="60.865158333" lon="15.164285000">
<time>2014-07-06T10:22:57Z</time>
 <fix>none</fix>
 <sat>0</sat>
</trkpt>
<trkpt lat="60.865226667" lon="15.164430000">
<time>2014-07-06T10:22:58Z</time>
 <fix>none</fix>
 <sat>0</sat>
</trkpt>
<trkpt lat="60.865226667" lon="15.164430000">
<time>2014-07-06T10:22:59Z</time>
 <fix>none</fix>
 <sat>0</sat>
</trkpt>
<trkpt lat="60.865291667" lon="15.164533333">
<time>2014-07-06T10:23:00Z</time>
 <fix>none</fix>
 <sat>0</sat>
</trkpt>
<trkpt lat="60.865321667" lon="15.164561667">
<time>2014-07-06T10:23:01Z</time>
 <fix>none</fix>
 <sat>0</sat>
</trkpt>
<trkpt lat="60.865350000" lon="15.164591667">
<time>2014-07-06T10:23:02Z</time>
 <fix>none</fix>
 <sat>0</sat>
</trkpt>
<trkpt lat="60.865381667" lon="15.164625000">
<time>2014-07-06T10:23:03Z</time>
 <fix>none</fix>
 <sat>0</sat>
</trkpt>
<trkpt lat="60.865428333" lon="15.164678333">
<time>2014-07-06T10:23:04Z</time>
 <fix>none</fix>
 <sat>0</sat>
</trkpt>
<trkpt lat="60.865466667" lon="15.164741667">
<time>2014-07-06T10:23:05Z</time>
 <fix>none</fix>
 <sat>0</sat>
</trkpt>
<trkpt lat="60.865496667" lon="15.164803333">
<time>2014-07-06T10:23:06Z</time>
 <fix>none</fix>
 <sat>0</sat>
</trkpt>
<trkpt lat="60.865533333" lon="15.164848333">
<time>2014-07-06T10:23:07Z</time>
 <fix>none</fix>
 <sat>0</sat>
</trkpt>
<trkpt lat="60.865568333" lon="15.164873333">
<time>2014-07-06T10:23:08Z</time>
 <fix>none</fix>
 <sat>0</sat>
</trkpt>
<trkpt lat="60.865615000" lon="15.164888333">
<time>2014-07-06T10:23:09Z</time>
 <fix>none</fix>
 <sat>0</sat>
</trkpt>
<trkpt lat="60.865660000" lon="15.164910000">
<time>2014-07-06T10:23:10Z</time>
 <fix>none</fix>
 <sat>0</sat>
</trkpt>
<trkpt lat="60.865710000" lon="15.164936667">
<time>2014-07-06T10:23:11Z</time>
 <fix>none</fix>
 <sat>0</sat>
</trkpt>
<trkpt lat="60.865763333" lon="15.164955000">
<time>2014-07-06T10:23:12Z</time>
 <fix>none</fix>
 <sat>0</sat>
</trkpt>
<trkpt lat="60.865793333" lon="15.164973333">
<time>2014-07-06T10:23:13Z</time>
 <fix>none</fix>
 <sat>0</sat>
</trkpt>
<trkpt lat="60.865793333" lon="15.164973333">
<time>2014-07-06T10:23:14Z</time>
 <fix>none</fix>
 <sat>0</sat>
</trkpt>
<trkpt lat="60.865813333" lon="15.164981667">
<time>2014-07-06T10:23:15Z</time>
 <fix>none</fix>
 <sat>0</sat>
</trkpt>
<trkpt lat="60.865831667" lon="15.165006667">
<time>2014-07-06T10:23:16Z</time>
 <fix>none</fix>
 <sat>0</sat>
</trkpt>
<trkpt lat="60.865858333" lon="15.165026667">
<time>2014-07-06T10:23:17Z</time>
 <fix>none</fix>
 <sat>0</sat>
</trkpt>
<trkpt lat="60.865888333" lon="15.165061667">
<time>2014-07-06T10:23:18Z</time>
 <fix>none</fix>
 <sat>0</sat>
</trkpt>
<trkpt lat="60.865916667" lon="15.165088333">
<time>2014-07-06T10:23:19Z</time>
 <fix>none</fix>
 <sat>0</sat>
</trkpt>
<trkpt lat="60.865956667" lon="15.165136667">
<time>2014-07-06T10:23:20Z</time>
 <fix>none</fix>
 <sat>0</sat>
</trkpt>
<trkpt lat="60.865968333" lon="15.165143333">
<time>2014-07-06T10:23:21Z</time>
 <fix>none</fix>
 <sat>0</sat>
</trkpt>
<trkpt lat="60.865968333" lon="15.165143333">
<time>2014-07-06T10:23:22Z</time>
 <fix>none</fix>
 <sat>0</sat>
</trkpt>
<trkpt lat="60.866021667" lon="15.165185000">
<time>2014-07-06T10:23:23Z</time>
 <fix>none</fix>
 <sat>0</sat>
</trkpt>
<trkpt lat="60.866048333" lon="15.165208333">
<time>2014-07-06T10:23:24Z</time>
 <fix>none</fix>
 <sat>0</sat>
</trkpt>
<trkpt lat="60.866086667" lon="15.165230000">
<time>2014-07-06T10:23:25Z</time>
 <fix>none</fix>
 <sat>0</sat>
</trkpt>
<trkpt lat="60.866125000" lon="15.165245000">
<time>2014-07-06T10:23:26Z</time>
 <fix>none</fix>
 <sat>0</sat>
</trkpt>
<trkpt lat="60.866158333" lon="15.165271667">
<time>2014-07-06T10:23:27Z</time>
 <fix>none</fix>
 <sat>0</sat>
</trkpt>
<trkpt lat="60.866205000" lon="15.165290000">
<time>2014-07-06T10:23:28Z</time>
 <fix>none</fix>
 <sat>0</sat>
</trkpt>
<trkpt lat="60.866248333" lon="15.165293333">
<time>2014-07-06T10:23:29Z</time>
 <fix>none</fix>
 <sat>0</sat>
</trkpt>
<trkpt lat="60.866286667" lon="15.165310000">
<time>2014-07-06T10:23:30Z</time>
 <fix>none</fix>
 <sat>0</sat>
</trkpt>
<trkpt lat="60.866341667" lon="15.165316667">
<time>2014-07-06T10:23:31Z</time>
 <fix>none</fix>
 <sat>0</sat>
</trkpt>
<trkpt lat="60.866376667" lon="15.165313333">
<time>2014-07-06T10:23:32Z</time>
 <fix>none</fix>
 <sat>0</sat>
</trkpt>
<trkpt lat="60.866413333" lon="15.165308333">
<time>2014-07-06T10:23:33Z</time>
 <fix>none</fix>
 <sat>0</sat>
</trkpt>
<trkpt lat="60.866413333" lon="15.165308333">
<time>2014-07-06T10:23:34Z</time>
 <fix>none</fix>
 <sat>0</sat>
</trkpt>
<trkpt lat="60.866413333" lon="15.165308333">
<time>2014-07-06T10:23:35Z</time>
 <fix>none</fix>
 <sat>0</sat>
</trkpt>
<trkpt lat="60.866526667" lon="15.165276667">
<time>2014-07-06T10:23:36Z</time>
 <fix>none</fix>
 <sat>0</sat>
</trkpt>
<trkpt lat="60.866526667" lon="15.165276667">
<time>2014-07-06T10:23:37Z</time>
 <fix>none</fix>
 <sat>0</sat>
</trkpt>
<trkpt lat="60.866601667" lon="15.165240000">
<time>2014-07-06T10:23:38Z</time>
 <fix>none</fix>
 <sat>0</sat>
</trkpt>
<trkpt lat="60.866601667" lon="15.165240000">
<time>2014-07-06T10:23:39Z</time>
 <fix>none</fix>
 <sat>0</sat>
</trkpt>
<trkpt lat="60.866696667" lon="15.165206667">
<time>2014-07-06T10:23:40Z</time>
 <fix>none</fix>
 <sat>0</sat>
</trkpt>
<trkpt lat="60.866710000" lon="15.165213333">
<time>2014-07-06T10:23:41Z</time>
 <fix>none</fix>
 <sat>0</sat>
</trkpt>
<trkpt lat="60.866750000" lon="15.165208333">
<time>2014-07-06T10:23:42Z</time>
 <fix>none</fix>
 <sat>0</sat>
</trkpt>
<trkpt lat="60.866856667" lon="15.165220000">
<time>2014-07-06T10:23:43Z</time>
 <fix>none</fix>
 <sat>0</sat>
</trkpt>
<trkpt lat="60.866856667" lon="15.165220000">
<time>2014-07-06T10:23:44Z</time>
 <fix>none</fix>
 <sat>0</sat>
</trkpt>
<trkpt lat="60.866946667" lon="15.165211667">
<time>2014-07-06T10:23:45Z</time>
 <fix>none</fix>
 <sat>0</sat>
</trkpt>
<trkpt lat="60.866998333" lon="15.165185000">
<time>2014-07-06T10:23:46Z</time>
 <fix>none</fix>
 <sat>0</sat>
</trkpt>
<trkpt lat="60.867041667" lon="15.165158333">
<time>2014-07-06T10:23:47Z</time>
 <fix>none</fix>
 <sat>0</sat>
</trkpt>
<trkpt lat="60.867085000" lon="15.165136667">
<time>2014-07-06T10:23:48Z</time>
 <fix>none</fix>
 <sat>0</sat>
</trkpt>
<trkpt lat="60.867136667" lon="15.165115000">
<time>2014-07-06T10:23:49Z</time>
 <fix>none</fix>
 <sat>0</sat>
</trkpt>
<trkpt lat="60.867181667" lon="15.165091667">
<time>2014-07-06T10:23:50Z</time>
 <fix>none</fix>
 <sat>0</sat>
</trkpt>
<trkpt lat="60.867228333" lon="15.165065000">
<time>2014-07-06T10:23:51Z</time>
 <fix>none</fix>
 <sat>0</sat>
</trkpt>
<trkpt lat="60.867275000" lon="15.165051667">
<time>2014-07-06T10:23:52Z</time>
 <fix>none</fix>
 <sat>0</sat>
</trkpt>
<trkpt lat="60.867321667" lon="15.165021667">
<time>2014-07-06T10:23:53Z</time>
 <fix>none</fix>
 <sat>0</sat>
</trkpt>
<trkpt lat="60.867321667" lon="15.165021667">
<time>2014-07-06T10:23:54Z</time>
 <fix>none</fix>
 <sat>0</sat>
</trkpt>
<trkpt lat="60.867321667" lon="15.165021667">
<time>2014-07-06T10:23:55Z</time>
 <fix>none</fix>
 <sat>0</sat>
</trkpt>
<trkpt lat="60.867476667" lon="15.164976667">
<time>2014-07-06T10:23:56Z</time>
 <fix>none</fix>
 <sat>0</sat>
</trkpt>
<trkpt lat="60.867476667" lon="15.164976667">
<time>2014-07-06T10:23:57Z</time>
 <fix>none</fix>
 <sat>0</sat>
</trkpt>
<trkpt lat="60.867596667" lon="15.164971667">
<time>2014-07-06T10:23:58Z</time>
 <fix>none</fix>
 <sat>0</sat>
</trkpt>
<trkpt lat="60.867665000" lon="15.164970000">
<time>2014-07-06T10:23:59Z</time>
 <fix>none</fix>
 <sat>0</sat>
</trkpt>
<trkpt lat="60.867665000" lon="15.164970000">
<time>2014-07-06T10:24:00Z</time>
 <fix>none</fix>
 <sat>0</sat>
</trkpt>
<trkpt lat="60.867715000" lon="15.164981667">
<time>2014-07-06T10:24:01Z</time>
 <fix>none</fix>
 <sat>0</sat>
</trkpt>
<trkpt lat="60.867795000" lon="15.165008333">
<time>2014-07-06T10:24:02Z</time>
 <fix>none</fix>
 <sat>0</sat>
</trkpt>
<trkpt lat="60.867860000" lon="15.165028333">
<time>2014-07-06T10:24:03Z</time>
 <fix>none</fix>
 <sat>0</sat>
</trkpt>
<trkpt lat="60.867921667" lon="15.165060000">
<time>2014-07-06T10:24:04Z</time>
 <fix>none</fix>
 <sat>0</sat>
</trkpt>
<trkpt lat="60.867980000" lon="15.165083333">
<time>2014-07-06T10:24:05Z</time>
 <fix>none</fix>
 <sat>0</sat>
</trkpt>
<trkpt lat="60.868045000" lon="15.165120000">
<time>2014-07-06T10:24:06Z</time>
 <fix>none</fix>
 <sat>0</sat>
</trkpt>
<trkpt lat="60.868106667" lon="15.165176667">
<time>2014-07-06T10:24:07Z</time>
 <fix>none</fix>
 <sat>0</sat>
</trkpt>
<trkpt lat="60.868210000" lon="15.165315000">
<time>2014-07-06T10:24:08Z</time>
 <fix>none</fix>
 <sat>0</sat>
</trkpt>
<trkpt lat="60.868241667" lon="15.165395000">
<time>2014-07-06T10:24:09Z</time>
 <fix>none</fix>
 <sat>0</sat>
</trkpt>
<trkpt lat="60.868260000" lon="15.165471667">
<time>2014-07-06T10:24:10Z</time>
 <fix>none</fix>
 <sat>0</sat>
</trkpt>
<trkpt lat="60.868273333" lon="15.165538333">
<time>2014-07-06T10:24:11Z</time>
 <fix>none</fix>
 <sat>0</sat>
</trkpt>
<trkpt lat="60.868290000" lon="15.165588333">
<time>2014-07-06T10:24:12Z</time>
 <fix>none</fix>
 <sat>0</sat>
</trkpt>
<trkpt lat="60.868290000" lon="15.165588333">
<time>2014-07-06T10:24:13Z</time>
 <fix>none</fix>
 <sat>0</sat>
</trkpt>
<trkpt lat="60.868290000" lon="15.165588333">
<time>2014-07-06T10:24:14Z</time>
 <fix>none</fix>
 <sat>0</sat>
</trkpt>
<trkpt lat="60.868320000" lon="15.165770000">
<time>2014-07-06T10:24:15Z</time>
 <fix>none</fix>
 <sat>0</sat>
</trkpt>
<trkpt lat="60.868320000" lon="15.165770000">
<time>2014-07-06T10:24:16Z</time>
 <fix>none</fix>
 <sat>0</sat>
</trkpt>
<trkpt lat="60.868346667" lon="15.165886667">
<time>2014-07-06T10:24:17Z</time>
 <fix>none</fix>
 <sat>0</sat>
</trkpt>
<trkpt lat="60.868346667" lon="15.165886667">
<time>2014-07-06T10:24:18Z</time>
 <fix>none</fix>
 <sat>0</sat>
</trkpt>
<trkpt lat="60.868383333" lon="15.166013333">
<time>2014-07-06T10:24:19Z</time>
 <fix>none</fix>
 <sat>0</sat>
</trkpt>
<trkpt lat="60.868395000" lon="15.166063333">
<time>2014-07-06T10:24:20Z</time>
 <fix>none</fix>
 <sat>0</sat>
</trkpt>
<trkpt lat="60.868411667" lon="15.166131667">
<time>2014-07-06T10:24:21Z</time>
 <fix>none</fix>
 <sat>0</sat>
</trkpt>
<trkpt lat="60.868411667" lon="15.166131667">
<time>2014-07-06T10:24:22Z</time>
 <fix>none</fix>
 <sat>0</sat>
</trkpt>
<trkpt lat="60.868428333" lon="15.166203333">
<time>2014-07-06T10:24:23Z</time>
 <fix>none</fix>
 <sat>0</sat>
</trkpt>
<trkpt lat="60.868435000" lon="15.166263333">
<time>2014-07-06T10:24:24Z</time>
 <fix>none</fix>
 <sat>0</sat>
</trkpt>
<trkpt lat="60.868450000" lon="15.166305000">
<time>2014-07-06T10:24:25Z</time>
 <fix>none</fix>
 <sat>0</sat>
</trkpt>
<trkpt lat="60.868461667" lon="15.166345000">
<time>2014-07-06T10:24:26Z</time>
 <fix>none</fix>
 <sat>0</sat>
</trkpt>
<trkpt lat="60.868466667" lon="15.166388333">
<time>2014-07-06T10:24:27Z</time>
 <fix>none</fix>
 <sat>0</sat>
</trkpt>
<trkpt lat="60.868473333" lon="15.166478333">
<time>2014-07-06T10:24:28Z</time>
 <fix>none</fix>
 <sat>0</sat>
</trkpt>
<trkpt lat="60.868476667" lon="15.166526667">
<time>2014-07-06T10:24:29Z</time>
 <fix>none</fix>
 <sat>0</sat>
</trkpt>
<trkpt lat="60.868476667" lon="15.166526667">
<time>2014-07-06T10:24:30Z</time>
 <fix>none</fix>
 <sat>0</sat>
</trkpt>
<trkpt lat="60.868503333" lon="15.166633333">
<time>2014-07-06T10:24:31Z</time>
 <fix>none</fix>
 <sat>0</sat>
</trkpt>
<trkpt lat="60.868528333" lon="15.166683333">
<time>2014-07-06T10:24:32Z</time>
 <fix>none</fix>
 <sat>0</sat>
</trkpt>
<trkpt lat="60.868548333" lon="15.166736667">
<time>2014-07-06T10:24:33Z</time>
 <fix>none</fix>
 <sat>0</sat>
</trkpt>
<trkpt lat="60.868568333" lon="15.166786667">
<time>2014-07-06T10:24:34Z</time>
 <fix>none</fix>
 <sat>0</sat>
</trkpt>
<trkpt lat="60.868595000" lon="15.166825000">
<time>2014-07-06T10:24:35Z</time>
 <fix>none</fix>
 <sat>0</sat>
</trkpt>
<trkpt lat="60.868608333" lon="15.166851667">
<time>2014-07-06T10:24:36Z</time>
 <fix>none</fix>
 <sat>0</sat>
</trkpt>
<trkpt lat="60.868635000" lon="15.166871667">
<time>2014-07-06T10:24:37Z</time>
 <fix>none</fix>
 <sat>0</sat>
</trkpt>
<trkpt lat="60.868670000" lon="15.166885000">
<time>2014-07-06T10:24:38Z</time>
 <fix>none</fix>
 <sat>0</sat>
</trkpt>
<trkpt lat="60.868713333" lon="15.166883333">
<time>2014-07-06T10:24:39Z</time>
 <fix>none</fix>
 <sat>0</sat>
</trkpt>
<trkpt lat="60.868760000" lon="15.166891667">
<time>2014-07-06T10:24:40Z</time>
 <fix>none</fix>
 <sat>0</sat>
</trkpt>
<trkpt lat="60.868811667" lon="15.166913333">
<time>2014-07-06T10:24:41Z</time>
 <fix>none</fix>
 <sat>0</sat>
</trkpt>
<trkpt lat="60.868870000" lon="15.166906667">
<time>2014-07-06T10:24:42Z</time>
 <fix>none</fix>
 <sat>0</sat>
</trkpt>
<trkpt lat="60.868925000" lon="15.166901667">
<time>2014-07-06T10:24:43Z</time>
 <fix>none</fix>
 <sat>0</sat>
</trkpt>
<trkpt lat="60.868988333" lon="15.166900000">
<time>2014-07-06T10:24:44Z</time>
 <fix>none</fix>
 <sat>0</sat>
</trkpt>
<trkpt lat="60.868988333" lon="15.166900000">
<time>2014-07-06T10:24:45Z</time>
 <fix>none</fix>
 <sat>0</sat>
</trkpt>
<trkpt lat="60.869038333" lon="15.166891667">
<time>2014-07-06T10:24:46Z</time>
 <fix>none</fix>
 <sat>0</sat>
</trkpt>
<trkpt lat="60.869088333" lon="15.166880000">
<time>2014-07-06T10:24:47Z</time>
 <fix>none</fix>
 <sat>0</sat>
</trkpt>
<trkpt lat="60.869133333" lon="15.166851667">
<time>2014-07-06T10:24:48Z</time>
 <fix>none</fix>
 <sat>0</sat>
</trkpt>
<trkpt lat="60.869176667" lon="15.166823333">
<time>2014-07-06T10:24:49Z</time>
 <fix>none</fix>
 <sat>0</sat>
</trkpt>
<trkpt lat="60.869223333" lon="15.166806667">
<time>2014-07-06T10:24:50Z</time>
 <fix>none</fix>
 <sat>0</sat>
</trkpt>
<trkpt lat="60.869273333" lon="15.166815000">
<time>2014-07-06T10:24:51Z</time>
 <fix>none</fix>
 <sat>0</sat>
</trkpt>
<trkpt lat="60.869315000" lon="15.166801667">
<time>2014-07-06T10:24:52Z</time>
 <fix>none</fix>
 <sat>0</sat>
</trkpt>
<trkpt lat="60.869401667" lon="15.166770000">
<time>2014-07-06T10:24:53Z</time>
 <fix>none</fix>
 <sat>0</sat>
</trkpt>
<trkpt lat="60.869458333" lon="15.166780000">
<time>2014-07-06T10:24:54Z</time>
 <fix>none</fix>
 <sat>0</sat>
</trkpt>
<trkpt lat="60.869515000" lon="15.166796667">
<time>2014-07-06T10:24:55Z</time>
 <fix>none</fix>
 <sat>0</sat>
</trkpt>
<trkpt lat="60.869556667" lon="15.166800000">
<time>2014-07-06T10:24:56Z</time>
 <fix>none</fix>
 <sat>0</sat>
</trkpt>
<trkpt lat="60.869586667" lon="15.166801667">
<time>2014-07-06T10:24:57Z</time>
 <fix>none</fix>
 <sat>0</sat>
</trkpt>
<trkpt lat="60.869631667" lon="15.166806667">
<time>2014-07-06T10:24:58Z</time>
 <fix>none</fix>
 <sat>0</sat>
</trkpt>
<trkpt lat="60.869665000" lon="15.166816667">
<time>2014-07-06T10:24:59Z</time>
 <fix>none</fix>
 <sat>0</sat>
</trkpt>
<trkpt lat="60.869695000" lon="15.166836667">
<time>2014-07-06T10:25:00Z</time>
 <fix>none</fix>
 <sat>0</sat>
</trkpt>
<trkpt lat="60.869720000" lon="15.166865000">
<time>2014-07-06T10:25:01Z</time>
 <fix>none</fix>
 <sat>0</sat>
</trkpt>
<trkpt lat="60.869748333" lon="15.166875000">
<time>2014-07-06T10:25:02Z</time>
 <fix>none</fix>
 <sat>0</sat>
</trkpt>
<trkpt lat="60.869778333" lon="15.166876667">
<time>2014-07-06T10:25:03Z</time>
 <fix>none</fix>
 <sat>0</sat>
</trkpt>
<trkpt lat="60.869815000" lon="15.166875000">
<time>2014-07-06T10:25:04Z</time>
 <fix>none</fix>
 <sat>0</sat>
</trkpt>
<trkpt lat="60.869858333" lon="15.166878333">
<time>2014-07-06T10:25:05Z</time>
 <fix>none</fix>
 <sat>0</sat>
</trkpt>
<trkpt lat="60.869903333" lon="15.166883333">
<time>2014-07-06T10:25:06Z</time>
 <fix>none</fix>
 <sat>0</sat>
</trkpt>
<trkpt lat="60.869933333" lon="15.166896667">
<time>2014-07-06T10:25:07Z</time>
 <fix>none</fix>
 <sat>0</sat>
</trkpt>
<trkpt lat="60.869933333" lon="15.166896667">
<time>2014-07-06T10:25:08Z</time>
 <fix>none</fix>
 <sat>0</sat>
</trkpt>
<trkpt lat="60.869958333" lon="15.166920000">
<time>2014-07-06T10:25:09Z</time>
 <fix>none</fix>
 <sat>0</sat>
</trkpt>
<trkpt lat="60.869998333" lon="15.166940000">
<time>2014-07-06T10:25:10Z</time>
 <fix>none</fix>
 <sat>0</sat>
</trkpt>
<trkpt lat="60.870026667" lon="15.166975000">
<time>2014-07-06T10:25:11Z</time>
 <fix>none</fix>
 <sat>0</sat>
</trkpt>
<trkpt lat="60.870065000" lon="15.167011667">
<time>2014-07-06T10:25:12Z</time>
 <fix>none</fix>
 <sat>0</sat>
</trkpt>
<trkpt lat="60.870105000" lon="15.167046667">
<time>2014-07-06T10:25:13Z</time>
 <fix>none</fix>
 <sat>0</sat>
</trkpt>
<trkpt lat="60.870201667" lon="15.167143333">
<time>2014-07-06T10:25:14Z</time>
 <fix>none</fix>
 <sat>0</sat>
</trkpt>
<trkpt lat="60.870243333" lon="15.167191667">
<time>2014-07-06T10:25:15Z</time>
 <fix>none</fix>
 <sat>0</sat>
</trkpt>
<trkpt lat="60.870243333" lon="15.167191667">
<time>2014-07-06T10:25:16Z</time>
 <fix>none</fix>
 <sat>0</sat>
</trkpt>
<trkpt lat="60.870315000" lon="15.167285000">
<time>2014-07-06T10:25:17Z</time>
 <fix>none</fix>
 <sat>0</sat>
</trkpt>
<trkpt lat="60.870345000" lon="15.167321667">
<time>2014-07-06T10:25:18Z</time>
 <fix>none</fix>
 <sat>0</sat>
</trkpt>
<trkpt lat="60.870373333" lon="15.167356667">
<time>2014-07-06T10:25:19Z</time>
 <fix>none</fix>
 <sat>0</sat>
</trkpt>
<trkpt lat="60.870400000" lon="15.167405000">
<time>2014-07-06T10:25:20Z</time>
 <fix>none</fix>
 <sat>0</sat>
</trkpt>
<trkpt lat="60.870433333" lon="15.167450000">
<time>2014-07-06T10:25:21Z</time>
 <fix>none</fix>
 <sat>0</sat>
</trkpt>
<trkpt lat="60.870456667" lon="15.167493333">
<time>2014-07-06T10:25:22Z</time>
 <fix>none</fix>
 <sat>0</sat>
</trkpt>
<trkpt lat="60.870475000" lon="15.167523333">
<time>2014-07-06T10:25:23Z</time>
 <fix>none</fix>
 <sat>0</sat>
</trkpt>
<trkpt lat="60.870490000" lon="15.167553333">
<time>2014-07-06T10:25:24Z</time>
 <fix>none</fix>
 <sat>0</sat>
</trkpt>
<trkpt lat="60.870506667" lon="15.167568333">
<time>2014-07-06T10:25:25Z</time>
 <fix>none</fix>
 <sat>0</sat>
</trkpt>
<trkpt lat="60.870508333" lon="15.167583333">
<time>2014-07-06T10:25:26Z</time>
 <fix>none</fix>
 <sat>0</sat>
</trkpt>
<trkpt lat="60.870508333" lon="15.167603333">
<time>2014-07-06T10:25:27Z</time>
 <fix>none</fix>
 <sat>0</sat>
</trkpt>
<trkpt lat="60.870521667" lon="15.167628333">
<time>2014-07-06T10:25:28Z</time>
 <fix>none</fix>
 <sat>0</sat>
</trkpt>
<trkpt lat="60.870536667" lon="15.167641667">
<time>2014-07-06T10:25:29Z</time>
 <fix>none</fix>
 <sat>0</sat>
</trkpt>
<trkpt lat="60.870555000" lon="15.167658333">
<time>2014-07-06T10:25:30Z</time>
 <fix>none</fix>
 <sat>0</sat>
</trkpt>
<trkpt lat="60.870555000" lon="15.167658333">
<time>2014-07-06T10:25:31Z</time>
 <fix>none</fix>
 <sat>0</sat>
</trkpt>
<trkpt lat="60.870575000" lon="15.167678333">
<time>2014-07-06T10:25:32Z</time>
 <fix>none</fix>
 <sat>0</sat>
</trkpt>
<trkpt lat="60.870590000" lon="15.167696667">
<time>2014-07-06T10:25:33Z</time>
 <fix>none</fix>
 <sat>0</sat>
</trkpt>
<trkpt lat="60.870613333" lon="15.167705000">
<time>2014-07-06T10:25:34Z</time>
 <fix>none</fix>
 <sat>0</sat>
</trkpt>
<trkpt lat="60.870633333" lon="15.167733333">
<time>2014-07-06T10:25:35Z</time>
 <fix>none</fix>
 <sat>0</sat>
</trkpt>
<trkpt lat="60.870653333" lon="15.167773333">
<time>2014-07-06T10:25:36Z</time>
 <fix>none</fix>
 <sat>0</sat>
</trkpt>
<trkpt lat="60.870701667" lon="15.167846667">
<time>2014-07-06T10:25:37Z</time>
 <fix>none</fix>
 <sat>0</sat>
</trkpt>
<trkpt lat="60.870701667" lon="15.167846667">
<time>2014-07-06T10:25:38Z</time>
 <fix>none</fix>
 <sat>0</sat>
</trkpt>
<trkpt lat="60.870761667" lon="15.167918333">
<time>2014-07-06T10:25:39Z</time>
 <fix>none</fix>
 <sat>0</sat>
</trkpt>
<trkpt lat="60.870791667" lon="15.167966667">
<time>2014-07-06T10:25:40Z</time>
 <fix>none</fix>
 <sat>0</sat>
</trkpt>
<trkpt lat="60.870791667" lon="15.167966667">
<time>2014-07-06T10:25:41Z</time>
 <fix>none</fix>
 <sat>0</sat>
</trkpt>
<trkpt lat="60.870876667" lon="15.168011667">
<time>2014-07-06T10:25:42Z</time>
 <fix>none</fix>
 <sat>0</sat>
</trkpt>
<trkpt lat="60.870921667" lon="15.168028333">
<time>2014-07-06T10:25:43Z</time>
 <fix>none</fix>
 <sat>0</sat>
</trkpt>
<trkpt lat="60.870963333" lon="15.168048333">
<time>2014-07-06T10:25:44Z</time>
 <fix>none</fix>
 <sat>0</sat>
</trkpt>
<trkpt lat="60.871011667" lon="15.168055000">
<time>2014-07-06T10:25:45Z</time>
 <fix>none</fix>
 <sat>0</sat>
</trkpt>
<trkpt lat="60.871063333" lon="15.168060000">
<time>2014-07-06T10:25:46Z</time>
 <fix>none</fix>
 <sat>0</sat>
</trkpt>
<trkpt lat="60.871118333" lon="15.168041667">
<time>2014-07-06T10:25:47Z</time>
 <fix>none</fix>
 <sat>0</sat>
</trkpt>
<trkpt lat="60.871170000" lon="15.168048333">
<time>2014-07-06T10:25:48Z</time>
 <fix>none</fix>
 <sat>0</sat>
</trkpt>
<trkpt lat="60.871225000" lon="15.168073333">
<time>2014-07-06T10:25:49Z</time>
 <fix>none</fix>
 <sat>0</sat>
</trkpt>
<trkpt lat="60.871261667" lon="15.168088333">
<time>2014-07-06T10:25:50Z</time>
 <fix>none</fix>
 <sat>0</sat>
</trkpt>
<trkpt lat="60.871296667" lon="15.168096667">
<time>2014-07-06T10:25:51Z</time>
 <fix>none</fix>
 <sat>0</sat>
</trkpt>
<trkpt lat="60.871333333" lon="15.168130000">
<time>2014-07-06T10:25:52Z</time>
 <fix>none</fix>
 <sat>0</sat>
</trkpt>
<trkpt lat="60.871366667" lon="15.168156667">
<time>2014-07-06T10:25:53Z</time>
 <fix>none</fix>
 <sat>0</sat>
</trkpt>
<trkpt lat="60.871366667" lon="15.168156667">
<time>2014-07-06T10:25:54Z</time>
 <fix>none</fix>
 <sat>0</sat>
</trkpt>
<trkpt lat="60.871396667" lon="15.168208333">
<time>2014-07-06T10:25:55Z</time>
 <fix>none</fix>
 <sat>0</sat>
</trkpt>
<trkpt lat="60.871428333" lon="15.168250000">
<time>2014-07-06T10:25:56Z</time>
 <fix>none</fix>
 <sat>0</sat>
</trkpt>
<trkpt lat="60.871451667" lon="15.168283333">
<time>2014-07-06T10:25:57Z</time>
 <fix>none</fix>
 <sat>0</sat>
</trkpt>
<trkpt lat="60.871475000" lon="15.168298333">
<time>2014-07-06T10:25:58Z</time>
 <fix>none</fix>
 <sat>0</sat>
</trkpt>
<trkpt lat="60.871513333" lon="15.168336667">
<time>2014-07-06T10:25:59Z</time>
 <fix>none</fix>
 <sat>0</sat>
</trkpt>
<trkpt lat="60.871533333" lon="15.168370000">
<time>2014-07-06T10:26:00Z</time>
 <fix>none</fix>
 <sat>0</sat>
</trkpt>
<trkpt lat="60.871550000" lon="15.168403333">
<time>2014-07-06T10:26:01Z</time>
 <fix>none</fix>
 <sat>0</sat>
</trkpt>
<trkpt lat="60.871573333" lon="15.168440000">
<time>2014-07-06T10:26:02Z</time>
 <fix>none</fix>
 <sat>0</sat>
</trkpt>
<trkpt lat="60.871588333" lon="15.168491667">
<time>2014-07-06T10:26:03Z</time>
 <fix>none</fix>
 <sat>0</sat>
</trkpt>
<trkpt lat="60.871605000" lon="15.168543333">
<time>2014-07-06T10:26:04Z</time>
 <fix>none</fix>
 <sat>0</sat>
</trkpt>
<trkpt lat="60.871623333" lon="15.168586667">
<time>2014-07-06T10:26:05Z</time>
 <fix>none</fix>
 <sat>0</sat>
</trkpt>
<trkpt lat="60.871636667" lon="15.168623333">
<time>2014-07-06T10:26:06Z</time>
 <fix>none</fix>
 <sat>0</sat>
</trkpt>
<trkpt lat="60.871641667" lon="15.168641667">
<time>2014-07-06T10:26:07Z</time>
 <fix>none</fix>
 <sat>0</sat>
</trkpt>
<trkpt lat="60.871651667" lon="15.168650000">
<time>2014-07-06T10:26:08Z</time>
 <fix>none</fix>
 <sat>0</sat>
</trkpt>
<trkpt lat="60.871665000" lon="15.168661667">
<time>2014-07-06T10:26:09Z</time>
 <fix>none</fix>
 <sat>0</sat>
</trkpt>
<trkpt lat="60.871676667" lon="15.168675000">
<time>2014-07-06T10:26:10Z</time>
 <fix>none</fix>
 <sat>0</sat>
</trkpt>
<trkpt lat="60.871698333" lon="15.168706667">
<time>2014-07-06T10:26:11Z</time>
 <fix>none</fix>
 <sat>0</sat>
</trkpt>
<trkpt lat="60.871711667" lon="15.168763333">
<time>2014-07-06T10:26:12Z</time>
 <fix>none</fix>
 <sat>0</sat>
</trkpt>
<trkpt lat="60.871730000" lon="15.168821667">
<time>2014-07-06T10:26:13Z</time>
 <fix>none</fix>
 <sat>0</sat>
</trkpt>
<trkpt lat="60.871730000" lon="15.168821667">
<time>2014-07-06T10:26:14Z</time>
 <fix>none</fix>
 <sat>0</sat>
</trkpt>
<trkpt lat="60.871730000" lon="15.168821667">
<time>2014-07-06T10:26:15Z</time>
 <fix>none</fix>
 <sat>0</sat>
</trkpt>
<trkpt lat="60.871770000" lon="15.168966667">
<time>2014-07-06T10:26:16Z</time>
 <fix>none</fix>
 <sat>0</sat>
</trkpt>
<trkpt lat="60.871770000" lon="15.168966667">
<time>2014-07-06T10:26:17Z</time>
 <fix>none</fix>
 <sat>0</sat>
</trkpt>
<trkpt lat="60.871785000" lon="15.169100000">
<time>2014-07-06T10:26:18Z</time>
 <fix>none</fix>
 <sat>0</sat>
</trkpt>
<trkpt lat="60.871785000" lon="15.169100000">
<time>2014-07-06T10:26:19Z</time>
 <fix>none</fix>
 <sat>0</sat>
</trkpt>
<trkpt lat="60.871838333" lon="15.169138333">
<time>2014-07-06T10:26:20Z</time>
 <fix>none</fix>
 <sat>0</sat>
</trkpt>
<trkpt lat="60.871838333" lon="15.169138333">
<time>2014-07-06T10:26:21Z</time>
 <fix>none</fix>
 <sat>0</sat>
</trkpt>
<trkpt lat="60.871863333" lon="15.169200000">
<time>2014-07-06T10:26:22Z</time>
 <fix>none</fix>
 <sat>0</sat>
</trkpt>
<trkpt lat="60.871863333" lon="15.169200000">
<time>2014-07-06T10:26:23Z</time>
 <fix>none</fix>
 <sat>0</sat>
</trkpt>
<trkpt lat="60.871863333" lon="15.169200000">
<time>2014-07-06T10:26:24Z</time>
 <fix>none</fix>
 <sat>0</sat>
</trkpt>
<trkpt lat="60.871910000" lon="15.169280000">
<time>2014-07-06T10:26:25Z</time>
 <fix>none</fix>
 <sat>0</sat>
</trkpt>
<trkpt lat="60.871961667" lon="15.169316667">
<time>2014-07-06T10:26:26Z</time>
 <fix>none</fix>
 <sat>0</sat>
</trkpt>
<trkpt lat="60.871961667" lon="15.169316667">
<time>2014-07-06T10:26:27Z</time>
 <fix>none</fix>
 <sat>0</sat>
</trkpt>
<trkpt lat="60.872030000" lon="15.169411667">
<time>2014-07-06T10:26:28Z</time>
 <fix>none</fix>
 <sat>0</sat>
</trkpt>
<trkpt lat="60.872055000" lon="15.169431667">
<time>2014-07-06T10:26:29Z</time>
 <fix>none</fix>
 <sat>0</sat>
</trkpt>
<trkpt lat="60.872081667" lon="15.169455000">
<time>2014-07-06T10:26:30Z</time>
 <fix>none</fix>
 <sat>0</sat>
</trkpt>
<trkpt lat="60.872110000" lon="15.169485000">
<time>2014-07-06T10:26:31Z</time>
 <fix>none</fix>
 <sat>0</sat>
</trkpt>
<trkpt lat="60.872166667" lon="15.169543333">
<time>2014-07-06T10:26:32Z</time>
 <fix>none</fix>
 <sat>0</sat>
</trkpt>
<trkpt lat="60.872218333" lon="15.169615000">
<time>2014-07-06T10:26:33Z</time>
 <fix>none</fix>
 <sat>0</sat>
</trkpt>
<trkpt lat="60.872250000" lon="15.169670000">
<time>2014-07-06T10:26:34Z</time>
 <fix>none</fix>
 <sat>0</sat>
</trkpt>
<trkpt lat="60.872270000" lon="15.169733333">
<time>2014-07-06T10:26:35Z</time>
 <fix>none</fix>
 <sat>0</sat>
</trkpt>
<trkpt lat="60.872290000" lon="15.169793333">
<time>2014-07-06T10:26:36Z</time>
 <fix>none</fix>
 <sat>0</sat>
</trkpt>
<trkpt lat="60.872306667" lon="15.169860000">
<time>2014-07-06T10:26:37Z</time>
 <fix>none</fix>
 <sat>0</sat>
</trkpt>
<trkpt lat="60.872325000" lon="15.169898333">
<time>2014-07-06T10:26:38Z</time>
 <fix>none</fix>
 <sat>0</sat>
</trkpt>
<trkpt lat="60.872325000" lon="15.169898333">
<time>2014-07-06T10:26:39Z</time>
 <fix>none</fix>
 <sat>0</sat>
</trkpt>
<trkpt lat="60.872345000" lon="15.169933333">
<time>2014-07-06T10:26:40Z</time>
 <fix>none</fix>
 <sat>0</sat>
</trkpt>
<trkpt lat="60.872356667" lon="15.169956667">
<time>2014-07-06T10:26:41Z</time>
 <fix>none</fix>
 <sat>0</sat>
</trkpt>
<trkpt lat="60.872360000" lon="15.169980000">
<time>2014-07-06T10:26:42Z</time>
 <fix>none</fix>
 <sat>0</sat>
</trkpt>
<trkpt lat="60.872350000" lon="15.170010000">
<time>2014-07-06T10:26:43Z</time>
 <fix>none</fix>
 <sat>0</sat>
</trkpt>
<trkpt lat="60.872336667" lon="15.170051667">
<time>2014-07-06T10:26:44Z</time>
 <fix>none</fix>
 <sat>0</sat>
</trkpt>
<trkpt lat="60.872330000" lon="15.170086667">
<time>2014-07-06T10:26:45Z</time>
 <fix>none</fix>
 <sat>0</sat>
</trkpt>
<trkpt lat="60.872326667" lon="15.170111667">
<time>2014-07-06T10:26:46Z</time>
 <fix>none</fix>
 <sat>0</sat>
</trkpt>
<trkpt lat="60.872325000" lon="15.170133333">
<time>2014-07-06T10:26:47Z</time>
 <fix>none</fix>
 <sat>0</sat>
</trkpt>
<trkpt lat="60.872313333" lon="15.170171667">
<time>2014-07-06T10:26:48Z</time>
 <fix>none</fix>
 <sat>0</sat>
</trkpt>
<trkpt lat="60.872315000" lon="15.170191667">
<time>2014-07-06T10:26:49Z</time>
 <fix>none</fix>
 <sat>0</sat>
</trkpt>
<trkpt lat="60.872311667" lon="15.170205000">
<time>2014-07-06T10:26:50Z</time>
 <fix>none</fix>
 <sat>0</sat>
</trkpt>
<trkpt lat="60.872303333" lon="15.170221667">
<time>2014-07-06T10:26:51Z</time>
 <fix>none</fix>
 <sat>0</sat>
</trkpt>
<trkpt lat="60.872301667" lon="15.170236667">
<time>2014-07-06T10:26:52Z</time>
 <fix>none</fix>
 <sat>0</sat>
</trkpt>
<trkpt lat="60.872308333" lon="15.170263333">
<time>2014-07-06T10:26:53Z</time>
 <fix>none</fix>
 <sat>0</sat>
</trkpt>
<trkpt lat="60.872308333" lon="15.170263333">
<time>2014-07-06T10:26:54Z</time>
 <fix>none</fix>
 <sat>0</sat>
</trkpt>
<trkpt lat="60.872320000" lon="15.170326667">
<time>2014-07-06T10:26:55Z</time>
 <fix>none</fix>
 <sat>0</sat>
</trkpt>
<trkpt lat="60.872326667" lon="15.170376667">
<time>2014-07-06T10:26:56Z</time>
 <fix>none</fix>
 <sat>0</sat>
</trkpt>
<trkpt lat="60.872338333" lon="15.170423333">
<time>2014-07-06T10:26:57Z</time>
 <fix>none</fix>
 <sat>0</sat>
</trkpt>
<trkpt lat="60.872350000" lon="15.170460000">
<time>2014-07-06T10:26:58Z</time>
 <fix>none</fix>
 <sat>0</sat>
</trkpt>
<trkpt lat="60.872360000" lon="15.170488333">
<time>2014-07-06T10:26:59Z</time>
 <fix>none</fix>
 <sat>0</sat>
</trkpt>
<trkpt lat="60.872365000" lon="15.170520000">
<time>2014-07-06T10:27:00Z</time>
 <fix>none</fix>
 <sat>0</sat>
</trkpt>
<trkpt lat="60.872366667" lon="15.170531667">
<time>2014-07-06T10:27:01Z</time>
 <fix>none</fix>
 <sat>0</sat>
</trkpt>
<trkpt lat="60.872366667" lon="15.170531667">
<time>2014-07-06T10:27:02Z</time>
 <fix>none</fix>
 <sat>0</sat>
</trkpt>
<trkpt lat="60.872375000" lon="15.170548333">
<time>2014-07-06T10:27:03Z</time>
 <fix>none</fix>
 <sat>0</sat>
</trkpt>
<trkpt lat="60.872388333" lon="15.170583333">
<time>2014-07-06T10:27:04Z</time>
 <fix>none</fix>
 <sat>0</sat>
</trkpt>
<trkpt lat="60.872408333" lon="15.170623333">
<time>2014-07-06T10:27:05Z</time>
 <fix>none</fix>
 <sat>0</sat>
</trkpt>
<trkpt lat="60.872418333" lon="15.170666667">
<time>2014-07-06T10:27:06Z</time>
 <fix>none</fix>
 <sat>0</sat>
</trkpt>
<trkpt lat="60.872428333" lon="15.170705000">
<time>2014-07-06T10:27:07Z</time>
 <fix>none</fix>
 <sat>0</sat>
</trkpt>
<trkpt lat="60.872428333" lon="15.170705000">
<time>2014-07-06T10:27:08Z</time>
 <fix>none</fix>
 <sat>0</sat>
</trkpt>
<trkpt lat="60.872415000" lon="15.170770000">
<time>2014-07-06T10:27:09Z</time>
 <fix>none</fix>
 <sat>0</sat>
</trkpt>
<trkpt lat="60.872415000" lon="15.170770000">
<time>2014-07-06T10:27:10Z</time>
 <fix>none</fix>
 <sat>0</sat>
</trkpt>
<trkpt lat="60.872420000" lon="15.170823333">
<time>2014-07-06T10:27:11Z</time>
 <fix>none</fix>
 <sat>0</sat>
</trkpt>
<trkpt lat="60.872420000" lon="15.170823333">
<time>2014-07-06T10:27:12Z</time>
 <fix>none</fix>
 <sat>0</sat>
</trkpt>
<trkpt lat="60.872423333" lon="15.170871667">
<time>2014-07-06T10:27:13Z</time>
 <fix>none</fix>
 <sat>0</sat>
</trkpt>
<trkpt lat="60.872423333" lon="15.170871667">
<time>2014-07-06T10:27:14Z</time>
 <fix>none</fix>
 <sat>0</sat>
</trkpt>
<trkpt lat="60.872440000" lon="15.170931667">
<time>2014-07-06T10:27:15Z</time>
 <fix>none</fix>
 <sat>0</sat>
</trkpt>
<trkpt lat="60.872440000" lon="15.170931667">
<time>2014-07-06T10:27:16Z</time>
 <fix>none</fix>
 <sat>0</sat>
</trkpt>
<trkpt lat="60.872458333" lon="15.170961667">
<time>2014-07-06T10:27:17Z</time>
 <fix>none</fix>
 <sat>0</sat>
</trkpt>
<trkpt lat="60.872458333" lon="15.170961667">
<time>2014-07-06T10:27:18Z</time>
 <fix>none</fix>
 <sat>0</sat>
</trkpt>
<trkpt lat="60.872456667" lon="15.170983333">
<time>2014-07-06T10:27:19Z</time>
 <fix>none</fix>
 <sat>0</sat>
</trkpt>
<trkpt lat="60.872456667" lon="15.170983333">
<time>2014-07-06T10:27:20Z</time>
 <fix>none</fix>
 <sat>0</sat>
</trkpt>
<trkpt lat="60.872465000" lon="15.171033333">
<time>2014-07-06T10:27:21Z</time>
 <fix>none</fix>
 <sat>0</sat>
</trkpt>
<trkpt lat="60.872465000" lon="15.171033333">
<time>2014-07-06T10:27:22Z</time>
 <fix>none</fix>
 <sat>0</sat>
</trkpt>
<trkpt lat="60.872456667" lon="15.171066667">
<time>2014-07-06T10:27:23Z</time>
 <fix>none</fix>
 <sat>0</sat>
</trkpt>
<trkpt lat="60.872456667" lon="15.171066667">
<time>2014-07-06T10:27:24Z</time>
 <fix>none</fix>
 <sat>0</sat>
</trkpt>
<trkpt lat="60.872493333" lon="15.171108333">
<time>2014-07-06T10:27:25Z</time>
 <fix>none</fix>
 <sat>0</sat>
</trkpt>
<trkpt lat="60.872493333" lon="15.171108333">
<time>2014-07-06T10:27:26Z</time>
 <fix>none</fix>
 <sat>0</sat>
</trkpt>
<trkpt lat="60.872506667" lon="15.171163333">
<time>2014-07-06T10:27:27Z</time>
 <fix>none</fix>
 <sat>0</sat>
</trkpt>
<trkpt lat="60.872506667" lon="15.171163333">
<time>2014-07-06T10:27:28Z</time>
 <fix>none</fix>
 <sat>0</sat>
</trkpt>
<trkpt lat="60.872496667" lon="15.171206667">
<time>2014-07-06T10:27:29Z</time>
 <fix>none</fix>
 <sat>0</sat>
</trkpt>
<trkpt lat="60.872496667" lon="15.171206667">
<time>2014-07-06T10:27:30Z</time>
 <fix>none</fix>
 <sat>0</sat>
</trkpt>
<trkpt lat="60.872483333" lon="15.171246667">
<time>2014-07-06T10:27:31Z</time>
 <fix>none</fix>
 <sat>0</sat>
</trkpt>
<trkpt lat="60.872483333" lon="15.171246667">
<time>2014-07-06T10:27:32Z</time>
 <fix>none</fix>
 <sat>0</sat>
</trkpt>
<trkpt lat="60.872483333" lon="15.171246667">
<time>2014-07-06T10:27:33Z</time>
 <fix>none</fix>
 <sat>0</sat>
</trkpt>
<trkpt lat="60.872501667" lon="15.171305000">
<time>2014-07-06T10:27:34Z</time>
 <fix>none</fix>
 <sat>0</sat>
</trkpt>
<trkpt lat="60.872515000" lon="15.171355000">
<time>2014-07-06T10:27:35Z</time>
 <fix>none</fix>
 <sat>0</sat>
</trkpt>
<trkpt lat="60.872510000" lon="15.171388333">
<time>2014-07-06T10:27:36Z</time>
 <fix>none</fix>
 <sat>0</sat>
</trkpt>
<trkpt lat="60.872511667" lon="15.171441667">
<time>2014-07-06T10:27:37Z</time>
 <fix>none</fix>
 <sat>0</sat>
</trkpt>
<trkpt lat="60.872503333" lon="15.171470000">
<time>2014-07-06T10:27:38Z</time>
 <fix>none</fix>
 <sat>0</sat>
</trkpt>
<trkpt lat="60.872495000" lon="15.171486667">
<time>2014-07-06T10:27:39Z</time>
 <fix>none</fix>
 <sat>0</sat>
</trkpt>
<trkpt lat="60.872493333" lon="15.171511667">
<time>2014-07-06T10:27:40Z</time>
 <fix>none</fix>
 <sat>0</sat>
</trkpt>
<trkpt lat="60.872490000" lon="15.171548333">
<time>2014-07-06T10:27:41Z</time>
 <fix>none</fix>
 <sat>0</sat>
</trkpt>
<trkpt lat="60.872493333" lon="15.171580000">
<time>2014-07-06T10:27:42Z</time>
 <fix>none</fix>
 <sat>0</sat>
</trkpt>
<trkpt lat="60.872485000" lon="15.171603333">
<time>2014-07-06T10:27:43Z</time>
 <fix>none</fix>
 <sat>0</sat>
</trkpt>
<trkpt lat="60.872496667" lon="15.171631667">
<time>2014-07-06T10:27:44Z</time>
 <fix>none</fix>
 <sat>0</sat>
</trkpt>
<trkpt lat="60.872506667" lon="15.171656667">
<time>2014-07-06T10:27:45Z</time>
 <fix>none</fix>
 <sat>0</sat>
</trkpt>
<trkpt lat="60.872513333" lon="15.171688333">
<time>2014-07-06T10:27:46Z</time>
 <fix>none</fix>
 <sat>0</sat>
</trkpt>
<trkpt lat="60.872513333" lon="15.171688333">
<time>2014-07-06T10:27:47Z</time>
 <fix>none</fix>
 <sat>0</sat>
</trkpt>
<trkpt lat="60.872513333" lon="15.171688333">
<time>2014-07-06T10:27:48Z</time>
 <fix>none</fix>
 <sat>0</sat>
</trkpt>
<trkpt lat="60.872515000" lon="15.171790000">
<time>2014-07-06T10:27:49Z</time>
 <fix>none</fix>
 <sat>0</sat>
</trkpt>
<trkpt lat="60.872515000" lon="15.171790000">
<time>2014-07-06T10:27:50Z</time>
 <fix>none</fix>
 <sat>0</sat>
</trkpt>
<trkpt lat="60.872520000" lon="15.171873333">
<time>2014-07-06T10:27:51Z</time>
 <fix>none</fix>
 <sat>0</sat>
</trkpt>
<trkpt lat="60.872520000" lon="15.171873333">
<time>2014-07-06T10:27:52Z</time>
 <fix>none</fix>
 <sat>0</sat>
</trkpt>
<trkpt lat="60.872541667" lon="15.171936667">
<time>2014-07-06T10:27:53Z</time>
 <fix>none</fix>
 <sat>0</sat>
</trkpt>
<trkpt lat="60.872541667" lon="15.171936667">
<time>2014-07-06T10:27:54Z</time>
 <fix>none</fix>
 <sat>0</sat>
</trkpt>
<trkpt lat="60.872563333" lon="15.172016667">
<time>2014-07-06T10:27:55Z</time>
 <fix>none</fix>
 <sat>0</sat>
</trkpt>
<trkpt lat="60.872563333" lon="15.172016667">
<time>2014-07-06T10:27:56Z</time>
 <fix>none</fix>
 <sat>0</sat>
</trkpt>
<trkpt lat="60.872610000" lon="15.172136667">
<time>2014-07-06T10:27:57Z</time>
 <fix>none</fix>
 <sat>0</sat>
</trkpt>
<trkpt lat="60.872610000" lon="15.172136667">
<time>2014-07-06T10:27:58Z</time>
 <fix>none</fix>
 <sat>0</sat>
</trkpt>
<trkpt lat="60.872645000" lon="15.172268333">
<time>2014-07-06T10:27:59Z</time>
 <fix>none</fix>
 <sat>0</sat>
</trkpt>
<trkpt lat="60.872645000" lon="15.172268333">
<time>2014-07-06T10:28:00Z</time>
 <fix>none</fix>
 <sat>0</sat>
</trkpt>
<trkpt lat="60.872793333" lon="15.172666667">
<time>2014-07-06T10:28:01Z</time>
 <fix>none</fix>
 <sat>0</sat>
</trkpt>
<trkpt lat="60.872793333" lon="15.172666667">
<time>2014-07-06T10:28:02Z</time>
 <fix>none</fix>
 <sat>0</sat>
</trkpt>
<trkpt lat="60.872850000" lon="15.172763333">
<time>2014-07-06T10:28:03Z</time>
 <fix>none</fix>
 <sat>0</sat>
</trkpt>
<trkpt lat="60.872850000" lon="15.172763333">
<time>2014-07-06T10:28:04Z</time>
 <fix>none</fix>
 <sat>0</sat>
</trkpt>
<trkpt lat="60.872901667" lon="15.173061667">
<time>2014-07-06T10:28:05Z</time>
 <fix>none</fix>
 <sat>0</sat>
</trkpt>
<trkpt lat="60.872891667" lon="15.173175000">
<time>2014-07-06T10:28:06Z</time>
 <fix>none</fix>
 <sat>0</sat>
</trkpt>
<trkpt lat="60.872903333" lon="15.173226667">
<time>2014-07-06T10:28:07Z</time>
 <fix>none</fix>
 <sat>0</sat>
</trkpt>
<trkpt lat="60.872918333" lon="15.173281667">
<time>2014-07-06T10:28:08Z</time>
 <fix>none</fix>
 <sat>0</sat>
</trkpt>
<trkpt lat="60.872913333" lon="15.173366667">
<time>2014-07-06T10:28:09Z</time>
 <fix>none</fix>
 <sat>0</sat>
</trkpt>
<trkpt lat="60.872913333" lon="15.173366667">
<time>2014-07-06T10:28:10Z</time>
 <fix>none</fix>
 <sat>0</sat>
</trkpt>
<trkpt lat="60.872903333" lon="15.173421667">
<time>2014-07-06T10:28:11Z</time>
 <fix>none</fix>
 <sat>0</sat>
</trkpt>
<trkpt lat="60.872898333" lon="15.173476667">
<time>2014-07-06T10:28:12Z</time>
 <fix>none</fix>
 <sat>0</sat>
</trkpt>
<trkpt lat="60.872908333" lon="15.173525000">
<time>2014-07-06T10:28:13Z</time>
 <fix>none</fix>
 <sat>0</sat>
</trkpt>
<trkpt lat="60.872916667" lon="15.173586667">
<time>2014-07-06T10:28:14Z</time>
 <fix>none</fix>
 <sat>0</sat>
</trkpt>
<trkpt lat="60.872925000" lon="15.173661667">
<time>2014-07-06T10:28:15Z</time>
 <fix>none</fix>
 <sat>0</sat>
</trkpt>
<trkpt lat="60.872923333" lon="15.173811667">
<time>2014-07-06T10:28:16Z</time>
 <fix>none</fix>
 <sat>0</sat>
</trkpt>
<trkpt lat="60.872930000" lon="15.173880000">
<time>2014-07-06T10:28:17Z</time>
 <fix>none</fix>
 <sat>0</sat>
</trkpt>
<trkpt lat="60.872950000" lon="15.173935000">
<time>2014-07-06T10:28:18Z</time>
 <fix>none</fix>
 <sat>0</sat>
</trkpt>
<trkpt lat="60.872960000" lon="15.173973333">
<time>2014-07-06T10:28:19Z</time>
 <fix>none</fix>
 <sat>0</sat>
</trkpt>
<trkpt lat="60.872973333" lon="15.174011667">
<time>2014-07-06T10:28:20Z</time>
 <fix>none</fix>
 <sat>0</sat>
</trkpt>
<trkpt lat="60.872983333" lon="15.174050000">
<time>2014-07-06T10:28:21Z</time>
 <fix>none</fix>
 <sat>0</sat>
</trkpt>
<trkpt lat="60.873000000" lon="15.174101667">
<time>2014-07-06T10:28:22Z</time>
 <fix>none</fix>
 <sat>0</sat>
</trkpt>
<trkpt lat="60.873020000" lon="15.174148333">
<time>2014-07-06T10:28:23Z</time>
 <fix>none</fix>
 <sat>0</sat>
</trkpt>
<trkpt lat="60.873035000" lon="15.174210000">
<time>2014-07-06T10:28:24Z</time>
 <fix>none</fix>
 <sat>0</sat>
</trkpt>
<trkpt lat="60.873060000" lon="15.174270000">
<time>2014-07-06T10:28:25Z</time>
 <fix>none</fix>
 <sat>0</sat>
</trkpt>
<trkpt lat="60.873086667" lon="15.174326667">
<time>2014-07-06T10:28:26Z</time>
 <fix>none</fix>
 <sat>0</sat>
</trkpt>
<trkpt lat="60.873111667" lon="15.174380000">
<time>2014-07-06T10:28:27Z</time>
 <fix>none</fix>
 <sat>0</sat>
</trkpt>
<trkpt lat="60.873138333" lon="15.174453333">
<time>2014-07-06T10:28:28Z</time>
 <fix>none</fix>
 <sat>0</sat>
</trkpt>
<trkpt lat="60.873138333" lon="15.174453333">
<time>2014-07-06T10:28:29Z</time>
 <fix>none</fix>
 <sat>0</sat>
</trkpt>
<trkpt lat="60.873138333" lon="15.174453333">
<time>2014-07-06T10:28:30Z</time>
 <fix>none</fix>
 <sat>0</sat>
</trkpt>
<trkpt lat="60.873246667" lon="15.174650000">
<time>2014-07-06T10:28:31Z</time>
 <fix>none</fix>
 <sat>0</sat>
</trkpt>
<trkpt lat="60.873246667" lon="15.174650000">
<time>2014-07-06T10:28:32Z</time>
 <fix>none</fix>
 <sat>0</sat>
</trkpt>
<trkpt lat="60.873353333" lon="15.174795000">
<time>2014-07-06T10:28:33Z</time>
 <fix>none</fix>
 <sat>0</sat>
</trkpt>
<trkpt lat="60.873353333" lon="15.174795000">
<time>2014-07-06T10:28:34Z</time>
 <fix>none</fix>
 <sat>0</sat>
</trkpt>
<trkpt lat="60.873458333" lon="15.174945000">
<time>2014-07-06T10:28:35Z</time>
 <fix>none</fix>
 <sat>0</sat>
</trkpt>
<trkpt lat="60.873461667" lon="15.174978333">
<time>2014-07-06T10:28:36Z</time>
 <fix>none</fix>
 <sat>0</sat>
</trkpt>
<trkpt lat="60.873498333" lon="15.175038333">
<time>2014-07-06T10:28:37Z</time>
 <fix>none</fix>
 <sat>0</sat>
</trkpt>
<trkpt lat="60.873535000" lon="15.175100000">
<time>2014-07-06T10:28:38Z</time>
 <fix>none</fix>
 <sat>0</sat>
</trkpt>
<trkpt lat="60.873618333" lon="15.175100000">
<time>2014-07-06T10:28:39Z</time>
 <fix>none</fix>
 <sat>0</sat>
</trkpt>
<trkpt lat="60.873656667" lon="15.175120000">
<time>2014-07-06T10:28:40Z</time>
 <fix>none</fix>
 <sat>0</sat>
</trkpt>
<trkpt lat="60.873656667" lon="15.175120000">
<time>2014-07-06T10:28:41Z</time>
 <fix>none</fix>
 <sat>0</sat>
</trkpt>
<trkpt lat="60.873745000" lon="15.175210000">
<time>2014-07-06T10:28:42Z</time>
 <fix>none</fix>
 <sat>0</sat>
</trkpt>
<trkpt lat="60.873795000" lon="15.175258333">
<time>2014-07-06T10:28:43Z</time>
 <fix>none</fix>
 <sat>0</sat>
</trkpt>
<trkpt lat="60.873838333" lon="15.175305000">
<time>2014-07-06T10:28:44Z</time>
 <fix>none</fix>
 <sat>0</sat>
</trkpt>
<trkpt lat="60.873885000" lon="15.175333333">
<time>2014-07-06T10:28:45Z</time>
 <fix>none</fix>
 <sat>0</sat>
</trkpt>
<trkpt lat="60.873926667" lon="15.175370000">
<time>2014-07-06T10:28:46Z</time>
 <fix>none</fix>
 <sat>0</sat>
</trkpt>
<trkpt lat="60.873958333" lon="15.175401667">
<time>2014-07-06T10:28:47Z</time>
 <fix>none</fix>
 <sat>0</sat>
</trkpt>
<trkpt lat="60.873981667" lon="15.175445000">
<time>2014-07-06T10:28:48Z</time>
 <fix>none</fix>
 <sat>0</sat>
</trkpt>
<trkpt lat="60.874015000" lon="15.175500000">
<time>2014-07-06T10:28:49Z</time>
 <fix>none</fix>
 <sat>0</sat>
</trkpt>
<trkpt lat="60.874036667" lon="15.175566667">
<time>2014-07-06T10:28:50Z</time>
 <fix>none</fix>
 <sat>0</sat>
</trkpt>
<trkpt lat="60.874060000" lon="15.175631667">
<time>2014-07-06T10:28:51Z</time>
 <fix>none</fix>
 <sat>0</sat>
</trkpt>
<trkpt lat="60.874060000" lon="15.175631667">
<time>2014-07-06T10:28:52Z</time>
 <fix>none</fix>
 <sat>0</sat>
</trkpt>
<trkpt lat="60.874060000" lon="15.175631667">
<time>2014-07-06T10:28:53Z</time>
 <fix>none</fix>
 <sat>0</sat>
</trkpt>
<trkpt lat="60.874173333" lon="15.175793333">
<time>2014-07-06T10:28:54Z</time>
 <fix>none</fix>
 <sat>0</sat>
</trkpt>
<trkpt lat="60.874173333" lon="15.175793333">
<time>2014-07-06T10:28:55Z</time>
 <fix>none</fix>
 <sat>0</sat>
</trkpt>
<trkpt lat="60.874263333" lon="15.175930000">
<time>2014-07-06T10:28:56Z</time>
 <fix>none</fix>
 <sat>0</sat>
</trkpt>
<trkpt lat="60.874263333" lon="15.175930000">
<time>2014-07-06T10:28:57Z</time>
 <fix>none</fix>
 <sat>0</sat>
</trkpt>
<trkpt lat="60.874346667" lon="15.176051667">
<time>2014-07-06T10:28:58Z</time>
 <fix>none</fix>
 <sat>0</sat>
</trkpt>
<trkpt lat="60.874346667" lon="15.176051667">
<time>2014-07-06T10:28:59Z</time>
 <fix>none</fix>
 <sat>0</sat>
</trkpt>
<trkpt lat="60.874441667" lon="15.176123333">
<time>2014-07-06T10:29:00Z</time>
 <fix>none</fix>
 <sat>0</sat>
</trkpt>
<trkpt lat="60.874441667" lon="15.176123333">
<time>2014-07-06T10:29:01Z</time>
 <fix>none</fix>
 <sat>0</sat>
</trkpt>
<trkpt lat="60.874526667" lon="15.176210000">
<time>2014-07-06T10:29:02Z</time>
 <fix>none</fix>
 <sat>0</sat>
</trkpt>
<trkpt lat="60.874526667" lon="15.176210000">
<time>2014-07-06T10:29:03Z</time>
 <fix>none</fix>
 <sat>0</sat>
</trkpt>
<trkpt lat="60.874620000" lon="15.176340000">
<time>2014-07-06T10:29:04Z</time>
 <fix>none</fix>
 <sat>0</sat>
</trkpt>
<trkpt lat="60.874620000" lon="15.176340000">
<time>2014-07-06T10:29:05Z</time>
 <fix>none</fix>
 <sat>0</sat>
</trkpt>
<trkpt lat="60.874680000" lon="15.176300000">
<time>2014-07-06T10:29:06Z</time>
 <fix>none</fix>
 <sat>0</sat>
</trkpt>
<trkpt lat="60.874680000" lon="15.176300000">
<time>2014-07-06T10:29:07Z</time>
 <fix>none</fix>
 <sat>0</sat>
</trkpt>
<trkpt lat="60.874761667" lon="15.176306667">
<time>2014-07-06T10:29:08Z</time>
 <fix>none</fix>
 <sat>0</sat>
</trkpt>
<trkpt lat="60.874761667" lon="15.176306667">
<time>2014-07-06T10:29:09Z</time>
 <fix>none</fix>
 <sat>0</sat>
</trkpt>
<trkpt lat="60.874838333" lon="15.176343333">
<time>2014-07-06T10:29:10Z</time>
 <fix>none</fix>
 <sat>0</sat>
</trkpt>
<trkpt lat="60.874838333" lon="15.176343333">
<time>2014-07-06T10:29:11Z</time>
 <fix>none</fix>
 <sat>0</sat>
</trkpt>
<trkpt lat="60.874930000" lon="15.176406667">
<time>2014-07-06T10:29:12Z</time>
 <fix>none</fix>
 <sat>0</sat>
</trkpt>
<trkpt lat="60.874930000" lon="15.176406667">
<time>2014-07-06T10:29:13Z</time>
 <fix>none</fix>
 <sat>0</sat>
</trkpt>
<trkpt lat="60.875033333" lon="15.176468333">
<time>2014-07-06T10:29:14Z</time>
 <fix>none</fix>
 <sat>0</sat>
</trkpt>
<trkpt lat="60.875033333" lon="15.176468333">
<time>2014-07-06T10:29:15Z</time>
 <fix>none</fix>
 <sat>0</sat>
</trkpt>
<trkpt lat="60.875128333" lon="15.176550000">
<time>2014-07-06T10:29:16Z</time>
 <fix>none</fix>
 <sat>0</sat>
</trkpt>
<trkpt lat="60.875128333" lon="15.176550000">
<time>2014-07-06T10:29:17Z</time>
 <fix>none</fix>
 <sat>0</sat>
</trkpt>
<trkpt lat="60.875220000" lon="15.176598333">
<time>2014-07-06T10:29:18Z</time>
 <fix>none</fix>
 <sat>0</sat>
</trkpt>
<trkpt lat="60.875226667" lon="15.176596667">
<time>2014-07-06T10:29:19Z</time>
 <fix>none</fix>
 <sat>0</sat>
</trkpt>
<trkpt lat="60.875268333" lon="15.176628333">
<time>2014-07-06T10:29:20Z</time>
 <fix>none</fix>
 <sat>0</sat>
</trkpt>
<trkpt lat="60.875338333" lon="15.176695000">
<time>2014-07-06T10:29:21Z</time>
 <fix>none</fix>
 <sat>0</sat>
</trkpt>
<trkpt lat="60.875401667" lon="15.176731667">
<time>2014-07-06T10:29:22Z</time>
 <fix>none</fix>
 <sat>0</sat>
</trkpt>
<trkpt lat="60.875476667" lon="15.176766667">
<time>2014-07-06T10:29:23Z</time>
 <fix>none</fix>
 <sat>0</sat>
</trkpt>
<trkpt lat="60.875545000" lon="15.176806667">
<time>2014-07-06T10:29:24Z</time>
 <fix>none</fix>
 <sat>0</sat>
</trkpt>
<trkpt lat="60.875600000" lon="15.176855000">
<time>2014-07-06T10:29:25Z</time>
 <fix>none</fix>
 <sat>0</sat>
</trkpt>
<trkpt lat="60.875648333" lon="15.176935000">
<time>2014-07-06T10:29:26Z</time>
 <fix>none</fix>
 <sat>0</sat>
</trkpt>
<trkpt lat="60.875718333" lon="15.177073333">
<time>2014-07-06T10:29:27Z</time>
 <fix>none</fix>
 <sat>0</sat>
</trkpt>
<trkpt lat="60.875743333" lon="15.177125000">
<time>2014-07-06T10:29:28Z</time>
 <fix>none</fix>
 <sat>0</sat>
</trkpt>
<trkpt lat="60.875761667" lon="15.177165000">
<time>2014-07-06T10:29:29Z</time>
 <fix>none</fix>
 <sat>0</sat>
</trkpt>
<trkpt lat="60.875786667" lon="15.177195000">
<time>2014-07-06T10:29:30Z</time>
 <fix>none</fix>
 <sat>0</sat>
</trkpt>
<trkpt lat="60.875813333" lon="15.177231667">
<time>2014-07-06T10:29:31Z</time>
 <fix>none</fix>
 <sat>0</sat>
</trkpt>
<trkpt lat="60.875843333" lon="15.177263333">
<time>2014-07-06T10:29:32Z</time>
 <fix>none</fix>
 <sat>0</sat>
</trkpt>
<trkpt lat="60.875881667" lon="15.177290000">
<time>2014-07-06T10:29:33Z</time>
 <fix>none</fix>
 <sat>0</sat>
</trkpt>
<trkpt lat="60.875920000" lon="15.177301667">
<time>2014-07-06T10:29:34Z</time>
 <fix>none</fix>
 <sat>0</sat>
</trkpt>
<trkpt lat="60.875965000" lon="15.177305000">
<time>2014-07-06T10:29:35Z</time>
 <fix>none</fix>
 <sat>0</sat>
</trkpt>
<trkpt lat="60.876010000" lon="15.177305000">
<time>2014-07-06T10:29:36Z</time>
 <fix>none</fix>
 <sat>0</sat>
</trkpt>
<trkpt lat="60.876051667" lon="15.177318333">
<time>2014-07-06T10:29:37Z</time>
 <fix>none</fix>
 <sat>0</sat>
</trkpt>
<trkpt lat="60.876096667" lon="15.177343333">
<time>2014-07-06T10:29:38Z</time>
 <fix>none</fix>
 <sat>0</sat>
</trkpt>
<trkpt lat="60.876145000" lon="15.177370000">
<time>2014-07-06T10:29:39Z</time>
 <fix>none</fix>
 <sat>0</sat>
</trkpt>
<trkpt lat="60.876188333" lon="15.177383333">
<time>2014-07-06T10:29:40Z</time>
 <fix>none</fix>
 <sat>0</sat>
</trkpt>
<trkpt lat="60.876231667" lon="15.177395000">
<time>2014-07-06T10:29:41Z</time>
 <fix>none</fix>
 <sat>0</sat>
</trkpt>
<trkpt lat="60.876231667" lon="15.177395000">
<time>2014-07-06T10:29:42Z</time>
 <fix>none</fix>
 <sat>0</sat>
</trkpt>
<trkpt lat="60.876268333" lon="15.177408333">
<time>2014-07-06T10:29:43Z</time>
 <fix>none</fix>
 <sat>0</sat>
</trkpt>
<trkpt lat="60.876296667" lon="15.177430000">
<time>2014-07-06T10:29:44Z</time>
 <fix>none</fix>
 <sat>0</sat>
</trkpt>
<trkpt lat="60.876323333" lon="15.177443333">
<time>2014-07-06T10:29:45Z</time>
 <fix>none</fix>
 <sat>0</sat>
</trkpt>
<trkpt lat="60.876350000" lon="15.177465000">
<time>2014-07-06T10:29:46Z</time>
 <fix>none</fix>
 <sat>0</sat>
</trkpt>
<trkpt lat="60.876371667" lon="15.177491667">
<time>2014-07-06T10:29:47Z</time>
 <fix>none</fix>
 <sat>0</sat>
</trkpt>
<trkpt lat="60.876401667" lon="15.177530000">
<time>2014-07-06T10:29:48Z</time>
 <fix>none</fix>
 <sat>0</sat>
</trkpt>
<trkpt lat="60.876423333" lon="15.177546667">
<time>2014-07-06T10:29:49Z</time>
 <fix>none</fix>
 <sat>0</sat>
</trkpt>
<trkpt lat="60.876443333" lon="15.177573333">
<time>2014-07-06T10:29:50Z</time>
 <fix>none</fix>
 <sat>0</sat>
</trkpt>
<trkpt lat="60.876475000" lon="15.177618333">
<time>2014-07-06T10:29:51Z</time>
 <fix>none</fix>
 <sat>0</sat>
</trkpt>
<trkpt lat="60.876516667" lon="15.177655000">
<time>2014-07-06T10:29:52Z</time>
 <fix>none</fix>
 <sat>0</sat>
</trkpt>
<trkpt lat="60.876553333" lon="15.177688333">
<time>2014-07-06T10:29:53Z</time>
 <fix>none</fix>
 <sat>0</sat>
</trkpt>
<trkpt lat="60.876585000" lon="15.177700000">
<time>2014-07-06T10:29:54Z</time>
 <fix>none</fix>
 <sat>0</sat>
</trkpt>
<trkpt lat="60.876621667" lon="15.177713333">
<time>2014-07-06T10:29:55Z</time>
 <fix>none</fix>
 <sat>0</sat>
</trkpt>
<trkpt lat="60.876655000" lon="15.177711667">
<time>2014-07-06T10:29:56Z</time>
 <fix>none</fix>
 <sat>0</sat>
</trkpt>
<trkpt lat="60.876655000" lon="15.177711667">
<time>2014-07-06T10:29:57Z</time>
 <fix>none</fix>
 <sat>0</sat>
</trkpt>
<trkpt lat="60.876655000" lon="15.177711667">
<time>2014-07-06T10:29:58Z</time>
 <fix>none</fix>
 <sat>0</sat>
</trkpt>
<trkpt lat="60.876756667" lon="15.177703333">
<time>2014-07-06T10:29:59Z</time>
 <fix>none</fix>
 <sat>0</sat>
</trkpt>
<trkpt lat="60.876756667" lon="15.177703333">
<time>2014-07-06T10:30:00Z</time>
 <fix>none</fix>
 <sat>0</sat>
</trkpt>
<trkpt lat="60.876808333" lon="15.177715000">
<time>2014-07-06T10:30:01Z</time>
 <fix>none</fix>
 <sat>0</sat>
</trkpt>
<trkpt lat="60.876808333" lon="15.177715000">
<time>2014-07-06T10:30:02Z</time>
 <fix>none</fix>
 <sat>0</sat>
</trkpt>
<trkpt lat="60.876855000" lon="15.177735000">
<time>2014-07-06T10:30:03Z</time>
 <fix>none</fix>
 <sat>0</sat>
</trkpt>
<trkpt lat="60.876855000" lon="15.177750000">
<time>2014-07-06T10:30:04Z</time>
 <fix>none</fix>
 <sat>0</sat>
</trkpt>
<trkpt lat="60.876878333" lon="15.177760000">
<time>2014-07-06T10:30:05Z</time>
 <fix>none</fix>
 <sat>0</sat>
</trkpt>
<trkpt lat="60.876925000" lon="15.177786667">
<time>2014-07-06T10:30:06Z</time>
 <fix>none</fix>
 <sat>0</sat>
</trkpt>
<trkpt lat="60.876973333" lon="15.177816667">
<time>2014-07-06T10:30:07Z</time>
 <fix>none</fix>
 <sat>0</sat>
</trkpt>
<trkpt lat="60.876998333" lon="15.177840000">
<time>2014-07-06T10:30:08Z</time>
 <fix>none</fix>
 <sat>0</sat>
</trkpt>
<trkpt lat="60.877016667" lon="15.177850000">
<time>2014-07-06T10:30:09Z</time>
 <fix>none</fix>
 <sat>0</sat>
</trkpt>
<trkpt lat="60.877045000" lon="15.177858333">
<time>2014-07-06T10:30:10Z</time>
 <fix>none</fix>
 <sat>0</sat>
</trkpt>
<trkpt lat="60.877068333" lon="15.177878333">
<time>2014-07-06T10:30:11Z</time>
 <fix>none</fix>
 <sat>0</sat>
</trkpt>
<trkpt lat="60.877081667" lon="15.177886667">
<time>2014-07-06T10:30:12Z</time>
 <fix>none</fix>
 <sat>0</sat>
</trkpt>
<trkpt lat="60.877101667" lon="15.177886667">
<time>2014-07-06T10:30:13Z</time>
 <fix>none</fix>
 <sat>0</sat>
</trkpt>
<trkpt lat="60.877118333" lon="15.177880000">
<time>2014-07-06T10:30:14Z</time>
 <fix>none</fix>
 <sat>0</sat>
</trkpt>
<trkpt lat="60.877133333" lon="15.177883333">
<time>2014-07-06T10:30:15Z</time>
 <fix>none</fix>
 <sat>0</sat>
</trkpt>
<trkpt lat="60.877150000" lon="15.177898333">
<time>2014-07-06T10:30:16Z</time>
 <fix>none</fix>
 <sat>0</sat>
</trkpt>
<trkpt lat="60.877166667" lon="15.177911667">
<time>2014-07-06T10:30:17Z</time>
 <fix>none</fix>
 <sat>0</sat>
</trkpt>
<trkpt lat="60.877185000" lon="15.177930000">
<time>2014-07-06T10:30:18Z</time>
 <fix>none</fix>
 <sat>0</sat>
</trkpt>
<trkpt lat="60.877206667" lon="15.177941667">
<time>2014-07-06T10:30:19Z</time>
 <fix>none</fix>
 <sat>0</sat>
</trkpt>
<trkpt lat="60.877233333" lon="15.177948333">
<time>2014-07-06T10:30:20Z</time>
 <fix>none</fix>
 <sat>0</sat>
</trkpt>
<trkpt lat="60.877266667" lon="15.177966667">
<time>2014-07-06T10:30:21Z</time>
 <fix>none</fix>
 <sat>0</sat>
</trkpt>
<trkpt lat="60.877305000" lon="15.177991667">
<time>2014-07-06T10:30:22Z</time>
 <fix>none</fix>
 <sat>0</sat>
</trkpt>
<trkpt lat="60.877330000" lon="15.178015000">
<time>2014-07-06T10:30:23Z</time>
 <fix>none</fix>
 <sat>0</sat>
</trkpt>
<trkpt lat="60.877365000" lon="15.178033333">
<time>2014-07-06T10:30:24Z</time>
 <fix>none</fix>
 <sat>0</sat>
</trkpt>
<trkpt lat="60.877398333" lon="15.178031667">
<time>2014-07-06T10:30:25Z</time>
 <fix>none</fix>
 <sat>0</sat>
</trkpt>
<trkpt lat="60.877430000" lon="15.178031667">
<time>2014-07-06T10:30:26Z</time>
 <fix>none</fix>
 <sat>0</sat>
</trkpt>
<trkpt lat="60.877430000" lon="15.178031667">
<time>2014-07-06T10:30:27Z</time>
 <fix>none</fix>
 <sat>0</sat>
</trkpt>
<trkpt lat="60.877465000" lon="15.178045000">
<time>2014-07-06T10:30:28Z</time>
 <fix>none</fix>
 <sat>0</sat>
</trkpt>
<trkpt lat="60.877501667" lon="15.178053333">
<time>2014-07-06T10:30:29Z</time>
 <fix>none</fix>
 <sat>0</sat>
</trkpt>
<trkpt lat="60.877541667" lon="15.178061667">
<time>2014-07-06T10:30:30Z</time>
 <fix>none</fix>
 <sat>0</sat>
</trkpt>
<trkpt lat="60.877593333" lon="15.178078333">
<time>2014-07-06T10:30:31Z</time>
 <fix>none</fix>
 <sat>0</sat>
</trkpt>
<trkpt lat="60.877640000" lon="15.178100000">
<time>2014-07-06T10:30:32Z</time>
 <fix>none</fix>
 <sat>0</sat>
</trkpt>
<trkpt lat="60.877675000" lon="15.178110000">
<time>2014-07-06T10:30:33Z</time>
 <fix>none</fix>
 <sat>0</sat>
</trkpt>
<trkpt lat="60.877710000" lon="15.178125000">
<time>2014-07-06T10:30:34Z</time>
 <fix>none</fix>
 <sat>0</sat>
</trkpt>
<trkpt lat="60.877735000" lon="15.178145000">
<time>2014-07-06T10:30:35Z</time>
 <fix>none</fix>
 <sat>0</sat>
</trkpt>
<trkpt lat="60.877795000" lon="15.178190000">
<time>2014-07-06T10:30:36Z</time>
 <fix>none</fix>
 <sat>0</sat>
</trkpt>
<trkpt lat="60.877825000" lon="15.178206667">
<time>2014-07-06T10:30:37Z</time>
 <fix>none</fix>
 <sat>0</sat>
</trkpt>
<trkpt lat="60.877861667" lon="15.178226667">
<time>2014-07-06T10:30:38Z</time>
 <fix>none</fix>
 <sat>0</sat>
</trkpt>
<trkpt lat="60.877893333" lon="15.178241667">
<time>2014-07-06T10:30:39Z</time>
 <fix>none</fix>
 <sat>0</sat>
</trkpt>
<trkpt lat="60.877918333" lon="15.178251667">
<time>2014-07-06T10:30:40Z</time>
 <fix>none</fix>
 <sat>0</sat>
</trkpt>
<trkpt lat="60.877938333" lon="15.178251667">
<time>2014-07-06T10:30:41Z</time>
 <fix>none</fix>
 <sat>0</sat>
</trkpt>
<trkpt lat="60.877963333" lon="15.178260000">
<time>2014-07-06T10:30:42Z</time>
 <fix>none</fix>
 <sat>0</sat>
</trkpt>
<trkpt lat="60.877988333" lon="15.178263333">
<time>2014-07-06T10:30:43Z</time>
 <fix>none</fix>
 <sat>0</sat>
</trkpt>
<trkpt lat="60.878015000" lon="15.178268333">
<time>2014-07-06T10:30:44Z</time>
 <fix>none</fix>
 <sat>0</sat>
</trkpt>
<trkpt lat="60.878040000" lon="15.178283333">
<time>2014-07-06T10:30:45Z</time>
 <fix>none</fix>
 <sat>0</sat>
</trkpt>
<trkpt lat="60.878065000" lon="15.178291667">
<time>2014-07-06T10:30:46Z</time>
 <fix>none</fix>
 <sat>0</sat>
</trkpt>
<trkpt lat="60.878090000" lon="15.178286667">
<time>2014-07-06T10:30:47Z</time>
 <fix>none</fix>
 <sat>0</sat>
</trkpt>
<trkpt lat="60.878113333" lon="15.178281667">
<time>2014-07-06T10:30:48Z</time>
 <fix>none</fix>
 <sat>0</sat>
</trkpt>
<trkpt lat="60.878140000" lon="15.178278333">
<time>2014-07-06T10:30:49Z</time>
 <fix>none</fix>
 <sat>0</sat>
</trkpt>
<trkpt lat="60.878140000" lon="15.178278333">
<time>2014-07-06T10:30:50Z</time>
 <fix>none</fix>
 <sat>0</sat>
</trkpt>
<trkpt lat="60.878168333" lon="15.178270000">
<time>2014-07-06T10:30:51Z</time>
 <fix>none</fix>
 <sat>0</sat>
</trkpt>
<trkpt lat="60.878201667" lon="15.178260000">
<time>2014-07-06T10:30:52Z</time>
 <fix>none</fix>
 <sat>0</sat>
</trkpt>
<trkpt lat="60.878236667" lon="15.178250000">
<time>2014-07-06T10:30:53Z</time>
 <fix>none</fix>
 <sat>0</sat>
</trkpt>
<trkpt lat="60.878270000" lon="15.178233333">
<time>2014-07-06T10:30:54Z</time>
 <fix>none</fix>
 <sat>0</sat>
</trkpt>
<trkpt lat="60.878345000" lon="15.178231667">
<time>2014-07-06T10:30:55Z</time>
 <fix>none</fix>
 <sat>0</sat>
</trkpt>
<trkpt lat="60.878345000" lon="15.178231667">
<time>2014-07-06T10:30:56Z</time>
 <fix>none</fix>
 <sat>0</sat>
</trkpt>
<trkpt lat="60.878385000" lon="15.178241667">
<time>2014-07-06T10:30:57Z</time>
 <fix>none</fix>
 <sat>0</sat>
</trkpt>
<trkpt lat="60.878428333" lon="15.178266667">
<time>2014-07-06T10:30:58Z</time>
 <fix>none</fix>
 <sat>0</sat>
</trkpt>
<trkpt lat="60.878428333" lon="15.178266667">
<time>2014-07-06T10:30:59Z</time>
 <fix>none</fix>
 <sat>0</sat>
</trkpt>
<trkpt lat="60.878575000" lon="15.178338333">
<time>2014-07-06T10:31:00Z</time>
 <fix>none</fix>
 <sat>0</sat>
</trkpt>
<trkpt lat="60.878575000" lon="15.178338333">
<time>2014-07-06T10:31:01Z</time>
 <fix>none</fix>
 <sat>0</sat>
</trkpt>
<trkpt lat="60.878690000" lon="15.178391667">
<time>2014-07-06T10:31:02Z</time>
 <fix>none</fix>
 <sat>0</sat>
</trkpt>
<trkpt lat="60.878723333" lon="15.178401667">
<time>2014-07-06T10:31:03Z</time>
 <fix>none</fix>
 <sat>0</sat>
</trkpt>
<trkpt lat="60.878738333" lon="15.178358333">
<time>2014-07-06T10:31:04Z</time>
 <fix>none</fix>
 <sat>0</sat>
</trkpt>
<trkpt lat="60.878761667" lon="15.178333333">
<time>2014-07-06T10:31:05Z</time>
 <fix>none</fix>
 <sat>0</sat>
</trkpt>
<trkpt lat="60.878816667" lon="15.178370000">
<time>2014-07-06T10:31:06Z</time>
 <fix>none</fix>
 <sat>0</sat>
</trkpt>
<trkpt lat="60.878856667" lon="15.178398333">
<time>2014-07-06T10:31:07Z</time>
 <fix>none</fix>
 <sat>0</sat>
</trkpt>
<trkpt lat="60.878888333" lon="15.178416667">
<time>2014-07-06T10:31:08Z</time>
 <fix>none</fix>
 <sat>0</sat>
</trkpt>
<trkpt lat="60.878913333" lon="15.178411667">
<time>2014-07-06T10:31:09Z</time>
 <fix>none</fix>
 <sat>0</sat>
</trkpt>
<trkpt lat="60.878926667" lon="15.178420000">
<time>2014-07-06T10:31:10Z</time>
 <fix>none</fix>
 <sat>0</sat>
</trkpt>
<trkpt lat="60.878936667" lon="15.178426667">
<time>2014-07-06T10:31:11Z</time>
 <fix>none</fix>
 <sat>0</sat>
</trkpt>
<trkpt lat="60.878948333" lon="15.178426667">
<time>2014-07-06T10:31:12Z</time>
 <fix>none</fix>
 <sat>0</sat>
</trkpt>
<trkpt lat="60.878948333" lon="15.178426667">
<time>2014-07-06T10:31:13Z</time>
 <fix>none</fix>
 <sat>0</sat>
</trkpt>
<trkpt lat="60.878970000" lon="15.178426667">
<time>2014-07-06T10:31:14Z</time>
 <fix>none</fix>
 <sat>0</sat>
</trkpt>
<trkpt lat="60.878990000" lon="15.178426667">
<time>2014-07-06T10:31:15Z</time>
 <fix>none</fix>
 <sat>0</sat>
</trkpt>
<trkpt lat="60.879001667" lon="15.178413333">
<time>2014-07-06T10:31:16Z</time>
 <fix>none</fix>
 <sat>0</sat>
</trkpt>
<trkpt lat="60.879010000" lon="15.178398333">
<time>2014-07-06T10:31:17Z</time>
 <fix>none</fix>
 <sat>0</sat>
</trkpt>
<trkpt lat="60.879021667" lon="15.178385000">
<time>2014-07-06T10:31:18Z</time>
 <fix>none</fix>
 <sat>0</sat>
</trkpt>
<trkpt lat="60.879040000" lon="15.178346667">
<time>2014-07-06T10:31:19Z</time>
 <fix>none</fix>
 <sat>0</sat>
</trkpt>
<trkpt lat="60.879040000" lon="15.178346667">
<time>2014-07-06T10:31:20Z</time>
 <fix>none</fix>
 <sat>0</sat>
</trkpt>
<trkpt lat="60.879045000" lon="15.178323333">
<time>2014-07-06T10:31:21Z</time>
 <fix>none</fix>
 <sat>0</sat>
</trkpt>
<trkpt lat="60.879058333" lon="15.178303333">
<time>2014-07-06T10:31:22Z</time>
 <fix>none</fix>
 <sat>0</sat>
</trkpt>
<trkpt lat="60.879058333" lon="15.178303333">
<time>2014-07-06T10:31:23Z</time>
 <fix>none</fix>
 <sat>0</sat>
</trkpt>
<trkpt lat="60.879070000" lon="15.178240000">
<time>2014-07-06T10:31:24Z</time>
 <fix>none</fix>
 <sat>0</sat>
</trkpt>
<trkpt lat="60.879070000" lon="15.178240000">
<time>2014-07-06T10:31:25Z</time>
 <fix>none</fix>
 <sat>0</sat>
</trkpt>
<trkpt lat="60.879076667" lon="15.178188333">
<time>2014-07-06T10:31:26Z</time>
 <fix>none</fix>
 <sat>0</sat>
</trkpt>
<trkpt lat="60.879086667" lon="15.178168333">
<time>2014-07-06T10:31:27Z</time>
 <fix>none</fix>
 <sat>0</sat>
</trkpt>
<trkpt lat="60.879115000" lon="15.178125000">
<time>2014-07-06T10:31:28Z</time>
 <fix>none</fix>
 <sat>0</sat>
</trkpt>
<trkpt lat="60.879143333" lon="15.178093333">
<time>2014-07-06T10:31:29Z</time>
 <fix>none</fix>
 <sat>0</sat>
</trkpt>
<trkpt lat="60.879173333" lon="15.178061667">
<time>2014-07-06T10:31:30Z</time>
 <fix>none</fix>
 <sat>0</sat>
</trkpt>
<trkpt lat="60.879196667" lon="15.178023333">
<time>2014-07-06T10:31:31Z</time>
 <fix>none</fix>
 <sat>0</sat>
</trkpt>
<trkpt lat="60.879215000" lon="15.178000000">
<time>2014-07-06T10:31:32Z</time>
 <fix>none</fix>
 <sat>0</sat>
</trkpt>
<trkpt lat="60.879228333" lon="15.177976667">
<time>2014-07-06T10:31:33Z</time>
 <fix>none</fix>
 <sat>0</sat>
</trkpt>
<trkpt lat="60.879248333" lon="15.177955000">
<time>2014-07-06T10:31:34Z</time>
 <fix>none</fix>
 <sat>0</sat>
</trkpt>
<trkpt lat="60.879248333" lon="15.177955000">
<time>2014-07-06T10:31:35Z</time>
 <fix>none</fix>
 <sat>0</sat>
</trkpt>
<trkpt lat="60.879260000" lon="15.177933333">
<time>2014-07-06T10:31:36Z</time>
 <fix>none</fix>
 <sat>0</sat>
</trkpt>
<trkpt lat="60.879270000" lon="15.177896667">
<time>2014-07-06T10:31:37Z</time>
 <fix>none</fix>
 <sat>0</sat>
</trkpt>
<trkpt lat="60.879283333" lon="15.177853333">
<time>2014-07-06T10:31:38Z</time>
 <fix>none</fix>
 <sat>0</sat>
</trkpt>
<trkpt lat="60.879291667" lon="15.177816667">
<time>2014-07-06T10:31:39Z</time>
 <fix>none</fix>
 <sat>0</sat>
</trkpt>
<trkpt lat="60.879295000" lon="15.177785000">
<time>2014-07-06T10:31:40Z</time>
 <fix>none</fix>
 <sat>0</sat>
</trkpt>
<trkpt lat="60.879303333" lon="15.177683333">
<time>2014-07-06T10:31:41Z</time>
 <fix>none</fix>
 <sat>0</sat>
</trkpt>
<trkpt lat="60.879303333" lon="15.177683333">
<time>2014-07-06T10:31:42Z</time>
 <fix>none</fix>
 <sat>0</sat>
</trkpt>
<trkpt lat="60.879303333" lon="15.177683333">
<time>2014-07-06T10:31:43Z</time>
 <fix>none</fix>
 <sat>0</sat>
</trkpt>
<trkpt lat="60.879296667" lon="15.177605000">
<time>2014-07-06T10:31:44Z</time>
 <fix>none</fix>
 <sat>0</sat>
</trkpt>
<trkpt lat="60.879296667" lon="15.177605000">
<time>2014-07-06T10:31:45Z</time>
 <fix>none</fix>
 <sat>0</sat>
</trkpt>
<trkpt lat="60.879303333" lon="15.177548333">
<time>2014-07-06T10:31:46Z</time>
 <fix>none</fix>
 <sat>0</sat>
</trkpt>
<trkpt lat="60.879303333" lon="15.177548333">
<time>2014-07-06T10:31:47Z</time>
 <fix>none</fix>
 <sat>0</sat>
</trkpt>
<trkpt lat="60.879325000" lon="15.177506667">
<time>2014-07-06T10:31:48Z</time>
 <fix>none</fix>
 <sat>0</sat>
</trkpt>
<trkpt lat="60.879325000" lon="15.177506667">
<time>2014-07-06T10:31:49Z</time>
 <fix>none</fix>
 <sat>0</sat>
</trkpt>
<trkpt lat="60.879335000" lon="15.177436667">
<time>2014-07-06T10:31:50Z</time>
 <fix>none</fix>
 <sat>0</sat>
</trkpt>
<trkpt lat="60.879335000" lon="15.177436667">
<time>2014-07-06T10:31:51Z</time>
 <fix>none</fix>
 <sat>0</sat>
</trkpt>
<trkpt lat="60.879338333" lon="15.177386667">
<time>2014-07-06T10:31:52Z</time>
 <fix>none</fix>
 <sat>0</sat>
</trkpt>
<trkpt lat="60.879338333" lon="15.177386667">
<time>2014-07-06T10:31:53Z</time>
 <fix>none</fix>
 <sat>0</sat>
</trkpt>
<trkpt lat="60.879341667" lon="15.177316667">
<time>2014-07-06T10:31:54Z</time>
 <fix>none</fix>
 <sat>0</sat>
</trkpt>
<trkpt lat="60.879341667" lon="15.177316667">
<time>2014-07-06T10:31:55Z</time>
 <fix>none</fix>
 <sat>0</sat>
</trkpt>
<trkpt lat="60.879363333" lon="15.177260000">
<time>2014-07-06T10:31:56Z</time>
 <fix>none</fix>
 <sat>0</sat>
</trkpt>
<trkpt lat="60.879363333" lon="15.177260000">
<time>2014-07-06T10:31:57Z</time>
 <fix>none</fix>
 <sat>0</sat>
</trkpt>
<trkpt lat="60.879381667" lon="15.177185000">
<time>2014-07-06T10:31:58Z</time>
 <fix>none</fix>
 <sat>0</sat>
</trkpt>
<trkpt lat="60.879381667" lon="15.177185000">
<time>2014-07-06T10:31:59Z</time>
 <fix>none</fix>
 <sat>0</sat>
</trkpt>
<trkpt lat="60.879413333" lon="15.177108333">
<time>2014-07-06T10:32:00Z</time>
 <fix>none</fix>
 <sat>0</sat>
</trkpt>
<trkpt lat="60.879413333" lon="15.177108333">
<time>2014-07-06T10:32:01Z</time>
 <fix>none</fix>
 <sat>0</sat>
</trkpt>
<trkpt lat="60.879450000" lon="15.177061667">
<time>2014-07-06T10:32:02Z</time>
 <fix>none</fix>
 <sat>0</sat>
</trkpt>
<trkpt lat="60.879450000" lon="15.177061667">
<time>2014-07-06T10:32:03Z</time>
 <fix>none</fix>
 <sat>0</sat>
</trkpt>
<trkpt lat="60.879518333" lon="15.176988333">
<time>2014-07-06T10:32:04Z</time>
 <fix>none</fix>
 <sat>0</sat>
</trkpt>
<trkpt lat="60.879518333" lon="15.176988333">
<time>2014-07-06T10:32:05Z</time>
 <fix>none</fix>
 <sat>0</sat>
</trkpt>
<trkpt lat="60.879518333" lon="15.176988333">
<time>2014-07-06T10:32:06Z</time>
 <fix>none</fix>
 <sat>0</sat>
</trkpt>
<trkpt lat="60.879570000" lon="15.176928333">
<time>2014-07-06T10:32:07Z</time>
 <fix>none</fix>
 <sat>0</sat>
</trkpt>
<trkpt lat="60.879623333" lon="15.176853333">
<time>2014-07-06T10:32:08Z</time>
 <fix>none</fix>
 <sat>0</sat>
</trkpt>
<trkpt lat="60.879623333" lon="15.176853333">
<time>2014-07-06T10:32:09Z</time>
 <fix>none</fix>
 <sat>0</sat>
</trkpt>
<trkpt lat="60.879695000" lon="15.176776667">
<time>2014-07-06T10:32:10Z</time>
 <fix>none</fix>
 <sat>0</sat>
</trkpt>
<trkpt lat="60.879695000" lon="15.176776667">
<time>2014-07-06T10:32:11Z</time>
 <fix>none</fix>
 <sat>0</sat>
</trkpt>
<trkpt lat="60.879750000" lon="15.176690000">
<time>2014-07-06T10:32:12Z</time>
 <fix>none</fix>
 <sat>0</sat>
</trkpt>
<trkpt lat="60.879766667" lon="15.176661667">
<time>2014-07-06T10:32:13Z</time>
 <fix>none</fix>
 <sat>0</sat>
</trkpt>
<trkpt lat="60.879785000" lon="15.176621667">
<time>2014-07-06T10:32:14Z</time>
 <fix>none</fix>
 <sat>0</sat>
</trkpt>
<trkpt lat="60.879831667" lon="15.176605000">
<time>2014-07-06T10:32:15Z</time>
 <fix>none</fix>
 <sat>0</sat>
</trkpt>
<trkpt lat="60.879871667" lon="15.176586667">
<time>2014-07-06T10:32:16Z</time>
 <fix>none</fix>
 <sat>0</sat>
</trkpt>
<trkpt lat="60.879900000" lon="15.176583333">
<time>2014-07-06T10:32:17Z</time>
 <fix>none</fix>
 <sat>0</sat>
</trkpt>
<trkpt lat="60.879921667" lon="15.176571667">
<time>2014-07-06T10:32:18Z</time>
 <fix>none</fix>
 <sat>0</sat>
</trkpt>
<trkpt lat="60.879951667" lon="15.176561667">
<time>2014-07-06T10:32:19Z</time>
 <fix>none</fix>
 <sat>0</sat>
</trkpt>
<trkpt lat="60.879983333" lon="15.176540000">
<time>2014-07-06T10:32:20Z</time>
 <fix>none</fix>
 <sat>0</sat>
</trkpt>
<trkpt lat="60.879983333" lon="15.176540000">
<time>2014-07-06T10:32:21Z</time>
 <fix>none</fix>
 <sat>0</sat>
</trkpt>
<trkpt lat="60.880020000" lon="15.176535000">
<time>2014-07-06T10:32:22Z</time>
 <fix>none</fix>
 <sat>0</sat>
</trkpt>
<trkpt lat="60.880058333" lon="15.176543333">
<time>2014-07-06T10:32:23Z</time>
 <fix>none</fix>
 <sat>0</sat>
</trkpt>
<trkpt lat="60.880098333" lon="15.176550000">
<time>2014-07-06T10:32:24Z</time>
 <fix>none</fix>
 <sat>0</sat>
</trkpt>
<trkpt lat="60.880143333" lon="15.176566667">
<time>2014-07-06T10:32:25Z</time>
 <fix>none</fix>
 <sat>0</sat>
</trkpt>
<trkpt lat="60.880188333" lon="15.176590000">
<time>2014-07-06T10:32:26Z</time>
 <fix>none</fix>
 <sat>0</sat>
</trkpt>
<trkpt lat="60.880270000" lon="15.176686667">
<time>2014-07-06T10:32:27Z</time>
 <fix>none</fix>
 <sat>0</sat>
</trkpt>
<trkpt lat="60.880301667" lon="15.176766667">
<time>2014-07-06T10:32:28Z</time>
 <fix>none</fix>
 <sat>0</sat>
</trkpt>
<trkpt lat="60.880326667" lon="15.176868333">
<time>2014-07-06T10:32:29Z</time>
 <fix>none</fix>
 <sat>0</sat>
</trkpt>
<trkpt lat="60.880343333" lon="15.176983333">
<time>2014-07-06T10:32:30Z</time>
 <fix>none</fix>
 <sat>0</sat>
</trkpt>
<trkpt lat="60.880356667" lon="15.177116667">
<time>2014-07-06T10:32:31Z</time>
 <fix>none</fix>
 <sat>0</sat>
</trkpt>
<trkpt lat="60.880375000" lon="15.177263333">
<time>2014-07-06T10:32:32Z</time>
 <fix>none</fix>
 <sat>0</sat>
</trkpt>
<trkpt lat="60.880398333" lon="15.177416667">
<time>2014-07-06T10:32:33Z</time>
 <fix>none</fix>
 <sat>0</sat>
</trkpt>
<trkpt lat="60.880421667" lon="15.177590000">
<time>2014-07-06T10:32:34Z</time>
 <fix>none</fix>
 <sat>0</sat>
</trkpt>
<trkpt lat="60.880446667" lon="15.177778333">
<time>2014-07-06T10:32:35Z</time>
 <fix>none</fix>
 <sat>0</sat>
</trkpt>
<trkpt lat="60.880466667" lon="15.177985000">
<time>2014-07-06T10:32:36Z</time>
 <fix>none</fix>
 <sat>0</sat>
</trkpt>
<trkpt lat="60.880486667" lon="15.178200000">
<time>2014-07-06T10:32:37Z</time>
 <fix>none</fix>
 <sat>0</sat>
</trkpt>
<trkpt lat="60.880486667" lon="15.178200000">
<time>2014-07-06T10:32:38Z</time>
 <fix>none</fix>
 <sat>0</sat>
</trkpt>
<trkpt lat="60.880486667" lon="15.178200000">
<time>2014-07-06T10:32:39Z</time>
 <fix>none</fix>
 <sat>0</sat>
</trkpt>
<trkpt lat="60.880541667" lon="15.178840000">
<time>2014-07-06T10:32:40Z</time>
 <fix>none</fix>
 <sat>0</sat>
</trkpt>
<trkpt lat="60.880541667" lon="15.178840000">
<time>2014-07-06T10:32:41Z</time>
 <fix>none</fix>
 <sat>0</sat>
</trkpt>
<trkpt lat="60.880588333" lon="15.179266667">
<time>2014-07-06T10:32:42Z</time>
 <fix>none</fix>
 <sat>0</sat>
</trkpt>
<trkpt lat="60.880588333" lon="15.179266667">
<time>2014-07-06T10:32:43Z</time>
 <fix>none</fix>
 <sat>0</sat>
</trkpt>
<trkpt lat="60.880628333" lon="15.179696667">
<time>2014-07-06T10:32:44Z</time>
 <fix>none</fix>
 <sat>0</sat>
</trkpt>
<trkpt lat="60.880628333" lon="15.179696667">
<time>2014-07-06T10:32:45Z</time>
 <fix>none</fix>
 <sat>0</sat>
</trkpt>
<trkpt lat="60.880665000" lon="15.180100000">
<time>2014-07-06T10:32:46Z</time>
 <fix>none</fix>
 <sat>0</sat>
</trkpt>
<trkpt lat="60.880665000" lon="15.180100000">
<time>2014-07-06T10:32:47Z</time>
 <fix>none</fix>
 <sat>0</sat>
</trkpt>
<trkpt lat="60.880800000" lon="15.180531667">
<time>2014-07-06T10:32:48Z</time>
 <fix>none</fix>
 <sat>0</sat>
</trkpt>
<trkpt lat="60.880826667" lon="15.180570000">
<time>2014-07-06T10:32:49Z</time>
 <fix>none</fix>
 <sat>0</sat>
</trkpt>
<trkpt lat="60.880860000" lon="15.180585000">
<time>2014-07-06T10:32:50Z</time>
 <fix>none</fix>
 <sat>0</sat>
</trkpt>
<trkpt lat="60.880890000" lon="15.180510000">
<time>2014-07-06T10:32:51Z</time>
 <fix>none</fix>
 <sat>0</sat>
</trkpt>
<trkpt lat="60.880943333" lon="15.180551667">
<time>2014-07-06T10:32:52Z</time>
 <fix>none</fix>
 <sat>0</sat>
</trkpt>
<trkpt lat="60.881093333" lon="15.180511667">
<time>2014-07-06T10:32:53Z</time>
 <fix>none</fix>
 <sat>0</sat>
</trkpt>
<trkpt lat="60.881186667" lon="15.180506667">
<time>2014-07-06T10:32:54Z</time>
 <fix>none</fix>
 <sat>0</sat>
</trkpt>
<trkpt lat="60.881280000" lon="15.180478333">
<time>2014-07-06T10:32:55Z</time>
 <fix>none</fix>
 <sat>0</sat>
</trkpt>
<trkpt lat="60.881366667" lon="15.180451667">
<time>2014-07-06T10:32:56Z</time>
 <fix>none</fix>
 <sat>0</sat>
</trkpt>
<trkpt lat="60.881455000" lon="15.180435000">
<time>2014-07-06T10:32:57Z</time>
 <fix>none</fix>
 <sat>0</sat>
</trkpt>
<trkpt lat="60.881455000" lon="15.180435000">
<time>2014-07-06T10:32:58Z</time>
 <fix>none</fix>
 <sat>0</sat>
</trkpt>
<trkpt lat="60.881670000" lon="15.180463333">
<time>2014-07-06T10:32:59Z</time>
 <fix>none</fix>
 <sat>0</sat>
</trkpt>
<trkpt lat="60.881775000" lon="15.180475000">
<time>2014-07-06T10:33:00Z</time>
 <fix>none</fix>
 <sat>0</sat>
</trkpt>
<trkpt lat="60.881871667" lon="15.180468333">
<time>2014-07-06T10:33:01Z</time>
 <fix>none</fix>
 <sat>0</sat>
</trkpt>
<trkpt lat="60.881871667" lon="15.180468333">
<time>2014-07-06T10:33:02Z</time>
 <fix>none</fix>
 <sat>0</sat>
</trkpt>
<trkpt lat="60.881871667" lon="15.180468333">
<time>2014-07-06T10:33:03Z</time>
 <fix>none</fix>
 <sat>0</sat>
</trkpt>
<trkpt lat="60.882171667" lon="15.180428333">
<time>2014-07-06T10:33:04Z</time>
 <fix>none</fix>
 <sat>0</sat>
</trkpt>
<trkpt lat="60.882171667" lon="15.180428333">
<time>2014-07-06T10:33:05Z</time>
 <fix>none</fix>
 <sat>0</sat>
</trkpt>
<trkpt lat="60.882378333" lon="15.180390000">
<time>2014-07-06T10:33:06Z</time>
 <fix>none</fix>
 <sat>0</sat>
</trkpt>
<trkpt lat="60.882378333" lon="15.180390000">
<time>2014-07-06T10:33:07Z</time>
 <fix>none</fix>
 <sat>0</sat>
</trkpt>
<trkpt lat="60.882583333" lon="15.180373333">
<time>2014-07-06T10:33:08Z</time>
 <fix>none</fix>
 <sat>0</sat>
</trkpt>
<trkpt lat="60.882583333" lon="15.180373333">
<time>2014-07-06T10:33:09Z</time>
 <fix>none</fix>
 <sat>0</sat>
</trkpt>
<trkpt lat="60.882788333" lon="15.180356667">
<time>2014-07-06T10:33:10Z</time>
 <fix>none</fix>
 <sat>0</sat>
</trkpt>
<trkpt lat="60.882788333" lon="15.180356667">
<time>2014-07-06T10:33:11Z</time>
 <fix>none</fix>
 <sat>0</sat>
</trkpt>
<trkpt lat="60.883001667" lon="15.180350000">
<time>2014-07-06T10:33:12Z</time>
 <fix>none</fix>
 <sat>0</sat>
</trkpt>
<trkpt lat="60.883001667" lon="15.180350000">
<time>2014-07-06T10:33:13Z</time>
 <fix>none</fix>
 <sat>0</sat>
</trkpt>
<trkpt lat="60.883203333" lon="15.180363333">
<time>2014-07-06T10:33:14Z</time>
 <fix>none</fix>
 <sat>0</sat>
</trkpt>
<trkpt lat="60.883203333" lon="15.180363333">
<time>2014-07-06T10:33:15Z</time>
 <fix>none</fix>
 <sat>0</sat>
</trkpt>
<trkpt lat="60.883415000" lon="15.180398333">
<time>2014-07-06T10:33:16Z</time>
 <fix>none</fix>
 <sat>0</sat>
</trkpt>
<trkpt lat="60.883415000" lon="15.180398333">
<time>2014-07-06T10:33:17Z</time>
 <fix>none</fix>
 <sat>0</sat>
</trkpt>
<trkpt lat="60.883628333" lon="15.180416667">
<time>2014-07-06T10:33:18Z</time>
 <fix>none</fix>
 <sat>0</sat>
</trkpt>
<trkpt lat="60.883628333" lon="15.180416667">
<time>2014-07-06T10:33:19Z</time>
 <fix>none</fix>
 <sat>0</sat>
</trkpt>
<trkpt lat="60.883861667" lon="15.180465000">
<time>2014-07-06T10:33:20Z</time>
 <fix>none</fix>
 <sat>0</sat>
</trkpt>
<trkpt lat="60.883861667" lon="15.180465000">
<time>2014-07-06T10:33:21Z</time>
 <fix>none</fix>
 <sat>0</sat>
</trkpt>
<trkpt lat="60.884056667" lon="15.180438333">
<time>2014-07-06T10:33:22Z</time>
 <fix>none</fix>
 <sat>0</sat>
</trkpt>
<trkpt lat="60.884056667" lon="15.180438333">
<time>2014-07-06T10:33:23Z</time>
 <fix>none</fix>
 <sat>0</sat>
</trkpt>
<trkpt lat="60.884260000" lon="15.180398333">
<time>2014-07-06T10:33:24Z</time>
 <fix>none</fix>
 <sat>0</sat>
</trkpt>
<trkpt lat="60.884260000" lon="15.180398333">
<time>2014-07-06T10:33:25Z</time>
 <fix>none</fix>
 <sat>0</sat>
</trkpt>
<trkpt lat="60.884463333" lon="15.180366667">
<time>2014-07-06T10:33:26Z</time>
 <fix>none</fix>
 <sat>0</sat>
</trkpt>
<trkpt lat="60.884463333" lon="15.180366667">
<time>2014-07-06T10:33:27Z</time>
 <fix>none</fix>
 <sat>0</sat>
</trkpt>
<trkpt lat="60.884665000" lon="15.180333333">
<time>2014-07-06T10:33:28Z</time>
 <fix>none</fix>
 <sat>0</sat>
</trkpt>
<trkpt lat="60.884665000" lon="15.180333333">
<time>2014-07-06T10:33:29Z</time>
 <fix>none</fix>
 <sat>0</sat>
</trkpt>
<trkpt lat="60.884866667" lon="15.180308333">
<time>2014-07-06T10:33:30Z</time>
 <fix>none</fix>
 <sat>0</sat>
</trkpt>
<trkpt lat="60.884866667" lon="15.180308333">
<time>2014-07-06T10:33:31Z</time>
 <fix>none</fix>
 <sat>0</sat>
</trkpt>
<trkpt lat="60.885063333" lon="15.180266667">
<time>2014-07-06T10:33:32Z</time>
 <fix>none</fix>
 <sat>0</sat>
</trkpt>
<trkpt lat="60.885063333" lon="15.180266667">
<time>2014-07-06T10:33:33Z</time>
 <fix>none</fix>
 <sat>0</sat>
</trkpt>
<trkpt lat="60.885260000" lon="15.180241667">
<time>2014-07-06T10:33:34Z</time>
 <fix>none</fix>
 <sat>0</sat>
</trkpt>
<trkpt lat="60.885260000" lon="15.180241667">
<time>2014-07-06T10:33:35Z</time>
 <fix>none</fix>
 <sat>0</sat>
</trkpt>
<trkpt lat="60.885478333" lon="15.180231667">
<time>2014-07-06T10:33:36Z</time>
 <fix>none</fix>
 <sat>0</sat>
</trkpt>
<trkpt lat="60.885478333" lon="15.180231667">
<time>2014-07-06T10:33:37Z</time>
 <fix>none</fix>
 <sat>0</sat>
</trkpt>
<trkpt lat="60.885685000" lon="15.180210000">
<time>2014-07-06T10:33:38Z</time>
 <fix>none</fix>
 <sat>0</sat>
</trkpt>
<trkpt lat="60.885685000" lon="15.180210000">
<time>2014-07-06T10:33:39Z</time>
 <fix>none</fix>
 <sat>0</sat>
</trkpt>
<trkpt lat="60.885915000" lon="15.180193333">
<time>2014-07-06T10:33:40Z</time>
 <fix>none</fix>
 <sat>0</sat>
</trkpt>
<trkpt lat="60.885915000" lon="15.180193333">
<time>2014-07-06T10:33:41Z</time>
 <fix>none</fix>
 <sat>0</sat>
</trkpt>
<trkpt lat="60.886150000" lon="15.180176667">
<time>2014-07-06T10:33:42Z</time>
 <fix>none</fix>
 <sat>0</sat>
</trkpt>
<trkpt lat="60.886150000" lon="15.180176667">
<time>2014-07-06T10:33:43Z</time>
 <fix>none</fix>
 <sat>0</sat>
</trkpt>
<trkpt lat="60.886378333" lon="15.180140000">
<time>2014-07-06T10:33:44Z</time>
 <fix>none</fix>
 <sat>0</sat>
</trkpt>
<trkpt lat="60.886378333" lon="15.180140000">
<time>2014-07-06T10:33:45Z</time>
 <fix>none</fix>
 <sat>0</sat>
</trkpt>
<trkpt lat="60.886605000" lon="15.180080000">
<time>2014-07-06T10:33:46Z</time>
 <fix>none</fix>
 <sat>0</sat>
</trkpt>
<trkpt lat="60.886605000" lon="15.180080000">
<time>2014-07-06T10:33:47Z</time>
 <fix>none</fix>
 <sat>0</sat>
</trkpt>
<trkpt lat="60.886870000" lon="15.180093333">
<time>2014-07-06T10:33:48Z</time>
 <fix>none</fix>
 <sat>0</sat>
</trkpt>
<trkpt lat="60.886966667" lon="15.180095000">
<time>2014-07-06T10:33:49Z</time>
 <fix>none</fix>
 <sat>0</sat>
</trkpt>
<trkpt lat="60.887103333" lon="15.180115000">
<time>2014-07-06T10:33:50Z</time>
 <fix>none</fix>
 <sat>0</sat>
</trkpt>
<trkpt lat="60.887235000" lon="15.180133333">
<time>2014-07-06T10:33:51Z</time>
 <fix>none</fix>
 <sat>0</sat>
</trkpt>
<trkpt lat="60.887235000" lon="15.180133333">
<time>2014-07-06T10:33:52Z</time>
 <fix>none</fix>
 <sat>0</sat>
</trkpt>
<trkpt lat="60.887365000" lon="15.180123333">
<time>2014-07-06T10:33:53Z</time>
 <fix>none</fix>
 <sat>0</sat>
</trkpt>
<trkpt lat="60.887493333" lon="15.180118333">
<time>2014-07-06T10:33:54Z</time>
 <fix>none</fix>
 <sat>0</sat>
</trkpt>
<trkpt lat="60.887621667" lon="15.180118333">
<time>2014-07-06T10:33:55Z</time>
 <fix>none</fix>
 <sat>0</sat>
</trkpt>
<trkpt lat="60.887743333" lon="15.180121667">
<time>2014-07-06T10:33:56Z</time>
 <fix>none</fix>
 <sat>0</sat>
</trkpt>
<trkpt lat="60.887871667" lon="15.180115000">
<time>2014-07-06T10:33:57Z</time>
 <fix>none</fix>
 <sat>0</sat>
</trkpt>
<trkpt lat="60.888001667" lon="15.180115000">
<time>2014-07-06T10:33:58Z</time>
 <fix>none</fix>
 <sat>0</sat>
</trkpt>
<trkpt lat="60.888263333" lon="15.180120000">
<time>2014-07-06T10:33:59Z</time>
 <fix>none</fix>
 <sat>0</sat>
</trkpt>
<trkpt lat="60.888263333" lon="15.180120000">
<time>2014-07-06T10:34:00Z</time>
 <fix>none</fix>
 <sat>0</sat>
</trkpt>
<trkpt lat="60.888528333" lon="15.180175000">
<time>2014-07-06T10:34:01Z</time>
 <fix>none</fix>
 <sat>0</sat>
</trkpt>
<trkpt lat="60.888661667" lon="15.180206667">
<time>2014-07-06T10:34:02Z</time>
 <fix>none</fix>
 <sat>0</sat>
</trkpt>
<trkpt lat="60.888795000" lon="15.180233333">
<time>2014-07-06T10:34:03Z</time>
 <fix>none</fix>
 <sat>0</sat>
</trkpt>
<trkpt lat="60.888933333" lon="15.180251667">
<time>2014-07-06T10:34:04Z</time>
 <fix>none</fix>
 <sat>0</sat>
</trkpt>
<trkpt lat="60.889070000" lon="15.180251667">
<time>2014-07-06T10:34:05Z</time>
 <fix>none</fix>
 <sat>0</sat>
</trkpt>
<trkpt lat="60.889210000" lon="15.180240000">
<time>2014-07-06T10:34:06Z</time>
 <fix>none</fix>
 <sat>0</sat>
</trkpt>
<trkpt lat="60.889350000" lon="15.180211667">
<time>2014-07-06T10:34:07Z</time>
 <fix>none</fix>
 <sat>0</sat>
</trkpt>
<trkpt lat="60.889350000" lon="15.180211667">
<time>2014-07-06T10:34:08Z</time>
 <fix>none</fix>
 <sat>0</sat>
</trkpt>
<trkpt lat="60.889350000" lon="15.180211667">
<time>2014-07-06T10:34:09Z</time>
 <fix>none</fix>
 <sat>0</sat>
</trkpt>
<trkpt lat="60.889755000" lon="15.180083333">
<time>2014-07-06T10:34:10Z</time>
 <fix>none</fix>
 <sat>0</sat>
</trkpt>
<trkpt lat="60.889755000" lon="15.180083333">
<time>2014-07-06T10:34:11Z</time>
 <fix>none</fix>
 <sat>0</sat>
</trkpt>
<trkpt lat="60.890006667" lon="15.179966667">
<time>2014-07-06T10:34:12Z</time>
 <fix>none</fix>
 <sat>0</sat>
</trkpt>
<trkpt lat="60.890006667" lon="15.179966667">
<time>2014-07-06T10:34:13Z</time>
 <fix>none</fix>
 <sat>0</sat>
</trkpt>
<trkpt lat="60.890265000" lon="15.179861667">
<time>2014-07-06T10:34:14Z</time>
 <fix>none</fix>
 <sat>0</sat>
</trkpt>
<trkpt lat="60.890300000" lon="15.179873333">
<time>2014-07-06T10:34:15Z</time>
 <fix>none</fix>
 <sat>0</sat>
</trkpt>
<trkpt lat="60.890415000" lon="15.179861667">
<time>2014-07-06T10:34:16Z</time>
 <fix>none</fix>
 <sat>0</sat>
</trkpt>
<trkpt lat="60.890568333" lon="15.179881667">
<time>2014-07-06T10:34:17Z</time>
 <fix>none</fix>
 <sat>0</sat>
</trkpt>
<trkpt lat="60.890705000" lon="15.179841667">
<time>2014-07-06T10:34:18Z</time>
 <fix>none</fix>
 <sat>0</sat>
</trkpt>
<trkpt lat="60.890850000" lon="15.179798333">
<time>2014-07-06T10:34:19Z</time>
 <fix>none</fix>
 <sat>0</sat>
</trkpt>
<trkpt lat="60.890996667" lon="15.179776667">
<time>2014-07-06T10:34:20Z</time>
 <fix>none</fix>
 <sat>0</sat>
</trkpt>
<trkpt lat="60.891280000" lon="15.179660000">
<time>2014-07-06T10:34:21Z</time>
 <fix>none</fix>
 <sat>0</sat>
</trkpt>
<trkpt lat="60.891430000" lon="15.179650000">
<time>2014-07-06T10:34:22Z</time>
 <fix>none</fix>
 <sat>0</sat>
</trkpt>
<trkpt lat="60.891430000" lon="15.179650000">
<time>2014-07-06T10:34:23Z</time>
 <fix>none</fix>
 <sat>0</sat>
</trkpt>
<trkpt lat="60.891581667" lon="15.179608333">
<time>2014-07-06T10:34:24Z</time>
 <fix>none</fix>
 <sat>0</sat>
</trkpt>
<trkpt lat="60.891853333" lon="15.179560000">
<time>2014-07-06T10:34:25Z</time>
 <fix>none</fix>
 <sat>0</sat>
</trkpt>
<trkpt lat="60.891991667" lon="15.179518333">
<time>2014-07-06T10:34:26Z</time>
 <fix>none</fix>
 <sat>0</sat>
</trkpt>
<trkpt lat="60.892130000" lon="15.179466667">
<time>2014-07-06T10:34:27Z</time>
 <fix>none</fix>
 <sat>0</sat>
</trkpt>
<trkpt lat="60.892251667" lon="15.179398333">
<time>2014-07-06T10:34:28Z</time>
 <fix>none</fix>
 <sat>0</sat>
</trkpt>
<trkpt lat="60.892373333" lon="15.179333333">
<time>2014-07-06T10:34:29Z</time>
 <fix>none</fix>
 <sat>0</sat>
</trkpt>
<trkpt lat="60.892488333" lon="15.179255000">
<time>2014-07-06T10:34:30Z</time>
 <fix>none</fix>
 <sat>0</sat>
</trkpt>
<trkpt lat="60.892613333" lon="15.179175000">
<time>2014-07-06T10:34:31Z</time>
 <fix>none</fix>
 <sat>0</sat>
</trkpt>
<trkpt lat="60.892746667" lon="15.179111667">
<time>2014-07-06T10:34:32Z</time>
 <fix>none</fix>
 <sat>0</sat>
</trkpt>
<trkpt lat="60.892880000" lon="15.179050000">
<time>2014-07-06T10:34:33Z</time>
 <fix>none</fix>
 <sat>0</sat>
</trkpt>
<trkpt lat="60.893008333" lon="15.178970000">
<time>2014-07-06T10:34:34Z</time>
 <fix>none</fix>
 <sat>0</sat>
</trkpt>
<trkpt lat="60.893140000" lon="15.178876667">
<time>2014-07-06T10:34:35Z</time>
 <fix>none</fix>
 <sat>0</sat>
</trkpt>
<trkpt lat="60.893260000" lon="15.178758333">
<time>2014-07-06T10:34:36Z</time>
 <fix>none</fix>
 <sat>0</sat>
</trkpt>
<trkpt lat="60.893371667" lon="15.178623333">
<time>2014-07-06T10:34:37Z</time>
 <fix>none</fix>
 <sat>0</sat>
</trkpt>
<trkpt lat="60.893371667" lon="15.178623333">
<time>2014-07-06T10:34:38Z</time>
 <fix>none</fix>
 <sat>0</sat>
</trkpt>
<trkpt lat="60.893480000" lon="15.178481667">
<time>2014-07-06T10:34:39Z</time>
 <fix>none</fix>
 <sat>0</sat>
</trkpt>
<trkpt lat="60.893591667" lon="15.178331667">
<time>2014-07-06T10:34:40Z</time>
 <fix>none</fix>
 <sat>0</sat>
</trkpt>
<trkpt lat="60.893691667" lon="15.178163333">
<time>2014-07-06T10:34:41Z</time>
 <fix>none</fix>
 <sat>0</sat>
</trkpt>
<trkpt lat="60.893763333" lon="15.177968333">
<time>2014-07-06T10:34:42Z</time>
 <fix>none</fix>
 <sat>0</sat>
</trkpt>
<trkpt lat="60.893846667" lon="15.177758333">
<time>2014-07-06T10:34:43Z</time>
 <fix>none</fix>
 <sat>0</sat>
</trkpt>
<trkpt lat="60.893938333" lon="15.177568333">
<time>2014-07-06T10:34:44Z</time>
 <fix>none</fix>
 <sat>0</sat>
</trkpt>
<trkpt lat="60.894036667" lon="15.177390000">
<time>2014-07-06T10:34:45Z</time>
 <fix>none</fix>
 <sat>0</sat>
</trkpt>
<trkpt lat="60.894131667" lon="15.177203333">
<time>2014-07-06T10:34:46Z</time>
 <fix>none</fix>
 <sat>0</sat>
</trkpt>
<trkpt lat="60.894306667" lon="15.176806667">
<time>2014-07-06T10:34:47Z</time>
 <fix>none</fix>
 <sat>0</sat>
</trkpt>
<trkpt lat="60.894386667" lon="15.176600000">
<time>2014-07-06T10:34:48Z</time>
 <fix>none</fix>
 <sat>0</sat>
</trkpt>
<trkpt lat="60.894455000" lon="15.176388333">
<time>2014-07-06T10:34:49Z</time>
 <fix>none</fix>
 <sat>0</sat>
</trkpt>
<trkpt lat="60.894521667" lon="15.176176667">
<time>2014-07-06T10:34:50Z</time>
 <fix>none</fix>
 <sat>0</sat>
</trkpt>
<trkpt lat="60.894581667" lon="15.175958333">
<time>2014-07-06T10:34:51Z</time>
 <fix>none</fix>
 <sat>0</sat>
</trkpt>
<trkpt lat="60.894626667" lon="15.175681667">
<time>2014-07-06T10:34:52Z</time>
 <fix>none</fix>
 <sat>0</sat>
</trkpt>
<trkpt lat="60.894658333" lon="15.175438333">
<time>2014-07-06T10:34:53Z</time>
 <fix>none</fix>
 <sat>0</sat>
</trkpt>
<trkpt lat="60.894686667" lon="15.175225000">
<time>2014-07-06T10:34:54Z</time>
 <fix>none</fix>
 <sat>0</sat>
</trkpt>
<trkpt lat="60.894708333" lon="15.175045000">
<time>2014-07-06T10:34:55Z</time>
 <fix>none</fix>
 <sat>0</sat>
</trkpt>
<trkpt lat="60.894708333" lon="15.175045000">
<time>2014-07-06T10:34:56Z</time>
 <fix>none</fix>
 <sat>0</sat>
</trkpt>
<trkpt lat="60.894708333" lon="15.175045000">
<time>2014-07-06T10:34:57Z</time>
 <fix>none</fix>
 <sat>0</sat>
</trkpt>
<trkpt lat="60.894865000" lon="15.174583333">
<time>2014-07-06T10:34:58Z</time>
 <fix>none</fix>
 <sat>0</sat>
</trkpt>
<trkpt lat="60.894865000" lon="15.174583333">
<time>2014-07-06T10:34:59Z</time>
 <fix>none</fix>
 <sat>0</sat>
</trkpt>
<trkpt lat="60.895041667" lon="15.174306667">
<time>2014-07-06T10:35:00Z</time>
 <fix>none</fix>
 <sat>0</sat>
</trkpt>
<trkpt lat="60.895041667" lon="15.174306667">
<time>2014-07-06T10:35:01Z</time>
 <fix>none</fix>
 <sat>0</sat>
</trkpt>
<trkpt lat="60.895203333" lon="15.174186667">
<time>2014-07-06T10:35:02Z</time>
 <fix>none</fix>
 <sat>0</sat>
</trkpt>
<trkpt lat="60.895203333" lon="15.174186667">
<time>2014-07-06T10:35:03Z</time>
 <fix>none</fix>
 <sat>0</sat>
</trkpt>
<trkpt lat="60.895475000" lon="15.174226667">
<time>2014-07-06T10:35:04Z</time>
 <fix>none</fix>
 <sat>0</sat>
</trkpt>
<trkpt lat="60.895475000" lon="15.174226667">
<time>2014-07-06T10:35:05Z</time>
 <fix>none</fix>
 <sat>0</sat>
</trkpt>
<trkpt lat="60.895708333" lon="15.174210000">
<time>2014-07-06T10:35:06Z</time>
 <fix>none</fix>
 <sat>0</sat>
</trkpt>
<trkpt lat="60.895708333" lon="15.174210000">
<time>2014-07-06T10:35:07Z</time>
 <fix>none</fix>
 <sat>0</sat>
</trkpt>
<trkpt lat="60.895928333" lon="15.174115000">
<time>2014-07-06T10:35:08Z</time>
 <fix>none</fix>
 <sat>0</sat>
</trkpt>
<trkpt lat="60.895928333" lon="15.174115000">
<time>2014-07-06T10:35:09Z</time>
 <fix>none</fix>
 <sat>0</sat>
</trkpt>
<trkpt lat="60.896176667" lon="15.174010000">
<time>2014-07-06T10:35:10Z</time>
 <fix>none</fix>
 <sat>0</sat>
</trkpt>
<trkpt lat="60.896176667" lon="15.174010000">
<time>2014-07-06T10:35:11Z</time>
 <fix>none</fix>
 <sat>0</sat>
</trkpt>
<trkpt lat="60.896418333" lon="15.173870000">
<time>2014-07-06T10:35:12Z</time>
 <fix>none</fix>
 <sat>0</sat>
</trkpt>
<trkpt lat="60.896418333" lon="15.173870000">
<time>2014-07-06T10:35:13Z</time>
 <fix>none</fix>
 <sat>0</sat>
</trkpt>
<trkpt lat="60.896670000" lon="15.173711667">
<time>2014-07-06T10:35:14Z</time>
 <fix>none</fix>
 <sat>0</sat>
</trkpt>
<trkpt lat="60.896670000" lon="15.173711667">
<time>2014-07-06T10:35:15Z</time>
 <fix>none</fix>
 <sat>0</sat>
</trkpt>
<trkpt lat="60.896925000" lon="15.173553333">
<time>2014-07-06T10:35:16Z</time>
 <fix>none</fix>
 <sat>0</sat>
</trkpt>
<trkpt lat="60.896925000" lon="15.173553333">
<time>2014-07-06T10:35:17Z</time>
 <fix>none</fix>
 <sat>0</sat>
</trkpt>
<trkpt lat="60.897166667" lon="15.173410000">
<time>2014-07-06T10:35:18Z</time>
 <fix>none</fix>
 <sat>0</sat>
</trkpt>
<trkpt lat="60.897166667" lon="15.173410000">
<time>2014-07-06T10:35:19Z</time>
 <fix>none</fix>
 <sat>0</sat>
</trkpt>
<trkpt lat="60.897413333" lon="15.173348333">
<time>2014-07-06T10:35:20Z</time>
 <fix>none</fix>
 <sat>0</sat>
</trkpt>
<trkpt lat="60.897413333" lon="15.173348333">
<time>2014-07-06T10:35:21Z</time>
 <fix>none</fix>
 <sat>0</sat>
</trkpt>
<trkpt lat="60.897665000" lon="15.173351667">
<time>2014-07-06T10:35:22Z</time>
 <fix>none</fix>
 <sat>0</sat>
</trkpt>
<trkpt lat="60.897665000" lon="15.173351667">
<time>2014-07-06T10:35:23Z</time>
 <fix>none</fix>
 <sat>0</sat>
</trkpt>
<trkpt lat="60.897853333" lon="15.173220000">
<time>2014-07-06T10:35:24Z</time>
 <fix>none</fix>
 <sat>0</sat>
</trkpt>
<trkpt lat="60.897853333" lon="15.173220000">
<time>2014-07-06T10:35:25Z</time>
 <fix>none</fix>
 <sat>0</sat>
</trkpt>
<trkpt lat="60.898081667" lon="15.173085000">
<time>2014-07-06T10:35:26Z</time>
 <fix>none</fix>
 <sat>0</sat>
</trkpt>
<trkpt lat="60.898081667" lon="15.173085000">
<time>2014-07-06T10:35:27Z</time>
 <fix>none</fix>
 <sat>0</sat>
</trkpt>
<trkpt lat="60.898283333" lon="15.173253333">
<time>2014-07-06T10:35:28Z</time>
 <fix>none</fix>
 <sat>0</sat>
</trkpt>
<trkpt lat="60.898283333" lon="15.173253333">
<time>2014-07-06T10:35:29Z</time>
 <fix>none</fix>
 <sat>0</sat>
</trkpt>
<trkpt lat="60.898430000" lon="15.172980000">
<time>2014-07-06T10:35:30Z</time>
 <fix>none</fix>
 <sat>0</sat>
</trkpt>
<trkpt lat="60.898430000" lon="15.172980000">
<time>2014-07-06T10:35:31Z</time>
 <fix>none</fix>
 <sat>0</sat>
</trkpt>
<trkpt lat="60.898581667" lon="15.172881667">
<time>2014-07-06T10:35:32Z</time>
 <fix>none</fix>
 <sat>0</sat>
</trkpt>
<trkpt lat="60.898581667" lon="15.172881667">
<time>2014-07-06T10:35:33Z</time>
 <fix>none</fix>
 <sat>0</sat>
</trkpt>
<trkpt lat="60.898683333" lon="15.172858333">
<time>2014-07-06T10:35:34Z</time>
 <fix>none</fix>
 <sat>0</sat>
</trkpt>
<trkpt lat="60.898683333" lon="15.172858333">
<time>2014-07-06T10:35:35Z</time>
 <fix>none</fix>
 <sat>0</sat>
</trkpt>
<trkpt lat="60.898783333" lon="15.172946667">
<time>2014-07-06T10:35:36Z</time>
 <fix>none</fix>
 <sat>0</sat>
</trkpt>
<trkpt lat="60.898798333" lon="15.173010000">
<time>2014-07-06T10:35:37Z</time>
 <fix>none</fix>
 <sat>0</sat>
</trkpt>
<trkpt lat="60.898811667" lon="15.173168333">
<time>2014-07-06T10:35:38Z</time>
 <fix>none</fix>
 <sat>0</sat>
</trkpt>
<trkpt lat="60.898815000" lon="15.173313333">
<time>2014-07-06T10:35:39Z</time>
 <fix>none</fix>
 <sat>0</sat>
</trkpt>
<trkpt lat="60.898831667" lon="15.173426667">
<time>2014-07-06T10:35:40Z</time>
 <fix>none</fix>
 <sat>0</sat>
</trkpt>
<trkpt lat="60.898845000" lon="15.173546667">
<time>2014-07-06T10:35:41Z</time>
 <fix>none</fix>
 <sat>0</sat>
</trkpt>
<trkpt lat="60.898868333" lon="15.173658333">
<time>2014-07-06T10:35:42Z</time>
 <fix>none</fix>
 <sat>0</sat>
</trkpt>
<trkpt lat="60.898885000" lon="15.173766667">
<time>2014-07-06T10:35:43Z</time>
 <fix>none</fix>
 <sat>0</sat>
</trkpt>
<trkpt lat="60.898906667" lon="15.173855000">
<time>2014-07-06T10:35:44Z</time>
 <fix>none</fix>
 <sat>0</sat>
</trkpt>
<trkpt lat="60.898921667" lon="15.173918333">
<time>2014-07-06T10:35:45Z</time>
 <fix>none</fix>
 <sat>0</sat>
</trkpt>
<trkpt lat="60.898921667" lon="15.173918333">
<time>2014-07-06T10:35:46Z</time>
 <fix>none</fix>
 <sat>0</sat>
</trkpt>
<trkpt lat="60.898933333" lon="15.173976667">
<time>2014-07-06T10:35:47Z</time>
 <fix>none</fix>
 <sat>0</sat>
</trkpt>
<trkpt lat="60.898933333" lon="15.173976667">
<time>2014-07-06T10:35:48Z</time>
 <fix>none</fix>
 <sat>0</sat>
</trkpt>
<trkpt lat="60.898963333" lon="15.174178333">
<time>2014-07-06T10:35:49Z</time>
 <fix>none</fix>
 <sat>0</sat>
</trkpt>
<trkpt lat="60.898963333" lon="15.174178333">
<time>2014-07-06T10:35:50Z</time>
 <fix>none</fix>
 <sat>0</sat>
</trkpt>
<trkpt lat="60.898985000" lon="15.174331667">
<time>2014-07-06T10:35:51Z</time>
 <fix>none</fix>
 <sat>0</sat>
</trkpt>
<trkpt lat="60.898985000" lon="15.174331667">
<time>2014-07-06T10:35:52Z</time>
 <fix>none</fix>
 <sat>0</sat>
</trkpt>
<trkpt lat="60.899021667" lon="15.174491667">
<time>2014-07-06T10:35:53Z</time>
 <fix>none</fix>
 <sat>0</sat>
</trkpt>
<trkpt lat="60.899021667" lon="15.174491667">
<time>2014-07-06T10:35:54Z</time>
 <fix>none</fix>
 <sat>0</sat>
</trkpt>
<trkpt lat="60.899048333" lon="15.174668333">
<time>2014-07-06T10:35:55Z</time>
 <fix>none</fix>
 <sat>0</sat>
</trkpt>
<trkpt lat="60.899048333" lon="15.174668333">
<time>2014-07-06T10:35:56Z</time>
 <fix>none</fix>
 <sat>0</sat>
</trkpt>
<trkpt lat="60.899075000" lon="15.174851667">
<time>2014-07-06T10:35:57Z</time>
 <fix>none</fix>
 <sat>0</sat>
</trkpt>
<trkpt lat="60.899075000" lon="15.174851667">
<time>2014-07-06T10:35:58Z</time>
 <fix>none</fix>
 <sat>0</sat>
</trkpt>
<trkpt lat="60.899135000" lon="15.175028333">
<time>2014-07-06T10:35:59Z</time>
 <fix>none</fix>
 <sat>0</sat>
</trkpt>
<trkpt lat="60.899135000" lon="15.175028333">
<time>2014-07-06T10:36:00Z</time>
 <fix>none</fix>
 <sat>0</sat>
</trkpt>
<trkpt lat="60.899160000" lon="15.175220000">
<time>2014-07-06T10:36:01Z</time>
 <fix>none</fix>
 <sat>0</sat>
</trkpt>
<trkpt lat="60.899160000" lon="15.175220000">
<time>2014-07-06T10:36:02Z</time>
 <fix>none</fix>
 <sat>0</sat>
</trkpt>
<trkpt lat="60.899176667" lon="15.175411667">
<time>2014-07-06T10:36:03Z</time>
 <fix>none</fix>
 <sat>0</sat>
</trkpt>
<trkpt lat="60.899176667" lon="15.175411667">
<time>2014-07-06T10:36:04Z</time>
 <fix>none</fix>
 <sat>0</sat>
</trkpt>
<trkpt lat="60.899190000" lon="15.175613333">
<time>2014-07-06T10:36:05Z</time>
 <fix>none</fix>
 <sat>0</sat>
</trkpt>
<trkpt lat="60.899190000" lon="15.175613333">
<time>2014-07-06T10:36:06Z</time>
 <fix>none</fix>
 <sat>0</sat>
</trkpt>
<trkpt lat="60.899218333" lon="15.175810000">
<time>2014-07-06T10:36:07Z</time>
 <fix>none</fix>
 <sat>0</sat>
</trkpt>
<trkpt lat="60.899218333" lon="15.175810000">
<time>2014-07-06T10:36:08Z</time>
 <fix>none</fix>
 <sat>0</sat>
</trkpt>
<trkpt lat="60.899251667" lon="15.175991667">
<time>2014-07-06T10:36:09Z</time>
 <fix>none</fix>
 <sat>0</sat>
</trkpt>
<trkpt lat="60.899251667" lon="15.175991667">
<time>2014-07-06T10:36:10Z</time>
 <fix>none</fix>
 <sat>0</sat>
</trkpt>
<trkpt lat="60.899285000" lon="15.176166667">
<time>2014-07-06T10:36:11Z</time>
 <fix>none</fix>
 <sat>0</sat>
</trkpt>
<trkpt lat="60.899285000" lon="15.176166667">
<time>2014-07-06T10:36:12Z</time>
 <fix>none</fix>
 <sat>0</sat>
</trkpt>
<trkpt lat="60.899290000" lon="15.176350000">
<time>2014-07-06T10:36:13Z</time>
 <fix>none</fix>
 <sat>0</sat>
</trkpt>
<trkpt lat="60.899290000" lon="15.176350000">
<time>2014-07-06T10:36:14Z</time>
 <fix>none</fix>
 <sat>0</sat>
</trkpt>
<trkpt lat="60.899301667" lon="15.176523333">
<time>2014-07-06T10:36:15Z</time>
 <fix>none</fix>
 <sat>0</sat>
</trkpt>
<trkpt lat="60.899301667" lon="15.176523333">
<time>2014-07-06T10:36:16Z</time>
 <fix>none</fix>
 <sat>0</sat>
</trkpt>
<trkpt lat="60.899301667" lon="15.176523333">
<time>2014-07-06T10:36:17Z</time>
 <fix>none</fix>
 <sat>0</sat>
</trkpt>
<trkpt lat="60.899335000" lon="15.176673333">
<time>2014-07-06T10:36:18Z</time>
 <fix>none</fix>
 <sat>0</sat>
</trkpt>
<trkpt lat="60.899351667" lon="15.176810000">
<time>2014-07-06T10:36:19Z</time>
 <fix>none</fix>
 <sat>0</sat>
</trkpt>
<trkpt lat="60.899351667" lon="15.176810000">
<time>2014-07-06T10:36:20Z</time>
 <fix>none</fix>
 <sat>0</sat>
</trkpt>
<trkpt lat="60.899371667" lon="15.176903333">
<time>2014-07-06T10:36:21Z</time>
 <fix>none</fix>
 <sat>0</sat>
</trkpt>
<trkpt lat="60.899371667" lon="15.176903333">
<time>2014-07-06T10:36:22Z</time>
 <fix>none</fix>
 <sat>0</sat>
</trkpt>
<trkpt lat="60.899395000" lon="15.176955000">
<time>2014-07-06T10:36:23Z</time>
 <fix>none</fix>
 <sat>0</sat>
</trkpt>
<trkpt lat="60.899395000" lon="15.176955000">
<time>2014-07-06T10:36:24Z</time>
 <fix>none</fix>
 <sat>0</sat>
</trkpt>
<trkpt lat="60.899400000" lon="15.176985000">
<time>2014-07-06T10:36:25Z</time>
 <fix>none</fix>
 <sat>0</sat>
</trkpt>
<trkpt lat="60.899400000" lon="15.176985000">
<time>2014-07-06T10:36:26Z</time>
 <fix>none</fix>
 <sat>0</sat>
</trkpt>
<trkpt lat="60.899405000" lon="15.177031667">
<time>2014-07-06T10:36:27Z</time>
 <fix>none</fix>
 <sat>0</sat>
</trkpt>
<trkpt lat="60.899405000" lon="15.177031667">
<time>2014-07-06T10:36:28Z</time>
 <fix>none</fix>
 <sat>0</sat>
</trkpt>
<trkpt lat="60.899428333" lon="15.177091667">
<time>2014-07-06T10:36:29Z</time>
 <fix>none</fix>
 <sat>0</sat>
</trkpt>
<trkpt lat="60.899428333" lon="15.177091667">
<time>2014-07-06T10:36:30Z</time>
 <fix>none</fix>
 <sat>0</sat>
</trkpt>
<trkpt lat="60.899428333" lon="15.177163333">
<time>2014-07-06T10:36:31Z</time>
 <fix>none</fix>
 <sat>0</sat>
</trkpt>
<trkpt lat="60.899428333" lon="15.177163333">
<time>2014-07-06T10:36:32Z</time>
 <fix>none</fix>
 <sat>0</sat>
</trkpt>
<trkpt lat="60.899446667" lon="15.177246667">
<time>2014-07-06T10:36:33Z</time>
 <fix>none</fix>
 <sat>0</sat>
</trkpt>
<trkpt lat="60.899446667" lon="15.177246667">
<time>2014-07-06T10:36:34Z</time>
 <fix>none</fix>
 <sat>0</sat>
</trkpt>
<trkpt lat="60.899461667" lon="15.177330000">
<time>2014-07-06T10:36:35Z</time>
 <fix>none</fix>
 <sat>0</sat>
</trkpt>
<trkpt lat="60.899461667" lon="15.177330000">
<time>2014-07-06T10:36:36Z</time>
 <fix>none</fix>
 <sat>0</sat>
</trkpt>
<trkpt lat="60.899478333" lon="15.177411667">
<time>2014-07-06T10:36:37Z</time>
 <fix>none</fix>
 <sat>0</sat>
</trkpt>
<trkpt lat="60.899478333" lon="15.177411667">
<time>2014-07-06T10:36:38Z</time>
 <fix>none</fix>
 <sat>0</sat>
</trkpt>
<trkpt lat="60.899486667" lon="15.177541667">
<time>2014-07-06T10:36:39Z</time>
 <fix>none</fix>
 <sat>0</sat>
</trkpt>
<trkpt lat="60.899486667" lon="15.177541667">
<time>2014-07-06T10:36:40Z</time>
 <fix>none</fix>
 <sat>0</sat>
</trkpt>
<trkpt lat="60.899503333" lon="15.177678333">
<time>2014-07-06T10:36:41Z</time>
 <fix>none</fix>
 <sat>0</sat>
</trkpt>
<trkpt lat="60.899503333" lon="15.177678333">
<time>2014-07-06T10:36:42Z</time>
 <fix>none</fix>
 <sat>0</sat>
</trkpt>
<trkpt lat="60.899528333" lon="15.177846667">
<time>2014-07-06T10:36:43Z</time>
 <fix>none</fix>
 <sat>0</sat>
</trkpt>
<trkpt lat="60.899528333" lon="15.177846667">
<time>2014-07-06T10:36:44Z</time>
 <fix>none</fix>
 <sat>0</sat>
</trkpt>
<trkpt lat="60.899546667" lon="15.178015000">
<time>2014-07-06T10:36:45Z</time>
 <fix>none</fix>
 <sat>0</sat>
</trkpt>
<trkpt lat="60.899546667" lon="15.178015000">
<time>2014-07-06T10:36:46Z</time>
 <fix>none</fix>
 <sat>0</sat>
</trkpt>
<trkpt lat="60.899563333" lon="15.178198333">
<time>2014-07-06T10:36:47Z</time>
 <fix>none</fix>
 <sat>0</sat>
</trkpt>
<trkpt lat="60.899563333" lon="15.178198333">
<time>2014-07-06T10:36:48Z</time>
 <fix>none</fix>
 <sat>0</sat>
</trkpt>
<trkpt lat="60.899591667" lon="15.178401667">
<time>2014-07-06T10:36:49Z</time>
 <fix>none</fix>
 <sat>0</sat>
</trkpt>
<trkpt lat="60.899591667" lon="15.178401667">
<time>2014-07-06T10:36:50Z</time>
 <fix>none</fix>
 <sat>0</sat>
</trkpt>
<trkpt lat="60.899605000" lon="15.178610000">
<time>2014-07-06T10:36:51Z</time>
 <fix>none</fix>
 <sat>0</sat>
</trkpt>
<trkpt lat="60.899605000" lon="15.178610000">
<time>2014-07-06T10:36:52Z</time>
 <fix>none</fix>
 <sat>0</sat>
</trkpt>
<trkpt lat="60.899628333" lon="15.178830000">
<time>2014-07-06T10:36:53Z</time>
 <fix>none</fix>
 <sat>0</sat>
</trkpt>
<trkpt lat="60.899628333" lon="15.178830000">
<time>2014-07-06T10:36:54Z</time>
 <fix>none</fix>
 <sat>0</sat>
</trkpt>
<trkpt lat="60.899641667" lon="15.179060000">
<time>2014-07-06T10:36:55Z</time>
 <fix>none</fix>
 <sat>0</sat>
</trkpt>
<trkpt lat="60.899641667" lon="15.179060000">
<time>2014-07-06T10:36:56Z</time>
 <fix>none</fix>
 <sat>0</sat>
</trkpt>
<trkpt lat="60.899690000" lon="15.179260000">
<time>2014-07-06T10:36:57Z</time>
 <fix>none</fix>
 <sat>0</sat>
</trkpt>
<trkpt lat="60.899690000" lon="15.179260000">
<time>2014-07-06T10:36:58Z</time>
 <fix>none</fix>
 <sat>0</sat>
</trkpt>
<trkpt lat="60.899726667" lon="15.179461667">
<time>2014-07-06T10:36:59Z</time>
 <fix>none</fix>
 <sat>0</sat>
</trkpt>
<trkpt lat="60.899726667" lon="15.179461667">
<time>2014-07-06T10:37:00Z</time>
 <fix>none</fix>
 <sat>0</sat>
</trkpt>
<trkpt lat="60.899748333" lon="15.179663333">
<time>2014-07-06T10:37:01Z</time>
 <fix>none</fix>
 <sat>0</sat>
</trkpt>
<trkpt lat="60.899748333" lon="15.179663333">
<time>2014-07-06T10:37:02Z</time>
 <fix>none</fix>
 <sat>0</sat>
</trkpt>
<trkpt lat="60.899766667" lon="15.179851667">
<time>2014-07-06T10:37:03Z</time>
 <fix>none</fix>
 <sat>0</sat>
</trkpt>
<trkpt lat="60.899766667" lon="15.179851667">
<time>2014-07-06T10:37:04Z</time>
 <fix>none</fix>
 <sat>0</sat>
</trkpt>
<trkpt lat="60.899776667" lon="15.180053333">
<time>2014-07-06T10:37:05Z</time>
 <fix>none</fix>
 <sat>0</sat>
</trkpt>
<trkpt lat="60.899776667" lon="15.180053333">
<time>2014-07-06T10:37:06Z</time>
 <fix>none</fix>
 <sat>0</sat>
</trkpt>
<trkpt lat="60.899795000" lon="15.180255000">
<time>2014-07-06T10:37:07Z</time>
 <fix>none</fix>
 <sat>0</sat>
</trkpt>
<trkpt lat="60.899795000" lon="15.180255000">
<time>2014-07-06T10:37:08Z</time>
 <fix>none</fix>
 <sat>0</sat>
</trkpt>
<trkpt lat="60.899795000" lon="15.180255000">
<time>2014-07-06T10:37:09Z</time>
 <fix>none</fix>
 <sat>0</sat>
</trkpt>
<trkpt lat="60.899851667" lon="15.180466667">
<time>2014-07-06T10:37:10Z</time>
 <fix>none</fix>
 <sat>0</sat>
</trkpt>
<trkpt lat="60.899918333" lon="15.180690000">
<time>2014-07-06T10:37:11Z</time>
 <fix>none</fix>
 <sat>0</sat>
</trkpt>
<trkpt lat="60.899935000" lon="15.180771667">
<time>2014-07-06T10:37:12Z</time>
 <fix>none</fix>
 <sat>0</sat>
</trkpt>
<trkpt lat="60.899926667" lon="15.180880000">
<time>2014-07-06T10:37:13Z</time>
 <fix>none</fix>
 <sat>0</sat>
</trkpt>
<trkpt lat="60.899936667" lon="15.180995000">
<time>2014-07-06T10:37:14Z</time>
 <fix>none</fix>
 <sat>0</sat>
</trkpt>
<trkpt lat="60.899920000" lon="15.181106667">
<time>2014-07-06T10:37:15Z</time>
 <fix>none</fix>
 <sat>0</sat>
</trkpt>
<trkpt lat="60.899946667" lon="15.181208333">
<time>2014-07-06T10:37:16Z</time>
 <fix>none</fix>
 <sat>0</sat>
</trkpt>
<trkpt lat="60.899946667" lon="15.181208333">
<time>2014-07-06T10:37:17Z</time>
 <fix>none</fix>
 <sat>0</sat>
</trkpt>
<trkpt lat="60.899963333" lon="15.181311667">
<time>2014-07-06T10:37:18Z</time>
 <fix>none</fix>
 <sat>0</sat>
</trkpt>
<trkpt lat="60.899971667" lon="15.181425000">
<time>2014-07-06T10:37:19Z</time>
 <fix>none</fix>
 <sat>0</sat>
</trkpt>
<trkpt lat="60.899978333" lon="15.181526667">
<time>2014-07-06T10:37:20Z</time>
 <fix>none</fix>
 <sat>0</sat>
</trkpt>
<trkpt lat="60.899980000" lon="15.181623333">
<time>2014-07-06T10:37:21Z</time>
 <fix>none</fix>
 <sat>0</sat>
</trkpt>
<trkpt lat="60.899980000" lon="15.181723333">
<time>2014-07-06T10:37:22Z</time>
 <fix>none</fix>
 <sat>0</sat>
</trkpt>
<trkpt lat="60.899975000" lon="15.181820000">
<time>2014-07-06T10:37:23Z</time>
 <fix>none</fix>
 <sat>0</sat>
</trkpt>
<trkpt lat="60.899965000" lon="15.181900000">
<time>2014-07-06T10:37:24Z</time>
 <fix>none</fix>
 <sat>0</sat>
</trkpt>
<trkpt lat="60.899961667" lon="15.181995000">
<time>2014-07-06T10:37:25Z</time>
 <fix>none</fix>
 <sat>0</sat>
</trkpt>
<trkpt lat="60.899951667" lon="15.182193333">
<time>2014-07-06T10:37:26Z</time>
 <fix>none</fix>
 <sat>0</sat>
</trkpt>
<trkpt lat="60.899933333" lon="15.182285000">
<time>2014-07-06T10:37:27Z</time>
 <fix>none</fix>
 <sat>0</sat>
</trkpt>
<trkpt lat="60.899908333" lon="15.182373333">
<time>2014-07-06T10:37:28Z</time>
 <fix>none</fix>
 <sat>0</sat>
</trkpt>
<trkpt lat="60.899883333" lon="15.182470000">
<time>2014-07-06T10:37:29Z</time>
 <fix>none</fix>
 <sat>0</sat>
</trkpt>
<trkpt lat="60.899865000" lon="15.182570000">
<time>2014-07-06T10:37:30Z</time>
 <fix>none</fix>
 <sat>0</sat>
</trkpt>
<trkpt lat="60.899840000" lon="15.182668333">
<time>2014-07-06T10:37:31Z</time>
 <fix>none</fix>
 <sat>0</sat>
</trkpt>
<trkpt lat="60.899805000" lon="15.182766667">
<time>2014-07-06T10:37:32Z</time>
 <fix>none</fix>
 <sat>0</sat>
</trkpt>
<trkpt lat="60.899766667" lon="15.182858333">
<time>2014-07-06T10:37:33Z</time>
 <fix>none</fix>
 <sat>0</sat>
</trkpt>
<trkpt lat="60.899726667" lon="15.182940000">
<time>2014-07-06T10:37:34Z</time>
 <fix>none</fix>
 <sat>0</sat>
</trkpt>
<trkpt lat="60.899696667" lon="15.183030000">
<time>2014-07-06T10:37:35Z</time>
 <fix>none</fix>
 <sat>0</sat>
</trkpt>
<trkpt lat="60.899675000" lon="15.183125000">
<time>2014-07-06T10:37:36Z</time>
 <fix>none</fix>
 <sat>0</sat>
</trkpt>
<trkpt lat="60.899658333" lon="15.183210000">
<time>2014-07-06T10:37:37Z</time>
 <fix>none</fix>
 <sat>0</sat>
</trkpt>
<trkpt lat="60.899648333" lon="15.183291667">
<time>2014-07-06T10:37:38Z</time>
 <fix>none</fix>
 <sat>0</sat>
</trkpt>
<trkpt lat="60.899653333" lon="15.183380000">
<time>2014-07-06T10:37:39Z</time>
 <fix>none</fix>
 <sat>0</sat>
</trkpt>
<trkpt lat="60.899653333" lon="15.183380000">
<time>2014-07-06T10:37:40Z</time>
 <fix>none</fix>
 <sat>0</sat>
</trkpt>
<trkpt lat="60.899658333" lon="15.183465000">
<time>2014-07-06T10:37:41Z</time>
 <fix>none</fix>
 <sat>0</sat>
</trkpt>
<trkpt lat="60.899665000" lon="15.183563333">
<time>2014-07-06T10:37:42Z</time>
 <fix>none</fix>
 <sat>0</sat>
</trkpt>
<trkpt lat="60.899658333" lon="15.183661667">
<time>2014-07-06T10:37:43Z</time>
 <fix>none</fix>
 <sat>0</sat>
</trkpt>
<trkpt lat="60.899641667" lon="15.183756667">
<time>2014-07-06T10:37:44Z</time>
 <fix>none</fix>
 <sat>0</sat>
</trkpt>
<trkpt lat="60.899641667" lon="15.183756667">
<time>2014-07-06T10:37:45Z</time>
 <fix>none</fix>
 <sat>0</sat>
</trkpt>
<trkpt lat="60.899593333" lon="15.184026667">
<time>2014-07-06T10:37:46Z</time>
 <fix>none</fix>
 <sat>0</sat>
</trkpt>
<trkpt lat="60.899593333" lon="15.184026667">
<time>2014-07-06T10:37:47Z</time>
 <fix>none</fix>
 <sat>0</sat>
</trkpt>
<trkpt lat="60.899571667" lon="15.184245000">
<time>2014-07-06T10:37:48Z</time>
 <fix>none</fix>
 <sat>0</sat>
</trkpt>
<trkpt lat="60.899571667" lon="15.184245000">
<time>2014-07-06T10:37:49Z</time>
 <fix>none</fix>
 <sat>0</sat>
</trkpt>
<trkpt lat="60.899568333" lon="15.184385000">
<time>2014-07-06T10:37:50Z</time>
 <fix>none</fix>
 <sat>0</sat>
</trkpt>
<trkpt lat="60.899568333" lon="15.184385000">
<time>2014-07-06T10:37:51Z</time>
 <fix>none</fix>
 <sat>0</sat>
</trkpt>
<trkpt lat="60.899640000" lon="15.184480000">
<time>2014-07-06T10:37:52Z</time>
 <fix>none</fix>
 <sat>0</sat>
</trkpt>
<trkpt lat="60.899640000" lon="15.184480000">
<time>2014-07-06T10:37:53Z</time>
 <fix>none</fix>
 <sat>0</sat>
</trkpt>
<trkpt lat="60.899695000" lon="15.184673333">
<time>2014-07-06T10:37:54Z</time>
 <fix>none</fix>
 <sat>0</sat>
</trkpt>
<trkpt lat="60.899695000" lon="15.184673333">
<time>2014-07-06T10:37:55Z</time>
 <fix>none</fix>
 <sat>0</sat>
</trkpt>
<trkpt lat="60.899871667" lon="15.184841667">
<time>2014-07-06T10:37:56Z</time>
 <fix>none</fix>
 <sat>0</sat>
</trkpt>
<trkpt lat="60.899871667" lon="15.184841667">
<time>2014-07-06T10:37:57Z</time>
 <fix>none</fix>
 <sat>0</sat>
</trkpt>
<trkpt lat="60.899916667" lon="15.184938333">
<time>2014-07-06T10:37:58Z</time>
 <fix>none</fix>
 <sat>0</sat>
</trkpt>
<trkpt lat="60.899916667" lon="15.184938333">
<time>2014-07-06T10:37:59Z</time>
 <fix>none</fix>
 <sat>0</sat>
</trkpt>
<trkpt lat="60.899933333" lon="15.184825000">
<time>2014-07-06T10:38:00Z</time>
 <fix>none</fix>
 <sat>0</sat>
</trkpt>
<trkpt lat="60.899933333" lon="15.184825000">
<time>2014-07-06T10:38:01Z</time>
 <fix>none</fix>
 <sat>0</sat>
</trkpt>
<trkpt lat="60.900086667" lon="15.184843333">
<time>2014-07-06T10:38:02Z</time>
 <fix>none</fix>
 <sat>0</sat>
</trkpt>
<trkpt lat="60.900131667" lon="15.184861667">
<time>2014-07-06T10:38:03Z</time>
 <fix>none</fix>
 <sat>0</sat>
</trkpt>
<trkpt lat="60.900166667" lon="15.184925000">
<time>2014-07-06T10:38:04Z</time>
 <fix>none</fix>
 <sat>0</sat>
</trkpt>
<trkpt lat="60.900190000" lon="15.185053333">
<time>2014-07-06T10:38:05Z</time>
 <fix>none</fix>
 <sat>0</sat>
</trkpt>
<trkpt lat="60.900255000" lon="15.185196667">
<time>2014-07-06T10:38:06Z</time>
 <fix>none</fix>
 <sat>0</sat>
</trkpt>
<trkpt lat="60.900280000" lon="15.185333333">
<time>2014-07-06T10:38:07Z</time>
 <fix>none</fix>
 <sat>0</sat>
</trkpt>
<trkpt lat="60.900296667" lon="15.185480000">
<time>2014-07-06T10:38:08Z</time>
 <fix>none</fix>
 <sat>0</sat>
</trkpt>
<trkpt lat="60.900296667" lon="15.185756667">
<time>2014-07-06T10:38:09Z</time>
 <fix>none</fix>
 <sat>0</sat>
</trkpt>
<trkpt lat="60.900301667" lon="15.185893333">
<time>2014-07-06T10:38:10Z</time>
 <fix>none</fix>
 <sat>0</sat>
</trkpt>
<trkpt lat="60.900301667" lon="15.185893333">
<time>2014-07-06T10:38:11Z</time>
 <fix>none</fix>
 <sat>0</sat>
</trkpt>
<trkpt lat="60.900321667" lon="15.186178333">
<time>2014-07-06T10:38:12Z</time>
 <fix>none</fix>
 <sat>0</sat>
</trkpt>
<trkpt lat="60.900335000" lon="15.186315000">
<time>2014-07-06T10:38:13Z</time>
 <fix>none</fix>
 <sat>0</sat>
</trkpt>
<trkpt lat="60.900356667" lon="15.186440000">
<time>2014-07-06T10:38:14Z</time>
 <fix>none</fix>
 <sat>0</sat>
</trkpt>
<trkpt lat="60.900388333" lon="15.186551667">
<time>2014-07-06T10:38:15Z</time>
 <fix>none</fix>
 <sat>0</sat>
</trkpt>
<trkpt lat="60.900418333" lon="15.186636667">
<time>2014-07-06T10:38:16Z</time>
 <fix>none</fix>
 <sat>0</sat>
</trkpt>
<trkpt lat="60.900460000" lon="15.186710000">
<time>2014-07-06T10:38:17Z</time>
 <fix>none</fix>
 <sat>0</sat>
</trkpt>
<trkpt lat="60.900505000" lon="15.186765000">
<time>2014-07-06T10:38:18Z</time>
 <fix>none</fix>
 <sat>0</sat>
</trkpt>
<trkpt lat="60.900551667" lon="15.186806667">
<time>2014-07-06T10:38:19Z</time>
 <fix>none</fix>
 <sat>0</sat>
</trkpt>
<trkpt lat="60.900598333" lon="15.186860000">
<time>2014-07-06T10:38:20Z</time>
 <fix>none</fix>
 <sat>0</sat>
</trkpt>
<trkpt lat="60.900656667" lon="15.186893333">
<time>2014-07-06T10:38:21Z</time>
 <fix>none</fix>
 <sat>0</sat>
</trkpt>
<trkpt lat="60.900718333" lon="15.186920000">
<time>2014-07-06T10:38:22Z</time>
 <fix>none</fix>
 <sat>0</sat>
</trkpt>
<trkpt lat="60.900781667" lon="15.186958333">
<time>2014-07-06T10:38:23Z</time>
 <fix>none</fix>
 <sat>0</sat>
</trkpt>
<trkpt lat="60.900845000" lon="15.186991667">
<time>2014-07-06T10:38:24Z</time>
 <fix>none</fix>
 <sat>0</sat>
</trkpt>
<trkpt lat="60.900910000" lon="15.187015000">
<time>2014-07-06T10:38:25Z</time>
 <fix>none</fix>
 <sat>0</sat>
</trkpt>
<trkpt lat="60.900910000" lon="15.187015000">
<time>2014-07-06T10:38:26Z</time>
 <fix>none</fix>
 <sat>0</sat>
</trkpt>
<trkpt lat="60.900971667" lon="15.187045000">
<time>2014-07-06T10:38:27Z</time>
 <fix>none</fix>
 <sat>0</sat>
</trkpt>
<trkpt lat="60.901036667" lon="15.187075000">
<time>2014-07-06T10:38:28Z</time>
 <fix>none</fix>
 <sat>0</sat>
</trkpt>
<trkpt lat="60.901108333" lon="15.187108333">
<time>2014-07-06T10:38:29Z</time>
 <fix>none</fix>
 <sat>0</sat>
</trkpt>
<trkpt lat="60.901108333" lon="15.187108333">
<time>2014-07-06T10:38:30Z</time>
 <fix>none</fix>
 <sat>0</sat>
</trkpt>
<trkpt lat="60.901283333" lon="15.187231667">
<time>2014-07-06T10:38:31Z</time>
 <fix>none</fix>
 <sat>0</sat>
</trkpt>
<trkpt lat="60.901283333" lon="15.187231667">
<time>2014-07-06T10:38:32Z</time>
 <fix>none</fix>
 <sat>0</sat>
</trkpt>
<trkpt lat="60.901408333" lon="15.187291667">
<time>2014-07-06T10:38:33Z</time>
 <fix>none</fix>
 <sat>0</sat>
</trkpt>
<trkpt lat="60.901408333" lon="15.187291667">
<time>2014-07-06T10:38:34Z</time>
 <fix>none</fix>
 <sat>0</sat>
</trkpt>
<trkpt lat="60.901536667" lon="15.187396667">
<time>2014-07-06T10:38:35Z</time>
 <fix>none</fix>
 <sat>0</sat>
</trkpt>
<trkpt lat="60.901585000" lon="15.187450000">
<time>2014-07-06T10:38:36Z</time>
 <fix>none</fix>
 <sat>0</sat>
</trkpt>
<trkpt lat="60.901648333" lon="15.187431667">
<time>2014-07-06T10:38:37Z</time>
 <fix>none</fix>
 <sat>0</sat>
</trkpt>
<trkpt lat="60.901681667" lon="15.187405000">
<time>2014-07-06T10:38:38Z</time>
 <fix>none</fix>
 <sat>0</sat>
</trkpt>
<trkpt lat="60.901736667" lon="15.187468333">
<time>2014-07-06T10:38:39Z</time>
 <fix>none</fix>
 <sat>0</sat>
</trkpt>
<trkpt lat="60.901813333" lon="15.187531667">
<time>2014-07-06T10:38:40Z</time>
 <fix>none</fix>
 <sat>0</sat>
</trkpt>
<trkpt lat="60.901878333" lon="15.187585000">
<time>2014-07-06T10:38:41Z</time>
 <fix>none</fix>
 <sat>0</sat>
</trkpt>
<trkpt lat="60.901941667" lon="15.187650000">
<time>2014-07-06T10:38:42Z</time>
 <fix>none</fix>
 <sat>0</sat>
</trkpt>
<trkpt lat="60.901991667" lon="15.187696667">
<time>2014-07-06T10:38:43Z</time>
 <fix>none</fix>
 <sat>0</sat>
</trkpt>
<trkpt lat="60.902043333" lon="15.187761667">
<time>2014-07-06T10:38:44Z</time>
 <fix>none</fix>
 <sat>0</sat>
</trkpt>
<trkpt lat="60.902091667" lon="15.187835000">
<time>2014-07-06T10:38:45Z</time>
 <fix>none</fix>
 <sat>0</sat>
</trkpt>
<trkpt lat="60.902128333" lon="15.187928333">
<time>2014-07-06T10:38:46Z</time>
 <fix>none</fix>
 <sat>0</sat>
</trkpt>
<trkpt lat="60.902160000" lon="15.188033333">
<time>2014-07-06T10:38:47Z</time>
 <fix>none</fix>
 <sat>0</sat>
</trkpt>
<trkpt lat="60.902176667" lon="15.188126667">
<time>2014-07-06T10:38:48Z</time>
 <fix>none</fix>
 <sat>0</sat>
</trkpt>
<trkpt lat="60.902176667" lon="15.188126667">
<time>2014-07-06T10:38:49Z</time>
 <fix>none</fix>
 <sat>0</sat>
</trkpt>
<trkpt lat="60.902148333" lon="15.188206667">
<time>2014-07-06T10:38:50Z</time>
 <fix>none</fix>
 <sat>0</sat>
</trkpt>
<trkpt lat="60.902121667" lon="15.188296667">
<time>2014-07-06T10:38:51Z</time>
 <fix>none</fix>
 <sat>0</sat>
</trkpt>
<trkpt lat="60.902048333" lon="15.188366667">
<time>2014-07-06T10:38:52Z</time>
 <fix>none</fix>
 <sat>0</sat>
</trkpt>
<trkpt lat="60.901986667" lon="15.188441667">
<time>2014-07-06T10:38:53Z</time>
 <fix>none</fix>
 <sat>0</sat>
</trkpt>
<trkpt lat="60.901903333" lon="15.188506667">
<time>2014-07-06T10:38:54Z</time>
 <fix>none</fix>
 <sat>0</sat>
</trkpt>
<trkpt lat="60.901835000" lon="15.188578333">
<time>2014-07-06T10:38:55Z</time>
 <fix>none</fix>
 <sat>0</sat>
</trkpt>
<trkpt lat="60.901766667" lon="15.188651667">
<time>2014-07-06T10:38:56Z</time>
 <fix>none</fix>
 <sat>0</sat>
</trkpt>
<trkpt lat="60.901766667" lon="15.188651667">
<time>2014-07-06T10:38:57Z</time>
 <fix>none</fix>
 <sat>0</sat>
</trkpt>
<trkpt lat="60.901546667" lon="15.188920000">
<time>2014-07-06T10:38:58Z</time>
 <fix>none</fix>
 <sat>0</sat>
</trkpt>
<trkpt lat="60.901546667" lon="15.188920000">
<time>2014-07-06T10:38:59Z</time>
 <fix>none</fix>
 <sat>0</sat>
</trkpt>
<trkpt lat="60.901386667" lon="15.189076667">
<time>2014-07-06T10:39:00Z</time>
 <fix>none</fix>
 <sat>0</sat>
</trkpt>
<trkpt lat="60.901386667" lon="15.189076667">
<time>2014-07-06T10:39:01Z</time>
 <fix>none</fix>
 <sat>0</sat>
</trkpt>
<trkpt lat="60.901235000" lon="15.189223333">
<time>2014-07-06T10:39:02Z</time>
 <fix>none</fix>
 <sat>0</sat>
</trkpt>
<trkpt lat="60.901235000" lon="15.189223333">
<time>2014-07-06T10:39:03Z</time>
 <fix>none</fix>
 <sat>0</sat>
</trkpt>
<trkpt lat="60.901173333" lon="15.189148333">
<time>2014-07-06T10:39:04Z</time>
 <fix>none</fix>
 <sat>0</sat>
</trkpt>
<trkpt lat="60.901173333" lon="15.189148333">
<time>2014-07-06T10:39:05Z</time>
 <fix>none</fix>
 <sat>0</sat>
</trkpt>
<trkpt lat="60.901028333" lon="15.189268333">
<time>2014-07-06T10:39:06Z</time>
 <fix>none</fix>
 <sat>0</sat>
</trkpt>
<trkpt lat="60.901028333" lon="15.189268333">
<time>2014-07-06T10:39:07Z</time>
 <fix>none</fix>
 <sat>0</sat>
</trkpt>
<trkpt lat="60.900900000" lon="15.189393333">
<time>2014-07-06T10:39:08Z</time>
 <fix>none</fix>
 <sat>0</sat>
</trkpt>
<trkpt lat="60.900900000" lon="15.189393333">
<time>2014-07-06T10:39:09Z</time>
 <fix>none</fix>
 <sat>0</sat>
</trkpt>
<trkpt lat="60.900760000" lon="15.189500000">
<time>2014-07-06T10:39:10Z</time>
 <fix>none</fix>
 <sat>0</sat>
</trkpt>
<trkpt lat="60.900760000" lon="15.189500000">
<time>2014-07-06T10:39:11Z</time>
 <fix>none</fix>
 <sat>0</sat>
</trkpt>
<trkpt lat="60.900645000" lon="15.189596667">
<time>2014-07-06T10:39:12Z</time>
 <fix>none</fix>
 <sat>0</sat>
</trkpt>
<trkpt lat="60.900645000" lon="15.189596667">
<time>2014-07-06T10:39:13Z</time>
 <fix>none</fix>
 <sat>0</sat>
</trkpt>
<trkpt lat="60.900525000" lon="15.189660000">
<time>2014-07-06T10:39:14Z</time>
 <fix>none</fix>
 <sat>0</sat>
</trkpt>
<trkpt lat="60.900525000" lon="15.189660000">
<time>2014-07-06T10:39:15Z</time>
 <fix>none</fix>
 <sat>0</sat>
</trkpt>
<trkpt lat="60.900395000" lon="15.189698333">
<time>2014-07-06T10:39:16Z</time>
 <fix>none</fix>
 <sat>0</sat>
</trkpt>
<trkpt lat="60.900395000" lon="15.189698333">
<time>2014-07-06T10:39:17Z</time>
 <fix>none</fix>
 <sat>0</sat>
</trkpt>
<trkpt lat="60.900268333" lon="15.189738333">
<time>2014-07-06T10:39:18Z</time>
 <fix>none</fix>
 <sat>0</sat>
</trkpt>
<trkpt lat="60.900268333" lon="15.189738333">
<time>2014-07-06T10:39:19Z</time>
 <fix>none</fix>
 <sat>0</sat>
</trkpt>
<trkpt lat="60.900138333" lon="15.189806667">
<time>2014-07-06T10:39:20Z</time>
 <fix>none</fix>
 <sat>0</sat>
</trkpt>
<trkpt lat="60.900138333" lon="15.189806667">
<time>2014-07-06T10:39:21Z</time>
 <fix>none</fix>
 <sat>0</sat>
</trkpt>
<trkpt lat="60.900011667" lon="15.189835000">
<time>2014-07-06T10:39:22Z</time>
 <fix>none</fix>
 <sat>0</sat>
</trkpt>
<trkpt lat="60.900011667" lon="15.189835000">
<time>2014-07-06T10:39:23Z</time>
 <fix>none</fix>
 <sat>0</sat>
</trkpt>
<trkpt lat="60.899878333" lon="15.189858333">
<time>2014-07-06T10:39:24Z</time>
 <fix>none</fix>
 <sat>0</sat>
</trkpt>
<trkpt lat="60.899878333" lon="15.189858333">
<time>2014-07-06T10:39:25Z</time>
 <fix>none</fix>
 <sat>0</sat>
</trkpt>
<trkpt lat="60.899746667" lon="15.189873333">
<time>2014-07-06T10:39:26Z</time>
 <fix>none</fix>
 <sat>0</sat>
</trkpt>
<trkpt lat="60.899746667" lon="15.189873333">
<time>2014-07-06T10:39:27Z</time>
 <fix>none</fix>
 <sat>0</sat>
</trkpt>
<trkpt lat="60.899615000" lon="15.189918333">
<time>2014-07-06T10:39:28Z</time>
 <fix>none</fix>
 <sat>0</sat>
</trkpt>
<trkpt lat="60.899615000" lon="15.189918333">
<time>2014-07-06T10:39:29Z</time>
 <fix>none</fix>
 <sat>0</sat>
</trkpt>
<trkpt lat="60.899485000" lon="15.189955000">
<time>2014-07-06T10:39:30Z</time>
 <fix>none</fix>
 <sat>0</sat>
</trkpt>
<trkpt lat="60.899485000" lon="15.189955000">
<time>2014-07-06T10:39:31Z</time>
 <fix>none</fix>
 <sat>0</sat>
</trkpt>
<trkpt lat="60.899348333" lon="15.190000000">
<time>2014-07-06T10:39:32Z</time>
 <fix>none</fix>
 <sat>0</sat>
</trkpt>
<trkpt lat="60.899348333" lon="15.190000000">
<time>2014-07-06T10:39:33Z</time>
 <fix>none</fix>
 <sat>0</sat>
</trkpt>
<trkpt lat="60.899208333" lon="15.190011667">
<time>2014-07-06T10:39:34Z</time>
 <fix>none</fix>
 <sat>0</sat>
</trkpt>
<trkpt lat="60.899208333" lon="15.190011667">
<time>2014-07-06T10:39:35Z</time>
 <fix>none</fix>
 <sat>0</sat>
</trkpt>
<trkpt lat="60.899063333" lon="15.190050000">
<time>2014-07-06T10:39:36Z</time>
 <fix>none</fix>
 <sat>0</sat>
</trkpt>
<trkpt lat="60.899063333" lon="15.190050000">
<time>2014-07-06T10:39:37Z</time>
 <fix>none</fix>
 <sat>0</sat>
</trkpt>
<trkpt lat="60.898940000" lon="15.190073333">
<time>2014-07-06T10:39:38Z</time>
 <fix>none</fix>
 <sat>0</sat>
</trkpt>
<trkpt lat="60.898940000" lon="15.190073333">
<time>2014-07-06T10:39:39Z</time>
 <fix>none</fix>
 <sat>0</sat>
</trkpt>
<trkpt lat="60.898820000" lon="15.190096667">
<time>2014-07-06T10:39:40Z</time>
 <fix>none</fix>
 <sat>0</sat>
</trkpt>
<trkpt lat="60.898820000" lon="15.190096667">
<time>2014-07-06T10:39:41Z</time>
 <fix>none</fix>
 <sat>0</sat>
</trkpt>
<trkpt lat="60.898820000" lon="15.190096667">
<time>2014-07-06T10:39:42Z</time>
 <fix>none</fix>
 <sat>0</sat>
</trkpt>
<trkpt lat="60.898705000" lon="15.190120000">
<time>2014-07-06T10:39:43Z</time>
 <fix>none</fix>
 <sat>0</sat>
</trkpt>
<trkpt lat="60.898580000" lon="15.190146667">
<time>2014-07-06T10:39:44Z</time>
 <fix>none</fix>
 <sat>0</sat>
</trkpt>
<trkpt lat="60.898580000" lon="15.190146667">
<time>2014-07-06T10:39:45Z</time>
 <fix>none</fix>
 <sat>0</sat>
</trkpt>
<trkpt lat="60.898463333" lon="15.190136667">
<time>2014-07-06T10:39:46Z</time>
 <fix>none</fix>
 <sat>0</sat>
</trkpt>
<trkpt lat="60.898463333" lon="15.190136667">
<time>2014-07-06T10:39:47Z</time>
 <fix>none</fix>
 <sat>0</sat>
</trkpt>
<trkpt lat="60.898348333" lon="15.190150000">
<time>2014-07-06T10:39:48Z</time>
 <fix>none</fix>
 <sat>0</sat>
</trkpt>
<trkpt lat="60.898348333" lon="15.190150000">
<time>2014-07-06T10:39:49Z</time>
 <fix>none</fix>
 <sat>0</sat>
</trkpt>
<trkpt lat="60.898236667" lon="15.190163333">
<time>2014-07-06T10:39:50Z</time>
 <fix>none</fix>
 <sat>0</sat>
</trkpt>
<trkpt lat="60.898236667" lon="15.190163333">
<time>2014-07-06T10:39:51Z</time>
 <fix>none</fix>
 <sat>0</sat>
</trkpt>
<trkpt lat="60.898110000" lon="15.190180000">
<time>2014-07-06T10:39:52Z</time>
 <fix>none</fix>
 <sat>0</sat>
</trkpt>
<trkpt lat="60.898110000" lon="15.190180000">
<time>2014-07-06T10:39:53Z</time>
 <fix>none</fix>
 <sat>0</sat>
</trkpt>
<trkpt lat="60.897980000" lon="15.190198333">
<time>2014-07-06T10:39:54Z</time>
 <fix>none</fix>
 <sat>0</sat>
</trkpt>
<trkpt lat="60.897980000" lon="15.190198333">
<time>2014-07-06T10:39:55Z</time>
 <fix>none</fix>
 <sat>0</sat>
</trkpt>
<trkpt lat="60.897845000" lon="15.190225000">
<time>2014-07-06T10:39:56Z</time>
 <fix>none</fix>
 <sat>0</sat>
</trkpt>
<trkpt lat="60.897845000" lon="15.190225000">
<time>2014-07-06T10:39:57Z</time>
 <fix>none</fix>
 <sat>0</sat>
</trkpt>
<trkpt lat="60.897718333" lon="15.190223333">
<time>2014-07-06T10:39:58Z</time>
 <fix>none</fix>
 <sat>0</sat>
</trkpt>
<trkpt lat="60.897718333" lon="15.190223333">
<time>2014-07-06T10:39:59Z</time>
 <fix>none</fix>
 <sat>0</sat>
</trkpt>
<trkpt lat="60.897595000" lon="15.190245000">
<time>2014-07-06T10:40:00Z</time>
 <fix>none</fix>
 <sat>0</sat>
</trkpt>
<trkpt lat="60.897586667" lon="15.190245000">
<time>2014-07-06T10:40:01Z</time>
 <fix>none</fix>
 <sat>0</sat>
</trkpt>
<trkpt lat="60.897540000" lon="15.190248333">
<time>2014-07-06T10:40:02Z</time>
 <fix>none</fix>
 <sat>0</sat>
</trkpt>
<trkpt lat="60.897488333" lon="15.190258333">
<time>2014-07-06T10:40:03Z</time>
 <fix>none</fix>
 <sat>0</sat>
</trkpt>
<trkpt lat="60.897426667" lon="15.190281667">
<time>2014-07-06T10:40:04Z</time>
 <fix>none</fix>
 <sat>0</sat>
</trkpt>
<trkpt lat="60.897368333" lon="15.190296667">
<time>2014-07-06T10:40:05Z</time>
 <fix>none</fix>
 <sat>0</sat>
</trkpt>
<trkpt lat="60.897266667" lon="15.190318333">
<time>2014-07-06T10:40:06Z</time>
 <fix>none</fix>
 <sat>0</sat>
</trkpt>
<trkpt lat="60.897218333" lon="15.190318333">
<time>2014-07-06T10:40:07Z</time>
 <fix>none</fix>
 <sat>0</sat>
</trkpt>
<trkpt lat="60.897168333" lon="15.190318333">
<time>2014-07-06T10:40:08Z</time>
 <fix>none</fix>
 <sat>0</sat>
</trkpt>
<trkpt lat="60.897121667" lon="15.190325000">
<time>2014-07-06T10:40:09Z</time>
 <fix>none</fix>
 <sat>0</sat>
</trkpt>
<trkpt lat="60.897075000" lon="15.190336667">
<time>2014-07-06T10:40:10Z</time>
 <fix>none</fix>
 <sat>0</sat>
</trkpt>
<trkpt lat="60.897031667" lon="15.190346667">
<time>2014-07-06T10:40:11Z</time>
 <fix>none</fix>
 <sat>0</sat>
</trkpt>
<trkpt lat="60.896985000" lon="15.190356667">
<time>2014-07-06T10:40:12Z</time>
 <fix>none</fix>
 <sat>0</sat>
</trkpt>
<trkpt lat="60.896938333" lon="15.190365000">
<time>2014-07-06T10:40:13Z</time>
 <fix>none</fix>
 <sat>0</sat>
</trkpt>
<trkpt lat="60.896891667" lon="15.190373333">
<time>2014-07-06T10:40:14Z</time>
 <fix>none</fix>
 <sat>0</sat>
</trkpt>
<trkpt lat="60.896891667" lon="15.190373333">
<time>2014-07-06T10:40:15Z</time>
 <fix>none</fix>
 <sat>0</sat>
</trkpt>
<trkpt lat="60.896891667" lon="15.190373333">
<time>2014-07-06T10:40:16Z</time>
 <fix>none</fix>
 <sat>0</sat>
</trkpt>
<trkpt lat="60.896758333" lon="15.190381667">
<time>2014-07-06T10:40:17Z</time>
 <fix>none</fix>
 <sat>0</sat>
</trkpt>
<trkpt lat="60.896758333" lon="15.190381667">
<time>2014-07-06T10:40:18Z</time>
 <fix>none</fix>
 <sat>0</sat>
</trkpt>
<trkpt lat="60.896660000" lon="15.190386667">
<time>2014-07-06T10:40:19Z</time>
 <fix>none</fix>
 <sat>0</sat>
</trkpt>
<trkpt lat="60.896660000" lon="15.190386667">
<time>2014-07-06T10:40:20Z</time>
 <fix>none</fix>
 <sat>0</sat>
</trkpt>
<trkpt lat="60.896568333" lon="15.190410000">
<time>2014-07-06T10:40:21Z</time>
 <fix>none</fix>
 <sat>0</sat>
</trkpt>
<trkpt lat="60.896568333" lon="15.190410000">
<time>2014-07-06T10:40:22Z</time>
 <fix>none</fix>
 <sat>0</sat>
</trkpt>
<trkpt lat="60.896460000" lon="15.190465000">
<time>2014-07-06T10:40:23Z</time>
 <fix>none</fix>
 <sat>0</sat>
</trkpt>
<trkpt lat="60.896460000" lon="15.190465000">
<time>2014-07-06T10:40:24Z</time>
 <fix>none</fix>
 <sat>0</sat>
</trkpt>
<trkpt lat="60.896350000" lon="15.190480000">
<time>2014-07-06T10:40:25Z</time>
 <fix>none</fix>
 <sat>0</sat>
</trkpt>
<trkpt lat="60.896350000" lon="15.190480000">
<time>2014-07-06T10:40:26Z</time>
 <fix>none</fix>
 <sat>0</sat>
</trkpt>
<trkpt lat="60.896350000" lon="15.190480000">
<time>2014-07-06T10:40:27Z</time>
 <fix>none</fix>
 <sat>0</sat>
</trkpt>
<trkpt lat="60.896241667" lon="15.190491667">
<time>2014-07-06T10:40:28Z</time>
 <fix>none</fix>
 <sat>0</sat>
</trkpt>
<trkpt lat="60.896145000" lon="15.190491667">
<time>2014-07-06T10:40:29Z</time>
 <fix>none</fix>
 <sat>0</sat>
</trkpt>
<trkpt lat="60.896145000" lon="15.190491667">
<time>2014-07-06T10:40:30Z</time>
 <fix>none</fix>
 <sat>0</sat>
</trkpt>
<trkpt lat="60.896050000" lon="15.190521667">
<time>2014-07-06T10:40:31Z</time>
 <fix>none</fix>
 <sat>0</sat>
</trkpt>
<trkpt lat="60.896050000" lon="15.190521667">
<time>2014-07-06T10:40:32Z</time>
 <fix>none</fix>
 <sat>0</sat>
</trkpt>
<trkpt lat="60.895950000" lon="15.190536667">
<time>2014-07-06T10:40:33Z</time>
 <fix>none</fix>
 <sat>0</sat>
</trkpt>
<trkpt lat="60.895950000" lon="15.190536667">
<time>2014-07-06T10:40:34Z</time>
 <fix>none</fix>
 <sat>0</sat>
</trkpt>
<trkpt lat="60.895838333" lon="15.190568333">
<time>2014-07-06T10:40:35Z</time>
 <fix>none</fix>
 <sat>0</sat>
</trkpt>
<trkpt lat="60.895838333" lon="15.190568333">
<time>2014-07-06T10:40:36Z</time>
 <fix>none</fix>
 <sat>0</sat>
</trkpt>
<trkpt lat="60.895731667" lon="15.190586667">
<time>2014-07-06T10:40:37Z</time>
 <fix>none</fix>
 <sat>0</sat>
</trkpt>
<trkpt lat="60.895731667" lon="15.190586667">
<time>2014-07-06T10:40:38Z</time>
 <fix>none</fix>
 <sat>0</sat>
</trkpt>
<trkpt lat="60.895605000" lon="15.190583333">
<time>2014-07-06T10:40:39Z</time>
 <fix>none</fix>
 <sat>0</sat>
</trkpt>
<trkpt lat="60.895605000" lon="15.190583333">
<time>2014-07-06T10:40:40Z</time>
 <fix>none</fix>
 <sat>0</sat>
</trkpt>
<trkpt lat="60.895468333" lon="15.190630000">
<time>2014-07-06T10:40:41Z</time>
 <fix>none</fix>
 <sat>0</sat>
</trkpt>
<trkpt lat="60.895468333" lon="15.190630000">
<time>2014-07-06T10:40:42Z</time>
 <fix>none</fix>
 <sat>0</sat>
</trkpt>
<trkpt lat="60.895350000" lon="15.190641667">
<time>2014-07-06T10:40:43Z</time>
 <fix>none</fix>
 <sat>0</sat>
</trkpt>
<trkpt lat="60.895350000" lon="15.190641667">
<time>2014-07-06T10:40:44Z</time>
 <fix>none</fix>
 <sat>0</sat>
</trkpt>
<trkpt lat="60.895251667" lon="15.190630000">
<time>2014-07-06T10:40:45Z</time>
 <fix>none</fix>
 <sat>0</sat>
</trkpt>
<trkpt lat="60.895251667" lon="15.190630000">
<time>2014-07-06T10:40:46Z</time>
 <fix>none</fix>
 <sat>0</sat>
</trkpt>
<trkpt lat="60.895151667" lon="15.190641667">
<time>2014-07-06T10:40:47Z</time>
 <fix>none</fix>
 <sat>0</sat>
</trkpt>
<trkpt lat="60.895151667" lon="15.190641667">
<time>2014-07-06T10:40:48Z</time>
 <fix>none</fix>
 <sat>0</sat>
</trkpt>
<trkpt lat="60.895056667" lon="15.190651667">
<time>2014-07-06T10:40:49Z</time>
 <fix>none</fix>
 <sat>0</sat>
</trkpt>
<trkpt lat="60.895056667" lon="15.190651667">
<time>2014-07-06T10:40:50Z</time>
 <fix>none</fix>
 <sat>0</sat>
</trkpt>
<trkpt lat="60.894953333" lon="15.190678333">
<time>2014-07-06T10:40:51Z</time>
 <fix>none</fix>
 <sat>0</sat>
</trkpt>
<trkpt lat="60.894953333" lon="15.190678333">
<time>2014-07-06T10:40:52Z</time>
 <fix>none</fix>
 <sat>0</sat>
</trkpt>
<trkpt lat="60.894855000" lon="15.190713333">
<time>2014-07-06T10:40:53Z</time>
 <fix>none</fix>
 <sat>0</sat>
</trkpt>
<trkpt lat="60.894855000" lon="15.190713333">
<time>2014-07-06T10:40:54Z</time>
 <fix>none</fix>
 <sat>0</sat>
</trkpt>
<trkpt lat="60.894855000" lon="15.190713333">
<time>2014-07-06T10:40:55Z</time>
 <fix>none</fix>
 <sat>0</sat>
</trkpt>
<trkpt lat="60.894746667" lon="15.190745000">
<time>2014-07-06T10:40:56Z</time>
 <fix>none</fix>
 <sat>0</sat>
</trkpt>
<trkpt lat="60.894641667" lon="15.190816667">
<time>2014-07-06T10:40:57Z</time>
 <fix>none</fix>
 <sat>0</sat>
</trkpt>
<trkpt lat="60.894641667" lon="15.190816667">
<time>2014-07-06T10:40:58Z</time>
 <fix>none</fix>
 <sat>0</sat>
</trkpt>
<trkpt lat="60.894571667" lon="15.190830000">
<time>2014-07-06T10:40:59Z</time>
 <fix>none</fix>
 <sat>0</sat>
</trkpt>
<trkpt lat="60.894571667" lon="15.190830000">
<time>2014-07-06T10:41:00Z</time>
 <fix>none</fix>
 <sat>0</sat>
</trkpt>
<trkpt lat="60.894501667" lon="15.190871667">
<time>2014-07-06T10:41:01Z</time>
 <fix>none</fix>
 <sat>0</sat>
</trkpt>
<trkpt lat="60.894501667" lon="15.190871667">
<time>2014-07-06T10:41:02Z</time>
 <fix>none</fix>
 <sat>0</sat>
</trkpt>
<trkpt lat="60.894426667" lon="15.190916667">
<time>2014-07-06T10:41:03Z</time>
 <fix>none</fix>
 <sat>0</sat>
</trkpt>
<trkpt lat="60.894426667" lon="15.190916667">
<time>2014-07-06T10:41:04Z</time>
 <fix>none</fix>
 <sat>0</sat>
</trkpt>
<trkpt lat="60.894333333" lon="15.190986667">
<time>2014-07-06T10:41:05Z</time>
 <fix>none</fix>
 <sat>0</sat>
</trkpt>
<trkpt lat="60.894333333" lon="15.190986667">
<time>2014-07-06T10:41:06Z</time>
 <fix>none</fix>
 <sat>0</sat>
</trkpt>
<trkpt lat="60.894255000" lon="15.191055000">
<time>2014-07-06T10:41:07Z</time>
 <fix>none</fix>
 <sat>0</sat>
</trkpt>
<trkpt lat="60.894255000" lon="15.191055000">
<time>2014-07-06T10:41:08Z</time>
 <fix>none</fix>
 <sat>0</sat>
</trkpt>
<trkpt lat="60.894173333" lon="15.191130000">
<time>2014-07-06T10:41:09Z</time>
 <fix>none</fix>
 <sat>0</sat>
</trkpt>
<trkpt lat="60.894173333" lon="15.191130000">
<time>2014-07-06T10:41:10Z</time>
 <fix>none</fix>
 <sat>0</sat>
</trkpt>
<trkpt lat="60.894091667" lon="15.191215000">
<time>2014-07-06T10:41:11Z</time>
 <fix>none</fix>
 <sat>0</sat>
</trkpt>
<trkpt lat="60.894091667" lon="15.191215000">
<time>2014-07-06T10:41:12Z</time>
 <fix>none</fix>
 <sat>0</sat>
</trkpt>
<trkpt lat="60.894008333" lon="15.191300000">
<time>2014-07-06T10:41:13Z</time>
 <fix>none</fix>
 <sat>0</sat>
</trkpt>
<trkpt lat="60.894008333" lon="15.191300000">
<time>2014-07-06T10:41:14Z</time>
 <fix>none</fix>
 <sat>0</sat>
</trkpt>
<trkpt lat="60.893930000" lon="15.191398333">
<time>2014-07-06T10:41:15Z</time>
 <fix>none</fix>
 <sat>0</sat>
</trkpt>
<trkpt lat="60.893930000" lon="15.191398333">
<time>2014-07-06T10:41:16Z</time>
 <fix>none</fix>
 <sat>0</sat>
</trkpt>
<trkpt lat="60.893845000" lon="15.191511667">
<time>2014-07-06T10:41:17Z</time>
 <fix>none</fix>
 <sat>0</sat>
</trkpt>
<trkpt lat="60.893845000" lon="15.191511667">
<time>2014-07-06T10:41:18Z</time>
 <fix>none</fix>
 <sat>0</sat>
</trkpt>
<trkpt lat="60.893756667" lon="15.191620000">
<time>2014-07-06T10:41:19Z</time>
 <fix>none</fix>
 <sat>0</sat>
</trkpt>
<trkpt lat="60.893756667" lon="15.191620000">
<time>2014-07-06T10:41:20Z</time>
 <fix>none</fix>
 <sat>0</sat>
</trkpt>
<trkpt lat="60.893670000" lon="15.191720000">
<time>2014-07-06T10:41:21Z</time>
 <fix>none</fix>
 <sat>0</sat>
</trkpt>
<trkpt lat="60.893670000" lon="15.191720000">
<time>2014-07-06T10:41:22Z</time>
 <fix>none</fix>
 <sat>0</sat>
</trkpt>
<trkpt lat="60.893590000" lon="15.191800000">
<time>2014-07-06T10:41:23Z</time>
 <fix>none</fix>
 <sat>0</sat>
</trkpt>
<trkpt lat="60.893590000" lon="15.191800000">
<time>2014-07-06T10:41:24Z</time>
 <fix>none</fix>
 <sat>0</sat>
</trkpt>
<trkpt lat="60.893505000" lon="15.191891667">
<time>2014-07-06T10:41:25Z</time>
 <fix>none</fix>
 <sat>0</sat>
</trkpt>
<trkpt lat="60.893505000" lon="15.191891667">
<time>2014-07-06T10:41:26Z</time>
 <fix>none</fix>
 <sat>0</sat>
</trkpt>
<trkpt lat="60.893423333" lon="15.191996667">
<time>2014-07-06T10:41:27Z</time>
 <fix>none</fix>
 <sat>0</sat>
</trkpt>
<trkpt lat="60.893423333" lon="15.191996667">
<time>2014-07-06T10:41:28Z</time>
 <fix>none</fix>
 <sat>0</sat>
</trkpt>
<trkpt lat="60.893371667" lon="15.192146667">
<time>2014-07-06T10:41:29Z</time>
 <fix>none</fix>
 <sat>0</sat>
</trkpt>
<trkpt lat="60.893371667" lon="15.192146667">
<time>2014-07-06T10:41:30Z</time>
 <fix>none</fix>
 <sat>0</sat>
</trkpt>
<trkpt lat="60.893328333" lon="15.192260000">
<time>2014-07-06T10:41:31Z</time>
 <fix>none</fix>
 <sat>0</sat>
</trkpt>
<trkpt lat="60.893328333" lon="15.192260000">
<time>2014-07-06T10:41:32Z</time>
 <fix>none</fix>
 <sat>0</sat>
</trkpt>
<trkpt lat="60.893250000" lon="15.192370000">
<time>2014-07-06T10:41:33Z</time>
 <fix>none</fix>
 <sat>0</sat>
</trkpt>
<trkpt lat="60.893173333" lon="15.192478333">
<time>2014-07-06T10:41:34Z</time>
 <fix>none</fix>
 <sat>0</sat>
</trkpt>
<trkpt lat="60.893173333" lon="15.192478333">
<time>2014-07-06T10:41:35Z</time>
 <fix>none</fix>
 <sat>0</sat>
</trkpt>
<trkpt lat="60.893173333" lon="15.192478333">
<time>2014-07-06T10:41:36Z</time>
 <fix>none</fix>
 <sat>0</sat>
</trkpt>
<trkpt lat="60.893091667" lon="15.192593333">
<time>2014-07-06T10:41:37Z</time>
 <fix>none</fix>
 <sat>0</sat>
</trkpt>
<trkpt lat="60.893091667" lon="15.192593333">
<time>2014-07-06T10:41:38Z</time>
 <fix>none</fix>
 <sat>0</sat>
</trkpt>
<trkpt lat="60.893023333" lon="15.192720000">
<time>2014-07-06T10:41:39Z</time>
 <fix>none</fix>
 <sat>0</sat>
</trkpt>
<trkpt lat="60.893023333" lon="15.192720000">
<time>2014-07-06T10:41:40Z</time>
 <fix>none</fix>
 <sat>0</sat>
</trkpt>
<trkpt lat="60.892953333" lon="15.192851667">
<time>2014-07-06T10:41:41Z</time>
 <fix>none</fix>
 <sat>0</sat>
</trkpt>
<trkpt lat="60.892953333" lon="15.192851667">
<time>2014-07-06T10:41:42Z</time>
 <fix>none</fix>
 <sat>0</sat>
</trkpt>
<trkpt lat="60.892918333" lon="15.193023333">
<time>2014-07-06T10:41:43Z</time>
 <fix>none</fix>
 <sat>0</sat>
</trkpt>
<trkpt lat="60.892918333" lon="15.193023333">
<time>2014-07-06T10:41:44Z</time>
 <fix>none</fix>
 <sat>0</sat>
</trkpt>
<trkpt lat="60.892901667" lon="15.193200000">
<time>2014-07-06T10:41:45Z</time>
 <fix>none</fix>
 <sat>0</sat>
</trkpt>
<trkpt lat="60.892901667" lon="15.193200000">
<time>2014-07-06T10:41:46Z</time>
 <fix>none</fix>
 <sat>0</sat>
</trkpt>
<trkpt lat="60.892923333" lon="15.193400000">
<time>2014-07-06T10:41:47Z</time>
 <fix>none</fix>
 <sat>0</sat>
</trkpt>
<trkpt lat="60.892923333" lon="15.193400000">
<time>2014-07-06T10:41:48Z</time>
 <fix>none</fix>
 <sat>0</sat>
</trkpt>
<trkpt lat="60.892950000" lon="15.193613333">
<time>2014-07-06T10:41:49Z</time>
 <fix>none</fix>
 <sat>0</sat>
</trkpt>
<trkpt lat="60.892965000" lon="15.193721667">
<time>2014-07-06T10:41:50Z</time>
 <fix>none</fix>
 <sat>0</sat>
</trkpt>
<trkpt lat="60.892965000" lon="15.193721667">
<time>2014-07-06T10:41:51Z</time>
 <fix>none</fix>
 <sat>0</sat>
</trkpt>
<trkpt lat="60.892980000" lon="15.193841667">
<time>2014-07-06T10:41:52Z</time>
 <fix>none</fix>
 <sat>0</sat>
</trkpt>
<trkpt lat="60.892995000" lon="15.193955000">
<time>2014-07-06T10:41:53Z</time>
 <fix>none</fix>
 <sat>0</sat>
</trkpt>
<trkpt lat="60.893013333" lon="15.194060000">
<time>2014-07-06T10:41:54Z</time>
 <fix>none</fix>
 <sat>0</sat>
</trkpt>
<trkpt lat="60.893033333" lon="15.194165000">
<time>2014-07-06T10:41:55Z</time>
 <fix>none</fix>
 <sat>0</sat>
</trkpt>
<trkpt lat="60.893051667" lon="15.194270000">
<time>2014-07-06T10:41:56Z</time>
 <fix>none</fix>
 <sat>0</sat>
</trkpt>
<trkpt lat="60.893096667" lon="15.194491667">
<time>2014-07-06T10:41:57Z</time>
 <fix>none</fix>
 <sat>0</sat>
</trkpt>
<trkpt lat="60.893096667" lon="15.194491667">
<time>2014-07-06T10:41:58Z</time>
 <fix>none</fix>
 <sat>0</sat>
</trkpt>
<trkpt lat="60.893130000" lon="15.194723333">
<time>2014-07-06T10:41:59Z</time>
 <fix>none</fix>
 <sat>0</sat>
</trkpt>
<trkpt lat="60.893145000" lon="15.194845000">
<time>2014-07-06T10:42:00Z</time>
 <fix>none</fix>
 <sat>0</sat>
</trkpt>
<trkpt lat="60.893161667" lon="15.194958333">
<time>2014-07-06T10:42:01Z</time>
 <fix>none</fix>
 <sat>0</sat>
</trkpt>
<trkpt lat="60.893161667" lon="15.194958333">
<time>2014-07-06T10:42:02Z</time>
 <fix>none</fix>
 <sat>0</sat>
</trkpt>
<trkpt lat="60.893161667" lon="15.194958333">
<time>2014-07-06T10:42:03Z</time>
 <fix>none</fix>
 <sat>0</sat>
</trkpt>
<trkpt lat="60.893213333" lon="15.195298333">
<time>2014-07-06T10:42:04Z</time>
 <fix>none</fix>
 <sat>0</sat>
</trkpt>
<trkpt lat="60.893213333" lon="15.195298333">
<time>2014-07-06T10:42:05Z</time>
 <fix>none</fix>
 <sat>0</sat>
</trkpt>
<trkpt lat="60.893243333" lon="15.195505000">
<time>2014-07-06T10:42:06Z</time>
 <fix>none</fix>
 <sat>0</sat>
</trkpt>
<trkpt lat="60.893243333" lon="15.195505000">
<time>2014-07-06T10:42:07Z</time>
 <fix>none</fix>
 <sat>0</sat>
</trkpt>
<trkpt lat="60.893285000" lon="15.195685000">
<time>2014-07-06T10:42:08Z</time>
 <fix>none</fix>
 <sat>0</sat>
</trkpt>
<trkpt lat="60.893285000" lon="15.195685000">
<time>2014-07-06T10:42:09Z</time>
 <fix>none</fix>
 <sat>0</sat>
</trkpt>
<trkpt lat="60.893290000" lon="15.195823333">
<time>2014-07-06T10:42:10Z</time>
 <fix>none</fix>
 <sat>0</sat>
</trkpt>
<trkpt lat="60.893290000" lon="15.195823333">
<time>2014-07-06T10:42:11Z</time>
 <fix>none</fix>
 <sat>0</sat>
</trkpt>
<trkpt lat="60.893313333" lon="15.195976667">
<time>2014-07-06T10:42:12Z</time>
 <fix>none</fix>
 <sat>0</sat>
</trkpt>
<trkpt lat="60.893313333" lon="15.195976667">
<time>2014-07-06T10:42:13Z</time>
 <fix>none</fix>
 <sat>0</sat>
</trkpt>
<trkpt lat="60.893356667" lon="15.196188333">
<time>2014-07-06T10:42:14Z</time>
 <fix>none</fix>
 <sat>0</sat>
</trkpt>
<trkpt lat="60.893356667" lon="15.196188333">
<time>2014-07-06T10:42:15Z</time>
 <fix>none</fix>
 <sat>0</sat>
</trkpt>
<trkpt lat="60.893395000" lon="15.196391667">
<time>2014-07-06T10:42:16Z</time>
 <fix>none</fix>
 <sat>0</sat>
</trkpt>
<trkpt lat="60.893395000" lon="15.196391667">
<time>2014-07-06T10:42:17Z</time>
 <fix>none</fix>
 <sat>0</sat>
</trkpt>
<trkpt lat="60.893441667" lon="15.196608333">
<time>2014-07-06T10:42:18Z</time>
 <fix>none</fix>
 <sat>0</sat>
</trkpt>
<trkpt lat="60.893441667" lon="15.196608333">
<time>2014-07-06T10:42:19Z</time>
 <fix>none</fix>
 <sat>0</sat>
</trkpt>
<trkpt lat="60.893495000" lon="15.196855000">
<time>2014-07-06T10:42:20Z</time>
 <fix>none</fix>
 <sat>0</sat>
</trkpt>
<trkpt lat="60.893495000" lon="15.196855000">
<time>2014-07-06T10:42:21Z</time>
 <fix>none</fix>
 <sat>0</sat>
</trkpt>
<trkpt lat="60.893570000" lon="15.197106667">
<time>2014-07-06T10:42:22Z</time>
 <fix>none</fix>
 <sat>0</sat>
</trkpt>
<trkpt lat="60.893586667" lon="15.197210000">
<time>2014-07-06T10:42:23Z</time>
 <fix>none</fix>
 <sat>0</sat>
</trkpt>
<trkpt lat="60.893595000" lon="15.197358333">
<time>2014-07-06T10:42:24Z</time>
 <fix>none</fix>
 <sat>0</sat>
</trkpt>
<trkpt lat="60.893610000" lon="15.197503333">
<time>2014-07-06T10:42:25Z</time>
 <fix>none</fix>
 <sat>0</sat>
</trkpt>
<trkpt lat="60.893628333" lon="15.197641667">
<time>2014-07-06T10:42:26Z</time>
 <fix>none</fix>
 <sat>0</sat>
</trkpt>
<trkpt lat="60.893645000" lon="15.197781667">
<time>2014-07-06T10:42:27Z</time>
 <fix>none</fix>
 <sat>0</sat>
</trkpt>
<trkpt lat="60.893658333" lon="15.197915000">
<time>2014-07-06T10:42:28Z</time>
 <fix>none</fix>
 <sat>0</sat>
</trkpt>
<trkpt lat="60.893670000" lon="15.198046667">
<time>2014-07-06T10:42:29Z</time>
 <fix>none</fix>
 <sat>0</sat>
</trkpt>
<trkpt lat="60.893685000" lon="15.198175000">
<time>2014-07-06T10:42:30Z</time>
 <fix>none</fix>
 <sat>0</sat>
</trkpt>
<trkpt lat="60.893705000" lon="15.198305000">
<time>2014-07-06T10:42:31Z</time>
 <fix>none</fix>
 <sat>0</sat>
</trkpt>
<trkpt lat="60.893721667" lon="15.198438333">
<time>2014-07-06T10:42:32Z</time>
 <fix>none</fix>
 <sat>0</sat>
</trkpt>
<trkpt lat="60.893736667" lon="15.198575000">
<time>2014-07-06T10:42:33Z</time>
 <fix>none</fix>
 <sat>0</sat>
</trkpt>
<trkpt lat="60.893755000" lon="15.198713333">
<time>2014-07-06T10:42:34Z</time>
 <fix>none</fix>
 <sat>0</sat>
</trkpt>
<trkpt lat="60.893755000" lon="15.198713333">
<time>2014-07-06T10:42:35Z</time>
 <fix>none</fix>
 <sat>0</sat>
</trkpt>
<trkpt lat="60.893755000" lon="15.198713333">
<time>2014-07-06T10:42:36Z</time>
 <fix>none</fix>
 <sat>0</sat>
</trkpt>
<trkpt lat="60.893835000" lon="15.199143333">
<time>2014-07-06T10:42:37Z</time>
 <fix>none</fix>
 <sat>0</sat>
</trkpt>
<trkpt lat="60.893835000" lon="15.199143333">
<time>2014-07-06T10:42:38Z</time>
 <fix>none</fix>
 <sat>0</sat>
</trkpt>
<trkpt lat="60.893888333" lon="15.199455000">
<time>2014-07-06T10:42:39Z</time>
 <fix>none</fix>
 <sat>0</sat>
</trkpt>
<trkpt lat="60.893888333" lon="15.199455000">
<time>2014-07-06T10:42:40Z</time>
 <fix>none</fix>
 <sat>0</sat>
</trkpt>
<trkpt lat="60.893935000" lon="15.199761667">
<time>2014-07-06T10:42:41Z</time>
 <fix>none</fix>
 <sat>0</sat>
</trkpt>
<trkpt lat="60.893935000" lon="15.199761667">
<time>2014-07-06T10:42:42Z</time>
 <fix>none</fix>
 <sat>0</sat>
</trkpt>
<trkpt lat="60.893983333" lon="15.200055000">
<time>2014-07-06T10:42:43Z</time>
 <fix>none</fix>
 <sat>0</sat>
</trkpt>
<trkpt lat="60.893983333" lon="15.200055000">
<time>2014-07-06T10:42:44Z</time>
 <fix>none</fix>
 <sat>0</sat>
</trkpt>
<trkpt lat="60.894028333" lon="15.200423333">
<time>2014-07-06T10:42:45Z</time>
 <fix>none</fix>
 <sat>0</sat>
</trkpt>
<trkpt lat="60.894050000" lon="15.200541667">
<time>2014-07-06T10:42:46Z</time>
 <fix>none</fix>
 <sat>0</sat>
</trkpt>
<trkpt lat="60.894076667" lon="15.200716667">
<time>2014-07-06T10:42:47Z</time>
 <fix>none</fix>
 <sat>0</sat>
</trkpt>
<trkpt lat="60.894101667" lon="15.200861667">
<time>2014-07-06T10:42:48Z</time>
 <fix>none</fix>
 <sat>0</sat>
</trkpt>
<trkpt lat="60.894126667" lon="15.201006667">
<time>2014-07-06T10:42:49Z</time>
 <fix>none</fix>
 <sat>0</sat>
</trkpt>
<trkpt lat="60.894146667" lon="15.201155000">
<time>2014-07-06T10:42:50Z</time>
 <fix>none</fix>
 <sat>0</sat>
</trkpt>
<trkpt lat="60.894163333" lon="15.201301667">
<time>2014-07-06T10:42:51Z</time>
 <fix>none</fix>
 <sat>0</sat>
</trkpt>
<trkpt lat="60.894193333" lon="15.201450000">
<time>2014-07-06T10:42:52Z</time>
 <fix>none</fix>
 <sat>0</sat>
</trkpt>
<trkpt lat="60.894226667" lon="15.201598333">
<time>2014-07-06T10:42:53Z</time>
 <fix>none</fix>
 <sat>0</sat>
</trkpt>
<trkpt lat="60.894256667" lon="15.201750000">
<time>2014-07-06T10:42:54Z</time>
 <fix>none</fix>
 <sat>0</sat>
</trkpt>
<trkpt lat="60.894281667" lon="15.201900000">
<time>2014-07-06T10:42:55Z</time>
 <fix>none</fix>
 <sat>0</sat>
</trkpt>
<trkpt lat="60.894303333" lon="15.202048333">
<time>2014-07-06T10:42:56Z</time>
 <fix>none</fix>
 <sat>0</sat>
</trkpt>
<trkpt lat="60.894328333" lon="15.202196667">
<time>2014-07-06T10:42:57Z</time>
 <fix>none</fix>
 <sat>0</sat>
</trkpt>
<trkpt lat="60.894356667" lon="15.202346667">
<time>2014-07-06T10:42:58Z</time>
 <fix>none</fix>
 <sat>0</sat>
</trkpt>
<trkpt lat="60.894356667" lon="15.202346667">
<time>2014-07-06T10:42:59Z</time>
 <fix>none</fix>
 <sat>0</sat>
</trkpt>
<trkpt lat="60.894356667" lon="15.202346667">
<time>2014-07-06T10:43:00Z</time>
 <fix>none</fix>
 <sat>0</sat>
</trkpt>
<trkpt lat="60.894451667" lon="15.202788333">
<time>2014-07-06T10:43:01Z</time>
 <fix>none</fix>
 <sat>0</sat>
</trkpt>
<trkpt lat="60.894451667" lon="15.202788333">
<time>2014-07-06T10:43:02Z</time>
 <fix>none</fix>
 <sat>0</sat>
</trkpt>
<trkpt lat="60.894518333" lon="15.203093333">
<time>2014-07-06T10:43:03Z</time>
 <fix>none</fix>
 <sat>0</sat>
</trkpt>
<trkpt lat="60.894518333" lon="15.203093333">
<time>2014-07-06T10:43:04Z</time>
 <fix>none</fix>
 <sat>0</sat>
</trkpt>
<trkpt lat="60.894596667" lon="15.203370000">
<time>2014-07-06T10:43:05Z</time>
 <fix>none</fix>
 <sat>0</sat>
</trkpt>
<trkpt lat="60.894596667" lon="15.203370000">
<time>2014-07-06T10:43:06Z</time>
 <fix>none</fix>
 <sat>0</sat>
</trkpt>
<trkpt lat="60.894683333" lon="15.203646667">
<time>2014-07-06T10:43:07Z</time>
 <fix>none</fix>
 <sat>0</sat>
</trkpt>
<trkpt lat="60.894683333" lon="15.203646667">
<time>2014-07-06T10:43:08Z</time>
 <fix>none</fix>
 <sat>0</sat>
</trkpt>
<trkpt lat="60.894765000" lon="15.203936667">
<time>2014-07-06T10:43:09Z</time>
 <fix>none</fix>
 <sat>0</sat>
</trkpt>
<trkpt lat="60.894765000" lon="15.203936667">
<time>2014-07-06T10:43:10Z</time>
 <fix>none</fix>
 <sat>0</sat>
</trkpt>
<trkpt lat="60.894848333" lon="15.204243333">
<time>2014-07-06T10:43:11Z</time>
 <fix>none</fix>
 <sat>0</sat>
</trkpt>
<trkpt lat="60.894848333" lon="15.204243333">
<time>2014-07-06T10:43:12Z</time>
 <fix>none</fix>
 <sat>0</sat>
</trkpt>
<trkpt lat="60.894935000" lon="15.204540000">
<time>2014-07-06T10:43:13Z</time>
 <fix>none</fix>
 <sat>0</sat>
</trkpt>
<trkpt lat="60.894935000" lon="15.204540000">
<time>2014-07-06T10:43:14Z</time>
 <fix>none</fix>
 <sat>0</sat>
</trkpt>
<trkpt lat="60.895011667" lon="15.204826667">
<time>2014-07-06T10:43:15Z</time>
 <fix>none</fix>
 <sat>0</sat>
</trkpt>
<trkpt lat="60.895011667" lon="15.204826667">
<time>2014-07-06T10:43:16Z</time>
 <fix>none</fix>
 <sat>0</sat>
</trkpt>
<trkpt lat="60.895091667" lon="15.205100000">
<time>2014-07-06T10:43:17Z</time>
 <fix>none</fix>
 <sat>0</sat>
</trkpt>
<trkpt lat="60.895091667" lon="15.205100000">
<time>2014-07-06T10:43:18Z</time>
 <fix>none</fix>
 <sat>0</sat>
</trkpt>
<trkpt lat="60.895183333" lon="15.205398333">
<time>2014-07-06T10:43:19Z</time>
 <fix>none</fix>
 <sat>0</sat>
</trkpt>
<trkpt lat="60.895183333" lon="15.205398333">
<time>2014-07-06T10:43:20Z</time>
 <fix>none</fix>
 <sat>0</sat>
</trkpt>
<trkpt lat="60.895281667" lon="15.205700000">
<time>2014-07-06T10:43:21Z</time>
 <fix>none</fix>
 <sat>0</sat>
</trkpt>
<trkpt lat="60.895281667" lon="15.205700000">
<time>2014-07-06T10:43:22Z</time>
 <fix>none</fix>
 <sat>0</sat>
</trkpt>
<trkpt lat="60.895373333" lon="15.206005000">
<time>2014-07-06T10:43:23Z</time>
 <fix>none</fix>
 <sat>0</sat>
</trkpt>
<trkpt lat="60.895373333" lon="15.206005000">
<time>2014-07-06T10:43:24Z</time>
 <fix>none</fix>
 <sat>0</sat>
</trkpt>
<trkpt lat="60.895455000" lon="15.206308333">
<time>2014-07-06T10:43:25Z</time>
 <fix>none</fix>
 <sat>0</sat>
</trkpt>
<trkpt lat="60.895455000" lon="15.206308333">
<time>2014-07-06T10:43:26Z</time>
 <fix>none</fix>
 <sat>0</sat>
</trkpt>
<trkpt lat="60.895535000" lon="15.206618333">
<time>2014-07-06T10:43:27Z</time>
 <fix>none</fix>
 <sat>0</sat>
</trkpt>
<trkpt lat="60.895535000" lon="15.206618333">
<time>2014-07-06T10:43:28Z</time>
 <fix>none</fix>
 <sat>0</sat>
</trkpt>
<trkpt lat="60.895535000" lon="15.206618333">
<time>2014-07-06T10:43:29Z</time>
 <fix>none</fix>
 <sat>0</sat>
</trkpt>
<trkpt lat="60.895655000" lon="15.207070000">
<time>2014-07-06T10:43:30Z</time>
 <fix>none</fix>
 <sat>0</sat>
</trkpt>
<trkpt lat="60.895693333" lon="15.207231667">
<time>2014-07-06T10:43:31Z</time>
 <fix>none</fix>
 <sat>0</sat>
</trkpt>
<trkpt lat="60.895733333" lon="15.207380000">
<time>2014-07-06T10:43:32Z</time>
 <fix>none</fix>
 <sat>0</sat>
</trkpt>
<trkpt lat="60.895776667" lon="15.207528333">
<time>2014-07-06T10:43:33Z</time>
 <fix>none</fix>
 <sat>0</sat>
</trkpt>
<trkpt lat="60.895818333" lon="15.207676667">
<time>2014-07-06T10:43:34Z</time>
 <fix>none</fix>
 <sat>0</sat>
</trkpt>
<trkpt lat="60.895861667" lon="15.207821667">
<time>2014-07-06T10:43:35Z</time>
 <fix>none</fix>
 <sat>0</sat>
</trkpt>
<trkpt lat="60.895905000" lon="15.207966667">
<time>2014-07-06T10:43:36Z</time>
 <fix>none</fix>
 <sat>0</sat>
</trkpt>
<trkpt lat="60.895945000" lon="15.208113333">
<time>2014-07-06T10:43:37Z</time>
 <fix>none</fix>
 <sat>0</sat>
</trkpt>
<trkpt lat="60.895985000" lon="15.208265000">
<time>2014-07-06T10:43:38Z</time>
 <fix>none</fix>
 <sat>0</sat>
</trkpt>
<trkpt lat="60.896026667" lon="15.208413333">
<time>2014-07-06T10:43:39Z</time>
 <fix>none</fix>
 <sat>0</sat>
</trkpt>
<trkpt lat="60.896026667" lon="15.208413333">
<time>2014-07-06T10:43:40Z</time>
 <fix>none</fix>
 <sat>0</sat>
</trkpt>
<trkpt lat="60.896026667" lon="15.208413333">
<time>2014-07-06T10:43:41Z</time>
 <fix>none</fix>
 <sat>0</sat>
</trkpt>
<trkpt lat="60.896148333" lon="15.208890000">
<time>2014-07-06T10:43:42Z</time>
 <fix>none</fix>
 <sat>0</sat>
</trkpt>
<trkpt lat="60.896148333" lon="15.208890000">
<time>2014-07-06T10:43:43Z</time>
 <fix>none</fix>
 <sat>0</sat>
</trkpt>
<trkpt lat="60.896228333" lon="15.209201667">
<time>2014-07-06T10:43:44Z</time>
 <fix>none</fix>
 <sat>0</sat>
</trkpt>
<trkpt lat="60.896228333" lon="15.209201667">
<time>2014-07-06T10:43:45Z</time>
 <fix>none</fix>
 <sat>0</sat>
</trkpt>
<trkpt lat="60.896290000" lon="15.209503333">
<time>2014-07-06T10:43:46Z</time>
 <fix>none</fix>
 <sat>0</sat>
</trkpt>
<trkpt lat="60.896290000" lon="15.209503333">
<time>2014-07-06T10:43:47Z</time>
 <fix>none</fix>
 <sat>0</sat>
</trkpt>
<trkpt lat="60.896356667" lon="15.209803333">
<time>2014-07-06T10:43:48Z</time>
 <fix>none</fix>
 <sat>0</sat>
</trkpt>
<trkpt lat="60.896356667" lon="15.209803333">
<time>2014-07-06T10:43:49Z</time>
 <fix>none</fix>
 <sat>0</sat>
</trkpt>
<trkpt lat="60.896411667" lon="15.210095000">
<time>2014-07-06T10:43:50Z</time>
 <fix>none</fix>
 <sat>0</sat>
</trkpt>
<trkpt lat="60.896411667" lon="15.210095000">
<time>2014-07-06T10:43:51Z</time>
 <fix>none</fix>
 <sat>0</sat>
</trkpt>
<trkpt lat="60.896478333" lon="15.210381667">
<time>2014-07-06T10:43:52Z</time>
 <fix>none</fix>
 <sat>0</sat>
</trkpt>
<trkpt lat="60.896478333" lon="15.210381667">
<time>2014-07-06T10:43:53Z</time>
 <fix>none</fix>
 <sat>0</sat>
</trkpt>
<trkpt lat="60.896478333" lon="15.210381667">
<time>2014-07-06T10:43:54Z</time>
 <fix>none</fix>
 <sat>0</sat>
</trkpt>
<trkpt lat="60.896563333" lon="15.210681667">
<time>2014-07-06T10:43:55Z</time>
 <fix>none</fix>
 <sat>0</sat>
</trkpt>
<trkpt lat="60.896668333" lon="15.210990000">
<time>2014-07-06T10:43:56Z</time>
 <fix>none</fix>
 <sat>0</sat>
</trkpt>
<trkpt lat="60.896668333" lon="15.210990000">
<time>2014-07-06T10:43:57Z</time>
 <fix>none</fix>
 <sat>0</sat>
</trkpt>
<trkpt lat="60.896788333" lon="15.211265000">
<time>2014-07-06T10:43:58Z</time>
 <fix>none</fix>
 <sat>0</sat>
</trkpt>
<trkpt lat="60.896788333" lon="15.211265000">
<time>2014-07-06T10:43:59Z</time>
 <fix>none</fix>
 <sat>0</sat>
</trkpt>
<trkpt lat="60.896910000" lon="15.211536667">
<time>2014-07-06T10:44:00Z</time>
 <fix>none</fix>
 <sat>0</sat>
</trkpt>
<trkpt lat="60.896910000" lon="15.211536667">
<time>2014-07-06T10:44:01Z</time>
 <fix>none</fix>
 <sat>0</sat>
</trkpt>
<trkpt lat="60.897035000" lon="15.211838333">
<time>2014-07-06T10:44:02Z</time>
 <fix>none</fix>
 <sat>0</sat>
</trkpt>
<trkpt lat="60.897035000" lon="15.211838333">
<time>2014-07-06T10:44:03Z</time>
 <fix>none</fix>
 <sat>0</sat>
</trkpt>
<trkpt lat="60.897183333" lon="15.212096667">
<time>2014-07-06T10:44:04Z</time>
 <fix>none</fix>
 <sat>0</sat>
</trkpt>
<trkpt lat="60.897183333" lon="15.212096667">
<time>2014-07-06T10:44:05Z</time>
 <fix>none</fix>
 <sat>0</sat>
</trkpt>
<trkpt lat="60.897300000" lon="15.212416667">
<time>2014-07-06T10:44:06Z</time>
 <fix>none</fix>
 <sat>0</sat>
</trkpt>
<trkpt lat="60.897300000" lon="15.212416667">
<time>2014-07-06T10:44:07Z</time>
 <fix>none</fix>
 <sat>0</sat>
</trkpt>
<trkpt lat="60.897421667" lon="15.212733333">
<time>2014-07-06T10:44:08Z</time>
 <fix>none</fix>
 <sat>0</sat>
</trkpt>
<trkpt lat="60.897421667" lon="15.212733333">
<time>2014-07-06T10:44:09Z</time>
 <fix>none</fix>
 <sat>0</sat>
</trkpt>
<trkpt lat="60.897531667" lon="15.213035000">
<time>2014-07-06T10:44:10Z</time>
 <fix>none</fix>
 <sat>0</sat>
</trkpt>
<trkpt lat="60.897531667" lon="15.213035000">
<time>2014-07-06T10:44:11Z</time>
 <fix>none</fix>
 <sat>0</sat>
</trkpt>
<trkpt lat="60.897671667" lon="15.213335000">
<time>2014-07-06T10:44:12Z</time>
 <fix>none</fix>
 <sat>0</sat>
</trkpt>
<trkpt lat="60.897671667" lon="15.213335000">
<time>2014-07-06T10:44:13Z</time>
 <fix>none</fix>
 <sat>0</sat>
</trkpt>
<trkpt lat="60.897833333" lon="15.213600000">
<time>2014-07-06T10:44:14Z</time>
 <fix>none</fix>
 <sat>0</sat>
</trkpt>
<trkpt lat="60.897833333" lon="15.213600000">
<time>2014-07-06T10:44:15Z</time>
 <fix>none</fix>
 <sat>0</sat>
</trkpt>
<trkpt lat="60.897965000" lon="15.213973333">
<time>2014-07-06T10:44:16Z</time>
 <fix>none</fix>
 <sat>0</sat>
</trkpt>
<trkpt lat="60.897965000" lon="15.213973333">
<time>2014-07-06T10:44:17Z</time>
 <fix>none</fix>
 <sat>0</sat>
</trkpt>
<trkpt lat="60.898105000" lon="15.214300000">
<time>2014-07-06T10:44:18Z</time>
 <fix>none</fix>
 <sat>0</sat>
</trkpt>
<trkpt lat="60.898105000" lon="15.214300000">
<time>2014-07-06T10:44:19Z</time>
 <fix>none</fix>
 <sat>0</sat>
</trkpt>
<trkpt lat="60.898256667" lon="15.214510000">
<time>2014-07-06T10:44:20Z</time>
 <fix>none</fix>
 <sat>0</sat>
</trkpt>
<trkpt lat="60.898256667" lon="15.214510000">
<time>2014-07-06T10:44:21Z</time>
 <fix>none</fix>
 <sat>0</sat>
</trkpt>
<trkpt lat="60.898360000" lon="15.214926667">
<time>2014-07-06T10:44:22Z</time>
 <fix>none</fix>
 <sat>0</sat>
</trkpt>
<trkpt lat="60.898360000" lon="15.214926667">
<time>2014-07-06T10:44:23Z</time>
 <fix>none</fix>
 <sat>0</sat>
</trkpt>
<trkpt lat="60.898478333" lon="15.215218333">
<time>2014-07-06T10:44:24Z</time>
 <fix>none</fix>
 <sat>0</sat>
</trkpt>
<trkpt lat="60.898478333" lon="15.215218333">
<time>2014-07-06T10:44:25Z</time>
 <fix>none</fix>
 <sat>0</sat>
</trkpt>
<trkpt lat="60.898593333" lon="15.215550000">
<time>2014-07-06T10:44:26Z</time>
 <fix>none</fix>
 <sat>0</sat>
</trkpt>
<trkpt lat="60.898593333" lon="15.215550000">
<time>2014-07-06T10:44:27Z</time>
 <fix>none</fix>
 <sat>0</sat>
</trkpt>
<trkpt lat="60.898720000" lon="15.215830000">
<time>2014-07-06T10:44:28Z</time>
 <fix>none</fix>
 <sat>0</sat>
</trkpt>
<trkpt lat="60.898720000" lon="15.215830000">
<time>2014-07-06T10:44:29Z</time>
 <fix>none</fix>
 <sat>0</sat>
</trkpt>
<trkpt lat="60.898840000" lon="15.216171667">
<time>2014-07-06T10:44:30Z</time>
 <fix>none</fix>
 <sat>0</sat>
</trkpt>
<trkpt lat="60.898840000" lon="15.216171667">
<time>2014-07-06T10:44:31Z</time>
 <fix>none</fix>
 <sat>0</sat>
</trkpt>
<trkpt lat="60.898981667" lon="15.216520000">
<time>2014-07-06T10:44:32Z</time>
 <fix>none</fix>
 <sat>0</sat>
</trkpt>
<trkpt lat="60.898996667" lon="15.216565000">
<time>2014-07-06T10:44:33Z</time>
 <fix>none</fix>
 <sat>0</sat>
</trkpt>
<trkpt lat="60.899055000" lon="15.216706667">
<time>2014-07-06T10:44:34Z</time>
 <fix>none</fix>
 <sat>0</sat>
</trkpt>
<trkpt lat="60.899135000" lon="15.216868333">
<time>2014-07-06T10:44:35Z</time>
 <fix>none</fix>
 <sat>0</sat>
</trkpt>
<trkpt lat="60.899265000" lon="15.217180000">
<time>2014-07-06T10:44:36Z</time>
 <fix>none</fix>
 <sat>0</sat>
</trkpt>
<trkpt lat="60.899330000" lon="15.217350000">
<time>2014-07-06T10:44:37Z</time>
 <fix>none</fix>
 <sat>0</sat>
</trkpt>
<trkpt lat="60.899395000" lon="15.217520000">
<time>2014-07-06T10:44:38Z</time>
 <fix>none</fix>
 <sat>0</sat>
</trkpt>
<trkpt lat="60.899460000" lon="15.217691667">
<time>2014-07-06T10:44:39Z</time>
 <fix>none</fix>
 <sat>0</sat>
</trkpt>
<trkpt lat="60.899526667" lon="15.217868333">
<time>2014-07-06T10:44:40Z</time>
 <fix>none</fix>
 <sat>0</sat>
</trkpt>
<trkpt lat="60.899591667" lon="15.218055000">
<time>2014-07-06T10:44:41Z</time>
 <fix>none</fix>
 <sat>0</sat>
</trkpt>
<trkpt lat="60.899666667" lon="15.218250000">
<time>2014-07-06T10:44:42Z</time>
 <fix>none</fix>
 <sat>0</sat>
</trkpt>
<trkpt lat="60.899745000" lon="15.218441667">
<time>2014-07-06T10:44:43Z</time>
 <fix>none</fix>
 <sat>0</sat>
</trkpt>
<trkpt lat="60.899823333" lon="15.218640000">
<time>2014-07-06T10:44:44Z</time>
 <fix>none</fix>
 <sat>0</sat>
</trkpt>
<trkpt lat="60.899901667" lon="15.218841667">
<time>2014-07-06T10:44:45Z</time>
 <fix>none</fix>
 <sat>0</sat>
</trkpt>
<trkpt lat="60.899901667" lon="15.218841667">
<time>2014-07-06T10:44:46Z</time>
 <fix>none</fix>
 <sat>0</sat>
</trkpt>
<trkpt lat="60.899901667" lon="15.218841667">
<time>2014-07-06T10:44:47Z</time>
 <fix>none</fix>
 <sat>0</sat>
</trkpt>
<trkpt lat="60.900120000" lon="15.219448333">
<time>2014-07-06T10:44:48Z</time>
 <fix>none</fix>
 <sat>0</sat>
</trkpt>
<trkpt lat="60.900120000" lon="15.219448333">
<time>2014-07-06T10:44:49Z</time>
 <fix>none</fix>
 <sat>0</sat>
</trkpt>
<trkpt lat="60.900263333" lon="15.219795000">
<time>2014-07-06T10:44:50Z</time>
 <fix>none</fix>
 <sat>0</sat>
</trkpt>
<trkpt lat="60.900263333" lon="15.219795000">
<time>2014-07-06T10:44:51Z</time>
 <fix>none</fix>
 <sat>0</sat>
</trkpt>
<trkpt lat="60.900400000" lon="15.220108333">
<time>2014-07-06T10:44:52Z</time>
 <fix>none</fix>
 <sat>0</sat>
</trkpt>
<trkpt lat="60.900400000" lon="15.220108333">
<time>2014-07-06T10:44:53Z</time>
 <fix>none</fix>
 <sat>0</sat>
</trkpt>
<trkpt lat="60.900536667" lon="15.220453333">
<time>2014-07-06T10:44:54Z</time>
 <fix>none</fix>
 <sat>0</sat>
</trkpt>
<trkpt lat="60.900536667" lon="15.220453333">
<time>2014-07-06T10:44:55Z</time>
 <fix>none</fix>
 <sat>0</sat>
</trkpt>
<trkpt lat="60.900688333" lon="15.220865000">
<time>2014-07-06T10:44:56Z</time>
 <fix>none</fix>
 <sat>0</sat>
</trkpt>
<trkpt lat="60.900688333" lon="15.220865000">
<time>2014-07-06T10:44:57Z</time>
 <fix>none</fix>
 <sat>0</sat>
</trkpt>
<trkpt lat="60.900736667" lon="15.221328333">
<time>2014-07-06T10:44:58Z</time>
 <fix>none</fix>
 <sat>0</sat>
</trkpt>
<trkpt lat="60.900736667" lon="15.221328333">
<time>2014-07-06T10:44:59Z</time>
 <fix>none</fix>
 <sat>0</sat>
</trkpt>
<trkpt lat="60.900866667" lon="15.221806667">
<time>2014-07-06T10:45:00Z</time>
 <fix>none</fix>
 <sat>0</sat>
</trkpt>
<trkpt lat="60.900866667" lon="15.221806667">
<time>2014-07-06T10:45:01Z</time>
 <fix>none</fix>
 <sat>0</sat>
</trkpt>
<trkpt lat="60.900945000" lon="15.222220000">
<time>2014-07-06T10:45:02Z</time>
 <fix>none</fix>
 <sat>0</sat>
</trkpt>
<trkpt lat="60.900945000" lon="15.222220000">
<time>2014-07-06T10:45:03Z</time>
 <fix>none</fix>
 <sat>0</sat>
</trkpt>
<trkpt lat="60.900963333" lon="15.222736667">
<time>2014-07-06T10:45:04Z</time>
 <fix>none</fix>
 <sat>0</sat>
</trkpt>
<trkpt lat="60.900963333" lon="15.222736667">
<time>2014-07-06T10:45:05Z</time>
 <fix>none</fix>
 <sat>0</sat>
</trkpt>
<trkpt lat="60.900958333" lon="15.223213333">
<time>2014-07-06T10:45:06Z</time>
 <fix>none</fix>
 <sat>0</sat>
</trkpt>
<trkpt lat="60.900958333" lon="15.223213333">
<time>2014-07-06T10:45:07Z</time>
 <fix>none</fix>
 <sat>0</sat>
</trkpt>
<trkpt lat="60.900941667" lon="15.223670000">
<time>2014-07-06T10:45:08Z</time>
 <fix>none</fix>
 <sat>0</sat>
</trkpt>
<trkpt lat="60.900941667" lon="15.223670000">
<time>2014-07-06T10:45:09Z</time>
 <fix>none</fix>
 <sat>0</sat>
</trkpt>
<trkpt lat="60.900925000" lon="15.224115000">
<time>2014-07-06T10:45:10Z</time>
 <fix>none</fix>
 <sat>0</sat>
</trkpt>
<trkpt lat="60.900925000" lon="15.224115000">
<time>2014-07-06T10:45:11Z</time>
 <fix>none</fix>
 <sat>0</sat>
</trkpt>
<trkpt lat="60.900900000" lon="15.224568333">
<time>2014-07-06T10:45:12Z</time>
 <fix>none</fix>
 <sat>0</sat>
</trkpt>
<trkpt lat="60.900900000" lon="15.224568333">
<time>2014-07-06T10:45:13Z</time>
 <fix>none</fix>
 <sat>0</sat>
</trkpt>
<trkpt lat="60.900856667" lon="15.225010000">
<time>2014-07-06T10:45:14Z</time>
 <fix>none</fix>
 <sat>0</sat>
</trkpt>
<trkpt lat="60.900856667" lon="15.225010000">
<time>2014-07-06T10:45:15Z</time>
 <fix>none</fix>
 <sat>0</sat>
</trkpt>
<trkpt lat="60.900840000" lon="15.225430000">
<time>2014-07-06T10:45:16Z</time>
 <fix>none</fix>
 <sat>0</sat>
</trkpt>
<trkpt lat="60.900840000" lon="15.225430000">
<time>2014-07-06T10:45:17Z</time>
 <fix>none</fix>
 <sat>0</sat>
</trkpt>
<trkpt lat="60.900816667" lon="15.225831667">
<time>2014-07-06T10:45:18Z</time>
 <fix>none</fix>
 <sat>0</sat>
</trkpt>
<trkpt lat="60.900816667" lon="15.225831667">
<time>2014-07-06T10:45:19Z</time>
 <fix>none</fix>
 <sat>0</sat>
</trkpt>
<trkpt lat="60.900800000" lon="15.226211667">
<time>2014-07-06T10:45:20Z</time>
 <fix>none</fix>
 <sat>0</sat>
</trkpt>
<trkpt lat="60.900800000" lon="15.226211667">
<time>2014-07-06T10:45:21Z</time>
 <fix>none</fix>
 <sat>0</sat>
</trkpt>
<trkpt lat="60.900765000" lon="15.226591667">
<time>2014-07-06T10:45:22Z</time>
 <fix>none</fix>
 <sat>0</sat>
</trkpt>
<trkpt lat="60.900765000" lon="15.226591667">
<time>2014-07-06T10:45:23Z</time>
 <fix>none</fix>
 <sat>0</sat>
</trkpt>
<trkpt lat="60.900753333" lon="15.226736667">
<time>2014-07-06T10:45:24Z</time>
 <fix>none</fix>
 <sat>0</sat>
</trkpt>
<trkpt lat="60.900738333" lon="15.227091667">
<time>2014-07-06T10:45:25Z</time>
 <fix>none</fix>
 <sat>0</sat>
</trkpt>
<trkpt lat="60.900731667" lon="15.227256667">
<time>2014-07-06T10:45:26Z</time>
 <fix>none</fix>
 <sat>0</sat>
</trkpt>
<trkpt lat="60.900706667" lon="15.227421667">
<time>2014-07-06T10:45:27Z</time>
 <fix>none</fix>
 <sat>0</sat>
</trkpt>
<trkpt lat="60.900696667" lon="15.227591667">
<time>2014-07-06T10:45:28Z</time>
 <fix>none</fix>
 <sat>0</sat>
</trkpt>
<trkpt lat="60.900688333" lon="15.227761667">
<time>2014-07-06T10:45:29Z</time>
 <fix>none</fix>
 <sat>0</sat>
</trkpt>
<trkpt lat="60.900673333" lon="15.227926667">
<time>2014-07-06T10:45:30Z</time>
 <fix>none</fix>
 <sat>0</sat>
</trkpt>
<trkpt lat="60.900661667" lon="15.228098333">
<time>2014-07-06T10:45:31Z</time>
 <fix>none</fix>
 <sat>0</sat>
</trkpt>
<trkpt lat="60.900655000" lon="15.228268333">
<time>2014-07-06T10:45:32Z</time>
 <fix>none</fix>
 <sat>0</sat>
</trkpt>
<trkpt lat="60.900655000" lon="15.228268333">
<time>2014-07-06T10:45:33Z</time>
 <fix>none</fix>
 <sat>0</sat>
</trkpt>
<trkpt lat="60.900655000" lon="15.228268333">
<time>2014-07-06T10:45:34Z</time>
 <fix>none</fix>
 <sat>0</sat>
</trkpt>
<trkpt lat="60.900631667" lon="15.228758333">
<time>2014-07-06T10:45:35Z</time>
 <fix>none</fix>
 <sat>0</sat>
</trkpt>
<trkpt lat="60.900631667" lon="15.228758333">
<time>2014-07-06T10:45:36Z</time>
 <fix>none</fix>
 <sat>0</sat>
</trkpt>
<trkpt lat="60.900630000" lon="15.229080000">
<time>2014-07-06T10:45:37Z</time>
 <fix>none</fix>
 <sat>0</sat>
</trkpt>
<trkpt lat="60.900641667" lon="15.229228333">
<time>2014-07-06T10:45:38Z</time>
 <fix>none</fix>
 <sat>0</sat>
</trkpt>
<trkpt lat="60.900641667" lon="15.229228333">
<time>2014-07-06T10:45:39Z</time>
 <fix>none</fix>
 <sat>0</sat>
</trkpt>
<trkpt lat="60.900670000" lon="15.229388333">
<time>2014-07-06T10:45:40Z</time>
 <fix>none</fix>
 <sat>0</sat>
</trkpt>
<trkpt lat="60.900695000" lon="15.229548333">
<time>2014-07-06T10:45:41Z</time>
 <fix>none</fix>
 <sat>0</sat>
</trkpt>
<trkpt lat="60.900726667" lon="15.229703333">
<time>2014-07-06T10:45:42Z</time>
 <fix>none</fix>
 <sat>0</sat>
</trkpt>
<trkpt lat="60.900755000" lon="15.229868333">
<time>2014-07-06T10:45:43Z</time>
 <fix>none</fix>
 <sat>0</sat>
</trkpt>
<trkpt lat="60.900785000" lon="15.230028333">
<time>2014-07-06T10:45:44Z</time>
 <fix>none</fix>
 <sat>0</sat>
</trkpt>
<trkpt lat="60.900845000" lon="15.230368333">
<time>2014-07-06T10:45:45Z</time>
 <fix>none</fix>
 <sat>0</sat>
</trkpt>
<trkpt lat="60.900845000" lon="15.230368333">
<time>2014-07-06T10:45:46Z</time>
 <fix>none</fix>
 <sat>0</sat>
</trkpt>
<trkpt lat="60.900911667" lon="15.230708333">
<time>2014-07-06T10:45:47Z</time>
 <fix>none</fix>
 <sat>0</sat>
</trkpt>
<trkpt lat="60.900945000" lon="15.230871667">
<time>2014-07-06T10:45:48Z</time>
 <fix>none</fix>
 <sat>0</sat>
</trkpt>
<trkpt lat="60.900971667" lon="15.231031667">
<time>2014-07-06T10:45:49Z</time>
 <fix>none</fix>
 <sat>0</sat>
</trkpt>
<trkpt lat="60.900971667" lon="15.231031667">
<time>2014-07-06T10:45:50Z</time>
 <fix>none</fix>
 <sat>0</sat>
</trkpt>
<trkpt lat="60.900971667" lon="15.231031667">
<time>2014-07-06T10:45:51Z</time>
 <fix>none</fix>
 <sat>0</sat>
</trkpt>
<trkpt lat="60.901031667" lon="15.231528333">
<time>2014-07-06T10:45:52Z</time>
 <fix>none</fix>
 <sat>0</sat>
</trkpt>
<trkpt lat="60.901031667" lon="15.231528333">
<time>2014-07-06T10:45:53Z</time>
 <fix>none</fix>
 <sat>0</sat>
</trkpt>
<trkpt lat="60.901065000" lon="15.231868333">
<time>2014-07-06T10:45:54Z</time>
 <fix>none</fix>
 <sat>0</sat>
</trkpt>
<trkpt lat="60.901065000" lon="15.231868333">
<time>2014-07-06T10:45:55Z</time>
 <fix>none</fix>
 <sat>0</sat>
</trkpt>
<trkpt lat="60.901131667" lon="15.232240000">
<time>2014-07-06T10:45:56Z</time>
 <fix>none</fix>
 <sat>0</sat>
</trkpt>
<trkpt lat="60.901131667" lon="15.232240000">
<time>2014-07-06T10:45:57Z</time>
 <fix>none</fix>
 <sat>0</sat>
</trkpt>
<trkpt lat="60.901161667" lon="15.232601667">
<time>2014-07-06T10:45:58Z</time>
 <fix>none</fix>
 <sat>0</sat>
</trkpt>
<trkpt lat="60.901161667" lon="15.232601667">
<time>2014-07-06T10:45:59Z</time>
 <fix>none</fix>
 <sat>0</sat>
</trkpt>
<trkpt lat="60.901146667" lon="15.232938333">
<time>2014-07-06T10:46:00Z</time>
 <fix>none</fix>
 <sat>0</sat>
</trkpt>
<trkpt lat="60.901146667" lon="15.232938333">
<time>2014-07-06T10:46:01Z</time>
 <fix>none</fix>
 <sat>0</sat>
</trkpt>
<trkpt lat="60.901166667" lon="15.233290000">
<time>2014-07-06T10:46:02Z</time>
 <fix>none</fix>
 <sat>0</sat>
</trkpt>
<trkpt lat="60.901166667" lon="15.233290000">
<time>2014-07-06T10:46:03Z</time>
 <fix>none</fix>
 <sat>0</sat>
</trkpt>
<trkpt lat="60.901070000" lon="15.233298333">
<time>2014-07-06T10:46:04Z</time>
 <fix>none</fix>
 <sat>0</sat>
</trkpt>
<trkpt lat="60.901070000" lon="15.233298333">
<time>2014-07-06T10:46:05Z</time>
 <fix>none</fix>
 <sat>0</sat>
</trkpt>
<trkpt lat="60.901026667" lon="15.233413333">
<time>2014-07-06T10:46:06Z</time>
 <fix>none</fix>
 <sat>0</sat>
</trkpt>
<trkpt lat="60.901026667" lon="15.233413333">
<time>2014-07-06T10:46:07Z</time>
 <fix>none</fix>
 <sat>0</sat>
</trkpt>
<trkpt lat="60.901026667" lon="15.233413333">
<time>2014-07-06T10:46:08Z</time>
 <fix>none</fix>
 <sat>0</sat>
</trkpt>
<trkpt lat="60.901133333" lon="15.233383333">
<time>2014-07-06T10:46:09Z</time>
 <fix>none</fix>
 <sat>0</sat>
</trkpt>
<trkpt lat="60.901311667" lon="15.233261667">
<time>2014-07-06T10:46:10Z</time>
 <fix>none</fix>
 <sat>0</sat>
</trkpt>
<trkpt lat="60.901431667" lon="15.233145000">
<time>2014-07-06T10:46:11Z</time>
 <fix>none</fix>
 <sat>0</sat>
</trkpt>
<trkpt lat="60.901531667" lon="15.233065000">
<time>2014-07-06T10:46:12Z</time>
 <fix>none</fix>
 <sat>0</sat>
</trkpt>
<trkpt lat="60.901618333" lon="15.233066667">
<time>2014-07-06T10:46:13Z</time>
 <fix>none</fix>
 <sat>0</sat>
</trkpt>
<trkpt lat="60.901708333" lon="15.233083333">
<time>2014-07-06T10:46:14Z</time>
 <fix>none</fix>
 <sat>0</sat>
</trkpt>
<trkpt lat="60.901791667" lon="15.233030000">
<time>2014-07-06T10:46:15Z</time>
 <fix>none</fix>
 <sat>0</sat>
</trkpt>
<trkpt lat="60.901883333" lon="15.233046667">
<time>2014-07-06T10:46:16Z</time>
 <fix>none</fix>
 <sat>0</sat>
</trkpt>
<trkpt lat="60.901955000" lon="15.233070000">
<time>2014-07-06T10:46:17Z</time>
 <fix>none</fix>
 <sat>0</sat>
</trkpt>
<trkpt lat="60.902036667" lon="15.233063333">
<time>2014-07-06T10:46:18Z</time>
 <fix>none</fix>
 <sat>0</sat>
</trkpt>
<trkpt lat="60.902116667" lon="15.233053333">
<time>2014-07-06T10:46:19Z</time>
 <fix>none</fix>
 <sat>0</sat>
</trkpt>
<trkpt lat="60.902198333" lon="15.233031667">
<time>2014-07-06T10:46:20Z</time>
 <fix>none</fix>
 <sat>0</sat>
</trkpt>
<trkpt lat="60.902268333" lon="15.233015000">
<time>2014-07-06T10:46:21Z</time>
 <fix>none</fix>
 <sat>0</sat>
</trkpt>
<trkpt lat="60.902360000" lon="15.233043333">
<time>2014-07-06T10:46:22Z</time>
 <fix>none</fix>
 <sat>0</sat>
</trkpt>
<trkpt lat="60.902441667" lon="15.233036667">
<time>2014-07-06T10:46:23Z</time>
 <fix>none</fix>
 <sat>0</sat>
</trkpt>
<trkpt lat="60.902515000" lon="15.233008333">
<time>2014-07-06T10:46:24Z</time>
 <fix>none</fix>
 <sat>0</sat>
</trkpt>
<trkpt lat="60.902515000" lon="15.233008333">
<time>2014-07-06T10:46:25Z</time>
 <fix>none</fix>
 <sat>0</sat>
</trkpt>
<trkpt lat="60.902590000" lon="15.232978333">
<time>2014-07-06T10:46:26Z</time>
 <fix>none</fix>
 <sat>0</sat>
</trkpt>
<trkpt lat="60.902651667" lon="15.232923333">
<time>2014-07-06T10:46:27Z</time>
 <fix>none</fix>
 <sat>0</sat>
</trkpt>
<trkpt lat="60.902711667" lon="15.232866667">
<time>2014-07-06T10:46:28Z</time>
 <fix>none</fix>
 <sat>0</sat>
</trkpt>
<trkpt lat="60.902775000" lon="15.232806667">
<time>2014-07-06T10:46:29Z</time>
 <fix>none</fix>
 <sat>0</sat>
</trkpt>
<trkpt lat="60.902906667" lon="15.232691667">
<time>2014-07-06T10:46:30Z</time>
 <fix>none</fix>
 <sat>0</sat>
</trkpt>
<trkpt lat="60.902906667" lon="15.232691667">
<time>2014-07-06T10:46:31Z</time>
 <fix>none</fix>
 <sat>0</sat>
</trkpt>
<trkpt lat="60.902971667" lon="15.232640000">
<time>2014-07-06T10:46:32Z</time>
 <fix>none</fix>
 <sat>0</sat>
</trkpt>
<trkpt lat="60.902971667" lon="15.232640000">
<time>2014-07-06T10:46:33Z</time>
 <fix>none</fix>
 <sat>0</sat>
</trkpt>
<trkpt lat="60.903168333" lon="15.232500000">
<time>2014-07-06T10:46:34Z</time>
 <fix>none</fix>
 <sat>0</sat>
</trkpt>
<trkpt lat="60.903168333" lon="15.232500000">
<time>2014-07-06T10:46:35Z</time>
 <fix>none</fix>
 <sat>0</sat>
</trkpt>
<trkpt lat="60.903288333" lon="15.232746667">
<time>2014-07-06T10:46:36Z</time>
 <fix>none</fix>
 <sat>0</sat>
</trkpt>
<trkpt lat="60.903288333" lon="15.232746667">
<time>2014-07-06T10:46:37Z</time>
 <fix>none</fix>
 <sat>0</sat>
</trkpt>
<trkpt lat="60.903425000" lon="15.232773333">
<time>2014-07-06T10:46:38Z</time>
 <fix>none</fix>
 <sat>0</sat>
</trkpt>
<trkpt lat="60.903425000" lon="15.232773333">
<time>2014-07-06T10:46:39Z</time>
 <fix>none</fix>
 <sat>0</sat>
</trkpt>
<trkpt lat="60.903530000" lon="15.232976667">
<time>2014-07-06T10:46:40Z</time>
 <fix>none</fix>
 <sat>0</sat>
</trkpt>
<trkpt lat="60.903530000" lon="15.232976667">
<time>2014-07-06T10:46:41Z</time>
 <fix>none</fix>
 <sat>0</sat>
</trkpt>
<trkpt lat="60.903611667" lon="15.233283333">
<time>2014-07-06T10:46:42Z</time>
 <fix>none</fix>
 <sat>0</sat>
</trkpt>
<trkpt lat="60.903611667" lon="15.233283333">
<time>2014-07-06T10:46:43Z</time>
 <fix>none</fix>
 <sat>0</sat>
</trkpt>
<trkpt lat="60.903721667" lon="15.233761667">
<time>2014-07-06T10:46:44Z</time>
 <fix>none</fix>
 <sat>0</sat>
</trkpt>
<trkpt lat="60.903721667" lon="15.233761667">
<time>2014-07-06T10:46:45Z</time>
 <fix>none</fix>
 <sat>0</sat>
</trkpt>
<trkpt lat="60.903848333" lon="15.233768333">
<time>2014-07-06T10:46:46Z</time>
 <fix>none</fix>
 <sat>0</sat>
</trkpt>
<trkpt lat="60.903848333" lon="15.233768333">
<time>2014-07-06T10:46:47Z</time>
 <fix>none</fix>
 <sat>0</sat>
</trkpt>
<trkpt lat="60.903968333" lon="15.233716667">
<time>2014-07-06T10:46:48Z</time>
 <fix>none</fix>
 <sat>0</sat>
</trkpt>
<trkpt lat="60.903968333" lon="15.233716667">
<time>2014-07-06T10:46:49Z</time>
 <fix>none</fix>
 <sat>0</sat>
</trkpt>
<trkpt lat="60.904078333" lon="15.233713333">
<time>2014-07-06T10:46:50Z</time>
 <fix>none</fix>
 <sat>0</sat>
</trkpt>
<trkpt lat="60.904078333" lon="15.233713333">
<time>2014-07-06T10:46:51Z</time>
 <fix>none</fix>
 <sat>0</sat>
</trkpt>
<trkpt lat="60.904151667" lon="15.233730000">
<time>2014-07-06T10:46:52Z</time>
 <fix>none</fix>
 <sat>0</sat>
</trkpt>
<trkpt lat="60.904268333" lon="15.233778333">
<time>2014-07-06T10:46:53Z</time>
 <fix>none</fix>
 <sat>0</sat>
</trkpt>
<trkpt lat="60.904268333" lon="15.233778333">
<time>2014-07-06T10:46:54Z</time>
 <fix>none</fix>
 <sat>0</sat>
</trkpt>
<trkpt lat="60.904268333" lon="15.233778333">
<time>2014-07-06T10:46:55Z</time>
 <fix>none</fix>
 <sat>0</sat>
</trkpt>
<trkpt lat="60.904406667" lon="15.233821667">
<time>2014-07-06T10:46:56Z</time>
 <fix>none</fix>
 <sat>0</sat>
</trkpt>
<trkpt lat="60.904406667" lon="15.233821667">
<time>2014-07-06T10:46:57Z</time>
 <fix>none</fix>
 <sat>0</sat>
</trkpt>
<trkpt lat="60.904536667" lon="15.233866667">
<time>2014-07-06T10:46:58Z</time>
 <fix>none</fix>
 <sat>0</sat>
</trkpt>
<trkpt lat="60.904536667" lon="15.233866667">
<time>2014-07-06T10:46:59Z</time>
 <fix>none</fix>
 <sat>0</sat>
</trkpt>
<trkpt lat="60.904650000" lon="15.233896667">
<time>2014-07-06T10:47:00Z</time>
 <fix>none</fix>
 <sat>0</sat>
</trkpt>
<trkpt lat="60.904650000" lon="15.233896667">
<time>2014-07-06T10:47:01Z</time>
 <fix>none</fix>
 <sat>0</sat>
</trkpt>
<trkpt lat="60.904765000" lon="15.233935000">
<time>2014-07-06T10:47:02Z</time>
 <fix>none</fix>
 <sat>0</sat>
</trkpt>
<trkpt lat="60.904765000" lon="15.233935000">
<time>2014-07-06T10:47:03Z</time>
 <fix>none</fix>
 <sat>0</sat>
</trkpt>
<trkpt lat="60.904881667" lon="15.234030000">
<time>2014-07-06T10:47:04Z</time>
 <fix>none</fix>
 <sat>0</sat>
</trkpt>
<trkpt lat="60.904881667" lon="15.234030000">
<time>2014-07-06T10:47:05Z</time>
 <fix>none</fix>
 <sat>0</sat>
</trkpt>
<trkpt lat="60.905016667" lon="15.234045000">
<time>2014-07-06T10:47:06Z</time>
 <fix>none</fix>
 <sat>0</sat>
</trkpt>
<trkpt lat="60.905016667" lon="15.234045000">
<time>2014-07-06T10:47:07Z</time>
 <fix>none</fix>
 <sat>0</sat>
</trkpt>
<trkpt lat="60.905163333" lon="15.234048333">
<time>2014-07-06T10:47:08Z</time>
 <fix>none</fix>
 <sat>0</sat>
</trkpt>
<trkpt lat="60.905233333" lon="15.234033333">
<time>2014-07-06T10:47:09Z</time>
 <fix>none</fix>
 <sat>0</sat>
</trkpt>
<trkpt lat="60.905233333" lon="15.234033333">
<time>2014-07-06T10:47:10Z</time>
 <fix>none</fix>
 <sat>0</sat>
</trkpt>
<trkpt lat="60.905293333" lon="15.234025000">
<time>2014-07-06T10:47:11Z</time>
 <fix>none</fix>
 <sat>0</sat>
</trkpt>
<trkpt lat="60.905358333" lon="15.234021667">
<time>2014-07-06T10:47:12Z</time>
 <fix>none</fix>
 <sat>0</sat>
</trkpt>
<trkpt lat="60.905428333" lon="15.234045000">
<time>2014-07-06T10:47:13Z</time>
 <fix>none</fix>
 <sat>0</sat>
</trkpt>
<trkpt lat="60.905493333" lon="15.234065000">
<time>2014-07-06T10:47:14Z</time>
 <fix>none</fix>
 <sat>0</sat>
</trkpt>
<trkpt lat="60.905566667" lon="15.234101667">
<time>2014-07-06T10:47:15Z</time>
 <fix>none</fix>
 <sat>0</sat>
</trkpt>
<trkpt lat="60.905720000" lon="15.234081667">
<time>2014-07-06T10:47:16Z</time>
 <fix>none</fix>
 <sat>0</sat>
</trkpt>
<trkpt lat="60.905720000" lon="15.234081667">
<time>2014-07-06T10:47:17Z</time>
 <fix>none</fix>
 <sat>0</sat>
</trkpt>
<trkpt lat="60.905788333" lon="15.234061667">
<time>2014-07-06T10:47:18Z</time>
 <fix>none</fix>
 <sat>0</sat>
</trkpt>
<trkpt lat="60.905925000" lon="15.234173333">
<time>2014-07-06T10:47:19Z</time>
 <fix>none</fix>
 <sat>0</sat>
</trkpt>
<trkpt lat="60.905995000" lon="15.234260000">
<time>2014-07-06T10:47:20Z</time>
 <fix>none</fix>
 <sat>0</sat>
</trkpt>
<trkpt lat="60.906061667" lon="15.234398333">
<time>2014-07-06T10:47:21Z</time>
 <fix>none</fix>
 <sat>0</sat>
</trkpt>
<trkpt lat="60.906106667" lon="15.234513333">
<time>2014-07-06T10:47:22Z</time>
 <fix>none</fix>
 <sat>0</sat>
</trkpt>
<trkpt lat="60.906156667" lon="15.234630000">
<time>2014-07-06T10:47:23Z</time>
 <fix>none</fix>
 <sat>0</sat>
</trkpt>
<trkpt lat="60.906206667" lon="15.234720000">
<time>2014-07-06T10:47:24Z</time>
 <fix>none</fix>
 <sat>0</sat>
</trkpt>
<trkpt lat="60.906255000" lon="15.234793333">
<time>2014-07-06T10:47:25Z</time>
 <fix>none</fix>
 <sat>0</sat>
</trkpt>
<trkpt lat="60.906306667" lon="15.234850000">
<time>2014-07-06T10:47:26Z</time>
 <fix>none</fix>
 <sat>0</sat>
</trkpt>
<trkpt lat="60.906358333" lon="15.234901667">
<time>2014-07-06T10:47:27Z</time>
 <fix>none</fix>
 <sat>0</sat>
</trkpt>
<trkpt lat="60.906411667" lon="15.234938333">
<time>2014-07-06T10:47:28Z</time>
 <fix>none</fix>
 <sat>0</sat>
</trkpt>
<trkpt lat="60.906480000" lon="15.235025000">
<time>2014-07-06T10:47:29Z</time>
 <fix>none</fix>
 <sat>0</sat>
</trkpt>
<trkpt lat="60.906535000" lon="15.235120000">
<time>2014-07-06T10:47:30Z</time>
 <fix>none</fix>
 <sat>0</sat>
</trkpt>
<trkpt lat="60.906588333" lon="15.235205000">
<time>2014-07-06T10:47:31Z</time>
 <fix>none</fix>
 <sat>0</sat>
</trkpt>
<trkpt lat="60.906646667" lon="15.235288333">
<time>2014-07-06T10:47:32Z</time>
 <fix>none</fix>
 <sat>0</sat>
</trkpt>
<trkpt lat="60.906646667" lon="15.235288333">
<time>2014-07-06T10:47:33Z</time>
 <fix>none</fix>
 <sat>0</sat>
</trkpt>
<trkpt lat="60.906693333" lon="15.235358333">
<time>2014-07-06T10:47:34Z</time>
 <fix>none</fix>
 <sat>0</sat>
</trkpt>
<trkpt lat="60.906745000" lon="15.235425000">
<time>2014-07-06T10:47:35Z</time>
 <fix>none</fix>
 <sat>0</sat>
</trkpt>
<trkpt lat="60.906798333" lon="15.235483333">
<time>2014-07-06T10:47:36Z</time>
 <fix>none</fix>
 <sat>0</sat>
</trkpt>
<trkpt lat="60.906853333" lon="15.235536667">
<time>2014-07-06T10:47:37Z</time>
 <fix>none</fix>
 <sat>0</sat>
</trkpt>
<trkpt lat="60.906915000" lon="15.235580000">
<time>2014-07-06T10:47:38Z</time>
 <fix>none</fix>
 <sat>0</sat>
</trkpt>
<trkpt lat="60.907053333" lon="15.235675000">
<time>2014-07-06T10:47:39Z</time>
 <fix>none</fix>
 <sat>0</sat>
</trkpt>
<trkpt lat="60.907053333" lon="15.235675000">
<time>2014-07-06T10:47:40Z</time>
 <fix>none</fix>
 <sat>0</sat>
</trkpt>
<trkpt lat="60.907053333" lon="15.235675000">
<time>2014-07-06T10:47:41Z</time>
 <fix>none</fix>
 <sat>0</sat>
</trkpt>
<trkpt lat="60.907271667" lon="15.235666667">
<time>2014-07-06T10:47:42Z</time>
 <fix>none</fix>
 <sat>0</sat>
</trkpt>
<trkpt lat="60.907271667" lon="15.235666667">
<time>2014-07-06T10:47:43Z</time>
 <fix>none</fix>
 <sat>0</sat>
</trkpt>
<trkpt lat="60.907511667" lon="15.235785000">
<time>2014-07-06T10:47:44Z</time>
 <fix>none</fix>
 <sat>0</sat>
</trkpt>
<trkpt lat="60.907511667" lon="15.235785000">
<time>2014-07-06T10:47:45Z</time>
 <fix>none</fix>
 <sat>0</sat>
</trkpt>
<trkpt lat="60.907588333" lon="15.235715000">
<time>2014-07-06T10:47:46Z</time>
 <fix>none</fix>
 <sat>0</sat>
</trkpt>
<trkpt lat="60.907611667" lon="15.235656667">
<time>2014-07-06T10:47:47Z</time>
 <fix>none</fix>
 <sat>0</sat>
</trkpt>
<trkpt lat="60.907651667" lon="15.235591667">
<time>2014-07-06T10:47:48Z</time>
 <fix>none</fix>
 <sat>0</sat>
</trkpt>
<trkpt lat="60.907708333" lon="15.235563333">
<time>2014-07-06T10:47:49Z</time>
 <fix>none</fix>
 <sat>0</sat>
</trkpt>
<trkpt lat="60.907761667" lon="15.235503333">
<time>2014-07-06T10:47:50Z</time>
 <fix>none</fix>
 <sat>0</sat>
</trkpt>
<trkpt lat="60.907825000" lon="15.235470000">
<time>2014-07-06T10:47:51Z</time>
 <fix>none</fix>
 <sat>0</sat>
</trkpt>
<trkpt lat="60.907873333" lon="15.235431667">
<time>2014-07-06T10:47:52Z</time>
 <fix>none</fix>
 <sat>0</sat>
</trkpt>
<trkpt lat="60.907923333" lon="15.235370000">
<time>2014-07-06T10:47:53Z</time>
 <fix>none</fix>
 <sat>0</sat>
</trkpt>
<trkpt lat="60.907981667" lon="15.235320000">
<time>2014-07-06T10:47:54Z</time>
 <fix>none</fix>
 <sat>0</sat>
</trkpt>
<trkpt lat="60.908035000" lon="15.235266667">
<time>2014-07-06T10:47:55Z</time>
 <fix>none</fix>
 <sat>0</sat>
</trkpt>
<trkpt lat="60.908035000" lon="15.235266667">
<time>2014-07-06T10:47:56Z</time>
 <fix>none</fix>
 <sat>0</sat>
</trkpt>
<trkpt lat="60.908098333" lon="15.235226667">
<time>2014-07-06T10:47:57Z</time>
 <fix>none</fix>
 <sat>0</sat>
</trkpt>
<trkpt lat="60.908165000" lon="15.235210000">
<time>2014-07-06T10:47:58Z</time>
 <fix>none</fix>
 <sat>0</sat>
</trkpt>
<trkpt lat="60.908231667" lon="15.235195000">
<time>2014-07-06T10:47:59Z</time>
 <fix>none</fix>
 <sat>0</sat>
</trkpt>
<trkpt lat="60.908300000" lon="15.235183333">
<time>2014-07-06T10:48:00Z</time>
 <fix>none</fix>
 <sat>0</sat>
</trkpt>
<trkpt lat="60.908366667" lon="15.235161667">
<time>2014-07-06T10:48:01Z</time>
 <fix>none</fix>
 <sat>0</sat>
</trkpt>
<trkpt lat="60.908366667" lon="15.235161667">
<time>2014-07-06T10:48:02Z</time>
 <fix>none</fix>
 <sat>0</sat>
</trkpt>
<trkpt lat="60.908568333" lon="15.235140000">
<time>2014-07-06T10:48:03Z</time>
 <fix>none</fix>
 <sat>0</sat>
</trkpt>
<trkpt lat="60.908568333" lon="15.235140000">
<time>2014-07-06T10:48:04Z</time>
 <fix>none</fix>
 <sat>0</sat>
</trkpt>
<trkpt lat="60.908581667" lon="15.234903333">
<time>2014-07-06T10:48:05Z</time>
 <fix>none</fix>
 <sat>0</sat>
</trkpt>
<trkpt lat="60.908581667" lon="15.234903333">
<time>2014-07-06T10:48:06Z</time>
 <fix>none</fix>
 <sat>0</sat>
</trkpt>
<trkpt lat="60.908833333" lon="15.234795000">
<time>2014-07-06T10:48:07Z</time>
 <fix>none</fix>
 <sat>0</sat>
</trkpt>
<trkpt lat="60.908833333" lon="15.234795000">
<time>2014-07-06T10:48:08Z</time>
 <fix>none</fix>
 <sat>0</sat>
</trkpt>
<trkpt lat="60.908960000" lon="15.234686667">
<time>2014-07-06T10:48:09Z</time>
 <fix>none</fix>
 <sat>0</sat>
</trkpt>
<trkpt lat="60.908960000" lon="15.234686667">
<time>2014-07-06T10:48:10Z</time>
 <fix>none</fix>
 <sat>0</sat>
</trkpt>
<trkpt lat="60.909091667" lon="15.234570000">
<time>2014-07-06T10:48:11Z</time>
 <fix>none</fix>
 <sat>0</sat>
</trkpt>
<trkpt lat="60.909091667" lon="15.234570000">
<time>2014-07-06T10:48:12Z</time>
 <fix>none</fix>
 <sat>0</sat>
</trkpt>
<trkpt lat="60.909245000" lon="15.234461667">
<time>2014-07-06T10:48:13Z</time>
 <fix>none</fix>
 <sat>0</sat>
</trkpt>
<trkpt lat="60.909245000" lon="15.234461667">
<time>2014-07-06T10:48:14Z</time>
 <fix>none</fix>
 <sat>0</sat>
</trkpt>
<trkpt lat="60.909376667" lon="15.234305000">
<time>2014-07-06T10:48:15Z</time>
 <fix>none</fix>
 <sat>0</sat>
</trkpt>
<trkpt lat="60.909376667" lon="15.234305000">
<time>2014-07-06T10:48:16Z</time>
 <fix>none</fix>
 <sat>0</sat>
</trkpt>
<trkpt lat="60.909508333" lon="15.234143333">
<time>2014-07-06T10:48:17Z</time>
 <fix>none</fix>
 <sat>0</sat>
</trkpt>
<trkpt lat="60.909508333" lon="15.234143333">
<time>2014-07-06T10:48:18Z</time>
 <fix>none</fix>
 <sat>0</sat>
</trkpt>
<trkpt lat="60.909651667" lon="15.233983333">
<time>2014-07-06T10:48:19Z</time>
 <fix>none</fix>
 <sat>0</sat>
</trkpt>
<trkpt lat="60.909651667" lon="15.233983333">
<time>2014-07-06T10:48:20Z</time>
 <fix>none</fix>
 <sat>0</sat>
</trkpt>
<trkpt lat="60.909786667" lon="15.233790000">
<time>2014-07-06T10:48:21Z</time>
 <fix>none</fix>
 <sat>0</sat>
</trkpt>
<trkpt lat="60.909786667" lon="15.233790000">
<time>2014-07-06T10:48:22Z</time>
 <fix>none</fix>
 <sat>0</sat>
</trkpt>
<trkpt lat="60.909905000" lon="15.233603333">
<time>2014-07-06T10:48:23Z</time>
 <fix>none</fix>
 <sat>0</sat>
</trkpt>
<trkpt lat="60.909905000" lon="15.233603333">
<time>2014-07-06T10:48:24Z</time>
 <fix>none</fix>
 <sat>0</sat>
</trkpt>
<trkpt lat="60.909996667" lon="15.233505000">
<time>2014-07-06T10:48:25Z</time>
 <fix>none</fix>
 <sat>0</sat>
</trkpt>
<trkpt lat="60.909996667" lon="15.233505000">
<time>2014-07-06T10:48:26Z</time>
 <fix>none</fix>
 <sat>0</sat>
</trkpt>
<trkpt lat="60.910116667" lon="15.233193333">
<time>2014-07-06T10:48:27Z</time>
 <fix>none</fix>
 <sat>0</sat>
</trkpt>
<trkpt lat="60.910116667" lon="15.233193333">
<time>2014-07-06T10:48:28Z</time>
 <fix>none</fix>
 <sat>0</sat>
</trkpt>
<trkpt lat="60.910265000" lon="15.233050000">
<time>2014-07-06T10:48:29Z</time>
 <fix>none</fix>
 <sat>0</sat>
</trkpt>
<trkpt lat="60.910265000" lon="15.233050000">
<time>2014-07-06T10:48:30Z</time>
 <fix>none</fix>
 <sat>0</sat>
</trkpt>
<trkpt lat="60.910380000" lon="15.232856667">
<time>2014-07-06T10:48:31Z</time>
 <fix>none</fix>
 <sat>0</sat>
</trkpt>
<trkpt lat="60.910380000" lon="15.232856667">
<time>2014-07-06T10:48:32Z</time>
 <fix>none</fix>
 <sat>0</sat>
</trkpt>
<trkpt lat="60.910498333" lon="15.232685000">
<time>2014-07-06T10:48:33Z</time>
 <fix>none</fix>
 <sat>0</sat>
</trkpt>
<trkpt lat="60.910498333" lon="15.232685000">
<time>2014-07-06T10:48:34Z</time>
 <fix>none</fix>
 <sat>0</sat>
</trkpt>
<trkpt lat="60.910625000" lon="15.232530000">
<time>2014-07-06T10:48:35Z</time>
 <fix>none</fix>
 <sat>0</sat>
</trkpt>
<trkpt lat="60.910625000" lon="15.232530000">
<time>2014-07-06T10:48:36Z</time>
 <fix>none</fix>
 <sat>0</sat>
</trkpt>
<trkpt lat="60.910751667" lon="15.232346667">
<time>2014-07-06T10:48:37Z</time>
 <fix>none</fix>
 <sat>0</sat>
</trkpt>
<trkpt lat="60.910751667" lon="15.232346667">
<time>2014-07-06T10:48:38Z</time>
 <fix>none</fix>
 <sat>0</sat>
</trkpt>
<trkpt lat="60.910886667" lon="15.232183333">
<time>2014-07-06T10:48:39Z</time>
 <fix>none</fix>
 <sat>0</sat>
</trkpt>
<trkpt lat="60.910886667" lon="15.232183333">
<time>2014-07-06T10:48:40Z</time>
 <fix>none</fix>
 <sat>0</sat>
</trkpt>
<trkpt lat="60.911018333" lon="15.232023333">
<time>2014-07-06T10:48:41Z</time>
 <fix>none</fix>
 <sat>0</sat>
</trkpt>
<trkpt lat="60.911018333" lon="15.232023333">
<time>2014-07-06T10:48:42Z</time>
 <fix>none</fix>
 <sat>0</sat>
</trkpt>
<trkpt lat="60.911133333" lon="15.231848333">
<time>2014-07-06T10:48:43Z</time>
 <fix>none</fix>
 <sat>0</sat>
</trkpt>
<trkpt lat="60.911133333" lon="15.231848333">
<time>2014-07-06T10:48:44Z</time>
 <fix>none</fix>
 <sat>0</sat>
</trkpt>
<trkpt lat="60.911243333" lon="15.231670000">
<time>2014-07-06T10:48:45Z</time>
 <fix>none</fix>
 <sat>0</sat>
</trkpt>
<trkpt lat="60.911243333" lon="15.231670000">
<time>2014-07-06T10:48:46Z</time>
 <fix>none</fix>
 <sat>0</sat>
</trkpt>
<trkpt lat="60.911345000" lon="15.231491667">
<time>2014-07-06T10:48:47Z</time>
 <fix>none</fix>
 <sat>0</sat>
</trkpt>
<trkpt lat="60.911345000" lon="15.231491667">
<time>2014-07-06T10:48:48Z</time>
 <fix>none</fix>
 <sat>0</sat>
</trkpt>
<trkpt lat="60.911345000" lon="15.231491667">
<time>2014-07-06T10:48:49Z</time>
 <fix>none</fix>
 <sat>0</sat>
</trkpt>
<trkpt lat="60.911448333" lon="15.231315000">
<time>2014-07-06T10:48:50Z</time>
 <fix>none</fix>
 <sat>0</sat>
</trkpt>
<trkpt lat="60.911516667" lon="15.231046667">
<time>2014-07-06T10:48:51Z</time>
 <fix>none</fix>
 <sat>0</sat>
</trkpt>
<trkpt lat="60.911516667" lon="15.231046667">
<time>2014-07-06T10:48:52Z</time>
 <fix>none</fix>
 <sat>0</sat>
</trkpt>
<trkpt lat="60.911581667" lon="15.230793333">
<time>2014-07-06T10:48:53Z</time>
 <fix>none</fix>
 <sat>0</sat>
</trkpt>
<trkpt lat="60.911581667" lon="15.230793333">
<time>2014-07-06T10:48:54Z</time>
 <fix>none</fix>
 <sat>0</sat>
</trkpt>
<trkpt lat="60.911596667" lon="15.230591667">
<time>2014-07-06T10:48:55Z</time>
 <fix>none</fix>
 <sat>0</sat>
</trkpt>
<trkpt lat="60.911596667" lon="15.230591667">
<time>2014-07-06T10:48:56Z</time>
 <fix>none</fix>
 <sat>0</sat>
</trkpt>
<trkpt lat="60.911750000" lon="15.230543333">
<time>2014-07-06T10:48:57Z</time>
 <fix>none</fix>
 <sat>0</sat>
</trkpt>
<trkpt lat="60.911750000" lon="15.230543333">
<time>2014-07-06T10:48:58Z</time>
 <fix>none</fix>
 <sat>0</sat>
</trkpt>
<trkpt lat="60.911826667" lon="15.230325000">
<time>2014-07-06T10:48:59Z</time>
 <fix>none</fix>
 <sat>0</sat>
</trkpt>
<trkpt lat="60.911826667" lon="15.230325000">
<time>2014-07-06T10:49:00Z</time>
 <fix>none</fix>
 <sat>0</sat>
</trkpt>
<trkpt lat="60.911943333" lon="15.230190000">
<time>2014-07-06T10:49:01Z</time>
 <fix>none</fix>
 <sat>0</sat>
</trkpt>
<trkpt lat="60.911943333" lon="15.230190000">
<time>2014-07-06T10:49:02Z</time>
 <fix>none</fix>
 <sat>0</sat>
</trkpt>
<trkpt lat="60.912070000" lon="15.230026667">
<time>2014-07-06T10:49:03Z</time>
 <fix>none</fix>
 <sat>0</sat>
</trkpt>
<trkpt lat="60.912070000" lon="15.230026667">
<time>2014-07-06T10:49:04Z</time>
 <fix>none</fix>
 <sat>0</sat>
</trkpt>
<trkpt lat="60.912180000" lon="15.229841667">
<time>2014-07-06T10:49:05Z</time>
 <fix>none</fix>
 <sat>0</sat>
</trkpt>
<trkpt lat="60.912180000" lon="15.229841667">
<time>2014-07-06T10:49:06Z</time>
 <fix>none</fix>
 <sat>0</sat>
</trkpt>
<trkpt lat="60.912310000" lon="15.229671667">
<time>2014-07-06T10:49:07Z</time>
 <fix>none</fix>
 <sat>0</sat>
</trkpt>
<trkpt lat="60.912310000" lon="15.229671667">
<time>2014-07-06T10:49:08Z</time>
 <fix>none</fix>
 <sat>0</sat>
</trkpt>
<trkpt lat="60.912445000" lon="15.229493333">
<time>2014-07-06T10:49:09Z</time>
 <fix>none</fix>
 <sat>0</sat>
</trkpt>
<trkpt lat="60.912445000" lon="15.229493333">
<time>2014-07-06T10:49:10Z</time>
 <fix>none</fix>
 <sat>0</sat>
</trkpt>
<trkpt lat="60.912595000" lon="15.229335000">
<time>2014-07-06T10:49:11Z</time>
 <fix>none</fix>
 <sat>0</sat>
</trkpt>
<trkpt lat="60.912595000" lon="15.229335000">
<time>2014-07-06T10:49:12Z</time>
 <fix>none</fix>
 <sat>0</sat>
</trkpt>
<trkpt lat="60.912728333" lon="15.229131667">
<time>2014-07-06T10:49:13Z</time>
 <fix>none</fix>
 <sat>0</sat>
</trkpt>
<trkpt lat="60.912728333" lon="15.229131667">
<time>2014-07-06T10:49:14Z</time>
 <fix>none</fix>
 <sat>0</sat>
</trkpt>
<trkpt lat="60.912876667" lon="15.228960000">
<time>2014-07-06T10:49:15Z</time>
 <fix>none</fix>
 <sat>0</sat>
</trkpt>
<trkpt lat="60.912876667" lon="15.228960000">
<time>2014-07-06T10:49:16Z</time>
 <fix>none</fix>
 <sat>0</sat>
</trkpt>
<trkpt lat="60.913011667" lon="15.228748333">
<time>2014-07-06T10:49:17Z</time>
 <fix>none</fix>
 <sat>0</sat>
</trkpt>
<trkpt lat="60.913011667" lon="15.228748333">
<time>2014-07-06T10:49:18Z</time>
 <fix>none</fix>
 <sat>0</sat>
</trkpt>
<trkpt lat="60.913146667" lon="15.228566667">
<time>2014-07-06T10:49:19Z</time>
 <fix>none</fix>
 <sat>0</sat>
</trkpt>
<trkpt lat="60.913146667" lon="15.228566667">
<time>2014-07-06T10:49:20Z</time>
 <fix>none</fix>
 <sat>0</sat>
</trkpt>
<trkpt lat="60.913260000" lon="15.228408333">
<time>2014-07-06T10:49:21Z</time>
 <fix>none</fix>
 <sat>0</sat>
</trkpt>
<trkpt lat="60.913260000" lon="15.228408333">
<time>2014-07-06T10:49:22Z</time>
 <fix>none</fix>
 <sat>0</sat>
</trkpt>
<trkpt lat="60.913381667" lon="15.228286667">
<time>2014-07-06T10:49:23Z</time>
 <fix>none</fix>
 <sat>0</sat>
</trkpt>
<trkpt lat="60.913381667" lon="15.228286667">
<time>2014-07-06T10:49:24Z</time>
 <fix>none</fix>
 <sat>0</sat>
</trkpt>
<trkpt lat="60.913483333" lon="15.228116667">
<time>2014-07-06T10:49:25Z</time>
 <fix>none</fix>
 <sat>0</sat>
</trkpt>
<trkpt lat="60.913483333" lon="15.228116667">
<time>2014-07-06T10:49:26Z</time>
 <fix>none</fix>
 <sat>0</sat>
</trkpt>
<trkpt lat="60.913628333" lon="15.228016667">
<time>2014-07-06T10:49:27Z</time>
 <fix>none</fix>
 <sat>0</sat>
</trkpt>
<trkpt lat="60.913628333" lon="15.228016667">
<time>2014-07-06T10:49:28Z</time>
 <fix>none</fix>
 <sat>0</sat>
</trkpt>
<trkpt lat="60.913785000" lon="15.227943333">
<time>2014-07-06T10:49:29Z</time>
 <fix>none</fix>
 <sat>0</sat>
</trkpt>
<trkpt lat="60.913785000" lon="15.227943333">
<time>2014-07-06T10:49:30Z</time>
 <fix>none</fix>
 <sat>0</sat>
</trkpt>
<trkpt lat="60.913926667" lon="15.227833333">
<time>2014-07-06T10:49:31Z</time>
 <fix>none</fix>
 <sat>0</sat>
</trkpt>
<trkpt lat="60.913926667" lon="15.227833333">
<time>2014-07-06T10:49:32Z</time>
 <fix>none</fix>
 <sat>0</sat>
</trkpt>
<trkpt lat="60.914071667" lon="15.227705000">
<time>2014-07-06T10:49:33Z</time>
 <fix>none</fix>
 <sat>0</sat>
</trkpt>
<trkpt lat="60.914071667" lon="15.227705000">
<time>2014-07-06T10:49:34Z</time>
 <fix>none</fix>
 <sat>0</sat>
</trkpt>
<trkpt lat="60.914071667" lon="15.227705000">
<time>2014-07-06T10:49:35Z</time>
 <fix>none</fix>
 <sat>0</sat>
</trkpt>
<trkpt lat="60.914230000" lon="15.227618333">
<time>2014-07-06T10:49:36Z</time>
 <fix>none</fix>
 <sat>0</sat>
</trkpt>
<trkpt lat="60.914385000" lon="15.227511667">
<time>2014-07-06T10:49:37Z</time>
 <fix>none</fix>
 <sat>0</sat>
</trkpt>
<trkpt lat="60.914385000" lon="15.227511667">
<time>2014-07-06T10:49:38Z</time>
 <fix>none</fix>
 <sat>0</sat>
</trkpt>
<trkpt lat="60.914536667" lon="15.227406667">
<time>2014-07-06T10:49:39Z</time>
 <fix>none</fix>
 <sat>0</sat>
</trkpt>
<trkpt lat="60.914536667" lon="15.227406667">
<time>2014-07-06T10:49:40Z</time>
 <fix>none</fix>
 <sat>0</sat>
</trkpt>
<trkpt lat="60.914706667" lon="15.227358333">
<time>2014-07-06T10:49:41Z</time>
 <fix>none</fix>
 <sat>0</sat>
</trkpt>
<trkpt lat="60.914765000" lon="15.227336667">
<time>2014-07-06T10:49:42Z</time>
 <fix>none</fix>
 <sat>0</sat>
</trkpt>
<trkpt lat="60.914836667" lon="15.227283333">
<time>2014-07-06T10:49:43Z</time>
 <fix>none</fix>
 <sat>0</sat>
</trkpt>
<trkpt lat="60.914898333" lon="15.227223333">
<time>2014-07-06T10:49:44Z</time>
 <fix>none</fix>
 <sat>0</sat>
</trkpt>
<trkpt lat="60.914965000" lon="15.227166667">
<time>2014-07-06T10:49:45Z</time>
 <fix>none</fix>
 <sat>0</sat>
</trkpt>
<trkpt lat="60.915041667" lon="15.227128333">
<time>2014-07-06T10:49:46Z</time>
 <fix>none</fix>
 <sat>0</sat>
</trkpt>
<trkpt lat="60.915116667" lon="15.227093333">
<time>2014-07-06T10:49:47Z</time>
 <fix>none</fix>
 <sat>0</sat>
</trkpt>
<trkpt lat="60.915193333" lon="15.227041667">
<time>2014-07-06T10:49:48Z</time>
 <fix>none</fix>
 <sat>0</sat>
</trkpt>
<trkpt lat="60.915266667" lon="15.226958333">
<time>2014-07-06T10:49:49Z</time>
 <fix>none</fix>
 <sat>0</sat>
</trkpt>
<trkpt lat="60.915266667" lon="15.226958333">
<time>2014-07-06T10:49:50Z</time>
 <fix>none</fix>
 <sat>0</sat>
</trkpt>
<trkpt lat="60.915328333" lon="15.226868333">
<time>2014-07-06T10:49:51Z</time>
 <fix>none</fix>
 <sat>0</sat>
</trkpt>
<trkpt lat="60.915375000" lon="15.226753333">
<time>2014-07-06T10:49:52Z</time>
 <fix>none</fix>
 <sat>0</sat>
</trkpt>
<trkpt lat="60.915413333" lon="15.226626667">
<time>2014-07-06T10:49:53Z</time>
 <fix>none</fix>
 <sat>0</sat>
</trkpt>
<trkpt lat="60.915450000" lon="15.226500000">
<time>2014-07-06T10:49:54Z</time>
 <fix>none</fix>
 <sat>0</sat>
</trkpt>
<trkpt lat="60.915531667" lon="15.226115000">
<time>2014-07-06T10:49:55Z</time>
 <fix>none</fix>
 <sat>0</sat>
</trkpt>
<trkpt lat="60.915573333" lon="15.225936667">
<time>2014-07-06T10:49:56Z</time>
 <fix>none</fix>
 <sat>0</sat>
</trkpt>
<trkpt lat="60.915573333" lon="15.225936667">
<time>2014-07-06T10:49:57Z</time>
 <fix>none</fix>
 <sat>0</sat>
</trkpt>
<trkpt lat="60.915611667" lon="15.225766667">
<time>2014-07-06T10:49:58Z</time>
 <fix>none</fix>
 <sat>0</sat>
</trkpt>
<trkpt lat="60.915695000" lon="15.225478333">
<time>2014-07-06T10:49:59Z</time>
 <fix>none</fix>
 <sat>0</sat>
</trkpt>
<trkpt lat="60.915745000" lon="15.225351667">
<time>2014-07-06T10:50:00Z</time>
 <fix>none</fix>
 <sat>0</sat>
</trkpt>
<trkpt lat="60.915805000" lon="15.225246667">
<time>2014-07-06T10:50:01Z</time>
 <fix>none</fix>
 <sat>0</sat>
</trkpt>
<trkpt lat="60.915873333" lon="15.225173333">
<time>2014-07-06T10:50:02Z</time>
 <fix>none</fix>
 <sat>0</sat>
</trkpt>
<trkpt lat="60.915936667" lon="15.225061667">
<time>2014-07-06T10:50:03Z</time>
 <fix>none</fix>
 <sat>0</sat>
</trkpt>
<trkpt lat="60.915990000" lon="15.224961667">
<time>2014-07-06T10:50:04Z</time>
 <fix>none</fix>
 <sat>0</sat>
</trkpt>
<trkpt lat="60.915990000" lon="15.224961667">
<time>2014-07-06T10:50:05Z</time>
 <fix>none</fix>
 <sat>0</sat>
</trkpt>
<trkpt lat="60.915990000" lon="15.224961667">
<time>2014-07-06T10:50:06Z</time>
 <fix>none</fix>
 <sat>0</sat>
</trkpt>
<trkpt lat="60.916040000" lon="15.224490000">
<time>2014-07-06T10:50:07Z</time>
 <fix>none</fix>
 <sat>0</sat>
</trkpt>
<trkpt lat="60.916040000" lon="15.224490000">
<time>2014-07-06T10:50:08Z</time>
 <fix>none</fix>
 <sat>0</sat>
</trkpt>
<trkpt lat="60.916041667" lon="15.224206667">
<time>2014-07-06T10:50:09Z</time>
 <fix>none</fix>
 <sat>0</sat>
</trkpt>
<trkpt lat="60.916041667" lon="15.224206667">
<time>2014-07-06T10:50:10Z</time>
 <fix>none</fix>
 <sat>0</sat>
</trkpt>
<trkpt lat="60.916026667" lon="15.223866667">
<time>2014-07-06T10:50:11Z</time>
 <fix>none</fix>
 <sat>0</sat>
</trkpt>
<trkpt lat="60.916026667" lon="15.223866667">
<time>2014-07-06T10:50:12Z</time>
 <fix>none</fix>
 <sat>0</sat>
</trkpt>
<trkpt lat="60.916078333" lon="15.223628333">
<time>2014-07-06T10:50:13Z</time>
 <fix>none</fix>
 <sat>0</sat>
</trkpt>
<trkpt lat="60.916078333" lon="15.223628333">
<time>2014-07-06T10:50:14Z</time>
 <fix>none</fix>
 <sat>0</sat>
</trkpt>
<trkpt lat="60.916075000" lon="15.223290000">
<time>2014-07-06T10:50:15Z</time>
 <fix>none</fix>
 <sat>0</sat>
</trkpt>
<trkpt lat="60.916075000" lon="15.223290000">
<time>2014-07-06T10:50:16Z</time>
 <fix>none</fix>
 <sat>0</sat>
</trkpt>
<trkpt lat="60.916030000" lon="15.222938333">
<time>2014-07-06T10:50:17Z</time>
 <fix>none</fix>
 <sat>0</sat>
</trkpt>
<trkpt lat="60.916030000" lon="15.222938333">
<time>2014-07-06T10:50:18Z</time>
 <fix>none</fix>
 <sat>0</sat>
</trkpt>
<trkpt lat="60.915978333" lon="15.222633333">
<time>2014-07-06T10:50:19Z</time>
 <fix>none</fix>
 <sat>0</sat>
</trkpt>
<trkpt lat="60.915978333" lon="15.222633333">
<time>2014-07-06T10:50:20Z</time>
 <fix>none</fix>
 <sat>0</sat>
</trkpt>
<trkpt lat="60.915988333" lon="15.222240000">
<time>2014-07-06T10:50:21Z</time>
 <fix>none</fix>
 <sat>0</sat>
</trkpt>
<trkpt lat="60.915988333" lon="15.222240000">
<time>2014-07-06T10:50:22Z</time>
 <fix>none</fix>
 <sat>0</sat>
</trkpt>
<trkpt lat="60.916040000" lon="15.222048333">
<time>2014-07-06T10:50:23Z</time>
 <fix>none</fix>
 <sat>0</sat>
</trkpt>
<trkpt lat="60.916040000" lon="15.222048333">
<time>2014-07-06T10:50:24Z</time>
 <fix>none</fix>
 <sat>0</sat>
</trkpt>
<trkpt lat="60.916140000" lon="15.221990000">
<time>2014-07-06T10:50:25Z</time>
 <fix>none</fix>
 <sat>0</sat>
</trkpt>
<trkpt lat="60.916140000" lon="15.221990000">
<time>2014-07-06T10:50:26Z</time>
 <fix>none</fix>
 <sat>0</sat>
</trkpt>
<trkpt lat="60.916205000" lon="15.221793333">
<time>2014-07-06T10:50:27Z</time>
 <fix>none</fix>
 <sat>0</sat>
</trkpt>
<trkpt lat="60.916205000" lon="15.221793333">
<time>2014-07-06T10:50:28Z</time>
 <fix>none</fix>
 <sat>0</sat>
</trkpt>
<trkpt lat="60.916381667" lon="15.221908333">
<time>2014-07-06T10:50:29Z</time>
 <fix>none</fix>
 <sat>0</sat>
</trkpt>
<trkpt lat="60.916381667" lon="15.221908333">
<time>2014-07-06T10:50:30Z</time>
 <fix>none</fix>
 <sat>0</sat>
</trkpt>
<trkpt lat="60.916503333" lon="15.221763333">
<time>2014-07-06T10:50:31Z</time>
 <fix>none</fix>
 <sat>0</sat>
</trkpt>
<trkpt lat="60.916558333" lon="15.221686667">
<time>2014-07-06T10:50:32Z</time>
 <fix>none</fix>
 <sat>0</sat>
</trkpt>
<trkpt lat="60.916648333" lon="15.221606667">
<time>2014-07-06T10:50:33Z</time>
 <fix>none</fix>
 <sat>0</sat>
</trkpt>
<trkpt lat="60.916711667" lon="15.221465000">
<time>2014-07-06T10:50:34Z</time>
 <fix>none</fix>
 <sat>0</sat>
</trkpt>
<trkpt lat="60.916711667" lon="15.221465000">
<time>2014-07-06T10:50:35Z</time>
 <fix>none</fix>
 <sat>0</sat>
</trkpt>
<trkpt lat="60.916775000" lon="15.221306667">
<time>2014-07-06T10:50:36Z</time>
 <fix>none</fix>
 <sat>0</sat>
</trkpt>
<trkpt lat="60.916848333" lon="15.221163333">
<time>2014-07-06T10:50:37Z</time>
 <fix>none</fix>
 <sat>0</sat>
</trkpt>
<trkpt lat="60.916925000" lon="15.221035000">
<time>2014-07-06T10:50:38Z</time>
 <fix>none</fix>
 <sat>0</sat>
</trkpt>
<trkpt lat="60.917000000" lon="15.220908333">
<time>2014-07-06T10:50:39Z</time>
 <fix>none</fix>
 <sat>0</sat>
</trkpt>
<trkpt lat="60.917068333" lon="15.220790000">
<time>2014-07-06T10:50:40Z</time>
 <fix>none</fix>
 <sat>0</sat>
</trkpt>
<trkpt lat="60.917128333" lon="15.220655000">
<time>2014-07-06T10:50:41Z</time>
 <fix>none</fix>
 <sat>0</sat>
</trkpt>
<trkpt lat="60.917181667" lon="15.220525000">
<time>2014-07-06T10:50:42Z</time>
 <fix>none</fix>
 <sat>0</sat>
</trkpt>
<trkpt lat="60.917233333" lon="15.220401667">
<time>2014-07-06T10:50:43Z</time>
 <fix>none</fix>
 <sat>0</sat>
</trkpt>
<trkpt lat="60.917343333" lon="15.220150000">
<time>2014-07-06T10:50:44Z</time>
 <fix>none</fix>
 <sat>0</sat>
</trkpt>
<trkpt lat="60.917343333" lon="15.220150000">
<time>2014-07-06T10:50:45Z</time>
 <fix>none</fix>
 <sat>0</sat>
</trkpt>
<trkpt lat="60.917470000" lon="15.219913333">
<time>2014-07-06T10:50:46Z</time>
 <fix>none</fix>
 <sat>0</sat>
</trkpt>
<trkpt lat="60.917546667" lon="15.219823333">
<time>2014-07-06T10:50:47Z</time>
 <fix>none</fix>
 <sat>0</sat>
</trkpt>
<trkpt lat="60.917546667" lon="15.219823333">
<time>2014-07-06T10:50:48Z</time>
 <fix>none</fix>
 <sat>0</sat>
</trkpt>
<trkpt lat="60.917546667" lon="15.219823333">
<time>2014-07-06T10:50:49Z</time>
 <fix>none</fix>
 <sat>0</sat>
</trkpt>
<trkpt lat="60.917785000" lon="15.219660000">
<time>2014-07-06T10:50:50Z</time>
 <fix>none</fix>
 <sat>0</sat>
</trkpt>
<trkpt lat="60.917785000" lon="15.219660000">
<time>2014-07-06T10:50:51Z</time>
 <fix>none</fix>
 <sat>0</sat>
</trkpt>
<trkpt lat="60.917958333" lon="15.219616667">
<time>2014-07-06T10:50:52Z</time>
 <fix>none</fix>
 <sat>0</sat>
</trkpt>
<trkpt lat="60.917958333" lon="15.219616667">
<time>2014-07-06T10:50:53Z</time>
 <fix>none</fix>
 <sat>0</sat>
</trkpt>
<trkpt lat="60.918113333" lon="15.219558333">
<time>2014-07-06T10:50:54Z</time>
 <fix>none</fix>
 <sat>0</sat>
</trkpt>
<trkpt lat="60.918113333" lon="15.219558333">
<time>2014-07-06T10:50:55Z</time>
 <fix>none</fix>
 <sat>0</sat>
</trkpt>
<trkpt lat="60.918226667" lon="15.219425000">
<time>2014-07-06T10:50:56Z</time>
 <fix>none</fix>
 <sat>0</sat>
</trkpt>
<trkpt lat="60.918226667" lon="15.219425000">
<time>2014-07-06T10:50:57Z</time>
 <fix>none</fix>
 <sat>0</sat>
</trkpt>
<trkpt lat="60.918325000" lon="15.219271667">
<time>2014-07-06T10:50:58Z</time>
 <fix>none</fix>
 <sat>0</sat>
</trkpt>
<trkpt lat="60.918325000" lon="15.219271667">
<time>2014-07-06T10:50:59Z</time>
 <fix>none</fix>
 <sat>0</sat>
</trkpt>
<trkpt lat="60.918443333" lon="15.219191667">
<time>2014-07-06T10:51:00Z</time>
 <fix>none</fix>
 <sat>0</sat>
</trkpt>
<trkpt lat="60.918443333" lon="15.219191667">
<time>2014-07-06T10:51:01Z</time>
 <fix>none</fix>
 <sat>0</sat>
</trkpt>
<trkpt lat="60.918563333" lon="15.219088333">
<time>2014-07-06T10:51:02Z</time>
 <fix>none</fix>
 <sat>0</sat>
</trkpt>
<trkpt lat="60.918575000" lon="15.219080000">
<time>2014-07-06T10:51:03Z</time>
 <fix>none</fix>
 <sat>0</sat>
</trkpt>
<trkpt lat="60.918715000" lon="15.218976667">
<time>2014-07-06T10:51:04Z</time>
 <fix>none</fix>
 <sat>0</sat>
</trkpt>
<trkpt lat="60.918796667" lon="15.218910000">
<time>2014-07-06T10:51:05Z</time>
 <fix>none</fix>
 <sat>0</sat>
</trkpt>
<trkpt lat="60.918796667" lon="15.218910000">
<time>2014-07-06T10:51:06Z</time>
 <fix>none</fix>
 <sat>0</sat>
</trkpt>
<trkpt lat="60.918976667" lon="15.218770000">
<time>2014-07-06T10:51:07Z</time>
 <fix>none</fix>
 <sat>0</sat>
</trkpt>
<trkpt lat="60.919061667" lon="15.218706667">
<time>2014-07-06T10:51:08Z</time>
 <fix>none</fix>
 <sat>0</sat>
</trkpt>
<trkpt lat="60.919158333" lon="15.218643333">
<time>2014-07-06T10:51:09Z</time>
 <fix>none</fix>
 <sat>0</sat>
</trkpt>
<trkpt lat="60.919243333" lon="15.218621667">
<time>2014-07-06T10:51:10Z</time>
 <fix>none</fix>
 <sat>0</sat>
</trkpt>
<trkpt lat="60.919315000" lon="15.218590000">
<time>2014-07-06T10:51:11Z</time>
 <fix>none</fix>
 <sat>0</sat>
</trkpt>
<trkpt lat="60.919375000" lon="15.218516667">
<time>2014-07-06T10:51:12Z</time>
 <fix>none</fix>
 <sat>0</sat>
</trkpt>
<trkpt lat="60.919430000" lon="15.218405000">
<time>2014-07-06T10:51:13Z</time>
 <fix>none</fix>
 <sat>0</sat>
</trkpt>
<trkpt lat="60.919458333" lon="15.218195000">
<time>2014-07-06T10:51:14Z</time>
 <fix>none</fix>
 <sat>0</sat>
</trkpt>
<trkpt lat="60.919486667" lon="15.217985000">
<time>2014-07-06T10:51:15Z</time>
 <fix>none</fix>
 <sat>0</sat>
</trkpt>
<trkpt lat="60.919511667" lon="15.217811667">
<time>2014-07-06T10:51:16Z</time>
 <fix>none</fix>
 <sat>0</sat>
</trkpt>
<trkpt lat="60.919533333" lon="15.217628333">
<time>2014-07-06T10:51:17Z</time>
 <fix>none</fix>
 <sat>0</sat>
</trkpt>
<trkpt lat="60.919555000" lon="15.217446667">
<time>2014-07-06T10:51:18Z</time>
 <fix>none</fix>
 <sat>0</sat>
</trkpt>
<trkpt lat="60.919575000" lon="15.217273333">
<time>2014-07-06T10:51:19Z</time>
 <fix>none</fix>
 <sat>0</sat>
</trkpt>
<trkpt lat="60.919610000" lon="15.217121667">
<time>2014-07-06T10:51:20Z</time>
 <fix>none</fix>
 <sat>0</sat>
</trkpt>
<trkpt lat="60.919610000" lon="15.217121667">
<time>2014-07-06T10:51:21Z</time>
 <fix>none</fix>
 <sat>0</sat>
</trkpt>
<trkpt lat="60.919663333" lon="15.216986667">
<time>2014-07-06T10:51:22Z</time>
 <fix>none</fix>
 <sat>0</sat>
</trkpt>
<trkpt lat="60.919663333" lon="15.216986667">
<time>2014-07-06T10:51:23Z</time>
 <fix>none</fix>
 <sat>0</sat>
</trkpt>
<trkpt lat="60.919926667" lon="15.216911667">
<time>2014-07-06T10:51:24Z</time>
 <fix>none</fix>
 <sat>0</sat>
</trkpt>
<trkpt lat="60.919926667" lon="15.216911667">
<time>2014-07-06T10:51:25Z</time>
 <fix>none</fix>
 <sat>0</sat>
</trkpt>
<trkpt lat="60.920046667" lon="15.216806667">
<time>2014-07-06T10:51:26Z</time>
 <fix>none</fix>
 <sat>0</sat>
</trkpt>
<trkpt lat="60.920046667" lon="15.216806667">
<time>2014-07-06T10:51:27Z</time>
 <fix>none</fix>
 <sat>0</sat>
</trkpt>
<trkpt lat="60.920046667" lon="15.216806667">
<time>2014-07-06T10:51:28Z</time>
 <fix>none</fix>
 <sat>0</sat>
</trkpt>
<trkpt lat="60.920200000" lon="15.216763333">
<time>2014-07-06T10:51:29Z</time>
 <fix>none</fix>
 <sat>0</sat>
</trkpt>
<trkpt lat="60.920323333" lon="15.216620000">
<time>2014-07-06T10:51:30Z</time>
 <fix>none</fix>
 <sat>0</sat>
</trkpt>
<trkpt lat="60.920323333" lon="15.216620000">
<time>2014-07-06T10:51:31Z</time>
 <fix>none</fix>
 <sat>0</sat>
</trkpt>
<trkpt lat="60.920490000" lon="15.216480000">
<time>2014-07-06T10:51:32Z</time>
 <fix>none</fix>
 <sat>0</sat>
</trkpt>
<trkpt lat="60.920490000" lon="15.216480000">
<time>2014-07-06T10:51:33Z</time>
 <fix>none</fix>
 <sat>0</sat>
</trkpt>
<trkpt lat="60.920676667" lon="15.216315000">
<time>2014-07-06T10:51:34Z</time>
 <fix>none</fix>
 <sat>0</sat>
</trkpt>
<trkpt lat="60.920676667" lon="15.216315000">
<time>2014-07-06T10:51:35Z</time>
 <fix>none</fix>
 <sat>0</sat>
</trkpt>
<trkpt lat="60.920811667" lon="15.216186667">
<time>2014-07-06T10:51:36Z</time>
 <fix>none</fix>
 <sat>0</sat>
</trkpt>
<trkpt lat="60.920811667" lon="15.216186667">
<time>2014-07-06T10:51:37Z</time>
 <fix>none</fix>
 <sat>0</sat>
</trkpt>
<trkpt lat="60.920958333" lon="15.216018333">
<time>2014-07-06T10:51:38Z</time>
 <fix>none</fix>
 <sat>0</sat>
</trkpt>
<trkpt lat="60.920958333" lon="15.216018333">
<time>2014-07-06T10:51:39Z</time>
 <fix>none</fix>
 <sat>0</sat>
</trkpt>
<trkpt lat="60.921096667" lon="15.215970000">
<time>2014-07-06T10:51:40Z</time>
 <fix>none</fix>
 <sat>0</sat>
</trkpt>
<trkpt lat="60.921151667" lon="15.215981667">
<time>2014-07-06T10:51:41Z</time>
 <fix>none</fix>
 <sat>0</sat>
</trkpt>
<trkpt lat="60.921168333" lon="15.216083333">
<time>2014-07-06T10:51:42Z</time>
 <fix>none</fix>
 <sat>0</sat>
</trkpt>
<trkpt lat="60.921146667" lon="15.216173333">
<time>2014-07-06T10:51:43Z</time>
 <fix>none</fix>
 <sat>0</sat>
</trkpt>
<trkpt lat="60.921146667" lon="15.216173333">
<time>2014-07-06T10:51:44Z</time>
 <fix>none</fix>
 <sat>0</sat>
</trkpt>
<trkpt lat="60.921141667" lon="15.216256667">
<time>2014-07-06T10:51:45Z</time>
 <fix>none</fix>
 <sat>0</sat>
</trkpt>
<trkpt lat="60.921123333" lon="15.216326667">
<time>2014-07-06T10:51:46Z</time>
 <fix>none</fix>
 <sat>0</sat>
</trkpt>
<trkpt lat="60.921125000" lon="15.216413333">
<time>2014-07-06T10:51:47Z</time>
 <fix>none</fix>
 <sat>0</sat>
</trkpt>
<trkpt lat="60.921120000" lon="15.216535000">
<time>2014-07-06T10:51:48Z</time>
 <fix>none</fix>
 <sat>0</sat>
</trkpt>
<trkpt lat="60.921096667" lon="15.216645000">
<time>2014-07-06T10:51:49Z</time>
 <fix>none</fix>
 <sat>0</sat>
</trkpt>
<trkpt lat="60.921075000" lon="15.216856667">
<time>2014-07-06T10:51:50Z</time>
 <fix>none</fix>
 <sat>0</sat>
</trkpt>
<trkpt lat="60.921075000" lon="15.216856667">
<time>2014-07-06T10:51:51Z</time>
 <fix>none</fix>
 <sat>0</sat>
</trkpt>
<trkpt lat="60.921063333" lon="15.216968333">
<time>2014-07-06T10:51:52Z</time>
 <fix>none</fix>
 <sat>0</sat>
</trkpt>
<trkpt lat="60.921021667" lon="15.217131667">
<time>2014-07-06T10:51:53Z</time>
 <fix>none</fix>
 <sat>0</sat>
</trkpt>
<trkpt lat="60.920991667" lon="15.217198333">
<time>2014-07-06T10:51:54Z</time>
 <fix>none</fix>
 <sat>0</sat>
</trkpt>
<trkpt lat="60.920991667" lon="15.217198333">
<time>2014-07-06T10:51:55Z</time>
 <fix>none</fix>
 <sat>0</sat>
</trkpt>
<trkpt lat="60.920991667" lon="15.217198333">
<time>2014-07-06T10:51:56Z</time>
 <fix>none</fix>
 <sat>0</sat>
</trkpt>
<trkpt lat="60.920930000" lon="15.217395000">
<time>2014-07-06T10:51:57Z</time>
 <fix>none</fix>
 <sat>0</sat>
</trkpt>
<trkpt lat="60.920930000" lon="15.217395000">
<time>2014-07-06T10:51:58Z</time>
 <fix>none</fix>
 <sat>0</sat>
</trkpt>
<trkpt lat="60.920896667" lon="15.217540000">
<time>2014-07-06T10:51:59Z</time>
 <fix>none</fix>
 <sat>0</sat>
</trkpt>
<trkpt lat="60.920896667" lon="15.217540000">
<time>2014-07-06T10:52:00Z</time>
 <fix>none</fix>
 <sat>0</sat>
</trkpt>
<trkpt lat="60.920878333" lon="15.217706667">
<time>2014-07-06T10:52:01Z</time>
 <fix>none</fix>
 <sat>0</sat>
</trkpt>
<trkpt lat="60.920878333" lon="15.217706667">
<time>2014-07-06T10:52:02Z</time>
 <fix>none</fix>
 <sat>0</sat>
</trkpt>
<trkpt lat="60.920856667" lon="15.217875000">
<time>2014-07-06T10:52:03Z</time>
 <fix>none</fix>
 <sat>0</sat>
</trkpt>
<trkpt lat="60.920856667" lon="15.217875000">
<time>2014-07-06T10:52:04Z</time>
 <fix>none</fix>
 <sat>0</sat>
</trkpt>
<trkpt lat="60.920843333" lon="15.218038333">
<time>2014-07-06T10:52:05Z</time>
 <fix>none</fix>
 <sat>0</sat>
</trkpt>
<trkpt lat="60.920843333" lon="15.218038333">
<time>2014-07-06T10:52:06Z</time>
 <fix>none</fix>
 <sat>0</sat>
</trkpt>
<trkpt lat="60.920795000" lon="15.218200000">
<time>2014-07-06T10:52:07Z</time>
 <fix>none</fix>
 <sat>0</sat>
</trkpt>
<trkpt lat="60.920795000" lon="15.218200000">
<time>2014-07-06T10:52:08Z</time>
 <fix>none</fix>
 <sat>0</sat>
</trkpt>
<trkpt lat="60.920760000" lon="15.218395000">
<time>2014-07-06T10:52:09Z</time>
 <fix>none</fix>
 <sat>0</sat>
</trkpt>
<trkpt lat="60.920760000" lon="15.218425000">
<time>2014-07-06T10:52:10Z</time>
 <fix>none</fix>
 <sat>0</sat>
</trkpt>
<trkpt lat="60.920751667" lon="15.218503333">
<time>2014-07-06T10:52:11Z</time>
 <fix>none</fix>
 <sat>0</sat>
</trkpt>
<trkpt lat="60.920716667" lon="15.218573333">
<time>2014-07-06T10:52:12Z</time>
 <fix>none</fix>
 <sat>0</sat>
</trkpt>
<trkpt lat="60.920671667" lon="15.218693333">
<time>2014-07-06T10:52:13Z</time>
 <fix>none</fix>
 <sat>0</sat>
</trkpt>
<trkpt lat="60.920671667" lon="15.218693333">
<time>2014-07-06T10:52:14Z</time>
 <fix>none</fix>
 <sat>0</sat>
</trkpt>
<trkpt lat="60.920610000" lon="15.218770000">
<time>2014-07-06T10:52:15Z</time>
 <fix>none</fix>
 <sat>0</sat>
</trkpt>
<trkpt lat="60.920581667" lon="15.218806667">
<time>2014-07-06T10:52:16Z</time>
 <fix>none</fix>
 <sat>0</sat>
</trkpt>
<trkpt lat="60.920548333" lon="15.218838333">
<time>2014-07-06T10:52:17Z</time>
 <fix>none</fix>
 <sat>0</sat>
</trkpt>
<trkpt lat="60.920510000" lon="15.218886667">
<time>2014-07-06T10:52:18Z</time>
 <fix>none</fix>
 <sat>0</sat>
</trkpt>
<trkpt lat="60.920468333" lon="15.218945000">
<time>2014-07-06T10:52:19Z</time>
 <fix>none</fix>
 <sat>0</sat>
</trkpt>
<trkpt lat="60.920425000" lon="15.219003333">
<time>2014-07-06T10:52:20Z</time>
 <fix>none</fix>
 <sat>0</sat>
</trkpt>
<trkpt lat="60.920375000" lon="15.219051667">
<time>2014-07-06T10:52:21Z</time>
 <fix>none</fix>
 <sat>0</sat>
</trkpt>
<trkpt lat="60.920333333" lon="15.219091667">
<time>2014-07-06T10:52:22Z</time>
 <fix>none</fix>
 <sat>0</sat>
</trkpt>
<trkpt lat="60.920291667" lon="15.219133333">
<time>2014-07-06T10:52:23Z</time>
 <fix>none</fix>
 <sat>0</sat>
</trkpt>
<trkpt lat="60.920251667" lon="15.219166667">
<time>2014-07-06T10:52:24Z</time>
 <fix>none</fix>
 <sat>0</sat>
</trkpt>
<trkpt lat="60.920221667" lon="15.219211667">
<time>2014-07-06T10:52:25Z</time>
 <fix>none</fix>
 <sat>0</sat>
</trkpt>
<trkpt lat="60.920198333" lon="15.219260000">
<time>2014-07-06T10:52:26Z</time>
 <fix>none</fix>
 <sat>0</sat>
</trkpt>
<trkpt lat="60.920176667" lon="15.219306667">
<time>2014-07-06T10:52:27Z</time>
 <fix>none</fix>
 <sat>0</sat>
</trkpt>
<trkpt lat="60.920176667" lon="15.219306667">
<time>2014-07-06T10:52:28Z</time>
 <fix>none</fix>
 <sat>0</sat>
</trkpt>
<trkpt lat="60.920176667" lon="15.219306667">
<time>2014-07-06T10:52:29Z</time>
 <fix>none</fix>
 <sat>0</sat>
</trkpt>
<trkpt lat="60.920133333" lon="15.219471667">
<time>2014-07-06T10:52:30Z</time>
 <fix>none</fix>
 <sat>0</sat>
</trkpt>
<trkpt lat="60.920133333" lon="15.219471667">
<time>2014-07-06T10:52:31Z</time>
 <fix>none</fix>
 <sat>0</sat>
</trkpt>
<trkpt lat="60.920095000" lon="15.219615000">
<time>2014-07-06T10:52:32Z</time>
 <fix>none</fix>
 <sat>0</sat>
</trkpt>
<trkpt lat="60.920095000" lon="15.219615000">
<time>2014-07-06T10:52:33Z</time>
 <fix>none</fix>
 <sat>0</sat>
</trkpt>
<trkpt lat="60.920063333" lon="15.219773333">
<time>2014-07-06T10:52:34Z</time>
 <fix>none</fix>
 <sat>0</sat>
</trkpt>
<trkpt lat="60.920056667" lon="15.219798333">
<time>2014-07-06T10:52:35Z</time>
 <fix>none</fix>
 <sat>0</sat>
</trkpt>
<trkpt lat="60.920046667" lon="15.219880000">
<time>2014-07-06T10:52:36Z</time>
 <fix>none</fix>
 <sat>0</sat>
</trkpt>
<trkpt lat="60.920035000" lon="15.219988333">
<time>2014-07-06T10:52:37Z</time>
 <fix>none</fix>
 <sat>0</sat>
</trkpt>
<trkpt lat="60.920008333" lon="15.220228333">
<time>2014-07-06T10:52:38Z</time>
 <fix>none</fix>
 <sat>0</sat>
</trkpt>
<trkpt lat="60.920000000" lon="15.220358333">
<time>2014-07-06T10:52:39Z</time>
 <fix>none</fix>
 <sat>0</sat>
</trkpt>
<trkpt lat="60.920006667" lon="15.220488333">
<time>2014-07-06T10:52:40Z</time>
 <fix>none</fix>
 <sat>0</sat>
</trkpt>
<trkpt lat="60.920015000" lon="15.220596667">
<time>2014-07-06T10:52:41Z</time>
 <fix>none</fix>
 <sat>0</sat>
</trkpt>
<trkpt lat="60.920020000" lon="15.220698333">
<time>2014-07-06T10:52:42Z</time>
 <fix>none</fix>
 <sat>0</sat>
</trkpt>
<trkpt lat="60.920018333" lon="15.220800000">
<time>2014-07-06T10:52:43Z</time>
 <fix>none</fix>
 <sat>0</sat>
</trkpt>
<trkpt lat="60.920013333" lon="15.220901667">
<time>2014-07-06T10:52:44Z</time>
 <fix>none</fix>
 <sat>0</sat>
</trkpt>
<trkpt lat="60.920000000" lon="15.220993333">
<time>2014-07-06T10:52:45Z</time>
 <fix>none</fix>
 <sat>0</sat>
</trkpt>
<trkpt lat="60.919986667" lon="15.221065000">
<time>2014-07-06T10:52:46Z</time>
 <fix>none</fix>
 <sat>0</sat>
</trkpt>
<trkpt lat="60.919971667" lon="15.221123333">
<time>2014-07-06T10:52:47Z</time>
 <fix>none</fix>
 <sat>0</sat>
</trkpt>
<trkpt lat="60.919971667" lon="15.221123333">
<time>2014-07-06T10:52:48Z</time>
 <fix>none</fix>
 <sat>0</sat>
</trkpt>
<trkpt lat="60.919971667" lon="15.221123333">
<time>2014-07-06T10:52:49Z</time>
 <fix>none</fix>
 <sat>0</sat>
</trkpt>
<trkpt lat="60.919961667" lon="15.221293333">
<time>2014-07-06T10:52:50Z</time>
 <fix>none</fix>
 <sat>0</sat>
</trkpt>
<trkpt lat="60.919961667" lon="15.221293333">
<time>2014-07-06T10:52:51Z</time>
 <fix>none</fix>
 <sat>0</sat>
</trkpt>
<trkpt lat="60.919963333" lon="15.221443333">
<time>2014-07-06T10:52:52Z</time>
 <fix>none</fix>
 <sat>0</sat>
</trkpt>
<trkpt lat="60.919963333" lon="15.221443333">
<time>2014-07-06T10:52:53Z</time>
 <fix>none</fix>
 <sat>0</sat>
</trkpt>
<trkpt lat="60.919948333" lon="15.221621667">
<time>2014-07-06T10:52:54Z</time>
 <fix>none</fix>
 <sat>0</sat>
</trkpt>
<trkpt lat="60.919950000" lon="15.221640000">
<time>2014-07-06T10:52:55Z</time>
 <fix>none</fix>
 <sat>0</sat>
</trkpt>
<trkpt lat="60.919940000" lon="15.221711667">
<time>2014-07-06T10:52:56Z</time>
 <fix>none</fix>
 <sat>0</sat>
</trkpt>
<trkpt lat="60.919948333" lon="15.221806667">
<time>2014-07-06T10:52:57Z</time>
 <fix>none</fix>
 <sat>0</sat>
</trkpt>
<trkpt lat="60.919955000" lon="15.221895000">
<time>2014-07-06T10:52:58Z</time>
 <fix>none</fix>
 <sat>0</sat>
</trkpt>
<trkpt lat="60.919956667" lon="15.221990000">
<time>2014-07-06T10:52:59Z</time>
 <fix>none</fix>
 <sat>0</sat>
</trkpt>
<trkpt lat="60.919956667" lon="15.222131667">
<time>2014-07-06T10:53:00Z</time>
 <fix>none</fix>
 <sat>0</sat>
</trkpt>
<trkpt lat="60.919953333" lon="15.222185000">
<time>2014-07-06T10:53:01Z</time>
 <fix>none</fix>
 <sat>0</sat>
</trkpt>
<trkpt lat="60.919960000" lon="15.222243333">
<time>2014-07-06T10:53:02Z</time>
 <fix>none</fix>
 <sat>0</sat>
</trkpt>
<trkpt lat="60.919956667" lon="15.222303333">
<time>2014-07-06T10:53:03Z</time>
 <fix>none</fix>
 <sat>0</sat>
</trkpt>
<trkpt lat="60.919971667" lon="15.222356667">
<time>2014-07-06T10:53:04Z</time>
 <fix>none</fix>
 <sat>0</sat>
</trkpt>
<trkpt lat="60.919996667" lon="15.222400000">
<time>2014-07-06T10:53:05Z</time>
 <fix>none</fix>
 <sat>0</sat>
</trkpt>
<trkpt lat="60.920028333" lon="15.222450000">
<time>2014-07-06T10:53:06Z</time>
 <fix>none</fix>
 <sat>0</sat>
</trkpt>
<trkpt lat="60.920065000" lon="15.222515000">
<time>2014-07-06T10:53:07Z</time>
 <fix>none</fix>
 <sat>0</sat>
</trkpt>
<trkpt lat="60.920100000" lon="15.222593333">
<time>2014-07-06T10:53:08Z</time>
 <fix>none</fix>
 <sat>0</sat>
</trkpt>
<trkpt lat="60.920126667" lon="15.222671667">
<time>2014-07-06T10:53:09Z</time>
 <fix>none</fix>
 <sat>0</sat>
</trkpt>
<trkpt lat="60.920141667" lon="15.222740000">
<time>2014-07-06T10:53:10Z</time>
 <fix>none</fix>
 <sat>0</sat>
</trkpt>
<trkpt lat="60.920160000" lon="15.222798333">
<time>2014-07-06T10:53:11Z</time>
 <fix>none</fix>
 <sat>0</sat>
</trkpt>
<trkpt lat="60.920148333" lon="15.222846667">
<time>2014-07-06T10:53:12Z</time>
 <fix>none</fix>
 <sat>0</sat>
</trkpt>
<trkpt lat="60.920121667" lon="15.222905000">
<time>2014-07-06T10:53:13Z</time>
 <fix>none</fix>
 <sat>0</sat>
</trkpt>
<trkpt lat="60.920121667" lon="15.222905000">
<time>2014-07-06T10:53:14Z</time>
 <fix>none</fix>
 <sat>0</sat>
</trkpt>
<trkpt lat="60.920121667" lon="15.222905000">
<time>2014-07-06T10:53:15Z</time>
 <fix>none</fix>
 <sat>0</sat>
</trkpt>
<trkpt lat="60.920090000" lon="15.223148333">
<time>2014-07-06T10:53:16Z</time>
 <fix>none</fix>
 <sat>0</sat>
</trkpt>
<trkpt lat="60.920090000" lon="15.223148333">
<time>2014-07-06T10:53:17Z</time>
 <fix>none</fix>
 <sat>0</sat>
</trkpt>
<trkpt lat="60.920061667" lon="15.223315000">
<time>2014-07-06T10:53:18Z</time>
 <fix>none</fix>
 <sat>0</sat>
</trkpt>
<trkpt lat="60.920060000" lon="15.223333333">
<time>2014-07-06T10:53:19Z</time>
 <fix>none</fix>
 <sat>0</sat>
</trkpt>
<trkpt lat="60.920045000" lon="15.223390000">
<time>2014-07-06T10:53:20Z</time>
 <fix>none</fix>
 <sat>0</sat>
</trkpt>
<trkpt lat="60.920053333" lon="15.223478333">
<time>2014-07-06T10:53:21Z</time>
 <fix>none</fix>
 <sat>0</sat>
</trkpt>
<trkpt lat="60.920021667" lon="15.223586667">
<time>2014-07-06T10:53:22Z</time>
 <fix>none</fix>
 <sat>0</sat>
</trkpt>
<trkpt lat="60.919985000" lon="15.223826667">
<time>2014-07-06T10:53:23Z</time>
 <fix>none</fix>
 <sat>0</sat>
</trkpt>
<trkpt lat="60.919976667" lon="15.223913333">
<time>2014-07-06T10:53:24Z</time>
 <fix>none</fix>
 <sat>0</sat>
</trkpt>
<trkpt lat="60.919985000" lon="15.223981667">
<time>2014-07-06T10:53:25Z</time>
 <fix>none</fix>
 <sat>0</sat>
</trkpt>
<trkpt lat="60.919995000" lon="15.224053333">
<time>2014-07-06T10:53:26Z</time>
 <fix>none</fix>
 <sat>0</sat>
</trkpt>
<trkpt lat="60.920008333" lon="15.224120000">
<time>2014-07-06T10:53:27Z</time>
 <fix>none</fix>
 <sat>0</sat>
</trkpt>
<trkpt lat="60.920020000" lon="15.224201667">
<time>2014-07-06T10:53:28Z</time>
 <fix>none</fix>
 <sat>0</sat>
</trkpt>
<trkpt lat="60.920025000" lon="15.224293333">
<time>2014-07-06T10:53:29Z</time>
 <fix>none</fix>
 <sat>0</sat>
</trkpt>
<trkpt lat="60.920033333" lon="15.224380000">
<time>2014-07-06T10:53:30Z</time>
 <fix>none</fix>
 <sat>0</sat>
</trkpt>
<trkpt lat="60.920043333" lon="15.224465000">
<time>2014-07-06T10:53:31Z</time>
 <fix>none</fix>
 <sat>0</sat>
</trkpt>
<trkpt lat="60.920051667" lon="15.224536667">
<time>2014-07-06T10:53:32Z</time>
 <fix>none</fix>
 <sat>0</sat>
</trkpt>
<trkpt lat="60.920058333" lon="15.224576667">
<time>2014-07-06T10:53:33Z</time>
 <fix>none</fix>
 <sat>0</sat>
</trkpt>
<trkpt lat="60.920061667" lon="15.224603333">
<time>2014-07-06T10:53:34Z</time>
 <fix>none</fix>
 <sat>0</sat>
</trkpt>
<trkpt lat="60.920075000" lon="15.224628333">
<time>2014-07-06T10:53:35Z</time>
 <fix>none</fix>
 <sat>0</sat>
</trkpt>
<trkpt lat="60.920088333" lon="15.224640000">
<time>2014-07-06T10:53:36Z</time>
 <fix>none</fix>
 <sat>0</sat>
</trkpt>
<trkpt lat="60.920105000" lon="15.224658333">
<time>2014-07-06T10:53:37Z</time>
 <fix>none</fix>
 <sat>0</sat>
</trkpt>
<trkpt lat="60.920105000" lon="15.224658333">
<time>2014-07-06T10:53:38Z</time>
 <fix>none</fix>
 <sat>0</sat>
</trkpt>
<trkpt lat="60.920126667" lon="15.224685000">
<time>2014-07-06T10:53:39Z</time>
 <fix>none</fix>
 <sat>0</sat>
</trkpt>
<trkpt lat="60.920156667" lon="15.224705000">
<time>2014-07-06T10:53:40Z</time>
 <fix>none</fix>
 <sat>0</sat>
</trkpt>
<trkpt lat="60.920196667" lon="15.224731667">
<time>2014-07-06T10:53:41Z</time>
 <fix>none</fix>
 <sat>0</sat>
</trkpt>
<trkpt lat="60.920238333" lon="15.224780000">
<time>2014-07-06T10:53:42Z</time>
 <fix>none</fix>
 <sat>0</sat>
</trkpt>
<trkpt lat="60.920335000" lon="15.224883333">
<time>2014-07-06T10:53:43Z</time>
 <fix>none</fix>
 <sat>0</sat>
</trkpt>
<trkpt lat="60.920335000" lon="15.224883333">
<time>2014-07-06T10:53:44Z</time>
 <fix>none</fix>
 <sat>0</sat>
</trkpt>
<trkpt lat="60.920436667" lon="15.225048333">
<time>2014-07-06T10:53:45Z</time>
 <fix>none</fix>
 <sat>0</sat>
</trkpt>
<trkpt lat="60.920490000" lon="15.225146667">
<time>2014-07-06T10:53:46Z</time>
 <fix>none</fix>
 <sat>0</sat>
</trkpt>
<trkpt lat="60.920566667" lon="15.225371667">
<time>2014-07-06T10:53:47Z</time>
 <fix>none</fix>
 <sat>0</sat>
</trkpt>
<trkpt lat="60.920586667" lon="15.225471667">
<time>2014-07-06T10:53:48Z</time>
 <fix>none</fix>
 <sat>0</sat>
</trkpt>
<trkpt lat="60.920596667" lon="15.225561667">
<time>2014-07-06T10:53:49Z</time>
 <fix>none</fix>
 <sat>0</sat>
</trkpt>
<trkpt lat="60.920608333" lon="15.225660000">
<time>2014-07-06T10:53:50Z</time>
 <fix>none</fix>
 <sat>0</sat>
</trkpt>
<trkpt lat="60.920613333" lon="15.225738333">
<time>2014-07-06T10:53:51Z</time>
 <fix>none</fix>
 <sat>0</sat>
</trkpt>
<trkpt lat="60.920623333" lon="15.225768333">
<time>2014-07-06T10:53:52Z</time>
 <fix>none</fix>
 <sat>0</sat>
</trkpt>
<trkpt lat="60.920641667" lon="15.225773333">
<time>2014-07-06T10:53:53Z</time>
 <fix>none</fix>
 <sat>0</sat>
</trkpt>
<trkpt lat="60.920663333" lon="15.225783333">
<time>2014-07-06T10:53:54Z</time>
 <fix>none</fix>
 <sat>0</sat>
</trkpt>
<trkpt lat="60.920663333" lon="15.225783333">
<time>2014-07-06T10:53:55Z</time>
 <fix>none</fix>
 <sat>0</sat>
</trkpt>
<trkpt lat="60.920663333" lon="15.225783333">
<time>2014-07-06T10:53:56Z</time>
 <fix>none</fix>
 <sat>0</sat>
</trkpt>
<trkpt lat="60.920776667" lon="15.225820000">
<time>2014-07-06T10:53:57Z</time>
 <fix>none</fix>
 <sat>0</sat>
</trkpt>
<trkpt lat="60.920776667" lon="15.225820000">
<time>2014-07-06T10:53:58Z</time>
 <fix>none</fix>
 <sat>0</sat>
</trkpt>
<trkpt lat="60.920850000" lon="15.225833333">
<time>2014-07-06T10:53:59Z</time>
 <fix>none</fix>
 <sat>0</sat>
</trkpt>
<trkpt lat="60.920850000" lon="15.225833333">
<time>2014-07-06T10:54:00Z</time>
 <fix>none</fix>
 <sat>0</sat>
</trkpt>
<trkpt lat="60.920931667" lon="15.225871667">
<time>2014-07-06T10:54:01Z</time>
 <fix>none</fix>
 <sat>0</sat>
</trkpt>
<trkpt lat="60.920931667" lon="15.225871667">
<time>2014-07-06T10:54:02Z</time>
 <fix>none</fix>
 <sat>0</sat>
</trkpt>
<trkpt lat="60.921000000" lon="15.225901667">
<time>2014-07-06T10:54:03Z</time>
 <fix>none</fix>
 <sat>0</sat>
</trkpt>
<trkpt lat="60.921011667" lon="15.225911667">
<time>2014-07-06T10:54:04Z</time>
 <fix>none</fix>
 <sat>0</sat>
</trkpt>
<trkpt lat="60.921025000" lon="15.225915000">
<time>2014-07-06T10:54:05Z</time>
 <fix>none</fix>
 <sat>0</sat>
</trkpt>
<trkpt lat="60.921085000" lon="15.225895000">
<time>2014-07-06T10:54:06Z</time>
 <fix>none</fix>
 <sat>0</sat>
</trkpt>
<trkpt lat="60.921111667" lon="15.225908333">
<time>2014-07-06T10:54:07Z</time>
 <fix>none</fix>
 <sat>0</sat>
</trkpt>
<trkpt lat="60.921111667" lon="15.225908333">
<time>2014-07-06T10:54:08Z</time>
 <fix>none</fix>
 <sat>0</sat>
</trkpt>
<trkpt lat="60.921178333" lon="15.225955000">
<time>2014-07-06T10:54:09Z</time>
 <fix>none</fix>
 <sat>0</sat>
</trkpt>
<trkpt lat="60.921178333" lon="15.225955000">
<time>2014-07-06T10:54:10Z</time>
 <fix>none</fix>
 <sat>0</sat>
</trkpt>
<trkpt lat="60.921206667" lon="15.225991667">
<time>2014-07-06T10:54:11Z</time>
 <fix>none</fix>
 <sat>0</sat>
</trkpt>
<trkpt lat="60.921246667" lon="15.226040000">
<time>2014-07-06T10:54:12Z</time>
 <fix>none</fix>
 <sat>0</sat>
</trkpt>
<trkpt lat="60.921273333" lon="15.226063333">
<time>2014-07-06T10:54:13Z</time>
 <fix>none</fix>
 <sat>0</sat>
</trkpt>
<trkpt lat="60.921295000" lon="15.226095000">
<time>2014-07-06T10:54:14Z</time>
 <fix>none</fix>
 <sat>0</sat>
</trkpt>
<trkpt lat="60.921318333" lon="15.226143333">
<time>2014-07-06T10:54:15Z</time>
 <fix>none</fix>
 <sat>0</sat>
</trkpt>
<trkpt lat="60.921318333" lon="15.226143333">
<time>2014-07-06T10:54:16Z</time>
 <fix>none</fix>
 <sat>0</sat>
</trkpt>
<trkpt lat="60.921373333" lon="15.226235000">
<time>2014-07-06T10:54:17Z</time>
 <fix>none</fix>
 <sat>0</sat>
</trkpt>
<trkpt lat="60.921395000" lon="15.226306667">
<time>2014-07-06T10:54:18Z</time>
 <fix>none</fix>
 <sat>0</sat>
</trkpt>
<trkpt lat="60.921405000" lon="15.226425000">
<time>2014-07-06T10:54:19Z</time>
 <fix>none</fix>
 <sat>0</sat>
</trkpt>
<trkpt lat="60.921398333" lon="15.226505000">
<time>2014-07-06T10:54:20Z</time>
 <fix>none</fix>
 <sat>0</sat>
</trkpt>
<trkpt lat="60.921381667" lon="15.226556667">
<time>2014-07-06T10:54:21Z</time>
 <fix>none</fix>
 <sat>0</sat>
</trkpt>
<trkpt lat="60.921348333" lon="15.226593333">
<time>2014-07-06T10:54:22Z</time>
 <fix>none</fix>
 <sat>0</sat>
</trkpt>
<trkpt lat="60.921348333" lon="15.226593333">
<time>2014-07-06T10:54:23Z</time>
 <fix>none</fix>
 <sat>0</sat>
</trkpt>
<trkpt lat="60.921308333" lon="15.226658333">
<time>2014-07-06T10:54:24Z</time>
 <fix>none</fix>
 <sat>0</sat>
</trkpt>
<trkpt lat="60.921255000" lon="15.226723333">
<time>2014-07-06T10:54:25Z</time>
 <fix>none</fix>
 <sat>0</sat>
</trkpt>
<trkpt lat="60.921198333" lon="15.226801667">
<time>2014-07-06T10:54:26Z</time>
 <fix>none</fix>
 <sat>0</sat>
</trkpt>
<trkpt lat="60.921133333" lon="15.226876667">
<time>2014-07-06T10:54:27Z</time>
 <fix>none</fix>
 <sat>0</sat>
</trkpt>
<trkpt lat="60.921050000" lon="15.226928333">
<time>2014-07-06T10:54:28Z</time>
 <fix>none</fix>
 <sat>0</sat>
</trkpt>
<trkpt lat="60.920873333" lon="15.226958333">
<time>2014-07-06T10:54:29Z</time>
 <fix>none</fix>
 <sat>0</sat>
</trkpt>
<trkpt lat="60.920873333" lon="15.226958333">
<time>2014-07-06T10:54:30Z</time>
 <fix>none</fix>
 <sat>0</sat>
</trkpt>
<trkpt lat="60.920873333" lon="15.226958333">
<time>2014-07-06T10:54:31Z</time>
 <fix>none</fix>
 <sat>0</sat>
</trkpt>
<trkpt lat="60.920611667" lon="15.227041667">
<time>2014-07-06T10:54:32Z</time>
 <fix>none</fix>
 <sat>0</sat>
</trkpt>
<trkpt lat="60.920611667" lon="15.227041667">
<time>2014-07-06T10:54:33Z</time>
 <fix>none</fix>
 <sat>0</sat>
</trkpt>
<trkpt lat="60.920426667" lon="15.227096667">
<time>2014-07-06T10:54:34Z</time>
 <fix>none</fix>
 <sat>0</sat>
</trkpt>
<trkpt lat="60.920426667" lon="15.227096667">
<time>2014-07-06T10:54:35Z</time>
 <fix>none</fix>
 <sat>0</sat>
</trkpt>
<trkpt lat="60.920233333" lon="15.227011667">
<time>2014-07-06T10:54:36Z</time>
 <fix>none</fix>
 <sat>0</sat>
</trkpt>
<trkpt lat="60.920233333" lon="15.227011667">
<time>2014-07-06T10:54:37Z</time>
 <fix>none</fix>
 <sat>0</sat>
</trkpt>
<trkpt lat="60.920200000" lon="15.226903333">
<time>2014-07-06T10:54:38Z</time>
 <fix>none</fix>
 <sat>0</sat>
</trkpt>
<trkpt lat="60.920200000" lon="15.226903333">
<time>2014-07-06T10:54:39Z</time>
 <fix>none</fix>
 <sat>0</sat>
</trkpt>
<trkpt lat="60.919995000" lon="15.227358333">
<time>2014-07-06T10:54:40Z</time>
 <fix>none</fix>
 <sat>0</sat>
</trkpt>
<trkpt lat="60.919941667" lon="15.227503333">
<time>2014-07-06T10:54:41Z</time>
 <fix>none</fix>
 <sat>0</sat>
</trkpt>
<trkpt lat="60.919871667" lon="15.227638333">
<time>2014-07-06T10:54:42Z</time>
 <fix>none</fix>
 <sat>0</sat>
</trkpt>
<trkpt lat="60.919806667" lon="15.227745000">
<time>2014-07-06T10:54:43Z</time>
 <fix>none</fix>
 <sat>0</sat>
</trkpt>
<trkpt lat="60.919741667" lon="15.227820000">
<time>2014-07-06T10:54:44Z</time>
 <fix>none</fix>
 <sat>0</sat>
</trkpt>
<trkpt lat="60.919675000" lon="15.227868333">
<time>2014-07-06T10:54:45Z</time>
 <fix>none</fix>
 <sat>0</sat>
</trkpt>
<trkpt lat="60.919675000" lon="15.227868333">
<time>2014-07-06T10:54:46Z</time>
 <fix>none</fix>
 <sat>0</sat>
</trkpt>
<trkpt lat="60.919601667" lon="15.227900000">
<time>2014-07-06T10:54:47Z</time>
 <fix>none</fix>
 <sat>0</sat>
</trkpt>
<trkpt lat="60.919526667" lon="15.227911667">
<time>2014-07-06T10:54:48Z</time>
 <fix>none</fix>
 <sat>0</sat>
</trkpt>
<trkpt lat="60.919450000" lon="15.227926667">
<time>2014-07-06T10:54:49Z</time>
 <fix>none</fix>
 <sat>0</sat>
</trkpt>
<trkpt lat="60.919376667" lon="15.227948333">
<time>2014-07-06T10:54:50Z</time>
 <fix>none</fix>
 <sat>0</sat>
</trkpt>
<trkpt lat="60.919313333" lon="15.227976667">
<time>2014-07-06T10:54:51Z</time>
 <fix>none</fix>
 <sat>0</sat>
</trkpt>
<trkpt lat="60.919313333" lon="15.227976667">
<time>2014-07-06T10:54:52Z</time>
 <fix>none</fix>
 <sat>0</sat>
</trkpt>
<trkpt lat="60.919158333" lon="15.228098333">
<time>2014-07-06T10:54:53Z</time>
 <fix>none</fix>
 <sat>0</sat>
</trkpt>
<trkpt lat="60.919158333" lon="15.228098333">
<time>2014-07-06T10:54:54Z</time>
 <fix>none</fix>
 <sat>0</sat>
</trkpt>
<trkpt lat="60.919033333" lon="15.228220000">
<time>2014-07-06T10:54:55Z</time>
 <fix>none</fix>
 <sat>0</sat>
</trkpt>
<trkpt lat="60.919033333" lon="15.228220000">
<time>2014-07-06T10:54:56Z</time>
 <fix>none</fix>
 <sat>0</sat>
</trkpt>
<trkpt lat="60.918888333" lon="15.228388333">
<time>2014-07-06T10:54:57Z</time>
 <fix>none</fix>
 <sat>0</sat>
</trkpt>
<trkpt lat="60.918835000" lon="15.228445000">
<time>2014-07-06T10:54:58Z</time>
 <fix>none</fix>
 <sat>0</sat>
</trkpt>
<trkpt lat="60.918773333" lon="15.228521667">
<time>2014-07-06T10:54:59Z</time>
 <fix>none</fix>
 <sat>0</sat>
</trkpt>
<trkpt lat="60.918711667" lon="15.228588333">
<time>2014-07-06T10:55:00Z</time>
 <fix>none</fix>
 <sat>0</sat>
</trkpt>
<trkpt lat="60.918631667" lon="15.228653333">
<time>2014-07-06T10:55:01Z</time>
 <fix>none</fix>
 <sat>0</sat>
</trkpt>
<trkpt lat="60.918551667" lon="15.228700000">
<time>2014-07-06T10:55:02Z</time>
 <fix>none</fix>
 <sat>0</sat>
</trkpt>
<trkpt lat="60.918478333" lon="15.228745000">
<time>2014-07-06T10:55:03Z</time>
 <fix>none</fix>
 <sat>0</sat>
</trkpt>
<trkpt lat="60.918405000" lon="15.228773333">
<time>2014-07-06T10:55:04Z</time>
 <fix>none</fix>
 <sat>0</sat>
</trkpt>
<trkpt lat="60.918341667" lon="15.228811667">
<time>2014-07-06T10:55:05Z</time>
 <fix>none</fix>
 <sat>0</sat>
</trkpt>
<trkpt lat="60.918300000" lon="15.228953333">
<time>2014-07-06T10:55:06Z</time>
 <fix>none</fix>
 <sat>0</sat>
</trkpt>
<trkpt lat="60.918266667" lon="15.229066667">
<time>2014-07-06T10:55:07Z</time>
 <fix>none</fix>
 <sat>0</sat>
</trkpt>
<trkpt lat="60.918236667" lon="15.229210000">
<time>2014-07-06T10:55:08Z</time>
 <fix>none</fix>
 <sat>0</sat>
</trkpt>
<trkpt lat="60.918236667" lon="15.229210000">
<time>2014-07-06T10:55:09Z</time>
 <fix>none</fix>
 <sat>0</sat>
</trkpt>
<trkpt lat="60.918221667" lon="15.229366667">
<time>2014-07-06T10:55:10Z</time>
 <fix>none</fix>
 <sat>0</sat>
</trkpt>
<trkpt lat="60.918191667" lon="15.229506667">
<time>2014-07-06T10:55:11Z</time>
 <fix>none</fix>
 <sat>0</sat>
</trkpt>
<trkpt lat="60.918150000" lon="15.229616667">
<time>2014-07-06T10:55:12Z</time>
 <fix>none</fix>
 <sat>0</sat>
</trkpt>
<trkpt lat="60.918093333" lon="15.229703333">
<time>2014-07-06T10:55:13Z</time>
 <fix>none</fix>
 <sat>0</sat>
</trkpt>
<trkpt lat="60.918030000" lon="15.229753333">
<time>2014-07-06T10:55:14Z</time>
 <fix>none</fix>
 <sat>0</sat>
</trkpt>
<trkpt lat="60.917906667" lon="15.229836667">
<time>2014-07-06T10:55:15Z</time>
 <fix>none</fix>
 <sat>0</sat>
</trkpt>
<trkpt lat="60.917843333" lon="15.229890000">
<time>2014-07-06T10:55:16Z</time>
 <fix>none</fix>
 <sat>0</sat>
</trkpt>
<trkpt lat="60.917775000" lon="15.229968333">
<time>2014-07-06T10:55:17Z</time>
 <fix>none</fix>
 <sat>0</sat>
</trkpt>
<trkpt lat="60.917706667" lon="15.230056667">
<time>2014-07-06T10:55:18Z</time>
 <fix>none</fix>
 <sat>0</sat>
</trkpt>
<trkpt lat="60.917630000" lon="15.230163333">
<time>2014-07-06T10:55:19Z</time>
 <fix>none</fix>
 <sat>0</sat>
</trkpt>
<trkpt lat="60.917568333" lon="15.230245000">
<time>2014-07-06T10:55:20Z</time>
 <fix>none</fix>
 <sat>0</sat>
</trkpt>
<trkpt lat="60.917516667" lon="15.230335000">
<time>2014-07-06T10:55:21Z</time>
 <fix>none</fix>
 <sat>0</sat>
</trkpt>
<trkpt lat="60.917448333" lon="15.230423333">
<time>2014-07-06T10:55:22Z</time>
 <fix>none</fix>
 <sat>0</sat>
</trkpt>
<trkpt lat="60.917400000" lon="15.230516667">
<time>2014-07-06T10:55:23Z</time>
 <fix>none</fix>
 <sat>0</sat>
</trkpt>
<trkpt lat="60.917345000" lon="15.230601667">
<time>2014-07-06T10:55:24Z</time>
 <fix>none</fix>
 <sat>0</sat>
</trkpt>
<trkpt lat="60.917285000" lon="15.230670000">
<time>2014-07-06T10:55:25Z</time>
 <fix>none</fix>
 <sat>0</sat>
</trkpt>
<trkpt lat="60.917218333" lon="15.230740000">
<time>2014-07-06T10:55:26Z</time>
 <fix>none</fix>
 <sat>0</sat>
</trkpt>
<trkpt lat="60.917153333" lon="15.230793333">
<time>2014-07-06T10:55:27Z</time>
 <fix>none</fix>
 <sat>0</sat>
</trkpt>
<trkpt lat="60.917085000" lon="15.230831667">
<time>2014-07-06T10:55:28Z</time>
 <fix>none</fix>
 <sat>0</sat>
</trkpt>
<trkpt lat="60.917016667" lon="15.230856667">
<time>2014-07-06T10:55:29Z</time>
 <fix>none</fix>
 <sat>0</sat>
</trkpt>
<trkpt lat="60.916943333" lon="15.230890000">
<time>2014-07-06T10:55:30Z</time>
 <fix>none</fix>
 <sat>0</sat>
</trkpt>
<trkpt lat="60.916868333" lon="15.230916667">
<time>2014-07-06T10:55:31Z</time>
 <fix>none</fix>
 <sat>0</sat>
</trkpt>
<trkpt lat="60.916868333" lon="15.230916667">
<time>2014-07-06T10:55:32Z</time>
 <fix>none</fix>
 <sat>0</sat>
</trkpt>
<trkpt lat="60.916805000" lon="15.230970000">
<time>2014-07-06T10:55:33Z</time>
 <fix>none</fix>
 <sat>0</sat>
</trkpt>
<trkpt lat="60.916743333" lon="15.231036667">
<time>2014-07-06T10:55:34Z</time>
 <fix>none</fix>
 <sat>0</sat>
</trkpt>
<trkpt lat="60.916695000" lon="15.231125000">
<time>2014-07-06T10:55:35Z</time>
 <fix>none</fix>
 <sat>0</sat>
</trkpt>
<trkpt lat="60.916645000" lon="15.231221667">
<time>2014-07-06T10:55:36Z</time>
 <fix>none</fix>
 <sat>0</sat>
</trkpt>
<trkpt lat="60.916570000" lon="15.231495000">
<time>2014-07-06T10:55:37Z</time>
 <fix>none</fix>
 <sat>0</sat>
</trkpt>
<trkpt lat="60.916548333" lon="15.231628333">
<time>2014-07-06T10:55:38Z</time>
 <fix>none</fix>
 <sat>0</sat>
</trkpt>
<trkpt lat="60.916548333" lon="15.231628333">
<time>2014-07-06T10:55:39Z</time>
 <fix>none</fix>
 <sat>0</sat>
</trkpt>
<trkpt lat="60.916520000" lon="15.231760000">
<time>2014-07-06T10:55:40Z</time>
 <fix>none</fix>
 <sat>0</sat>
</trkpt>
<trkpt lat="60.916520000" lon="15.231760000">
<time>2014-07-06T10:55:41Z</time>
 <fix>none</fix>
 <sat>0</sat>
</trkpt>
<trkpt lat="60.916473333" lon="15.232028333">
<time>2014-07-06T10:55:42Z</time>
 <fix>none</fix>
 <sat>0</sat>
</trkpt>
<trkpt lat="60.916473333" lon="15.232028333">
<time>2014-07-06T10:55:43Z</time>
 <fix>none</fix>
 <sat>0</sat>
</trkpt>
<trkpt lat="60.916301667" lon="15.232321667">
<time>2014-07-06T10:55:44Z</time>
 <fix>none</fix>
 <sat>0</sat>
</trkpt>
<trkpt lat="60.916301667" lon="15.232321667">
<time>2014-07-06T10:55:45Z</time>
 <fix>none</fix>
 <sat>0</sat>
</trkpt>
<trkpt lat="60.916205000" lon="15.232493333">
<time>2014-07-06T10:55:46Z</time>
 <fix>none</fix>
 <sat>0</sat>
</trkpt>
<trkpt lat="60.916205000" lon="15.232493333">
<time>2014-07-06T10:55:47Z</time>
 <fix>none</fix>
 <sat>0</sat>
</trkpt>
<trkpt lat="60.916098333" lon="15.232685000">
<time>2014-07-06T10:55:48Z</time>
 <fix>none</fix>
 <sat>0</sat>
</trkpt>
<trkpt lat="60.916098333" lon="15.232685000">
<time>2014-07-06T10:55:49Z</time>
 <fix>none</fix>
 <sat>0</sat>
</trkpt>
<trkpt lat="60.915996667" lon="15.232926667">
<time>2014-07-06T10:55:50Z</time>
 <fix>none</fix>
 <sat>0</sat>
</trkpt>
<trkpt lat="60.915996667" lon="15.232926667">
<time>2014-07-06T10:55:51Z</time>
 <fix>none</fix>
 <sat>0</sat>
</trkpt>
<trkpt lat="60.915918333" lon="15.233186667">
<time>2014-07-06T10:55:52Z</time>
 <fix>none</fix>
 <sat>0</sat>
</trkpt>
<trkpt lat="60.915918333" lon="15.233186667">
<time>2014-07-06T10:55:53Z</time>
 <fix>none</fix>
 <sat>0</sat>
</trkpt>
<trkpt lat="60.915873333" lon="15.233471667">
<time>2014-07-06T10:55:54Z</time>
 <fix>none</fix>
 <sat>0</sat>
</trkpt>
<trkpt lat="60.915873333" lon="15.233471667">
<time>2014-07-06T10:55:55Z</time>
 <fix>none</fix>
 <sat>0</sat>
</trkpt>
<trkpt lat="60.915843333" lon="15.233771667">
<time>2014-07-06T10:55:56Z</time>
 <fix>none</fix>
 <sat>0</sat>
</trkpt>
<trkpt lat="60.915843333" lon="15.233771667">
<time>2014-07-06T10:55:57Z</time>
 <fix>none</fix>
 <sat>0</sat>
</trkpt>
<trkpt lat="60.915813333" lon="15.234050000">
<time>2014-07-06T10:55:58Z</time>
 <fix>none</fix>
 <sat>0</sat>
</trkpt>
<trkpt lat="60.915813333" lon="15.234050000">
<time>2014-07-06T10:55:59Z</time>
 <fix>none</fix>
 <sat>0</sat>
</trkpt>
<trkpt lat="60.915721667" lon="15.234305000">
<time>2014-07-06T10:56:00Z</time>
 <fix>none</fix>
 <sat>0</sat>
</trkpt>
<trkpt lat="60.915721667" lon="15.234305000">
<time>2014-07-06T10:56:01Z</time>
 <fix>none</fix>
 <sat>0</sat>
</trkpt>
<trkpt lat="60.915721667" lon="15.234305000">
<time>2014-07-06T10:56:02Z</time>
 <fix>none</fix>
 <sat>0</sat>
</trkpt>
<trkpt lat="60.915671667" lon="15.234548333">
<time>2014-07-06T10:56:03Z</time>
 <fix>none</fix>
 <sat>0</sat>
</trkpt>
<trkpt lat="60.915620000" lon="15.234778333">
<time>2014-07-06T10:56:04Z</time>
 <fix>none</fix>
 <sat>0</sat>
</trkpt>
<trkpt lat="60.915620000" lon="15.234778333">
<time>2014-07-06T10:56:05Z</time>
 <fix>none</fix>
 <sat>0</sat>
</trkpt>
<trkpt lat="60.915505000" lon="15.234930000">
<time>2014-07-06T10:56:06Z</time>
 <fix>none</fix>
 <sat>0</sat>
</trkpt>
<trkpt lat="60.915505000" lon="15.234930000">
<time>2014-07-06T10:56:07Z</time>
 <fix>none</fix>
 <sat>0</sat>
</trkpt>
<trkpt lat="60.915326667" lon="15.235135000">
<time>2014-07-06T10:56:08Z</time>
 <fix>none</fix>
 <sat>0</sat>
</trkpt>
<trkpt lat="60.915326667" lon="15.235135000">
<time>2014-07-06T10:56:09Z</time>
 <fix>none</fix>
 <sat>0</sat>
</trkpt>
<trkpt lat="60.915196667" lon="15.235121667">
<time>2014-07-06T10:56:10Z</time>
 <fix>none</fix>
 <sat>0</sat>
</trkpt>
<trkpt lat="60.915196667" lon="15.235121667">
<time>2014-07-06T10:56:11Z</time>
 <fix>none</fix>
 <sat>0</sat>
</trkpt>
<trkpt lat="60.915048333" lon="15.235103333">
<time>2014-07-06T10:56:12Z</time>
 <fix>none</fix>
 <sat>0</sat>
</trkpt>
<trkpt lat="60.914993333" lon="15.235090000">
<time>2014-07-06T10:56:13Z</time>
 <fix>none</fix>
 <sat>0</sat>
</trkpt>
<trkpt lat="60.914935000" lon="15.235066667">
<time>2014-07-06T10:56:14Z</time>
 <fix>none</fix>
 <sat>0</sat>
</trkpt>
<trkpt lat="60.914860000" lon="15.235058333">
<time>2014-07-06T10:56:15Z</time>
 <fix>none</fix>
 <sat>0</sat>
</trkpt>
<trkpt lat="60.914800000" lon="15.235083333">
<time>2014-07-06T10:56:16Z</time>
 <fix>none</fix>
 <sat>0</sat>
</trkpt>
<trkpt lat="60.914800000" lon="15.235083333">
<time>2014-07-06T10:56:17Z</time>
 <fix>none</fix>
 <sat>0</sat>
</trkpt>
<trkpt lat="60.914733333" lon="15.235118333">
<time>2014-07-06T10:56:18Z</time>
 <fix>none</fix>
 <sat>0</sat>
</trkpt>
<trkpt lat="60.914675000" lon="15.235160000">
<time>2014-07-06T10:56:19Z</time>
 <fix>none</fix>
 <sat>0</sat>
</trkpt>
<trkpt lat="60.914616667" lon="15.235201667">
<time>2014-07-06T10:56:20Z</time>
 <fix>none</fix>
 <sat>0</sat>
</trkpt>
<trkpt lat="60.914561667" lon="15.235245000">
<time>2014-07-06T10:56:21Z</time>
 <fix>none</fix>
 <sat>0</sat>
</trkpt>
<trkpt lat="60.914508333" lon="15.235281667">
<time>2014-07-06T10:56:22Z</time>
 <fix>none</fix>
 <sat>0</sat>
</trkpt>
<trkpt lat="60.914455000" lon="15.235320000">
<time>2014-07-06T10:56:23Z</time>
 <fix>none</fix>
 <sat>0</sat>
</trkpt>
<trkpt lat="60.914403333" lon="15.235358333">
<time>2014-07-06T10:56:24Z</time>
 <fix>none</fix>
 <sat>0</sat>
</trkpt>
<trkpt lat="60.914403333" lon="15.235358333">
<time>2014-07-06T10:56:25Z</time>
 <fix>none</fix>
 <sat>0</sat>
</trkpt>
<trkpt lat="60.914438333" lon="15.235623333">
<time>2014-07-06T10:56:26Z</time>
 <fix>none</fix>
 <sat>0</sat>
</trkpt>
<trkpt lat="60.914438333" lon="15.235623333">
<time>2014-07-06T10:56:27Z</time>
 <fix>none</fix>
 <sat>0</sat>
</trkpt>
<trkpt lat="60.914438333" lon="15.235623333">
<time>2014-07-06T10:56:28Z</time>
 <fix>none</fix>
 <sat>0</sat>
</trkpt>
<trkpt lat="60.914358333" lon="15.235788333">
<time>2014-07-06T10:56:29Z</time>
 <fix>none</fix>
 <sat>0</sat>
</trkpt>
<trkpt lat="60.914350000" lon="15.236031667">
<time>2014-07-06T10:56:30Z</time>
 <fix>none</fix>
 <sat>0</sat>
</trkpt>
<trkpt lat="60.914350000" lon="15.236031667">
<time>2014-07-06T10:56:31Z</time>
 <fix>none</fix>
 <sat>0</sat>
</trkpt>
<trkpt lat="60.914298333" lon="15.236351667">
<time>2014-07-06T10:56:32Z</time>
 <fix>none</fix>
 <sat>0</sat>
</trkpt>
<trkpt lat="60.914298333" lon="15.236351667">
<time>2014-07-06T10:56:33Z</time>
 <fix>none</fix>
 <sat>0</sat>
</trkpt>
<trkpt lat="60.914308333" lon="15.236616667">
<time>2014-07-06T10:56:34Z</time>
 <fix>none</fix>
 <sat>0</sat>
</trkpt>
<trkpt lat="60.914308333" lon="15.236616667">
<time>2014-07-06T10:56:35Z</time>
 <fix>none</fix>
 <sat>0</sat>
</trkpt>
<trkpt lat="60.914335000" lon="15.236838333">
<time>2014-07-06T10:56:36Z</time>
 <fix>none</fix>
 <sat>0</sat>
</trkpt>
<trkpt lat="60.914335000" lon="15.236838333">
<time>2014-07-06T10:56:37Z</time>
 <fix>none</fix>
 <sat>0</sat>
</trkpt>
<trkpt lat="60.914371667" lon="15.236993333">
<time>2014-07-06T10:56:38Z</time>
 <fix>none</fix>
 <sat>0</sat>
</trkpt>
<trkpt lat="60.914371667" lon="15.236993333">
<time>2014-07-06T10:56:39Z</time>
 <fix>none</fix>
 <sat>0</sat>
</trkpt>
<trkpt lat="60.914436667" lon="15.237191667">
<time>2014-07-06T10:56:40Z</time>
 <fix>none</fix>
 <sat>0</sat>
</trkpt>
<trkpt lat="60.914436667" lon="15.237191667">
<time>2014-07-06T10:56:41Z</time>
 <fix>none</fix>
 <sat>0</sat>
</trkpt>
<trkpt lat="60.914541667" lon="15.237455000">
<time>2014-07-06T10:56:42Z</time>
 <fix>none</fix>
 <sat>0</sat>
</trkpt>
<trkpt lat="60.914541667" lon="15.237455000">
<time>2014-07-06T10:56:43Z</time>
 <fix>none</fix>
 <sat>0</sat>
</trkpt>
<trkpt lat="60.914620000" lon="15.237730000">
<time>2014-07-06T10:56:44Z</time>
 <fix>none</fix>
 <sat>0</sat>
</trkpt>
<trkpt lat="60.914620000" lon="15.237730000">
<time>2014-07-06T10:56:45Z</time>
 <fix>none</fix>
 <sat>0</sat>
</trkpt>
<trkpt lat="60.914678333" lon="15.237706667">
<time>2014-07-06T10:56:46Z</time>
 <fix>none</fix>
 <sat>0</sat>
</trkpt>
<trkpt lat="60.914678333" lon="15.237706667">
<time>2014-07-06T10:56:47Z</time>
 <fix>none</fix>
 <sat>0</sat>
</trkpt>
<trkpt lat="60.914678333" lon="15.237706667">
<time>2014-07-06T10:56:48Z</time>
 <fix>none</fix>
 <sat>0</sat>
</trkpt>
<trkpt lat="60.914701667" lon="15.237800000">
<time>2014-07-06T10:56:49Z</time>
 <fix>none</fix>
 <sat>0</sat>
</trkpt>
<trkpt lat="60.914733333" lon="15.237915000">
<time>2014-07-06T10:56:50Z</time>
 <fix>none</fix>
 <sat>0</sat>
</trkpt>
<trkpt lat="60.914733333" lon="15.237915000">
<time>2014-07-06T10:56:51Z</time>
 <fix>none</fix>
 <sat>0</sat>
</trkpt>
<trkpt lat="60.914791667" lon="15.238048333">
<time>2014-07-06T10:56:52Z</time>
 <fix>none</fix>
 <sat>0</sat>
</trkpt>
<trkpt lat="60.914791667" lon="15.238048333">
<time>2014-07-06T10:56:53Z</time>
 <fix>none</fix>
 <sat>0</sat>
</trkpt>
<trkpt lat="60.914853333" lon="15.238183333">
<time>2014-07-06T10:56:54Z</time>
 <fix>none</fix>
 <sat>0</sat>
</trkpt>
<trkpt lat="60.914853333" lon="15.238183333">
<time>2014-07-06T10:56:55Z</time>
 <fix>none</fix>
 <sat>0</sat>
</trkpt>
<trkpt lat="60.914893333" lon="15.238295000">
<time>2014-07-06T10:56:56Z</time>
 <fix>none</fix>
 <sat>0</sat>
</trkpt>
<trkpt lat="60.914893333" lon="15.238295000">
<time>2014-07-06T10:56:57Z</time>
 <fix>none</fix>
 <sat>0</sat>
</trkpt>
<trkpt lat="60.914916667" lon="15.238323333">
<time>2014-07-06T10:56:58Z</time>
 <fix>none</fix>
 <sat>0</sat>
</trkpt>
<trkpt lat="60.914916667" lon="15.238323333">
<time>2014-07-06T10:56:59Z</time>
 <fix>none</fix>
 <sat>0</sat>
</trkpt>
<trkpt lat="60.914945000" lon="15.238438333">
<time>2014-07-06T10:57:00Z</time>
 <fix>none</fix>
 <sat>0</sat>
</trkpt>
<trkpt lat="60.914945000" lon="15.238438333">
<time>2014-07-06T10:57:01Z</time>
 <fix>none</fix>
 <sat>0</sat>
</trkpt>
<trkpt lat="60.914950000" lon="15.238581667">
<time>2014-07-06T10:57:02Z</time>
 <fix>none</fix>
 <sat>0</sat>
</trkpt>
<trkpt lat="60.914950000" lon="15.238598333">
<time>2014-07-06T10:57:03Z</time>
 <fix>none</fix>
 <sat>0</sat>
</trkpt>
<trkpt lat="60.914948333" lon="15.238660000">
<time>2014-07-06T10:57:04Z</time>
 <fix>none</fix>
 <sat>0</sat>
</trkpt>
<trkpt lat="60.914943333" lon="15.238748333">
<time>2014-07-06T10:57:05Z</time>
 <fix>none</fix>
 <sat>0</sat>
</trkpt>
<trkpt lat="60.914938333" lon="15.238825000">
<time>2014-07-06T10:57:06Z</time>
 <fix>none</fix>
 <sat>0</sat>
</trkpt>
<trkpt lat="60.914928333" lon="15.238905000">
<time>2014-07-06T10:57:07Z</time>
 <fix>none</fix>
 <sat>0</sat>
</trkpt>
<trkpt lat="60.914930000" lon="15.238986667">
<time>2014-07-06T10:57:08Z</time>
 <fix>none</fix>
 <sat>0</sat>
</trkpt>
<trkpt lat="60.914933333" lon="15.239170000">
<time>2014-07-06T10:57:09Z</time>
 <fix>none</fix>
 <sat>0</sat>
</trkpt>
<trkpt lat="60.914933333" lon="15.239170000">
<time>2014-07-06T10:57:10Z</time>
 <fix>none</fix>
 <sat>0</sat>
</trkpt>
<trkpt lat="60.914931667" lon="15.239265000">
<time>2014-07-06T10:57:11Z</time>
 <fix>none</fix>
 <sat>0</sat>
</trkpt>
<trkpt lat="60.914945000" lon="15.239430000">
<time>2014-07-06T10:57:12Z</time>
 <fix>none</fix>
 <sat>0</sat>
</trkpt>
<trkpt lat="60.914958333" lon="15.239505000">
<time>2014-07-06T10:57:13Z</time>
 <fix>none</fix>
 <sat>0</sat>
</trkpt>
<trkpt lat="60.914968333" lon="15.239558333">
<time>2014-07-06T10:57:14Z</time>
 <fix>none</fix>
 <sat>0</sat>
</trkpt>
<trkpt lat="60.914976667" lon="15.239615000">
<time>2014-07-06T10:57:15Z</time>
 <fix>none</fix>
 <sat>0</sat>
</trkpt>
<trkpt lat="60.914991667" lon="15.239673333">
<time>2014-07-06T10:57:16Z</time>
 <fix>none</fix>
 <sat>0</sat>
</trkpt>
<trkpt lat="60.915001667" lon="15.239741667">
<time>2014-07-06T10:57:17Z</time>
 <fix>none</fix>
 <sat>0</sat>
</trkpt>
<trkpt lat="60.915006667" lon="15.239806667">
<time>2014-07-06T10:57:18Z</time>
 <fix>none</fix>
 <sat>0</sat>
</trkpt>
<trkpt lat="60.915015000" lon="15.239860000">
<time>2014-07-06T10:57:19Z</time>
 <fix>none</fix>
 <sat>0</sat>
</trkpt>
<trkpt lat="60.915028333" lon="15.239901667">
<time>2014-07-06T10:57:20Z</time>
 <fix>none</fix>
 <sat>0</sat>
</trkpt>
<trkpt lat="60.915041667" lon="15.239916667">
<time>2014-07-06T10:57:21Z</time>
 <fix>none</fix>
 <sat>0</sat>
</trkpt>
<trkpt lat="60.915066667" lon="15.239898333">
<time>2014-07-06T10:57:22Z</time>
 <fix>none</fix>
 <sat>0</sat>
</trkpt>
<trkpt lat="60.915105000" lon="15.239865000">
<time>2014-07-06T10:57:23Z</time>
 <fix>none</fix>
 <sat>0</sat>
</trkpt>
<trkpt lat="60.915151667" lon="15.239816667">
<time>2014-07-06T10:57:24Z</time>
 <fix>none</fix>
 <sat>0</sat>
</trkpt>
<trkpt lat="60.915201667" lon="15.239755000">
<time>2014-07-06T10:57:25Z</time>
 <fix>none</fix>
 <sat>0</sat>
</trkpt>
<trkpt lat="60.915201667" lon="15.239755000">
<time>2014-07-06T10:57:26Z</time>
 <fix>none</fix>
 <sat>0</sat>
</trkpt>
<trkpt lat="60.915201667" lon="15.239755000">
<time>2014-07-06T10:57:27Z</time>
 <fix>none</fix>
 <sat>0</sat>
</trkpt>
<trkpt lat="60.915371667" lon="15.239543333">
<time>2014-07-06T10:57:28Z</time>
 <fix>none</fix>
 <sat>0</sat>
</trkpt>
<trkpt lat="60.915371667" lon="15.239543333">
<time>2014-07-06T10:57:29Z</time>
 <fix>none</fix>
 <sat>0</sat>
</trkpt>
<trkpt lat="60.915495000" lon="15.239406667">
<time>2014-07-06T10:57:30Z</time>
 <fix>none</fix>
 <sat>0</sat>
</trkpt>
<trkpt lat="60.915495000" lon="15.239406667">
<time>2014-07-06T10:57:31Z</time>
 <fix>none</fix>
 <sat>0</sat>
</trkpt>
<trkpt lat="60.915603333" lon="15.239253333">
<time>2014-07-06T10:57:32Z</time>
 <fix>none</fix>
 <sat>0</sat>
</trkpt>
<trkpt lat="60.915603333" lon="15.239253333">
<time>2014-07-06T10:57:33Z</time>
 <fix>none</fix>
 <sat>0</sat>
</trkpt>
<trkpt lat="60.915706667" lon="15.239138333">
<time>2014-07-06T10:57:34Z</time>
 <fix>none</fix>
 <sat>0</sat>
</trkpt>
<trkpt lat="60.915785000" lon="15.239096667">
<time>2014-07-06T10:57:35Z</time>
 <fix>none</fix>
 <sat>0</sat>
</trkpt>
<trkpt lat="60.915868333" lon="15.239065000">
<time>2014-07-06T10:57:36Z</time>
 <fix>none</fix>
 <sat>0</sat>
</trkpt>
<trkpt lat="60.915961667" lon="15.239061667">
<time>2014-07-06T10:57:37Z</time>
 <fix>none</fix>
 <sat>0</sat>
</trkpt>
<trkpt lat="60.916046667" lon="15.239070000">
<time>2014-07-06T10:57:38Z</time>
 <fix>none</fix>
 <sat>0</sat>
</trkpt>
<trkpt lat="60.916136667" lon="15.239086667">
<time>2014-07-06T10:57:39Z</time>
 <fix>none</fix>
 <sat>0</sat>
</trkpt>
<trkpt lat="60.916225000" lon="15.239103333">
<time>2014-07-06T10:57:40Z</time>
 <fix>none</fix>
 <sat>0</sat>
</trkpt>
<trkpt lat="60.916310000" lon="15.239121667">
<time>2014-07-06T10:57:41Z</time>
 <fix>none</fix>
 <sat>0</sat>
</trkpt>
<trkpt lat="60.916393333" lon="15.239136667">
<time>2014-07-06T10:57:42Z</time>
 <fix>none</fix>
 <sat>0</sat>
</trkpt>
<trkpt lat="60.916478333" lon="15.239153333">
<time>2014-07-06T10:57:43Z</time>
 <fix>none</fix>
 <sat>0</sat>
</trkpt>
<trkpt lat="60.916561667" lon="15.239161667">
<time>2014-07-06T10:57:44Z</time>
 <fix>none</fix>
 <sat>0</sat>
</trkpt>
<trkpt lat="60.916561667" lon="15.239161667">
<time>2014-07-06T10:57:45Z</time>
 <fix>none</fix>
 <sat>0</sat>
</trkpt>
<trkpt lat="60.916561667" lon="15.239161667">
<time>2014-07-06T10:57:46Z</time>
 <fix>none</fix>
 <sat>0</sat>
</trkpt>
<trkpt lat="60.916691667" lon="15.238755000">
<time>2014-07-06T10:57:47Z</time>
 <fix>none</fix>
 <sat>0</sat>
</trkpt>
<trkpt lat="60.916691667" lon="15.238755000">
<time>2014-07-06T10:57:48Z</time>
 <fix>none</fix>
 <sat>0</sat>
</trkpt>
<trkpt lat="60.916910000" lon="15.238850000">
<time>2014-07-06T10:57:49Z</time>
 <fix>none</fix>
 <sat>0</sat>
</trkpt>
<trkpt lat="60.916910000" lon="15.238850000">
<time>2014-07-06T10:57:50Z</time>
 <fix>none</fix>
 <sat>0</sat>
</trkpt>
<trkpt lat="60.917051667" lon="15.238720000">
<time>2014-07-06T10:57:51Z</time>
 <fix>none</fix>
 <sat>0</sat>
</trkpt>
<trkpt lat="60.917058333" lon="15.238628333">
<time>2014-07-06T10:57:52Z</time>
 <fix>none</fix>
 <sat>0</sat>
</trkpt>
<trkpt lat="60.917115000" lon="15.238525000">
<time>2014-07-06T10:57:53Z</time>
 <fix>none</fix>
 <sat>0</sat>
</trkpt>
<trkpt lat="60.917228333" lon="15.238271667">
<time>2014-07-06T10:57:54Z</time>
 <fix>none</fix>
 <sat>0</sat>
</trkpt>
<trkpt lat="60.917228333" lon="15.238271667">
<time>2014-07-06T10:57:55Z</time>
 <fix>none</fix>
 <sat>0</sat>
</trkpt>
<trkpt lat="60.917313333" lon="15.238170000">
<time>2014-07-06T10:57:56Z</time>
 <fix>none</fix>
 <sat>0</sat>
</trkpt>
<trkpt lat="60.917405000" lon="15.238073333">
<time>2014-07-06T10:57:57Z</time>
 <fix>none</fix>
 <sat>0</sat>
</trkpt>
<trkpt lat="60.917570000" lon="15.237878333">
<time>2014-07-06T10:57:58Z</time>
 <fix>none</fix>
 <sat>0</sat>
</trkpt>
<trkpt lat="60.917633333" lon="15.237770000">
<time>2014-07-06T10:57:59Z</time>
 <fix>none</fix>
 <sat>0</sat>
</trkpt>
<trkpt lat="60.917695000" lon="15.237658333">
<time>2014-07-06T10:58:00Z</time>
 <fix>none</fix>
 <sat>0</sat>
</trkpt>
<trkpt lat="60.917756667" lon="15.237545000">
<time>2014-07-06T10:58:01Z</time>
 <fix>none</fix>
 <sat>0</sat>
</trkpt>
<trkpt lat="60.917820000" lon="15.237436667">
<time>2014-07-06T10:58:02Z</time>
 <fix>none</fix>
 <sat>0</sat>
</trkpt>
<trkpt lat="60.917885000" lon="15.237340000">
<time>2014-07-06T10:58:03Z</time>
 <fix>none</fix>
 <sat>0</sat>
</trkpt>
<trkpt lat="60.917953333" lon="15.237251667">
<time>2014-07-06T10:58:04Z</time>
 <fix>none</fix>
 <sat>0</sat>
</trkpt>
<trkpt lat="60.918016667" lon="15.237165000">
<time>2014-07-06T10:58:05Z</time>
 <fix>none</fix>
 <sat>0</sat>
</trkpt>
<trkpt lat="60.918083333" lon="15.237088333">
<time>2014-07-06T10:58:06Z</time>
 <fix>none</fix>
 <sat>0</sat>
</trkpt>
<trkpt lat="60.918146667" lon="15.237016667">
<time>2014-07-06T10:58:07Z</time>
 <fix>none</fix>
 <sat>0</sat>
</trkpt>
<trkpt lat="60.918211667" lon="15.236940000">
<time>2014-07-06T10:58:08Z</time>
 <fix>none</fix>
 <sat>0</sat>
</trkpt>
<trkpt lat="60.918275000" lon="15.236866667">
<time>2014-07-06T10:58:09Z</time>
 <fix>none</fix>
 <sat>0</sat>
</trkpt>
<trkpt lat="60.918338333" lon="15.236791667">
<time>2014-07-06T10:58:10Z</time>
 <fix>none</fix>
 <sat>0</sat>
</trkpt>
<trkpt lat="60.918338333" lon="15.236791667">
<time>2014-07-06T10:58:11Z</time>
 <fix>none</fix>
 <sat>0</sat>
</trkpt>
<trkpt lat="60.918398333" lon="15.236718333">
<time>2014-07-06T10:58:12Z</time>
 <fix>none</fix>
 <sat>0</sat>
</trkpt>
<trkpt lat="60.918465000" lon="15.236650000">
<time>2014-07-06T10:58:13Z</time>
 <fix>none</fix>
 <sat>0</sat>
</trkpt>
<trkpt lat="60.918538333" lon="15.236591667">
<time>2014-07-06T10:58:14Z</time>
 <fix>none</fix>
 <sat>0</sat>
</trkpt>
<trkpt lat="60.918615000" lon="15.236546667">
<time>2014-07-06T10:58:15Z</time>
 <fix>none</fix>
 <sat>0</sat>
</trkpt>
<trkpt lat="60.918696667" lon="15.236515000">
<time>2014-07-06T10:58:16Z</time>
 <fix>none</fix>
 <sat>0</sat>
</trkpt>
<trkpt lat="60.918865000" lon="15.236493333">
<time>2014-07-06T10:58:17Z</time>
 <fix>none</fix>
 <sat>0</sat>
</trkpt>
<trkpt lat="60.918953333" lon="15.236520000">
<time>2014-07-06T10:58:18Z</time>
 <fix>none</fix>
 <sat>0</sat>
</trkpt>
<trkpt lat="60.918953333" lon="15.236520000">
<time>2014-07-06T10:58:19Z</time>
 <fix>none</fix>
 <sat>0</sat>
</trkpt>
<trkpt lat="60.919115000" lon="15.236640000">
<time>2014-07-06T10:58:20Z</time>
 <fix>none</fix>
 <sat>0</sat>
</trkpt>
<trkpt lat="60.919188333" lon="15.236720000">
<time>2014-07-06T10:58:21Z</time>
 <fix>none</fix>
 <sat>0</sat>
</trkpt>
<trkpt lat="60.919260000" lon="15.236803333">
<time>2014-07-06T10:58:22Z</time>
 <fix>none</fix>
 <sat>0</sat>
</trkpt>
<trkpt lat="60.919331667" lon="15.236880000">
<time>2014-07-06T10:58:23Z</time>
 <fix>none</fix>
 <sat>0</sat>
</trkpt>
<trkpt lat="60.919410000" lon="15.236950000">
<time>2014-07-06T10:58:24Z</time>
 <fix>none</fix>
 <sat>0</sat>
</trkpt>
<trkpt lat="60.919410000" lon="15.236950000">
<time>2014-07-06T10:58:25Z</time>
 <fix>none</fix>
 <sat>0</sat>
</trkpt>
<trkpt lat="60.919410000" lon="15.236950000">
<time>2014-07-06T10:58:26Z</time>
 <fix>none</fix>
 <sat>0</sat>
</trkpt>
<trkpt lat="60.919690000" lon="15.237126667">
<time>2014-07-06T10:58:27Z</time>
 <fix>none</fix>
 <sat>0</sat>
</trkpt>
<trkpt lat="60.919765000" lon="15.237170000">
<time>2014-07-06T10:58:28Z</time>
 <fix>none</fix>
 <sat>0</sat>
</trkpt>
<trkpt lat="60.919845000" lon="15.237130000">
<time>2014-07-06T10:58:29Z</time>
 <fix>none</fix>
 <sat>0</sat>
</trkpt>
<trkpt lat="60.919916667" lon="15.237026667">
<time>2014-07-06T10:58:30Z</time>
 <fix>none</fix>
 <sat>0</sat>
</trkpt>
<trkpt lat="60.920008333" lon="15.236988333">
<time>2014-07-06T10:58:31Z</time>
 <fix>none</fix>
 <sat>0</sat>
</trkpt>
<trkpt lat="60.920096667" lon="15.236961667">
<time>2014-07-06T10:58:32Z</time>
 <fix>none</fix>
 <sat>0</sat>
</trkpt>
<trkpt lat="60.920183333" lon="15.236920000">
<time>2014-07-06T10:58:33Z</time>
 <fix>none</fix>
 <sat>0</sat>
</trkpt>
<trkpt lat="60.920183333" lon="15.236920000">
<time>2014-07-06T10:58:34Z</time>
 <fix>none</fix>
 <sat>0</sat>
</trkpt>
<trkpt lat="60.920278333" lon="15.236941667">
<time>2014-07-06T10:58:35Z</time>
 <fix>none</fix>
 <sat>0</sat>
</trkpt>
<trkpt lat="60.920373333" lon="15.236956667">
<time>2014-07-06T10:58:36Z</time>
 <fix>none</fix>
 <sat>0</sat>
</trkpt>
<trkpt lat="60.920460000" lon="15.236948333">
<time>2014-07-06T10:58:37Z</time>
 <fix>none</fix>
 <sat>0</sat>
</trkpt>
<trkpt lat="60.920551667" lon="15.236940000">
<time>2014-07-06T10:58:38Z</time>
 <fix>none</fix>
 <sat>0</sat>
</trkpt>
<trkpt lat="60.920641667" lon="15.236918333">
<time>2014-07-06T10:58:39Z</time>
 <fix>none</fix>
 <sat>0</sat>
</trkpt>
<trkpt lat="60.920725000" lon="15.236863333">
<time>2014-07-06T10:58:40Z</time>
 <fix>none</fix>
 <sat>0</sat>
</trkpt>
<trkpt lat="60.920806667" lon="15.236786667">
<time>2014-07-06T10:58:41Z</time>
 <fix>none</fix>
 <sat>0</sat>
</trkpt>
<trkpt lat="60.920885000" lon="15.236710000">
<time>2014-07-06T10:58:42Z</time>
 <fix>none</fix>
 <sat>0</sat>
</trkpt>
<trkpt lat="60.921043333" lon="15.236576667">
<time>2014-07-06T10:58:43Z</time>
 <fix>none</fix>
 <sat>0</sat>
</trkpt>
<trkpt lat="60.921125000" lon="15.236525000">
<time>2014-07-06T10:58:44Z</time>
 <fix>none</fix>
 <sat>0</sat>
</trkpt>
<trkpt lat="60.921125000" lon="15.236525000">
<time>2014-07-06T10:58:45Z</time>
 <fix>none</fix>
 <sat>0</sat>
</trkpt>
<trkpt lat="60.921125000" lon="15.236525000">
<time>2014-07-06T10:58:46Z</time>
 <fix>none</fix>
 <sat>0</sat>
</trkpt>
<trkpt lat="60.921366667" lon="15.236438333">
<time>2014-07-06T10:58:47Z</time>
 <fix>none</fix>
 <sat>0</sat>
</trkpt>
<trkpt lat="60.921366667" lon="15.236438333">
<time>2014-07-06T10:58:48Z</time>
 <fix>none</fix>
 <sat>0</sat>
</trkpt>
<trkpt lat="60.921548333" lon="15.236455000">
<time>2014-07-06T10:58:49Z</time>
 <fix>none</fix>
 <sat>0</sat>
</trkpt>
<trkpt lat="60.921548333" lon="15.236455000">
<time>2014-07-06T10:58:50Z</time>
 <fix>none</fix>
 <sat>0</sat>
</trkpt>
<trkpt lat="60.921706667" lon="15.236570000">
<time>2014-07-06T10:58:51Z</time>
 <fix>none</fix>
 <sat>0</sat>
</trkpt>
<trkpt lat="60.921706667" lon="15.236570000">
<time>2014-07-06T10:58:52Z</time>
 <fix>none</fix>
 <sat>0</sat>
</trkpt>
<trkpt lat="60.921866667" lon="15.236630000">
<time>2014-07-06T10:58:53Z</time>
 <fix>none</fix>
 <sat>0</sat>
</trkpt>
<trkpt lat="60.921866667" lon="15.236630000">
<time>2014-07-06T10:58:54Z</time>
 <fix>none</fix>
 <sat>0</sat>
</trkpt>
<trkpt lat="60.922031667" lon="15.236740000">
<time>2014-07-06T10:58:55Z</time>
 <fix>none</fix>
 <sat>0</sat>
</trkpt>
<trkpt lat="60.922031667" lon="15.236740000">
<time>2014-07-06T10:58:56Z</time>
 <fix>none</fix>
 <sat>0</sat>
</trkpt>
<trkpt lat="60.922191667" lon="15.236740000">
<time>2014-07-06T10:58:57Z</time>
 <fix>none</fix>
 <sat>0</sat>
</trkpt>
<trkpt lat="60.922191667" lon="15.236740000">
<time>2014-07-06T10:58:58Z</time>
 <fix>none</fix>
 <sat>0</sat>
</trkpt>
<trkpt lat="60.922338333" lon="15.236735000">
<time>2014-07-06T10:58:59Z</time>
 <fix>none</fix>
 <sat>0</sat>
</trkpt>
<trkpt lat="60.922338333" lon="15.236735000">
<time>2014-07-06T10:59:00Z</time>
 <fix>none</fix>
 <sat>0</sat>
</trkpt>
<trkpt lat="60.922491667" lon="15.236755000">
<time>2014-07-06T10:59:01Z</time>
 <fix>none</fix>
 <sat>0</sat>
</trkpt>
<trkpt lat="60.922491667" lon="15.236755000">
<time>2014-07-06T10:59:02Z</time>
 <fix>none</fix>
 <sat>0</sat>
</trkpt>
<trkpt lat="60.922636667" lon="15.236766667">
<time>2014-07-06T10:59:03Z</time>
 <fix>none</fix>
 <sat>0</sat>
</trkpt>
<trkpt lat="60.922636667" lon="15.236766667">
<time>2014-07-06T10:59:04Z</time>
 <fix>none</fix>
 <sat>0</sat>
</trkpt>
<trkpt lat="60.922771667" lon="15.236778333">
<time>2014-07-06T10:59:05Z</time>
 <fix>none</fix>
 <sat>0</sat>
</trkpt>
<trkpt lat="60.922771667" lon="15.236778333">
<time>2014-07-06T10:59:06Z</time>
 <fix>none</fix>
 <sat>0</sat>
</trkpt>
<trkpt lat="60.922900000" lon="15.236791667">
<time>2014-07-06T10:59:07Z</time>
 <fix>none</fix>
 <sat>0</sat>
</trkpt>
<trkpt lat="60.922900000" lon="15.236791667">
<time>2014-07-06T10:59:08Z</time>
 <fix>none</fix>
 <sat>0</sat>
</trkpt>
<trkpt lat="60.923041667" lon="15.236845000">
<time>2014-07-06T10:59:09Z</time>
 <fix>none</fix>
 <sat>0</sat>
</trkpt>
<trkpt lat="60.923041667" lon="15.236845000">
<time>2014-07-06T10:59:10Z</time>
 <fix>none</fix>
 <sat>0</sat>
</trkpt>
<trkpt lat="60.923178333" lon="15.236866667">
<time>2014-07-06T10:59:11Z</time>
 <fix>none</fix>
 <sat>0</sat>
</trkpt>
<trkpt lat="60.923178333" lon="15.236866667">
<time>2014-07-06T10:59:12Z</time>
 <fix>none</fix>
 <sat>0</sat>
</trkpt>
<trkpt lat="60.923325000" lon="15.236888333">
<time>2014-07-06T10:59:13Z</time>
 <fix>none</fix>
 <sat>0</sat>
</trkpt>
<trkpt lat="60.923325000" lon="15.236888333">
<time>2014-07-06T10:59:14Z</time>
 <fix>none</fix>
 <sat>0</sat>
</trkpt>
<trkpt lat="60.923476667" lon="15.236893333">
<time>2014-07-06T10:59:15Z</time>
 <fix>none</fix>
 <sat>0</sat>
</trkpt>
<trkpt lat="60.923476667" lon="15.236893333">
<time>2014-07-06T10:59:16Z</time>
 <fix>none</fix>
 <sat>0</sat>
</trkpt>
<trkpt lat="60.923650000" lon="15.236890000">
<time>2014-07-06T10:59:17Z</time>
 <fix>none</fix>
 <sat>0</sat>
</trkpt>
<trkpt lat="60.923650000" lon="15.236890000">
<time>2014-07-06T10:59:18Z</time>
 <fix>none</fix>
 <sat>0</sat>
</trkpt>
<trkpt lat="60.923815000" lon="15.236850000">
<time>2014-07-06T10:59:19Z</time>
 <fix>none</fix>
 <sat>0</sat>
</trkpt>
<trkpt lat="60.923815000" lon="15.236850000">
<time>2014-07-06T10:59:20Z</time>
 <fix>none</fix>
 <sat>0</sat>
</trkpt>
<trkpt lat="60.923981667" lon="15.236806667">
<time>2014-07-06T10:59:21Z</time>
 <fix>none</fix>
 <sat>0</sat>
</trkpt>
<trkpt lat="60.923981667" lon="15.236806667">
<time>2014-07-06T10:59:22Z</time>
 <fix>none</fix>
 <sat>0</sat>
</trkpt>
<trkpt lat="60.924145000" lon="15.236786667">
<time>2014-07-06T10:59:23Z</time>
 <fix>none</fix>
 <sat>0</sat>
</trkpt>
<trkpt lat="60.924145000" lon="15.236786667">
<time>2014-07-06T10:59:24Z</time>
 <fix>none</fix>
 <sat>0</sat>
</trkpt>
<trkpt lat="60.924313333" lon="15.236820000">
<time>2014-07-06T10:59:25Z</time>
 <fix>none</fix>
 <sat>0</sat>
</trkpt>
<trkpt lat="60.924313333" lon="15.236820000">
<time>2014-07-06T10:59:26Z</time>
 <fix>none</fix>
 <sat>0</sat>
</trkpt>
<trkpt lat="60.924313333" lon="15.236820000">
<time>2014-07-06T10:59:27Z</time>
 <fix>none</fix>
 <sat>0</sat>
</trkpt>
<trkpt lat="60.924478333" lon="15.236836667">
<time>2014-07-06T10:59:28Z</time>
 <fix>none</fix>
 <sat>0</sat>
</trkpt>
<trkpt lat="60.924648333" lon="15.237048333">
<time>2014-07-06T10:59:29Z</time>
 <fix>none</fix>
 <sat>0</sat>
</trkpt>
<trkpt lat="60.924648333" lon="15.237048333">
<time>2014-07-06T10:59:30Z</time>
 <fix>none</fix>
 <sat>0</sat>
</trkpt>
<trkpt lat="60.924815000" lon="15.236920000">
<time>2014-07-06T10:59:31Z</time>
 <fix>none</fix>
 <sat>0</sat>
</trkpt>
<trkpt lat="60.924815000" lon="15.236920000">
<time>2014-07-06T10:59:32Z</time>
 <fix>none</fix>
 <sat>0</sat>
</trkpt>
<trkpt lat="60.924933333" lon="15.236778333">
<time>2014-07-06T10:59:33Z</time>
 <fix>none</fix>
 <sat>0</sat>
</trkpt>
<trkpt lat="60.924933333" lon="15.236778333">
<time>2014-07-06T10:59:34Z</time>
 <fix>none</fix>
 <sat>0</sat>
</trkpt>
<trkpt lat="60.924933333" lon="15.236778333">
<time>2014-07-06T10:59:35Z</time>
 <fix>none</fix>
 <sat>0</sat>
</trkpt>
<trkpt lat="60.925090000" lon="15.236683333">
<time>2014-07-06T10:59:36Z</time>
 <fix>none</fix>
 <sat>0</sat>
</trkpt>
<trkpt lat="60.925233333" lon="15.236486667">
<time>2014-07-06T10:59:37Z</time>
 <fix>none</fix>
 <sat>0</sat>
</trkpt>
<trkpt lat="60.925233333" lon="15.236486667">
<time>2014-07-06T10:59:38Z</time>
 <fix>none</fix>
 <sat>0</sat>
</trkpt>
<trkpt lat="60.925386667" lon="15.236350000">
<time>2014-07-06T10:59:39Z</time>
 <fix>none</fix>
 <sat>0</sat>
</trkpt>
<trkpt lat="60.925386667" lon="15.236350000">
<time>2014-07-06T10:59:40Z</time>
 <fix>none</fix>
 <sat>0</sat>
</trkpt>
<trkpt lat="60.925548333" lon="15.236261667">
<time>2014-07-06T10:59:41Z</time>
 <fix>none</fix>
 <sat>0</sat>
</trkpt>
<trkpt lat="60.925548333" lon="15.236261667">
<time>2014-07-06T10:59:42Z</time>
 <fix>none</fix>
 <sat>0</sat>
</trkpt>
<trkpt lat="60.925711667" lon="15.236221667">
<time>2014-07-06T10:59:43Z</time>
 <fix>none</fix>
 <sat>0</sat>
</trkpt>
<trkpt lat="60.925711667" lon="15.236221667">
<time>2014-07-06T10:59:44Z</time>
 <fix>none</fix>
 <sat>0</sat>
</trkpt>
<trkpt lat="60.925878333" lon="15.236223333">
<time>2014-07-06T10:59:45Z</time>
 <fix>none</fix>
 <sat>0</sat>
</trkpt>
<trkpt lat="60.925878333" lon="15.236223333">
<time>2014-07-06T10:59:46Z</time>
 <fix>none</fix>
 <sat>0</sat>
</trkpt>
<trkpt lat="60.926040000" lon="15.236165000">
<time>2014-07-06T10:59:47Z</time>
 <fix>none</fix>
 <sat>0</sat>
</trkpt>
<trkpt lat="60.926205000" lon="15.236160000">
<time>2014-07-06T10:59:48Z</time>
 <fix>none</fix>
 <sat>0</sat>
</trkpt>
<trkpt lat="60.926205000" lon="15.236160000">
<time>2014-07-06T10:59:49Z</time>
 <fix>none</fix>
 <sat>0</sat>
</trkpt>
<trkpt lat="60.926205000" lon="15.236160000">
<time>2014-07-06T10:59:50Z</time>
 <fix>none</fix>
 <sat>0</sat>
</trkpt>
<trkpt lat="60.926205000" lon="15.236160000">
<time>2014-07-06T10:59:51Z</time>
 <fix>none</fix>
 <sat>0</sat>
</trkpt>
<trkpt lat="60.926355000" lon="15.236123333">
<time>2014-07-06T10:59:52Z</time>
 <fix>none</fix>
 <sat>0</sat>
</trkpt>
<trkpt lat="60.926506667" lon="15.236080000">
<time>2014-07-06T10:59:53Z</time>
 <fix>none</fix>
 <sat>0</sat>
</trkpt>
<trkpt lat="60.926506667" lon="15.236080000">
<time>2014-07-06T10:59:54Z</time>
 <fix>none</fix>
 <sat>0</sat>
</trkpt>
<trkpt lat="60.926666667" lon="15.236040000">
<time>2014-07-06T10:59:55Z</time>
 <fix>none</fix>
 <sat>0</sat>
</trkpt>
<trkpt lat="60.926666667" lon="15.236040000">
<time>2014-07-06T10:59:56Z</time>
 <fix>none</fix>
 <sat>0</sat>
</trkpt>
<trkpt lat="60.926815000" lon="15.235996667">
<time>2014-07-06T10:59:57Z</time>
 <fix>none</fix>
 <sat>0</sat>
</trkpt>
<trkpt lat="60.926815000" lon="15.235996667">
<time>2014-07-06T10:59:58Z</time>
 <fix>none</fix>
 <sat>0</sat>
</trkpt>
<trkpt lat="60.926973333" lon="15.235955000">
<time>2014-07-06T10:59:59Z</time>
 <fix>none</fix>
 <sat>0</sat>
</trkpt>
<trkpt lat="60.926973333" lon="15.235955000">
<time>2014-07-06T11:00:00Z</time>
 <fix>none</fix>
 <sat>0</sat>
</trkpt>
<trkpt lat="60.927128333" lon="15.235945000">
<time>2014-07-06T11:00:01Z</time>
 <fix>none</fix>
 <sat>0</sat>
</trkpt>
<trkpt lat="60.927128333" lon="15.235945000">
<time>2014-07-06T11:00:02Z</time>
 <fix>none</fix>
 <sat>0</sat>
</trkpt>
<trkpt lat="60.927280000" lon="15.235943333">
<time>2014-07-06T11:00:03Z</time>
 <fix>none</fix>
 <sat>0</sat>
</trkpt>
<trkpt lat="60.927280000" lon="15.235943333">
<time>2014-07-06T11:00:04Z</time>
 <fix>none</fix>
 <sat>0</sat>
</trkpt>
<trkpt lat="60.927421667" lon="15.235981667">
<time>2014-07-06T11:00:05Z</time>
 <fix>none</fix>
 <sat>0</sat>
</trkpt>
<trkpt lat="60.927421667" lon="15.235981667">
<time>2014-07-06T11:00:06Z</time>
 <fix>none</fix>
 <sat>0</sat>
</trkpt>
<trkpt lat="60.927556667" lon="15.236026667">
<time>2014-07-06T11:00:07Z</time>
 <fix>none</fix>
 <sat>0</sat>
</trkpt>
<trkpt lat="60.927556667" lon="15.236026667">
<time>2014-07-06T11:00:08Z</time>
 <fix>none</fix>
 <sat>0</sat>
</trkpt>
<trkpt lat="60.927686667" lon="15.236051667">
<time>2014-07-06T11:00:09Z</time>
 <fix>none</fix>
 <sat>0</sat>
</trkpt>
<trkpt lat="60.927701667" lon="15.236055000">
<time>2014-07-06T11:00:10Z</time>
 <fix>none</fix>
 <sat>0</sat>
</trkpt>
<trkpt lat="60.927828333" lon="15.236045000">
<time>2014-07-06T11:00:11Z</time>
 <fix>none</fix>
 <sat>0</sat>
</trkpt>
<trkpt lat="60.927828333" lon="15.236045000">
<time>2014-07-06T11:00:12Z</time>
 <fix>none</fix>
 <sat>0</sat>
</trkpt>
<trkpt lat="60.927895000" lon="15.236023333">
<time>2014-07-06T11:00:13Z</time>
 <fix>none</fix>
 <sat>0</sat>
</trkpt>
<trkpt lat="60.928025000" lon="15.236013333">
<time>2014-07-06T11:00:14Z</time>
 <fix>none</fix>
 <sat>0</sat>
</trkpt>
<trkpt lat="60.928085000" lon="15.236003333">
<time>2014-07-06T11:00:15Z</time>
 <fix>none</fix>
 <sat>0</sat>
</trkpt>
<trkpt lat="60.928155000" lon="15.235998333">
<time>2014-07-06T11:00:16Z</time>
 <fix>none</fix>
 <sat>0</sat>
</trkpt>
<trkpt lat="60.928228333" lon="15.236001667">
<time>2014-07-06T11:00:17Z</time>
 <fix>none</fix>
 <sat>0</sat>
</trkpt>
<trkpt lat="60.928300000" lon="15.236003333">
<time>2014-07-06T11:00:18Z</time>
 <fix>none</fix>
 <sat>0</sat>
</trkpt>
<trkpt lat="60.928370000" lon="15.236011667">
<time>2014-07-06T11:00:19Z</time>
 <fix>none</fix>
 <sat>0</sat>
</trkpt>
<trkpt lat="60.928436667" lon="15.236030000">
<time>2014-07-06T11:00:20Z</time>
 <fix>none</fix>
 <sat>0</sat>
</trkpt>
<trkpt lat="60.928500000" lon="15.236061667">
<time>2014-07-06T11:00:21Z</time>
 <fix>none</fix>
 <sat>0</sat>
</trkpt>
<trkpt lat="60.928500000" lon="15.236061667">
<time>2014-07-06T11:00:22Z</time>
 <fix>none</fix>
 <sat>0</sat>
</trkpt>
<trkpt lat="60.928500000" lon="15.236061667">
<time>2014-07-06T11:00:23Z</time>
 <fix>none</fix>
 <sat>0</sat>
</trkpt>
<trkpt lat="60.928675000" lon="15.236146667">
<time>2014-07-06T11:00:24Z</time>
 <fix>none</fix>
 <sat>0</sat>
</trkpt>
<trkpt lat="60.928675000" lon="15.236146667">
<time>2014-07-06T11:00:25Z</time>
 <fix>none</fix>
 <sat>0</sat>
</trkpt>
<trkpt lat="60.928763333" lon="15.236206667">
<time>2014-07-06T11:00:26Z</time>
 <fix>none</fix>
 <sat>0</sat>
</trkpt>
<trkpt lat="60.928763333" lon="15.236206667">
<time>2014-07-06T11:00:27Z</time>
 <fix>none</fix>
 <sat>0</sat>
</trkpt>
<trkpt lat="60.928738333" lon="15.235850000">
<time>2014-07-06T11:00:28Z</time>
 <fix>none</fix>
 <sat>0</sat>
</trkpt>
<trkpt lat="60.928720000" lon="15.235758333">
<time>2014-07-06T11:00:29Z</time>
 <fix>none</fix>
 <sat>0</sat>
</trkpt>
<trkpt lat="60.928743333" lon="15.235700000">
<time>2014-07-06T11:00:30Z</time>
 <fix>none</fix>
 <sat>0</sat>
</trkpt>
<trkpt lat="60.928790000" lon="15.235621667">
<time>2014-07-06T11:00:31Z</time>
 <fix>none</fix>
 <sat>0</sat>
</trkpt>
<trkpt lat="60.928805000" lon="15.235471667">
<time>2014-07-06T11:00:32Z</time>
 <fix>none</fix>
 <sat>0</sat>
</trkpt>
<trkpt lat="60.928828333" lon="15.235295000">
<time>2014-07-06T11:00:33Z</time>
 <fix>none</fix>
 <sat>0</sat>
</trkpt>
<trkpt lat="60.928875000" lon="15.235141667">
<time>2014-07-06T11:00:34Z</time>
 <fix>none</fix>
 <sat>0</sat>
</trkpt>
<trkpt lat="60.929006667" lon="15.235011667">
<time>2014-07-06T11:00:35Z</time>
 <fix>none</fix>
 <sat>0</sat>
</trkpt>
<trkpt lat="60.929006667" lon="15.235011667">
<time>2014-07-06T11:00:36Z</time>
 <fix>none</fix>
 <sat>0</sat>
</trkpt>
<trkpt lat="60.929158333" lon="15.235055000">
<time>2014-07-06T11:00:37Z</time>
 <fix>none</fix>
 <sat>0</sat>
</trkpt>
<trkpt lat="60.929233333" lon="15.235095000">
<time>2014-07-06T11:00:38Z</time>
 <fix>none</fix>
 <sat>0</sat>
</trkpt>
<trkpt lat="60.929313333" lon="15.235118333">
<time>2014-07-06T11:00:39Z</time>
 <fix>none</fix>
 <sat>0</sat>
</trkpt>
<trkpt lat="60.929393333" lon="15.235151667">
<time>2014-07-06T11:00:40Z</time>
 <fix>none</fix>
 <sat>0</sat>
</trkpt>
<trkpt lat="60.929393333" lon="15.235151667">
<time>2014-07-06T11:00:41Z</time>
 <fix>none</fix>
 <sat>0</sat>
</trkpt>
<trkpt lat="60.929393333" lon="15.235151667">
<time>2014-07-06T11:00:42Z</time>
 <fix>none</fix>
 <sat>0</sat>
</trkpt>
<trkpt lat="60.929630000" lon="15.235315000">
<time>2014-07-06T11:00:43Z</time>
 <fix>none</fix>
 <sat>0</sat>
</trkpt>
<trkpt lat="60.929630000" lon="15.235315000">
<time>2014-07-06T11:00:44Z</time>
 <fix>none</fix>
 <sat>0</sat>
</trkpt>
<trkpt lat="60.929781667" lon="15.235445000">
<time>2014-07-06T11:00:45Z</time>
 <fix>none</fix>
 <sat>0</sat>
</trkpt>
<trkpt lat="60.929781667" lon="15.235445000">
<time>2014-07-06T11:00:46Z</time>
 <fix>none</fix>
 <sat>0</sat>
</trkpt>
<trkpt lat="60.930006667" lon="15.235398333">
<time>2014-07-06T11:00:47Z</time>
 <fix>none</fix>
 <sat>0</sat>
</trkpt>
<trkpt lat="60.930018333" lon="15.235466667">
<time>2014-07-06T11:00:48Z</time>
 <fix>none</fix>
 <sat>0</sat>
</trkpt>
<trkpt lat="60.930003333" lon="15.235375000">
<time>2014-07-06T11:00:49Z</time>
 <fix>none</fix>
 <sat>0</sat>
</trkpt>
<trkpt lat="60.930043333" lon="15.235238333">
<time>2014-07-06T11:00:50Z</time>
 <fix>none</fix>
 <sat>0</sat>
</trkpt>
<trkpt lat="60.930043333" lon="15.235238333">
<time>2014-07-06T11:00:51Z</time>
 <fix>none</fix>
 <sat>0</sat>
</trkpt>
<trkpt lat="60.930086667" lon="15.235096667">
<time>2014-07-06T11:00:52Z</time>
 <fix>none</fix>
 <sat>0</sat>
</trkpt>
<trkpt lat="60.930135000" lon="15.234968333">
<time>2014-07-06T11:00:53Z</time>
 <fix>none</fix>
 <sat>0</sat>
</trkpt>
<trkpt lat="60.930185000" lon="15.234836667">
<time>2014-07-06T11:00:54Z</time>
 <fix>none</fix>
 <sat>0</sat>
</trkpt>
<trkpt lat="60.930248333" lon="15.234773333">
<time>2014-07-06T11:00:55Z</time>
 <fix>none</fix>
 <sat>0</sat>
</trkpt>
<trkpt lat="60.930310000" lon="15.234728333">
<time>2014-07-06T11:00:56Z</time>
 <fix>none</fix>
 <sat>0</sat>
</trkpt>
<trkpt lat="60.930376667" lon="15.234681667">
<time>2014-07-06T11:00:57Z</time>
 <fix>none</fix>
 <sat>0</sat>
</trkpt>
<trkpt lat="60.930445000" lon="15.234615000">
<time>2014-07-06T11:00:58Z</time>
 <fix>none</fix>
 <sat>0</sat>
</trkpt>
<trkpt lat="60.930568333" lon="15.234413333">
<time>2014-07-06T11:00:59Z</time>
 <fix>none</fix>
 <sat>0</sat>
</trkpt>
<trkpt lat="60.930568333" lon="15.234413333">
<time>2014-07-06T11:01:00Z</time>
 <fix>none</fix>
 <sat>0</sat>
</trkpt>
<trkpt lat="60.930568333" lon="15.234413333">
<time>2014-07-06T11:01:01Z</time>
 <fix>none</fix>
 <sat>0</sat>
</trkpt>
<trkpt lat="60.930775000" lon="15.234090000">
<time>2014-07-06T11:01:02Z</time>
 <fix>none</fix>
 <sat>0</sat>
</trkpt>
<trkpt lat="60.930775000" lon="15.234090000">
<time>2014-07-06T11:01:03Z</time>
 <fix>none</fix>
 <sat>0</sat>
</trkpt>
<trkpt lat="60.930923333" lon="15.233871667">
<time>2014-07-06T11:01:04Z</time>
 <fix>none</fix>
 <sat>0</sat>
</trkpt>
<trkpt lat="60.930923333" lon="15.233871667">
<time>2014-07-06T11:01:05Z</time>
 <fix>none</fix>
 <sat>0</sat>
</trkpt>
<trkpt lat="60.931098333" lon="15.233745000">
<time>2014-07-06T11:01:06Z</time>
 <fix>none</fix>
 <sat>0</sat>
</trkpt>
<trkpt lat="60.931098333" lon="15.233745000">
<time>2014-07-06T11:01:07Z</time>
 <fix>none</fix>
 <sat>0</sat>
</trkpt>
<trkpt lat="60.931311667" lon="15.233601667">
<time>2014-07-06T11:01:08Z</time>
 <fix>none</fix>
 <sat>0</sat>
</trkpt>
<trkpt lat="60.931311667" lon="15.233601667">
<time>2014-07-06T11:01:09Z</time>
 <fix>none</fix>
 <sat>0</sat>
</trkpt>
<trkpt lat="60.931370000" lon="15.233290000">
<time>2014-07-06T11:01:10Z</time>
 <fix>none</fix>
 <sat>0</sat>
</trkpt>
<trkpt lat="60.931370000" lon="15.233290000">
<time>2014-07-06T11:01:11Z</time>
 <fix>none</fix>
 <sat>0</sat>
</trkpt>
<trkpt lat="60.931375000" lon="15.232845000">
<time>2014-07-06T11:01:12Z</time>
 <fix>none</fix>
 <sat>0</sat>
</trkpt>
<trkpt lat="60.931375000" lon="15.232845000">
<time>2014-07-06T11:01:13Z</time>
 <fix>none</fix>
 <sat>0</sat>
</trkpt>
<trkpt lat="60.931395000" lon="15.232506667">
<time>2014-07-06T11:01:14Z</time>
 <fix>none</fix>
 <sat>0</sat>
</trkpt>
<trkpt lat="60.931395000" lon="15.232506667">
<time>2014-07-06T11:01:15Z</time>
 <fix>none</fix>
 <sat>0</sat>
</trkpt>
<trkpt lat="60.931395000" lon="15.232088333">
<time>2014-07-06T11:01:16Z</time>
 <fix>none</fix>
 <sat>0</sat>
</trkpt>
<trkpt lat="60.931395000" lon="15.232088333">
<time>2014-07-06T11:01:17Z</time>
 <fix>none</fix>
 <sat>0</sat>
</trkpt>
<trkpt lat="60.931410000" lon="15.231695000">
<time>2014-07-06T11:01:18Z</time>
 <fix>none</fix>
 <sat>0</sat>
</trkpt>
<trkpt lat="60.931410000" lon="15.231695000">
<time>2014-07-06T11:01:19Z</time>
 <fix>none</fix>
 <sat>0</sat>
</trkpt>
<trkpt lat="60.931395000" lon="15.231291667">
<time>2014-07-06T11:01:20Z</time>
 <fix>none</fix>
 <sat>0</sat>
</trkpt>
<trkpt lat="60.931395000" lon="15.231291667">
<time>2014-07-06T11:01:21Z</time>
 <fix>none</fix>
 <sat>0</sat>
</trkpt>
<trkpt lat="60.931356667" lon="15.230891667">
<time>2014-07-06T11:01:22Z</time>
 <fix>none</fix>
 <sat>0</sat>
</trkpt>
<trkpt lat="60.931356667" lon="15.230891667">
<time>2014-07-06T11:01:23Z</time>
 <fix>none</fix>
 <sat>0</sat>
</trkpt>
<trkpt lat="60.931341667" lon="15.230490000">
<time>2014-07-06T11:01:24Z</time>
 <fix>none</fix>
 <sat>0</sat>
</trkpt>
<trkpt lat="60.931341667" lon="15.230490000">
<time>2014-07-06T11:01:25Z</time>
 <fix>none</fix>
 <sat>0</sat>
</trkpt>
<trkpt lat="60.931348333" lon="15.230110000">
<time>2014-07-06T11:01:26Z</time>
 <fix>none</fix>
 <sat>0</sat>
</trkpt>
<trkpt lat="60.931348333" lon="15.230110000">
<time>2014-07-06T11:01:27Z</time>
 <fix>none</fix>
 <sat>0</sat>
</trkpt>
<trkpt lat="60.931380000" lon="15.229706667">
<time>2014-07-06T11:01:28Z</time>
 <fix>none</fix>
 <sat>0</sat>
</trkpt>
<trkpt lat="60.931380000" lon="15.229706667">
<time>2014-07-06T11:01:29Z</time>
 <fix>none</fix>
 <sat>0</sat>
</trkpt>
<trkpt lat="60.931505000" lon="15.229333333">
<time>2014-07-06T11:01:30Z</time>
 <fix>none</fix>
 <sat>0</sat>
</trkpt>
<trkpt lat="60.931551667" lon="15.229205000">
<time>2014-07-06T11:01:31Z</time>
 <fix>none</fix>
 <sat>0</sat>
</trkpt>
<trkpt lat="60.931616667" lon="15.229061667">
<time>2014-07-06T11:01:32Z</time>
 <fix>none</fix>
 <sat>0</sat>
</trkpt>
<trkpt lat="60.931680000" lon="15.228925000">
<time>2014-07-06T11:01:33Z</time>
 <fix>none</fix>
 <sat>0</sat>
</trkpt>
<trkpt lat="60.931748333" lon="15.228810000">
<time>2014-07-06T11:01:34Z</time>
 <fix>none</fix>
 <sat>0</sat>
</trkpt>
<trkpt lat="60.931806667" lon="15.228650000">
<time>2014-07-06T11:01:35Z</time>
 <fix>none</fix>
 <sat>0</sat>
</trkpt>
<trkpt lat="60.931861667" lon="15.228530000">
<time>2014-07-06T11:01:36Z</time>
 <fix>none</fix>
 <sat>0</sat>
</trkpt>
<trkpt lat="60.931861667" lon="15.228530000">
<time>2014-07-06T11:01:37Z</time>
 <fix>none</fix>
 <sat>0</sat>
</trkpt>
<trkpt lat="60.931913333" lon="15.228428333">
<time>2014-07-06T11:01:38Z</time>
 <fix>none</fix>
 <sat>0</sat>
</trkpt>
<trkpt lat="60.931963333" lon="15.228348333">
<time>2014-07-06T11:01:39Z</time>
 <fix>none</fix>
 <sat>0</sat>
</trkpt>
<trkpt lat="60.932020000" lon="15.228348333">
<time>2014-07-06T11:01:40Z</time>
 <fix>none</fix>
 <sat>0</sat>
</trkpt>
<trkpt lat="60.932080000" lon="15.228395000">
<time>2014-07-06T11:01:41Z</time>
 <fix>none</fix>
 <sat>0</sat>
</trkpt>
<trkpt lat="60.932190000" lon="15.228533333">
<time>2014-07-06T11:01:42Z</time>
 <fix>none</fix>
 <sat>0</sat>
</trkpt>
<trkpt lat="60.932260000" lon="15.228641667">
<time>2014-07-06T11:01:43Z</time>
 <fix>none</fix>
 <sat>0</sat>
</trkpt>
<trkpt lat="60.932333333" lon="15.228760000">
<time>2014-07-06T11:01:44Z</time>
 <fix>none</fix>
 <sat>0</sat>
</trkpt>
<trkpt lat="60.932405000" lon="15.228873333">
<time>2014-07-06T11:01:45Z</time>
 <fix>none</fix>
 <sat>0</sat>
</trkpt>
<trkpt lat="60.932480000" lon="15.228986667">
<time>2014-07-06T11:01:46Z</time>
 <fix>none</fix>
 <sat>0</sat>
</trkpt>
<trkpt lat="60.932551667" lon="15.229095000">
<time>2014-07-06T11:01:47Z</time>
 <fix>none</fix>
 <sat>0</sat>
</trkpt>
<trkpt lat="60.932623333" lon="15.229201667">
<time>2014-07-06T11:01:48Z</time>
 <fix>none</fix>
 <sat>0</sat>
</trkpt>
<trkpt lat="60.932696667" lon="15.229305000">
<time>2014-07-06T11:01:49Z</time>
 <fix>none</fix>
 <sat>0</sat>
</trkpt>
<trkpt lat="60.932768333" lon="15.229401667">
<time>2014-07-06T11:01:50Z</time>
 <fix>none</fix>
 <sat>0</sat>
</trkpt>
<trkpt lat="60.932838333" lon="15.229491667">
<time>2014-07-06T11:01:51Z</time>
 <fix>none</fix>
 <sat>0</sat>
</trkpt>
<trkpt lat="60.932906667" lon="15.229578333">
<time>2014-07-06T11:01:52Z</time>
 <fix>none</fix>
 <sat>0</sat>
</trkpt>
<trkpt lat="60.932971667" lon="15.229661667">
<time>2014-07-06T11:01:53Z</time>
 <fix>none</fix>
 <sat>0</sat>
</trkpt>
<trkpt lat="60.933035000" lon="15.229733333">
<time>2014-07-06T11:01:54Z</time>
 <fix>none</fix>
 <sat>0</sat>
</trkpt>
<trkpt lat="60.933096667" lon="15.229783333">
<time>2014-07-06T11:01:55Z</time>
 <fix>none</fix>
 <sat>0</sat>
</trkpt>
<trkpt lat="60.933158333" lon="15.229823333">
<time>2014-07-06T11:01:56Z</time>
 <fix>none</fix>
 <sat>0</sat>
</trkpt>
<trkpt lat="60.933225000" lon="15.229853333">
<time>2014-07-06T11:01:57Z</time>
 <fix>none</fix>
 <sat>0</sat>
</trkpt>
<trkpt lat="60.933295000" lon="15.229888333">
<time>2014-07-06T11:01:58Z</time>
 <fix>none</fix>
 <sat>0</sat>
</trkpt>
<trkpt lat="60.933370000" lon="15.229921667">
<time>2014-07-06T11:01:59Z</time>
 <fix>none</fix>
 <sat>0</sat>
</trkpt>
<trkpt lat="60.933370000" lon="15.229921667">
<time>2014-07-06T11:02:00Z</time>
 <fix>none</fix>
 <sat>0</sat>
</trkpt>
<trkpt lat="60.933443333" lon="15.229960000">
<time>2014-07-06T11:02:01Z</time>
 <fix>none</fix>
 <sat>0</sat>
</trkpt>
<trkpt lat="60.933516667" lon="15.230005000">
<time>2014-07-06T11:02:02Z</time>
 <fix>none</fix>
 <sat>0</sat>
</trkpt>
<trkpt lat="60.933588333" lon="15.230048333">
<time>2014-07-06T11:02:03Z</time>
 <fix>none</fix>
 <sat>0</sat>
</trkpt>
<trkpt lat="60.933665000" lon="15.230085000">
<time>2014-07-06T11:02:04Z</time>
 <fix>none</fix>
 <sat>0</sat>
</trkpt>
<trkpt lat="60.933741667" lon="15.230113333">
<time>2014-07-06T11:02:05Z</time>
 <fix>none</fix>
 <sat>0</sat>
</trkpt>
<trkpt lat="60.933818333" lon="15.230141667">
<time>2014-07-06T11:02:06Z</time>
 <fix>none</fix>
 <sat>0</sat>
</trkpt>
<trkpt lat="60.933960000" lon="15.230193333">
<time>2014-07-06T11:02:07Z</time>
 <fix>none</fix>
 <sat>0</sat>
</trkpt>
<trkpt lat="60.934023333" lon="15.230221667">
<time>2014-07-06T11:02:08Z</time>
 <fix>none</fix>
 <sat>0</sat>
</trkpt>
<trkpt lat="60.934080000" lon="15.230250000">
<time>2014-07-06T11:02:09Z</time>
 <fix>none</fix>
 <sat>0</sat>
</trkpt>
<trkpt lat="60.934125000" lon="15.230271667">
<time>2014-07-06T11:02:10Z</time>
 <fix>none</fix>
 <sat>0</sat>
</trkpt>
<trkpt lat="60.934170000" lon="15.230288333">
<time>2014-07-06T11:02:11Z</time>
 <fix>none</fix>
 <sat>0</sat>
</trkpt>
<trkpt lat="60.934218333" lon="15.230300000">
<time>2014-07-06T11:02:12Z</time>
 <fix>none</fix>
 <sat>0</sat>
</trkpt>
<trkpt lat="60.934275000" lon="15.230306667">
<time>2014-07-06T11:02:13Z</time>
 <fix>none</fix>
 <sat>0</sat>
</trkpt>
<trkpt lat="60.934336667" lon="15.230318333">
<time>2014-07-06T11:02:14Z</time>
 <fix>none</fix>
 <sat>0</sat>
</trkpt>
<trkpt lat="60.934398333" lon="15.230336667">
<time>2014-07-06T11:02:15Z</time>
 <fix>none</fix>
 <sat>0</sat>
</trkpt>
<trkpt lat="60.934456667" lon="15.230358333">
<time>2014-07-06T11:02:16Z</time>
 <fix>none</fix>
 <sat>0</sat>
</trkpt>
<trkpt lat="60.934513333" lon="15.230390000">
<time>2014-07-06T11:02:17Z</time>
 <fix>none</fix>
 <sat>0</sat>
</trkpt>
<trkpt lat="60.934568333" lon="15.230430000">
<time>2014-07-06T11:02:18Z</time>
 <fix>none</fix>
 <sat>0</sat>
</trkpt>
<trkpt lat="60.934626667" lon="15.230471667">
<time>2014-07-06T11:02:19Z</time>
 <fix>none</fix>
 <sat>0</sat>
</trkpt>
<trkpt lat="60.934688333" lon="15.230506667">
<time>2014-07-06T11:02:20Z</time>
 <fix>none</fix>
 <sat>0</sat>
</trkpt>
<trkpt lat="60.934755000" lon="15.230543333">
<time>2014-07-06T11:02:21Z</time>
 <fix>none</fix>
 <sat>0</sat>
</trkpt>
<trkpt lat="60.934755000" lon="15.230543333">
<time>2014-07-06T11:02:22Z</time>
 <fix>none</fix>
 <sat>0</sat>
</trkpt>
<trkpt lat="60.934823333" lon="15.230585000">
<time>2014-07-06T11:02:23Z</time>
 <fix>none</fix>
 <sat>0</sat>
</trkpt>
<trkpt lat="60.934895000" lon="15.230621667">
<time>2014-07-06T11:02:24Z</time>
 <fix>none</fix>
 <sat>0</sat>
</trkpt>
<trkpt lat="60.934970000" lon="15.230656667">
<time>2014-07-06T11:02:25Z</time>
 <fix>none</fix>
 <sat>0</sat>
</trkpt>
<trkpt lat="60.935043333" lon="15.230698333">
<time>2014-07-06T11:02:26Z</time>
 <fix>none</fix>
 <sat>0</sat>
</trkpt>
<trkpt lat="60.935116667" lon="15.230743333">
<time>2014-07-06T11:02:27Z</time>
 <fix>none</fix>
 <sat>0</sat>
</trkpt>
<trkpt lat="60.935261667" lon="15.230828333">
<time>2014-07-06T11:02:28Z</time>
 <fix>none</fix>
 <sat>0</sat>
</trkpt>
<trkpt lat="60.935336667" lon="15.230873333">
<time>2014-07-06T11:02:29Z</time>
 <fix>none</fix>
 <sat>0</sat>
</trkpt>
<trkpt lat="60.935415000" lon="15.230918333">
<time>2014-07-06T11:02:30Z</time>
 <fix>none</fix>
 <sat>0</sat>
</trkpt>
<trkpt lat="60.935495000" lon="15.230965000">
<time>2014-07-06T11:02:31Z</time>
 <fix>none</fix>
 <sat>0</sat>
</trkpt>
<trkpt lat="60.935495000" lon="15.230965000">
<time>2014-07-06T11:02:32Z</time>
 <fix>none</fix>
 <sat>0</sat>
</trkpt>
<trkpt lat="60.935495000" lon="15.230965000">
<time>2014-07-06T11:02:33Z</time>
 <fix>none</fix>
 <sat>0</sat>
</trkpt>
<trkpt lat="60.935730000" lon="15.231115000">
<time>2014-07-06T11:02:34Z</time>
 <fix>none</fix>
 <sat>0</sat>
</trkpt>
<trkpt lat="60.935730000" lon="15.231115000">
<time>2014-07-06T11:02:35Z</time>
 <fix>none</fix>
 <sat>0</sat>
</trkpt>
<trkpt lat="60.935890000" lon="15.231218333">
<time>2014-07-06T11:02:36Z</time>
 <fix>none</fix>
 <sat>0</sat>
</trkpt>
<trkpt lat="60.935890000" lon="15.231218333">
<time>2014-07-06T11:02:37Z</time>
 <fix>none</fix>
 <sat>0</sat>
</trkpt>
<trkpt lat="60.936061667" lon="15.231328333">
<time>2014-07-06T11:02:38Z</time>
 <fix>none</fix>
 <sat>0</sat>
</trkpt>
<trkpt lat="60.936061667" lon="15.231328333">
<time>2014-07-06T11:02:39Z</time>
 <fix>none</fix>
 <sat>0</sat>
</trkpt>
<trkpt lat="60.936221667" lon="15.231476667">
<time>2014-07-06T11:02:40Z</time>
 <fix>none</fix>
 <sat>0</sat>
</trkpt>
<trkpt lat="60.936221667" lon="15.231476667">
<time>2014-07-06T11:02:41Z</time>
 <fix>none</fix>
 <sat>0</sat>
</trkpt>
<trkpt lat="60.936385000" lon="15.231600000">
<time>2014-07-06T11:02:42Z</time>
 <fix>none</fix>
 <sat>0</sat>
</trkpt>
<trkpt lat="60.936385000" lon="15.231600000">
<time>2014-07-06T11:02:43Z</time>
 <fix>none</fix>
 <sat>0</sat>
</trkpt>
<trkpt lat="60.936556667" lon="15.231698333">
<time>2014-07-06T11:02:44Z</time>
 <fix>none</fix>
 <sat>0</sat>
</trkpt>
<trkpt lat="60.936556667" lon="15.231698333">
<time>2014-07-06T11:02:45Z</time>
 <fix>none</fix>
 <sat>0</sat>
</trkpt>
<trkpt lat="60.936743333" lon="15.231813333">
<time>2014-07-06T11:02:46Z</time>
 <fix>none</fix>
 <sat>0</sat>
</trkpt>
<trkpt lat="60.936743333" lon="15.231813333">
<time>2014-07-06T11:02:47Z</time>
 <fix>none</fix>
 <sat>0</sat>
</trkpt>
<trkpt lat="60.936935000" lon="15.231908333">
<time>2014-07-06T11:02:48Z</time>
 <fix>none</fix>
 <sat>0</sat>
</trkpt>
<trkpt lat="60.936935000" lon="15.231908333">
<time>2014-07-06T11:02:49Z</time>
 <fix>none</fix>
 <sat>0</sat>
</trkpt>
<trkpt lat="60.937111667" lon="15.232036667">
<time>2014-07-06T11:02:50Z</time>
 <fix>none</fix>
 <sat>0</sat>
</trkpt>
<trkpt lat="60.937111667" lon="15.232036667">
<time>2014-07-06T11:02:51Z</time>
 <fix>none</fix>
 <sat>0</sat>
</trkpt>
<trkpt lat="60.937111667" lon="15.232036667">
<time>2014-07-06T11:02:52Z</time>
 <fix>none</fix>
 <sat>0</sat>
</trkpt>
<trkpt lat="60.937300000" lon="15.232175000">
<time>2014-07-06T11:02:53Z</time>
 <fix>none</fix>
 <sat>0</sat>
</trkpt>
<trkpt lat="60.937480000" lon="15.232323333">
<time>2014-07-06T11:02:54Z</time>
 <fix>none</fix>
 <sat>0</sat>
</trkpt>
<trkpt lat="60.937480000" lon="15.232323333">
<time>2014-07-06T11:02:55Z</time>
 <fix>none</fix>
 <sat>0</sat>
</trkpt>
<trkpt lat="60.937663333" lon="15.232450000">
<time>2014-07-06T11:02:56Z</time>
 <fix>none</fix>
 <sat>0</sat>
</trkpt>
<trkpt lat="60.937663333" lon="15.232450000">
<time>2014-07-06T11:02:57Z</time>
 <fix>none</fix>
 <sat>0</sat>
</trkpt>
<trkpt lat="60.937845000" lon="15.232541667">
<time>2014-07-06T11:02:58Z</time>
 <fix>none</fix>
 <sat>0</sat>
</trkpt>
<trkpt lat="60.937845000" lon="15.232541667">
<time>2014-07-06T11:02:59Z</time>
 <fix>none</fix>
 <sat>0</sat>
</trkpt>
<trkpt lat="60.937845000" lon="15.232541667">
<time>2014-07-06T11:03:00Z</time>
 <fix>none</fix>
 <sat>0</sat>
</trkpt>
<trkpt lat="60.938035000" lon="15.232630000">
<time>2014-07-06T11:03:01Z</time>
 <fix>none</fix>
 <sat>0</sat>
</trkpt>
<trkpt lat="60.938228333" lon="15.232710000">
<time>2014-07-06T11:03:02Z</time>
 <fix>none</fix>
 <sat>0</sat>
</trkpt>
<trkpt lat="60.938228333" lon="15.232710000">
<time>2014-07-06T11:03:03Z</time>
 <fix>none</fix>
 <sat>0</sat>
</trkpt>
<trkpt lat="60.938413333" lon="15.232790000">
<time>2014-07-06T11:03:04Z</time>
 <fix>none</fix>
 <sat>0</sat>
</trkpt>
<trkpt lat="60.938413333" lon="15.232790000">
<time>2014-07-06T11:03:05Z</time>
 <fix>none</fix>
 <sat>0</sat>
</trkpt>
<trkpt lat="60.938598333" lon="15.232845000">
<time>2014-07-06T11:03:06Z</time>
 <fix>none</fix>
 <sat>0</sat>
</trkpt>
<trkpt lat="60.938598333" lon="15.232845000">
<time>2014-07-06T11:03:07Z</time>
 <fix>none</fix>
 <sat>0</sat>
</trkpt>
<trkpt lat="60.938778333" lon="15.232921667">
<time>2014-07-06T11:03:08Z</time>
 <fix>none</fix>
 <sat>0</sat>
</trkpt>
<trkpt lat="60.938778333" lon="15.232921667">
<time>2014-07-06T11:03:09Z</time>
 <fix>none</fix>
 <sat>0</sat>
</trkpt>
<trkpt lat="60.938956667" lon="15.233008333">
<time>2014-07-06T11:03:10Z</time>
 <fix>none</fix>
 <sat>0</sat>
</trkpt>
<trkpt lat="60.938956667" lon="15.233008333">
<time>2014-07-06T11:03:11Z</time>
 <fix>none</fix>
 <sat>0</sat>
</trkpt>
<trkpt lat="60.939110000" lon="15.232998333">
<time>2014-07-06T11:03:12Z</time>
 <fix>none</fix>
 <sat>0</sat>
</trkpt>
<trkpt lat="60.939110000" lon="15.232998333">
<time>2014-07-06T11:03:13Z</time>
 <fix>none</fix>
 <sat>0</sat>
</trkpt>
<trkpt lat="60.939253333" lon="15.233128333">
<time>2014-07-06T11:03:14Z</time>
 <fix>none</fix>
 <sat>0</sat>
</trkpt>
<trkpt lat="60.939253333" lon="15.233128333">
<time>2014-07-06T11:03:15Z</time>
 <fix>none</fix>
 <sat>0</sat>
</trkpt>
<trkpt lat="60.939381667" lon="15.233056667">
<time>2014-07-06T11:03:16Z</time>
 <fix>none</fix>
 <sat>0</sat>
</trkpt>
<trkpt lat="60.939381667" lon="15.233056667">
<time>2014-07-06T11:03:17Z</time>
 <fix>none</fix>
 <sat>0</sat>
</trkpt>
<trkpt lat="60.939451667" lon="15.232895000">
<time>2014-07-06T11:03:18Z</time>
 <fix>none</fix>
 <sat>0</sat>
</trkpt>
<trkpt lat="60.939451667" lon="15.232895000">
<time>2014-07-06T11:03:19Z</time>
 <fix>none</fix>
 <sat>0</sat>
</trkpt>
<trkpt lat="60.939476667" lon="15.232748333">
<time>2014-07-06T11:03:20Z</time>
 <fix>none</fix>
 <sat>0</sat>
</trkpt>
<trkpt lat="60.939460000" lon="15.232690000">
<time>2014-07-06T11:03:21Z</time>
 <fix>none</fix>
 <sat>0</sat>
</trkpt>
<trkpt lat="60.939373333" lon="15.232508333">
<time>2014-07-06T11:03:22Z</time>
 <fix>none</fix>
 <sat>0</sat>
</trkpt>
<trkpt lat="60.939325000" lon="15.232365000">
<time>2014-07-06T11:03:23Z</time>
 <fix>none</fix>
 <sat>0</sat>
</trkpt>
<trkpt lat="60.939278333" lon="15.232223333">
<time>2014-07-06T11:03:24Z</time>
 <fix>none</fix>
 <sat>0</sat>
</trkpt>
<trkpt lat="60.939233333" lon="15.232083333">
<time>2014-07-06T11:03:25Z</time>
 <fix>none</fix>
 <sat>0</sat>
</trkpt>
<trkpt lat="60.939188333" lon="15.231950000">
<time>2014-07-06T11:03:26Z</time>
 <fix>none</fix>
 <sat>0</sat>
</trkpt>
<trkpt lat="60.939146667" lon="15.231810000">
<time>2014-07-06T11:03:27Z</time>
 <fix>none</fix>
 <sat>0</sat>
</trkpt>
<trkpt lat="60.939106667" lon="15.231665000">
<time>2014-07-06T11:03:28Z</time>
 <fix>none</fix>
 <sat>0</sat>
</trkpt>
<trkpt lat="60.939066667" lon="15.231525000">
<time>2014-07-06T11:03:29Z</time>
 <fix>none</fix>
 <sat>0</sat>
</trkpt>
<trkpt lat="60.939031667" lon="15.231383333">
<time>2014-07-06T11:03:30Z</time>
 <fix>none</fix>
 <sat>0</sat>
</trkpt>
<trkpt lat="60.939031667" lon="15.231383333">
<time>2014-07-06T11:03:31Z</time>
 <fix>none</fix>
 <sat>0</sat>
</trkpt>
<trkpt lat="60.939031667" lon="15.231383333">
<time>2014-07-06T11:03:32Z</time>
 <fix>none</fix>
 <sat>0</sat>
</trkpt>
<trkpt lat="60.938943333" lon="15.230945000">
<time>2014-07-06T11:03:33Z</time>
 <fix>none</fix>
 <sat>0</sat>
</trkpt>
<trkpt lat="60.938943333" lon="15.230945000">
<time>2014-07-06T11:03:34Z</time>
 <fix>none</fix>
 <sat>0</sat>
</trkpt>
<trkpt lat="60.938896667" lon="15.230651667">
<time>2014-07-06T11:03:35Z</time>
 <fix>none</fix>
 <sat>0</sat>
</trkpt>
<trkpt lat="60.938861667" lon="15.230345000">
<time>2014-07-06T11:03:36Z</time>
 <fix>none</fix>
 <sat>0</sat>
</trkpt>
<trkpt lat="60.938861667" lon="15.230345000">
<time>2014-07-06T11:03:37Z</time>
 <fix>none</fix>
 <sat>0</sat>
</trkpt>
<trkpt lat="60.938861667" lon="15.230345000">
<time>2014-07-06T11:03:38Z</time>
 <fix>none</fix>
 <sat>0</sat>
</trkpt>
<trkpt lat="60.938825000" lon="15.230028333">
<time>2014-07-06T11:03:39Z</time>
 <fix>none</fix>
 <sat>0</sat>
</trkpt>
<trkpt lat="60.938825000" lon="15.230028333">
<time>2014-07-06T11:03:40Z</time>
 <fix>none</fix>
 <sat>0</sat>
</trkpt>
<trkpt lat="60.938780000" lon="15.229723333">
<time>2014-07-06T11:03:41Z</time>
 <fix>none</fix>
 <sat>0</sat>
</trkpt>
<trkpt lat="60.938780000" lon="15.229723333">
<time>2014-07-06T11:03:42Z</time>
 <fix>none</fix>
 <sat>0</sat>
</trkpt>
<trkpt lat="60.938721667" lon="15.229425000">
<time>2014-07-06T11:03:43Z</time>
 <fix>none</fix>
 <sat>0</sat>
</trkpt>
<trkpt lat="60.938721667" lon="15.229425000">
<time>2014-07-06T11:03:44Z</time>
 <fix>none</fix>
 <sat>0</sat>
</trkpt>
<trkpt lat="60.938668333" lon="15.229131667">
<time>2014-07-06T11:03:45Z</time>
 <fix>none</fix>
 <sat>0</sat>
</trkpt>
<trkpt lat="60.938668333" lon="15.229131667">
<time>2014-07-06T11:03:46Z</time>
 <fix>none</fix>
 <sat>0</sat>
</trkpt>
<trkpt lat="60.938598333" lon="15.228853333">
<time>2014-07-06T11:03:47Z</time>
 <fix>none</fix>
 <sat>0</sat>
</trkpt>
<trkpt lat="60.938598333" lon="15.228853333">
<time>2014-07-06T11:03:48Z</time>
 <fix>none</fix>
 <sat>0</sat>
</trkpt>
<trkpt lat="60.938521667" lon="15.228570000">
<time>2014-07-06T11:03:49Z</time>
 <fix>none</fix>
 <sat>0</sat>
</trkpt>
<trkpt lat="60.938521667" lon="15.228570000">
<time>2014-07-06T11:03:50Z</time>
 <fix>none</fix>
 <sat>0</sat>
</trkpt>
<trkpt lat="60.938451667" lon="15.228298333">
<time>2014-07-06T11:03:51Z</time>
 <fix>none</fix>
 <sat>0</sat>
</trkpt>
<trkpt lat="60.938451667" lon="15.228298333">
<time>2014-07-06T11:03:52Z</time>
 <fix>none</fix>
 <sat>0</sat>
</trkpt>
<trkpt lat="60.938363333" lon="15.228006667">
<time>2014-07-06T11:03:53Z</time>
 <fix>none</fix>
 <sat>0</sat>
</trkpt>
<trkpt lat="60.938363333" lon="15.228006667">
<time>2014-07-06T11:03:54Z</time>
 <fix>none</fix>
 <sat>0</sat>
</trkpt>
<trkpt lat="60.938288333" lon="15.227703333">
<time>2014-07-06T11:03:55Z</time>
 <fix>none</fix>
 <sat>0</sat>
</trkpt>
<trkpt lat="60.938288333" lon="15.227703333">
<time>2014-07-06T11:03:56Z</time>
 <fix>none</fix>
 <sat>0</sat>
</trkpt>
<trkpt lat="60.938206667" lon="15.227395000">
<time>2014-07-06T11:03:57Z</time>
 <fix>none</fix>
 <sat>0</sat>
</trkpt>
<trkpt lat="60.938206667" lon="15.227395000">
<time>2014-07-06T11:03:58Z</time>
 <fix>none</fix>
 <sat>0</sat>
</trkpt>
<trkpt lat="60.938110000" lon="15.227078333">
<time>2014-07-06T11:03:59Z</time>
 <fix>none</fix>
 <sat>0</sat>
</trkpt>
<trkpt lat="60.938110000" lon="15.227078333">
<time>2014-07-06T11:04:00Z</time>
 <fix>none</fix>
 <sat>0</sat>
</trkpt>
<trkpt lat="60.937998333" lon="15.226773333">
<time>2014-07-06T11:04:01Z</time>
 <fix>none</fix>
 <sat>0</sat>
</trkpt>
<trkpt lat="60.937998333" lon="15.226773333">
<time>2014-07-06T11:04:02Z</time>
 <fix>none</fix>
 <sat>0</sat>
</trkpt>
<trkpt lat="60.937878333" lon="15.226505000">
<time>2014-07-06T11:04:03Z</time>
 <fix>none</fix>
 <sat>0</sat>
</trkpt>
<trkpt lat="60.937878333" lon="15.226505000">
<time>2014-07-06T11:04:04Z</time>
 <fix>none</fix>
 <sat>0</sat>
</trkpt>
<trkpt lat="60.937738333" lon="15.226273333">
<time>2014-07-06T11:04:05Z</time>
 <fix>none</fix>
 <sat>0</sat>
</trkpt>
<trkpt lat="60.937738333" lon="15.226273333">
<time>2014-07-06T11:04:06Z</time>
 <fix>none</fix>
 <sat>0</sat>
</trkpt>
<trkpt lat="60.937611667" lon="15.226045000">
<time>2014-07-06T11:04:07Z</time>
 <fix>none</fix>
 <sat>0</sat>
</trkpt>
<trkpt lat="60.937611667" lon="15.226045000">
<time>2014-07-06T11:04:08Z</time>
 <fix>none</fix>
 <sat>0</sat>
</trkpt>
<trkpt lat="60.937483333" lon="15.225755000">
<time>2014-07-06T11:04:09Z</time>
 <fix>none</fix>
 <sat>0</sat>
</trkpt>
<trkpt lat="60.937426667" lon="15.225668333">
<time>2014-07-06T11:04:10Z</time>
 <fix>none</fix>
 <sat>0</sat>
</trkpt>
<trkpt lat="60.937348333" lon="15.225573333">
<time>2014-07-06T11:04:11Z</time>
 <fix>none</fix>
 <sat>0</sat>
</trkpt>
<trkpt lat="60.937303333" lon="15.225406667">
<time>2014-07-06T11:04:12Z</time>
 <fix>none</fix>
 <sat>0</sat>
</trkpt>
<trkpt lat="60.937270000" lon="15.225241667">
<time>2014-07-06T11:04:13Z</time>
 <fix>none</fix>
 <sat>0</sat>
</trkpt>
<trkpt lat="60.937248333" lon="15.225105000">
<time>2014-07-06T11:04:14Z</time>
 <fix>none</fix>
 <sat>0</sat>
</trkpt>
<trkpt lat="60.937245000" lon="15.224971667">
<time>2014-07-06T11:04:15Z</time>
 <fix>none</fix>
 <sat>0</sat>
</trkpt>
<trkpt lat="60.937245000" lon="15.224971667">
<time>2014-07-06T11:04:16Z</time>
 <fix>none</fix>
 <sat>0</sat>
</trkpt>
<trkpt lat="60.937271667" lon="15.224816667">
<time>2014-07-06T11:04:17Z</time>
 <fix>none</fix>
 <sat>0</sat>
</trkpt>
<trkpt lat="60.937305000" lon="15.224673333">
<time>2014-07-06T11:04:18Z</time>
 <fix>none</fix>
 <sat>0</sat>
</trkpt>
<trkpt lat="60.937338333" lon="15.224538333">
<time>2014-07-06T11:04:19Z</time>
 <fix>none</fix>
 <sat>0</sat>
</trkpt>
<trkpt lat="60.937360000" lon="15.224410000">
<time>2014-07-06T11:04:20Z</time>
 <fix>none</fix>
 <sat>0</sat>
</trkpt>
<trkpt lat="60.937360000" lon="15.224288333">
<time>2014-07-06T11:04:21Z</time>
 <fix>none</fix>
 <sat>0</sat>
</trkpt>
<trkpt lat="60.937338333" lon="15.224180000">
<time>2014-07-06T11:04:22Z</time>
 <fix>none</fix>
 <sat>0</sat>
</trkpt>
<trkpt lat="60.937305000" lon="15.224116667">
<time>2014-07-06T11:04:23Z</time>
 <fix>none</fix>
 <sat>0</sat>
</trkpt>
<trkpt lat="60.937305000" lon="15.224116667">
<time>2014-07-06T11:04:24Z</time>
 <fix>none</fix>
 <sat>0</sat>
</trkpt>
<trkpt lat="60.937258333" lon="15.223923333">
<time>2014-07-06T11:04:25Z</time>
 <fix>none</fix>
 <sat>0</sat>
</trkpt>
<trkpt lat="60.937258333" lon="15.223923333">
<time>2014-07-06T11:04:26Z</time>
 <fix>none</fix>
 <sat>0</sat>
</trkpt>
<trkpt lat="60.937235000" lon="15.223758333">
<time>2014-07-06T11:04:27Z</time>
 <fix>none</fix>
 <sat>0</sat>
</trkpt>
<trkpt lat="60.937235000" lon="15.223758333">
<time>2014-07-06T11:04:28Z</time>
 <fix>none</fix>
 <sat>0</sat>
</trkpt>
<trkpt lat="60.937216667" lon="15.223556667">
<time>2014-07-06T11:04:29Z</time>
 <fix>none</fix>
 <sat>0</sat>
</trkpt>
<trkpt lat="60.937216667" lon="15.223556667">
<time>2014-07-06T11:04:30Z</time>
 <fix>none</fix>
 <sat>0</sat>
</trkpt>
<trkpt lat="60.937135000" lon="15.223366667">
<time>2014-07-06T11:04:31Z</time>
 <fix>none</fix>
 <sat>0</sat>
</trkpt>
<trkpt lat="60.937135000" lon="15.223366667">
<time>2014-07-06T11:04:32Z</time>
 <fix>none</fix>
 <sat>0</sat>
</trkpt>
<trkpt lat="60.937081667" lon="15.223171667">
<time>2014-07-06T11:04:33Z</time>
 <fix>none</fix>
 <sat>0</sat>
</trkpt>
<trkpt lat="60.937081667" lon="15.223171667">
<time>2014-07-06T11:04:34Z</time>
 <fix>none</fix>
 <sat>0</sat>
</trkpt>
<trkpt lat="60.937026667" lon="15.222953333">
<time>2014-07-06T11:04:35Z</time>
 <fix>none</fix>
 <sat>0</sat>
</trkpt>
<trkpt lat="60.937026667" lon="15.222953333">
<time>2014-07-06T11:04:36Z</time>
 <fix>none</fix>
 <sat>0</sat>
</trkpt>
<trkpt lat="60.936920000" lon="15.222758333">
<time>2014-07-06T11:04:37Z</time>
 <fix>none</fix>
 <sat>0</sat>
</trkpt>
<trkpt lat="60.936920000" lon="15.222758333">
<time>2014-07-06T11:04:38Z</time>
 <fix>none</fix>
 <sat>0</sat>
</trkpt>
<trkpt lat="60.936723333" lon="15.222623333">
<time>2014-07-06T11:04:39Z</time>
 <fix>none</fix>
 <sat>0</sat>
</trkpt>
<trkpt lat="60.936723333" lon="15.222623333">
<time>2014-07-06T11:04:40Z</time>
 <fix>none</fix>
 <sat>0</sat>
</trkpt>
<trkpt lat="60.936535000" lon="15.222428333">
<time>2014-07-06T11:04:41Z</time>
 <fix>none</fix>
 <sat>0</sat>
</trkpt>
<trkpt lat="60.936535000" lon="15.222428333">
<time>2014-07-06T11:04:42Z</time>
 <fix>none</fix>
 <sat>0</sat>
</trkpt>
<trkpt lat="60.936348333" lon="15.222223333">
<time>2014-07-06T11:04:43Z</time>
 <fix>none</fix>
 <sat>0</sat>
</trkpt>
<trkpt lat="60.936348333" lon="15.222223333">
<time>2014-07-06T11:04:44Z</time>
 <fix>none</fix>
 <sat>0</sat>
</trkpt>
<trkpt lat="60.936166667" lon="15.222011667">
<time>2014-07-06T11:04:45Z</time>
 <fix>none</fix>
 <sat>0</sat>
</trkpt>
<trkpt lat="60.936166667" lon="15.222011667">
<time>2014-07-06T11:04:46Z</time>
 <fix>none</fix>
 <sat>0</sat>
</trkpt>
<trkpt lat="60.936166667" lon="15.222011667">
<time>2014-07-06T11:04:47Z</time>
 <fix>none</fix>
 <sat>0</sat>
</trkpt>
<trkpt lat="60.936005000" lon="15.221788333">
<time>2014-07-06T11:04:48Z</time>
 <fix>none</fix>
 <sat>0</sat>
</trkpt>
<trkpt lat="60.935821667" lon="15.221578333">
<time>2014-07-06T11:04:49Z</time>
 <fix>none</fix>
 <sat>0</sat>
</trkpt>
<trkpt lat="60.935821667" lon="15.221578333">
<time>2014-07-06T11:04:50Z</time>
 <fix>none</fix>
 <sat>0</sat>
</trkpt>
<trkpt lat="60.935648333" lon="15.221383333">
<time>2014-07-06T11:04:51Z</time>
 <fix>none</fix>
 <sat>0</sat>
</trkpt>
<trkpt lat="60.935648333" lon="15.221383333">
<time>2014-07-06T11:04:52Z</time>
 <fix>none</fix>
 <sat>0</sat>
</trkpt>
<trkpt lat="60.935476667" lon="15.221205000">
<time>2014-07-06T11:04:53Z</time>
 <fix>none</fix>
 <sat>0</sat>
</trkpt>
<trkpt lat="60.935476667" lon="15.221205000">
<time>2014-07-06T11:04:54Z</time>
 <fix>none</fix>
 <sat>0</sat>
</trkpt>
<trkpt lat="60.935295000" lon="15.221021667">
<time>2014-07-06T11:04:55Z</time>
 <fix>none</fix>
 <sat>0</sat>
</trkpt>
<trkpt lat="60.935295000" lon="15.221021667">
<time>2014-07-06T11:04:56Z</time>
 <fix>none</fix>
 <sat>0</sat>
</trkpt>
<trkpt lat="60.935125000" lon="15.220826667">
<time>2014-07-06T11:04:57Z</time>
 <fix>none</fix>
 <sat>0</sat>
</trkpt>
<trkpt lat="60.935125000" lon="15.220826667">
<time>2014-07-06T11:04:58Z</time>
 <fix>none</fix>
 <sat>0</sat>
</trkpt>
<trkpt lat="60.934960000" lon="15.220638333">
<time>2014-07-06T11:04:59Z</time>
 <fix>none</fix>
 <sat>0</sat>
</trkpt>
<trkpt lat="60.934960000" lon="15.220638333">
<time>2014-07-06T11:05:00Z</time>
 <fix>none</fix>
 <sat>0</sat>
</trkpt>
<trkpt lat="60.934788333" lon="15.220483333">
<time>2014-07-06T11:05:01Z</time>
 <fix>none</fix>
 <sat>0</sat>
</trkpt>
<trkpt lat="60.934788333" lon="15.220483333">
<time>2014-07-06T11:05:02Z</time>
 <fix>none</fix>
 <sat>0</sat>
</trkpt>
<trkpt lat="60.934618333" lon="15.220308333">
<time>2014-07-06T11:05:03Z</time>
 <fix>none</fix>
 <sat>0</sat>
</trkpt>
<trkpt lat="60.934618333" lon="15.220308333">
<time>2014-07-06T11:05:04Z</time>
 <fix>none</fix>
 <sat>0</sat>
</trkpt>
<trkpt lat="60.934451667" lon="15.220133333">
<time>2014-07-06T11:05:05Z</time>
 <fix>none</fix>
 <sat>0</sat>
</trkpt>
<trkpt lat="60.934451667" lon="15.220133333">
<time>2014-07-06T11:05:06Z</time>
 <fix>none</fix>
 <sat>0</sat>
</trkpt>
<trkpt lat="60.934288333" lon="15.219973333">
<time>2014-07-06T11:05:07Z</time>
 <fix>none</fix>
 <sat>0</sat>
</trkpt>
<trkpt lat="60.934288333" lon="15.219973333">
<time>2014-07-06T11:05:08Z</time>
 <fix>none</fix>
 <sat>0</sat>
</trkpt>
<trkpt lat="60.934288333" lon="15.219973333">
<time>2014-07-06T11:05:09Z</time>
 <fix>none</fix>
 <sat>0</sat>
</trkpt>
<trkpt lat="60.934138333" lon="15.219806667">
<time>2014-07-06T11:05:10Z</time>
 <fix>none</fix>
 <sat>0</sat>
</trkpt>
<trkpt lat="60.933993333" lon="15.219623333">
<time>2014-07-06T11:05:11Z</time>
 <fix>none</fix>
 <sat>0</sat>
</trkpt>
<trkpt lat="60.933993333" lon="15.219623333">
<time>2014-07-06T11:05:12Z</time>
 <fix>none</fix>
 <sat>0</sat>
</trkpt>
<trkpt lat="60.933826667" lon="15.219470000">
<time>2014-07-06T11:05:13Z</time>
 <fix>none</fix>
 <sat>0</sat>
</trkpt>
<trkpt lat="60.933826667" lon="15.219470000">
<time>2014-07-06T11:05:14Z</time>
 <fix>none</fix>
 <sat>0</sat>
</trkpt>
<trkpt lat="60.933666667" lon="15.219275000">
<time>2014-07-06T11:05:15Z</time>
 <fix>none</fix>
 <sat>0</sat>
</trkpt>
<trkpt lat="60.933601667" lon="15.219211667">
<time>2014-07-06T11:05:16Z</time>
 <fix>none</fix>
 <sat>0</sat>
</trkpt>
<trkpt lat="60.933518333" lon="15.219123333">
<time>2014-07-06T11:05:17Z</time>
 <fix>none</fix>
 <sat>0</sat>
</trkpt>
<trkpt lat="60.933438333" lon="15.219045000">
<time>2014-07-06T11:05:18Z</time>
 <fix>none</fix>
 <sat>0</sat>
</trkpt>
<trkpt lat="60.933360000" lon="15.218981667">
<time>2014-07-06T11:05:19Z</time>
 <fix>none</fix>
 <sat>0</sat>
</trkpt>
<trkpt lat="60.933276667" lon="15.218928333">
<time>2014-07-06T11:05:20Z</time>
 <fix>none</fix>
 <sat>0</sat>
</trkpt>
<trkpt lat="60.933193333" lon="15.218870000">
<time>2014-07-06T11:05:21Z</time>
 <fix>none</fix>
 <sat>0</sat>
</trkpt>
<trkpt lat="60.933111667" lon="15.218820000">
<time>2014-07-06T11:05:22Z</time>
 <fix>none</fix>
 <sat>0</sat>
</trkpt>
<trkpt lat="60.933030000" lon="15.218775000">
<time>2014-07-06T11:05:23Z</time>
 <fix>none</fix>
 <sat>0</sat>
</trkpt>
<trkpt lat="60.932950000" lon="15.218730000">
<time>2014-07-06T11:05:24Z</time>
 <fix>none</fix>
 <sat>0</sat>
</trkpt>
<trkpt lat="60.932950000" lon="15.218730000">
<time>2014-07-06T11:05:25Z</time>
 <fix>none</fix>
 <sat>0</sat>
</trkpt>
<trkpt lat="60.932873333" lon="15.218675000">
<time>2014-07-06T11:05:26Z</time>
 <fix>none</fix>
 <sat>0</sat>
</trkpt>
<trkpt lat="60.932873333" lon="15.218675000">
<time>2014-07-06T11:05:27Z</time>
 <fix>none</fix>
 <sat>0</sat>
</trkpt>
<trkpt lat="60.932660000" lon="15.218456667">
<time>2014-07-06T11:05:28Z</time>
 <fix>none</fix>
 <sat>0</sat>
</trkpt>
<trkpt lat="60.932660000" lon="15.218456667">
<time>2014-07-06T11:05:29Z</time>
 <fix>none</fix>
 <sat>0</sat>
</trkpt>
<trkpt lat="60.932535000" lon="15.218260000">
<time>2014-07-06T11:05:30Z</time>
 <fix>none</fix>
 <sat>0</sat>
</trkpt>
<trkpt lat="60.932535000" lon="15.218260000">
<time>2014-07-06T11:05:31Z</time>
 <fix>none</fix>
 <sat>0</sat>
</trkpt>
<trkpt lat="60.932535000" lon="15.218260000">
<time>2014-07-06T11:05:32Z</time>
 <fix>none</fix>
 <sat>0</sat>
</trkpt>
<trkpt lat="60.932421667" lon="15.218033333">
<time>2014-07-06T11:05:33Z</time>
 <fix>none</fix>
 <sat>0</sat>
</trkpt>
<trkpt lat="60.932320000" lon="15.217785000">
<time>2014-07-06T11:05:34Z</time>
 <fix>none</fix>
 <sat>0</sat>
</trkpt>
<trkpt lat="60.932320000" lon="15.217785000">
<time>2014-07-06T11:05:35Z</time>
 <fix>none</fix>
 <sat>0</sat>
</trkpt>
<trkpt lat="60.932218333" lon="15.217480000">
<time>2014-07-06T11:05:36Z</time>
 <fix>none</fix>
 <sat>0</sat>
</trkpt>
<trkpt lat="60.932218333" lon="15.217480000">
<time>2014-07-06T11:05:37Z</time>
 <fix>none</fix>
 <sat>0</sat>
</trkpt>
<trkpt lat="60.932310000" lon="15.217105000">
<time>2014-07-06T11:05:38Z</time>
 <fix>none</fix>
 <sat>0</sat>
</trkpt>
<trkpt lat="60.932310000" lon="15.217105000">
<time>2014-07-06T11:05:39Z</time>
 <fix>none</fix>
 <sat>0</sat>
</trkpt>
<trkpt lat="60.932148333" lon="15.216756667">
<time>2014-07-06T11:05:40Z</time>
 <fix>none</fix>
 <sat>0</sat>
</trkpt>
<trkpt lat="60.932148333" lon="15.216756667">
<time>2014-07-06T11:05:41Z</time>
 <fix>none</fix>
 <sat>0</sat>
</trkpt>
<trkpt lat="60.932066667" lon="15.216385000">
<time>2014-07-06T11:05:42Z</time>
 <fix>none</fix>
 <sat>0</sat>
</trkpt>
<trkpt lat="60.932066667" lon="15.216385000">
<time>2014-07-06T11:05:43Z</time>
 <fix>none</fix>
 <sat>0</sat>
</trkpt>
<trkpt lat="60.932025000" lon="15.216020000">
<time>2014-07-06T11:05:44Z</time>
 <fix>none</fix>
 <sat>0</sat>
</trkpt>
<trkpt lat="60.932025000" lon="15.216020000">
<time>2014-07-06T11:05:45Z</time>
 <fix>none</fix>
 <sat>0</sat>
</trkpt>
<trkpt lat="60.932066667" lon="15.215640000">
<time>2014-07-06T11:05:46Z</time>
 <fix>none</fix>
 <sat>0</sat>
</trkpt>
<trkpt lat="60.932066667" lon="15.215640000">
<time>2014-07-06T11:05:47Z</time>
 <fix>none</fix>
 <sat>0</sat>
</trkpt>
<trkpt lat="60.932100000" lon="15.215301667">
<time>2014-07-06T11:05:48Z</time>
 <fix>none</fix>
 <sat>0</sat>
</trkpt>
<trkpt lat="60.932100000" lon="15.215301667">
<time>2014-07-06T11:05:49Z</time>
 <fix>none</fix>
 <sat>0</sat>
</trkpt>
<trkpt lat="60.932110000" lon="15.214996667">
<time>2014-07-06T11:05:50Z</time>
 <fix>none</fix>
 <sat>0</sat>
</trkpt>
<trkpt lat="60.932110000" lon="15.214996667">
<time>2014-07-06T11:05:51Z</time>
 <fix>none</fix>
 <sat>0</sat>
</trkpt>
<trkpt lat="60.932073333" lon="15.214663333">
<time>2014-07-06T11:05:52Z</time>
 <fix>none</fix>
 <sat>0</sat>
</trkpt>
<trkpt lat="60.932025000" lon="15.214406667">
<time>2014-07-06T11:05:53Z</time>
 <fix>none</fix>
 <sat>0</sat>
</trkpt>
<trkpt lat="60.932025000" lon="15.214406667">
<time>2014-07-06T11:05:54Z</time>
 <fix>none</fix>
 <sat>0</sat>
</trkpt>
<trkpt lat="60.932025000" lon="15.214406667">
<time>2014-07-06T11:05:55Z</time>
 <fix>none</fix>
 <sat>0</sat>
</trkpt>
<trkpt lat="60.931928333" lon="15.214196667">
<time>2014-07-06T11:05:56Z</time>
 <fix>none</fix>
 <sat>0</sat>
</trkpt>
<trkpt lat="60.931928333" lon="15.214196667">
<time>2014-07-06T11:05:57Z</time>
 <fix>none</fix>
 <sat>0</sat>
</trkpt>
<trkpt lat="60.931845000" lon="15.213961667">
<time>2014-07-06T11:05:58Z</time>
 <fix>none</fix>
 <sat>0</sat>
</trkpt>
<trkpt lat="60.931845000" lon="15.213961667">
<time>2014-07-06T11:05:59Z</time>
 <fix>none</fix>
 <sat>0</sat>
</trkpt>
<trkpt lat="60.931673333" lon="15.213893333">
<time>2014-07-06T11:06:00Z</time>
 <fix>none</fix>
 <sat>0</sat>
</trkpt>
<trkpt lat="60.931673333" lon="15.213893333">
<time>2014-07-06T11:06:01Z</time>
 <fix>none</fix>
 <sat>0</sat>
</trkpt>
<trkpt lat="60.931526667" lon="15.213695000">
<time>2014-07-06T11:06:02Z</time>
 <fix>none</fix>
 <sat>0</sat>
</trkpt>
<trkpt lat="60.931526667" lon="15.213695000">
<time>2014-07-06T11:06:03Z</time>
 <fix>none</fix>
 <sat>0</sat>
</trkpt>
<trkpt lat="60.931388333" lon="15.213485000">
<time>2014-07-06T11:06:04Z</time>
 <fix>none</fix>
 <sat>0</sat>
</trkpt>
<trkpt lat="60.931388333" lon="15.213485000">
<time>2014-07-06T11:06:05Z</time>
 <fix>none</fix>
 <sat>0</sat>
</trkpt>
<trkpt lat="60.931258333" lon="15.213226667">
<time>2014-07-06T11:06:06Z</time>
 <fix>none</fix>
 <sat>0</sat>
</trkpt>
<trkpt lat="60.931258333" lon="15.213226667">
<time>2014-07-06T11:06:07Z</time>
 <fix>none</fix>
 <sat>0</sat>
</trkpt>
<trkpt lat="60.931133333" lon="15.213008333">
<time>2014-07-06T11:06:08Z</time>
 <fix>none</fix>
 <sat>0</sat>
</trkpt>
<trkpt lat="60.931133333" lon="15.213008333">
<time>2014-07-06T11:06:09Z</time>
 <fix>none</fix>
 <sat>0</sat>
</trkpt>
<trkpt lat="60.931011667" lon="15.212710000">
<time>2014-07-06T11:06:10Z</time>
 <fix>none</fix>
 <sat>0</sat>
</trkpt>
<trkpt lat="60.931011667" lon="15.212710000">
<time>2014-07-06T11:06:11Z</time>
 <fix>none</fix>
 <sat>0</sat>
</trkpt>
<trkpt lat="60.930911667" lon="15.212411667">
<time>2014-07-06T11:06:12Z</time>
 <fix>none</fix>
 <sat>0</sat>
</trkpt>
<trkpt lat="60.930911667" lon="15.212411667">
<time>2014-07-06T11:06:13Z</time>
 <fix>none</fix>
 <sat>0</sat>
</trkpt>
<trkpt lat="60.930780000" lon="15.212076667">
<time>2014-07-06T11:06:14Z</time>
 <fix>none</fix>
 <sat>0</sat>
</trkpt>
<trkpt lat="60.930780000" lon="15.212076667">
<time>2014-07-06T11:06:15Z</time>
 <fix>none</fix>
 <sat>0</sat>
</trkpt>
<trkpt lat="60.930686667" lon="15.211780000">
<time>2014-07-06T11:06:16Z</time>
 <fix>none</fix>
 <sat>0</sat>
</trkpt>
<trkpt lat="60.930686667" lon="15.211780000">
<time>2014-07-06T11:06:17Z</time>
 <fix>none</fix>
 <sat>0</sat>
</trkpt>
<trkpt lat="60.930613333" lon="15.211446667">
<time>2014-07-06T11:06:18Z</time>
 <fix>none</fix>
 <sat>0</sat>
</trkpt>
<trkpt lat="60.930588333" lon="15.211321667">
<time>2014-07-06T11:06:19Z</time>
 <fix>none</fix>
 <sat>0</sat>
</trkpt>
<trkpt lat="60.930596667" lon="15.211118333">
<time>2014-07-06T11:06:20Z</time>
 <fix>none</fix>
 <sat>0</sat>
</trkpt>
<trkpt lat="60.930583333" lon="15.210953333">
<time>2014-07-06T11:06:21Z</time>
 <fix>none</fix>
 <sat>0</sat>
</trkpt>
<trkpt lat="60.930561667" lon="15.210771667">
<time>2014-07-06T11:06:22Z</time>
 <fix>none</fix>
 <sat>0</sat>
</trkpt>
<trkpt lat="60.930548333" lon="15.210516667">
<time>2014-07-06T11:06:23Z</time>
 <fix>none</fix>
 <sat>0</sat>
</trkpt>
<trkpt lat="60.930505000" lon="15.210325000">
<time>2014-07-06T11:06:24Z</time>
 <fix>none</fix>
 <sat>0</sat>
</trkpt>
<trkpt lat="60.930470000" lon="15.210188333">
<time>2014-07-06T11:06:25Z</time>
 <fix>none</fix>
 <sat>0</sat>
</trkpt>
<trkpt lat="60.930410000" lon="15.210051667">
<time>2014-07-06T11:06:26Z</time>
 <fix>none</fix>
 <sat>0</sat>
</trkpt>
<trkpt lat="60.930343333" lon="15.209936667">
<time>2014-07-06T11:06:27Z</time>
 <fix>none</fix>
 <sat>0</sat>
</trkpt>
<trkpt lat="60.930288333" lon="15.209830000">
<time>2014-07-06T11:06:28Z</time>
 <fix>none</fix>
 <sat>0</sat>
</trkpt>
<trkpt lat="60.930230000" lon="15.209726667">
<time>2014-07-06T11:06:29Z</time>
 <fix>none</fix>
 <sat>0</sat>
</trkpt>
<trkpt lat="60.930170000" lon="15.209615000">
<time>2014-07-06T11:06:30Z</time>
 <fix>none</fix>
 <sat>0</sat>
</trkpt>
<trkpt lat="60.930170000" lon="15.209615000">
<time>2014-07-06T11:06:31Z</time>
 <fix>none</fix>
 <sat>0</sat>
</trkpt>
<trkpt lat="60.930170000" lon="15.209615000">
<time>2014-07-06T11:06:32Z</time>
 <fix>none</fix>
 <sat>0</sat>
</trkpt>
<trkpt lat="60.929980000" lon="15.209241667">
<time>2014-07-06T11:06:33Z</time>
 <fix>none</fix>
 <sat>0</sat>
</trkpt>
<trkpt lat="60.929980000" lon="15.209241667">
<time>2014-07-06T11:06:34Z</time>
 <fix>none</fix>
 <sat>0</sat>
</trkpt>
<trkpt lat="60.929906667" lon="15.208946667">
<time>2014-07-06T11:06:35Z</time>
 <fix>none</fix>
 <sat>0</sat>
</trkpt>
<trkpt lat="60.929906667" lon="15.208946667">
<time>2014-07-06T11:06:36Z</time>
 <fix>none</fix>
 <sat>0</sat>
</trkpt>
<trkpt lat="60.929791667" lon="15.208753333">
<time>2014-07-06T11:06:37Z</time>
 <fix>none</fix>
 <sat>0</sat>
</trkpt>
<trkpt lat="60.929791667" lon="15.208753333">
<time>2014-07-06T11:06:38Z</time>
 <fix>none</fix>
 <sat>0</sat>
</trkpt>
<trkpt lat="60.929750000" lon="15.208510000">
<time>2014-07-06T11:06:39Z</time>
 <fix>none</fix>
 <sat>0</sat>
</trkpt>
<trkpt lat="60.929750000" lon="15.208510000">
<time>2014-07-06T11:06:40Z</time>
 <fix>none</fix>
 <sat>0</sat>
</trkpt>
<trkpt lat="60.929750000" lon="15.208510000">
<time>2014-07-06T11:06:41Z</time>
 <fix>none</fix>
 <sat>0</sat>
</trkpt>
<trkpt lat="60.929751667" lon="15.208193333">
<time>2014-07-06T11:06:42Z</time>
 <fix>none</fix>
 <sat>0</sat>
</trkpt>
<trkpt lat="60.929735000" lon="15.207955000">
<time>2014-07-06T11:06:43Z</time>
 <fix>none</fix>
 <sat>0</sat>
</trkpt>
<trkpt lat="60.929735000" lon="15.207955000">
<time>2014-07-06T11:06:44Z</time>
 <fix>none</fix>
 <sat>0</sat>
</trkpt>
<trkpt lat="60.929710000" lon="15.207726667">
<time>2014-07-06T11:06:45Z</time>
 <fix>none</fix>
 <sat>0</sat>
</trkpt>
<trkpt lat="60.929710000" lon="15.207726667">
<time>2014-07-06T11:06:46Z</time>
 <fix>none</fix>
 <sat>0</sat>
</trkpt>
<trkpt lat="60.929666667" lon="15.207491667">
<time>2014-07-06T11:06:47Z</time>
 <fix>none</fix>
 <sat>0</sat>
</trkpt>
<trkpt lat="60.929666667" lon="15.207491667">
<time>2014-07-06T11:06:48Z</time>
 <fix>none</fix>
 <sat>0</sat>
</trkpt>
<trkpt lat="60.929643333" lon="15.207321667">
<time>2014-07-06T11:06:49Z</time>
 <fix>none</fix>
 <sat>0</sat>
</trkpt>
<trkpt lat="60.929643333" lon="15.207321667">
<time>2014-07-06T11:06:50Z</time>
 <fix>none</fix>
 <sat>0</sat>
</trkpt>
<trkpt lat="60.929571667" lon="15.207181667">
<time>2014-07-06T11:06:51Z</time>
 <fix>none</fix>
 <sat>0</sat>
</trkpt>
<trkpt lat="60.929571667" lon="15.207181667">
<time>2014-07-06T11:06:52Z</time>
 <fix>none</fix>
 <sat>0</sat>
</trkpt>
<trkpt lat="60.929541667" lon="15.207040000">
<time>2014-07-06T11:06:53Z</time>
 <fix>none</fix>
 <sat>0</sat>
</trkpt>
<trkpt lat="60.929541667" lon="15.207040000">
<time>2014-07-06T11:06:54Z</time>
 <fix>none</fix>
 <sat>0</sat>
</trkpt>
<trkpt lat="60.929528333" lon="15.206846667">
<time>2014-07-06T11:06:55Z</time>
 <fix>none</fix>
 <sat>0</sat>
</trkpt>
<trkpt lat="60.929528333" lon="15.206846667">
<time>2014-07-06T11:06:56Z</time>
 <fix>none</fix>
 <sat>0</sat>
</trkpt>
<trkpt lat="60.929543333" lon="15.206590000">
<time>2014-07-06T11:06:57Z</time>
 <fix>none</fix>
 <sat>0</sat>
</trkpt>
<trkpt lat="60.929543333" lon="15.206590000">
<time>2014-07-06T11:06:58Z</time>
 <fix>none</fix>
 <sat>0</sat>
</trkpt>
<trkpt lat="60.929536667" lon="15.206296667">
<time>2014-07-06T11:06:59Z</time>
 <fix>none</fix>
 <sat>0</sat>
</trkpt>
<trkpt lat="60.929536667" lon="15.206296667">
<time>2014-07-06T11:07:00Z</time>
 <fix>none</fix>
 <sat>0</sat>
</trkpt>
<trkpt lat="60.929548333" lon="15.206045000">
<time>2014-07-06T11:07:01Z</time>
 <fix>none</fix>
 <sat>0</sat>
</trkpt>
<trkpt lat="60.929548333" lon="15.206045000">
<time>2014-07-06T11:07:02Z</time>
 <fix>none</fix>
 <sat>0</sat>
</trkpt>
<trkpt lat="60.929548333" lon="15.206045000">
<time>2014-07-06T11:07:03Z</time>
 <fix>none</fix>
 <sat>0</sat>
</trkpt>
<trkpt lat="60.929551667" lon="15.205775000">
<time>2014-07-06T11:07:04Z</time>
 <fix>none</fix>
 <sat>0</sat>
</trkpt>
<trkpt lat="60.929555000" lon="15.205466667">
<time>2014-07-06T11:07:05Z</time>
 <fix>none</fix>
 <sat>0</sat>
</trkpt>
<trkpt lat="60.929555000" lon="15.205466667">
<time>2014-07-06T11:07:06Z</time>
 <fix>none</fix>
 <sat>0</sat>
</trkpt>
<trkpt lat="60.929551667" lon="15.205185000">
<time>2014-07-06T11:07:07Z</time>
 <fix>none</fix>
 <sat>0</sat>
</trkpt>
<trkpt lat="60.929551667" lon="15.205185000">
<time>2014-07-06T11:07:08Z</time>
 <fix>none</fix>
 <sat>0</sat>
</trkpt>
<trkpt lat="60.929551667" lon="15.204873333">
<time>2014-07-06T11:07:09Z</time>
 <fix>none</fix>
 <sat>0</sat>
</trkpt>
<trkpt lat="60.929551667" lon="15.204873333">
<time>2014-07-06T11:07:10Z</time>
 <fix>none</fix>
 <sat>0</sat>
</trkpt>
<trkpt lat="60.929490000" lon="15.204431667">
<time>2014-07-06T11:07:11Z</time>
 <fix>none</fix>
 <sat>0</sat>
</trkpt>
<trkpt lat="60.929490000" lon="15.204431667">
<time>2014-07-06T11:07:12Z</time>
 <fix>none</fix>
 <sat>0</sat>
</trkpt>
<trkpt lat="60.929458333" lon="15.204135000">
<time>2014-07-06T11:07:13Z</time>
 <fix>none</fix>
 <sat>0</sat>
</trkpt>
<trkpt lat="60.929458333" lon="15.204135000">
<time>2014-07-06T11:07:14Z</time>
 <fix>none</fix>
 <sat>0</sat>
</trkpt>
<trkpt lat="60.929428333" lon="15.203821667">
<time>2014-07-06T11:07:15Z</time>
 <fix>none</fix>
 <sat>0</sat>
</trkpt>
<trkpt lat="60.929428333" lon="15.203821667">
<time>2014-07-06T11:07:16Z</time>
 <fix>none</fix>
 <sat>0</sat>
</trkpt>
<trkpt lat="60.929365000" lon="15.203545000">
<time>2014-07-06T11:07:17Z</time>
 <fix>none</fix>
 <sat>0</sat>
</trkpt>
<trkpt lat="60.929365000" lon="15.203545000">
<time>2014-07-06T11:07:18Z</time>
 <fix>none</fix>
 <sat>0</sat>
</trkpt>
<trkpt lat="60.929301667" lon="15.203185000">
<time>2014-07-06T11:07:19Z</time>
 <fix>none</fix>
 <sat>0</sat>
</trkpt>
<trkpt lat="60.929301667" lon="15.203185000">
<time>2014-07-06T11:07:20Z</time>
 <fix>none</fix>
 <sat>0</sat>
</trkpt>
<trkpt lat="60.929263333" lon="15.202816667">
<time>2014-07-06T11:07:21Z</time>
 <fix>none</fix>
 <sat>0</sat>
</trkpt>
<trkpt lat="60.929263333" lon="15.202816667">
<time>2014-07-06T11:07:22Z</time>
 <fix>none</fix>
 <sat>0</sat>
</trkpt>
<trkpt lat="60.929171667" lon="15.202396667">
<time>2014-07-06T11:07:23Z</time>
 <fix>none</fix>
 <sat>0</sat>
</trkpt>
<trkpt lat="60.929171667" lon="15.202396667">
<time>2014-07-06T11:07:24Z</time>
 <fix>none</fix>
 <sat>0</sat>
</trkpt>
<trkpt lat="60.929071667" lon="15.202003333">
<time>2014-07-06T11:07:25Z</time>
 <fix>none</fix>
 <sat>0</sat>
</trkpt>
<trkpt lat="60.929071667" lon="15.202003333">
<time>2014-07-06T11:07:26Z</time>
 <fix>none</fix>
 <sat>0</sat>
</trkpt>
<trkpt lat="60.929071667" lon="15.202003333">
<time>2014-07-06T11:07:27Z</time>
 <fix>none</fix>
 <sat>0</sat>
</trkpt>
<trkpt lat="60.928991667" lon="15.201676667">
<time>2014-07-06T11:07:28Z</time>
 <fix>none</fix>
 <sat>0</sat>
</trkpt>
<trkpt lat="60.928956667" lon="15.201370000">
<time>2014-07-06T11:07:29Z</time>
 <fix>none</fix>
 <sat>0</sat>
</trkpt>
<trkpt lat="60.928956667" lon="15.201370000">
<time>2014-07-06T11:07:30Z</time>
 <fix>none</fix>
 <sat>0</sat>
</trkpt>
<trkpt lat="60.928900000" lon="15.200961667">
<time>2014-07-06T11:07:31Z</time>
 <fix>none</fix>
 <sat>0</sat>
</trkpt>
<trkpt lat="60.928900000" lon="15.200961667">
<time>2014-07-06T11:07:32Z</time>
 <fix>none</fix>
 <sat>0</sat>
</trkpt>
<trkpt lat="60.929071667" lon="15.200721667">
<time>2014-07-06T11:07:33Z</time>
 <fix>none</fix>
 <sat>0</sat>
</trkpt>
<trkpt lat="60.929071667" lon="15.200721667">
<time>2014-07-06T11:07:34Z</time>
 <fix>none</fix>
 <sat>0</sat>
</trkpt>
<trkpt lat="60.929025000" lon="15.200335000">
<time>2014-07-06T11:07:35Z</time>
 <fix>none</fix>
 <sat>0</sat>
</trkpt>
<trkpt lat="60.929025000" lon="15.200335000">
<time>2014-07-06T11:07:36Z</time>
 <fix>none</fix>
 <sat>0</sat>
</trkpt>
<trkpt lat="60.929143333" lon="15.199881667">
<time>2014-07-06T11:07:37Z</time>
 <fix>none</fix>
 <sat>0</sat>
</trkpt>
<trkpt lat="60.929143333" lon="15.199881667">
<time>2014-07-06T11:07:38Z</time>
 <fix>none</fix>
 <sat>0</sat>
</trkpt>
<trkpt lat="60.929271667" lon="15.199591667">
<time>2014-07-06T11:07:39Z</time>
 <fix>none</fix>
 <sat>0</sat>
</trkpt>
<trkpt lat="60.929271667" lon="15.199591667">
<time>2014-07-06T11:07:40Z</time>
 <fix>none</fix>
 <sat>0</sat>
</trkpt>
<trkpt lat="60.929381667" lon="15.199465000">
<time>2014-07-06T11:07:41Z</time>
 <fix>none</fix>
 <sat>0</sat>
</trkpt>
<trkpt lat="60.929411667" lon="15.199470000">
<time>2014-07-06T11:07:42Z</time>
 <fix>none</fix>
 <sat>0</sat>
</trkpt>
<trkpt lat="60.929443333" lon="15.199401667">
<time>2014-07-06T11:07:43Z</time>
 <fix>none</fix>
 <sat>0</sat>
</trkpt>
<trkpt lat="60.929476667" lon="15.199325000">
<time>2014-07-06T11:07:44Z</time>
 <fix>none</fix>
 <sat>0</sat>
</trkpt>
<trkpt lat="60.929506667" lon="15.199265000">
<time>2014-07-06T11:07:45Z</time>
 <fix>none</fix>
 <sat>0</sat>
</trkpt>
<trkpt lat="60.929531667" lon="15.199195000">
<time>2014-07-06T11:07:46Z</time>
 <fix>none</fix>
 <sat>0</sat>
</trkpt>
<trkpt lat="60.929573333" lon="15.199031667">
<time>2014-07-06T11:07:47Z</time>
 <fix>none</fix>
 <sat>0</sat>
</trkpt>
<trkpt lat="60.929573333" lon="15.199031667">
<time>2014-07-06T11:07:48Z</time>
 <fix>none</fix>
 <sat>0</sat>
</trkpt>
<trkpt lat="60.929588333" lon="15.198945000">
<time>2014-07-06T11:07:49Z</time>
 <fix>none</fix>
 <sat>0</sat>
</trkpt>
<trkpt lat="60.929595000" lon="15.198736667">
<time>2014-07-06T11:07:50Z</time>
 <fix>none</fix>
 <sat>0</sat>
</trkpt>
<trkpt lat="60.929593333" lon="15.198625000">
<time>2014-07-06T11:07:51Z</time>
 <fix>none</fix>
 <sat>0</sat>
</trkpt>
<trkpt lat="60.929586667" lon="15.198510000">
<time>2014-07-06T11:07:52Z</time>
 <fix>none</fix>
 <sat>0</sat>
</trkpt>
<trkpt lat="60.929586667" lon="15.198510000">
<time>2014-07-06T11:07:53Z</time>
 <fix>none</fix>
 <sat>0</sat>
</trkpt>
<trkpt lat="60.929586667" lon="15.198510000">
<time>2014-07-06T11:07:54Z</time>
 <fix>none</fix>
 <sat>0</sat>
</trkpt>
<trkpt lat="60.929533333" lon="15.198156667">
<time>2014-07-06T11:07:55Z</time>
 <fix>none</fix>
 <sat>0</sat>
</trkpt>
<trkpt lat="60.929533333" lon="15.198156667">
<time>2014-07-06T11:07:56Z</time>
 <fix>none</fix>
 <sat>0</sat>
</trkpt>
<trkpt lat="60.929491667" lon="15.197903333">
<time>2014-07-06T11:07:57Z</time>
 <fix>none</fix>
 <sat>0</sat>
</trkpt>
<trkpt lat="60.929491667" lon="15.197903333">
<time>2014-07-06T11:07:58Z</time>
 <fix>none</fix>
 <sat>0</sat>
</trkpt>
<trkpt lat="60.929453333" lon="15.197626667">
<time>2014-07-06T11:07:59Z</time>
 <fix>none</fix>
 <sat>0</sat>
</trkpt>
<trkpt lat="60.929453333" lon="15.197626667">
<time>2014-07-06T11:08:00Z</time>
 <fix>none</fix>
 <sat>0</sat>
</trkpt>
<trkpt lat="60.929420000" lon="15.197336667">
<time>2014-07-06T11:08:01Z</time>
 <fix>none</fix>
 <sat>0</sat>
</trkpt>
<trkpt lat="60.929420000" lon="15.197336667">
<time>2014-07-06T11:08:02Z</time>
 <fix>none</fix>
 <sat>0</sat>
</trkpt>
<trkpt lat="60.929390000" lon="15.197025000">
<time>2014-07-06T11:08:03Z</time>
 <fix>none</fix>
 <sat>0</sat>
</trkpt>
<trkpt lat="60.929390000" lon="15.197025000">
<time>2014-07-06T11:08:04Z</time>
 <fix>none</fix>
 <sat>0</sat>
</trkpt>
<trkpt lat="60.929351667" lon="15.196713333">
<time>2014-07-06T11:08:05Z</time>
 <fix>none</fix>
 <sat>0</sat>
</trkpt>
<trkpt lat="60.929351667" lon="15.196713333">
<time>2014-07-06T11:08:06Z</time>
 <fix>none</fix>
 <sat>0</sat>
</trkpt>
<trkpt lat="60.929316667" lon="15.196383333">
<time>2014-07-06T11:08:07Z</time>
 <fix>none</fix>
 <sat>0</sat>
</trkpt>
<trkpt lat="60.929316667" lon="15.196383333">
<time>2014-07-06T11:08:08Z</time>
 <fix>none</fix>
 <sat>0</sat>
</trkpt>
<trkpt lat="60.929281667" lon="15.196023333">
<time>2014-07-06T11:08:09Z</time>
 <fix>none</fix>
 <sat>0</sat>
</trkpt>
<trkpt lat="60.929281667" lon="15.196023333">
<time>2014-07-06T11:08:10Z</time>
 <fix>none</fix>
 <sat>0</sat>
</trkpt>
<trkpt lat="60.929265000" lon="15.195660000">
<time>2014-07-06T11:08:11Z</time>
 <fix>none</fix>
 <sat>0</sat>
</trkpt>
<trkpt lat="60.929265000" lon="15.195660000">
<time>2014-07-06T11:08:12Z</time>
 <fix>none</fix>
 <sat>0</sat>
</trkpt>
<trkpt lat="60.929241667" lon="15.195313333">
<time>2014-07-06T11:08:13Z</time>
 <fix>none</fix>
 <sat>0</sat>
</trkpt>
<trkpt lat="60.929241667" lon="15.195313333">
<time>2014-07-06T11:08:14Z</time>
 <fix>none</fix>
 <sat>0</sat>
</trkpt>
<trkpt lat="60.929218333" lon="15.194988333">
<time>2014-07-06T11:08:15Z</time>
 <fix>none</fix>
 <sat>0</sat>
</trkpt>
<trkpt lat="60.929218333" lon="15.194988333">
<time>2014-07-06T11:08:16Z</time>
 <fix>none</fix>
 <sat>0</sat>
</trkpt>
<trkpt lat="60.929203333" lon="15.194685000">
<time>2014-07-06T11:08:17Z</time>
 <fix>none</fix>
 <sat>0</sat>
</trkpt>
<trkpt lat="60.929203333" lon="15.194685000">
<time>2014-07-06T11:08:18Z</time>
 <fix>none</fix>
 <sat>0</sat>
</trkpt>
<trkpt lat="60.929161667" lon="15.194386667">
<time>2014-07-06T11:08:19Z</time>
 <fix>none</fix>
 <sat>0</sat>
</trkpt>
<trkpt lat="60.929161667" lon="15.194386667">
<time>2014-07-06T11:08:20Z</time>
 <fix>none</fix>
 <sat>0</sat>
</trkpt>
<trkpt lat="60.929138333" lon="15.194080000">
<time>2014-07-06T11:08:21Z</time>
 <fix>none</fix>
 <sat>0</sat>
</trkpt>
<trkpt lat="60.929138333" lon="15.194080000">
<time>2014-07-06T11:08:22Z</time>
 <fix>none</fix>
 <sat>0</sat>
</trkpt>
<trkpt lat="60.929101667" lon="15.193801667">
<time>2014-07-06T11:08:23Z</time>
 <fix>none</fix>
 <sat>0</sat>
</trkpt>
<trkpt lat="60.929101667" lon="15.193801667">
<time>2014-07-06T11:08:24Z</time>
 <fix>none</fix>
 <sat>0</sat>
</trkpt>
<trkpt lat="60.929075000" lon="15.193481667">
<time>2014-07-06T11:08:25Z</time>
 <fix>none</fix>
 <sat>0</sat>
</trkpt>
<trkpt lat="60.929075000" lon="15.193481667">
<time>2014-07-06T11:08:26Z</time>
 <fix>none</fix>
 <sat>0</sat>
</trkpt>
<trkpt lat="60.929063333" lon="15.193133333">
<time>2014-07-06T11:08:27Z</time>
 <fix>none</fix>
 <sat>0</sat>
</trkpt>
<trkpt lat="60.929063333" lon="15.193133333">
<time>2014-07-06T11:08:28Z</time>
 <fix>none</fix>
 <sat>0</sat>
</trkpt>
<trkpt lat="60.929001667" lon="15.192790000">
<time>2014-07-06T11:08:29Z</time>
 <fix>none</fix>
 <sat>0</sat>
</trkpt>
<trkpt lat="60.929001667" lon="15.192790000">
<time>2014-07-06T11:08:30Z</time>
 <fix>none</fix>
 <sat>0</sat>
</trkpt>
<trkpt lat="60.928968333" lon="15.192425000">
<time>2014-07-06T11:08:31Z</time>
 <fix>none</fix>
 <sat>0</sat>
</trkpt>
<trkpt lat="60.928963333" lon="15.192386667">
<time>2014-07-06T11:08:32Z</time>
 <fix>none</fix>
 <sat>0</sat>
</trkpt>
<trkpt lat="60.928951667" lon="15.192235000">
<time>2014-07-06T11:08:33Z</time>
 <fix>none</fix>
 <sat>0</sat>
</trkpt>
<trkpt lat="60.928921667" lon="15.192041667">
<time>2014-07-06T11:08:34Z</time>
 <fix>none</fix>
 <sat>0</sat>
</trkpt>
<trkpt lat="60.928856667" lon="15.191673333">
<time>2014-07-06T11:08:35Z</time>
 <fix>none</fix>
 <sat>0</sat>
</trkpt>
<trkpt lat="60.928816667" lon="15.191515000">
<time>2014-07-06T11:08:36Z</time>
 <fix>none</fix>
 <sat>0</sat>
</trkpt>
<trkpt lat="60.928778333" lon="15.191378333">
<time>2014-07-06T11:08:37Z</time>
 <fix>none</fix>
 <sat>0</sat>
</trkpt>
<trkpt lat="60.928731667" lon="15.191263333">
<time>2014-07-06T11:08:38Z</time>
 <fix>none</fix>
 <sat>0</sat>
</trkpt>
<trkpt lat="60.928695000" lon="15.191140000">
<time>2014-07-06T11:08:39Z</time>
 <fix>none</fix>
 <sat>0</sat>
</trkpt>
<trkpt lat="60.928658333" lon="15.191033333">
<time>2014-07-06T11:08:40Z</time>
 <fix>none</fix>
 <sat>0</sat>
</trkpt>
<trkpt lat="60.928626667" lon="15.190921667">
<time>2014-07-06T11:08:41Z</time>
 <fix>none</fix>
 <sat>0</sat>
</trkpt>
<trkpt lat="60.928601667" lon="15.190810000">
<time>2014-07-06T11:08:42Z</time>
 <fix>none</fix>
 <sat>0</sat>
</trkpt>
<trkpt lat="60.928578333" lon="15.190706667">
<time>2014-07-06T11:08:43Z</time>
 <fix>none</fix>
 <sat>0</sat>
</trkpt>
<trkpt lat="60.928558333" lon="15.190608333">
<time>2014-07-06T11:08:44Z</time>
 <fix>none</fix>
 <sat>0</sat>
</trkpt>
<trkpt lat="60.928558333" lon="15.190608333">
<time>2014-07-06T11:08:45Z</time>
 <fix>none</fix>
 <sat>0</sat>
</trkpt>
<trkpt lat="60.928558333" lon="15.190608333">
<time>2014-07-06T11:08:46Z</time>
 <fix>none</fix>
 <sat>0</sat>
</trkpt>
<trkpt lat="60.928526667" lon="15.190345000">
<time>2014-07-06T11:08:47Z</time>
 <fix>none</fix>
 <sat>0</sat>
</trkpt>
<trkpt lat="60.928526667" lon="15.190345000">
<time>2014-07-06T11:08:48Z</time>
 <fix>none</fix>
 <sat>0</sat>
</trkpt>
<trkpt lat="60.928493333" lon="15.190153333">
<time>2014-07-06T11:08:49Z</time>
 <fix>none</fix>
 <sat>0</sat>
</trkpt>
<trkpt lat="60.928493333" lon="15.190153333">
<time>2014-07-06T11:08:50Z</time>
 <fix>none</fix>
 <sat>0</sat>
</trkpt>
<trkpt lat="60.928465000" lon="15.189961667">
<time>2014-07-06T11:08:51Z</time>
 <fix>none</fix>
 <sat>0</sat>
</trkpt>
<trkpt lat="60.928465000" lon="15.189961667">
<time>2014-07-06T11:08:52Z</time>
 <fix>none</fix>
 <sat>0</sat>
</trkpt>
<trkpt lat="60.928411667" lon="15.189713333">
<time>2014-07-06T11:08:53Z</time>
 <fix>none</fix>
 <sat>0</sat>
</trkpt>
<trkpt lat="60.928411667" lon="15.189713333">
<time>2014-07-06T11:08:54Z</time>
 <fix>none</fix>
 <sat>0</sat>
</trkpt>
<trkpt lat="60.928336667" lon="15.189465000">
<time>2014-07-06T11:08:55Z</time>
 <fix>none</fix>
 <sat>0</sat>
</trkpt>
<trkpt lat="60.928336667" lon="15.189465000">
<time>2014-07-06T11:08:56Z</time>
 <fix>none</fix>
 <sat>0</sat>
</trkpt>
<trkpt lat="60.928276667" lon="15.189226667">
<time>2014-07-06T11:08:57Z</time>
 <fix>none</fix>
 <sat>0</sat>
</trkpt>
<trkpt lat="60.928276667" lon="15.189226667">
<time>2014-07-06T11:08:58Z</time>
 <fix>none</fix>
 <sat>0</sat>
</trkpt>
<trkpt lat="60.928196667" lon="15.188983333">
<time>2014-07-06T11:08:59Z</time>
 <fix>none</fix>
 <sat>0</sat>
</trkpt>
<trkpt lat="60.928160000" lon="15.188885000">
<time>2014-07-06T11:09:00Z</time>
 <fix>none</fix>
 <sat>0</sat>
</trkpt>
<trkpt lat="60.928098333" lon="15.188733333">
<time>2014-07-06T11:09:01Z</time>
 <fix>none</fix>
 <sat>0</sat>
</trkpt>
<trkpt lat="60.928045000" lon="15.188611667">
<time>2014-07-06T11:09:02Z</time>
 <fix>none</fix>
 <sat>0</sat>
</trkpt>
<trkpt lat="60.927991667" lon="15.188485000">
<time>2014-07-06T11:09:03Z</time>
 <fix>none</fix>
 <sat>0</sat>
</trkpt>
<trkpt lat="60.927946667" lon="15.188371667">
<time>2014-07-06T11:09:04Z</time>
 <fix>none</fix>
 <sat>0</sat>
</trkpt>
<trkpt lat="60.927905000" lon="15.188248333">
<time>2014-07-06T11:09:05Z</time>
 <fix>none</fix>
 <sat>0</sat>
</trkpt>
<trkpt lat="60.927870000" lon="15.188133333">
<time>2014-07-06T11:09:06Z</time>
 <fix>none</fix>
 <sat>0</sat>
</trkpt>
<trkpt lat="60.927838333" lon="15.188013333">
<time>2014-07-06T11:09:07Z</time>
 <fix>none</fix>
 <sat>0</sat>
</trkpt>
<trkpt lat="60.927808333" lon="15.187898333">
<time>2014-07-06T11:09:08Z</time>
 <fix>none</fix>
 <sat>0</sat>
</trkpt>
<trkpt lat="60.927778333" lon="15.187786667">
<time>2014-07-06T11:09:09Z</time>
 <fix>none</fix>
 <sat>0</sat>
</trkpt>
<trkpt lat="60.927756667" lon="15.187670000">
<time>2014-07-06T11:09:10Z</time>
 <fix>none</fix>
 <sat>0</sat>
</trkpt>
<trkpt lat="60.927740000" lon="15.187560000">
<time>2014-07-06T11:09:11Z</time>
 <fix>none</fix>
 <sat>0</sat>
</trkpt>
<trkpt lat="60.927740000" lon="15.187560000">
<time>2014-07-06T11:09:12Z</time>
 <fix>none</fix>
 <sat>0</sat>
</trkpt>
<trkpt lat="60.927740000" lon="15.187560000">
<time>2014-07-06T11:09:13Z</time>
 <fix>none</fix>
 <sat>0</sat>
</trkpt>
<trkpt lat="60.927671667" lon="15.187293333">
<time>2014-07-06T11:09:14Z</time>
 <fix>none</fix>
 <sat>0</sat>
</trkpt>
<trkpt lat="60.927671667" lon="15.187293333">
<time>2014-07-06T11:09:15Z</time>
 <fix>none</fix>
 <sat>0</sat>
</trkpt>
<trkpt lat="60.927575000" lon="15.187151667">
<time>2014-07-06T11:09:16Z</time>
 <fix>none</fix>
 <sat>0</sat>
</trkpt>
<trkpt lat="60.927575000" lon="15.187151667">
<time>2014-07-06T11:09:17Z</time>
 <fix>none</fix>
 <sat>0</sat>
</trkpt>
<trkpt lat="60.927548333" lon="15.187086667">
<time>2014-07-06T11:09:18Z</time>
 <fix>none</fix>
 <sat>0</sat>
</trkpt>
<trkpt lat="60.927548333" lon="15.187086667">
<time>2014-07-06T11:09:19Z</time>
 <fix>none</fix>
 <sat>0</sat>
</trkpt>
<trkpt lat="60.927548333" lon="15.187086667">
<time>2014-07-06T11:09:20Z</time>
 <fix>none</fix>
 <sat>0</sat>
</trkpt>
<trkpt lat="60.927483333" lon="15.187001667">
<time>2014-07-06T11:09:21Z</time>
 <fix>none</fix>
 <sat>0</sat>
</trkpt>
<trkpt lat="60.927370000" lon="15.187055000">
<time>2014-07-06T11:09:22Z</time>
 <fix>none</fix>
 <sat>0</sat>
</trkpt>
<trkpt lat="60.927370000" lon="15.187055000">
<time>2014-07-06T11:09:23Z</time>
 <fix>none</fix>
 <sat>0</sat>
</trkpt>
<trkpt lat="60.927255000" lon="15.187055000">
<time>2014-07-06T11:09:24Z</time>
 <fix>none</fix>
 <sat>0</sat>
</trkpt>
<trkpt lat="60.927255000" lon="15.187055000">
<time>2014-07-06T11:09:25Z</time>
 <fix>none</fix>
 <sat>0</sat>
</trkpt>
<trkpt lat="60.927171667" lon="15.186973333">
<time>2014-07-06T11:09:26Z</time>
 <fix>none</fix>
 <sat>0</sat>
</trkpt>
<trkpt lat="60.927171667" lon="15.186973333">
<time>2014-07-06T11:09:27Z</time>
 <fix>none</fix>
 <sat>0</sat>
</trkpt>
<trkpt lat="60.927081667" lon="15.186880000">
<time>2014-07-06T11:09:28Z</time>
 <fix>none</fix>
 <sat>0</sat>
</trkpt>
<trkpt lat="60.927081667" lon="15.186880000">
<time>2014-07-06T11:09:29Z</time>
 <fix>none</fix>
 <sat>0</sat>
</trkpt>
<trkpt lat="60.926973333" lon="15.186783333">
<time>2014-07-06T11:09:30Z</time>
 <fix>none</fix>
 <sat>0</sat>
</trkpt>
<trkpt lat="60.926973333" lon="15.186783333">
<time>2014-07-06T11:09:31Z</time>
 <fix>none</fix>
 <sat>0</sat>
</trkpt>
<trkpt lat="60.926891667" lon="15.186576667">
<time>2014-07-06T11:09:32Z</time>
 <fix>none</fix>
 <sat>0</sat>
</trkpt>
<trkpt lat="60.926891667" lon="15.186576667">
<time>2014-07-06T11:09:33Z</time>
 <fix>none</fix>
 <sat>0</sat>
</trkpt>
<trkpt lat="60.926725000" lon="15.186466667">
<time>2014-07-06T11:09:34Z</time>
 <fix>none</fix>
 <sat>0</sat>
</trkpt>
<trkpt lat="60.926725000" lon="15.186466667">
<time>2014-07-06T11:09:35Z</time>
 <fix>none</fix>
 <sat>0</sat>
</trkpt>
<trkpt lat="60.926588333" lon="15.186280000">
<time>2014-07-06T11:09:36Z</time>
 <fix>none</fix>
 <sat>0</sat>
</trkpt>
<trkpt lat="60.926588333" lon="15.186280000">
<time>2014-07-06T11:09:37Z</time>
 <fix>none</fix>
 <sat>0</sat>
</trkpt>
<trkpt lat="60.926460000" lon="15.186118333">
<time>2014-07-06T11:09:38Z</time>
 <fix>none</fix>
 <sat>0</sat>
</trkpt>
<trkpt lat="60.926460000" lon="15.186118333">
<time>2014-07-06T11:09:39Z</time>
 <fix>none</fix>
 <sat>0</sat>
</trkpt>
<trkpt lat="60.926421667" lon="15.185931667">
<time>2014-07-06T11:09:40Z</time>
 <fix>none</fix>
 <sat>0</sat>
</trkpt>
<trkpt lat="60.926421667" lon="15.185931667">
<time>2014-07-06T11:09:41Z</time>
 <fix>none</fix>
 <sat>0</sat>
</trkpt>
<trkpt lat="60.926336667" lon="15.185833333">
<time>2014-07-06T11:09:42Z</time>
 <fix>none</fix>
 <sat>0</sat>
</trkpt>
<trkpt lat="60.926336667" lon="15.185833333">
<time>2014-07-06T11:09:43Z</time>
 <fix>none</fix>
 <sat>0</sat>
</trkpt>
<trkpt lat="60.926336667" lon="15.185833333">
<time>2014-07-06T11:09:44Z</time>
 <fix>none</fix>
 <sat>0</sat>
</trkpt>
<trkpt lat="60.926261667" lon="15.185710000">
<time>2014-07-06T11:09:45Z</time>
 <fix>none</fix>
 <sat>0</sat>
</trkpt>
<trkpt lat="60.926190000" lon="15.185653333">
<time>2014-07-06T11:09:46Z</time>
 <fix>none</fix>
 <sat>0</sat>
</trkpt>
<trkpt lat="60.926190000" lon="15.185653333">
<time>2014-07-06T11:09:47Z</time>
 <fix>none</fix>
 <sat>0</sat>
</trkpt>
<trkpt lat="60.926126667" lon="15.185530000">
<time>2014-07-06T11:09:48Z</time>
 <fix>none</fix>
 <sat>0</sat>
</trkpt>
<trkpt lat="60.926126667" lon="15.185530000">
<time>2014-07-06T11:09:49Z</time>
 <fix>none</fix>
 <sat>0</sat>
</trkpt>
<trkpt lat="60.926043333" lon="15.185443333">
<time>2014-07-06T11:09:50Z</time>
 <fix>none</fix>
 <sat>0</sat>
</trkpt>
<trkpt lat="60.926013333" lon="15.185410000">
<time>2014-07-06T11:09:51Z</time>
 <fix>none</fix>
 <sat>0</sat>
</trkpt>
<trkpt lat="60.925985000" lon="15.185336667">
<time>2014-07-06T11:09:52Z</time>
 <fix>none</fix>
 <sat>0</sat>
</trkpt>
<trkpt lat="60.925923333" lon="15.185261667">
<time>2014-07-06T11:09:53Z</time>
 <fix>none</fix>
 <sat>0</sat>
</trkpt>
<trkpt lat="60.925861667" lon="15.185178333">
<time>2014-07-06T11:09:54Z</time>
 <fix>none</fix>
 <sat>0</sat>
</trkpt>
<trkpt lat="60.925800000" lon="15.185120000">
<time>2014-07-06T11:09:55Z</time>
 <fix>none</fix>
 <sat>0</sat>
</trkpt>
<trkpt lat="60.925741667" lon="15.185041667">
<time>2014-07-06T11:09:56Z</time>
 <fix>none</fix>
 <sat>0</sat>
</trkpt>
<trkpt lat="60.925690000" lon="15.184975000">
<time>2014-07-06T11:09:57Z</time>
 <fix>none</fix>
 <sat>0</sat>
</trkpt>
<trkpt lat="60.925690000" lon="15.184975000">
<time>2014-07-06T11:09:58Z</time>
 <fix>none</fix>
 <sat>0</sat>
</trkpt>
<trkpt lat="60.925641667" lon="15.184905000">
<time>2014-07-06T11:09:59Z</time>
 <fix>none</fix>
 <sat>0</sat>
</trkpt>
<trkpt lat="60.925590000" lon="15.184851667">
<time>2014-07-06T11:10:00Z</time>
 <fix>none</fix>
 <sat>0</sat>
</trkpt>
<trkpt lat="60.925551667" lon="15.184790000">
<time>2014-07-06T11:10:01Z</time>
 <fix>none</fix>
 <sat>0</sat>
</trkpt>
<trkpt lat="60.925510000" lon="15.184726667">
<time>2014-07-06T11:10:02Z</time>
 <fix>none</fix>
 <sat>0</sat>
</trkpt>
<trkpt lat="60.925466667" lon="15.184661667">
<time>2014-07-06T11:10:03Z</time>
 <fix>none</fix>
 <sat>0</sat>
</trkpt>
<trkpt lat="60.925425000" lon="15.184608333">
<time>2014-07-06T11:10:04Z</time>
 <fix>none</fix>
 <sat>0</sat>
</trkpt>
<trkpt lat="60.925335000" lon="15.184540000">
<time>2014-07-06T11:10:05Z</time>
 <fix>none</fix>
 <sat>0</sat>
</trkpt>
<trkpt lat="60.925283333" lon="15.184511667">
<time>2014-07-06T11:10:06Z</time>
 <fix>none</fix>
 <sat>0</sat>
</trkpt>
<trkpt lat="60.925230000" lon="15.184481667">
<time>2014-07-06T11:10:07Z</time>
 <fix>none</fix>
 <sat>0</sat>
</trkpt>
<trkpt lat="60.925230000" lon="15.184481667">
<time>2014-07-06T11:10:08Z</time>
 <fix>none</fix>
 <sat>0</sat>
</trkpt>
<trkpt lat="60.925230000" lon="15.184481667">
<time>2014-07-06T11:10:09Z</time>
 <fix>none</fix>
 <sat>0</sat>
</trkpt>
<trkpt lat="60.925071667" lon="15.184396667">
<time>2014-07-06T11:10:10Z</time>
 <fix>none</fix>
 <sat>0</sat>
</trkpt>
<trkpt lat="60.925071667" lon="15.184396667">
<time>2014-07-06T11:10:11Z</time>
 <fix>none</fix>
 <sat>0</sat>
</trkpt>
<trkpt lat="60.924970000" lon="15.184336667">
<time>2014-07-06T11:10:12Z</time>
 <fix>none</fix>
 <sat>0</sat>
</trkpt>
<trkpt lat="60.924970000" lon="15.184336667">
<time>2014-07-06T11:10:13Z</time>
 <fix>none</fix>
 <sat>0</sat>
</trkpt>
<trkpt lat="60.924858333" lon="15.184788333">
<time>2014-07-06T11:10:14Z</time>
 <fix>none</fix>
 <sat>0</sat>
</trkpt>
<trkpt lat="60.924858333" lon="15.184788333">
<time>2014-07-06T11:10:15Z</time>
 <fix>none</fix>
 <sat>0</sat>
</trkpt>
<trkpt lat="60.924755000" lon="15.184641667">
<time>2014-07-06T11:10:16Z</time>
 <fix>none</fix>
 <sat>0</sat>
</trkpt>
<trkpt lat="60.924755000" lon="15.184641667">
<time>2014-07-06T11:10:17Z</time>
 <fix>none</fix>
 <sat>0</sat>
</trkpt>
<trkpt lat="60.924711667" lon="15.184566667">
<time>2014-07-06T11:10:18Z</time>
 <fix>none</fix>
 <sat>0</sat>
</trkpt>
<trkpt lat="60.924711667" lon="15.184566667">
<time>2014-07-06T11:10:19Z</time>
 <fix>none</fix>
 <sat>0</sat>
</trkpt>
<trkpt lat="60.924666667" lon="15.184408333">
<time>2014-07-06T11:10:20Z</time>
 <fix>none</fix>
 <sat>0</sat>
</trkpt>
<trkpt lat="60.924666667" lon="15.184408333">
<time>2014-07-06T11:10:21Z</time>
 <fix>none</fix>
 <sat>0</sat>
</trkpt>
<trkpt lat="60.924595000" lon="15.184363333">
<time>2014-07-06T11:10:22Z</time>
 <fix>none</fix>
 <sat>0</sat>
</trkpt>
<trkpt lat="60.924595000" lon="15.184363333">
<time>2014-07-06T11:10:23Z</time>
 <fix>none</fix>
 <sat>0</sat>
</trkpt>
<trkpt lat="60.924533333" lon="15.184233333">
<time>2014-07-06T11:10:24Z</time>
 <fix>none</fix>
 <sat>0</sat>
</trkpt>
<trkpt lat="60.924533333" lon="15.184233333">
<time>2014-07-06T11:10:25Z</time>
 <fix>none</fix>
 <sat>0</sat>
</trkpt>
<trkpt lat="60.924415000" lon="15.184151667">
<time>2014-07-06T11:10:26Z</time>
 <fix>none</fix>
 <sat>0</sat>
</trkpt>
<trkpt lat="60.924415000" lon="15.184151667">
<time>2014-07-06T11:10:27Z</time>
 <fix>none</fix>
 <sat>0</sat>
</trkpt>
<trkpt lat="60.924386667" lon="15.184128333">
<time>2014-07-06T11:10:28Z</time>
 <fix>none</fix>
 <sat>0</sat>
</trkpt>
<trkpt lat="60.924386667" lon="15.184128333">
<time>2014-07-06T11:10:29Z</time>
 <fix>none</fix>
 <sat>0</sat>
</trkpt>
<trkpt lat="60.924288333" lon="15.184150000">
<time>2014-07-06T11:10:30Z</time>
 <fix>none</fix>
 <sat>0</sat>
</trkpt>
<trkpt lat="60.924288333" lon="15.184150000">
<time>2014-07-06T11:10:31Z</time>
 <fix>none</fix>
 <sat>0</sat>
</trkpt>
<trkpt lat="60.924098333" lon="15.183943333">
<time>2014-07-06T11:10:32Z</time>
 <fix>none</fix>
 <sat>0</sat>
</trkpt>
<trkpt lat="60.924098333" lon="15.183943333">
<time>2014-07-06T11:10:33Z</time>
 <fix>none</fix>
 <sat>0</sat>
</trkpt>
<trkpt lat="60.923990000" lon="15.184116667">
<time>2014-07-06T11:10:34Z</time>
 <fix>none</fix>
 <sat>0</sat>
</trkpt>
<trkpt lat="60.923950000" lon="15.184135000">
<time>2014-07-06T11:10:35Z</time>
 <fix>none</fix>
 <sat>0</sat>
</trkpt>
<trkpt lat="60.923900000" lon="15.184156667">
<time>2014-07-06T11:10:36Z</time>
 <fix>none</fix>
 <sat>0</sat>
</trkpt>
<trkpt lat="60.923876667" lon="15.184201667">
<time>2014-07-06T11:10:37Z</time>
 <fix>none</fix>
 <sat>0</sat>
</trkpt>
<trkpt lat="60.923818333" lon="15.184273333">
<time>2014-07-06T11:10:38Z</time>
 <fix>none</fix>
 <sat>0</sat>
</trkpt>
<trkpt lat="60.923781667" lon="15.184291667">
<time>2014-07-06T11:10:39Z</time>
 <fix>none</fix>
 <sat>0</sat>
</trkpt>
<trkpt lat="60.923748333" lon="15.184325000">
<time>2014-07-06T11:10:40Z</time>
 <fix>none</fix>
 <sat>0</sat>
</trkpt>
<trkpt lat="60.923715000" lon="15.184356667">
<time>2014-07-06T11:10:41Z</time>
 <fix>none</fix>
 <sat>0</sat>
</trkpt>
<trkpt lat="60.923673333" lon="15.184385000">
<time>2014-07-06T11:10:42Z</time>
 <fix>none</fix>
 <sat>0</sat>
</trkpt>
<trkpt lat="60.923625000" lon="15.184400000">
<time>2014-07-06T11:10:43Z</time>
 <fix>none</fix>
 <sat>0</sat>
</trkpt>
<trkpt lat="60.923625000" lon="15.184400000">
<time>2014-07-06T11:10:44Z</time>
 <fix>none</fix>
 <sat>0</sat>
</trkpt>
<trkpt lat="60.923585000" lon="15.184405000">
<time>2014-07-06T11:10:45Z</time>
 <fix>none</fix>
 <sat>0</sat>
</trkpt>
<trkpt lat="60.923531667" lon="15.184418333">
<time>2014-07-06T11:10:46Z</time>
 <fix>none</fix>
 <sat>0</sat>
</trkpt>
<trkpt lat="60.923483333" lon="15.184433333">
<time>2014-07-06T11:10:47Z</time>
 <fix>none</fix>
 <sat>0</sat>
</trkpt>
<trkpt lat="60.923433333" lon="15.184460000">
<time>2014-07-06T11:10:48Z</time>
 <fix>none</fix>
 <sat>0</sat>
</trkpt>
<trkpt lat="60.923393333" lon="15.184475000">
<time>2014-07-06T11:10:49Z</time>
 <fix>none</fix>
 <sat>0</sat>
</trkpt>
<trkpt lat="60.923346667" lon="15.184478333">
<time>2014-07-06T11:10:50Z</time>
 <fix>none</fix>
 <sat>0</sat>
</trkpt>
<trkpt lat="60.923290000" lon="15.184490000">
<time>2014-07-06T11:10:51Z</time>
 <fix>none</fix>
 <sat>0</sat>
</trkpt>
<trkpt lat="60.923228333" lon="15.184511667">
<time>2014-07-06T11:10:52Z</time>
 <fix>none</fix>
 <sat>0</sat>
</trkpt>
<trkpt lat="60.923210000" lon="15.184556667">
<time>2014-07-06T11:10:53Z</time>
 <fix>none</fix>
 <sat>0</sat>
</trkpt>
<trkpt lat="60.923200000" lon="15.184633333">
<time>2014-07-06T11:10:54Z</time>
 <fix>none</fix>
 <sat>0</sat>
</trkpt>
<trkpt lat="60.923195000" lon="15.184698333">
<time>2014-07-06T11:10:55Z</time>
 <fix>none</fix>
 <sat>0</sat>
</trkpt>
<trkpt lat="60.923196667" lon="15.184771667">
<time>2014-07-06T11:10:56Z</time>
 <fix>none</fix>
 <sat>0</sat>
</trkpt>
<trkpt lat="60.923183333" lon="15.184841667">
<time>2014-07-06T11:10:57Z</time>
 <fix>none</fix>
 <sat>0</sat>
</trkpt>
<trkpt lat="60.923163333" lon="15.184901667">
<time>2014-07-06T11:10:58Z</time>
 <fix>none</fix>
 <sat>0</sat>
</trkpt>
<trkpt lat="60.923146667" lon="15.184951667">
<time>2014-07-06T11:10:59Z</time>
 <fix>none</fix>
 <sat>0</sat>
</trkpt>
<trkpt lat="60.923128333" lon="15.185003333">
<time>2014-07-06T11:11:00Z</time>
 <fix>none</fix>
 <sat>0</sat>
</trkpt>
<trkpt lat="60.923098333" lon="15.185055000">
<time>2014-07-06T11:11:01Z</time>
 <fix>none</fix>
 <sat>0</sat>
</trkpt>
<trkpt lat="60.923070000" lon="15.185115000">
<time>2014-07-06T11:11:02Z</time>
 <fix>none</fix>
 <sat>0</sat>
</trkpt>
<trkpt lat="60.923038333" lon="15.185170000">
<time>2014-07-06T11:11:03Z</time>
 <fix>none</fix>
 <sat>0</sat>
</trkpt>
<trkpt lat="60.922998333" lon="15.185216667">
<time>2014-07-06T11:11:04Z</time>
 <fix>none</fix>
 <sat>0</sat>
</trkpt>
<trkpt lat="60.922953333" lon="15.185260000">
<time>2014-07-06T11:11:05Z</time>
 <fix>none</fix>
 <sat>0</sat>
</trkpt>
<trkpt lat="60.922908333" lon="15.185303333">
<time>2014-07-06T11:11:06Z</time>
 <fix>none</fix>
 <sat>0</sat>
</trkpt>
<trkpt lat="60.922908333" lon="15.185303333">
<time>2014-07-06T11:11:07Z</time>
 <fix>none</fix>
 <sat>0</sat>
</trkpt>
<trkpt lat="60.922873333" lon="15.185331667">
<time>2014-07-06T11:11:08Z</time>
 <fix>none</fix>
 <sat>0</sat>
</trkpt>
<trkpt lat="60.922828333" lon="15.185348333">
<time>2014-07-06T11:11:09Z</time>
 <fix>none</fix>
 <sat>0</sat>
</trkpt>
<trkpt lat="60.922790000" lon="15.185361667">
<time>2014-07-06T11:11:10Z</time>
 <fix>none</fix>
 <sat>0</sat>
</trkpt>
<trkpt lat="60.922750000" lon="15.185393333">
<time>2014-07-06T11:11:11Z</time>
 <fix>none</fix>
 <sat>0</sat>
</trkpt>
<trkpt lat="60.922711667" lon="15.185433333">
<time>2014-07-06T11:11:12Z</time>
 <fix>none</fix>
 <sat>0</sat>
</trkpt>
<trkpt lat="60.922618333" lon="15.185581667">
<time>2014-07-06T11:11:13Z</time>
 <fix>none</fix>
 <sat>0</sat>
</trkpt>
<trkpt lat="60.922618333" lon="15.185581667">
<time>2014-07-06T11:11:14Z</time>
 <fix>none</fix>
 <sat>0</sat>
</trkpt>
<trkpt lat="60.922563333" lon="15.185786667">
<time>2014-07-06T11:11:15Z</time>
 <fix>none</fix>
 <sat>0</sat>
</trkpt>
<trkpt lat="60.922546667" lon="15.185900000">
<time>2014-07-06T11:11:16Z</time>
 <fix>none</fix>
 <sat>0</sat>
</trkpt>
<trkpt lat="60.922538333" lon="15.186015000">
<time>2014-07-06T11:11:17Z</time>
 <fix>none</fix>
 <sat>0</sat>
</trkpt>
<trkpt lat="60.922528333" lon="15.186133333">
<time>2014-07-06T11:11:18Z</time>
 <fix>none</fix>
 <sat>0</sat>
</trkpt>
<trkpt lat="60.922515000" lon="15.186258333">
<time>2014-07-06T11:11:19Z</time>
 <fix>none</fix>
 <sat>0</sat>
</trkpt>
<trkpt lat="60.922506667" lon="15.186378333">
<time>2014-07-06T11:11:20Z</time>
 <fix>none</fix>
 <sat>0</sat>
</trkpt>
<trkpt lat="60.922485000" lon="15.186480000">
<time>2014-07-06T11:11:21Z</time>
 <fix>none</fix>
 <sat>0</sat>
</trkpt>
<trkpt lat="60.922471667" lon="15.186596667">
<time>2014-07-06T11:11:22Z</time>
 <fix>none</fix>
 <sat>0</sat>
</trkpt>
<trkpt lat="60.922460000" lon="15.186715000">
<time>2014-07-06T11:11:23Z</time>
 <fix>none</fix>
 <sat>0</sat>
</trkpt>
<trkpt lat="60.922443333" lon="15.186833333">
<time>2014-07-06T11:11:24Z</time>
 <fix>none</fix>
 <sat>0</sat>
</trkpt>
<trkpt lat="60.922426667" lon="15.186948333">
<time>2014-07-06T11:11:25Z</time>
 <fix>none</fix>
 <sat>0</sat>
</trkpt>
<trkpt lat="60.922396667" lon="15.187070000">
<time>2014-07-06T11:11:26Z</time>
 <fix>none</fix>
 <sat>0</sat>
</trkpt>
<trkpt lat="60.922373333" lon="15.187186667">
<time>2014-07-06T11:11:27Z</time>
 <fix>none</fix>
 <sat>0</sat>
</trkpt>
<trkpt lat="60.922345000" lon="15.187311667">
<time>2014-07-06T11:11:28Z</time>
 <fix>none</fix>
 <sat>0</sat>
</trkpt>
<trkpt lat="60.922345000" lon="15.187311667">
<time>2014-07-06T11:11:29Z</time>
 <fix>none</fix>
 <sat>0</sat>
</trkpt>
<trkpt lat="60.922306667" lon="15.187438333">
<time>2014-07-06T11:11:30Z</time>
 <fix>none</fix>
 <sat>0</sat>
</trkpt>
<trkpt lat="60.922266667" lon="15.187560000">
<time>2014-07-06T11:11:31Z</time>
 <fix>none</fix>
 <sat>0</sat>
</trkpt>
<trkpt lat="60.922223333" lon="15.187671667">
<time>2014-07-06T11:11:32Z</time>
 <fix>none</fix>
 <sat>0</sat>
</trkpt>
<trkpt lat="60.922176667" lon="15.187781667">
<time>2014-07-06T11:11:33Z</time>
 <fix>none</fix>
 <sat>0</sat>
</trkpt>
<trkpt lat="60.922118333" lon="15.187891667">
<time>2014-07-06T11:11:34Z</time>
 <fix>none</fix>
 <sat>0</sat>
</trkpt>
<trkpt lat="60.922055000" lon="15.187995000">
<time>2014-07-06T11:11:35Z</time>
 <fix>none</fix>
 <sat>0</sat>
</trkpt>
<trkpt lat="60.921875000" lon="15.188063333">
<time>2014-07-06T11:11:36Z</time>
 <fix>none</fix>
 <sat>0</sat>
</trkpt>
<trkpt lat="60.921875000" lon="15.188063333">
<time>2014-07-06T11:11:37Z</time>
 <fix>none</fix>
 <sat>0</sat>
</trkpt>
<trkpt lat="60.921711667" lon="15.188065000">
<time>2014-07-06T11:11:38Z</time>
 <fix>none</fix>
 <sat>0</sat>
</trkpt>
<trkpt lat="60.921635000" lon="15.188070000">
<time>2014-07-06T11:11:39Z</time>
 <fix>none</fix>
 <sat>0</sat>
</trkpt>
<trkpt lat="60.921566667" lon="15.188073333">
<time>2014-07-06T11:11:40Z</time>
 <fix>none</fix>
 <sat>0</sat>
</trkpt>
<trkpt lat="60.921491667" lon="15.188090000">
<time>2014-07-06T11:11:41Z</time>
 <fix>none</fix>
 <sat>0</sat>
</trkpt>
<trkpt lat="60.921418333" lon="15.188115000">
<time>2014-07-06T11:11:42Z</time>
 <fix>none</fix>
 <sat>0</sat>
</trkpt>
<trkpt lat="60.921348333" lon="15.188143333">
<time>2014-07-06T11:11:43Z</time>
 <fix>none</fix>
 <sat>0</sat>
</trkpt>
<trkpt lat="60.921348333" lon="15.188143333">
<time>2014-07-06T11:11:44Z</time>
 <fix>none</fix>
 <sat>0</sat>
</trkpt>
<trkpt lat="60.921348333" lon="15.188143333">
<time>2014-07-06T11:11:45Z</time>
 <fix>none</fix>
 <sat>0</sat>
</trkpt>
<trkpt lat="60.921111667" lon="15.188260000">
<time>2014-07-06T11:11:46Z</time>
 <fix>none</fix>
 <sat>0</sat>
</trkpt>
<trkpt lat="60.921111667" lon="15.188260000">
<time>2014-07-06T11:11:47Z</time>
 <fix>none</fix>
 <sat>0</sat>
</trkpt>
<trkpt lat="60.920990000" lon="15.188325000">
<time>2014-07-06T11:11:48Z</time>
 <fix>none</fix>
 <sat>0</sat>
</trkpt>
<trkpt lat="60.920945000" lon="15.188331667">
<time>2014-07-06T11:11:49Z</time>
 <fix>none</fix>
 <sat>0</sat>
</trkpt>
<trkpt lat="60.920816667" lon="15.188370000">
<time>2014-07-06T11:11:50Z</time>
 <fix>none</fix>
 <sat>0</sat>
</trkpt>
<trkpt lat="60.920775000" lon="15.188313333">
<time>2014-07-06T11:11:51Z</time>
 <fix>none</fix>
 <sat>0</sat>
</trkpt>
<trkpt lat="60.920775000" lon="15.188313333">
<time>2014-07-06T11:11:52Z</time>
 <fix>none</fix>
 <sat>0</sat>
</trkpt>
<trkpt lat="60.920738333" lon="15.188240000">
<time>2014-07-06T11:11:53Z</time>
 <fix>none</fix>
 <sat>0</sat>
</trkpt>
<trkpt lat="60.920706667" lon="15.188148333">
<time>2014-07-06T11:11:54Z</time>
 <fix>none</fix>
 <sat>0</sat>
</trkpt>
<trkpt lat="60.920681667" lon="15.188035000">
<time>2014-07-06T11:11:55Z</time>
 <fix>none</fix>
 <sat>0</sat>
</trkpt>
<trkpt lat="60.920673333" lon="15.187896667">
<time>2014-07-06T11:11:56Z</time>
 <fix>none</fix>
 <sat>0</sat>
</trkpt>
<trkpt lat="60.920656667" lon="15.187770000">
<time>2014-07-06T11:11:57Z</time>
 <fix>none</fix>
 <sat>0</sat>
</trkpt>
<trkpt lat="60.920626667" lon="15.187650000">
<time>2014-07-06T11:11:58Z</time>
 <fix>none</fix>
 <sat>0</sat>
</trkpt>
<trkpt lat="60.920593333" lon="15.187531667">
<time>2014-07-06T11:11:59Z</time>
 <fix>none</fix>
 <sat>0</sat>
</trkpt>
<trkpt lat="60.920560000" lon="15.187421667">
<time>2014-07-06T11:12:00Z</time>
 <fix>none</fix>
 <sat>0</sat>
</trkpt>
<trkpt lat="60.920560000" lon="15.187421667">
<time>2014-07-06T11:12:01Z</time>
 <fix>none</fix>
 <sat>0</sat>
</trkpt>
<trkpt lat="60.920458333" lon="15.187125000">
<time>2014-07-06T11:12:02Z</time>
 <fix>none</fix>
 <sat>0</sat>
</trkpt>
<trkpt lat="60.920458333" lon="15.187125000">
<time>2014-07-06T11:12:03Z</time>
 <fix>none</fix>
 <sat>0</sat>
</trkpt>
<trkpt lat="60.920378333" lon="15.186956667">
<time>2014-07-06T11:12:04Z</time>
 <fix>none</fix>
 <sat>0</sat>
</trkpt>
<trkpt lat="60.920378333" lon="15.186956667">
<time>2014-07-06T11:12:05Z</time>
 <fix>none</fix>
 <sat>0</sat>
</trkpt>
<trkpt lat="60.920301667" lon="15.186746667">
<time>2014-07-06T11:12:06Z</time>
 <fix>none</fix>
 <sat>0</sat>
</trkpt>
<trkpt lat="60.920301667" lon="15.186746667">
<time>2014-07-06T11:12:07Z</time>
 <fix>none</fix>
 <sat>0</sat>
</trkpt>
<trkpt lat="60.920008333" lon="15.186635000">
<time>2014-07-06T11:12:08Z</time>
 <fix>none</fix>
 <sat>0</sat>
</trkpt>
<trkpt lat="60.920016667" lon="15.186585000">
<time>2014-07-06T11:12:09Z</time>
 <fix>none</fix>
 <sat>0</sat>
</trkpt>
<trkpt lat="60.920046667" lon="15.186550000">
<time>2014-07-06T11:12:10Z</time>
 <fix>none</fix>
 <sat>0</sat>
</trkpt>
<trkpt lat="60.919986667" lon="15.186523333">
<time>2014-07-06T11:12:11Z</time>
 <fix>none</fix>
 <sat>0</sat>
</trkpt>
<trkpt lat="60.919930000" lon="15.186480000">
<time>2014-07-06T11:12:12Z</time>
 <fix>none</fix>
 <sat>0</sat>
</trkpt>
<trkpt lat="60.919876667" lon="15.186450000">
<time>2014-07-06T11:12:13Z</time>
 <fix>none</fix>
 <sat>0</sat>
</trkpt>
<trkpt lat="60.919816667" lon="15.186426667">
<time>2014-07-06T11:12:14Z</time>
 <fix>none</fix>
 <sat>0</sat>
</trkpt>
<trkpt lat="60.919816667" lon="15.186426667">
<time>2014-07-06T11:12:15Z</time>
 <fix>none</fix>
 <sat>0</sat>
</trkpt>
<trkpt lat="60.919758333" lon="15.186401667">
<time>2014-07-06T11:12:16Z</time>
 <fix>none</fix>
 <sat>0</sat>
</trkpt>
<trkpt lat="60.919705000" lon="15.186400000">
<time>2014-07-06T11:12:17Z</time>
 <fix>none</fix>
 <sat>0</sat>
</trkpt>
<trkpt lat="60.919641667" lon="15.186420000">
<time>2014-07-06T11:12:18Z</time>
 <fix>none</fix>
 <sat>0</sat>
</trkpt>
<trkpt lat="60.919581667" lon="15.186435000">
<time>2014-07-06T11:12:19Z</time>
 <fix>none</fix>
 <sat>0</sat>
</trkpt>
<trkpt lat="60.919521667" lon="15.186453333">
<time>2014-07-06T11:12:20Z</time>
 <fix>none</fix>
 <sat>0</sat>
</trkpt>
<trkpt lat="60.919463333" lon="15.186466667">
<time>2014-07-06T11:12:21Z</time>
 <fix>none</fix>
 <sat>0</sat>
</trkpt>
<trkpt lat="60.919406667" lon="15.186466667">
<time>2014-07-06T11:12:22Z</time>
 <fix>none</fix>
 <sat>0</sat>
</trkpt>
<trkpt lat="60.919348333" lon="15.186450000">
<time>2014-07-06T11:12:23Z</time>
 <fix>none</fix>
 <sat>0</sat>
</trkpt>
<trkpt lat="60.919186667" lon="15.186345000">
<time>2014-07-06T11:12:24Z</time>
 <fix>none</fix>
 <sat>0</sat>
</trkpt>
<trkpt lat="60.919113333" lon="15.186273333">
<time>2014-07-06T11:12:25Z</time>
 <fix>none</fix>
 <sat>0</sat>
</trkpt>
<trkpt lat="60.919055000" lon="15.186196667">
<time>2014-07-06T11:12:26Z</time>
 <fix>none</fix>
 <sat>0</sat>
</trkpt>
<trkpt lat="60.918996667" lon="15.186123333">
<time>2014-07-06T11:12:27Z</time>
 <fix>none</fix>
 <sat>0</sat>
</trkpt>
<trkpt lat="60.918925000" lon="15.186075000">
<time>2014-07-06T11:12:28Z</time>
 <fix>none</fix>
 <sat>0</sat>
</trkpt>
<trkpt lat="60.918855000" lon="15.186035000">
<time>2014-07-06T11:12:29Z</time>
 <fix>none</fix>
 <sat>0</sat>
</trkpt>
<trkpt lat="60.918766667" lon="15.186021667">
<time>2014-07-06T11:12:30Z</time>
 <fix>none</fix>
 <sat>0</sat>
</trkpt>
<trkpt lat="60.918671667" lon="15.186013333">
<time>2014-07-06T11:12:31Z</time>
 <fix>none</fix>
 <sat>0</sat>
</trkpt>
<trkpt lat="60.918588333" lon="15.185998333">
<time>2014-07-06T11:12:32Z</time>
 <fix>none</fix>
 <sat>0</sat>
</trkpt>
<trkpt lat="60.918516667" lon="15.185961667">
<time>2014-07-06T11:12:33Z</time>
 <fix>none</fix>
 <sat>0</sat>
</trkpt>
<trkpt lat="60.918440000" lon="15.185931667">
<time>2014-07-06T11:12:34Z</time>
 <fix>none</fix>
 <sat>0</sat>
</trkpt>
<trkpt lat="60.918361667" lon="15.185921667">
<time>2014-07-06T11:12:35Z</time>
 <fix>none</fix>
 <sat>0</sat>
</trkpt>
<trkpt lat="60.918290000" lon="15.185920000">
<time>2014-07-06T11:12:36Z</time>
 <fix>none</fix>
 <sat>0</sat>
</trkpt>
<trkpt lat="60.918216667" lon="15.185908333">
<time>2014-07-06T11:12:37Z</time>
 <fix>none</fix>
 <sat>0</sat>
</trkpt>
<trkpt lat="60.918216667" lon="15.185908333">
<time>2014-07-06T11:12:38Z</time>
 <fix>none</fix>
 <sat>0</sat>
</trkpt>
<trkpt lat="60.918146667" lon="15.185906667">
<time>2014-07-06T11:12:39Z</time>
 <fix>none</fix>
 <sat>0</sat>
</trkpt>
<trkpt lat="60.918080000" lon="15.185906667">
<time>2014-07-06T11:12:40Z</time>
 <fix>none</fix>
 <sat>0</sat>
</trkpt>
<trkpt lat="60.918020000" lon="15.185925000">
<time>2014-07-06T11:12:41Z</time>
 <fix>none</fix>
 <sat>0</sat>
</trkpt>
<trkpt lat="60.917956667" lon="15.185953333">
<time>2014-07-06T11:12:42Z</time>
 <fix>none</fix>
 <sat>0</sat>
</trkpt>
<trkpt lat="60.917876667" lon="15.185995000">
<time>2014-07-06T11:12:43Z</time>
 <fix>none</fix>
 <sat>0</sat>
</trkpt>
<trkpt lat="60.917718333" lon="15.186108333">
<time>2014-07-06T11:12:44Z</time>
 <fix>none</fix>
 <sat>0</sat>
</trkpt>
<trkpt lat="60.917718333" lon="15.186108333">
<time>2014-07-06T11:12:45Z</time>
 <fix>none</fix>
 <sat>0</sat>
</trkpt>
<trkpt lat="60.917615000" lon="15.186226667">
<time>2014-07-06T11:12:46Z</time>
 <fix>none</fix>
 <sat>0</sat>
</trkpt>
<trkpt lat="60.917573333" lon="15.186301667">
<time>2014-07-06T11:12:47Z</time>
 <fix>none</fix>
 <sat>0</sat>
</trkpt>
<trkpt lat="60.917523333" lon="15.186363333">
<time>2014-07-06T11:12:48Z</time>
 <fix>none</fix>
 <sat>0</sat>
</trkpt>
<trkpt lat="60.917475000" lon="15.186418333">
<time>2014-07-06T11:12:49Z</time>
 <fix>none</fix>
 <sat>0</sat>
</trkpt>
<trkpt lat="60.917415000" lon="15.186478333">
<time>2014-07-06T11:12:50Z</time>
 <fix>none</fix>
 <sat>0</sat>
</trkpt>
<trkpt lat="60.917356667" lon="15.186556667">
<time>2014-07-06T11:12:51Z</time>
 <fix>none</fix>
 <sat>0</sat>
</trkpt>
<trkpt lat="60.917296667" lon="15.186646667">
<time>2014-07-06T11:12:52Z</time>
 <fix>none</fix>
 <sat>0</sat>
</trkpt>
<trkpt lat="60.917201667" lon="15.186706667">
<time>2014-07-06T11:12:53Z</time>
 <fix>none</fix>
 <sat>0</sat>
</trkpt>
<trkpt lat="60.917111667" lon="15.186728333">
<time>2014-07-06T11:12:54Z</time>
 <fix>none</fix>
 <sat>0</sat>
</trkpt>
<trkpt lat="60.917011667" lon="15.186796667">
<time>2014-07-06T11:12:55Z</time>
 <fix>none</fix>
 <sat>0</sat>
</trkpt>
<trkpt lat="60.916935000" lon="15.186836667">
<time>2014-07-06T11:12:56Z</time>
 <fix>none</fix>
 <sat>0</sat>
</trkpt>
<trkpt lat="60.916883333" lon="15.186836667">
<time>2014-07-06T11:12:57Z</time>
 <fix>none</fix>
 <sat>0</sat>
</trkpt>
<trkpt lat="60.916840000" lon="15.186880000">
<time>2014-07-06T11:12:58Z</time>
 <fix>none</fix>
 <sat>0</sat>
</trkpt>
<trkpt lat="60.916788333" lon="15.186950000">
<time>2014-07-06T11:12:59Z</time>
 <fix>none</fix>
 <sat>0</sat>
</trkpt>
<trkpt lat="60.916745000" lon="15.187010000">
<time>2014-07-06T11:13:00Z</time>
 <fix>none</fix>
 <sat>0</sat>
</trkpt>
<trkpt lat="60.916745000" lon="15.187010000">
<time>2014-07-06T11:13:01Z</time>
 <fix>none</fix>
 <sat>0</sat>
</trkpt>
<trkpt lat="60.916715000" lon="15.187101667">
<time>2014-07-06T11:13:02Z</time>
 <fix>none</fix>
 <sat>0</sat>
</trkpt>
<trkpt lat="60.916676667" lon="15.187190000">
<time>2014-07-06T11:13:03Z</time>
 <fix>none</fix>
 <sat>0</sat>
</trkpt>
<trkpt lat="60.916638333" lon="15.187290000">
<time>2014-07-06T11:13:04Z</time>
 <fix>none</fix>
 <sat>0</sat>
</trkpt>
<trkpt lat="60.916610000" lon="15.187378333">
<time>2014-07-06T11:13:05Z</time>
 <fix>none</fix>
 <sat>0</sat>
</trkpt>
<trkpt lat="60.916565000" lon="15.187595000">
<time>2014-07-06T11:13:06Z</time>
 <fix>none</fix>
 <sat>0</sat>
</trkpt>
<trkpt lat="60.916565000" lon="15.187595000">
<time>2014-07-06T11:13:07Z</time>
 <fix>none</fix>
 <sat>0</sat>
</trkpt>
<trkpt lat="60.916556667" lon="15.187685000">
<time>2014-07-06T11:13:08Z</time>
 <fix>none</fix>
 <sat>0</sat>
</trkpt>
<trkpt lat="60.916511667" lon="15.187915000">
<time>2014-07-06T11:13:09Z</time>
 <fix>none</fix>
 <sat>0</sat>
</trkpt>
<trkpt lat="60.916501667" lon="15.188016667">
<time>2014-07-06T11:13:10Z</time>
 <fix>none</fix>
 <sat>0</sat>
</trkpt>
<trkpt lat="60.916483333" lon="15.188108333">
<time>2014-07-06T11:13:11Z</time>
 <fix>none</fix>
 <sat>0</sat>
</trkpt>
<trkpt lat="60.916468333" lon="15.188186667">
<time>2014-07-06T11:13:12Z</time>
 <fix>none</fix>
 <sat>0</sat>
</trkpt>
<trkpt lat="60.916458333" lon="15.188260000">
<time>2014-07-06T11:13:13Z</time>
 <fix>none</fix>
 <sat>0</sat>
</trkpt>
<trkpt lat="60.916461667" lon="15.188331667">
<time>2014-07-06T11:13:14Z</time>
 <fix>none</fix>
 <sat>0</sat>
</trkpt>
<trkpt lat="60.916463333" lon="15.188391667">
<time>2014-07-06T11:13:15Z</time>
 <fix>none</fix>
 <sat>0</sat>
</trkpt>
<trkpt lat="60.916463333" lon="15.188391667">
<time>2014-07-06T11:13:16Z</time>
 <fix>none</fix>
 <sat>0</sat>
</trkpt>
<trkpt lat="60.916456667" lon="15.188513333">
<time>2014-07-06T11:13:17Z</time>
 <fix>none</fix>
 <sat>0</sat>
</trkpt>
<trkpt lat="60.916465000" lon="15.188571667">
<time>2014-07-06T11:13:18Z</time>
 <fix>none</fix>
 <sat>0</sat>
</trkpt>
<trkpt lat="60.916465000" lon="15.188635000">
<time>2014-07-06T11:13:19Z</time>
 <fix>none</fix>
 <sat>0</sat>
</trkpt>
<trkpt lat="60.916466667" lon="15.188690000">
<time>2014-07-06T11:13:20Z</time>
 <fix>none</fix>
 <sat>0</sat>
</trkpt>
<trkpt lat="60.916465000" lon="15.188748333">
<time>2014-07-06T11:13:21Z</time>
 <fix>none</fix>
 <sat>0</sat>
</trkpt>
<trkpt lat="60.916460000" lon="15.188795000">
<time>2014-07-06T11:13:22Z</time>
 <fix>none</fix>
 <sat>0</sat>
</trkpt>
<trkpt lat="60.916460000" lon="15.188795000">
<time>2014-07-06T11:13:23Z</time>
 <fix>none</fix>
 <sat>0</sat>
</trkpt>
<trkpt lat="60.916453333" lon="15.188838333">
<time>2014-07-06T11:13:24Z</time>
 <fix>none</fix>
 <sat>0</sat>
</trkpt>
<trkpt lat="60.916446667" lon="15.188893333">
<time>2014-07-06T11:13:25Z</time>
 <fix>none</fix>
 <sat>0</sat>
</trkpt>
<trkpt lat="60.916441667" lon="15.188956667">
<time>2014-07-06T11:13:26Z</time>
 <fix>none</fix>
 <sat>0</sat>
</trkpt>
<trkpt lat="60.916428333" lon="15.189030000">
<time>2014-07-06T11:13:27Z</time>
 <fix>none</fix>
 <sat>0</sat>
</trkpt>
<trkpt lat="60.916420000" lon="15.189106667">
<time>2014-07-06T11:13:28Z</time>
 <fix>none</fix>
 <sat>0</sat>
</trkpt>
<trkpt lat="60.916411667" lon="15.189181667">
<time>2014-07-06T11:13:29Z</time>
 <fix>none</fix>
 <sat>0</sat>
</trkpt>
<trkpt lat="60.916415000" lon="15.189250000">
<time>2014-07-06T11:13:30Z</time>
 <fix>none</fix>
 <sat>0</sat>
</trkpt>
<trkpt lat="60.916415000" lon="15.189321667">
<time>2014-07-06T11:13:31Z</time>
 <fix>none</fix>
 <sat>0</sat>
</trkpt>
<trkpt lat="60.916418333" lon="15.189476667">
<time>2014-07-06T11:13:32Z</time>
 <fix>none</fix>
 <sat>0</sat>
</trkpt>
<trkpt lat="60.916421667" lon="15.189565000">
<time>2014-07-06T11:13:33Z</time>
 <fix>none</fix>
 <sat>0</sat>
</trkpt>
<trkpt lat="60.916423333" lon="15.189656667">
<time>2014-07-06T11:13:34Z</time>
 <fix>none</fix>
 <sat>0</sat>
</trkpt>
<trkpt lat="60.916431667" lon="15.189748333">
<time>2014-07-06T11:13:35Z</time>
 <fix>none</fix>
 <sat>0</sat>
</trkpt>
<trkpt lat="60.916455000" lon="15.189831667">
<time>2014-07-06T11:13:36Z</time>
 <fix>none</fix>
 <sat>0</sat>
</trkpt>
<trkpt lat="60.916470000" lon="15.189925000">
<time>2014-07-06T11:13:37Z</time>
 <fix>none</fix>
 <sat>0</sat>
</trkpt>
<trkpt lat="60.916476667" lon="15.190035000">
<time>2014-07-06T11:13:38Z</time>
 <fix>none</fix>
 <sat>0</sat>
</trkpt>
<trkpt lat="60.916490000" lon="15.190135000">
<time>2014-07-06T11:13:39Z</time>
 <fix>none</fix>
 <sat>0</sat>
</trkpt>
<trkpt lat="60.916506667" lon="15.190238333">
<time>2014-07-06T11:13:40Z</time>
 <fix>none</fix>
 <sat>0</sat>
</trkpt>
<trkpt lat="60.916521667" lon="15.190343333">
<time>2014-07-06T11:13:41Z</time>
 <fix>none</fix>
 <sat>0</sat>
</trkpt>
<trkpt lat="60.916535000" lon="15.190445000">
<time>2014-07-06T11:13:42Z</time>
 <fix>none</fix>
 <sat>0</sat>
</trkpt>
<trkpt lat="60.916543333" lon="15.190550000">
<time>2014-07-06T11:13:43Z</time>
 <fix>none</fix>
 <sat>0</sat>
</trkpt>
<trkpt lat="60.916551667" lon="15.190663333">
<time>2014-07-06T11:13:44Z</time>
 <fix>none</fix>
 <sat>0</sat>
</trkpt>
<trkpt lat="60.916556667" lon="15.190776667">
<time>2014-07-06T11:13:45Z</time>
 <fix>none</fix>
 <sat>0</sat>
</trkpt>
<trkpt lat="60.916556667" lon="15.190776667">
<time>2014-07-06T11:13:46Z</time>
 <fix>none</fix>
 <sat>0</sat>
</trkpt>
<trkpt lat="60.916561667" lon="15.190881667">
<time>2014-07-06T11:13:47Z</time>
 <fix>none</fix>
 <sat>0</sat>
</trkpt>
<trkpt lat="60.916565000" lon="15.190983333">
<time>2014-07-06T11:13:48Z</time>
 <fix>none</fix>
 <sat>0</sat>
</trkpt>
<trkpt lat="60.916578333" lon="15.191078333">
<time>2014-07-06T11:13:49Z</time>
 <fix>none</fix>
 <sat>0</sat>
</trkpt>
<trkpt lat="60.916591667" lon="15.191180000">
<time>2014-07-06T11:13:50Z</time>
 <fix>none</fix>
 <sat>0</sat>
</trkpt>
<trkpt lat="60.916603333" lon="15.191286667">
<time>2014-07-06T11:13:51Z</time>
 <fix>none</fix>
 <sat>0</sat>
</trkpt>
<trkpt lat="60.916621667" lon="15.191513333">
<time>2014-07-06T11:13:52Z</time>
 <fix>none</fix>
 <sat>0</sat>
</trkpt>
<trkpt lat="60.916621667" lon="15.191513333">
<time>2014-07-06T11:13:53Z</time>
 <fix>none</fix>
 <sat>0</sat>
</trkpt>
<trkpt lat="60.916648333" lon="15.191745000">
<time>2014-07-06T11:13:54Z</time>
 <fix>none</fix>
 <sat>0</sat>
</trkpt>
<trkpt lat="60.916650000" lon="15.191855000">
<time>2014-07-06T11:13:55Z</time>
 <fix>none</fix>
 <sat>0</sat>
</trkpt>
<trkpt lat="60.916641667" lon="15.191965000">
<time>2014-07-06T11:13:56Z</time>
 <fix>none</fix>
 <sat>0</sat>
</trkpt>
<trkpt lat="60.916603333" lon="15.192055000">
<time>2014-07-06T11:13:57Z</time>
 <fix>none</fix>
 <sat>0</sat>
</trkpt>
<trkpt lat="60.916530000" lon="15.192113333">
<time>2014-07-06T11:13:58Z</time>
 <fix>none</fix>
 <sat>0</sat>
</trkpt>
<trkpt lat="60.916503333" lon="15.192168333">
<time>2014-07-06T11:13:59Z</time>
 <fix>none</fix>
 <sat>0</sat>
</trkpt>
<trkpt lat="60.916481667" lon="15.192231667">
<time>2014-07-06T11:14:00Z</time>
 <fix>none</fix>
 <sat>0</sat>
</trkpt>
<trkpt lat="60.916473333" lon="15.192320000">
<time>2014-07-06T11:14:01Z</time>
 <fix>none</fix>
 <sat>0</sat>
</trkpt>
<trkpt lat="60.916496667" lon="15.192431667">
<time>2014-07-06T11:14:02Z</time>
 <fix>none</fix>
 <sat>0</sat>
</trkpt>
<trkpt lat="60.916471667" lon="15.192550000">
<time>2014-07-06T11:14:03Z</time>
 <fix>none</fix>
 <sat>0</sat>
</trkpt>
<trkpt lat="60.916456667" lon="15.192686667">
<time>2014-07-06T11:14:04Z</time>
 <fix>none</fix>
 <sat>0</sat>
</trkpt>
<trkpt lat="60.916431667" lon="15.192803333">
<time>2014-07-06T11:14:05Z</time>
 <fix>none</fix>
 <sat>0</sat>
</trkpt>
<trkpt lat="60.916373333" lon="15.192896667">
<time>2014-07-06T11:14:06Z</time>
 <fix>none</fix>
 <sat>0</sat>
</trkpt>
<trkpt lat="60.916266667" lon="15.192871667">
<time>2014-07-06T11:14:07Z</time>
 <fix>none</fix>
 <sat>0</sat>
</trkpt>
<trkpt lat="60.916205000" lon="15.192873333">
<time>2014-07-06T11:14:08Z</time>
 <fix>none</fix>
 <sat>0</sat>
</trkpt>
<trkpt lat="60.916205000" lon="15.192873333">
<time>2014-07-06T11:14:09Z</time>
 <fix>none</fix>
 <sat>0</sat>
</trkpt>
<trkpt lat="60.916146667" lon="15.192850000">
<time>2014-07-06T11:14:10Z</time>
 <fix>none</fix>
 <sat>0</sat>
</trkpt>
<trkpt lat="60.916081667" lon="15.192788333">
<time>2014-07-06T11:14:11Z</time>
 <fix>none</fix>
 <sat>0</sat>
</trkpt>
<trkpt lat="60.916025000" lon="15.192705000">
<time>2014-07-06T11:14:12Z</time>
 <fix>none</fix>
 <sat>0</sat>
</trkpt>
<trkpt lat="60.915993333" lon="15.192618333">
<time>2014-07-06T11:14:13Z</time>
 <fix>none</fix>
 <sat>0</sat>
</trkpt>
<trkpt lat="60.915951667" lon="15.192536667">
<time>2014-07-06T11:14:14Z</time>
 <fix>none</fix>
 <sat>0</sat>
</trkpt>
<trkpt lat="60.915870000" lon="15.192386667">
<time>2014-07-06T11:14:15Z</time>
 <fix>none</fix>
 <sat>0</sat>
</trkpt>
<trkpt lat="60.915826667" lon="15.192300000">
<time>2014-07-06T11:14:16Z</time>
 <fix>none</fix>
 <sat>0</sat>
</trkpt>
<trkpt lat="60.915778333" lon="15.192215000">
<time>2014-07-06T11:14:17Z</time>
 <fix>none</fix>
 <sat>0</sat>
</trkpt>
<trkpt lat="60.915778333" lon="15.192215000">
<time>2014-07-06T11:14:18Z</time>
 <fix>none</fix>
 <sat>0</sat>
</trkpt>
<trkpt lat="60.915778333" lon="15.192215000">
<time>2014-07-06T11:14:19Z</time>
 <fix>none</fix>
 <sat>0</sat>
</trkpt>
<trkpt lat="60.915628333" lon="15.191976667">
<time>2014-07-06T11:14:20Z</time>
 <fix>none</fix>
 <sat>0</sat>
</trkpt>
<trkpt lat="60.915628333" lon="15.191976667">
<time>2014-07-06T11:14:21Z</time>
 <fix>none</fix>
 <sat>0</sat>
</trkpt>
<trkpt lat="60.915528333" lon="15.191825000">
<time>2014-07-06T11:14:22Z</time>
 <fix>none</fix>
 <sat>0</sat>
</trkpt>
<trkpt lat="60.915528333" lon="15.191825000">
<time>2014-07-06T11:14:23Z</time>
 <fix>none</fix>
 <sat>0</sat>
</trkpt>
<trkpt lat="60.915425000" lon="15.191660000">
<time>2014-07-06T11:14:24Z</time>
 <fix>none</fix>
 <sat>0</sat>
</trkpt>
<trkpt lat="60.915425000" lon="15.191660000">
<time>2014-07-06T11:14:25Z</time>
 <fix>none</fix>
 <sat>0</sat>
</trkpt>
<trkpt lat="60.915291667" lon="15.191543333">
<time>2014-07-06T11:14:26Z</time>
 <fix>none</fix>
 <sat>0</sat>
</trkpt>
<trkpt lat="60.915228333" lon="15.191510000">
<time>2014-07-06T11:14:27Z</time>
 <fix>none</fix>
 <sat>0</sat>
</trkpt>
<trkpt lat="60.915121667" lon="15.191491667">
<time>2014-07-06T11:14:28Z</time>
 <fix>none</fix>
 <sat>0</sat>
</trkpt>
<trkpt lat="60.915003333" lon="15.191503333">
<time>2014-07-06T11:14:29Z</time>
 <fix>none</fix>
 <sat>0</sat>
</trkpt>
<trkpt lat="60.914913333" lon="15.191480000">
<time>2014-07-06T11:14:30Z</time>
 <fix>none</fix>
 <sat>0</sat>
</trkpt>
<trkpt lat="60.914843333" lon="15.191421667">
<time>2014-07-06T11:14:31Z</time>
 <fix>none</fix>
 <sat>0</sat>
</trkpt>
<trkpt lat="60.914843333" lon="15.191421667">
<time>2014-07-06T11:14:32Z</time>
 <fix>none</fix>
 <sat>0</sat>
</trkpt>
<trkpt lat="60.914781667" lon="15.191360000">
<time>2014-07-06T11:14:33Z</time>
 <fix>none</fix>
 <sat>0</sat>
</trkpt>
<trkpt lat="60.914718333" lon="15.191295000">
<time>2014-07-06T11:14:34Z</time>
 <fix>none</fix>
 <sat>0</sat>
</trkpt>
<trkpt lat="60.914653333" lon="15.191228333">
<time>2014-07-06T11:14:35Z</time>
 <fix>none</fix>
 <sat>0</sat>
</trkpt>
<trkpt lat="60.914600000" lon="15.191148333">
<time>2014-07-06T11:14:36Z</time>
 <fix>none</fix>
 <sat>0</sat>
</trkpt>
<trkpt lat="60.914550000" lon="15.191073333">
<time>2014-07-06T11:14:37Z</time>
 <fix>none</fix>
 <sat>0</sat>
</trkpt>
<trkpt lat="60.914491667" lon="15.191006667">
<time>2014-07-06T11:14:38Z</time>
 <fix>none</fix>
 <sat>0</sat>
</trkpt>
<trkpt lat="60.914368333" lon="15.190886667">
<time>2014-07-06T11:14:39Z</time>
 <fix>none</fix>
 <sat>0</sat>
</trkpt>
<trkpt lat="60.914301667" lon="15.190826667">
<time>2014-07-06T11:14:40Z</time>
 <fix>none</fix>
 <sat>0</sat>
</trkpt>
<trkpt lat="60.914226667" lon="15.190768333">
<time>2014-07-06T11:14:41Z</time>
 <fix>none</fix>
 <sat>0</sat>
</trkpt>
<trkpt lat="60.914156667" lon="15.190656667">
<time>2014-07-06T11:14:42Z</time>
 <fix>none</fix>
 <sat>0</sat>
</trkpt>
<trkpt lat="60.914068333" lon="15.190595000">
<time>2014-07-06T11:14:43Z</time>
 <fix>none</fix>
 <sat>0</sat>
</trkpt>
<trkpt lat="60.913996667" lon="15.190608333">
<time>2014-07-06T11:14:44Z</time>
 <fix>none</fix>
 <sat>0</sat>
</trkpt>
<trkpt lat="60.913901667" lon="15.190568333">
<time>2014-07-06T11:14:45Z</time>
 <fix>none</fix>
 <sat>0</sat>
</trkpt>
<trkpt lat="60.913798333" lon="15.190515000">
<time>2014-07-06T11:14:46Z</time>
 <fix>none</fix>
 <sat>0</sat>
</trkpt>
<trkpt lat="60.913691667" lon="15.190450000">
<time>2014-07-06T11:14:47Z</time>
 <fix>none</fix>
 <sat>0</sat>
</trkpt>
<trkpt lat="60.913585000" lon="15.190403333">
<time>2014-07-06T11:14:48Z</time>
 <fix>none</fix>
 <sat>0</sat>
</trkpt>
<trkpt lat="60.913478333" lon="15.190345000">
<time>2014-07-06T11:14:49Z</time>
 <fix>none</fix>
 <sat>0</sat>
</trkpt>
<trkpt lat="60.913381667" lon="15.190283333">
<time>2014-07-06T11:14:50Z</time>
 <fix>none</fix>
 <sat>0</sat>
</trkpt>
<trkpt lat="60.913381667" lon="15.190283333">
<time>2014-07-06T11:14:51Z</time>
 <fix>none</fix>
 <sat>0</sat>
</trkpt>
<trkpt lat="60.913381667" lon="15.190283333">
<time>2014-07-06T11:14:52Z</time>
 <fix>none</fix>
 <sat>0</sat>
</trkpt>
<trkpt lat="60.913156667" lon="15.190113333">
<time>2014-07-06T11:14:53Z</time>
 <fix>none</fix>
 <sat>0</sat>
</trkpt>
<trkpt lat="60.913156667" lon="15.190113333">
<time>2014-07-06T11:14:54Z</time>
 <fix>none</fix>
 <sat>0</sat>
</trkpt>
<trkpt lat="60.913055000" lon="15.190005000">
<time>2014-07-06T11:14:55Z</time>
 <fix>none</fix>
 <sat>0</sat>
</trkpt>
<trkpt lat="60.913066667" lon="15.189995000">
<time>2014-07-06T11:14:56Z</time>
 <fix>none</fix>
 <sat>0</sat>
</trkpt>
<trkpt lat="60.913066667" lon="15.189960000">
<time>2014-07-06T11:14:57Z</time>
 <fix>none</fix>
 <sat>0</sat>
</trkpt>
<trkpt lat="60.913103333" lon="15.189960000">
<time>2014-07-06T11:14:58Z</time>
 <fix>none</fix>
 <sat>0</sat>
</trkpt>
<trkpt lat="60.913091667" lon="15.189933333">
<time>2014-07-06T11:14:59Z</time>
 <fix>none</fix>
 <sat>0</sat>
</trkpt>
<trkpt lat="60.913061667" lon="15.189893333">
<time>2014-07-06T11:15:00Z</time>
 <fix>none</fix>
 <sat>0</sat>
</trkpt>
<trkpt lat="60.913043333" lon="15.189836667">
<time>2014-07-06T11:15:01Z</time>
 <fix>none</fix>
 <sat>0</sat>
</trkpt>
<trkpt lat="60.913008333" lon="15.189690000">
<time>2014-07-06T11:15:02Z</time>
 <fix>none</fix>
 <sat>0</sat>
</trkpt>
<trkpt lat="60.912998333" lon="15.189615000">
<time>2014-07-06T11:15:03Z</time>
 <fix>none</fix>
 <sat>0</sat>
</trkpt>
<trkpt lat="60.912983333" lon="15.189543333">
<time>2014-07-06T11:15:04Z</time>
 <fix>none</fix>
 <sat>0</sat>
</trkpt>
<trkpt lat="60.912963333" lon="15.189480000">
<time>2014-07-06T11:15:05Z</time>
 <fix>none</fix>
 <sat>0</sat>
</trkpt>
<trkpt lat="60.912963333" lon="15.189480000">
<time>2014-07-06T11:15:06Z</time>
 <fix>none</fix>
 <sat>0</sat>
</trkpt>
<trkpt lat="60.912963333" lon="15.189480000">
<time>2014-07-06T11:15:07Z</time>
 <fix>none</fix>
 <sat>0</sat>
</trkpt>
<trkpt lat="60.912905000" lon="15.189330000">
<time>2014-07-06T11:15:08Z</time>
 <fix>none</fix>
 <sat>0</sat>
</trkpt>
<trkpt lat="60.912905000" lon="15.189330000">
<time>2014-07-06T11:15:09Z</time>
 <fix>none</fix>
 <sat>0</sat>
</trkpt>
<trkpt lat="60.912860000" lon="15.189246667">
<time>2014-07-06T11:15:10Z</time>
 <fix>none</fix>
 <sat>0</sat>
</trkpt>
<trkpt lat="60.912860000" lon="15.189246667">
<time>2014-07-06T11:15:11Z</time>
 <fix>none</fix>
 <sat>0</sat>
</trkpt>
<trkpt lat="60.912818333" lon="15.189150000">
<time>2014-07-06T11:15:12Z</time>
 <fix>none</fix>
 <sat>0</sat>
</trkpt>
<trkpt lat="60.912818333" lon="15.189150000">
<time>2014-07-06T11:15:13Z</time>
 <fix>none</fix>
 <sat>0</sat>
</trkpt>
<trkpt lat="60.912756667" lon="15.189041667">
<time>2014-07-06T11:15:14Z</time>
 <fix>none</fix>
 <sat>0</sat>
</trkpt>
<trkpt lat="60.912756667" lon="15.189041667">
<time>2014-07-06T11:15:15Z</time>
 <fix>none</fix>
 <sat>0</sat>
</trkpt>
<trkpt lat="60.912743333" lon="15.188903333">
<time>2014-07-06T11:15:16Z</time>
 <fix>none</fix>
 <sat>0</sat>
</trkpt>
<trkpt lat="60.912743333" lon="15.188903333">
<time>2014-07-06T11:15:17Z</time>
 <fix>none</fix>
 <sat>0</sat>
</trkpt>
<trkpt lat="60.912721667" lon="15.188780000">
<time>2014-07-06T11:15:18Z</time>
 <fix>none</fix>
 <sat>0</sat>
</trkpt>
<trkpt lat="60.912721667" lon="15.188780000">
<time>2014-07-06T11:15:19Z</time>
 <fix>none</fix>
 <sat>0</sat>
</trkpt>
<trkpt lat="60.912691667" lon="15.188681667">
<time>2014-07-06T11:15:20Z</time>
 <fix>none</fix>
 <sat>0</sat>
</trkpt>
<trkpt lat="60.912691667" lon="15.188681667">
<time>2014-07-06T11:15:21Z</time>
 <fix>none</fix>
 <sat>0</sat>
</trkpt>
<trkpt lat="60.912663333" lon="15.188573333">
<time>2014-07-06T11:15:22Z</time>
 <fix>none</fix>
 <sat>0</sat>
</trkpt>
<trkpt lat="60.912663333" lon="15.188573333">
<time>2014-07-06T11:15:23Z</time>
 <fix>none</fix>
 <sat>0</sat>
</trkpt>
<trkpt lat="60.912611667" lon="15.188471667">
<time>2014-07-06T11:15:24Z</time>
 <fix>none</fix>
 <sat>0</sat>
</trkpt>
<trkpt lat="60.912611667" lon="15.188471667">
<time>2014-07-06T11:15:25Z</time>
 <fix>none</fix>
 <sat>0</sat>
</trkpt>
<trkpt lat="60.912566667" lon="15.188360000">
<time>2014-07-06T11:15:26Z</time>
 <fix>none</fix>
 <sat>0</sat>
</trkpt>
<trkpt lat="60.912566667" lon="15.188360000">
<time>2014-07-06T11:15:27Z</time>
 <fix>none</fix>
 <sat>0</sat>
</trkpt>
<trkpt lat="60.912505000" lon="15.188255000">
<time>2014-07-06T11:15:28Z</time>
 <fix>none</fix>
 <sat>0</sat>
</trkpt>
<trkpt lat="60.912505000" lon="15.188255000">
<time>2014-07-06T11:15:29Z</time>
 <fix>none</fix>
 <sat>0</sat>
</trkpt>
<trkpt lat="60.912478333" lon="15.188166667">
<time>2014-07-06T11:15:30Z</time>
 <fix>none</fix>
 <sat>0</sat>
</trkpt>
<trkpt lat="60.912478333" lon="15.188166667">
<time>2014-07-06T11:15:31Z</time>
 <fix>none</fix>
 <sat>0</sat>
</trkpt>
<trkpt lat="60.912438333" lon="15.188071667">
<time>2014-07-06T11:15:32Z</time>
 <fix>none</fix>
 <sat>0</sat>
</trkpt>
<trkpt lat="60.912438333" lon="15.188071667">
<time>2014-07-06T11:15:33Z</time>
 <fix>none</fix>
 <sat>0</sat>
</trkpt>
<trkpt lat="60.912423333" lon="15.187948333">
<time>2014-07-06T11:15:34Z</time>
 <fix>none</fix>
 <sat>0</sat>
</trkpt>
<trkpt lat="60.912423333" lon="15.187948333">
<time>2014-07-06T11:15:35Z</time>
 <fix>none</fix>
 <sat>0</sat>
</trkpt>
<trkpt lat="60.912363333" lon="15.187873333">
<time>2014-07-06T11:15:36Z</time>
 <fix>none</fix>
 <sat>0</sat>
</trkpt>
<trkpt lat="60.912363333" lon="15.187873333">
<time>2014-07-06T11:15:37Z</time>
 <fix>none</fix>
 <sat>0</sat>
</trkpt>
<trkpt lat="60.912333333" lon="15.187793333">
<time>2014-07-06T11:15:38Z</time>
 <fix>none</fix>
 <sat>0</sat>
</trkpt>
<trkpt lat="60.912333333" lon="15.187793333">
<time>2014-07-06T11:15:39Z</time>
 <fix>none</fix>
 <sat>0</sat>
</trkpt>
<trkpt lat="60.912286667" lon="15.187718333">
<time>2014-07-06T11:15:40Z</time>
 <fix>none</fix>
 <sat>0</sat>
</trkpt>
<trkpt lat="60.912286667" lon="15.187718333">
<time>2014-07-06T11:15:41Z</time>
 <fix>none</fix>
 <sat>0</sat>
</trkpt>
<trkpt lat="60.912258333" lon="15.187615000">
<time>2014-07-06T11:15:42Z</time>
 <fix>none</fix>
 <sat>0</sat>
</trkpt>
<trkpt lat="60.912258333" lon="15.187615000">
<time>2014-07-06T11:15:43Z</time>
 <fix>none</fix>
 <sat>0</sat>
</trkpt>
<trkpt lat="60.912218333" lon="15.187475000">
<time>2014-07-06T11:15:44Z</time>
 <fix>none</fix>
 <sat>0</sat>
</trkpt>
<trkpt lat="60.912218333" lon="15.187475000">
<time>2014-07-06T11:15:45Z</time>
 <fix>none</fix>
 <sat>0</sat>
</trkpt>
<trkpt lat="60.912173333" lon="15.187310000">
<time>2014-07-06T11:15:46Z</time>
 <fix>none</fix>
 <sat>0</sat>
</trkpt>
<trkpt lat="60.912173333" lon="15.187310000">
<time>2014-07-06T11:15:47Z</time>
 <fix>none</fix>
 <sat>0</sat>
</trkpt>
<trkpt lat="60.912110000" lon="15.187166667">
<time>2014-07-06T11:15:48Z</time>
 <fix>none</fix>
 <sat>0</sat>
</trkpt>
<trkpt lat="60.912110000" lon="15.187166667">
<time>2014-07-06T11:15:49Z</time>
 <fix>none</fix>
 <sat>0</sat>
</trkpt>
<trkpt lat="60.912015000" lon="15.187035000">
<time>2014-07-06T11:15:50Z</time>
 <fix>none</fix>
 <sat>0</sat>
</trkpt>
<trkpt lat="60.912015000" lon="15.187035000">
<time>2014-07-06T11:15:51Z</time>
 <fix>none</fix>
 <sat>0</sat>
</trkpt>
<trkpt lat="60.911893333" lon="15.186926667">
<time>2014-07-06T11:15:52Z</time>
 <fix>none</fix>
 <sat>0</sat>
</trkpt>
<trkpt lat="60.911893333" lon="15.186926667">
<time>2014-07-06T11:15:53Z</time>
 <fix>none</fix>
 <sat>0</sat>
</trkpt>
<trkpt lat="60.911771667" lon="15.186800000">
<time>2014-07-06T11:15:54Z</time>
 <fix>none</fix>
 <sat>0</sat>
</trkpt>
<trkpt lat="60.911771667" lon="15.186800000">
<time>2014-07-06T11:15:55Z</time>
 <fix>none</fix>
 <sat>0</sat>
</trkpt>
<trkpt lat="60.911673333" lon="15.186650000">
<time>2014-07-06T11:15:56Z</time>
 <fix>none</fix>
 <sat>0</sat>
</trkpt>
<trkpt lat="60.911673333" lon="15.186650000">
<time>2014-07-06T11:15:57Z</time>
 <fix>none</fix>
 <sat>0</sat>
</trkpt>
<trkpt lat="60.911571667" lon="15.186511667">
<time>2014-07-06T11:15:58Z</time>
 <fix>none</fix>
 <sat>0</sat>
</trkpt>
<trkpt lat="60.911571667" lon="15.186511667">
<time>2014-07-06T11:15:59Z</time>
 <fix>none</fix>
 <sat>0</sat>
</trkpt>
<trkpt lat="60.911471667" lon="15.186358333">
<time>2014-07-06T11:16:00Z</time>
 <fix>none</fix>
 <sat>0</sat>
</trkpt>
<trkpt lat="60.911471667" lon="15.186358333">
<time>2014-07-06T11:16:01Z</time>
 <fix>none</fix>
 <sat>0</sat>
</trkpt>
<trkpt lat="60.911356667" lon="15.186243333">
<time>2014-07-06T11:16:02Z</time>
 <fix>none</fix>
 <sat>0</sat>
</trkpt>
<trkpt lat="60.911356667" lon="15.186243333">
<time>2014-07-06T11:16:03Z</time>
 <fix>none</fix>
 <sat>0</sat>
</trkpt>
<trkpt lat="60.911258333" lon="15.186081667">
<time>2014-07-06T11:16:04Z</time>
 <fix>none</fix>
 <sat>0</sat>
</trkpt>
<trkpt lat="60.911258333" lon="15.186081667">
<time>2014-07-06T11:16:05Z</time>
 <fix>none</fix>
 <sat>0</sat>
</trkpt>
<trkpt lat="60.911281667" lon="15.185926667">
<time>2014-07-06T11:16:06Z</time>
 <fix>none</fix>
 <sat>0</sat>
</trkpt>
<trkpt lat="60.911281667" lon="15.185926667">
<time>2014-07-06T11:16:07Z</time>
 <fix>none</fix>
 <sat>0</sat>
</trkpt>
<trkpt lat="60.911318333" lon="15.185681667">
<time>2014-07-06T11:16:08Z</time>
 <fix>none</fix>
 <sat>0</sat>
</trkpt>
<trkpt lat="60.911318333" lon="15.185681667">
<time>2014-07-06T11:16:09Z</time>
 <fix>none</fix>
 <sat>0</sat>
</trkpt>
<trkpt lat="60.911318333" lon="15.185681667">
<time>2014-07-06T11:16:10Z</time>
 <fix>none</fix>
 <sat>0</sat>
</trkpt>
<trkpt lat="60.911230000" lon="15.185511667">
<time>2014-07-06T11:16:11Z</time>
 <fix>none</fix>
 <sat>0</sat>
</trkpt>
<trkpt lat="60.911288333" lon="15.185330000">
<time>2014-07-06T11:16:12Z</time>
 <fix>none</fix>
 <sat>0</sat>
</trkpt>
<trkpt lat="60.911288333" lon="15.185330000">
<time>2014-07-06T11:16:13Z</time>
 <fix>none</fix>
 <sat>0</sat>
</trkpt>
<trkpt lat="60.911470000" lon="15.185085000">
<time>2014-07-06T11:16:14Z</time>
 <fix>none</fix>
 <sat>0</sat>
</trkpt>
<trkpt lat="60.911470000" lon="15.185085000">
<time>2014-07-06T11:16:15Z</time>
 <fix>none</fix>
 <sat>0</sat>
</trkpt>
<trkpt lat="60.911585000" lon="15.184871667">
<time>2014-07-06T11:16:16Z</time>
 <fix>none</fix>
 <sat>0</sat>
</trkpt>
<trkpt lat="60.911585000" lon="15.184871667">
<time>2014-07-06T11:16:17Z</time>
 <fix>none</fix>
 <sat>0</sat>
</trkpt>
<trkpt lat="60.911621667" lon="15.184660000">
<time>2014-07-06T11:16:18Z</time>
 <fix>none</fix>
 <sat>0</sat>
</trkpt>
<trkpt lat="60.911621667" lon="15.184660000">
<time>2014-07-06T11:16:19Z</time>
 <fix>none</fix>
 <sat>0</sat>
</trkpt>
<trkpt lat="60.911715000" lon="15.184448333">
<time>2014-07-06T11:16:20Z</time>
 <fix>none</fix>
 <sat>0</sat>
</trkpt>
<trkpt lat="60.911715000" lon="15.184448333">
<time>2014-07-06T11:16:21Z</time>
 <fix>none</fix>
 <sat>0</sat>
</trkpt>
<trkpt lat="60.911811667" lon="15.184218333">
<time>2014-07-06T11:16:22Z</time>
 <fix>none</fix>
 <sat>0</sat>
</trkpt>
<trkpt lat="60.911811667" lon="15.184218333">
<time>2014-07-06T11:16:23Z</time>
 <fix>none</fix>
 <sat>0</sat>
</trkpt>
<trkpt lat="60.911951667" lon="15.183913333">
<time>2014-07-06T11:16:24Z</time>
 <fix>none</fix>
 <sat>0</sat>
</trkpt>
<trkpt lat="60.911951667" lon="15.183913333">
<time>2014-07-06T11:16:25Z</time>
 <fix>none</fix>
 <sat>0</sat>
</trkpt>
<trkpt lat="60.912076667" lon="15.183638333">
<time>2014-07-06T11:16:26Z</time>
 <fix>none</fix>
 <sat>0</sat>
</trkpt>
<trkpt lat="60.912076667" lon="15.183638333">
<time>2014-07-06T11:16:27Z</time>
 <fix>none</fix>
 <sat>0</sat>
</trkpt>
<trkpt lat="60.912210000" lon="15.183433333">
<time>2014-07-06T11:16:28Z</time>
 <fix>none</fix>
 <sat>0</sat>
</trkpt>
<trkpt lat="60.912210000" lon="15.183433333">
<time>2014-07-06T11:16:29Z</time>
 <fix>none</fix>
 <sat>0</sat>
</trkpt>
<trkpt lat="60.912296667" lon="15.183221667">
<time>2014-07-06T11:16:30Z</time>
 <fix>none</fix>
 <sat>0</sat>
</trkpt>
<trkpt lat="60.912296667" lon="15.183221667">
<time>2014-07-06T11:16:31Z</time>
 <fix>none</fix>
 <sat>0</sat>
</trkpt>
<trkpt lat="60.912328333" lon="15.183026667">
<time>2014-07-06T11:16:32Z</time>
 <fix>none</fix>
 <sat>0</sat>
</trkpt>
<trkpt lat="60.912328333" lon="15.183026667">
<time>2014-07-06T11:16:33Z</time>
 <fix>none</fix>
 <sat>0</sat>
</trkpt>
<trkpt lat="60.912413333" lon="15.182823333">
<time>2014-07-06T11:16:34Z</time>
 <fix>none</fix>
 <sat>0</sat>
</trkpt>
<trkpt lat="60.912413333" lon="15.182823333">
<time>2014-07-06T11:16:35Z</time>
 <fix>none</fix>
 <sat>0</sat>
</trkpt>
<trkpt lat="60.912481667" lon="15.182630000">
<time>2014-07-06T11:16:36Z</time>
 <fix>none</fix>
 <sat>0</sat>
</trkpt>
<trkpt lat="60.912505000" lon="15.182616667">
<time>2014-07-06T11:16:37Z</time>
 <fix>none</fix>
 <sat>0</sat>
</trkpt>
<trkpt lat="60.912543333" lon="15.182623333">
<time>2014-07-06T11:16:38Z</time>
 <fix>none</fix>
 <sat>0</sat>
</trkpt>
<trkpt lat="60.912570000" lon="15.182545000">
<time>2014-07-06T11:16:39Z</time>
 <fix>none</fix>
 <sat>0</sat>
</trkpt>
<trkpt lat="60.912605000" lon="15.182438333">
<time>2014-07-06T11:16:40Z</time>
 <fix>none</fix>
 <sat>0</sat>
</trkpt>
<trkpt lat="60.912645000" lon="15.182313333">
<time>2014-07-06T11:16:41Z</time>
 <fix>none</fix>
 <sat>0</sat>
</trkpt>
<trkpt lat="60.912683333" lon="15.182175000">
<time>2014-07-06T11:16:42Z</time>
 <fix>none</fix>
 <sat>0</sat>
</trkpt>
<trkpt lat="60.912721667" lon="15.182035000">
<time>2014-07-06T11:16:43Z</time>
 <fix>none</fix>
 <sat>0</sat>
</trkpt>
<trkpt lat="60.912766667" lon="15.181890000">
<time>2014-07-06T11:16:44Z</time>
 <fix>none</fix>
 <sat>0</sat>
</trkpt>
<trkpt lat="60.912816667" lon="15.181736667">
<time>2014-07-06T11:16:45Z</time>
 <fix>none</fix>
 <sat>0</sat>
</trkpt>
<trkpt lat="60.912885000" lon="15.181583333">
<time>2014-07-06T11:16:46Z</time>
 <fix>none</fix>
 <sat>0</sat>
</trkpt>
<trkpt lat="60.912943333" lon="15.181468333">
<time>2014-07-06T11:16:47Z</time>
 <fix>none</fix>
 <sat>0</sat>
</trkpt>
<trkpt lat="60.912943333" lon="15.181468333">
<time>2014-07-06T11:16:48Z</time>
 <fix>none</fix>
 <sat>0</sat>
</trkpt>
<trkpt lat="60.912975000" lon="15.181350000">
<time>2014-07-06T11:16:49Z</time>
 <fix>none</fix>
 <sat>0</sat>
</trkpt>
<trkpt lat="60.912975000" lon="15.181350000">
<time>2014-07-06T11:16:50Z</time>
 <fix>none</fix>
 <sat>0</sat>
</trkpt>
<trkpt lat="60.913061667" lon="15.181000000">
<time>2014-07-06T11:16:51Z</time>
 <fix>none</fix>
 <sat>0</sat>
</trkpt>
<trkpt lat="60.913061667" lon="15.181000000">
<time>2014-07-06T11:16:52Z</time>
 <fix>none</fix>
 <sat>0</sat>
</trkpt>
<trkpt lat="60.913130000" lon="15.180760000">
<time>2014-07-06T11:16:53Z</time>
 <fix>none</fix>
 <sat>0</sat>
</trkpt>
<trkpt lat="60.913130000" lon="15.180760000">
<time>2014-07-06T11:16:54Z</time>
 <fix>none</fix>
 <sat>0</sat>
</trkpt>
<trkpt lat="60.913235000" lon="15.180535000">
<time>2014-07-06T11:16:55Z</time>
 <fix>none</fix>
 <sat>0</sat>
</trkpt>
<trkpt lat="60.913235000" lon="15.180535000">
<time>2014-07-06T11:16:56Z</time>
 <fix>none</fix>
 <sat>0</sat>
</trkpt>
<trkpt lat="60.913341667" lon="15.180303333">
<time>2014-07-06T11:16:57Z</time>
 <fix>none</fix>
 <sat>0</sat>
</trkpt>
<trkpt lat="60.913341667" lon="15.180303333">
<time>2014-07-06T11:16:58Z</time>
 <fix>none</fix>
 <sat>0</sat>
</trkpt>
<trkpt lat="60.913445000" lon="15.180075000">
<time>2014-07-06T11:16:59Z</time>
 <fix>none</fix>
 <sat>0</sat>
</trkpt>
<trkpt lat="60.913445000" lon="15.180075000">
<time>2014-07-06T11:17:00Z</time>
 <fix>none</fix>
 <sat>0</sat>
</trkpt>
<trkpt lat="60.913543333" lon="15.179803333">
<time>2014-07-06T11:17:01Z</time>
 <fix>none</fix>
 <sat>0</sat>
</trkpt>
<trkpt lat="60.913543333" lon="15.179803333">
<time>2014-07-06T11:17:02Z</time>
 <fix>none</fix>
 <sat>0</sat>
</trkpt>
<trkpt lat="60.913650000" lon="15.179538333">
<time>2014-07-06T11:17:03Z</time>
 <fix>none</fix>
 <sat>0</sat>
</trkpt>
<trkpt lat="60.913650000" lon="15.179538333">
<time>2014-07-06T11:17:04Z</time>
 <fix>none</fix>
 <sat>0</sat>
</trkpt>
<trkpt lat="60.913766667" lon="15.179320000">
<time>2014-07-06T11:17:05Z</time>
 <fix>none</fix>
 <sat>0</sat>
</trkpt>
<trkpt lat="60.913766667" lon="15.179320000">
<time>2014-07-06T11:17:06Z</time>
 <fix>none</fix>
 <sat>0</sat>
</trkpt>
<trkpt lat="60.913838333" lon="15.178858333">
<time>2014-07-06T11:17:07Z</time>
 <fix>none</fix>
 <sat>0</sat>
</trkpt>
<trkpt lat="60.913838333" lon="15.178858333">
<time>2014-07-06T11:17:08Z</time>
 <fix>none</fix>
 <sat>0</sat>
</trkpt>
<trkpt lat="60.913878333" lon="15.178535000">
<time>2014-07-06T11:17:09Z</time>
 <fix>none</fix>
 <sat>0</sat>
</trkpt>
<trkpt lat="60.913878333" lon="15.178535000">
<time>2014-07-06T11:17:10Z</time>
 <fix>none</fix>
 <sat>0</sat>
</trkpt>
<trkpt lat="60.913896667" lon="15.178271667">
<time>2014-07-06T11:17:11Z</time>
 <fix>none</fix>
 <sat>0</sat>
</trkpt>
<trkpt lat="60.913896667" lon="15.178271667">
<time>2014-07-06T11:17:12Z</time>
 <fix>none</fix>
 <sat>0</sat>
</trkpt>
<trkpt lat="60.913956667" lon="15.177998333">
<time>2014-07-06T11:17:13Z</time>
 <fix>none</fix>
 <sat>0</sat>
</trkpt>
<trkpt lat="60.913956667" lon="15.177998333">
<time>2014-07-06T11:17:14Z</time>
 <fix>none</fix>
 <sat>0</sat>
</trkpt>
<trkpt lat="60.913991667" lon="15.177701667">
<time>2014-07-06T11:17:15Z</time>
 <fix>none</fix>
 <sat>0</sat>
</trkpt>
<trkpt lat="60.913991667" lon="15.177701667">
<time>2014-07-06T11:17:16Z</time>
 <fix>none</fix>
 <sat>0</sat>
</trkpt>
<trkpt lat="60.914021667" lon="15.177460000">
<time>2014-07-06T11:17:17Z</time>
 <fix>none</fix>
 <sat>0</sat>
</trkpt>
<trkpt lat="60.914021667" lon="15.177460000">
<time>2014-07-06T11:17:18Z</time>
 <fix>none</fix>
 <sat>0</sat>
</trkpt>
<trkpt lat="60.914021667" lon="15.177460000">
<time>2014-07-06T11:17:19Z</time>
 <fix>none</fix>
 <sat>0</sat>
</trkpt>
<trkpt lat="60.914070000" lon="15.177416667">
<time>2014-07-06T11:17:20Z</time>
 <fix>none</fix>
 <sat>0</sat>
</trkpt>
<trkpt lat="60.914091667" lon="15.177080000">
<time>2014-07-06T11:17:21Z</time>
 <fix>none</fix>
 <sat>0</sat>
</trkpt>
<trkpt lat="60.914091667" lon="15.177080000">
<time>2014-07-06T11:17:22Z</time>
 <fix>none</fix>
 <sat>0</sat>
</trkpt>
<trkpt lat="60.914120000" lon="15.176665000">
<time>2014-07-06T11:17:23Z</time>
 <fix>none</fix>
 <sat>0</sat>
</trkpt>
<trkpt lat="60.914120000" lon="15.176665000">
<time>2014-07-06T11:17:24Z</time>
 <fix>none</fix>
 <sat>0</sat>
</trkpt>
<trkpt lat="60.914140000" lon="15.176313333">
<time>2014-07-06T11:17:25Z</time>
 <fix>none</fix>
 <sat>0</sat>
</trkpt>
<trkpt lat="60.914140000" lon="15.176313333">
<time>2014-07-06T11:17:26Z</time>
 <fix>none</fix>
 <sat>0</sat>
</trkpt>
<trkpt lat="60.914163333" lon="15.175983333">
<time>2014-07-06T11:17:27Z</time>
 <fix>none</fix>
 <sat>0</sat>
</trkpt>
<trkpt lat="60.914163333" lon="15.175983333">
<time>2014-07-06T11:17:28Z</time>
 <fix>none</fix>
 <sat>0</sat>
</trkpt>
<trkpt lat="60.914186667" lon="15.175648333">
<time>2014-07-06T11:17:29Z</time>
 <fix>none</fix>
 <sat>0</sat>
</trkpt>
<trkpt lat="60.914220000" lon="15.175578333">
<time>2014-07-06T11:17:30Z</time>
 <fix>none</fix>
 <sat>0</sat>
</trkpt>
<trkpt lat="60.914300000" lon="15.175615000">
<time>2014-07-06T11:17:31Z</time>
 <fix>none</fix>
 <sat>0</sat>
</trkpt>
<trkpt lat="60.914363333" lon="15.175623333">
<time>2014-07-06T11:17:32Z</time>
 <fix>none</fix>
 <sat>0</sat>
</trkpt>
<trkpt lat="60.914418333" lon="15.175648333">
<time>2014-07-06T11:17:33Z</time>
 <fix>none</fix>
 <sat>0</sat>
</trkpt>
<trkpt lat="60.914418333" lon="15.175648333">
<time>2014-07-06T11:17:34Z</time>
 <fix>none</fix>
 <sat>0</sat>
</trkpt>
<trkpt lat="60.914486667" lon="15.175611667">
<time>2014-07-06T11:17:35Z</time>
 <fix>none</fix>
 <sat>0</sat>
</trkpt>
<trkpt lat="60.914543333" lon="15.175588333">
<time>2014-07-06T11:17:36Z</time>
 <fix>none</fix>
 <sat>0</sat>
</trkpt>
<trkpt lat="60.914588333" lon="15.175548333">
<time>2014-07-06T11:17:37Z</time>
 <fix>none</fix>
 <sat>0</sat>
</trkpt>
<trkpt lat="60.914636667" lon="15.175538333">
<time>2014-07-06T11:17:38Z</time>
 <fix>none</fix>
 <sat>0</sat>
</trkpt>
<trkpt lat="60.914685000" lon="15.175523333">
<time>2014-07-06T11:17:39Z</time>
 <fix>none</fix>
 <sat>0</sat>
</trkpt>
<trkpt lat="60.914778333" lon="15.175485000">
<time>2014-07-06T11:17:40Z</time>
 <fix>none</fix>
 <sat>0</sat>
</trkpt>
<trkpt lat="60.914778333" lon="15.175485000">
<time>2014-07-06T11:17:41Z</time>
 <fix>none</fix>
 <sat>0</sat>
</trkpt>
<trkpt lat="60.914823333" lon="15.175481667">
<time>2014-07-06T11:17:42Z</time>
 <fix>none</fix>
 <sat>0</sat>
</trkpt>
<trkpt lat="60.914921667" lon="15.175510000">
<time>2014-07-06T11:17:43Z</time>
 <fix>none</fix>
 <sat>0</sat>
</trkpt>
<trkpt lat="60.914968333" lon="15.175535000">
<time>2014-07-06T11:17:44Z</time>
 <fix>none</fix>
 <sat>0</sat>
</trkpt>
<trkpt lat="60.914968333" lon="15.175535000">
<time>2014-07-06T11:17:45Z</time>
 <fix>none</fix>
 <sat>0</sat>
</trkpt>
<trkpt lat="60.914968333" lon="15.175535000">
<time>2014-07-06T11:17:46Z</time>
 <fix>none</fix>
 <sat>0</sat>
</trkpt>
<trkpt lat="60.915110000" lon="15.175650000">
<time>2014-07-06T11:17:47Z</time>
 <fix>none</fix>
 <sat>0</sat>
</trkpt>
<trkpt lat="60.915110000" lon="15.175650000">
<time>2014-07-06T11:17:48Z</time>
 <fix>none</fix>
 <sat>0</sat>
</trkpt>
<trkpt lat="60.915113333" lon="15.175960000">
<time>2014-07-06T11:17:49Z</time>
 <fix>none</fix>
 <sat>0</sat>
</trkpt>
<trkpt lat="60.915113333" lon="15.175960000">
<time>2014-07-06T11:17:50Z</time>
 <fix>none</fix>
 <sat>0</sat>
</trkpt>
<trkpt lat="60.915258333" lon="15.176000000">
<time>2014-07-06T11:17:51Z</time>
 <fix>none</fix>
 <sat>0</sat>
</trkpt>
<trkpt lat="60.915258333" lon="15.176000000">
<time>2014-07-06T11:17:52Z</time>
 <fix>none</fix>
 <sat>0</sat>
</trkpt>
<trkpt lat="60.915203333" lon="15.176300000">
<time>2014-07-06T11:17:53Z</time>
 <fix>none</fix>
 <sat>0</sat>
</trkpt>
<trkpt lat="60.915136667" lon="15.176490000">
<time>2014-07-06T11:17:54Z</time>
 <fix>none</fix>
 <sat>0</sat>
</trkpt>
<trkpt lat="60.915061667" lon="15.176693333">
<time>2014-07-06T11:17:55Z</time>
 <fix>none</fix>
 <sat>0</sat>
</trkpt>
<trkpt lat="60.915065000" lon="15.176843333">
<time>2014-07-06T11:17:56Z</time>
 <fix>none</fix>
 <sat>0</sat>
</trkpt>
<trkpt lat="60.915065000" lon="15.176843333">
<time>2014-07-06T11:17:57Z</time>
 <fix>none</fix>
 <sat>0</sat>
</trkpt>
<trkpt lat="60.915061667" lon="15.176933333">
<time>2014-07-06T11:17:58Z</time>
 <fix>none</fix>
 <sat>0</sat>
</trkpt>
<trkpt lat="60.915076667" lon="15.176986667">
<time>2014-07-06T11:17:59Z</time>
 <fix>none</fix>
 <sat>0</sat>
</trkpt>
<trkpt lat="60.915118333" lon="15.177006667">
<time>2014-07-06T11:18:00Z</time>
 <fix>none</fix>
 <sat>0</sat>
</trkpt>
<trkpt lat="60.915168333" lon="15.177023333">
<time>2014-07-06T11:18:01Z</time>
 <fix>none</fix>
 <sat>0</sat>
</trkpt>
<trkpt lat="60.915231667" lon="15.177015000">
<time>2014-07-06T11:18:02Z</time>
 <fix>none</fix>
 <sat>0</sat>
</trkpt>
<trkpt lat="60.915358333" lon="15.177036667">
<time>2014-07-06T11:18:03Z</time>
 <fix>none</fix>
 <sat>0</sat>
</trkpt>
<trkpt lat="60.915406667" lon="15.177033333">
<time>2014-07-06T11:18:04Z</time>
 <fix>none</fix>
 <sat>0</sat>
</trkpt>
<trkpt lat="60.915406667" lon="15.177033333">
<time>2014-07-06T11:18:05Z</time>
 <fix>none</fix>
 <sat>0</sat>
</trkpt>
<trkpt lat="60.915493333" lon="15.177046667">
<time>2014-07-06T11:18:06Z</time>
 <fix>none</fix>
 <sat>0</sat>
</trkpt>
<trkpt lat="60.915540000" lon="15.177035000">
<time>2014-07-06T11:18:07Z</time>
 <fix>none</fix>
 <sat>0</sat>
</trkpt>
<trkpt lat="60.915540000" lon="15.177035000">
<time>2014-07-06T11:18:08Z</time>
 <fix>none</fix>
 <sat>0</sat>
</trkpt>
<trkpt lat="60.915540000" lon="15.177035000">
<time>2014-07-06T11:18:09Z</time>
 <fix>none</fix>
 <sat>0</sat>
</trkpt>
<trkpt lat="60.915668333" lon="15.177000000">
<time>2014-07-06T11:18:10Z</time>
 <fix>none</fix>
 <sat>0</sat>
</trkpt>
<trkpt lat="60.915668333" lon="15.177000000">
<time>2014-07-06T11:18:11Z</time>
 <fix>none</fix>
 <sat>0</sat>
</trkpt>
<trkpt lat="60.915746667" lon="15.176871667">
<time>2014-07-06T11:18:12Z</time>
 <fix>none</fix>
 <sat>0</sat>
</trkpt>
<trkpt lat="60.915746667" lon="15.176871667">
<time>2014-07-06T11:18:13Z</time>
 <fix>none</fix>
 <sat>0</sat>
</trkpt>
<trkpt lat="60.915873333" lon="15.176671667">
<time>2014-07-06T11:18:14Z</time>
 <fix>none</fix>
 <sat>0</sat>
</trkpt>
<trkpt lat="60.915945000" lon="15.176595000">
<time>2014-07-06T11:18:15Z</time>
 <fix>none</fix>
 <sat>0</sat>
</trkpt>
<trkpt lat="60.916035000" lon="15.176710000">
<time>2014-07-06T11:18:16Z</time>
 <fix>none</fix>
 <sat>0</sat>
</trkpt>
<trkpt lat="60.916125000" lon="15.176856667">
<time>2014-07-06T11:18:17Z</time>
 <fix>none</fix>
 <sat>0</sat>
</trkpt>
<trkpt lat="60.916195000" lon="15.176958333">
<time>2014-07-06T11:18:18Z</time>
 <fix>none</fix>
 <sat>0</sat>
</trkpt>
<trkpt lat="60.916248333" lon="15.177025000">
<time>2014-07-06T11:18:19Z</time>
 <fix>none</fix>
 <sat>0</sat>
</trkpt>
<trkpt lat="60.916248333" lon="15.177025000">
<time>2014-07-06T11:18:20Z</time>
 <fix>none</fix>
 <sat>0</sat>
</trkpt>
<trkpt lat="60.916306667" lon="15.177105000">
<time>2014-07-06T11:18:21Z</time>
 <fix>none</fix>
 <sat>0</sat>
</trkpt>
<trkpt lat="60.916371667" lon="15.177190000">
<time>2014-07-06T11:18:22Z</time>
 <fix>none</fix>
 <sat>0</sat>
</trkpt>
<trkpt lat="60.916430000" lon="15.177286667">
<time>2014-07-06T11:18:23Z</time>
 <fix>none</fix>
 <sat>0</sat>
</trkpt>
<trkpt lat="60.916481667" lon="15.177401667">
<time>2014-07-06T11:18:24Z</time>
 <fix>none</fix>
 <sat>0</sat>
</trkpt>
<trkpt lat="60.916555000" lon="15.177700000">
<time>2014-07-06T11:18:25Z</time>
 <fix>none</fix>
 <sat>0</sat>
</trkpt>
<trkpt lat="60.916555000" lon="15.177700000">
<time>2014-07-06T11:18:26Z</time>
 <fix>none</fix>
 <sat>0</sat>
</trkpt>
<trkpt lat="60.916643333" lon="15.177906667">
<time>2014-07-06T11:18:27Z</time>
 <fix>none</fix>
 <sat>0</sat>
</trkpt>
<trkpt lat="60.916673333" lon="15.178008333">
<time>2014-07-06T11:18:28Z</time>
 <fix>none</fix>
 <sat>0</sat>
</trkpt>
<trkpt lat="60.916715000" lon="15.178093333">
<time>2014-07-06T11:18:29Z</time>
 <fix>none</fix>
 <sat>0</sat>
</trkpt>
<trkpt lat="60.916761667" lon="15.178163333">
<time>2014-07-06T11:18:30Z</time>
 <fix>none</fix>
 <sat>0</sat>
</trkpt>
<trkpt lat="60.916761667" lon="15.178163333">
<time>2014-07-06T11:18:31Z</time>
 <fix>none</fix>
 <sat>0</sat>
</trkpt>
<trkpt lat="60.916761667" lon="15.178163333">
<time>2014-07-06T11:18:32Z</time>
 <fix>none</fix>
 <sat>0</sat>
</trkpt>
<trkpt lat="60.916898333" lon="15.178431667">
<time>2014-07-06T11:18:33Z</time>
 <fix>none</fix>
 <sat>0</sat>
</trkpt>
<trkpt lat="60.916898333" lon="15.178431667">
<time>2014-07-06T11:18:34Z</time>
 <fix>none</fix>
 <sat>0</sat>
</trkpt>
<trkpt lat="60.916936667" lon="15.178650000">
<time>2014-07-06T11:18:35Z</time>
 <fix>none</fix>
 <sat>0</sat>
</trkpt>
<trkpt lat="60.916936667" lon="15.178650000">
<time>2014-07-06T11:18:36Z</time>
 <fix>none</fix>
 <sat>0</sat>
</trkpt>
<trkpt lat="60.916828333" lon="15.178935000">
<time>2014-07-06T11:18:37Z</time>
 <fix>none</fix>
 <sat>0</sat>
</trkpt>
<trkpt lat="60.916828333" lon="15.178935000">
<time>2014-07-06T11:18:38Z</time>
 <fix>none</fix>
 <sat>0</sat>
</trkpt>
<trkpt lat="60.916868333" lon="15.179190000">
<time>2014-07-06T11:18:39Z</time>
 <fix>none</fix>
 <sat>0</sat>
</trkpt>
<trkpt lat="60.916868333" lon="15.179190000">
<time>2014-07-06T11:18:40Z</time>
 <fix>none</fix>
 <sat>0</sat>
</trkpt>
<trkpt lat="60.916875000" lon="15.179461667">
<time>2014-07-06T11:18:41Z</time>
 <fix>none</fix>
 <sat>0</sat>
</trkpt>
<trkpt lat="60.916880000" lon="15.179590000">
<time>2014-07-06T11:18:42Z</time>
 <fix>none</fix>
 <sat>0</sat>
</trkpt>
<trkpt lat="60.916880000" lon="15.179590000">
<time>2014-07-06T11:18:43Z</time>
 <fix>none</fix>
 <sat>0</sat>
</trkpt>
<trkpt lat="60.916913333" lon="15.179706667">
<time>2014-07-06T11:18:44Z</time>
 <fix>none</fix>
 <sat>0</sat>
</trkpt>
<trkpt lat="60.916930000" lon="15.179833333">
<time>2014-07-06T11:18:45Z</time>
 <fix>none</fix>
 <sat>0</sat>
</trkpt>
<trkpt lat="60.916931667" lon="15.179953333">
<time>2014-07-06T11:18:46Z</time>
 <fix>none</fix>
 <sat>0</sat>
</trkpt>
<trkpt lat="60.916935000" lon="15.180066667">
<time>2014-07-06T11:18:47Z</time>
 <fix>none</fix>
 <sat>0</sat>
</trkpt>
<trkpt lat="60.916951667" lon="15.180183333">
<time>2014-07-06T11:18:48Z</time>
 <fix>none</fix>
 <sat>0</sat>
</trkpt>
<trkpt lat="60.916966667" lon="15.180440000">
<time>2014-07-06T11:18:49Z</time>
 <fix>none</fix>
 <sat>0</sat>
</trkpt>
<trkpt lat="60.916966667" lon="15.180440000">
<time>2014-07-06T11:18:50Z</time>
 <fix>none</fix>
 <sat>0</sat>
</trkpt>
<trkpt lat="60.916966667" lon="15.180545000">
<time>2014-07-06T11:18:51Z</time>
 <fix>none</fix>
 <sat>0</sat>
</trkpt>
<trkpt lat="60.917016667" lon="15.180718333">
<time>2014-07-06T11:18:52Z</time>
 <fix>none</fix>
 <sat>0</sat>
</trkpt>
<trkpt lat="60.917061667" lon="15.180791667">
<time>2014-07-06T11:18:53Z</time>
 <fix>none</fix>
 <sat>0</sat>
</trkpt>
<trkpt lat="60.917103333" lon="15.180873333">
<time>2014-07-06T11:18:54Z</time>
 <fix>none</fix>
 <sat>0</sat>
</trkpt>
<trkpt lat="60.917153333" lon="15.180948333">
<time>2014-07-06T11:18:55Z</time>
 <fix>none</fix>
 <sat>0</sat>
</trkpt>
<trkpt lat="60.917188333" lon="15.181013333">
<time>2014-07-06T11:18:56Z</time>
 <fix>none</fix>
 <sat>0</sat>
</trkpt>
<trkpt lat="60.917225000" lon="15.181068333">
<time>2014-07-06T11:18:57Z</time>
 <fix>none</fix>
 <sat>0</sat>
</trkpt>
<trkpt lat="60.917250000" lon="15.181100000">
<time>2014-07-06T11:18:58Z</time>
 <fix>none</fix>
 <sat>0</sat>
</trkpt>
<trkpt lat="60.917268333" lon="15.181108333">
<time>2014-07-06T11:18:59Z</time>
 <fix>none</fix>
 <sat>0</sat>
</trkpt>
<trkpt lat="60.917300000" lon="15.181106667">
<time>2014-07-06T11:19:00Z</time>
 <fix>none</fix>
 <sat>0</sat>
</trkpt>
<trkpt lat="60.917331667" lon="15.181101667">
<time>2014-07-06T11:19:01Z</time>
 <fix>none</fix>
 <sat>0</sat>
</trkpt>
<trkpt lat="60.917331667" lon="15.181101667">
<time>2014-07-06T11:19:02Z</time>
 <fix>none</fix>
 <sat>0</sat>
</trkpt>
<trkpt lat="60.917331667" lon="15.181101667">
<time>2014-07-06T11:19:03Z</time>
 <fix>none</fix>
 <sat>0</sat>
</trkpt>
<trkpt lat="60.917518333" lon="15.181193333">
<time>2014-07-06T11:19:04Z</time>
 <fix>none</fix>
 <sat>0</sat>
</trkpt>
<trkpt lat="60.917555000" lon="15.181216667">
<time>2014-07-06T11:19:05Z</time>
 <fix>none</fix>
 <sat>0</sat>
</trkpt>
<trkpt lat="60.917555000" lon="15.181216667">
<time>2014-07-06T11:19:06Z</time>
 <fix>none</fix>
 <sat>0</sat>
</trkpt>
<trkpt lat="60.917650000" lon="15.181021667">
<time>2014-07-06T11:19:07Z</time>
 <fix>none</fix>
 <sat>0</sat>
</trkpt>
<trkpt lat="60.917726667" lon="15.180985000">
<time>2014-07-06T11:19:08Z</time>
 <fix>none</fix>
 <sat>0</sat>
</trkpt>
<trkpt lat="60.917790000" lon="15.180975000">
<time>2014-07-06T11:19:09Z</time>
 <fix>none</fix>
 <sat>0</sat>
</trkpt>
<trkpt lat="60.917853333" lon="15.180936667">
<time>2014-07-06T11:19:10Z</time>
 <fix>none</fix>
 <sat>0</sat>
</trkpt>
<trkpt lat="60.917963333" lon="15.180816667">
<time>2014-07-06T11:19:11Z</time>
 <fix>none</fix>
 <sat>0</sat>
</trkpt>
<trkpt lat="60.918021667" lon="15.180741667">
<time>2014-07-06T11:19:12Z</time>
 <fix>none</fix>
 <sat>0</sat>
</trkpt>
<trkpt lat="60.918088333" lon="15.180678333">
<time>2014-07-06T11:19:13Z</time>
 <fix>none</fix>
 <sat>0</sat>
</trkpt>
<trkpt lat="60.918151667" lon="15.180626667">
<time>2014-07-06T11:19:14Z</time>
 <fix>none</fix>
 <sat>0</sat>
</trkpt>
<trkpt lat="60.918221667" lon="15.180580000">
<time>2014-07-06T11:19:15Z</time>
 <fix>none</fix>
 <sat>0</sat>
</trkpt>
<trkpt lat="60.918290000" lon="15.180545000">
<time>2014-07-06T11:19:16Z</time>
 <fix>none</fix>
 <sat>0</sat>
</trkpt>
<trkpt lat="60.918348333" lon="15.180508333">
<time>2014-07-06T11:19:17Z</time>
 <fix>none</fix>
 <sat>0</sat>
</trkpt>
<trkpt lat="60.918348333" lon="15.180508333">
<time>2014-07-06T11:19:18Z</time>
 <fix>none</fix>
 <sat>0</sat>
</trkpt>
<trkpt lat="60.918348333" lon="15.180508333">
<time>2014-07-06T11:19:19Z</time>
 <fix>none</fix>
 <sat>0</sat>
</trkpt>
<trkpt lat="60.918510000" lon="15.180380000">
<time>2014-07-06T11:19:20Z</time>
 <fix>none</fix>
 <sat>0</sat>
</trkpt>
<trkpt lat="60.918510000" lon="15.180380000">
<time>2014-07-06T11:19:21Z</time>
 <fix>none</fix>
 <sat>0</sat>
</trkpt>
<trkpt lat="60.918576667" lon="15.180200000">
<time>2014-07-06T11:19:22Z</time>
 <fix>none</fix>
 <sat>0</sat>
</trkpt>
<trkpt lat="60.918576667" lon="15.180200000">
<time>2014-07-06T11:19:23Z</time>
 <fix>none</fix>
 <sat>0</sat>
</trkpt>
<trkpt lat="60.918693333" lon="15.180083333">
<time>2014-07-06T11:19:24Z</time>
 <fix>none</fix>
 <sat>0</sat>
</trkpt>
<trkpt lat="60.918693333" lon="15.180083333">
<time>2014-07-06T11:19:25Z</time>
 <fix>none</fix>
 <sat>0</sat>
</trkpt>
<trkpt lat="60.918821667" lon="15.180015000">
<time>2014-07-06T11:19:26Z</time>
 <fix>none</fix>
 <sat>0</sat>
</trkpt>
<trkpt lat="60.918821667" lon="15.180015000">
<time>2014-07-06T11:19:27Z</time>
 <fix>none</fix>
 <sat>0</sat>
</trkpt>
<trkpt lat="60.918970000" lon="15.180005000">
<time>2014-07-06T11:19:28Z</time>
 <fix>none</fix>
 <sat>0</sat>
</trkpt>
<trkpt lat="60.918970000" lon="15.180005000">
<time>2014-07-06T11:19:29Z</time>
 <fix>none</fix>
 <sat>0</sat>
</trkpt>
<trkpt lat="60.919100000" lon="15.179963333">
<time>2014-07-06T11:19:30Z</time>
 <fix>none</fix>
 <sat>0</sat>
</trkpt>
<trkpt lat="60.919100000" lon="15.179963333">
<time>2014-07-06T11:19:31Z</time>
 <fix>none</fix>
 <sat>0</sat>
</trkpt>
<trkpt lat="60.919228333" lon="15.179931667">
<time>2014-07-06T11:19:32Z</time>
 <fix>none</fix>
 <sat>0</sat>
</trkpt>
<trkpt lat="60.919228333" lon="15.179931667">
<time>2014-07-06T11:19:33Z</time>
 <fix>none</fix>
 <sat>0</sat>
</trkpt>
<trkpt lat="60.919346667" lon="15.179918333">
<time>2014-07-06T11:19:34Z</time>
 <fix>none</fix>
 <sat>0</sat>
</trkpt>
<trkpt lat="60.919346667" lon="15.179918333">
<time>2014-07-06T11:19:35Z</time>
 <fix>none</fix>
 <sat>0</sat>
</trkpt>
<trkpt lat="60.919346667" lon="15.179918333">
<time>2014-07-06T11:19:36Z</time>
 <fix>none</fix>
 <sat>0</sat>
</trkpt>
<trkpt lat="60.919471667" lon="15.179950000">
<time>2014-07-06T11:19:37Z</time>
 <fix>none</fix>
 <sat>0</sat>
</trkpt>
<trkpt lat="60.919590000" lon="15.180026667">
<time>2014-07-06T11:19:38Z</time>
 <fix>none</fix>
 <sat>0</sat>
</trkpt>
<trkpt lat="60.919590000" lon="15.180026667">
<time>2014-07-06T11:19:39Z</time>
 <fix>none</fix>
 <sat>0</sat>
</trkpt>
<trkpt lat="60.919733333" lon="15.180206667">
<time>2014-07-06T11:19:40Z</time>
 <fix>none</fix>
 <sat>0</sat>
</trkpt>
<trkpt lat="60.919750000" lon="15.180295000">
<time>2014-07-06T11:19:41Z</time>
 <fix>none</fix>
 <sat>0</sat>
</trkpt>
<trkpt lat="60.919796667" lon="15.180533333">
<time>2014-07-06T11:19:42Z</time>
 <fix>none</fix>
 <sat>0</sat>
</trkpt>
<trkpt lat="60.919760000" lon="15.180726667">
<time>2014-07-06T11:19:43Z</time>
 <fix>none</fix>
 <sat>0</sat>
</trkpt>
<trkpt lat="60.919716667" lon="15.180943333">
<time>2014-07-06T11:19:44Z</time>
 <fix>none</fix>
 <sat>0</sat>
</trkpt>
<trkpt lat="60.919716667" lon="15.180943333">
<time>2014-07-06T11:19:45Z</time>
 <fix>none</fix>
 <sat>0</sat>
</trkpt>
<trkpt lat="60.919726667" lon="15.181320000">
<time>2014-07-06T11:19:46Z</time>
 <fix>none</fix>
 <sat>0</sat>
</trkpt>
<trkpt lat="60.919706667" lon="15.181523333">
<time>2014-07-06T11:19:47Z</time>
 <fix>none</fix>
 <sat>0</sat>
</trkpt>
<trkpt lat="60.919700000" lon="15.181656667">
<time>2014-07-06T11:19:48Z</time>
 <fix>none</fix>
 <sat>0</sat>
</trkpt>
<trkpt lat="60.919721667" lon="15.181800000">
<time>2014-07-06T11:19:49Z</time>
 <fix>none</fix>
 <sat>0</sat>
</trkpt>
<trkpt lat="60.919681667" lon="15.181975000">
<time>2014-07-06T11:19:50Z</time>
 <fix>none</fix>
 <sat>0</sat>
</trkpt>
<trkpt lat="60.919681667" lon="15.181975000">
<time>2014-07-06T11:19:51Z</time>
 <fix>none</fix>
 <sat>0</sat>
</trkpt>
<trkpt lat="60.919696667" lon="15.182068333">
<time>2014-07-06T11:19:52Z</time>
 <fix>none</fix>
 <sat>0</sat>
</trkpt>
<trkpt lat="60.919693333" lon="15.182180000">
<time>2014-07-06T11:19:53Z</time>
 <fix>none</fix>
 <sat>0</sat>
</trkpt>
<trkpt lat="60.919688333" lon="15.182298333">
<time>2014-07-06T11:19:54Z</time>
 <fix>none</fix>
 <sat>0</sat>
</trkpt>
<trkpt lat="60.919720000" lon="15.182416667">
<time>2014-07-06T11:19:55Z</time>
 <fix>none</fix>
 <sat>0</sat>
</trkpt>
<trkpt lat="60.919758333" lon="15.182525000">
<time>2014-07-06T11:19:56Z</time>
 <fix>none</fix>
 <sat>0</sat>
</trkpt>
<trkpt lat="60.919740000" lon="15.182591667">
<time>2014-07-06T11:19:57Z</time>
 <fix>none</fix>
 <sat>0</sat>
</trkpt>
<trkpt lat="60.919753333" lon="15.182695000">
<time>2014-07-06T11:19:58Z</time>
 <fix>none</fix>
 <sat>0</sat>
</trkpt>
<trkpt lat="60.919768333" lon="15.182915000">
<time>2014-07-06T11:19:59Z</time>
 <fix>none</fix>
 <sat>0</sat>
</trkpt>
<trkpt lat="60.919771667" lon="15.183011667">
<time>2014-07-06T11:20:00Z</time>
 <fix>none</fix>
 <sat>0</sat>
</trkpt>
<trkpt lat="60.919768333" lon="15.183090000">
<time>2014-07-06T11:20:01Z</time>
 <fix>none</fix>
 <sat>0</sat>
</trkpt>
<trkpt lat="60.919760000" lon="15.183176667">
<time>2014-07-06T11:20:02Z</time>
 <fix>none</fix>
 <sat>0</sat>
</trkpt>
<trkpt lat="60.919756667" lon="15.183276667">
<time>2014-07-06T11:20:03Z</time>
 <fix>none</fix>
 <sat>0</sat>
</trkpt>
<trkpt lat="60.919726667" lon="15.183381667">
<time>2014-07-06T11:20:04Z</time>
 <fix>none</fix>
 <sat>0</sat>
</trkpt>
<trkpt lat="60.919708333" lon="15.183413333">
<time>2014-07-06T11:20:05Z</time>
 <fix>none</fix>
 <sat>0</sat>
</trkpt>
<trkpt lat="60.919723333" lon="15.183380000">
<time>2014-07-06T11:20:06Z</time>
 <fix>none</fix>
 <sat>0</sat>
</trkpt>
<trkpt lat="60.919761667" lon="15.183353333">
<time>2014-07-06T11:20:07Z</time>
 <fix>none</fix>
 <sat>0</sat>
</trkpt>
<trkpt lat="60.919761667" lon="15.183353333">
<time>2014-07-06T11:20:08Z</time>
 <fix>none</fix>
 <sat>0</sat>
</trkpt>
<trkpt lat="60.919761667" lon="15.183353333">
<time>2014-07-06T11:20:09Z</time>
 <fix>none</fix>
 <sat>0</sat>
</trkpt>
<trkpt lat="60.919815000" lon="15.183323333">
<time>2014-07-06T11:20:10Z</time>
 <fix>none</fix>
 <sat>0</sat>
</trkpt>
<trkpt lat="60.919815000" lon="15.183323333">
<time>2014-07-06T11:20:11Z</time>
 <fix>none</fix>
 <sat>0</sat>
</trkpt>
<trkpt lat="60.919861667" lon="15.183276667">
<time>2014-07-06T11:20:12Z</time>
 <fix>none</fix>
 <sat>0</sat>
</trkpt>
<trkpt lat="60.919890000" lon="15.183250000">
<time>2014-07-06T11:20:13Z</time>
 <fix>none</fix>
 <sat>0</sat>
</trkpt>
<trkpt lat="60.919890000" lon="15.183250000">
<time>2014-07-06T11:20:14Z</time>
 <fix>none</fix>
 <sat>0</sat>
</trkpt>
<trkpt lat="60.919905000" lon="15.183185000">
<time>2014-07-06T11:20:15Z</time>
 <fix>none</fix>
 <sat>0</sat>
</trkpt>
<trkpt lat="60.919923333" lon="15.183150000">
<time>2014-07-06T11:20:16Z</time>
 <fix>none</fix>
 <sat>0</sat>
</trkpt>
<trkpt lat="60.919941667" lon="15.183146667">
<time>2014-07-06T11:20:17Z</time>
 <fix>none</fix>
 <sat>0</sat>
</trkpt>
<trkpt lat="60.919953333" lon="15.183146667">
<time>2014-07-06T11:20:18Z</time>
 <fix>none</fix>
 <sat>0</sat>
</trkpt>
<trkpt lat="60.919970000" lon="15.183128333">
<time>2014-07-06T11:20:19Z</time>
 <fix>none</fix>
 <sat>0</sat>
</trkpt>
<trkpt lat="60.920008333" lon="15.183141667">
<time>2014-07-06T11:20:20Z</time>
 <fix>none</fix>
 <sat>0</sat>
</trkpt>
<trkpt lat="60.920008333" lon="15.183141667">
<time>2014-07-06T11:20:21Z</time>
 <fix>none</fix>
 <sat>0</sat>
</trkpt>
<trkpt lat="60.920051667" lon="15.183180000">
<time>2014-07-06T11:20:22Z</time>
 <fix>none</fix>
 <sat>0</sat>
</trkpt>
<trkpt lat="60.920071667" lon="15.183196667">
<time>2014-07-06T11:20:23Z</time>
 <fix>none</fix>
 <sat>0</sat>
</trkpt>
<trkpt lat="60.920071667" lon="15.183196667">
<time>2014-07-06T11:20:24Z</time>
 <fix>none</fix>
 <sat>0</sat>
</trkpt>
<trkpt lat="60.920071667" lon="15.183196667">
<time>2014-07-06T11:20:25Z</time>
 <fix>none</fix>
 <sat>0</sat>
</trkpt>
<trkpt lat="60.920110000" lon="15.183206667">
<time>2014-07-06T11:20:26Z</time>
 <fix>none</fix>
 <sat>0</sat>
</trkpt>
<trkpt lat="60.920110000" lon="15.183206667">
<time>2014-07-06T11:20:27Z</time>
 <fix>none</fix>
 <sat>0</sat>
</trkpt>
<trkpt lat="60.920128333" lon="15.183230000">
<time>2014-07-06T11:20:28Z</time>
 <fix>none</fix>
 <sat>0</sat>
</trkpt>
<trkpt lat="60.920128333" lon="15.183230000">
<time>2014-07-06T11:20:29Z</time>
 <fix>none</fix>
 <sat>0</sat>
</trkpt>
<trkpt lat="60.920123333" lon="15.183231667">
<time>2014-07-06T11:20:30Z</time>
 <fix>none</fix>
 <sat>0</sat>
</trkpt>
<trkpt lat="60.920120000" lon="15.183231667">
<time>2014-07-06T11:20:31Z</time>
 <fix>none</fix>
 <sat>0</sat>
</trkpt>
<trkpt lat="60.920113333" lon="15.183231667">
<time>2014-07-06T11:20:32Z</time>
 <fix>none</fix>
 <sat>0</sat>
</trkpt>
<trkpt lat="60.920140000" lon="15.183226667">
<time>2014-07-06T11:20:33Z</time>
 <fix>none</fix>
 <sat>0</sat>
</trkpt>
<trkpt lat="60.920176667" lon="15.183248333">
<time>2014-07-06T11:20:34Z</time>
 <fix>none</fix>
 <sat>0</sat>
</trkpt>
<trkpt lat="60.920215000" lon="15.183276667">
<time>2014-07-06T11:20:35Z</time>
 <fix>none</fix>
 <sat>0</sat>
</trkpt>
<trkpt lat="60.920245000" lon="15.183271667">
<time>2014-07-06T11:20:36Z</time>
 <fix>none</fix>
 <sat>0</sat>
</trkpt>
<trkpt lat="60.920245000" lon="15.183271667">
<time>2014-07-06T11:20:37Z</time>
 <fix>none</fix>
 <sat>0</sat>
</trkpt>
<trkpt lat="60.920281667" lon="15.183268333">
<time>2014-07-06T11:20:38Z</time>
 <fix>none</fix>
 <sat>0</sat>
</trkpt>
<trkpt lat="60.920313333" lon="15.183270000">
<time>2014-07-06T11:20:39Z</time>
 <fix>none</fix>
 <sat>0</sat>
</trkpt>
<trkpt lat="60.920336667" lon="15.183273333">
<time>2014-07-06T11:20:40Z</time>
 <fix>none</fix>
 <sat>0</sat>
</trkpt>
<trkpt lat="60.920365000" lon="15.183278333">
<time>2014-07-06T11:20:41Z</time>
 <fix>none</fix>
 <sat>0</sat>
</trkpt>
<trkpt lat="60.920443333" lon="15.183301667">
<time>2014-07-06T11:20:42Z</time>
 <fix>none</fix>
 <sat>0</sat>
</trkpt>
<trkpt lat="60.920480000" lon="15.183315000">
<time>2014-07-06T11:20:43Z</time>
 <fix>none</fix>
 <sat>0</sat>
</trkpt>
<trkpt lat="60.920521667" lon="15.183340000">
<time>2014-07-06T11:20:44Z</time>
 <fix>none</fix>
 <sat>0</sat>
</trkpt>
<trkpt lat="60.920566667" lon="15.183360000">
<time>2014-07-06T11:20:45Z</time>
 <fix>none</fix>
 <sat>0</sat>
</trkpt>
<trkpt lat="60.920615000" lon="15.183378333">
<time>2014-07-06T11:20:46Z</time>
 <fix>none</fix>
 <sat>0</sat>
</trkpt>
<trkpt lat="60.920615000" lon="15.183378333">
<time>2014-07-06T11:20:47Z</time>
 <fix>none</fix>
 <sat>0</sat>
</trkpt>
<trkpt lat="60.920615000" lon="15.183378333">
<time>2014-07-06T11:20:48Z</time>
 <fix>none</fix>
 <sat>0</sat>
</trkpt>
<trkpt lat="60.920745000" lon="15.183440000">
<time>2014-07-06T11:20:49Z</time>
 <fix>none</fix>
 <sat>0</sat>
</trkpt>
<trkpt lat="60.920745000" lon="15.183440000">
<time>2014-07-06T11:20:50Z</time>
 <fix>none</fix>
 <sat>0</sat>
</trkpt>
<trkpt lat="60.921011667" lon="15.183273333">
<time>2014-07-06T11:20:51Z</time>
 <fix>none</fix>
 <sat>0</sat>
</trkpt>
<trkpt lat="60.921035000" lon="15.183140000">
<time>2014-07-06T11:20:52Z</time>
 <fix>none</fix>
 <sat>0</sat>
</trkpt>
<trkpt lat="60.921085000" lon="15.183276667">
<time>2014-07-06T11:20:53Z</time>
 <fix>none</fix>
 <sat>0</sat>
</trkpt>
<trkpt lat="60.921111667" lon="15.183245000">
<time>2014-07-06T11:20:54Z</time>
 <fix>none</fix>
 <sat>0</sat>
</trkpt>
<trkpt lat="60.921108333" lon="15.182993333">
<time>2014-07-06T11:20:55Z</time>
 <fix>none</fix>
 <sat>0</sat>
</trkpt>
<trkpt lat="60.921148333" lon="15.182988333">
<time>2014-07-06T11:20:56Z</time>
 <fix>none</fix>
 <sat>0</sat>
</trkpt>
<trkpt lat="60.921206667" lon="15.182953333">
<time>2014-07-06T11:20:57Z</time>
 <fix>none</fix>
 <sat>0</sat>
</trkpt>
<trkpt lat="60.921251667" lon="15.182928333">
<time>2014-07-06T11:20:58Z</time>
 <fix>none</fix>
 <sat>0</sat>
</trkpt>
<trkpt lat="60.921300000" lon="15.182878333">
<time>2014-07-06T11:20:59Z</time>
 <fix>none</fix>
 <sat>0</sat>
</trkpt>
<trkpt lat="60.921300000" lon="15.182878333">
<time>2014-07-06T11:21:00Z</time>
 <fix>none</fix>
 <sat>0</sat>
</trkpt>
<trkpt lat="60.921335000" lon="15.182836667">
<time>2014-07-06T11:21:01Z</time>
 <fix>none</fix>
 <sat>0</sat>
</trkpt>
<trkpt lat="60.921366667" lon="15.182803333">
<time>2014-07-06T11:21:02Z</time>
 <fix>none</fix>
 <sat>0</sat>
</trkpt>
<trkpt lat="60.921401667" lon="15.182776667">
<time>2014-07-06T11:21:03Z</time>
 <fix>none</fix>
 <sat>0</sat>
</trkpt>
<trkpt lat="60.921453333" lon="15.182756667">
<time>2014-07-06T11:21:04Z</time>
 <fix>none</fix>
 <sat>0</sat>
</trkpt>
<trkpt lat="60.921498333" lon="15.182751667">
<time>2014-07-06T11:21:05Z</time>
 <fix>none</fix>
 <sat>0</sat>
</trkpt>
<trkpt lat="60.921548333" lon="15.182753333">
<time>2014-07-06T11:21:06Z</time>
 <fix>none</fix>
 <sat>0</sat>
</trkpt>
<trkpt lat="60.921598333" lon="15.182750000">
<time>2014-07-06T11:21:07Z</time>
 <fix>none</fix>
 <sat>0</sat>
</trkpt>
<trkpt lat="60.921716667" lon="15.182768333">
<time>2014-07-06T11:21:08Z</time>
 <fix>none</fix>
 <sat>0</sat>
</trkpt>
<trkpt lat="60.921780000" lon="15.182785000">
<time>2014-07-06T11:21:09Z</time>
 <fix>none</fix>
 <sat>0</sat>
</trkpt>
<trkpt lat="60.921843333" lon="15.182776667">
<time>2014-07-06T11:21:10Z</time>
 <fix>none</fix>
 <sat>0</sat>
</trkpt>
<trkpt lat="60.921910000" lon="15.182776667">
<time>2014-07-06T11:21:11Z</time>
 <fix>none</fix>
 <sat>0</sat>
</trkpt>
<trkpt lat="60.921963333" lon="15.182763333">
<time>2014-07-06T11:21:12Z</time>
 <fix>none</fix>
 <sat>0</sat>
</trkpt>
<trkpt lat="60.922008333" lon="15.182733333">
<time>2014-07-06T11:21:13Z</time>
 <fix>none</fix>
 <sat>0</sat>
</trkpt>
<trkpt lat="60.922055000" lon="15.182698333">
<time>2014-07-06T11:21:14Z</time>
 <fix>none</fix>
 <sat>0</sat>
</trkpt>
<trkpt lat="60.922098333" lon="15.182646667">
<time>2014-07-06T11:21:15Z</time>
 <fix>none</fix>
 <sat>0</sat>
</trkpt>
<trkpt lat="60.922098333" lon="15.182646667">
<time>2014-07-06T11:21:16Z</time>
 <fix>none</fix>
 <sat>0</sat>
</trkpt>
<trkpt lat="60.922098333" lon="15.182646667">
<time>2014-07-06T11:21:17Z</time>
 <fix>none</fix>
 <sat>0</sat>
</trkpt>
<trkpt lat="60.922215000" lon="15.182318333">
<time>2014-07-06T11:21:18Z</time>
 <fix>none</fix>
 <sat>0</sat>
</trkpt>
<trkpt lat="60.922215000" lon="15.182318333">
<time>2014-07-06T11:21:19Z</time>
 <fix>none</fix>
 <sat>0</sat>
</trkpt>
<trkpt lat="60.922205000" lon="15.182073333">
<time>2014-07-06T11:21:20Z</time>
 <fix>none</fix>
 <sat>0</sat>
</trkpt>
<trkpt lat="60.922205000" lon="15.182073333">
<time>2014-07-06T11:21:21Z</time>
 <fix>none</fix>
 <sat>0</sat>
</trkpt>
<trkpt lat="60.922208333" lon="15.181886667">
<time>2014-07-06T11:21:22Z</time>
 <fix>none</fix>
 <sat>0</sat>
</trkpt>
<trkpt lat="60.922208333" lon="15.181886667">
<time>2014-07-06T11:21:23Z</time>
 <fix>none</fix>
 <sat>0</sat>
</trkpt>
<trkpt lat="60.922165000" lon="15.181590000">
<time>2014-07-06T11:21:24Z</time>
 <fix>none</fix>
 <sat>0</sat>
</trkpt>
<trkpt lat="60.922165000" lon="15.181590000">
<time>2014-07-06T11:21:25Z</time>
 <fix>none</fix>
 <sat>0</sat>
</trkpt>
<trkpt lat="60.922166667" lon="15.181336667">
<time>2014-07-06T11:21:26Z</time>
 <fix>none</fix>
 <sat>0</sat>
</trkpt>
<trkpt lat="60.922171667" lon="15.181295000">
<time>2014-07-06T11:21:27Z</time>
 <fix>none</fix>
 <sat>0</sat>
</trkpt>
<trkpt lat="60.922190000" lon="15.181021667">
<time>2014-07-06T11:21:28Z</time>
 <fix>none</fix>
 <sat>0</sat>
</trkpt>
<trkpt lat="60.922210000" lon="15.180878333">
<time>2014-07-06T11:21:29Z</time>
 <fix>none</fix>
 <sat>0</sat>
</trkpt>
<trkpt lat="60.922231667" lon="15.180740000">
<time>2014-07-06T11:21:30Z</time>
 <fix>none</fix>
 <sat>0</sat>
</trkpt>
<trkpt lat="60.922266667" lon="15.180621667">
<time>2014-07-06T11:21:31Z</time>
 <fix>none</fix>
 <sat>0</sat>
</trkpt>
<trkpt lat="60.922286667" lon="15.180493333">
<time>2014-07-06T11:21:32Z</time>
 <fix>none</fix>
 <sat>0</sat>
</trkpt>
<trkpt lat="60.922318333" lon="15.180356667">
<time>2014-07-06T11:21:33Z</time>
 <fix>none</fix>
 <sat>0</sat>
</trkpt>
<trkpt lat="60.922338333" lon="15.180210000">
<time>2014-07-06T11:21:34Z</time>
 <fix>none</fix>
 <sat>0</sat>
</trkpt>
<trkpt lat="60.922361667" lon="15.180065000">
<time>2014-07-06T11:21:35Z</time>
 <fix>none</fix>
 <sat>0</sat>
</trkpt>
<trkpt lat="60.922403333" lon="15.179933333">
<time>2014-07-06T11:21:36Z</time>
 <fix>none</fix>
 <sat>0</sat>
</trkpt>
<trkpt lat="60.922476667" lon="15.179848333">
<time>2014-07-06T11:21:37Z</time>
 <fix>none</fix>
 <sat>0</sat>
</trkpt>
<trkpt lat="60.922553333" lon="15.179780000">
<time>2014-07-06T11:21:38Z</time>
 <fix>none</fix>
 <sat>0</sat>
</trkpt>
<trkpt lat="60.922628333" lon="15.179723333">
<time>2014-07-06T11:21:39Z</time>
 <fix>none</fix>
 <sat>0</sat>
</trkpt>
<trkpt lat="60.922718333" lon="15.179701667">
<time>2014-07-06T11:21:40Z</time>
 <fix>none</fix>
 <sat>0</sat>
</trkpt>
<trkpt lat="60.922793333" lon="15.179670000">
<time>2014-07-06T11:21:41Z</time>
 <fix>none</fix>
 <sat>0</sat>
</trkpt>
<trkpt lat="60.922870000" lon="15.179663333">
<time>2014-07-06T11:21:42Z</time>
 <fix>none</fix>
 <sat>0</sat>
</trkpt>
<trkpt lat="60.922960000" lon="15.179698333">
<time>2014-07-06T11:21:43Z</time>
 <fix>none</fix>
 <sat>0</sat>
</trkpt>
<trkpt lat="60.923050000" lon="15.179763333">
<time>2014-07-06T11:21:44Z</time>
 <fix>none</fix>
 <sat>0</sat>
</trkpt>
<trkpt lat="60.923050000" lon="15.179763333">
<time>2014-07-06T11:21:45Z</time>
 <fix>none</fix>
 <sat>0</sat>
</trkpt>
<trkpt lat="60.923138333" lon="15.179818333">
<time>2014-07-06T11:21:46Z</time>
 <fix>none</fix>
 <sat>0</sat>
</trkpt>
<trkpt lat="60.923226667" lon="15.179881667">
<time>2014-07-06T11:21:47Z</time>
 <fix>none</fix>
 <sat>0</sat>
</trkpt>
<trkpt lat="60.923226667" lon="15.179881667">
<time>2014-07-06T11:21:48Z</time>
 <fix>none</fix>
 <sat>0</sat>
</trkpt>
<trkpt lat="60.923450000" lon="15.180050000">
<time>2014-07-06T11:21:49Z</time>
 <fix>none</fix>
 <sat>0</sat>
</trkpt>
<trkpt lat="60.923450000" lon="15.180050000">
<time>2014-07-06T11:21:50Z</time>
 <fix>none</fix>
 <sat>0</sat>
</trkpt>
<trkpt lat="60.923595000" lon="15.180165000">
<time>2014-07-06T11:21:51Z</time>
 <fix>none</fix>
 <sat>0</sat>
</trkpt>
<trkpt lat="60.923595000" lon="15.180165000">
<time>2014-07-06T11:21:52Z</time>
 <fix>none</fix>
 <sat>0</sat>
</trkpt>
<trkpt lat="60.923595000" lon="15.180165000">
<time>2014-07-06T11:21:53Z</time>
 <fix>none</fix>
 <sat>0</sat>
</trkpt>
<trkpt lat="60.923715000" lon="15.180226667">
<time>2014-07-06T11:21:54Z</time>
 <fix>none</fix>
 <sat>0</sat>
</trkpt>
<trkpt lat="60.923865000" lon="15.180331667">
<time>2014-07-06T11:21:55Z</time>
 <fix>none</fix>
 <sat>0</sat>
</trkpt>
<trkpt lat="60.923911667" lon="15.180338333">
<time>2014-07-06T11:21:56Z</time>
 <fix>none</fix>
 <sat>0</sat>
</trkpt>
<trkpt lat="60.924015000" lon="15.180361667">
<time>2014-07-06T11:21:57Z</time>
 <fix>none</fix>
 <sat>0</sat>
</trkpt>
<trkpt lat="60.924036667" lon="15.180373333">
<time>2014-07-06T11:21:58Z</time>
 <fix>none</fix>
 <sat>0</sat>
</trkpt>
<trkpt lat="60.924070000" lon="15.180378333">
<time>2014-07-06T11:21:59Z</time>
 <fix>none</fix>
 <sat>0</sat>
</trkpt>
<trkpt lat="60.924100000" lon="15.180356667">
<time>2014-07-06T11:22:00Z</time>
 <fix>none</fix>
 <sat>0</sat>
</trkpt>
<trkpt lat="60.924150000" lon="15.180345000">
<time>2014-07-06T11:22:01Z</time>
 <fix>none</fix>
 <sat>0</sat>
</trkpt>
<trkpt lat="60.924188333" lon="15.180370000">
<time>2014-07-06T11:22:02Z</time>
 <fix>none</fix>
 <sat>0</sat>
</trkpt>
<trkpt lat="60.924225000" lon="15.180380000">
<time>2014-07-06T11:22:03Z</time>
 <fix>none</fix>
 <sat>0</sat>
</trkpt>
<trkpt lat="60.924268333" lon="15.180406667">
<time>2014-07-06T11:22:04Z</time>
 <fix>none</fix>
 <sat>0</sat>
</trkpt>
<trkpt lat="60.924301667" lon="15.180435000">
<time>2014-07-06T11:22:05Z</time>
 <fix>none</fix>
 <sat>0</sat>
</trkpt>
<trkpt lat="60.924340000" lon="15.180441667">
<time>2014-07-06T11:22:06Z</time>
 <fix>none</fix>
 <sat>0</sat>
</trkpt>
<trkpt lat="60.924381667" lon="15.180451667">
<time>2014-07-06T11:22:07Z</time>
 <fix>none</fix>
 <sat>0</sat>
</trkpt>
<trkpt lat="60.924381667" lon="15.180451667">
<time>2014-07-06T11:22:08Z</time>
 <fix>none</fix>
 <sat>0</sat>
</trkpt>
<trkpt lat="60.924418333" lon="15.180458333">
<time>2014-07-06T11:22:09Z</time>
 <fix>none</fix>
 <sat>0</sat>
</trkpt>
<trkpt lat="60.924458333" lon="15.180476667">
<time>2014-07-06T11:22:10Z</time>
 <fix>none</fix>
 <sat>0</sat>
</trkpt>
<trkpt lat="60.924496667" lon="15.180496667">
<time>2014-07-06T11:22:11Z</time>
 <fix>none</fix>
 <sat>0</sat>
</trkpt>
<trkpt lat="60.924541667" lon="15.180503333">
<time>2014-07-06T11:22:12Z</time>
 <fix>none</fix>
 <sat>0</sat>
</trkpt>
<trkpt lat="60.924635000" lon="15.180546667">
<time>2014-07-06T11:22:13Z</time>
 <fix>none</fix>
 <sat>0</sat>
</trkpt>
<trkpt lat="60.924686667" lon="15.180573333">
<time>2014-07-06T11:22:14Z</time>
 <fix>none</fix>
 <sat>0</sat>
</trkpt>
<trkpt lat="60.924686667" lon="15.180573333">
<time>2014-07-06T11:22:15Z</time>
 <fix>none</fix>
 <sat>0</sat>
</trkpt>
<trkpt lat="60.924788333" lon="15.180643333">
<time>2014-07-06T11:22:16Z</time>
 <fix>none</fix>
 <sat>0</sat>
</trkpt>
<trkpt lat="60.924828333" lon="15.180681667">
<time>2014-07-06T11:22:17Z</time>
 <fix>none</fix>
 <sat>0</sat>
</trkpt>
<trkpt lat="60.924866667" lon="15.180700000">
<time>2014-07-06T11:22:18Z</time>
 <fix>none</fix>
 <sat>0</sat>
</trkpt>
<trkpt lat="60.924913333" lon="15.180726667">
<time>2014-07-06T11:22:19Z</time>
 <fix>none</fix>
 <sat>0</sat>
</trkpt>
<trkpt lat="60.924965000" lon="15.180770000">
<time>2014-07-06T11:22:20Z</time>
 <fix>none</fix>
 <sat>0</sat>
</trkpt>
<trkpt lat="60.925011667" lon="15.180801667">
<time>2014-07-06T11:22:21Z</time>
 <fix>none</fix>
 <sat>0</sat>
</trkpt>
<trkpt lat="60.925060000" lon="15.180826667">
<time>2014-07-06T11:22:22Z</time>
 <fix>none</fix>
 <sat>0</sat>
</trkpt>
<trkpt lat="60.925101667" lon="15.180866667">
<time>2014-07-06T11:22:23Z</time>
 <fix>none</fix>
 <sat>0</sat>
</trkpt>
<trkpt lat="60.925148333" lon="15.180905000">
<time>2014-07-06T11:22:24Z</time>
 <fix>none</fix>
 <sat>0</sat>
</trkpt>
<trkpt lat="60.925176667" lon="15.180963333">
<time>2014-07-06T11:22:25Z</time>
 <fix>none</fix>
 <sat>0</sat>
</trkpt>
<trkpt lat="60.925205000" lon="15.181015000">
<time>2014-07-06T11:22:26Z</time>
 <fix>none</fix>
 <sat>0</sat>
</trkpt>
<trkpt lat="60.925225000" lon="15.181085000">
<time>2014-07-06T11:22:27Z</time>
 <fix>none</fix>
 <sat>0</sat>
</trkpt>
<trkpt lat="60.925253333" lon="15.181146667">
<time>2014-07-06T11:22:28Z</time>
 <fix>none</fix>
 <sat>0</sat>
</trkpt>
<trkpt lat="60.925283333" lon="15.181213333">
<time>2014-07-06T11:22:29Z</time>
 <fix>none</fix>
 <sat>0</sat>
</trkpt>
<trkpt lat="60.925320000" lon="15.181266667">
<time>2014-07-06T11:22:30Z</time>
 <fix>none</fix>
 <sat>0</sat>
</trkpt>
<trkpt lat="60.925320000" lon="15.181266667">
<time>2014-07-06T11:22:31Z</time>
 <fix>none</fix>
 <sat>0</sat>
</trkpt>
<trkpt lat="60.925356667" lon="15.181308333">
<time>2014-07-06T11:22:32Z</time>
 <fix>none</fix>
 <sat>0</sat>
</trkpt>
<trkpt lat="60.925383333" lon="15.181355000">
<time>2014-07-06T11:22:33Z</time>
 <fix>none</fix>
 <sat>0</sat>
</trkpt>
<trkpt lat="60.925410000" lon="15.181406667">
<time>2014-07-06T11:22:34Z</time>
 <fix>none</fix>
 <sat>0</sat>
</trkpt>
<trkpt lat="60.925436667" lon="15.181471667">
<time>2014-07-06T11:22:35Z</time>
 <fix>none</fix>
 <sat>0</sat>
</trkpt>
<trkpt lat="60.925465000" lon="15.181533333">
<time>2014-07-06T11:22:36Z</time>
 <fix>none</fix>
 <sat>0</sat>
</trkpt>
<trkpt lat="60.925496667" lon="15.181583333">
<time>2014-07-06T11:22:37Z</time>
 <fix>none</fix>
 <sat>0</sat>
</trkpt>
<trkpt lat="60.925570000" lon="15.181701667">
<time>2014-07-06T11:22:38Z</time>
 <fix>none</fix>
 <sat>0</sat>
</trkpt>
<trkpt lat="60.925598333" lon="15.181771667">
<time>2014-07-06T11:22:39Z</time>
 <fix>none</fix>
 <sat>0</sat>
</trkpt>
<trkpt lat="60.925623333" lon="15.181845000">
<time>2014-07-06T11:22:40Z</time>
 <fix>none</fix>
 <sat>0</sat>
</trkpt>
<trkpt lat="60.925641667" lon="15.181898333">
<time>2014-07-06T11:22:41Z</time>
 <fix>none</fix>
 <sat>0</sat>
</trkpt>
<trkpt lat="60.925663333" lon="15.181933333">
<time>2014-07-06T11:22:42Z</time>
 <fix>none</fix>
 <sat>0</sat>
</trkpt>
<trkpt lat="60.925691667" lon="15.181976667">
<time>2014-07-06T11:22:43Z</time>
 <fix>none</fix>
 <sat>0</sat>
</trkpt>
<trkpt lat="60.925720000" lon="15.182018333">
<time>2014-07-06T11:22:44Z</time>
 <fix>none</fix>
 <sat>0</sat>
</trkpt>
<trkpt lat="60.925756667" lon="15.182066667">
<time>2014-07-06T11:22:45Z</time>
 <fix>none</fix>
 <sat>0</sat>
</trkpt>
<trkpt lat="60.925785000" lon="15.182148333">
<time>2014-07-06T11:22:46Z</time>
 <fix>none</fix>
 <sat>0</sat>
</trkpt>
<trkpt lat="60.925813333" lon="15.182225000">
<time>2014-07-06T11:22:47Z</time>
 <fix>none</fix>
 <sat>0</sat>
</trkpt>
<trkpt lat="60.925840000" lon="15.182293333">
<time>2014-07-06T11:22:48Z</time>
 <fix>none</fix>
 <sat>0</sat>
</trkpt>
<trkpt lat="60.925865000" lon="15.182358333">
<time>2014-07-06T11:22:49Z</time>
 <fix>none</fix>
 <sat>0</sat>
</trkpt>
<trkpt lat="60.925900000" lon="15.182443333">
<time>2014-07-06T11:22:50Z</time>
 <fix>none</fix>
 <sat>0</sat>
</trkpt>
<trkpt lat="60.925948333" lon="15.182530000">
<time>2014-07-06T11:22:51Z</time>
 <fix>none</fix>
 <sat>0</sat>
</trkpt>
<trkpt lat="60.925993333" lon="15.182608333">
<time>2014-07-06T11:22:52Z</time>
 <fix>none</fix>
 <sat>0</sat>
</trkpt>
<trkpt lat="60.926038333" lon="15.182658333">
<time>2014-07-06T11:22:53Z</time>
 <fix>none</fix>
 <sat>0</sat>
</trkpt>
<trkpt lat="60.926038333" lon="15.182658333">
<time>2014-07-06T11:22:54Z</time>
 <fix>none</fix>
 <sat>0</sat>
</trkpt>
<trkpt lat="60.926078333" lon="15.182690000">
<time>2014-07-06T11:22:55Z</time>
 <fix>none</fix>
 <sat>0</sat>
</trkpt>
<trkpt lat="60.926118333" lon="15.182736667">
<time>2014-07-06T11:22:56Z</time>
 <fix>none</fix>
 <sat>0</sat>
</trkpt>
<trkpt lat="60.926118333" lon="15.182736667">
<time>2014-07-06T11:22:57Z</time>
 <fix>none</fix>
 <sat>0</sat>
</trkpt>
<trkpt lat="60.926238333" lon="15.182790000">
<time>2014-07-06T11:22:58Z</time>
 <fix>none</fix>
 <sat>0</sat>
</trkpt>
<trkpt lat="60.926238333" lon="15.182790000">
<time>2014-07-06T11:22:59Z</time>
 <fix>none</fix>
 <sat>0</sat>
</trkpt>
<trkpt lat="60.926238333" lon="15.182790000">
<time>2014-07-06T11:23:00Z</time>
 <fix>none</fix>
 <sat>0</sat>
</trkpt>
<trkpt lat="60.926306667" lon="15.182855000">
<time>2014-07-06T11:23:01Z</time>
 <fix>none</fix>
 <sat>0</sat>
</trkpt>
<trkpt lat="60.926308333" lon="15.183016667">
<time>2014-07-06T11:23:02Z</time>
 <fix>none</fix>
 <sat>0</sat>
</trkpt>
<trkpt lat="60.926313333" lon="15.183125000">
<time>2014-07-06T11:23:03Z</time>
 <fix>none</fix>
 <sat>0</sat>
</trkpt>
<trkpt lat="60.926335000" lon="15.183196667">
<time>2014-07-06T11:23:04Z</time>
 <fix>none</fix>
 <sat>0</sat>
</trkpt>
<trkpt lat="60.926356667" lon="15.183291667">
<time>2014-07-06T11:23:05Z</time>
 <fix>none</fix>
 <sat>0</sat>
</trkpt>
<trkpt lat="60.926388333" lon="15.183370000">
<time>2014-07-06T11:23:06Z</time>
 <fix>none</fix>
 <sat>0</sat>
</trkpt>
<trkpt lat="60.926416667" lon="15.183438333">
<time>2014-07-06T11:23:07Z</time>
 <fix>none</fix>
 <sat>0</sat>
</trkpt>
<trkpt lat="60.926443333" lon="15.183498333">
<time>2014-07-06T11:23:08Z</time>
 <fix>none</fix>
 <sat>0</sat>
</trkpt>
<trkpt lat="60.926476667" lon="15.183553333">
<time>2014-07-06T11:23:09Z</time>
 <fix>none</fix>
 <sat>0</sat>
</trkpt>
<trkpt lat="60.926501667" lon="15.183621667">
<time>2014-07-06T11:23:10Z</time>
 <fix>none</fix>
 <sat>0</sat>
</trkpt>
<trkpt lat="60.926525000" lon="15.183670000">
<time>2014-07-06T11:23:11Z</time>
 <fix>none</fix>
 <sat>0</sat>
</trkpt>
<trkpt lat="60.926551667" lon="15.183705000">
<time>2014-07-06T11:23:12Z</time>
 <fix>none</fix>
 <sat>0</sat>
</trkpt>
<trkpt lat="60.926586667" lon="15.183743333">
<time>2014-07-06T11:23:13Z</time>
 <fix>none</fix>
 <sat>0</sat>
</trkpt>
<trkpt lat="60.926620000" lon="15.183786667">
<time>2014-07-06T11:23:14Z</time>
 <fix>none</fix>
 <sat>0</sat>
</trkpt>
<trkpt lat="60.926653333" lon="15.183823333">
<time>2014-07-06T11:23:15Z</time>
 <fix>none</fix>
 <sat>0</sat>
</trkpt>
<trkpt lat="60.926653333" lon="15.183823333">
<time>2014-07-06T11:23:16Z</time>
 <fix>none</fix>
 <sat>0</sat>
</trkpt>
<trkpt lat="60.926680000" lon="15.183863333">
<time>2014-07-06T11:23:17Z</time>
 <fix>none</fix>
 <sat>0</sat>
</trkpt>
<trkpt lat="60.926706667" lon="15.183911667">
<time>2014-07-06T11:23:18Z</time>
 <fix>none</fix>
 <sat>0</sat>
</trkpt>
<trkpt lat="60.926735000" lon="15.183958333">
<time>2014-07-06T11:23:19Z</time>
 <fix>none</fix>
 <sat>0</sat>
</trkpt>
<trkpt lat="60.926770000" lon="15.184021667">
<time>2014-07-06T11:23:20Z</time>
 <fix>none</fix>
 <sat>0</sat>
</trkpt>
<trkpt lat="60.926810000" lon="15.184078333">
<time>2014-07-06T11:23:21Z</time>
 <fix>none</fix>
 <sat>0</sat>
</trkpt>
<trkpt lat="60.926841667" lon="15.184140000">
<time>2014-07-06T11:23:22Z</time>
 <fix>none</fix>
 <sat>0</sat>
</trkpt>
<trkpt lat="60.926916667" lon="15.184250000">
<time>2014-07-06T11:23:23Z</time>
 <fix>none</fix>
 <sat>0</sat>
</trkpt>
<trkpt lat="60.926955000" lon="15.184295000">
<time>2014-07-06T11:23:24Z</time>
 <fix>none</fix>
 <sat>0</sat>
</trkpt>
<trkpt lat="60.926988333" lon="15.184350000">
<time>2014-07-06T11:23:25Z</time>
 <fix>none</fix>
 <sat>0</sat>
</trkpt>
<trkpt lat="60.927020000" lon="15.184398333">
<time>2014-07-06T11:23:26Z</time>
 <fix>none</fix>
 <sat>0</sat>
</trkpt>
<trkpt lat="60.927020000" lon="15.184398333">
<time>2014-07-06T11:23:27Z</time>
 <fix>none</fix>
 <sat>0</sat>
</trkpt>
<trkpt lat="60.927020000" lon="15.184398333">
<time>2014-07-06T11:23:28Z</time>
 <fix>none</fix>
 <sat>0</sat>
</trkpt>
<trkpt lat="60.927096667" lon="15.184551667">
<time>2014-07-06T11:23:29Z</time>
 <fix>none</fix>
 <sat>0</sat>
</trkpt>
<trkpt lat="60.927096667" lon="15.184551667">
<time>2014-07-06T11:23:30Z</time>
 <fix>none</fix>
 <sat>0</sat>
</trkpt>
<trkpt lat="60.927148333" lon="15.184663333">
<time>2014-07-06T11:23:31Z</time>
 <fix>none</fix>
 <sat>0</sat>
</trkpt>
<trkpt lat="60.927148333" lon="15.184663333">
<time>2014-07-06T11:23:32Z</time>
 <fix>none</fix>
 <sat>0</sat>
</trkpt>
<trkpt lat="60.927201667" lon="15.184806667">
<time>2014-07-06T11:23:33Z</time>
 <fix>none</fix>
 <sat>0</sat>
</trkpt>
<trkpt lat="60.927226667" lon="15.184873333">
<time>2014-07-06T11:23:34Z</time>
 <fix>none</fix>
 <sat>0</sat>
</trkpt>
<trkpt lat="60.927256667" lon="15.184978333">
<time>2014-07-06T11:23:35Z</time>
 <fix>none</fix>
 <sat>0</sat>
</trkpt>
<trkpt lat="60.927298333" lon="15.185061667">
<time>2014-07-06T11:23:36Z</time>
 <fix>none</fix>
 <sat>0</sat>
</trkpt>
<trkpt lat="60.927336667" lon="15.185135000">
<time>2014-07-06T11:23:37Z</time>
 <fix>none</fix>
 <sat>0</sat>
</trkpt>
<trkpt lat="60.927376667" lon="15.185208333">
<time>2014-07-06T11:23:38Z</time>
 <fix>none</fix>
 <sat>0</sat>
</trkpt>
<trkpt lat="60.927376667" lon="15.185208333">
<time>2014-07-06T11:23:39Z</time>
 <fix>none</fix>
 <sat>0</sat>
</trkpt>
<trkpt lat="60.927395000" lon="15.185291667">
<time>2014-07-06T11:23:40Z</time>
 <fix>none</fix>
 <sat>0</sat>
</trkpt>
<trkpt lat="60.927415000" lon="15.185371667">
<time>2014-07-06T11:23:41Z</time>
 <fix>none</fix>
 <sat>0</sat>
</trkpt>
<trkpt lat="60.927441667" lon="15.185435000">
<time>2014-07-06T11:23:42Z</time>
 <fix>none</fix>
 <sat>0</sat>
</trkpt>
<trkpt lat="60.927471667" lon="15.185501667">
<time>2014-07-06T11:23:43Z</time>
 <fix>none</fix>
 <sat>0</sat>
</trkpt>
<trkpt lat="60.927510000" lon="15.185571667">
<time>2014-07-06T11:23:44Z</time>
 <fix>none</fix>
 <sat>0</sat>
</trkpt>
<trkpt lat="60.927590000" lon="15.185706667">
<time>2014-07-06T11:23:45Z</time>
 <fix>none</fix>
 <sat>0</sat>
</trkpt>
<trkpt lat="60.927631667" lon="15.185770000">
<time>2014-07-06T11:23:46Z</time>
 <fix>none</fix>
 <sat>0</sat>
</trkpt>
<trkpt lat="60.927680000" lon="15.185803333">
<time>2014-07-06T11:23:47Z</time>
 <fix>none</fix>
 <sat>0</sat>
</trkpt>
<trkpt lat="60.927735000" lon="15.185871667">
<time>2014-07-06T11:23:48Z</time>
 <fix>none</fix>
 <sat>0</sat>
</trkpt>
<trkpt lat="60.927798333" lon="15.185921667">
<time>2014-07-06T11:23:49Z</time>
 <fix>none</fix>
 <sat>0</sat>
</trkpt>
<trkpt lat="60.927845000" lon="15.185953333">
<time>2014-07-06T11:23:50Z</time>
 <fix>none</fix>
 <sat>0</sat>
</trkpt>
<trkpt lat="60.927895000" lon="15.185973333">
<time>2014-07-06T11:23:51Z</time>
 <fix>none</fix>
 <sat>0</sat>
</trkpt>
<trkpt lat="60.927940000" lon="15.185998333">
<time>2014-07-06T11:23:52Z</time>
 <fix>none</fix>
 <sat>0</sat>
</trkpt>
<trkpt lat="60.927991667" lon="15.186003333">
<time>2014-07-06T11:23:53Z</time>
 <fix>none</fix>
 <sat>0</sat>
</trkpt>
<trkpt lat="60.928036667" lon="15.185995000">
<time>2014-07-06T11:23:54Z</time>
 <fix>none</fix>
 <sat>0</sat>
</trkpt>
<trkpt lat="60.928081667" lon="15.185990000">
<time>2014-07-06T11:23:55Z</time>
 <fix>none</fix>
 <sat>0</sat>
</trkpt>
<trkpt lat="60.928120000" lon="15.185986667">
<time>2014-07-06T11:23:56Z</time>
 <fix>none</fix>
 <sat>0</sat>
</trkpt>
<trkpt lat="60.928155000" lon="15.185973333">
<time>2014-07-06T11:23:57Z</time>
 <fix>none</fix>
 <sat>0</sat>
</trkpt>
<trkpt lat="60.928185000" lon="15.185975000">
<time>2014-07-06T11:23:58Z</time>
 <fix>none</fix>
 <sat>0</sat>
</trkpt>
<trkpt lat="60.928221667" lon="15.185981667">
<time>2014-07-06T11:23:59Z</time>
 <fix>none</fix>
 <sat>0</sat>
</trkpt>
<trkpt lat="60.928221667" lon="15.185981667">
<time>2014-07-06T11:24:00Z</time>
 <fix>none</fix>
 <sat>0</sat>
</trkpt>
<trkpt lat="60.928221667" lon="15.185981667">
<time>2014-07-06T11:24:01Z</time>
 <fix>none</fix>
 <sat>0</sat>
</trkpt>
<trkpt lat="60.928335000" lon="15.186003333">
<time>2014-07-06T11:24:02Z</time>
 <fix>none</fix>
 <sat>0</sat>
</trkpt>
<trkpt lat="60.928335000" lon="15.186003333">
<time>2014-07-06T11:24:03Z</time>
 <fix>none</fix>
 <sat>0</sat>
</trkpt>
<trkpt lat="60.928430000" lon="15.186040000">
<time>2014-07-06T11:24:04Z</time>
 <fix>none</fix>
 <sat>0</sat>
</trkpt>
<trkpt lat="60.928430000" lon="15.186040000">
<time>2014-07-06T11:24:05Z</time>
 <fix>none</fix>
 <sat>0</sat>
</trkpt>
<trkpt lat="60.928520000" lon="15.186195000">
<time>2014-07-06T11:24:06Z</time>
 <fix>none</fix>
 <sat>0</sat>
</trkpt>
<trkpt lat="60.928665000" lon="15.186250000">
<time>2014-07-06T11:24:07Z</time>
 <fix>none</fix>
 <sat>0</sat>
</trkpt>
<trkpt lat="60.928665000" lon="15.186250000">
<time>2014-07-06T11:24:08Z</time>
 <fix>none</fix>
 <sat>0</sat>
</trkpt>
<trkpt lat="60.928665000" lon="15.186250000">
<time>2014-07-06T11:24:09Z</time>
 <fix>none</fix>
 <sat>0</sat>
</trkpt>
<trkpt lat="60.928718333" lon="15.186425000">
<time>2014-07-06T11:24:10Z</time>
 <fix>none</fix>
 <sat>0</sat>
</trkpt>
<trkpt lat="60.928718333" lon="15.186425000">
<time>2014-07-06T11:24:11Z</time>
 <fix>none</fix>
 <sat>0</sat>
</trkpt>
<trkpt lat="60.928818333" lon="15.186421667">
<time>2014-07-06T11:24:12Z</time>
 <fix>none</fix>
 <sat>0</sat>
</trkpt>
<trkpt lat="60.928818333" lon="15.186421667">
<time>2014-07-06T11:24:13Z</time>
 <fix>none</fix>
 <sat>0</sat>
</trkpt>
<trkpt lat="60.928771667" lon="15.186385000">
<time>2014-07-06T11:24:14Z</time>
 <fix>none</fix>
 <sat>0</sat>
</trkpt>
<trkpt lat="60.928771667" lon="15.186385000">
<time>2014-07-06T11:24:15Z</time>
 <fix>none</fix>
 <sat>0</sat>
</trkpt>
<trkpt lat="60.928881667" lon="15.186361667">
<time>2014-07-06T11:24:16Z</time>
 <fix>none</fix>
 <sat>0</sat>
</trkpt>
<trkpt lat="60.928881667" lon="15.186361667">
<time>2014-07-06T11:24:17Z</time>
 <fix>none</fix>
 <sat>0</sat>
</trkpt>
<trkpt lat="60.928970000" lon="15.186513333">
<time>2014-07-06T11:24:18Z</time>
 <fix>none</fix>
 <sat>0</sat>
</trkpt>
<trkpt lat="60.928970000" lon="15.186513333">
<time>2014-07-06T11:24:19Z</time>
 <fix>none</fix>
 <sat>0</sat>
</trkpt>
<trkpt lat="60.929055000" lon="15.186575000">
<time>2014-07-06T11:24:20Z</time>
 <fix>none</fix>
 <sat>0</sat>
</trkpt>
<trkpt lat="60.929055000" lon="15.186575000">
<time>2014-07-06T11:24:21Z</time>
 <fix>none</fix>
 <sat>0</sat>
</trkpt>
<trkpt lat="60.929093333" lon="15.186631667">
<time>2014-07-06T11:24:22Z</time>
 <fix>none</fix>
 <sat>0</sat>
</trkpt>
<trkpt lat="60.929093333" lon="15.186631667">
<time>2014-07-06T11:24:23Z</time>
 <fix>none</fix>
 <sat>0</sat>
</trkpt>
<trkpt lat="60.929110000" lon="15.186735000">
<time>2014-07-06T11:24:24Z</time>
 <fix>none</fix>
 <sat>0</sat>
</trkpt>
<trkpt lat="60.929110000" lon="15.186735000">
<time>2014-07-06T11:24:25Z</time>
 <fix>none</fix>
 <sat>0</sat>
</trkpt>
<trkpt lat="60.929145000" lon="15.186803333">
<time>2014-07-06T11:24:26Z</time>
 <fix>none</fix>
 <sat>0</sat>
</trkpt>
<trkpt lat="60.929145000" lon="15.186803333">
<time>2014-07-06T11:24:27Z</time>
 <fix>none</fix>
 <sat>0</sat>
</trkpt>
<trkpt lat="60.929275000" lon="15.186845000">
<time>2014-07-06T11:24:28Z</time>
 <fix>none</fix>
 <sat>0</sat>
</trkpt>
<trkpt lat="60.929275000" lon="15.186845000">
<time>2014-07-06T11:24:29Z</time>
 <fix>none</fix>
 <sat>0</sat>
</trkpt>
<trkpt lat="60.929318333" lon="15.186981667">
<time>2014-07-06T11:24:30Z</time>
 <fix>none</fix>
 <sat>0</sat>
</trkpt>
<trkpt lat="60.929318333" lon="15.186981667">
<time>2014-07-06T11:24:31Z</time>
 <fix>none</fix>
 <sat>0</sat>
</trkpt>
<trkpt lat="60.929318333" lon="15.186981667">
<time>2014-07-06T11:24:32Z</time>
 <fix>none</fix>
 <sat>0</sat>
</trkpt>
<trkpt lat="60.929415000" lon="15.187205000">
<time>2014-07-06T11:24:33Z</time>
 <fix>none</fix>
 <sat>0</sat>
</trkpt>
<trkpt lat="60.929396667" lon="15.187343333">
<time>2014-07-06T11:24:34Z</time>
 <fix>none</fix>
 <sat>0</sat>
</trkpt>
<trkpt lat="60.929338333" lon="15.187468333">
<time>2014-07-06T11:24:35Z</time>
 <fix>none</fix>
 <sat>0</sat>
</trkpt>
<trkpt lat="60.929296667" lon="15.187543333">
<time>2014-07-06T11:24:36Z</time>
 <fix>none</fix>
 <sat>0</sat>
</trkpt>
<trkpt lat="60.929270000" lon="15.187621667">
<time>2014-07-06T11:24:37Z</time>
 <fix>none</fix>
 <sat>0</sat>
</trkpt>
<trkpt lat="60.929235000" lon="15.187705000">
<time>2014-07-06T11:24:38Z</time>
 <fix>none</fix>
 <sat>0</sat>
</trkpt>
<trkpt lat="60.929208333" lon="15.187796667">
<time>2014-07-06T11:24:39Z</time>
 <fix>none</fix>
 <sat>0</sat>
</trkpt>
<trkpt lat="60.929171667" lon="15.187918333">
<time>2014-07-06T11:24:40Z</time>
 <fix>none</fix>
 <sat>0</sat>
</trkpt>
<trkpt lat="60.929148333" lon="15.188041667">
<time>2014-07-06T11:24:41Z</time>
 <fix>none</fix>
 <sat>0</sat>
</trkpt>
<trkpt lat="60.929123333" lon="15.188145000">
<time>2014-07-06T11:24:42Z</time>
 <fix>none</fix>
 <sat>0</sat>
</trkpt>
<trkpt lat="60.929105000" lon="15.188226667">
<time>2014-07-06T11:24:43Z</time>
 <fix>none</fix>
 <sat>0</sat>
</trkpt>
<trkpt lat="60.929101667" lon="15.188298333">
<time>2014-07-06T11:24:44Z</time>
 <fix>none</fix>
 <sat>0</sat>
</trkpt>
<trkpt lat="60.929106667" lon="15.188365000">
<time>2014-07-06T11:24:45Z</time>
 <fix>none</fix>
 <sat>0</sat>
</trkpt>
<trkpt lat="60.929126667" lon="15.188425000">
<time>2014-07-06T11:24:46Z</time>
 <fix>none</fix>
 <sat>0</sat>
</trkpt>
<trkpt lat="60.929165000" lon="15.188470000">
<time>2014-07-06T11:24:47Z</time>
 <fix>none</fix>
 <sat>0</sat>
</trkpt>
<trkpt lat="60.929165000" lon="15.188470000">
<time>2014-07-06T11:24:48Z</time>
 <fix>none</fix>
 <sat>0</sat>
</trkpt>
<trkpt lat="60.929233333" lon="15.188480000">
<time>2014-07-06T11:24:49Z</time>
 <fix>none</fix>
 <sat>0</sat>
</trkpt>
<trkpt lat="60.929258333" lon="15.188513333">
<time>2014-07-06T11:24:50Z</time>
 <fix>none</fix>
 <sat>0</sat>
</trkpt>
<trkpt lat="60.929305000" lon="15.188538333">
<time>2014-07-06T11:24:51Z</time>
 <fix>none</fix>
 <sat>0</sat>
</trkpt>
<trkpt lat="60.929336667" lon="15.188581667">
<time>2014-07-06T11:24:52Z</time>
 <fix>none</fix>
 <sat>0</sat>
</trkpt>
<trkpt lat="60.929430000" lon="15.188685000">
<time>2014-07-06T11:24:53Z</time>
 <fix>none</fix>
 <sat>0</sat>
</trkpt>
<trkpt lat="60.929486667" lon="15.188706667">
<time>2014-07-06T11:24:54Z</time>
 <fix>none</fix>
 <sat>0</sat>
</trkpt>
<trkpt lat="60.929540000" lon="15.188768333">
<time>2014-07-06T11:24:55Z</time>
 <fix>none</fix>
 <sat>0</sat>
</trkpt>
<trkpt lat="60.929581667" lon="15.188825000">
<time>2014-07-06T11:24:56Z</time>
 <fix>none</fix>
 <sat>0</sat>
</trkpt>
<trkpt lat="60.929613333" lon="15.188875000">
<time>2014-07-06T11:24:57Z</time>
 <fix>none</fix>
 <sat>0</sat>
</trkpt>
<trkpt lat="60.929653333" lon="15.188920000">
<time>2014-07-06T11:24:58Z</time>
 <fix>none</fix>
 <sat>0</sat>
</trkpt>
<trkpt lat="60.929685000" lon="15.188968333">
<time>2014-07-06T11:24:59Z</time>
 <fix>none</fix>
 <sat>0</sat>
</trkpt>
<trkpt lat="60.929718333" lon="15.189023333">
<time>2014-07-06T11:25:00Z</time>
 <fix>none</fix>
 <sat>0</sat>
</trkpt>
<trkpt lat="60.929755000" lon="15.189078333">
<time>2014-07-06T11:25:01Z</time>
 <fix>none</fix>
 <sat>0</sat>
</trkpt>
<trkpt lat="60.929786667" lon="15.189130000">
<time>2014-07-06T11:25:02Z</time>
 <fix>none</fix>
 <sat>0</sat>
</trkpt>
<trkpt lat="60.929815000" lon="15.189175000">
<time>2014-07-06T11:25:03Z</time>
 <fix>none</fix>
 <sat>0</sat>
</trkpt>
<trkpt lat="60.929840000" lon="15.189220000">
<time>2014-07-06T11:25:04Z</time>
 <fix>none</fix>
 <sat>0</sat>
</trkpt>
<trkpt lat="60.929858333" lon="15.189258333">
<time>2014-07-06T11:25:05Z</time>
 <fix>none</fix>
 <sat>0</sat>
</trkpt>
<trkpt lat="60.929858333" lon="15.189258333">
<time>2014-07-06T11:25:06Z</time>
 <fix>none</fix>
 <sat>0</sat>
</trkpt>
<trkpt lat="60.929858333" lon="15.189258333">
<time>2014-07-06T11:25:07Z</time>
 <fix>none</fix>
 <sat>0</sat>
</trkpt>
<trkpt lat="60.929910000" lon="15.189390000">
<time>2014-07-06T11:25:08Z</time>
 <fix>none</fix>
 <sat>0</sat>
</trkpt>
<trkpt lat="60.929910000" lon="15.189390000">
<time>2014-07-06T11:25:09Z</time>
 <fix>none</fix>
 <sat>0</sat>
</trkpt>
<trkpt lat="60.929943333" lon="15.189506667">
<time>2014-07-06T11:25:10Z</time>
 <fix>none</fix>
 <sat>0</sat>
</trkpt>
<trkpt lat="60.929943333" lon="15.189506667">
<time>2014-07-06T11:25:11Z</time>
 <fix>none</fix>
 <sat>0</sat>
</trkpt>
<trkpt lat="60.929978333" lon="15.189631667">
<time>2014-07-06T11:25:12Z</time>
 <fix>none</fix>
 <sat>0</sat>
</trkpt>
<trkpt lat="60.929978333" lon="15.189631667">
<time>2014-07-06T11:25:13Z</time>
 <fix>none</fix>
 <sat>0</sat>
</trkpt>
<trkpt lat="60.930025000" lon="15.189763333">
<time>2014-07-06T11:25:14Z</time>
 <fix>none</fix>
 <sat>0</sat>
</trkpt>
<trkpt lat="60.930025000" lon="15.189763333">
<time>2014-07-06T11:25:15Z</time>
 <fix>none</fix>
 <sat>0</sat>
</trkpt>
<trkpt lat="60.930085000" lon="15.189881667">
<time>2014-07-06T11:25:16Z</time>
 <fix>none</fix>
 <sat>0</sat>
</trkpt>
<trkpt lat="60.930085000" lon="15.189881667">
<time>2014-07-06T11:25:17Z</time>
 <fix>none</fix>
 <sat>0</sat>
</trkpt>
<trkpt lat="60.930085000" lon="15.189881667">
<time>2014-07-06T11:25:18Z</time>
 <fix>none</fix>
 <sat>0</sat>
</trkpt>
<trkpt lat="60.930121667" lon="15.190031667">
<time>2014-07-06T11:25:19Z</time>
 <fix>none</fix>
 <sat>0</sat>
</trkpt>
<trkpt lat="60.930156667" lon="15.190181667">
<time>2014-07-06T11:25:20Z</time>
 <fix>none</fix>
 <sat>0</sat>
</trkpt>
<trkpt lat="60.930180000" lon="15.190240000">
<time>2014-07-06T11:25:21Z</time>
 <fix>none</fix>
 <sat>0</sat>
</trkpt>
<trkpt lat="60.930193333" lon="15.190348333">
<time>2014-07-06T11:25:22Z</time>
 <fix>none</fix>
 <sat>0</sat>
</trkpt>
<trkpt lat="60.930110000" lon="15.190491667">
<time>2014-07-06T11:25:23Z</time>
 <fix>none</fix>
 <sat>0</sat>
</trkpt>
<trkpt lat="60.930108333" lon="15.190600000">
<time>2014-07-06T11:25:24Z</time>
 <fix>none</fix>
 <sat>0</sat>
</trkpt>
<trkpt lat="60.930113333" lon="15.190710000">
<time>2014-07-06T11:25:25Z</time>
 <fix>none</fix>
 <sat>0</sat>
</trkpt>
<trkpt lat="60.930078333" lon="15.190856667">
<time>2014-07-06T11:25:26Z</time>
 <fix>none</fix>
 <sat>0</sat>
</trkpt>
<trkpt lat="60.930060000" lon="15.191001667">
<time>2014-07-06T11:25:27Z</time>
 <fix>none</fix>
 <sat>0</sat>
</trkpt>
<trkpt lat="60.930036667" lon="15.191116667">
<time>2014-07-06T11:25:28Z</time>
 <fix>none</fix>
 <sat>0</sat>
</trkpt>
<trkpt lat="60.930025000" lon="15.191226667">
<time>2014-07-06T11:25:29Z</time>
 <fix>none</fix>
 <sat>0</sat>
</trkpt>
<trkpt lat="60.930010000" lon="15.191313333">
<time>2014-07-06T11:25:30Z</time>
 <fix>none</fix>
 <sat>0</sat>
</trkpt>
<trkpt lat="60.930001667" lon="15.191381667">
<time>2014-07-06T11:25:31Z</time>
 <fix>none</fix>
 <sat>0</sat>
</trkpt>
<trkpt lat="60.929996667" lon="15.191463333">
<time>2014-07-06T11:25:32Z</time>
 <fix>none</fix>
 <sat>0</sat>
</trkpt>
<trkpt lat="60.929996667" lon="15.191463333">
<time>2014-07-06T11:25:33Z</time>
 <fix>none</fix>
 <sat>0</sat>
</trkpt>
<trkpt lat="60.929990000" lon="15.191556667">
<time>2014-07-06T11:25:34Z</time>
 <fix>none</fix>
 <sat>0</sat>
</trkpt>
<trkpt lat="60.929968333" lon="15.191656667">
<time>2014-07-06T11:25:35Z</time>
 <fix>none</fix>
 <sat>0</sat>
</trkpt>
<trkpt lat="60.929963333" lon="15.191731667">
<time>2014-07-06T11:25:36Z</time>
 <fix>none</fix>
 <sat>0</sat>
</trkpt>
<trkpt lat="60.929968333" lon="15.191793333">
<time>2014-07-06T11:25:37Z</time>
 <fix>none</fix>
 <sat>0</sat>
</trkpt>
<trkpt lat="60.929980000" lon="15.191850000">
<time>2014-07-06T11:25:38Z</time>
 <fix>none</fix>
 <sat>0</sat>
</trkpt>
<trkpt lat="60.929995000" lon="15.191886667">
<time>2014-07-06T11:25:39Z</time>
 <fix>none</fix>
 <sat>0</sat>
</trkpt>
<trkpt lat="60.930000000" lon="15.191933333">
<time>2014-07-06T11:25:40Z</time>
 <fix>none</fix>
 <sat>0</sat>
</trkpt>
<trkpt lat="60.930101667" lon="15.191961667">
<time>2014-07-06T11:25:41Z</time>
 <fix>none</fix>
 <sat>0</sat>
</trkpt>
<trkpt lat="60.930180000" lon="15.191951667">
<time>2014-07-06T11:25:42Z</time>
 <fix>none</fix>
 <sat>0</sat>
</trkpt>
<trkpt lat="60.930245000" lon="15.191960000">
<time>2014-07-06T11:25:43Z</time>
 <fix>none</fix>
 <sat>0</sat>
</trkpt>
<trkpt lat="60.930303333" lon="15.191963333">
<time>2014-07-06T11:25:44Z</time>
 <fix>none</fix>
 <sat>0</sat>
</trkpt>
<trkpt lat="60.930348333" lon="15.191956667">
<time>2014-07-06T11:25:45Z</time>
 <fix>none</fix>
 <sat>0</sat>
</trkpt>
<trkpt lat="60.930403333" lon="15.191935000">
<time>2014-07-06T11:25:46Z</time>
 <fix>none</fix>
 <sat>0</sat>
</trkpt>
<trkpt lat="60.930453333" lon="15.191931667">
<time>2014-07-06T11:25:47Z</time>
 <fix>none</fix>
 <sat>0</sat>
</trkpt>
<trkpt lat="60.930510000" lon="15.191910000">
<time>2014-07-06T11:25:48Z</time>
 <fix>none</fix>
 <sat>0</sat>
</trkpt>
<trkpt lat="60.930570000" lon="15.191891667">
<time>2014-07-06T11:25:49Z</time>
 <fix>none</fix>
 <sat>0</sat>
</trkpt>
<trkpt lat="60.930635000" lon="15.191888333">
<time>2014-07-06T11:25:50Z</time>
 <fix>none</fix>
 <sat>0</sat>
</trkpt>
<trkpt lat="60.930688333" lon="15.191903333">
<time>2014-07-06T11:25:51Z</time>
 <fix>none</fix>
 <sat>0</sat>
</trkpt>
<trkpt lat="60.930688333" lon="15.191903333">
<time>2014-07-06T11:25:52Z</time>
 <fix>none</fix>
 <sat>0</sat>
</trkpt>
<trkpt lat="60.930688333" lon="15.191903333">
<time>2014-07-06T11:25:53Z</time>
 <fix>none</fix>
 <sat>0</sat>
</trkpt>
<trkpt lat="60.930836667" lon="15.191940000">
<time>2014-07-06T11:25:54Z</time>
 <fix>none</fix>
 <sat>0</sat>
</trkpt>
<trkpt lat="60.930836667" lon="15.191940000">
<time>2014-07-06T11:25:55Z</time>
 <fix>none</fix>
 <sat>0</sat>
</trkpt>
<trkpt lat="60.930940000" lon="15.191988333">
<time>2014-07-06T11:25:56Z</time>
 <fix>none</fix>
 <sat>0</sat>
</trkpt>
<trkpt lat="60.930940000" lon="15.191988333">
<time>2014-07-06T11:25:57Z</time>
 <fix>none</fix>
 <sat>0</sat>
</trkpt>
<trkpt lat="60.931035000" lon="15.192056667">
<time>2014-07-06T11:25:58Z</time>
 <fix>none</fix>
 <sat>0</sat>
</trkpt>
<trkpt lat="60.931035000" lon="15.192056667">
<time>2014-07-06T11:25:59Z</time>
 <fix>none</fix>
 <sat>0</sat>
</trkpt>
<trkpt lat="60.931150000" lon="15.192095000">
<time>2014-07-06T11:26:00Z</time>
 <fix>none</fix>
 <sat>0</sat>
</trkpt>
<trkpt lat="60.931250000" lon="15.192158333">
<time>2014-07-06T11:26:01Z</time>
 <fix>none</fix>
 <sat>0</sat>
</trkpt>
<trkpt lat="60.931250000" lon="15.192158333">
<time>2014-07-06T11:26:02Z</time>
 <fix>none</fix>
 <sat>0</sat>
</trkpt>
<trkpt lat="60.931250000" lon="15.192158333">
<time>2014-07-06T11:26:03Z</time>
 <fix>none</fix>
 <sat>0</sat>
</trkpt>
<trkpt lat="60.931315000" lon="15.192275000">
<time>2014-07-06T11:26:04Z</time>
 <fix>none</fix>
 <sat>0</sat>
</trkpt>
<trkpt lat="60.931315000" lon="15.192275000">
<time>2014-07-06T11:26:05Z</time>
 <fix>none</fix>
 <sat>0</sat>
</trkpt>
<trkpt lat="60.931386667" lon="15.192370000">
<time>2014-07-06T11:26:06Z</time>
 <fix>none</fix>
 <sat>0</sat>
</trkpt>
<trkpt lat="60.931386667" lon="15.192370000">
<time>2014-07-06T11:26:07Z</time>
 <fix>none</fix>
 <sat>0</sat>
</trkpt>
<trkpt lat="60.931453333" lon="15.192476667">
<time>2014-07-06T11:26:08Z</time>
 <fix>none</fix>
 <sat>0</sat>
</trkpt>
<trkpt lat="60.931453333" lon="15.192476667">
<time>2014-07-06T11:26:09Z</time>
 <fix>none</fix>
 <sat>0</sat>
</trkpt>
<trkpt lat="60.931523333" lon="15.192590000">
<time>2014-07-06T11:26:10Z</time>
 <fix>none</fix>
 <sat>0</sat>
</trkpt>
<trkpt lat="60.931523333" lon="15.192590000">
<time>2014-07-06T11:26:11Z</time>
 <fix>none</fix>
 <sat>0</sat>
</trkpt>
<trkpt lat="60.931626667" lon="15.192703333">
<time>2014-07-06T11:26:12Z</time>
 <fix>none</fix>
 <sat>0</sat>
</trkpt>
<trkpt lat="60.931670000" lon="15.192751667">
<time>2014-07-06T11:26:13Z</time>
 <fix>none</fix>
 <sat>0</sat>
</trkpt>
<trkpt lat="60.931726667" lon="15.192883333">
<time>2014-07-06T11:26:14Z</time>
 <fix>none</fix>
 <sat>0</sat>
</trkpt>
<trkpt lat="60.931748333" lon="15.193038333">
<time>2014-07-06T11:26:15Z</time>
 <fix>none</fix>
 <sat>0</sat>
</trkpt>
<trkpt lat="60.931795000" lon="15.193165000">
<time>2014-07-06T11:26:16Z</time>
 <fix>none</fix>
 <sat>0</sat>
</trkpt>
<trkpt lat="60.931831667" lon="15.193326667">
<time>2014-07-06T11:26:17Z</time>
 <fix>none</fix>
 <sat>0</sat>
</trkpt>
<trkpt lat="60.931868333" lon="15.193465000">
<time>2014-07-06T11:26:18Z</time>
 <fix>none</fix>
 <sat>0</sat>
</trkpt>
<trkpt lat="60.931868333" lon="15.193465000">
<time>2014-07-06T11:26:19Z</time>
 <fix>none</fix>
 <sat>0</sat>
</trkpt>
<trkpt lat="60.931913333" lon="15.193595000">
<time>2014-07-06T11:26:20Z</time>
 <fix>none</fix>
 <sat>0</sat>
</trkpt>
<trkpt lat="60.931936667" lon="15.193706667">
<time>2014-07-06T11:26:21Z</time>
 <fix>none</fix>
 <sat>0</sat>
</trkpt>
<trkpt lat="60.931960000" lon="15.193828333">
<time>2014-07-06T11:26:22Z</time>
 <fix>none</fix>
 <sat>0</sat>
</trkpt>
<trkpt lat="60.932005000" lon="15.193925000">
<time>2014-07-06T11:26:23Z</time>
 <fix>none</fix>
 <sat>0</sat>
</trkpt>
<trkpt lat="60.932035000" lon="15.194000000">
<time>2014-07-06T11:26:24Z</time>
 <fix>none</fix>
 <sat>0</sat>
</trkpt>
<trkpt lat="60.932083333" lon="15.194185000">
<time>2014-07-06T11:26:25Z</time>
 <fix>none</fix>
 <sat>0</sat>
</trkpt>
<trkpt lat="60.932083333" lon="15.194185000">
<time>2014-07-06T11:26:26Z</time>
 <fix>none</fix>
 <sat>0</sat>
</trkpt>
<trkpt lat="60.932153333" lon="15.194343333">
<time>2014-07-06T11:26:27Z</time>
 <fix>none</fix>
 <sat>0</sat>
</trkpt>
<trkpt lat="60.932190000" lon="15.194413333">
<time>2014-07-06T11:26:28Z</time>
 <fix>none</fix>
 <sat>0</sat>
</trkpt>
<trkpt lat="60.932238333" lon="15.194490000">
<time>2014-07-06T11:26:29Z</time>
 <fix>none</fix>
 <sat>0</sat>
</trkpt>
<trkpt lat="60.932313333" lon="15.194590000">
<time>2014-07-06T11:26:30Z</time>
 <fix>none</fix>
 <sat>0</sat>
</trkpt>
<trkpt lat="60.932366667" lon="15.194656667">
<time>2014-07-06T11:26:31Z</time>
 <fix>none</fix>
 <sat>0</sat>
</trkpt>
<trkpt lat="60.932418333" lon="15.194725000">
<time>2014-07-06T11:26:32Z</time>
 <fix>none</fix>
 <sat>0</sat>
</trkpt>
<trkpt lat="60.932461667" lon="15.194765000">
<time>2014-07-06T11:26:33Z</time>
 <fix>none</fix>
 <sat>0</sat>
</trkpt>
<trkpt lat="60.932516667" lon="15.194811667">
<time>2014-07-06T11:26:34Z</time>
 <fix>none</fix>
 <sat>0</sat>
</trkpt>
<trkpt lat="60.932563333" lon="15.194840000">
<time>2014-07-06T11:26:35Z</time>
 <fix>none</fix>
 <sat>0</sat>
</trkpt>
<trkpt lat="60.932603333" lon="15.194848333">
<time>2014-07-06T11:26:36Z</time>
 <fix>none</fix>
 <sat>0</sat>
</trkpt>
<trkpt lat="60.932650000" lon="15.194831667">
<time>2014-07-06T11:26:37Z</time>
 <fix>none</fix>
 <sat>0</sat>
</trkpt>
<trkpt lat="60.932700000" lon="15.194798333">
<time>2014-07-06T11:26:38Z</time>
 <fix>none</fix>
 <sat>0</sat>
</trkpt>
<trkpt lat="60.932746667" lon="15.194760000">
<time>2014-07-06T11:26:39Z</time>
 <fix>none</fix>
 <sat>0</sat>
</trkpt>
<trkpt lat="60.932798333" lon="15.194735000">
<time>2014-07-06T11:26:40Z</time>
 <fix>none</fix>
 <sat>0</sat>
</trkpt>
<trkpt lat="60.932798333" lon="15.194735000">
<time>2014-07-06T11:26:41Z</time>
 <fix>none</fix>
 <sat>0</sat>
</trkpt>
<trkpt lat="60.932860000" lon="15.194718333">
<time>2014-07-06T11:26:42Z</time>
 <fix>none</fix>
 <sat>0</sat>
</trkpt>
<trkpt lat="60.932928333" lon="15.194713333">
<time>2014-07-06T11:26:43Z</time>
 <fix>none</fix>
 <sat>0</sat>
</trkpt>
<trkpt lat="60.933013333" lon="15.194708333">
<time>2014-07-06T11:26:44Z</time>
 <fix>none</fix>
 <sat>0</sat>
</trkpt>
<trkpt lat="60.933111667" lon="15.194701667">
<time>2014-07-06T11:26:45Z</time>
 <fix>none</fix>
 <sat>0</sat>
</trkpt>
<trkpt lat="60.933175000" lon="15.194693333">
<time>2014-07-06T11:26:46Z</time>
 <fix>none</fix>
 <sat>0</sat>
</trkpt>
<trkpt lat="60.933250000" lon="15.194608333">
<time>2014-07-06T11:26:47Z</time>
 <fix>none</fix>
 <sat>0</sat>
</trkpt>
<trkpt lat="60.933250000" lon="15.194608333">
<time>2014-07-06T11:26:48Z</time>
 <fix>none</fix>
 <sat>0</sat>
</trkpt>
<trkpt lat="60.933250000" lon="15.194608333">
<time>2014-07-06T11:26:49Z</time>
 <fix>none</fix>
 <sat>0</sat>
</trkpt>
<trkpt lat="60.933431667" lon="15.194646667">
<time>2014-07-06T11:26:50Z</time>
 <fix>none</fix>
 <sat>0</sat>
</trkpt>
<trkpt lat="60.933431667" lon="15.194646667">
<time>2014-07-06T11:26:51Z</time>
 <fix>none</fix>
 <sat>0</sat>
</trkpt>
<trkpt lat="60.933621667" lon="15.194691667">
<time>2014-07-06T11:26:52Z</time>
 <fix>none</fix>
 <sat>0</sat>
</trkpt>
<trkpt lat="60.933666667" lon="15.194731667">
<time>2014-07-06T11:26:53Z</time>
 <fix>none</fix>
 <sat>0</sat>
</trkpt>
<trkpt lat="60.933646667" lon="15.194940000">
<time>2014-07-06T11:26:54Z</time>
 <fix>none</fix>
 <sat>0</sat>
</trkpt>
<trkpt lat="60.933681667" lon="15.195041667">
<time>2014-07-06T11:26:55Z</time>
 <fix>none</fix>
 <sat>0</sat>
</trkpt>
<trkpt lat="60.933725000" lon="15.195141667">
<time>2014-07-06T11:26:56Z</time>
 <fix>none</fix>
 <sat>0</sat>
</trkpt>
<trkpt lat="60.933775000" lon="15.195245000">
<time>2014-07-06T11:26:57Z</time>
 <fix>none</fix>
 <sat>0</sat>
</trkpt>
<trkpt lat="60.933815000" lon="15.195355000">
<time>2014-07-06T11:26:58Z</time>
 <fix>none</fix>
 <sat>0</sat>
</trkpt>
<trkpt lat="60.933841667" lon="15.195490000">
<time>2014-07-06T11:26:59Z</time>
 <fix>none</fix>
 <sat>0</sat>
</trkpt>
<trkpt lat="60.933888333" lon="15.195616667">
<time>2014-07-06T11:27:00Z</time>
 <fix>none</fix>
 <sat>0</sat>
</trkpt>
<trkpt lat="60.933928333" lon="15.195750000">
<time>2014-07-06T11:27:01Z</time>
 <fix>none</fix>
 <sat>0</sat>
</trkpt>
<trkpt lat="60.933993333" lon="15.195875000">
<time>2014-07-06T11:27:02Z</time>
 <fix>none</fix>
 <sat>0</sat>
</trkpt>
<trkpt lat="60.934053333" lon="15.195993333">
<time>2014-07-06T11:27:03Z</time>
 <fix>none</fix>
 <sat>0</sat>
</trkpt>
<trkpt lat="60.934053333" lon="15.195993333">
<time>2014-07-06T11:27:04Z</time>
 <fix>none</fix>
 <sat>0</sat>
</trkpt>
<trkpt lat="60.934081667" lon="15.196126667">
<time>2014-07-06T11:27:05Z</time>
 <fix>none</fix>
 <sat>0</sat>
</trkpt>
<trkpt lat="60.934110000" lon="15.196250000">
<time>2014-07-06T11:27:06Z</time>
 <fix>none</fix>
 <sat>0</sat>
</trkpt>
<trkpt lat="60.934138333" lon="15.196361667">
<time>2014-07-06T11:27:07Z</time>
 <fix>none</fix>
 <sat>0</sat>
</trkpt>
<trkpt lat="60.934156667" lon="15.196471667">
<time>2014-07-06T11:27:08Z</time>
 <fix>none</fix>
 <sat>0</sat>
</trkpt>
<trkpt lat="60.934175000" lon="15.196578333">
<time>2014-07-06T11:27:09Z</time>
 <fix>none</fix>
 <sat>0</sat>
</trkpt>
<trkpt lat="60.934220000" lon="15.196786667">
<time>2014-07-06T11:27:10Z</time>
 <fix>none</fix>
 <sat>0</sat>
</trkpt>
<trkpt lat="60.934220000" lon="15.196786667">
<time>2014-07-06T11:27:11Z</time>
 <fix>none</fix>
 <sat>0</sat>
</trkpt>
<trkpt lat="60.934250000" lon="15.197015000">
<time>2014-07-06T11:27:12Z</time>
 <fix>none</fix>
 <sat>0</sat>
</trkpt>
<trkpt lat="60.934270000" lon="15.197120000">
<time>2014-07-06T11:27:13Z</time>
 <fix>none</fix>
 <sat>0</sat>
</trkpt>
<trkpt lat="60.934295000" lon="15.197186667">
<time>2014-07-06T11:27:14Z</time>
 <fix>none</fix>
 <sat>0</sat>
</trkpt>
<trkpt lat="60.934318333" lon="15.197251667">
<time>2014-07-06T11:27:15Z</time>
 <fix>none</fix>
 <sat>0</sat>
</trkpt>
<trkpt lat="60.934341667" lon="15.197345000">
<time>2014-07-06T11:27:16Z</time>
 <fix>none</fix>
 <sat>0</sat>
</trkpt>
<trkpt lat="60.934386667" lon="15.197423333">
<time>2014-07-06T11:27:17Z</time>
 <fix>none</fix>
 <sat>0</sat>
</trkpt>
<trkpt lat="60.934438333" lon="15.197483333">
<time>2014-07-06T11:27:18Z</time>
 <fix>none</fix>
 <sat>0</sat>
</trkpt>
<trkpt lat="60.934498333" lon="15.197505000">
<time>2014-07-06T11:27:19Z</time>
 <fix>none</fix>
 <sat>0</sat>
</trkpt>
<trkpt lat="60.934551667" lon="15.197526667">
<time>2014-07-06T11:27:20Z</time>
 <fix>none</fix>
 <sat>0</sat>
</trkpt>
<trkpt lat="60.934606667" lon="15.197548333">
<time>2014-07-06T11:27:21Z</time>
 <fix>none</fix>
 <sat>0</sat>
</trkpt>
<trkpt lat="60.934665000" lon="15.197576667">
<time>2014-07-06T11:27:22Z</time>
 <fix>none</fix>
 <sat>0</sat>
</trkpt>
<trkpt lat="60.934725000" lon="15.197590000">
<time>2014-07-06T11:27:23Z</time>
 <fix>none</fix>
 <sat>0</sat>
</trkpt>
<trkpt lat="60.934773333" lon="15.197610000">
<time>2014-07-06T11:27:24Z</time>
 <fix>none</fix>
 <sat>0</sat>
</trkpt>
<trkpt lat="60.934816667" lon="15.197630000">
<time>2014-07-06T11:27:25Z</time>
 <fix>none</fix>
 <sat>0</sat>
</trkpt>
<trkpt lat="60.934863333" lon="15.197646667">
<time>2014-07-06T11:27:26Z</time>
 <fix>none</fix>
 <sat>0</sat>
</trkpt>
<trkpt lat="60.934863333" lon="15.197646667">
<time>2014-07-06T11:27:27Z</time>
 <fix>none</fix>
 <sat>0</sat>
</trkpt>
<trkpt lat="60.934863333" lon="15.197646667">
<time>2014-07-06T11:27:28Z</time>
 <fix>none</fix>
 <sat>0</sat>
</trkpt>
<trkpt lat="60.935018333" lon="15.197666667">
<time>2014-07-06T11:27:29Z</time>
 <fix>none</fix>
 <sat>0</sat>
</trkpt>
<trkpt lat="60.935018333" lon="15.197666667">
<time>2014-07-06T11:27:30Z</time>
 <fix>none</fix>
 <sat>0</sat>
</trkpt>
<trkpt lat="60.935133333" lon="15.197711667">
<time>2014-07-06T11:27:31Z</time>
 <fix>none</fix>
 <sat>0</sat>
</trkpt>
<trkpt lat="60.935133333" lon="15.197711667">
<time>2014-07-06T11:27:32Z</time>
 <fix>none</fix>
 <sat>0</sat>
</trkpt>
<trkpt lat="60.935241667" lon="15.197753333">
<time>2014-07-06T11:27:33Z</time>
 <fix>none</fix>
 <sat>0</sat>
</trkpt>
<trkpt lat="60.935241667" lon="15.197753333">
<time>2014-07-06T11:27:34Z</time>
 <fix>none</fix>
 <sat>0</sat>
</trkpt>
<trkpt lat="60.935241667" lon="15.197753333">
<time>2014-07-06T11:27:35Z</time>
 <fix>none</fix>
 <sat>0</sat>
</trkpt>
<trkpt lat="60.935368333" lon="15.197790000">
<time>2014-07-06T11:27:36Z</time>
 <fix>none</fix>
 <sat>0</sat>
</trkpt>
<trkpt lat="60.935490000" lon="15.197803333">
<time>2014-07-06T11:27:37Z</time>
 <fix>none</fix>
 <sat>0</sat>
</trkpt>
<trkpt lat="60.935490000" lon="15.197803333">
<time>2014-07-06T11:27:38Z</time>
 <fix>none</fix>
 <sat>0</sat>
</trkpt>
<trkpt lat="60.935591667" lon="15.197801667">
<time>2014-07-06T11:27:39Z</time>
 <fix>none</fix>
 <sat>0</sat>
</trkpt>
<trkpt lat="60.935591667" lon="15.197801667">
<time>2014-07-06T11:27:40Z</time>
 <fix>none</fix>
 <sat>0</sat>
</trkpt>
<trkpt lat="60.935691667" lon="15.197853333">
<time>2014-07-06T11:27:41Z</time>
 <fix>none</fix>
 <sat>0</sat>
</trkpt>
<trkpt lat="60.935691667" lon="15.197853333">
<time>2014-07-06T11:27:42Z</time>
 <fix>none</fix>
 <sat>0</sat>
</trkpt>
<trkpt lat="60.935786667" lon="15.197843333">
<time>2014-07-06T11:27:43Z</time>
 <fix>none</fix>
 <sat>0</sat>
</trkpt>
<trkpt lat="60.935815000" lon="15.197823333">
<time>2014-07-06T11:27:44Z</time>
 <fix>none</fix>
 <sat>0</sat>
</trkpt>
<trkpt lat="60.935855000" lon="15.197765000">
<time>2014-07-06T11:27:45Z</time>
 <fix>none</fix>
 <sat>0</sat>
</trkpt>
<trkpt lat="60.935893333" lon="15.197703333">
<time>2014-07-06T11:27:46Z</time>
 <fix>none</fix>
 <sat>0</sat>
</trkpt>
<trkpt lat="60.935950000" lon="15.197668333">
<time>2014-07-06T11:27:47Z</time>
 <fix>none</fix>
 <sat>0</sat>
</trkpt>
<trkpt lat="60.936005000" lon="15.197631667">
<time>2014-07-06T11:27:48Z</time>
 <fix>none</fix>
 <sat>0</sat>
</trkpt>
<trkpt lat="60.936053333" lon="15.197621667">
<time>2014-07-06T11:27:49Z</time>
 <fix>none</fix>
 <sat>0</sat>
</trkpt>
<trkpt lat="60.936053333" lon="15.197621667">
<time>2014-07-06T11:27:50Z</time>
 <fix>none</fix>
 <sat>0</sat>
</trkpt>
<trkpt lat="60.936101667" lon="15.197613333">
<time>2014-07-06T11:27:51Z</time>
 <fix>none</fix>
 <sat>0</sat>
</trkpt>
<trkpt lat="60.936151667" lon="15.197615000">
<time>2014-07-06T11:27:52Z</time>
 <fix>none</fix>
 <sat>0</sat>
</trkpt>
<trkpt lat="60.936201667" lon="15.197641667">
<time>2014-07-06T11:27:53Z</time>
 <fix>none</fix>
 <sat>0</sat>
</trkpt>
<trkpt lat="60.936236667" lon="15.197676667">
<time>2014-07-06T11:27:54Z</time>
 <fix>none</fix>
 <sat>0</sat>
</trkpt>
<trkpt lat="60.936283333" lon="15.197725000">
<time>2014-07-06T11:27:55Z</time>
 <fix>none</fix>
 <sat>0</sat>
</trkpt>
<trkpt lat="60.936330000" lon="15.197745000">
<time>2014-07-06T11:27:56Z</time>
 <fix>none</fix>
 <sat>0</sat>
</trkpt>
<trkpt lat="60.936330000" lon="15.197745000">
<time>2014-07-06T11:27:57Z</time>
 <fix>none</fix>
 <sat>0</sat>
</trkpt>
<trkpt lat="60.936330000" lon="15.197745000">
<time>2014-07-06T11:27:58Z</time>
 <fix>none</fix>
 <sat>0</sat>
</trkpt>
<trkpt lat="60.936476667" lon="15.197805000">
<time>2014-07-06T11:27:59Z</time>
 <fix>none</fix>
 <sat>0</sat>
</trkpt>
<trkpt lat="60.936591667" lon="15.197853333">
<time>2014-07-06T11:28:00Z</time>
 <fix>none</fix>
 <sat>0</sat>
</trkpt>
<trkpt lat="60.936591667" lon="15.197853333">
<time>2014-07-06T11:28:01Z</time>
 <fix>none</fix>
 <sat>0</sat>
</trkpt>
<trkpt lat="60.936706667" lon="15.197895000">
<time>2014-07-06T11:28:02Z</time>
 <fix>none</fix>
 <sat>0</sat>
</trkpt>
<trkpt lat="60.936706667" lon="15.197895000">
<time>2014-07-06T11:28:03Z</time>
 <fix>none</fix>
 <sat>0</sat>
</trkpt>
<trkpt lat="60.936846667" lon="15.197965000">
<time>2014-07-06T11:28:04Z</time>
 <fix>none</fix>
 <sat>0</sat>
</trkpt>
<trkpt lat="60.936846667" lon="15.197965000">
<time>2014-07-06T11:28:05Z</time>
 <fix>none</fix>
 <sat>0</sat>
</trkpt>
<trkpt lat="60.937040000" lon="15.197951667">
<time>2014-07-06T11:28:06Z</time>
 <fix>none</fix>
 <sat>0</sat>
</trkpt>
<trkpt lat="60.937040000" lon="15.197951667">
<time>2014-07-06T11:28:07Z</time>
 <fix>none</fix>
 <sat>0</sat>
</trkpt>
<trkpt lat="60.937165000" lon="15.198090000">
<time>2014-07-06T11:28:08Z</time>
 <fix>none</fix>
 <sat>0</sat>
</trkpt>
<trkpt lat="60.937186667" lon="15.198176667">
<time>2014-07-06T11:28:09Z</time>
 <fix>none</fix>
 <sat>0</sat>
</trkpt>
<trkpt lat="60.937161667" lon="15.198395000">
<time>2014-07-06T11:28:10Z</time>
 <fix>none</fix>
 <sat>0</sat>
</trkpt>
<trkpt lat="60.937170000" lon="15.198530000">
<time>2014-07-06T11:28:11Z</time>
 <fix>none</fix>
 <sat>0</sat>
</trkpt>
<trkpt lat="60.937191667" lon="15.198646667">
<time>2014-07-06T11:28:12Z</time>
 <fix>none</fix>
 <sat>0</sat>
</trkpt>
<trkpt lat="60.937191667" lon="15.198646667">
<time>2014-07-06T11:28:13Z</time>
 <fix>none</fix>
 <sat>0</sat>
</trkpt>
<trkpt lat="60.937226667" lon="15.198755000">
<time>2014-07-06T11:28:14Z</time>
 <fix>none</fix>
 <sat>0</sat>
</trkpt>
<trkpt lat="60.937256667" lon="15.198836667">
<time>2014-07-06T11:28:15Z</time>
 <fix>none</fix>
 <sat>0</sat>
</trkpt>
<trkpt lat="60.937303333" lon="15.198911667">
<time>2014-07-06T11:28:16Z</time>
 <fix>none</fix>
 <sat>0</sat>
</trkpt>
<trkpt lat="60.937345000" lon="15.198993333">
<time>2014-07-06T11:28:17Z</time>
 <fix>none</fix>
 <sat>0</sat>
</trkpt>
<trkpt lat="60.937413333" lon="15.199191667">
<time>2014-07-06T11:28:18Z</time>
 <fix>none</fix>
 <sat>0</sat>
</trkpt>
<trkpt lat="60.937413333" lon="15.199191667">
<time>2014-07-06T11:28:19Z</time>
 <fix>none</fix>
 <sat>0</sat>
</trkpt>
<trkpt lat="60.937456667" lon="15.199410000">
<time>2014-07-06T11:28:20Z</time>
 <fix>none</fix>
 <sat>0</sat>
</trkpt>
<trkpt lat="60.937496667" lon="15.199513333">
<time>2014-07-06T11:28:21Z</time>
 <fix>none</fix>
 <sat>0</sat>
</trkpt>
<trkpt lat="60.937523333" lon="15.199630000">
<time>2014-07-06T11:28:22Z</time>
 <fix>none</fix>
 <sat>0</sat>
</trkpt>
<trkpt lat="60.937570000" lon="15.199771667">
<time>2014-07-06T11:28:23Z</time>
 <fix>none</fix>
 <sat>0</sat>
</trkpt>
<trkpt lat="60.937626667" lon="15.199873333">
<time>2014-07-06T11:28:24Z</time>
 <fix>none</fix>
 <sat>0</sat>
</trkpt>
<trkpt lat="60.937670000" lon="15.200006667">
<time>2014-07-06T11:28:25Z</time>
 <fix>none</fix>
 <sat>0</sat>
</trkpt>
<trkpt lat="60.937723333" lon="15.200071667">
<time>2014-07-06T11:28:26Z</time>
 <fix>none</fix>
 <sat>0</sat>
</trkpt>
<trkpt lat="60.937770000" lon="15.200150000">
<time>2014-07-06T11:28:27Z</time>
 <fix>none</fix>
 <sat>0</sat>
</trkpt>
<trkpt lat="60.937806667" lon="15.200263333">
<time>2014-07-06T11:28:28Z</time>
 <fix>none</fix>
 <sat>0</sat>
</trkpt>
<trkpt lat="60.937835000" lon="15.200371667">
<time>2014-07-06T11:28:29Z</time>
 <fix>none</fix>
 <sat>0</sat>
</trkpt>
<trkpt lat="60.937871667" lon="15.200476667">
<time>2014-07-06T11:28:30Z</time>
 <fix>none</fix>
 <sat>0</sat>
</trkpt>
<trkpt lat="60.937891667" lon="15.200605000">
<time>2014-07-06T11:28:31Z</time>
 <fix>none</fix>
 <sat>0</sat>
</trkpt>
<trkpt lat="60.937946667" lon="15.200760000">
<time>2014-07-06T11:28:32Z</time>
 <fix>none</fix>
 <sat>0</sat>
</trkpt>
<trkpt lat="60.937968333" lon="15.200903333">
<time>2014-07-06T11:28:33Z</time>
 <fix>none</fix>
 <sat>0</sat>
</trkpt>
<trkpt lat="60.938016667" lon="15.201015000">
<time>2014-07-06T11:28:34Z</time>
 <fix>none</fix>
 <sat>0</sat>
</trkpt>
<trkpt lat="60.938086667" lon="15.201100000">
<time>2014-07-06T11:28:35Z</time>
 <fix>none</fix>
 <sat>0</sat>
</trkpt>
<trkpt lat="60.938086667" lon="15.201100000">
<time>2014-07-06T11:28:36Z</time>
 <fix>none</fix>
 <sat>0</sat>
</trkpt>
<trkpt lat="60.938155000" lon="15.201195000">
<time>2014-07-06T11:28:37Z</time>
 <fix>none</fix>
 <sat>0</sat>
</trkpt>
<trkpt lat="60.938191667" lon="15.201325000">
<time>2014-07-06T11:28:38Z</time>
 <fix>none</fix>
 <sat>0</sat>
</trkpt>
<trkpt lat="60.938241667" lon="15.201425000">
<time>2014-07-06T11:28:39Z</time>
 <fix>none</fix>
 <sat>0</sat>
</trkpt>
<trkpt lat="60.938298333" lon="15.201526667">
<time>2014-07-06T11:28:40Z</time>
 <fix>none</fix>
 <sat>0</sat>
</trkpt>
<trkpt lat="60.938395000" lon="15.201730000">
<time>2014-07-06T11:28:41Z</time>
 <fix>none</fix>
 <sat>0</sat>
</trkpt>
<trkpt lat="60.938395000" lon="15.201730000">
<time>2014-07-06T11:28:42Z</time>
 <fix>none</fix>
 <sat>0</sat>
</trkpt>
<trkpt lat="60.938430000" lon="15.201836667">
<time>2014-07-06T11:28:43Z</time>
 <fix>none</fix>
 <sat>0</sat>
</trkpt>
<trkpt lat="60.938508333" lon="15.202046667">
<time>2014-07-06T11:28:44Z</time>
 <fix>none</fix>
 <sat>0</sat>
</trkpt>
<trkpt lat="60.938550000" lon="15.202156667">
<time>2014-07-06T11:28:45Z</time>
 <fix>none</fix>
 <sat>0</sat>
</trkpt>
<trkpt lat="60.938603333" lon="15.202255000">
<time>2014-07-06T11:28:46Z</time>
 <fix>none</fix>
 <sat>0</sat>
</trkpt>
<trkpt lat="60.938660000" lon="15.202346667">
<time>2014-07-06T11:28:47Z</time>
 <fix>none</fix>
 <sat>0</sat>
</trkpt>
<trkpt lat="60.938705000" lon="15.202441667">
<time>2014-07-06T11:28:48Z</time>
 <fix>none</fix>
 <sat>0</sat>
</trkpt>
<trkpt lat="60.938745000" lon="15.202540000">
<time>2014-07-06T11:28:49Z</time>
 <fix>none</fix>
 <sat>0</sat>
</trkpt>
<trkpt lat="60.938780000" lon="15.202643333">
<time>2014-07-06T11:28:50Z</time>
 <fix>none</fix>
 <sat>0</sat>
</trkpt>
<trkpt lat="60.938823333" lon="15.202730000">
<time>2014-07-06T11:28:51Z</time>
 <fix>none</fix>
 <sat>0</sat>
</trkpt>
<trkpt lat="60.938870000" lon="15.202816667">
<time>2014-07-06T11:28:52Z</time>
 <fix>none</fix>
 <sat>0</sat>
</trkpt>
<trkpt lat="60.938908333" lon="15.202905000">
<time>2014-07-06T11:28:53Z</time>
 <fix>none</fix>
 <sat>0</sat>
</trkpt>
<trkpt lat="60.938948333" lon="15.202998333">
<time>2014-07-06T11:28:54Z</time>
 <fix>none</fix>
 <sat>0</sat>
</trkpt>
<trkpt lat="60.938996667" lon="15.203088333">
<time>2014-07-06T11:28:55Z</time>
 <fix>none</fix>
 <sat>0</sat>
</trkpt>
<trkpt lat="60.939045000" lon="15.203183333">
<time>2014-07-06T11:28:56Z</time>
 <fix>none</fix>
 <sat>0</sat>
</trkpt>
<trkpt lat="60.939086667" lon="15.203291667">
<time>2014-07-06T11:28:57Z</time>
 <fix>none</fix>
 <sat>0</sat>
</trkpt>
<trkpt lat="60.939086667" lon="15.203291667">
<time>2014-07-06T11:28:58Z</time>
 <fix>none</fix>
 <sat>0</sat>
</trkpt>
<trkpt lat="60.939116667" lon="15.203411667">
<time>2014-07-06T11:28:59Z</time>
 <fix>none</fix>
 <sat>0</sat>
</trkpt>
<trkpt lat="60.939145000" lon="15.203538333">
<time>2014-07-06T11:29:00Z</time>
 <fix>none</fix>
 <sat>0</sat>
</trkpt>
<trkpt lat="60.939181667" lon="15.203655000">
<time>2014-07-06T11:29:01Z</time>
 <fix>none</fix>
 <sat>0</sat>
</trkpt>
<trkpt lat="60.939213333" lon="15.203771667">
<time>2014-07-06T11:29:02Z</time>
 <fix>none</fix>
 <sat>0</sat>
</trkpt>
<trkpt lat="60.939250000" lon="15.203886667">
<time>2014-07-06T11:29:03Z</time>
 <fix>none</fix>
 <sat>0</sat>
</trkpt>
<trkpt lat="60.939281667" lon="15.204008333">
<time>2014-07-06T11:29:04Z</time>
 <fix>none</fix>
 <sat>0</sat>
</trkpt>
<trkpt lat="60.939306667" lon="15.204136667">
<time>2014-07-06T11:29:05Z</time>
 <fix>none</fix>
 <sat>0</sat>
</trkpt>
<trkpt lat="60.939341667" lon="15.204258333">
<time>2014-07-06T11:29:06Z</time>
 <fix>none</fix>
 <sat>0</sat>
</trkpt>
<trkpt lat="60.939403333" lon="15.204505000">
<time>2014-07-06T11:29:07Z</time>
 <fix>none</fix>
 <sat>0</sat>
</trkpt>
<trkpt lat="60.939441667" lon="15.204608333">
<time>2014-07-06T11:29:08Z</time>
 <fix>none</fix>
 <sat>0</sat>
</trkpt>
<trkpt lat="60.939483333" lon="15.204705000">
<time>2014-07-06T11:29:09Z</time>
 <fix>none</fix>
 <sat>0</sat>
</trkpt>
<trkpt lat="60.939525000" lon="15.204808333">
<time>2014-07-06T11:29:10Z</time>
 <fix>none</fix>
 <sat>0</sat>
</trkpt>
<trkpt lat="60.939566667" lon="15.204901667">
<time>2014-07-06T11:29:11Z</time>
 <fix>none</fix>
 <sat>0</sat>
</trkpt>
<trkpt lat="60.939610000" lon="15.204978333">
<time>2014-07-06T11:29:12Z</time>
 <fix>none</fix>
 <sat>0</sat>
</trkpt>
<trkpt lat="60.939658333" lon="15.205035000">
<time>2014-07-06T11:29:13Z</time>
 <fix>none</fix>
 <sat>0</sat>
</trkpt>
<trkpt lat="60.939658333" lon="15.205035000">
<time>2014-07-06T11:29:14Z</time>
 <fix>none</fix>
 <sat>0</sat>
</trkpt>
<trkpt lat="60.939658333" lon="15.205035000">
<time>2014-07-06T11:29:15Z</time>
 <fix>none</fix>
 <sat>0</sat>
</trkpt>
<trkpt lat="60.939808333" lon="15.204775000">
<time>2014-07-06T11:29:16Z</time>
 <fix>none</fix>
 <sat>0</sat>
</trkpt>
<trkpt lat="60.939808333" lon="15.204775000">
<time>2014-07-06T11:29:17Z</time>
 <fix>none</fix>
 <sat>0</sat>
</trkpt>
<trkpt lat="60.939845000" lon="15.204710000">
<time>2014-07-06T11:29:18Z</time>
 <fix>none</fix>
 <sat>0</sat>
</trkpt>
<trkpt lat="60.939845000" lon="15.204710000">
<time>2014-07-06T11:29:19Z</time>
 <fix>none</fix>
 <sat>0</sat>
</trkpt>
<trkpt lat="60.939846667" lon="15.204558333">
<time>2014-07-06T11:29:20Z</time>
 <fix>none</fix>
 <sat>0</sat>
</trkpt>
<trkpt lat="60.939846667" lon="15.204558333">
<time>2014-07-06T11:29:21Z</time>
 <fix>none</fix>
 <sat>0</sat>
</trkpt>
<trkpt lat="60.939881667" lon="15.204425000">
<time>2014-07-06T11:29:22Z</time>
 <fix>none</fix>
 <sat>0</sat>
</trkpt>
<trkpt lat="60.939881667" lon="15.204425000">
<time>2014-07-06T11:29:23Z</time>
 <fix>none</fix>
 <sat>0</sat>
</trkpt>
<trkpt lat="60.939881667" lon="15.204296667">
<time>2014-07-06T11:29:24Z</time>
 <fix>none</fix>
 <sat>0</sat>
</trkpt>
<trkpt lat="60.939881667" lon="15.204296667">
<time>2014-07-06T11:29:25Z</time>
 <fix>none</fix>
 <sat>0</sat>
</trkpt>
<trkpt lat="60.939863333" lon="15.204225000">
<time>2014-07-06T11:29:26Z</time>
 <fix>none</fix>
 <sat>0</sat>
</trkpt>
<trkpt lat="60.939863333" lon="15.204225000">
<time>2014-07-06T11:29:27Z</time>
 <fix>none</fix>
 <sat>0</sat>
</trkpt>
<trkpt lat="60.939880000" lon="15.204016667">
<time>2014-07-06T11:29:28Z</time>
 <fix>none</fix>
 <sat>0</sat>
</trkpt>
<trkpt lat="60.939880000" lon="15.204016667">
<time>2014-07-06T11:29:29Z</time>
 <fix>none</fix>
 <sat>0</sat>
</trkpt>
<trkpt lat="60.939891667" lon="15.203771667">
<time>2014-07-06T11:29:30Z</time>
 <fix>none</fix>
 <sat>0</sat>
</trkpt>
<trkpt lat="60.939891667" lon="15.203771667">
<time>2014-07-06T11:29:31Z</time>
 <fix>none</fix>
 <sat>0</sat>
</trkpt>
<trkpt lat="60.939898333" lon="15.203556667">
<time>2014-07-06T11:29:32Z</time>
 <fix>none</fix>
 <sat>0</sat>
</trkpt>
<trkpt lat="60.939898333" lon="15.203556667">
<time>2014-07-06T11:29:33Z</time>
 <fix>none</fix>
 <sat>0</sat>
</trkpt>
<trkpt lat="60.939901667" lon="15.203336667">
<time>2014-07-06T11:29:34Z</time>
 <fix>none</fix>
 <sat>0</sat>
</trkpt>
<trkpt lat="60.939901667" lon="15.203336667">
<time>2014-07-06T11:29:35Z</time>
 <fix>none</fix>
 <sat>0</sat>
</trkpt>
<trkpt lat="60.939895000" lon="15.203060000">
<time>2014-07-06T11:29:36Z</time>
 <fix>none</fix>
 <sat>0</sat>
</trkpt>
<trkpt lat="60.939895000" lon="15.203060000">
<time>2014-07-06T11:29:37Z</time>
 <fix>none</fix>
 <sat>0</sat>
</trkpt>
<trkpt lat="60.939893333" lon="15.202785000">
<time>2014-07-06T11:29:38Z</time>
 <fix>none</fix>
 <sat>0</sat>
</trkpt>
<trkpt lat="60.939893333" lon="15.202785000">
<time>2014-07-06T11:29:39Z</time>
 <fix>none</fix>
 <sat>0</sat>
</trkpt>
<trkpt lat="60.939913333" lon="15.202500000">
<time>2014-07-06T11:29:40Z</time>
 <fix>none</fix>
 <sat>0</sat>
</trkpt>
<trkpt lat="60.939913333" lon="15.202500000">
<time>2014-07-06T11:29:41Z</time>
 <fix>none</fix>
 <sat>0</sat>
</trkpt>
<trkpt lat="60.939905000" lon="15.202223333">
<time>2014-07-06T11:29:42Z</time>
 <fix>none</fix>
 <sat>0</sat>
</trkpt>
<trkpt lat="60.939905000" lon="15.202223333">
<time>2014-07-06T11:29:43Z</time>
 <fix>none</fix>
 <sat>0</sat>
</trkpt>
<trkpt lat="60.939878333" lon="15.201946667">
<time>2014-07-06T11:29:44Z</time>
 <fix>none</fix>
 <sat>0</sat>
</trkpt>
<trkpt lat="60.939878333" lon="15.201946667">
<time>2014-07-06T11:29:45Z</time>
 <fix>none</fix>
 <sat>0</sat>
</trkpt>
<trkpt lat="60.939861667" lon="15.201703333">
<time>2014-07-06T11:29:46Z</time>
 <fix>none</fix>
 <sat>0</sat>
</trkpt>
<trkpt lat="60.939861667" lon="15.201703333">
<time>2014-07-06T11:29:47Z</time>
 <fix>none</fix>
 <sat>0</sat>
</trkpt>
<trkpt lat="60.939870000" lon="15.201505000">
<time>2014-07-06T11:29:48Z</time>
 <fix>none</fix>
 <sat>0</sat>
</trkpt>
<trkpt lat="60.939870000" lon="15.201505000">
<time>2014-07-06T11:29:49Z</time>
 <fix>none</fix>
 <sat>0</sat>
</trkpt>
<trkpt lat="60.939870000" lon="15.201505000">
<time>2014-07-06T11:29:50Z</time>
 <fix>none</fix>
 <sat>0</sat>
</trkpt>
<trkpt lat="60.939930000" lon="15.201335000">
<time>2014-07-06T11:29:51Z</time>
 <fix>none</fix>
 <sat>0</sat>
</trkpt>
<trkpt lat="60.940085000" lon="15.201191667">
<time>2014-07-06T11:29:52Z</time>
 <fix>none</fix>
 <sat>0</sat>
</trkpt>
<trkpt lat="60.940145000" lon="15.201103333">
<time>2014-07-06T11:29:53Z</time>
 <fix>none</fix>
 <sat>0</sat>
</trkpt>
<trkpt lat="60.940211667" lon="15.201000000">
<time>2014-07-06T11:29:54Z</time>
 <fix>none</fix>
 <sat>0</sat>
</trkpt>
<trkpt lat="60.940285000" lon="15.200876667">
<time>2014-07-06T11:29:55Z</time>
 <fix>none</fix>
 <sat>0</sat>
</trkpt>
<trkpt lat="60.940343333" lon="15.200763333">
<time>2014-07-06T11:29:56Z</time>
 <fix>none</fix>
 <sat>0</sat>
</trkpt>
<trkpt lat="60.940408333" lon="15.200661667">
<time>2014-07-06T11:29:57Z</time>
 <fix>none</fix>
 <sat>0</sat>
</trkpt>
<trkpt lat="60.940475000" lon="15.200568333">
<time>2014-07-06T11:29:58Z</time>
 <fix>none</fix>
 <sat>0</sat>
</trkpt>
<trkpt lat="60.940538333" lon="15.200473333">
<time>2014-07-06T11:29:59Z</time>
 <fix>none</fix>
 <sat>0</sat>
</trkpt>
<trkpt lat="60.940595000" lon="15.200376667">
<time>2014-07-06T11:30:00Z</time>
 <fix>none</fix>
 <sat>0</sat>
</trkpt>
<trkpt lat="60.940651667" lon="15.200306667">
<time>2014-07-06T11:30:01Z</time>
 <fix>none</fix>
 <sat>0</sat>
</trkpt>
<trkpt lat="60.940701667" lon="15.200258333">
<time>2014-07-06T11:30:02Z</time>
 <fix>none</fix>
 <sat>0</sat>
</trkpt>
<trkpt lat="60.940750000" lon="15.200220000">
<time>2014-07-06T11:30:03Z</time>
 <fix>none</fix>
 <sat>0</sat>
</trkpt>
<trkpt lat="60.940808333" lon="15.200265000">
<time>2014-07-06T11:30:04Z</time>
 <fix>none</fix>
 <sat>0</sat>
</trkpt>
<trkpt lat="60.940863333" lon="15.200386667">
<time>2014-07-06T11:30:05Z</time>
 <fix>none</fix>
 <sat>0</sat>
</trkpt>
<trkpt lat="60.940900000" lon="15.200483333">
<time>2014-07-06T11:30:06Z</time>
 <fix>none</fix>
 <sat>0</sat>
</trkpt>
<trkpt lat="60.940900000" lon="15.200483333">
<time>2014-07-06T11:30:07Z</time>
 <fix>none</fix>
 <sat>0</sat>
</trkpt>
<trkpt lat="60.940900000" lon="15.200483333">
<time>2014-07-06T11:30:08Z</time>
 <fix>none</fix>
 <sat>0</sat>
</trkpt>
<trkpt lat="60.940996667" lon="15.200695000">
<time>2014-07-06T11:30:09Z</time>
 <fix>none</fix>
 <sat>0</sat>
</trkpt>
<trkpt lat="60.940996667" lon="15.200695000">
<time>2014-07-06T11:30:10Z</time>
 <fix>none</fix>
 <sat>0</sat>
</trkpt>
<trkpt lat="60.941065000" lon="15.200858333">
<time>2014-07-06T11:30:11Z</time>
 <fix>none</fix>
 <sat>0</sat>
</trkpt>
<trkpt lat="60.941126667" lon="15.201020000">
<time>2014-07-06T11:30:12Z</time>
 <fix>none</fix>
 <sat>0</sat>
</trkpt>
<trkpt lat="60.941126667" lon="15.201020000">
<time>2014-07-06T11:30:13Z</time>
 <fix>none</fix>
 <sat>0</sat>
</trkpt>
<trkpt lat="60.941126667" lon="15.201020000">
<time>2014-07-06T11:30:14Z</time>
 <fix>none</fix>
 <sat>0</sat>
</trkpt>
<trkpt lat="60.941170000" lon="15.201180000">
<time>2014-07-06T11:30:15Z</time>
 <fix>none</fix>
 <sat>0</sat>
</trkpt>
<trkpt lat="60.941170000" lon="15.201180000">
<time>2014-07-06T11:30:16Z</time>
 <fix>none</fix>
 <sat>0</sat>
</trkpt>
<trkpt lat="60.941225000" lon="15.201346667">
<time>2014-07-06T11:30:17Z</time>
 <fix>none</fix>
 <sat>0</sat>
</trkpt>
<trkpt lat="60.941225000" lon="15.201346667">
<time>2014-07-06T11:30:18Z</time>
 <fix>none</fix>
 <sat>0</sat>
</trkpt>
<trkpt lat="60.941288333" lon="15.201541667">
<time>2014-07-06T11:30:19Z</time>
 <fix>none</fix>
 <sat>0</sat>
</trkpt>
<trkpt lat="60.941288333" lon="15.201541667">
<time>2014-07-06T11:30:20Z</time>
 <fix>none</fix>
 <sat>0</sat>
</trkpt>
<trkpt lat="60.941345000" lon="15.201738333">
<time>2014-07-06T11:30:21Z</time>
 <fix>none</fix>
 <sat>0</sat>
</trkpt>
<trkpt lat="60.941345000" lon="15.201738333">
<time>2014-07-06T11:30:22Z</time>
 <fix>none</fix>
 <sat>0</sat>
</trkpt>
<trkpt lat="60.941368333" lon="15.201953333">
<time>2014-07-06T11:30:23Z</time>
 <fix>none</fix>
 <sat>0</sat>
</trkpt>
<trkpt lat="60.941368333" lon="15.201953333">
<time>2014-07-06T11:30:24Z</time>
 <fix>none</fix>
 <sat>0</sat>
</trkpt>
<trkpt lat="60.941411667" lon="15.202141667">
<time>2014-07-06T11:30:25Z</time>
 <fix>none</fix>
 <sat>0</sat>
</trkpt>
<trkpt lat="60.941411667" lon="15.202141667">
<time>2014-07-06T11:30:26Z</time>
 <fix>none</fix>
 <sat>0</sat>
</trkpt>
<trkpt lat="60.941448333" lon="15.202346667">
<time>2014-07-06T11:30:27Z</time>
 <fix>none</fix>
 <sat>0</sat>
</trkpt>
<trkpt lat="60.941448333" lon="15.202346667">
<time>2014-07-06T11:30:28Z</time>
 <fix>none</fix>
 <sat>0</sat>
</trkpt>
<trkpt lat="60.941471667" lon="15.202571667">
<time>2014-07-06T11:30:29Z</time>
 <fix>none</fix>
 <sat>0</sat>
</trkpt>
<trkpt lat="60.941471667" lon="15.202571667">
<time>2014-07-06T11:30:30Z</time>
 <fix>none</fix>
 <sat>0</sat>
</trkpt>
<trkpt lat="60.941486667" lon="15.202896667">
<time>2014-07-06T11:30:31Z</time>
 <fix>none</fix>
 <sat>0</sat>
</trkpt>
<trkpt lat="60.941486667" lon="15.202896667">
<time>2014-07-06T11:30:32Z</time>
 <fix>none</fix>
 <sat>0</sat>
</trkpt>
<trkpt lat="60.941585000" lon="15.203135000">
<time>2014-07-06T11:30:33Z</time>
 <fix>none</fix>
 <sat>0</sat>
</trkpt>
<trkpt lat="60.941585000" lon="15.203135000">
<time>2014-07-06T11:30:34Z</time>
 <fix>none</fix>
 <sat>0</sat>
</trkpt>
<trkpt lat="60.941585000" lon="15.203135000">
<time>2014-07-06T11:30:35Z</time>
 <fix>none</fix>
 <sat>0</sat>
</trkpt>
<trkpt lat="60.941688333" lon="15.203288333">
<time>2014-07-06T11:30:36Z</time>
 <fix>none</fix>
 <sat>0</sat>
</trkpt>
<trkpt lat="60.941696667" lon="15.203375000">
<time>2014-07-06T11:30:37Z</time>
 <fix>none</fix>
 <sat>0</sat>
</trkpt>
<trkpt lat="60.941671667" lon="15.203610000">
<time>2014-07-06T11:30:38Z</time>
 <fix>none</fix>
 <sat>0</sat>
</trkpt>
<trkpt lat="60.941671667" lon="15.203716667">
<time>2014-07-06T11:30:39Z</time>
 <fix>none</fix>
 <sat>0</sat>
</trkpt>
<trkpt lat="60.941670000" lon="15.203831667">
<time>2014-07-06T11:30:40Z</time>
 <fix>none</fix>
 <sat>0</sat>
</trkpt>
<trkpt lat="60.941691667" lon="15.203938333">
<time>2014-07-06T11:30:41Z</time>
 <fix>none</fix>
 <sat>0</sat>
</trkpt>
<trkpt lat="60.941700000" lon="15.204056667">
<time>2014-07-06T11:30:42Z</time>
 <fix>none</fix>
 <sat>0</sat>
</trkpt>
<trkpt lat="60.941706667" lon="15.204181667">
<time>2014-07-06T11:30:43Z</time>
 <fix>none</fix>
 <sat>0</sat>
</trkpt>
<trkpt lat="60.941715000" lon="15.204296667">
<time>2014-07-06T11:30:44Z</time>
 <fix>none</fix>
 <sat>0</sat>
</trkpt>
<trkpt lat="60.941733333" lon="15.204393333">
<time>2014-07-06T11:30:45Z</time>
 <fix>none</fix>
 <sat>0</sat>
</trkpt>
<trkpt lat="60.941748333" lon="15.204493333">
<time>2014-07-06T11:30:46Z</time>
 <fix>none</fix>
 <sat>0</sat>
</trkpt>
<trkpt lat="60.941788333" lon="15.204580000">
<time>2014-07-06T11:30:47Z</time>
 <fix>none</fix>
 <sat>0</sat>
</trkpt>
<trkpt lat="60.941821667" lon="15.204675000">
<time>2014-07-06T11:30:48Z</time>
 <fix>none</fix>
 <sat>0</sat>
</trkpt>
<trkpt lat="60.941858333" lon="15.204761667">
<time>2014-07-06T11:30:49Z</time>
 <fix>none</fix>
 <sat>0</sat>
</trkpt>
<trkpt lat="60.941901667" lon="15.204835000">
<time>2014-07-06T11:30:50Z</time>
 <fix>none</fix>
 <sat>0</sat>
</trkpt>
<trkpt lat="60.941946667" lon="15.204908333">
<time>2014-07-06T11:30:51Z</time>
 <fix>none</fix>
 <sat>0</sat>
</trkpt>
<trkpt lat="60.941946667" lon="15.204908333">
<time>2014-07-06T11:30:52Z</time>
 <fix>none</fix>
 <sat>0</sat>
</trkpt>
<trkpt lat="60.941980000" lon="15.204986667">
<time>2014-07-06T11:30:53Z</time>
 <fix>none</fix>
 <sat>0</sat>
</trkpt>
<trkpt lat="60.942018333" lon="15.205066667">
<time>2014-07-06T11:30:54Z</time>
 <fix>none</fix>
 <sat>0</sat>
</trkpt>
<trkpt lat="60.942056667" lon="15.205146667">
<time>2014-07-06T11:30:55Z</time>
 <fix>none</fix>
 <sat>0</sat>
</trkpt>
<trkpt lat="60.942101667" lon="15.205231667">
<time>2014-07-06T11:30:56Z</time>
 <fix>none</fix>
 <sat>0</sat>
</trkpt>
<trkpt lat="60.942141667" lon="15.205328333">
<time>2014-07-06T11:30:57Z</time>
 <fix>none</fix>
 <sat>0</sat>
</trkpt>
<trkpt lat="60.942183333" lon="15.205416667">
<time>2014-07-06T11:30:58Z</time>
 <fix>none</fix>
 <sat>0</sat>
</trkpt>
<trkpt lat="60.942215000" lon="15.205510000">
<time>2014-07-06T11:30:59Z</time>
 <fix>none</fix>
 <sat>0</sat>
</trkpt>
<trkpt lat="60.942238333" lon="15.205611667">
<time>2014-07-06T11:31:00Z</time>
 <fix>none</fix>
 <sat>0</sat>
</trkpt>
<trkpt lat="60.942298333" lon="15.205805000">
<time>2014-07-06T11:31:01Z</time>
 <fix>none</fix>
 <sat>0</sat>
</trkpt>
<trkpt lat="60.942325000" lon="15.205910000">
<time>2014-07-06T11:31:02Z</time>
 <fix>none</fix>
 <sat>0</sat>
</trkpt>
<trkpt lat="60.942345000" lon="15.206021667">
<time>2014-07-06T11:31:03Z</time>
 <fix>none</fix>
 <sat>0</sat>
</trkpt>
<trkpt lat="60.942361667" lon="15.206133333">
<time>2014-07-06T11:31:04Z</time>
 <fix>none</fix>
 <sat>0</sat>
</trkpt>
<trkpt lat="60.942376667" lon="15.206238333">
<time>2014-07-06T11:31:05Z</time>
 <fix>none</fix>
 <sat>0</sat>
</trkpt>
<trkpt lat="60.942383333" lon="15.206348333">
<time>2014-07-06T11:31:06Z</time>
 <fix>none</fix>
 <sat>0</sat>
</trkpt>
<trkpt lat="60.942388333" lon="15.206455000">
<time>2014-07-06T11:31:07Z</time>
 <fix>none</fix>
 <sat>0</sat>
</trkpt>
<trkpt lat="60.942393333" lon="15.206553333">
<time>2014-07-06T11:31:08Z</time>
 <fix>none</fix>
 <sat>0</sat>
</trkpt>
<trkpt lat="60.942398333" lon="15.206650000">
<time>2014-07-06T11:31:09Z</time>
 <fix>none</fix>
 <sat>0</sat>
</trkpt>
<trkpt lat="60.942403333" lon="15.206748333">
<time>2014-07-06T11:31:10Z</time>
 <fix>none</fix>
 <sat>0</sat>
</trkpt>
<trkpt lat="60.942400000" lon="15.206855000">
<time>2014-07-06T11:31:11Z</time>
 <fix>none</fix>
 <sat>0</sat>
</trkpt>
<trkpt lat="60.942401667" lon="15.206960000">
<time>2014-07-06T11:31:12Z</time>
 <fix>none</fix>
 <sat>0</sat>
</trkpt>
<trkpt lat="60.942416667" lon="15.207061667">
<time>2014-07-06T11:31:13Z</time>
 <fix>none</fix>
 <sat>0</sat>
</trkpt>
<trkpt lat="60.942428333" lon="15.207171667">
<time>2014-07-06T11:31:14Z</time>
 <fix>none</fix>
 <sat>0</sat>
</trkpt>
<trkpt lat="60.942428333" lon="15.207171667">
<time>2014-07-06T11:31:15Z</time>
 <fix>none</fix>
 <sat>0</sat>
</trkpt>
<trkpt lat="60.942440000" lon="15.207288333">
<time>2014-07-06T11:31:16Z</time>
 <fix>none</fix>
 <sat>0</sat>
</trkpt>
<trkpt lat="60.942466667" lon="15.207388333">
<time>2014-07-06T11:31:17Z</time>
 <fix>none</fix>
 <sat>0</sat>
</trkpt>
<trkpt lat="60.942498333" lon="15.207486667">
<time>2014-07-06T11:31:18Z</time>
 <fix>none</fix>
 <sat>0</sat>
</trkpt>
<trkpt lat="60.942531667" lon="15.207575000">
<time>2014-07-06T11:31:19Z</time>
 <fix>none</fix>
 <sat>0</sat>
</trkpt>
<trkpt lat="60.942573333" lon="15.207653333">
<time>2014-07-06T11:31:20Z</time>
 <fix>none</fix>
 <sat>0</sat>
</trkpt>
<trkpt lat="60.942618333" lon="15.207736667">
<time>2014-07-06T11:31:21Z</time>
 <fix>none</fix>
 <sat>0</sat>
</trkpt>
<trkpt lat="60.942670000" lon="15.207811667">
<time>2014-07-06T11:31:22Z</time>
 <fix>none</fix>
 <sat>0</sat>
</trkpt>
<trkpt lat="60.942718333" lon="15.207883333">
<time>2014-07-06T11:31:23Z</time>
 <fix>none</fix>
 <sat>0</sat>
</trkpt>
<trkpt lat="60.942810000" lon="15.208011667">
<time>2014-07-06T11:31:24Z</time>
 <fix>none</fix>
 <sat>0</sat>
</trkpt>
<trkpt lat="60.942810000" lon="15.208011667">
<time>2014-07-06T11:31:25Z</time>
 <fix>none</fix>
 <sat>0</sat>
</trkpt>
<trkpt lat="60.942810000" lon="15.208011667">
<time>2014-07-06T11:31:26Z</time>
 <fix>none</fix>
 <sat>0</sat>
</trkpt>
<trkpt lat="60.942925000" lon="15.208208333">
<time>2014-07-06T11:31:27Z</time>
 <fix>none</fix>
 <sat>0</sat>
</trkpt>
<trkpt lat="60.942925000" lon="15.208208333">
<time>2014-07-06T11:31:28Z</time>
 <fix>none</fix>
 <sat>0</sat>
</trkpt>
<trkpt lat="60.943000000" lon="15.208335000">
<time>2014-07-06T11:31:29Z</time>
 <fix>none</fix>
 <sat>0</sat>
</trkpt>
<trkpt lat="60.943000000" lon="15.208335000">
<time>2014-07-06T11:31:30Z</time>
 <fix>none</fix>
 <sat>0</sat>
</trkpt>
<trkpt lat="60.943076667" lon="15.208453333">
<time>2014-07-06T11:31:31Z</time>
 <fix>none</fix>
 <sat>0</sat>
</trkpt>
<trkpt lat="60.943076667" lon="15.208453333">
<time>2014-07-06T11:31:32Z</time>
 <fix>none</fix>
 <sat>0</sat>
</trkpt>
<trkpt lat="60.943163333" lon="15.208560000">
<time>2014-07-06T11:31:33Z</time>
 <fix>none</fix>
 <sat>0</sat>
</trkpt>
<trkpt lat="60.943163333" lon="15.208560000">
<time>2014-07-06T11:31:34Z</time>
 <fix>none</fix>
 <sat>0</sat>
</trkpt>
<trkpt lat="60.943198333" lon="15.208695000">
<time>2014-07-06T11:31:35Z</time>
 <fix>none</fix>
 <sat>0</sat>
</trkpt>
<trkpt lat="60.943198333" lon="15.208695000">
<time>2014-07-06T11:31:36Z</time>
 <fix>none</fix>
 <sat>0</sat>
</trkpt>
<trkpt lat="60.943276667" lon="15.208785000">
<time>2014-07-06T11:31:37Z</time>
 <fix>none</fix>
 <sat>0</sat>
</trkpt>
<trkpt lat="60.943296667" lon="15.208773333">
<time>2014-07-06T11:31:38Z</time>
 <fix>none</fix>
 <sat>0</sat>
</trkpt>
<trkpt lat="60.943323333" lon="15.208803333">
<time>2014-07-06T11:31:39Z</time>
 <fix>none</fix>
 <sat>0</sat>
</trkpt>
<trkpt lat="60.943401667" lon="15.208810000">
<time>2014-07-06T11:31:40Z</time>
 <fix>none</fix>
 <sat>0</sat>
</trkpt>
<trkpt lat="60.943456667" lon="15.208855000">
<time>2014-07-06T11:31:41Z</time>
 <fix>none</fix>
 <sat>0</sat>
</trkpt>
<trkpt lat="60.943511667" lon="15.208901667">
<time>2014-07-06T11:31:42Z</time>
 <fix>none</fix>
 <sat>0</sat>
</trkpt>
<trkpt lat="60.943565000" lon="15.208946667">
<time>2014-07-06T11:31:43Z</time>
 <fix>none</fix>
 <sat>0</sat>
</trkpt>
<trkpt lat="60.943615000" lon="15.208985000">
<time>2014-07-06T11:31:44Z</time>
 <fix>none</fix>
 <sat>0</sat>
</trkpt>
<trkpt lat="60.943651667" lon="15.209031667">
<time>2014-07-06T11:31:45Z</time>
 <fix>none</fix>
 <sat>0</sat>
</trkpt>
<trkpt lat="60.943736667" lon="15.209133333">
<time>2014-07-06T11:31:46Z</time>
 <fix>none</fix>
 <sat>0</sat>
</trkpt>
<trkpt lat="60.943785000" lon="15.209163333">
<time>2014-07-06T11:31:47Z</time>
 <fix>none</fix>
 <sat>0</sat>
</trkpt>
<trkpt lat="60.943816667" lon="15.209220000">
<time>2014-07-06T11:31:48Z</time>
 <fix>none</fix>
 <sat>0</sat>
</trkpt>
<trkpt lat="60.943858333" lon="15.209285000">
<time>2014-07-06T11:31:49Z</time>
 <fix>none</fix>
 <sat>0</sat>
</trkpt>
<trkpt lat="60.943895000" lon="15.209360000">
<time>2014-07-06T11:31:50Z</time>
 <fix>none</fix>
 <sat>0</sat>
</trkpt>
<trkpt lat="60.943930000" lon="15.209435000">
<time>2014-07-06T11:31:51Z</time>
 <fix>none</fix>
 <sat>0</sat>
</trkpt>
<trkpt lat="60.943966667" lon="15.209481667">
<time>2014-07-06T11:31:52Z</time>
 <fix>none</fix>
 <sat>0</sat>
</trkpt>
<trkpt lat="60.943990000" lon="15.209545000">
<time>2014-07-06T11:31:53Z</time>
 <fix>none</fix>
 <sat>0</sat>
</trkpt>
<trkpt lat="60.944020000" lon="15.209603333">
<time>2014-07-06T11:31:54Z</time>
 <fix>none</fix>
 <sat>0</sat>
</trkpt>
<trkpt lat="60.944046667" lon="15.209651667">
<time>2014-07-06T11:31:55Z</time>
 <fix>none</fix>
 <sat>0</sat>
</trkpt>
<trkpt lat="60.944083333" lon="15.209675000">
<time>2014-07-06T11:31:56Z</time>
 <fix>none</fix>
 <sat>0</sat>
</trkpt>
<trkpt lat="60.944121667" lon="15.209723333">
<time>2014-07-06T11:31:57Z</time>
 <fix>none</fix>
 <sat>0</sat>
</trkpt>
<trkpt lat="60.944165000" lon="15.209771667">
<time>2014-07-06T11:31:58Z</time>
 <fix>none</fix>
 <sat>0</sat>
</trkpt>
<trkpt lat="60.944215000" lon="15.209828333">
<time>2014-07-06T11:31:59Z</time>
 <fix>none</fix>
 <sat>0</sat>
</trkpt>
<trkpt lat="60.944258333" lon="15.209903333">
<time>2014-07-06T11:32:00Z</time>
 <fix>none</fix>
 <sat>0</sat>
</trkpt>
<trkpt lat="60.944258333" lon="15.209903333">
<time>2014-07-06T11:32:01Z</time>
 <fix>none</fix>
 <sat>0</sat>
</trkpt>
<trkpt lat="60.944301667" lon="15.209976667">
<time>2014-07-06T11:32:02Z</time>
 <fix>none</fix>
 <sat>0</sat>
</trkpt>
<trkpt lat="60.944360000" lon="15.210010000">
<time>2014-07-06T11:32:03Z</time>
 <fix>none</fix>
 <sat>0</sat>
</trkpt>
<trkpt lat="60.944406667" lon="15.210056667">
<time>2014-07-06T11:32:04Z</time>
 <fix>none</fix>
 <sat>0</sat>
</trkpt>
<trkpt lat="60.944451667" lon="15.210118333">
<time>2014-07-06T11:32:05Z</time>
 <fix>none</fix>
 <sat>0</sat>
</trkpt>
<trkpt lat="60.944525000" lon="15.210223333">
<time>2014-07-06T11:32:06Z</time>
 <fix>none</fix>
 <sat>0</sat>
</trkpt>
<trkpt lat="60.944545000" lon="15.210306667">
<time>2014-07-06T11:32:07Z</time>
 <fix>none</fix>
 <sat>0</sat>
</trkpt>
<trkpt lat="60.944545000" lon="15.210306667">
<time>2014-07-06T11:32:08Z</time>
 <fix>none</fix>
 <sat>0</sat>
</trkpt>
<trkpt lat="60.944663333" lon="15.210403333">
<time>2014-07-06T11:32:09Z</time>
 <fix>none</fix>
 <sat>0</sat>
</trkpt>
<trkpt lat="60.944691667" lon="15.210466667">
<time>2014-07-06T11:32:10Z</time>
 <fix>none</fix>
 <sat>0</sat>
</trkpt>
<trkpt lat="60.944730000" lon="15.210523333">
<time>2014-07-06T11:32:11Z</time>
 <fix>none</fix>
 <sat>0</sat>
</trkpt>
<trkpt lat="60.944766667" lon="15.210578333">
<time>2014-07-06T11:32:12Z</time>
 <fix>none</fix>
 <sat>0</sat>
</trkpt>
<trkpt lat="60.944805000" lon="15.210621667">
<time>2014-07-06T11:32:13Z</time>
 <fix>none</fix>
 <sat>0</sat>
</trkpt>
<trkpt lat="60.944841667" lon="15.210668333">
<time>2014-07-06T11:32:14Z</time>
 <fix>none</fix>
 <sat>0</sat>
</trkpt>
<trkpt lat="60.944873333" lon="15.210703333">
<time>2014-07-06T11:32:15Z</time>
 <fix>none</fix>
 <sat>0</sat>
</trkpt>
<trkpt lat="60.944915000" lon="15.210740000">
<time>2014-07-06T11:32:16Z</time>
 <fix>none</fix>
 <sat>0</sat>
</trkpt>
<trkpt lat="60.944958333" lon="15.210781667">
<time>2014-07-06T11:32:17Z</time>
 <fix>none</fix>
 <sat>0</sat>
</trkpt>
<trkpt lat="60.945000000" lon="15.210826667">
<time>2014-07-06T11:32:18Z</time>
 <fix>none</fix>
 <sat>0</sat>
</trkpt>
<trkpt lat="60.945040000" lon="15.210858333">
<time>2014-07-06T11:32:19Z</time>
 <fix>none</fix>
 <sat>0</sat>
</trkpt>
<trkpt lat="60.945080000" lon="15.210906667">
<time>2014-07-06T11:32:20Z</time>
 <fix>none</fix>
 <sat>0</sat>
</trkpt>
<trkpt lat="60.945121667" lon="15.210961667">
<time>2014-07-06T11:32:21Z</time>
 <fix>none</fix>
 <sat>0</sat>
</trkpt>
<trkpt lat="60.945158333" lon="15.211031667">
<time>2014-07-06T11:32:22Z</time>
 <fix>none</fix>
 <sat>0</sat>
</trkpt>
<trkpt lat="60.945158333" lon="15.211031667">
<time>2014-07-06T11:32:23Z</time>
 <fix>none</fix>
 <sat>0</sat>
</trkpt>
<trkpt lat="60.945200000" lon="15.211110000">
<time>2014-07-06T11:32:24Z</time>
 <fix>none</fix>
 <sat>0</sat>
</trkpt>
<trkpt lat="60.945250000" lon="15.211178333">
<time>2014-07-06T11:32:25Z</time>
 <fix>none</fix>
 <sat>0</sat>
</trkpt>
<trkpt lat="60.945293333" lon="15.211243333">
<time>2014-07-06T11:32:26Z</time>
 <fix>none</fix>
 <sat>0</sat>
</trkpt>
<trkpt lat="60.945345000" lon="15.211303333">
<time>2014-07-06T11:32:27Z</time>
 <fix>none</fix>
 <sat>0</sat>
</trkpt>
<trkpt lat="60.945393333" lon="15.211365000">
<time>2014-07-06T11:32:28Z</time>
 <fix>none</fix>
 <sat>0</sat>
</trkpt>
<trkpt lat="60.945493333" lon="15.211496667">
<time>2014-07-06T11:32:29Z</time>
 <fix>none</fix>
 <sat>0</sat>
</trkpt>
<trkpt lat="60.945493333" lon="15.211496667">
<time>2014-07-06T11:32:30Z</time>
 <fix>none</fix>
 <sat>0</sat>
</trkpt>
<trkpt lat="60.945535000" lon="15.211563333">
<time>2014-07-06T11:32:31Z</time>
 <fix>none</fix>
 <sat>0</sat>
</trkpt>
<trkpt lat="60.945603333" lon="15.211646667">
<time>2014-07-06T11:32:32Z</time>
 <fix>none</fix>
 <sat>0</sat>
</trkpt>
<trkpt lat="60.945635000" lon="15.211660000">
<time>2014-07-06T11:32:33Z</time>
 <fix>none</fix>
 <sat>0</sat>
</trkpt>
<trkpt lat="60.945651667" lon="15.211661667">
<time>2014-07-06T11:32:34Z</time>
 <fix>none</fix>
 <sat>0</sat>
</trkpt>
<trkpt lat="60.945661667" lon="15.211651667">
<time>2014-07-06T11:32:35Z</time>
 <fix>none</fix>
 <sat>0</sat>
</trkpt>
<trkpt lat="60.945665000" lon="15.211641667">
<time>2014-07-06T11:32:36Z</time>
 <fix>none</fix>
 <sat>0</sat>
</trkpt>
<trkpt lat="60.945631667" lon="15.211596667">
<time>2014-07-06T11:32:37Z</time>
 <fix>none</fix>
 <sat>0</sat>
</trkpt>
<trkpt lat="60.945596667" lon="15.211535000">
<time>2014-07-06T11:32:38Z</time>
 <fix>none</fix>
 <sat>0</sat>
</trkpt>
<trkpt lat="60.945571667" lon="15.211438333">
<time>2014-07-06T11:32:39Z</time>
 <fix>none</fix>
 <sat>0</sat>
</trkpt>
<trkpt lat="60.945540000" lon="15.211340000">
<time>2014-07-06T11:32:40Z</time>
 <fix>none</fix>
 <sat>0</sat>
</trkpt>
<trkpt lat="60.945506667" lon="15.211228333">
<time>2014-07-06T11:32:41Z</time>
 <fix>none</fix>
 <sat>0</sat>
</trkpt>
<trkpt lat="60.945506667" lon="15.211228333">
<time>2014-07-06T11:32:42Z</time>
 <fix>none</fix>
 <sat>0</sat>
</trkpt>
<trkpt lat="60.945506667" lon="15.211228333">
<time>2014-07-06T11:32:43Z</time>
 <fix>none</fix>
 <sat>0</sat>
</trkpt>
<trkpt lat="60.945385000" lon="15.210865000">
<time>2014-07-06T11:32:44Z</time>
 <fix>none</fix>
 <sat>0</sat>
</trkpt>
<trkpt lat="60.945385000" lon="15.210865000">
<time>2014-07-06T11:32:45Z</time>
 <fix>none</fix>
 <sat>0</sat>
</trkpt>
<trkpt lat="60.945336667" lon="15.210613333">
<time>2014-07-06T11:32:46Z</time>
 <fix>none</fix>
 <sat>0</sat>
</trkpt>
<trkpt lat="60.945336667" lon="15.210613333">
<time>2014-07-06T11:32:47Z</time>
 <fix>none</fix>
 <sat>0</sat>
</trkpt>
<trkpt lat="60.945271667" lon="15.210401667">
<time>2014-07-06T11:32:48Z</time>
 <fix>none</fix>
 <sat>0</sat>
</trkpt>
<trkpt lat="60.945263333" lon="15.210391667">
<time>2014-07-06T11:32:49Z</time>
 <fix>none</fix>
 <sat>0</sat>
</trkpt>
<trkpt lat="60.945246667" lon="15.210285000">
<time>2014-07-06T11:32:50Z</time>
 <fix>none</fix>
 <sat>0</sat>
</trkpt>
<trkpt lat="60.945268333" lon="15.210133333">
<time>2014-07-06T11:32:51Z</time>
 <fix>none</fix>
 <sat>0</sat>
</trkpt>
<trkpt lat="60.945231667" lon="15.209888333">
<time>2014-07-06T11:32:52Z</time>
 <fix>none</fix>
 <sat>0</sat>
</trkpt>
<trkpt lat="60.945231667" lon="15.209888333">
<time>2014-07-06T11:32:53Z</time>
 <fix>none</fix>
 <sat>0</sat>
</trkpt>
<trkpt lat="60.945208333" lon="15.209630000">
<time>2014-07-06T11:32:54Z</time>
 <fix>none</fix>
 <sat>0</sat>
</trkpt>
<trkpt lat="60.945193333" lon="15.209500000">
<time>2014-07-06T11:32:55Z</time>
 <fix>none</fix>
 <sat>0</sat>
</trkpt>
<trkpt lat="60.945171667" lon="15.209373333">
<time>2014-07-06T11:32:56Z</time>
 <fix>none</fix>
 <sat>0</sat>
</trkpt>
<trkpt lat="60.945131667" lon="15.209265000">
<time>2014-07-06T11:32:57Z</time>
 <fix>none</fix>
 <sat>0</sat>
</trkpt>
<trkpt lat="60.945095000" lon="15.209156667">
<time>2014-07-06T11:32:58Z</time>
 <fix>none</fix>
 <sat>0</sat>
</trkpt>
<trkpt lat="60.945066667" lon="15.209036667">
<time>2014-07-06T11:32:59Z</time>
 <fix>none</fix>
 <sat>0</sat>
</trkpt>
<trkpt lat="60.945050000" lon="15.208908333">
<time>2014-07-06T11:33:00Z</time>
 <fix>none</fix>
 <sat>0</sat>
</trkpt>
<trkpt lat="60.945041667" lon="15.208781667">
<time>2014-07-06T11:33:01Z</time>
 <fix>none</fix>
 <sat>0</sat>
</trkpt>
<trkpt lat="60.945041667" lon="15.208781667">
<time>2014-07-06T11:33:02Z</time>
 <fix>none</fix>
 <sat>0</sat>
</trkpt>
<trkpt lat="60.945041667" lon="15.208781667">
<time>2014-07-06T11:33:03Z</time>
 <fix>none</fix>
 <sat>0</sat>
</trkpt>
<trkpt lat="60.944995000" lon="15.208445000">
<time>2014-07-06T11:33:04Z</time>
 <fix>none</fix>
 <sat>0</sat>
</trkpt>
<trkpt lat="60.944995000" lon="15.208445000">
<time>2014-07-06T11:33:05Z</time>
 <fix>none</fix>
 <sat>0</sat>
</trkpt>
<trkpt lat="60.944966667" lon="15.208206667">
<time>2014-07-06T11:33:06Z</time>
 <fix>none</fix>
 <sat>0</sat>
</trkpt>
<trkpt lat="60.944966667" lon="15.208206667">
<time>2014-07-06T11:33:07Z</time>
 <fix>none</fix>
 <sat>0</sat>
</trkpt>
<trkpt lat="60.944940000" lon="15.207925000">
<time>2014-07-06T11:33:08Z</time>
 <fix>none</fix>
 <sat>0</sat>
</trkpt>
<trkpt lat="60.944940000" lon="15.207925000">
<time>2014-07-06T11:33:09Z</time>
 <fix>none</fix>
 <sat>0</sat>
</trkpt>
<trkpt lat="60.944916667" lon="15.207645000">
<time>2014-07-06T11:33:10Z</time>
 <fix>none</fix>
 <sat>0</sat>
</trkpt>
<trkpt lat="60.944916667" lon="15.207645000">
<time>2014-07-06T11:33:11Z</time>
 <fix>none</fix>
 <sat>0</sat>
</trkpt>
<trkpt lat="60.944990000" lon="15.207476667">
<time>2014-07-06T11:33:12Z</time>
 <fix>none</fix>
 <sat>0</sat>
</trkpt>
<trkpt lat="60.945028333" lon="15.207446667">
<time>2014-07-06T11:33:13Z</time>
 <fix>none</fix>
 <sat>0</sat>
</trkpt>
<trkpt lat="60.945021667" lon="15.207351667">
<time>2014-07-06T11:33:14Z</time>
 <fix>none</fix>
 <sat>0</sat>
</trkpt>
<trkpt lat="60.945126667" lon="15.207270000">
<time>2014-07-06T11:33:15Z</time>
 <fix>none</fix>
 <sat>0</sat>
</trkpt>
<trkpt lat="60.945126667" lon="15.207270000">
<time>2014-07-06T11:33:16Z</time>
 <fix>none</fix>
 <sat>0</sat>
</trkpt>
<trkpt lat="60.945188333" lon="15.207245000">
<time>2014-07-06T11:33:17Z</time>
 <fix>none</fix>
 <sat>0</sat>
</trkpt>
<trkpt lat="60.945346667" lon="15.207336667">
<time>2014-07-06T11:33:18Z</time>
 <fix>none</fix>
 <sat>0</sat>
</trkpt>
<trkpt lat="60.945430000" lon="15.207421667">
<time>2014-07-06T11:33:19Z</time>
 <fix>none</fix>
 <sat>0</sat>
</trkpt>
<trkpt lat="60.945505000" lon="15.207490000">
<time>2014-07-06T11:33:20Z</time>
 <fix>none</fix>
 <sat>0</sat>
</trkpt>
<trkpt lat="60.945571667" lon="15.207540000">
<time>2014-07-06T11:33:21Z</time>
 <fix>none</fix>
 <sat>0</sat>
</trkpt>
<trkpt lat="60.945633333" lon="15.207583333">
<time>2014-07-06T11:33:22Z</time>
 <fix>none</fix>
 <sat>0</sat>
</trkpt>
<trkpt lat="60.945698333" lon="15.207610000">
<time>2014-07-06T11:33:23Z</time>
 <fix>none</fix>
 <sat>0</sat>
</trkpt>
<trkpt lat="60.945698333" lon="15.207610000">
<time>2014-07-06T11:33:24Z</time>
 <fix>none</fix>
 <sat>0</sat>
</trkpt>
<trkpt lat="60.945800000" lon="15.207623333">
<time>2014-07-06T11:33:25Z</time>
 <fix>none</fix>
 <sat>0</sat>
</trkpt>
<trkpt lat="60.945800000" lon="15.207623333">
<time>2014-07-06T11:33:26Z</time>
 <fix>none</fix>
 <sat>0</sat>
</trkpt>
<trkpt lat="60.945800000" lon="15.207623333">
<time>2014-07-06T11:33:27Z</time>
 <fix>none</fix>
 <sat>0</sat>
</trkpt>
<trkpt lat="60.945773333" lon="15.207325000">
<time>2014-07-06T11:33:28Z</time>
 <fix>none</fix>
 <sat>0</sat>
</trkpt>
<trkpt lat="60.945773333" lon="15.207325000">
<time>2014-07-06T11:33:29Z</time>
 <fix>none</fix>
 <sat>0</sat>
</trkpt>
<trkpt lat="60.945753333" lon="15.207243333">
<time>2014-07-06T11:33:30Z</time>
 <fix>none</fix>
 <sat>0</sat>
</trkpt>
<trkpt lat="60.945685000" lon="15.207173333">
<time>2014-07-06T11:33:31Z</time>
 <fix>none</fix>
 <sat>0</sat>
</trkpt>
<trkpt lat="60.945685000" lon="15.207173333">
<time>2014-07-06T11:33:32Z</time>
 <fix>none</fix>
 <sat>0</sat>
</trkpt>
<trkpt lat="60.945631667" lon="15.207063333">
<time>2014-07-06T11:33:33Z</time>
 <fix>none</fix>
 <sat>0</sat>
</trkpt>
<trkpt lat="60.945583333" lon="15.206951667">
<time>2014-07-06T11:33:34Z</time>
 <fix>none</fix>
 <sat>0</sat>
</trkpt>
<trkpt lat="60.945506667" lon="15.206881667">
<time>2014-07-06T11:33:35Z</time>
 <fix>none</fix>
 <sat>0</sat>
</trkpt>
<trkpt lat="60.945431667" lon="15.206795000">
<time>2014-07-06T11:33:36Z</time>
 <fix>none</fix>
 <sat>0</sat>
</trkpt>
<trkpt lat="60.945368333" lon="15.206685000">
<time>2014-07-06T11:33:37Z</time>
 <fix>none</fix>
 <sat>0</sat>
</trkpt>
<trkpt lat="60.945210000" lon="15.206501667">
<time>2014-07-06T11:33:38Z</time>
 <fix>none</fix>
 <sat>0</sat>
</trkpt>
<trkpt lat="60.945210000" lon="15.206501667">
<time>2014-07-06T11:33:39Z</time>
 <fix>none</fix>
 <sat>0</sat>
</trkpt>
<trkpt lat="60.945041667" lon="15.206258333">
<time>2014-07-06T11:33:40Z</time>
 <fix>none</fix>
 <sat>0</sat>
</trkpt>
<trkpt lat="60.945041667" lon="15.206258333">
<time>2014-07-06T11:33:41Z</time>
 <fix>none</fix>
 <sat>0</sat>
</trkpt>
<trkpt lat="60.945041667" lon="15.206258333">
<time>2014-07-06T11:33:42Z</time>
 <fix>none</fix>
 <sat>0</sat>
</trkpt>
<trkpt lat="60.944760000" lon="15.205906667">
<time>2014-07-06T11:33:43Z</time>
 <fix>none</fix>
 <sat>0</sat>
</trkpt>
<trkpt lat="60.944760000" lon="15.205906667">
<time>2014-07-06T11:33:44Z</time>
 <fix>none</fix>
 <sat>0</sat>
</trkpt>
<trkpt lat="60.944630000" lon="15.205598333">
<time>2014-07-06T11:33:45Z</time>
 <fix>none</fix>
 <sat>0</sat>
</trkpt>
<trkpt lat="60.944630000" lon="15.205598333">
<time>2014-07-06T11:33:46Z</time>
 <fix>none</fix>
 <sat>0</sat>
</trkpt>
<trkpt lat="60.944430000" lon="15.205370000">
<time>2014-07-06T11:33:47Z</time>
 <fix>none</fix>
 <sat>0</sat>
</trkpt>
<trkpt lat="60.944430000" lon="15.205370000">
<time>2014-07-06T11:33:48Z</time>
 <fix>none</fix>
 <sat>0</sat>
</trkpt>
<trkpt lat="60.944261667" lon="15.205058333">
<time>2014-07-06T11:33:49Z</time>
 <fix>none</fix>
 <sat>0</sat>
</trkpt>
<trkpt lat="60.944208333" lon="15.204935000">
<time>2014-07-06T11:33:50Z</time>
 <fix>none</fix>
 <sat>0</sat>
</trkpt>
<trkpt lat="60.944108333" lon="15.204841667">
<time>2014-07-06T11:33:51Z</time>
 <fix>none</fix>
 <sat>0</sat>
</trkpt>
<trkpt lat="60.944066667" lon="15.204716667">
<time>2014-07-06T11:33:52Z</time>
 <fix>none</fix>
 <sat>0</sat>
</trkpt>
<trkpt lat="60.944015000" lon="15.204591667">
<time>2014-07-06T11:33:53Z</time>
 <fix>none</fix>
 <sat>0</sat>
</trkpt>
<trkpt lat="60.943960000" lon="15.204466667">
<time>2014-07-06T11:33:54Z</time>
 <fix>none</fix>
 <sat>0</sat>
</trkpt>
<trkpt lat="60.943960000" lon="15.204466667">
<time>2014-07-06T11:33:55Z</time>
 <fix>none</fix>
 <sat>0</sat>
</trkpt>
<trkpt lat="60.943896667" lon="15.204365000">
<time>2014-07-06T11:33:56Z</time>
 <fix>none</fix>
 <sat>0</sat>
</trkpt>
<trkpt lat="60.943835000" lon="15.204253333">
<time>2014-07-06T11:33:57Z</time>
 <fix>none</fix>
 <sat>0</sat>
</trkpt>
<trkpt lat="60.943780000" lon="15.204115000">
<time>2014-07-06T11:33:58Z</time>
 <fix>none</fix>
 <sat>0</sat>
</trkpt>
<trkpt lat="60.943730000" lon="15.203978333">
<time>2014-07-06T11:33:59Z</time>
 <fix>none</fix>
 <sat>0</sat>
</trkpt>
<trkpt lat="60.943686667" lon="15.203838333">
<time>2014-07-06T11:34:00Z</time>
 <fix>none</fix>
 <sat>0</sat>
</trkpt>
<trkpt lat="60.943646667" lon="15.203695000">
<time>2014-07-06T11:34:01Z</time>
 <fix>none</fix>
 <sat>0</sat>
</trkpt>
<trkpt lat="60.943605000" lon="15.203546667">
<time>2014-07-06T11:34:02Z</time>
 <fix>none</fix>
 <sat>0</sat>
</trkpt>
<trkpt lat="60.943531667" lon="15.203241667">
<time>2014-07-06T11:34:03Z</time>
 <fix>none</fix>
 <sat>0</sat>
</trkpt>
<trkpt lat="60.943490000" lon="15.203090000">
<time>2014-07-06T11:34:04Z</time>
 <fix>none</fix>
 <sat>0</sat>
</trkpt>
<trkpt lat="60.943448333" lon="15.202946667">
<time>2014-07-06T11:34:05Z</time>
 <fix>none</fix>
 <sat>0</sat>
</trkpt>
<trkpt lat="60.943401667" lon="15.202810000">
<time>2014-07-06T11:34:06Z</time>
 <fix>none</fix>
 <sat>0</sat>
</trkpt>
<trkpt lat="60.943355000" lon="15.202666667">
<time>2014-07-06T11:34:07Z</time>
 <fix>none</fix>
 <sat>0</sat>
</trkpt>
<trkpt lat="60.943301667" lon="15.202531667">
<time>2014-07-06T11:34:08Z</time>
 <fix>none</fix>
 <sat>0</sat>
</trkpt>
<trkpt lat="60.943245000" lon="15.202398333">
<time>2014-07-06T11:34:09Z</time>
 <fix>none</fix>
 <sat>0</sat>
</trkpt>
<trkpt lat="60.943185000" lon="15.202265000">
<time>2014-07-06T11:34:10Z</time>
 <fix>none</fix>
 <sat>0</sat>
</trkpt>
<trkpt lat="60.943118333" lon="15.202131667">
<time>2014-07-06T11:34:11Z</time>
 <fix>none</fix>
 <sat>0</sat>
</trkpt>
<trkpt lat="60.943035000" lon="15.201966667">
<time>2014-07-06T11:34:12Z</time>
 <fix>none</fix>
 <sat>0</sat>
</trkpt>
<trkpt lat="60.942966667" lon="15.201795000">
<time>2014-07-06T11:34:13Z</time>
 <fix>none</fix>
 <sat>0</sat>
</trkpt>
<trkpt lat="60.942911667" lon="15.201625000">
<time>2014-07-06T11:34:14Z</time>
 <fix>none</fix>
 <sat>0</sat>
</trkpt>
<trkpt lat="60.942866667" lon="15.201455000">
<time>2014-07-06T11:34:15Z</time>
 <fix>none</fix>
 <sat>0</sat>
</trkpt>
<trkpt lat="60.942838333" lon="15.201273333">
<time>2014-07-06T11:34:16Z</time>
 <fix>none</fix>
 <sat>0</sat>
</trkpt>
<trkpt lat="60.942823333" lon="15.201086667">
<time>2014-07-06T11:34:17Z</time>
 <fix>none</fix>
 <sat>0</sat>
</trkpt>
<trkpt lat="60.942823333" lon="15.201086667">
<time>2014-07-06T11:34:18Z</time>
 <fix>none</fix>
 <sat>0</sat>
</trkpt>
<trkpt lat="60.942815000" lon="15.200908333">
<time>2014-07-06T11:34:19Z</time>
 <fix>none</fix>
 <sat>0</sat>
</trkpt>
<trkpt lat="60.942805000" lon="15.200741667">
<time>2014-07-06T11:34:20Z</time>
 <fix>none</fix>
 <sat>0</sat>
</trkpt>
<trkpt lat="60.942786667" lon="15.200585000">
<time>2014-07-06T11:34:21Z</time>
 <fix>none</fix>
 <sat>0</sat>
</trkpt>
<trkpt lat="60.942751667" lon="15.200443333">
<time>2014-07-06T11:34:22Z</time>
 <fix>none</fix>
 <sat>0</sat>
</trkpt>
<trkpt lat="60.942695000" lon="15.200321667">
<time>2014-07-06T11:34:23Z</time>
 <fix>none</fix>
 <sat>0</sat>
</trkpt>
<trkpt lat="60.942628333" lon="15.200216667">
<time>2014-07-06T11:34:24Z</time>
 <fix>none</fix>
 <sat>0</sat>
</trkpt>
<trkpt lat="60.942566667" lon="15.200111667">
<time>2014-07-06T11:34:25Z</time>
 <fix>none</fix>
 <sat>0</sat>
</trkpt>
<trkpt lat="60.942500000" lon="15.200000000">
<time>2014-07-06T11:34:26Z</time>
 <fix>none</fix>
 <sat>0</sat>
</trkpt>
<trkpt lat="60.942500000" lon="15.200000000">
<time>2014-07-06T11:34:27Z</time>
 <fix>none</fix>
 <sat>0</sat>
</trkpt>
<trkpt lat="60.942293333" lon="15.199656667">
<time>2014-07-06T11:34:28Z</time>
 <fix>none</fix>
 <sat>0</sat>
</trkpt>
<trkpt lat="60.942293333" lon="15.199656667">
<time>2014-07-06T11:34:29Z</time>
 <fix>none</fix>
 <sat>0</sat>
</trkpt>
<trkpt lat="60.942178333" lon="15.199401667">
<time>2014-07-06T11:34:30Z</time>
 <fix>none</fix>
 <sat>0</sat>
</trkpt>
<trkpt lat="60.942178333" lon="15.199401667">
<time>2014-07-06T11:34:31Z</time>
 <fix>none</fix>
 <sat>0</sat>
</trkpt>
<trkpt lat="60.942076667" lon="15.199150000">
<time>2014-07-06T11:34:32Z</time>
 <fix>none</fix>
 <sat>0</sat>
</trkpt>
<trkpt lat="60.942076667" lon="15.199150000">
<time>2014-07-06T11:34:33Z</time>
 <fix>none</fix>
 <sat>0</sat>
</trkpt>
<trkpt lat="60.941970000" lon="15.198905000">
<time>2014-07-06T11:34:34Z</time>
 <fix>none</fix>
 <sat>0</sat>
</trkpt>
<trkpt lat="60.941943333" lon="15.198808333">
<time>2014-07-06T11:34:35Z</time>
 <fix>none</fix>
 <sat>0</sat>
</trkpt>
<trkpt lat="60.941916667" lon="15.198686667">
<time>2014-07-06T11:34:36Z</time>
 <fix>none</fix>
 <sat>0</sat>
</trkpt>
<trkpt lat="60.941896667" lon="15.198518333">
<time>2014-07-06T11:34:37Z</time>
 <fix>none</fix>
 <sat>0</sat>
</trkpt>
<trkpt lat="60.941865000" lon="15.198370000">
<time>2014-07-06T11:34:38Z</time>
 <fix>none</fix>
 <sat>0</sat>
</trkpt>
<trkpt lat="60.941821667" lon="15.198226667">
<time>2014-07-06T11:34:39Z</time>
 <fix>none</fix>
 <sat>0</sat>
</trkpt>
<trkpt lat="60.941821667" lon="15.198226667">
<time>2014-07-06T11:34:40Z</time>
 <fix>none</fix>
 <sat>0</sat>
</trkpt>
<trkpt lat="60.941775000" lon="15.198061667">
<time>2014-07-06T11:34:41Z</time>
 <fix>none</fix>
 <sat>0</sat>
</trkpt>
<trkpt lat="60.941738333" lon="15.197885000">
<time>2014-07-06T11:34:42Z</time>
 <fix>none</fix>
 <sat>0</sat>
</trkpt>
<trkpt lat="60.941716667" lon="15.197690000">
<time>2014-07-06T11:34:43Z</time>
 <fix>none</fix>
 <sat>0</sat>
</trkpt>
<trkpt lat="60.941691667" lon="15.197511667">
<time>2014-07-06T11:34:44Z</time>
 <fix>none</fix>
 <sat>0</sat>
</trkpt>
<trkpt lat="60.941660000" lon="15.197353333">
<time>2014-07-06T11:34:45Z</time>
 <fix>none</fix>
 <sat>0</sat>
</trkpt>
<trkpt lat="60.941575000" lon="15.197110000">
<time>2014-07-06T11:34:46Z</time>
 <fix>none</fix>
 <sat>0</sat>
</trkpt>
<trkpt lat="60.941575000" lon="15.197110000">
<time>2014-07-06T11:34:47Z</time>
 <fix>none</fix>
 <sat>0</sat>
</trkpt>
<trkpt lat="60.941575000" lon="15.197110000">
<time>2014-07-06T11:34:48Z</time>
 <fix>none</fix>
 <sat>0</sat>
</trkpt>
<trkpt lat="60.941450000" lon="15.196861667">
<time>2014-07-06T11:34:49Z</time>
 <fix>none</fix>
 <sat>0</sat>
</trkpt>
<trkpt lat="60.941450000" lon="15.196861667">
<time>2014-07-06T11:34:50Z</time>
 <fix>none</fix>
 <sat>0</sat>
</trkpt>
<trkpt lat="60.941325000" lon="15.196778333">
<time>2014-07-06T11:34:51Z</time>
 <fix>none</fix>
 <sat>0</sat>
</trkpt>
<trkpt lat="60.941325000" lon="15.196778333">
<time>2014-07-06T11:34:52Z</time>
 <fix>none</fix>
 <sat>0</sat>
</trkpt>
<trkpt lat="60.941241667" lon="15.196655000">
<time>2014-07-06T11:34:53Z</time>
 <fix>none</fix>
 <sat>0</sat>
</trkpt>
<trkpt lat="60.941241667" lon="15.196655000">
<time>2014-07-06T11:34:54Z</time>
 <fix>none</fix>
 <sat>0</sat>
</trkpt>
<trkpt lat="60.941166667" lon="15.196483333">
<time>2014-07-06T11:34:55Z</time>
 <fix>none</fix>
 <sat>0</sat>
</trkpt>
<trkpt lat="60.941136667" lon="15.196433333">
<time>2014-07-06T11:34:56Z</time>
 <fix>none</fix>
 <sat>0</sat>
</trkpt>
<trkpt lat="60.941066667" lon="15.196375000">
<time>2014-07-06T11:34:57Z</time>
 <fix>none</fix>
 <sat>0</sat>
</trkpt>
<trkpt lat="60.941010000" lon="15.196305000">
<time>2014-07-06T11:34:58Z</time>
 <fix>none</fix>
 <sat>0</sat>
</trkpt>
<trkpt lat="60.940953333" lon="15.196211667">
<time>2014-07-06T11:34:59Z</time>
 <fix>none</fix>
 <sat>0</sat>
</trkpt>
<trkpt lat="60.940915000" lon="15.196058333">
<time>2014-07-06T11:35:00Z</time>
 <fix>none</fix>
 <sat>0</sat>
</trkpt>
<trkpt lat="60.940883333" lon="15.195905000">
<time>2014-07-06T11:35:01Z</time>
 <fix>none</fix>
 <sat>0</sat>
</trkpt>
<trkpt lat="60.940850000" lon="15.195748333">
<time>2014-07-06T11:35:02Z</time>
 <fix>none</fix>
 <sat>0</sat>
</trkpt>
<trkpt lat="60.940850000" lon="15.195748333">
<time>2014-07-06T11:35:03Z</time>
 <fix>none</fix>
 <sat>0</sat>
</trkpt>
<trkpt lat="60.940826667" lon="15.195565000">
<time>2014-07-06T11:35:04Z</time>
 <fix>none</fix>
 <sat>0</sat>
</trkpt>
<trkpt lat="60.940805000" lon="15.195386667">
<time>2014-07-06T11:35:05Z</time>
 <fix>none</fix>
 <sat>0</sat>
</trkpt>
<trkpt lat="60.940798333" lon="15.195193333">
<time>2014-07-06T11:35:06Z</time>
 <fix>none</fix>
 <sat>0</sat>
</trkpt>
<trkpt lat="60.940786667" lon="15.195015000">
<time>2014-07-06T11:35:07Z</time>
 <fix>none</fix>
 <sat>0</sat>
</trkpt>
<trkpt lat="60.940778333" lon="15.194850000">
<time>2014-07-06T11:35:08Z</time>
 <fix>none</fix>
 <sat>0</sat>
</trkpt>
<trkpt lat="60.940755000" lon="15.194315000">
<time>2014-07-06T11:35:09Z</time>
 <fix>none</fix>
 <sat>0</sat>
</trkpt>
<trkpt lat="60.940755000" lon="15.194315000">
<time>2014-07-06T11:35:10Z</time>
 <fix>none</fix>
 <sat>0</sat>
</trkpt>
<trkpt lat="60.940755000" lon="15.194315000">
<time>2014-07-06T11:35:11Z</time>
 <fix>none</fix>
 <sat>0</sat>
</trkpt>
<trkpt lat="60.940765000" lon="15.193896667">
<time>2014-07-06T11:35:12Z</time>
 <fix>none</fix>
 <sat>0</sat>
</trkpt>
<trkpt lat="60.940765000" lon="15.193896667">
<time>2014-07-06T11:35:13Z</time>
 <fix>none</fix>
 <sat>0</sat>
</trkpt>
<trkpt lat="60.940786667" lon="15.193573333">
<time>2014-07-06T11:35:14Z</time>
 <fix>none</fix>
 <sat>0</sat>
</trkpt>
<trkpt lat="60.940786667" lon="15.193573333">
<time>2014-07-06T11:35:15Z</time>
 <fix>none</fix>
 <sat>0</sat>
</trkpt>
<trkpt lat="60.940806667" lon="15.193166667">
<time>2014-07-06T11:35:16Z</time>
 <fix>none</fix>
 <sat>0</sat>
</trkpt>
<trkpt lat="60.940806667" lon="15.193166667">
<time>2014-07-06T11:35:17Z</time>
 <fix>none</fix>
 <sat>0</sat>
</trkpt>
<trkpt lat="60.940805000" lon="15.192870000">
<time>2014-07-06T11:35:18Z</time>
 <fix>none</fix>
 <sat>0</sat>
</trkpt>
<trkpt lat="60.940805000" lon="15.192870000">
<time>2014-07-06T11:35:19Z</time>
 <fix>none</fix>
 <sat>0</sat>
</trkpt>
<trkpt lat="60.940745000" lon="15.192688333">
<time>2014-07-06T11:35:20Z</time>
 <fix>none</fix>
 <sat>0</sat>
</trkpt>
<trkpt lat="60.940745000" lon="15.192688333">
<time>2014-07-06T11:35:21Z</time>
 <fix>none</fix>
 <sat>0</sat>
</trkpt>
<trkpt lat="60.940740000" lon="15.192398333">
<time>2014-07-06T11:35:22Z</time>
 <fix>none</fix>
 <sat>0</sat>
</trkpt>
<trkpt lat="60.940740000" lon="15.192398333">
<time>2014-07-06T11:35:23Z</time>
 <fix>none</fix>
 <sat>0</sat>
</trkpt>
<trkpt lat="60.940748333" lon="15.192065000">
<time>2014-07-06T11:35:24Z</time>
 <fix>none</fix>
 <sat>0</sat>
</trkpt>
<trkpt lat="60.940748333" lon="15.192065000">
<time>2014-07-06T11:35:25Z</time>
 <fix>none</fix>
 <sat>0</sat>
</trkpt>
<trkpt lat="60.940768333" lon="15.191835000">
<time>2014-07-06T11:35:26Z</time>
 <fix>none</fix>
 <sat>0</sat>
</trkpt>
<trkpt lat="60.940768333" lon="15.191835000">
<time>2014-07-06T11:35:27Z</time>
 <fix>none</fix>
 <sat>0</sat>
</trkpt>
<trkpt lat="60.940840000" lon="15.191415000">
<time>2014-07-06T11:35:28Z</time>
 <fix>none</fix>
 <sat>0</sat>
</trkpt>
<trkpt lat="60.940840000" lon="15.191415000">
<time>2014-07-06T11:35:29Z</time>
 <fix>none</fix>
 <sat>0</sat>
</trkpt>
<trkpt lat="60.940965000" lon="15.191221667">
<time>2014-07-06T11:35:30Z</time>
 <fix>none</fix>
 <sat>0</sat>
</trkpt>
<trkpt lat="60.940965000" lon="15.191221667">
<time>2014-07-06T11:35:31Z</time>
 <fix>none</fix>
 <sat>0</sat>
</trkpt>
<trkpt lat="60.941081667" lon="15.191063333">
<time>2014-07-06T11:35:32Z</time>
 <fix>none</fix>
 <sat>0</sat>
</trkpt>
<trkpt lat="60.941081667" lon="15.191063333">
<time>2014-07-06T11:35:33Z</time>
 <fix>none</fix>
 <sat>0</sat>
</trkpt>
<trkpt lat="60.941251667" lon="15.190965000">
<time>2014-07-06T11:35:34Z</time>
 <fix>none</fix>
 <sat>0</sat>
</trkpt>
<trkpt lat="60.941251667" lon="15.190965000">
<time>2014-07-06T11:35:35Z</time>
 <fix>none</fix>
 <sat>0</sat>
</trkpt>
<trkpt lat="60.941381667" lon="15.190798333">
<time>2014-07-06T11:35:36Z</time>
 <fix>none</fix>
 <sat>0</sat>
</trkpt>
<trkpt lat="60.941433333" lon="15.190746667">
<time>2014-07-06T11:35:37Z</time>
 <fix>none</fix>
 <sat>0</sat>
</trkpt>
<trkpt lat="60.941555000" lon="15.190643333">
<time>2014-07-06T11:35:38Z</time>
 <fix>none</fix>
 <sat>0</sat>
</trkpt>
<trkpt lat="60.941686667" lon="15.190458333">
<time>2014-07-06T11:35:39Z</time>
 <fix>none</fix>
 <sat>0</sat>
</trkpt>
<trkpt lat="60.941771667" lon="15.190340000">
<time>2014-07-06T11:35:40Z</time>
 <fix>none</fix>
 <sat>0</sat>
</trkpt>
<trkpt lat="60.941825000" lon="15.190265000">
<time>2014-07-06T11:35:41Z</time>
 <fix>none</fix>
 <sat>0</sat>
</trkpt>
<trkpt lat="60.941866667" lon="15.190150000">
<time>2014-07-06T11:35:42Z</time>
 <fix>none</fix>
 <sat>0</sat>
</trkpt>
<trkpt lat="60.941870000" lon="15.190015000">
<time>2014-07-06T11:35:43Z</time>
 <fix>none</fix>
 <sat>0</sat>
</trkpt>
<trkpt lat="60.941865000" lon="15.189898333">
<time>2014-07-06T11:35:44Z</time>
 <fix>none</fix>
 <sat>0</sat>
</trkpt>
<trkpt lat="60.941858333" lon="15.189780000">
<time>2014-07-06T11:35:45Z</time>
 <fix>none</fix>
 <sat>0</sat>
</trkpt>
<trkpt lat="60.941840000" lon="15.189648333">
<time>2014-07-06T11:35:46Z</time>
 <fix>none</fix>
 <sat>0</sat>
</trkpt>
<trkpt lat="60.941835000" lon="15.189521667">
<time>2014-07-06T11:35:47Z</time>
 <fix>none</fix>
 <sat>0</sat>
</trkpt>
<trkpt lat="60.941835000" lon="15.189391667">
<time>2014-07-06T11:35:48Z</time>
 <fix>none</fix>
 <sat>0</sat>
</trkpt>
<trkpt lat="60.941835000" lon="15.189391667">
<time>2014-07-06T11:35:49Z</time>
 <fix>none</fix>
 <sat>0</sat>
</trkpt>
<trkpt lat="60.941833333" lon="15.189271667">
<time>2014-07-06T11:35:50Z</time>
 <fix>none</fix>
 <sat>0</sat>
</trkpt>
<trkpt lat="60.941813333" lon="15.189175000">
<time>2014-07-06T11:35:51Z</time>
 <fix>none</fix>
 <sat>0</sat>
</trkpt>
<trkpt lat="60.941810000" lon="15.189075000">
<time>2014-07-06T11:35:52Z</time>
 <fix>none</fix>
 <sat>0</sat>
</trkpt>
<trkpt lat="60.941805000" lon="15.188973333">
<time>2014-07-06T11:35:53Z</time>
 <fix>none</fix>
 <sat>0</sat>
</trkpt>
<trkpt lat="60.941793333" lon="15.188863333">
<time>2014-07-06T11:35:54Z</time>
 <fix>none</fix>
 <sat>0</sat>
</trkpt>
<trkpt lat="60.941786667" lon="15.188743333">
<time>2014-07-06T11:35:55Z</time>
 <fix>none</fix>
 <sat>0</sat>
</trkpt>
<trkpt lat="60.941785000" lon="15.188618333">
<time>2014-07-06T11:35:56Z</time>
 <fix>none</fix>
 <sat>0</sat>
</trkpt>
<trkpt lat="60.941785000" lon="15.188618333">
<time>2014-07-06T11:35:57Z</time>
 <fix>none</fix>
 <sat>0</sat>
</trkpt>
<trkpt lat="60.941790000" lon="15.188233333">
<time>2014-07-06T11:35:58Z</time>
 <fix>none</fix>
 <sat>0</sat>
</trkpt>
<trkpt lat="60.941790000" lon="15.188233333">
<time>2014-07-06T11:35:59Z</time>
 <fix>none</fix>
 <sat>0</sat>
</trkpt>
<trkpt lat="60.941793333" lon="15.187933333">
<time>2014-07-06T11:36:00Z</time>
 <fix>none</fix>
 <sat>0</sat>
</trkpt>
<trkpt lat="60.941793333" lon="15.187933333">
<time>2014-07-06T11:36:01Z</time>
 <fix>none</fix>
 <sat>0</sat>
</trkpt>
<trkpt lat="60.941780000" lon="15.187643333">
<time>2014-07-06T11:36:02Z</time>
 <fix>none</fix>
 <sat>0</sat>
</trkpt>
<trkpt lat="60.941780000" lon="15.187643333">
<time>2014-07-06T11:36:03Z</time>
 <fix>none</fix>
 <sat>0</sat>
</trkpt>
<trkpt lat="60.941735000" lon="15.187378333">
<time>2014-07-06T11:36:04Z</time>
 <fix>none</fix>
 <sat>0</sat>
</trkpt>
<trkpt lat="60.941735000" lon="15.187378333">
<time>2014-07-06T11:36:05Z</time>
 <fix>none</fix>
 <sat>0</sat>
</trkpt>
<trkpt lat="60.941698333" lon="15.187076667">
<time>2014-07-06T11:36:06Z</time>
 <fix>none</fix>
 <sat>0</sat>
</trkpt>
<trkpt lat="60.941698333" lon="15.187076667">
<time>2014-07-06T11:36:07Z</time>
 <fix>none</fix>
 <sat>0</sat>
</trkpt>
<trkpt lat="60.941690000" lon="15.186780000">
<time>2014-07-06T11:36:08Z</time>
 <fix>none</fix>
 <sat>0</sat>
</trkpt>
<trkpt lat="60.941690000" lon="15.186780000">
<time>2014-07-06T11:36:09Z</time>
 <fix>none</fix>
 <sat>0</sat>
</trkpt>
<trkpt lat="60.941681667" lon="15.186508333">
<time>2014-07-06T11:36:10Z</time>
 <fix>none</fix>
 <sat>0</sat>
</trkpt>
<trkpt lat="60.941681667" lon="15.186508333">
<time>2014-07-06T11:36:11Z</time>
 <fix>none</fix>
 <sat>0</sat>
</trkpt>
<trkpt lat="60.941666667" lon="15.186286667">
<time>2014-07-06T11:36:12Z</time>
 <fix>none</fix>
 <sat>0</sat>
</trkpt>
<trkpt lat="60.941666667" lon="15.186286667">
<time>2014-07-06T11:36:13Z</time>
 <fix>none</fix>
 <sat>0</sat>
</trkpt>
<trkpt lat="60.941648333" lon="15.186085000">
<time>2014-07-06T11:36:14Z</time>
 <fix>none</fix>
 <sat>0</sat>
</trkpt>
<trkpt lat="60.941648333" lon="15.186085000">
<time>2014-07-06T11:36:15Z</time>
 <fix>none</fix>
 <sat>0</sat>
</trkpt>
<trkpt lat="60.941680000" lon="15.185830000">
<time>2014-07-06T11:36:16Z</time>
 <fix>none</fix>
 <sat>0</sat>
</trkpt>
<trkpt lat="60.941680000" lon="15.185830000">
<time>2014-07-06T11:36:17Z</time>
 <fix>none</fix>
 <sat>0</sat>
</trkpt>
<trkpt lat="60.941611667" lon="15.185710000">
<time>2014-07-06T11:36:18Z</time>
 <fix>none</fix>
 <sat>0</sat>
</trkpt>
<trkpt lat="60.941611667" lon="15.185710000">
<time>2014-07-06T11:36:19Z</time>
 <fix>none</fix>
 <sat>0</sat>
</trkpt>
<trkpt lat="60.941560000" lon="15.185561667">
<time>2014-07-06T11:36:20Z</time>
 <fix>none</fix>
 <sat>0</sat>
</trkpt>
<trkpt lat="60.941560000" lon="15.185561667">
<time>2014-07-06T11:36:21Z</time>
 <fix>none</fix>
 <sat>0</sat>
</trkpt>
<trkpt lat="60.941510000" lon="15.185395000">
<time>2014-07-06T11:36:22Z</time>
 <fix>none</fix>
 <sat>0</sat>
</trkpt>
<trkpt lat="60.941510000" lon="15.185395000">
<time>2014-07-06T11:36:23Z</time>
 <fix>none</fix>
 <sat>0</sat>
</trkpt>
<trkpt lat="60.941488333" lon="15.185168333">
<time>2014-07-06T11:36:24Z</time>
 <fix>none</fix>
 <sat>0</sat>
</trkpt>
<trkpt lat="60.941488333" lon="15.185168333">
<time>2014-07-06T11:36:25Z</time>
 <fix>none</fix>
 <sat>0</sat>
</trkpt>
<trkpt lat="60.941381667" lon="15.185070000">
<time>2014-07-06T11:36:26Z</time>
 <fix>none</fix>
 <sat>0</sat>
</trkpt>
<trkpt lat="60.941381667" lon="15.185070000">
<time>2014-07-06T11:36:27Z</time>
 <fix>none</fix>
 <sat>0</sat>
</trkpt>
<trkpt lat="60.941338333" lon="15.184911667">
<time>2014-07-06T11:36:28Z</time>
 <fix>none</fix>
 <sat>0</sat>
</trkpt>
<trkpt lat="60.941338333" lon="15.184911667">
<time>2014-07-06T11:36:29Z</time>
 <fix>none</fix>
 <sat>0</sat>
</trkpt>
<trkpt lat="60.941246667" lon="15.184828333">
<time>2014-07-06T11:36:30Z</time>
 <fix>none</fix>
 <sat>0</sat>
</trkpt>
<trkpt lat="60.941246667" lon="15.184828333">
<time>2014-07-06T11:36:31Z</time>
 <fix>none</fix>
 <sat>0</sat>
</trkpt>
<trkpt lat="60.941186667" lon="15.184675000">
<time>2014-07-06T11:36:32Z</time>
 <fix>none</fix>
 <sat>0</sat>
</trkpt>
<trkpt lat="60.941186667" lon="15.184675000">
<time>2014-07-06T11:36:33Z</time>
 <fix>none</fix>
 <sat>0</sat>
</trkpt>
<trkpt lat="60.941155000" lon="15.184476667">
<time>2014-07-06T11:36:34Z</time>
 <fix>none</fix>
 <sat>0</sat>
</trkpt>
<trkpt lat="60.941155000" lon="15.184476667">
<time>2014-07-06T11:36:35Z</time>
 <fix>none</fix>
 <sat>0</sat>
</trkpt>
<trkpt lat="60.941101667" lon="15.184310000">
<time>2014-07-06T11:36:36Z</time>
 <fix>none</fix>
 <sat>0</sat>
</trkpt>
<trkpt lat="60.941101667" lon="15.184310000">
<time>2014-07-06T11:36:37Z</time>
 <fix>none</fix>
 <sat>0</sat>
</trkpt>
<trkpt lat="60.941041667" lon="15.184151667">
<time>2014-07-06T11:36:38Z</time>
 <fix>none</fix>
 <sat>0</sat>
</trkpt>
<trkpt lat="60.941041667" lon="15.184151667">
<time>2014-07-06T11:36:39Z</time>
 <fix>none</fix>
 <sat>0</sat>
</trkpt>
<trkpt lat="60.941000000" lon="15.183948333">
<time>2014-07-06T11:36:40Z</time>
 <fix>none</fix>
 <sat>0</sat>
</trkpt>
<trkpt lat="60.941000000" lon="15.183948333">
<time>2014-07-06T11:36:41Z</time>
 <fix>none</fix>
 <sat>0</sat>
</trkpt>
<trkpt lat="60.940933333" lon="15.183798333">
<time>2014-07-06T11:36:42Z</time>
 <fix>none</fix>
 <sat>0</sat>
</trkpt>
<trkpt lat="60.940933333" lon="15.183798333">
<time>2014-07-06T11:36:43Z</time>
 <fix>none</fix>
 <sat>0</sat>
</trkpt>
<trkpt lat="60.940883333" lon="15.183585000">
<time>2014-07-06T11:36:44Z</time>
 <fix>none</fix>
 <sat>0</sat>
</trkpt>
<trkpt lat="60.940883333" lon="15.183585000">
<time>2014-07-06T11:36:45Z</time>
 <fix>none</fix>
 <sat>0</sat>
</trkpt>
<trkpt lat="60.940876667" lon="15.183381667">
<time>2014-07-06T11:36:46Z</time>
 <fix>none</fix>
 <sat>0</sat>
</trkpt>
<trkpt lat="60.940876667" lon="15.183381667">
<time>2014-07-06T11:36:47Z</time>
 <fix>none</fix>
 <sat>0</sat>
</trkpt>
<trkpt lat="60.940878333" lon="15.183146667">
<time>2014-07-06T11:36:48Z</time>
 <fix>none</fix>
 <sat>0</sat>
</trkpt>
<trkpt lat="60.940878333" lon="15.183146667">
<time>2014-07-06T11:36:49Z</time>
 <fix>none</fix>
 <sat>0</sat>
</trkpt>
<trkpt lat="60.940876667" lon="15.182925000">
<time>2014-07-06T11:36:50Z</time>
 <fix>none</fix>
 <sat>0</sat>
</trkpt>
<trkpt lat="60.940876667" lon="15.182925000">
<time>2014-07-06T11:36:51Z</time>
 <fix>none</fix>
 <sat>0</sat>
</trkpt>
<trkpt lat="60.940855000" lon="15.182671667">
<time>2014-07-06T11:36:52Z</time>
 <fix>none</fix>
 <sat>0</sat>
</trkpt>
<trkpt lat="60.940850000" lon="15.182568333">
<time>2014-07-06T11:36:53Z</time>
 <fix>none</fix>
 <sat>0</sat>
</trkpt>
<trkpt lat="60.940868333" lon="15.182388333">
<time>2014-07-06T11:36:54Z</time>
 <fix>none</fix>
 <sat>0</sat>
</trkpt>
<trkpt lat="60.940886667" lon="15.182218333">
<time>2014-07-06T11:36:55Z</time>
 <fix>none</fix>
 <sat>0</sat>
</trkpt>
<trkpt lat="60.940888333" lon="15.182065000">
<time>2014-07-06T11:36:56Z</time>
 <fix>none</fix>
 <sat>0</sat>
</trkpt>
<trkpt lat="60.940888333" lon="15.182065000">
<time>2014-07-06T11:36:57Z</time>
 <fix>none</fix>
 <sat>0</sat>
</trkpt>
<trkpt lat="60.940875000" lon="15.181916667">
<time>2014-07-06T11:36:58Z</time>
 <fix>none</fix>
 <sat>0</sat>
</trkpt>
<trkpt lat="60.940855000" lon="15.181775000">
<time>2014-07-06T11:36:59Z</time>
 <fix>none</fix>
 <sat>0</sat>
</trkpt>
<trkpt lat="60.940800000" lon="15.181678333">
<time>2014-07-06T11:37:00Z</time>
 <fix>none</fix>
 <sat>0</sat>
</trkpt>
<trkpt lat="60.940746667" lon="15.181585000">
<time>2014-07-06T11:37:01Z</time>
 <fix>none</fix>
 <sat>0</sat>
</trkpt>
<trkpt lat="60.940691667" lon="15.181473333">
<time>2014-07-06T11:37:02Z</time>
 <fix>none</fix>
 <sat>0</sat>
</trkpt>
<trkpt lat="60.940643333" lon="15.181376667">
<time>2014-07-06T11:37:03Z</time>
 <fix>none</fix>
 <sat>0</sat>
</trkpt>
<trkpt lat="60.940556667" lon="15.181153333">
<time>2014-07-06T11:37:04Z</time>
 <fix>none</fix>
 <sat>0</sat>
</trkpt>
<trkpt lat="60.940513333" lon="15.181035000">
<time>2014-07-06T11:37:05Z</time>
 <fix>none</fix>
 <sat>0</sat>
</trkpt>
<trkpt lat="60.940468333" lon="15.180916667">
<time>2014-07-06T11:37:06Z</time>
 <fix>none</fix>
 <sat>0</sat>
</trkpt>
<trkpt lat="60.940468333" lon="15.180916667">
<time>2014-07-06T11:37:07Z</time>
 <fix>none</fix>
 <sat>0</sat>
</trkpt>
<trkpt lat="60.940468333" lon="15.180916667">
<time>2014-07-06T11:37:08Z</time>
 <fix>none</fix>
 <sat>0</sat>
</trkpt>
<trkpt lat="60.940338333" lon="15.180518333">
<time>2014-07-06T11:37:09Z</time>
 <fix>none</fix>
 <sat>0</sat>
</trkpt>
<trkpt lat="60.940338333" lon="15.180518333">
<time>2014-07-06T11:37:10Z</time>
 <fix>none</fix>
 <sat>0</sat>
</trkpt>
<trkpt lat="60.940253333" lon="15.180256667">
<time>2014-07-06T11:37:11Z</time>
 <fix>none</fix>
 <sat>0</sat>
</trkpt>
<trkpt lat="60.940253333" lon="15.180256667">
<time>2014-07-06T11:37:12Z</time>
 <fix>none</fix>
 <sat>0</sat>
</trkpt>
<trkpt lat="60.940130000" lon="15.180013333">
<time>2014-07-06T11:37:13Z</time>
 <fix>none</fix>
 <sat>0</sat>
</trkpt>
<trkpt lat="60.940130000" lon="15.180013333">
<time>2014-07-06T11:37:14Z</time>
 <fix>none</fix>
 <sat>0</sat>
</trkpt>
<trkpt lat="60.940005000" lon="15.179771667">
<time>2014-07-06T11:37:15Z</time>
 <fix>none</fix>
 <sat>0</sat>
</trkpt>
<trkpt lat="60.940005000" lon="15.179771667">
<time>2014-07-06T11:37:16Z</time>
 <fix>none</fix>
 <sat>0</sat>
</trkpt>
<trkpt lat="60.939870000" lon="15.179551667">
<time>2014-07-06T11:37:17Z</time>
 <fix>none</fix>
 <sat>0</sat>
</trkpt>
<trkpt lat="60.939870000" lon="15.179551667">
<time>2014-07-06T11:37:18Z</time>
 <fix>none</fix>
 <sat>0</sat>
</trkpt>
<trkpt lat="60.939746667" lon="15.179328333">
<time>2014-07-06T11:37:19Z</time>
 <fix>none</fix>
 <sat>0</sat>
</trkpt>
<trkpt lat="60.939746667" lon="15.179328333">
<time>2014-07-06T11:37:20Z</time>
 <fix>none</fix>
 <sat>0</sat>
</trkpt>
<trkpt lat="60.939548333" lon="15.179173333">
<time>2014-07-06T11:37:21Z</time>
 <fix>none</fix>
 <sat>0</sat>
</trkpt>
<trkpt lat="60.939548333" lon="15.179173333">
<time>2014-07-06T11:37:22Z</time>
 <fix>none</fix>
 <sat>0</sat>
</trkpt>
<trkpt lat="60.939435000" lon="15.178908333">
<time>2014-07-06T11:37:23Z</time>
 <fix>none</fix>
 <sat>0</sat>
</trkpt>
<trkpt lat="60.939435000" lon="15.178908333">
<time>2014-07-06T11:37:24Z</time>
 <fix>none</fix>
 <sat>0</sat>
</trkpt>
<trkpt lat="60.939355000" lon="15.178691667">
<time>2014-07-06T11:37:25Z</time>
 <fix>none</fix>
 <sat>0</sat>
</trkpt>
<trkpt lat="60.939355000" lon="15.178691667">
<time>2014-07-06T11:37:26Z</time>
 <fix>none</fix>
 <sat>0</sat>
</trkpt>
<trkpt lat="60.939248333" lon="15.178430000">
<time>2014-07-06T11:37:27Z</time>
 <fix>none</fix>
 <sat>0</sat>
</trkpt>
<trkpt lat="60.939201667" lon="15.178325000">
<time>2014-07-06T11:37:28Z</time>
 <fix>none</fix>
 <sat>0</sat>
</trkpt>
<trkpt lat="60.939140000" lon="15.178160000">
<time>2014-07-06T11:37:29Z</time>
 <fix>none</fix>
 <sat>0</sat>
</trkpt>
<trkpt lat="60.939100000" lon="15.178041667">
<time>2014-07-06T11:37:30Z</time>
 <fix>none</fix>
 <sat>0</sat>
</trkpt>
<trkpt lat="60.939035000" lon="15.177908333">
<time>2014-07-06T11:37:31Z</time>
 <fix>none</fix>
 <sat>0</sat>
</trkpt>
<trkpt lat="60.938986667" lon="15.177768333">
<time>2014-07-06T11:37:32Z</time>
 <fix>none</fix>
 <sat>0</sat>
</trkpt>
<trkpt lat="60.938928333" lon="15.177638333">
<time>2014-07-06T11:37:33Z</time>
 <fix>none</fix>
 <sat>0</sat>
</trkpt>
<trkpt lat="60.938883333" lon="15.177491667">
<time>2014-07-06T11:37:34Z</time>
 <fix>none</fix>
 <sat>0</sat>
</trkpt>
<trkpt lat="60.938841667" lon="15.177345000">
<time>2014-07-06T11:37:35Z</time>
 <fix>none</fix>
 <sat>0</sat>
</trkpt>
<trkpt lat="60.938811667" lon="15.177185000">
<time>2014-07-06T11:37:36Z</time>
 <fix>none</fix>
 <sat>0</sat>
</trkpt>
<trkpt lat="60.938780000" lon="15.177030000">
<time>2014-07-06T11:37:37Z</time>
 <fix>none</fix>
 <sat>0</sat>
</trkpt>
<trkpt lat="60.938750000" lon="15.176876667">
<time>2014-07-06T11:37:38Z</time>
 <fix>none</fix>
 <sat>0</sat>
</trkpt>
<trkpt lat="60.938715000" lon="15.176728333">
<time>2014-07-06T11:37:39Z</time>
 <fix>none</fix>
 <sat>0</sat>
</trkpt>
<trkpt lat="60.938715000" lon="15.176728333">
<time>2014-07-06T11:37:40Z</time>
 <fix>none</fix>
 <sat>0</sat>
</trkpt>
<trkpt lat="60.938715000" lon="15.176728333">
<time>2014-07-06T11:37:41Z</time>
 <fix>none</fix>
 <sat>0</sat>
</trkpt>
<trkpt lat="60.938631667" lon="15.176291667">
<time>2014-07-06T11:37:42Z</time>
 <fix>none</fix>
 <sat>0</sat>
</trkpt>
<trkpt lat="60.938631667" lon="15.176291667">
<time>2014-07-06T11:37:43Z</time>
 <fix>none</fix>
 <sat>0</sat>
</trkpt>
<trkpt lat="60.938581667" lon="15.176003333">
<time>2014-07-06T11:37:44Z</time>
 <fix>none</fix>
 <sat>0</sat>
</trkpt>
<trkpt lat="60.938581667" lon="15.176003333">
<time>2014-07-06T11:37:45Z</time>
 <fix>none</fix>
 <sat>0</sat>
</trkpt>
<trkpt lat="60.938528333" lon="15.175720000">
<time>2014-07-06T11:37:46Z</time>
 <fix>none</fix>
 <sat>0</sat>
</trkpt>
<trkpt lat="60.938528333" lon="15.175720000">
<time>2014-07-06T11:37:47Z</time>
 <fix>none</fix>
 <sat>0</sat>
</trkpt>
<trkpt lat="60.938465000" lon="15.175450000">
<time>2014-07-06T11:37:48Z</time>
 <fix>none</fix>
 <sat>0</sat>
</trkpt>
<trkpt lat="60.938465000" lon="15.175450000">
<time>2014-07-06T11:37:49Z</time>
 <fix>none</fix>
 <sat>0</sat>
</trkpt>
<trkpt lat="60.938465000" lon="15.175450000">
<time>2014-07-06T11:37:50Z</time>
 <fix>none</fix>
 <sat>0</sat>
</trkpt>
<trkpt lat="60.938393333" lon="15.175166667">
<time>2014-07-06T11:37:51Z</time>
 <fix>none</fix>
 <sat>0</sat>
</trkpt>
<trkpt lat="60.938261667" lon="15.174971667">
<time>2014-07-06T11:37:52Z</time>
 <fix>none</fix>
 <sat>0</sat>
</trkpt>
<trkpt lat="60.938228333" lon="15.174896667">
<time>2014-07-06T11:37:53Z</time>
 <fix>none</fix>
 <sat>0</sat>
</trkpt>
<trkpt lat="60.938216667" lon="15.174760000">
<time>2014-07-06T11:37:54Z</time>
 <fix>none</fix>
 <sat>0</sat>
</trkpt>
<trkpt lat="60.938201667" lon="15.174613333">
<time>2014-07-06T11:37:55Z</time>
 <fix>none</fix>
 <sat>0</sat>
</trkpt>
<trkpt lat="60.938173333" lon="15.174486667">
<time>2014-07-06T11:37:56Z</time>
 <fix>none</fix>
 <sat>0</sat>
</trkpt>
<trkpt lat="60.938155000" lon="15.174356667">
<time>2014-07-06T11:37:57Z</time>
 <fix>none</fix>
 <sat>0</sat>
</trkpt>
<trkpt lat="60.938148333" lon="15.174228333">
<time>2014-07-06T11:37:58Z</time>
 <fix>none</fix>
 <sat>0</sat>
</trkpt>
<trkpt lat="60.938150000" lon="15.174115000">
<time>2014-07-06T11:37:59Z</time>
 <fix>none</fix>
 <sat>0</sat>
</trkpt>
<trkpt lat="60.938153333" lon="15.174001667">
<time>2014-07-06T11:38:00Z</time>
 <fix>none</fix>
 <sat>0</sat>
</trkpt>
<trkpt lat="60.938175000" lon="15.173915000">
<time>2014-07-06T11:38:01Z</time>
 <fix>none</fix>
 <sat>0</sat>
</trkpt>
<trkpt lat="60.938211667" lon="15.173838333">
<time>2014-07-06T11:38:02Z</time>
 <fix>none</fix>
 <sat>0</sat>
</trkpt>
<trkpt lat="60.938248333" lon="15.173756667">
<time>2014-07-06T11:38:03Z</time>
 <fix>none</fix>
 <sat>0</sat>
</trkpt>
<trkpt lat="60.938295000" lon="15.173651667">
<time>2014-07-06T11:38:04Z</time>
 <fix>none</fix>
 <sat>0</sat>
</trkpt>
<trkpt lat="60.938295000" lon="15.173651667">
<time>2014-07-06T11:38:05Z</time>
 <fix>none</fix>
 <sat>0</sat>
</trkpt>
<trkpt lat="60.938358333" lon="15.173521667">
<time>2014-07-06T11:38:06Z</time>
 <fix>none</fix>
 <sat>0</sat>
</trkpt>
<trkpt lat="60.938421667" lon="15.173421667">
<time>2014-07-06T11:38:07Z</time>
 <fix>none</fix>
 <sat>0</sat>
</trkpt>
<trkpt lat="60.938480000" lon="15.173333333">
<time>2014-07-06T11:38:08Z</time>
 <fix>none</fix>
 <sat>0</sat>
</trkpt>
<trkpt lat="60.938541667" lon="15.173246667">
<time>2014-07-06T11:38:09Z</time>
 <fix>none</fix>
 <sat>0</sat>
</trkpt>
<trkpt lat="60.938598333" lon="15.173146667">
<time>2014-07-06T11:38:10Z</time>
 <fix>none</fix>
 <sat>0</sat>
</trkpt>
<trkpt lat="60.938720000" lon="15.172956667">
<time>2014-07-06T11:38:11Z</time>
 <fix>none</fix>
 <sat>0</sat>
</trkpt>
<trkpt lat="60.938771667" lon="15.172855000">
<time>2014-07-06T11:38:12Z</time>
 <fix>none</fix>
 <sat>0</sat>
</trkpt>
<trkpt lat="60.938771667" lon="15.172855000">
<time>2014-07-06T11:38:13Z</time>
 <fix>none</fix>
 <sat>0</sat>
</trkpt>
<trkpt lat="60.938873333" lon="15.172636667">
<time>2014-07-06T11:38:14Z</time>
 <fix>none</fix>
 <sat>0</sat>
</trkpt>
<trkpt lat="60.938928333" lon="15.172531667">
<time>2014-07-06T11:38:15Z</time>
 <fix>none</fix>
 <sat>0</sat>
</trkpt>
<trkpt lat="60.938981667" lon="15.172408333">
<time>2014-07-06T11:38:16Z</time>
 <fix>none</fix>
 <sat>0</sat>
</trkpt>
<trkpt lat="60.939033333" lon="15.172276667">
<time>2014-07-06T11:38:17Z</time>
 <fix>none</fix>
 <sat>0</sat>
</trkpt>
<trkpt lat="60.939086667" lon="15.172138333">
<time>2014-07-06T11:38:18Z</time>
 <fix>none</fix>
 <sat>0</sat>
</trkpt>
<trkpt lat="60.939126667" lon="15.171993333">
<time>2014-07-06T11:38:19Z</time>
 <fix>none</fix>
 <sat>0</sat>
</trkpt>
<trkpt lat="60.939161667" lon="15.171851667">
<time>2014-07-06T11:38:20Z</time>
 <fix>none</fix>
 <sat>0</sat>
</trkpt>
<trkpt lat="60.939195000" lon="15.171711667">
<time>2014-07-06T11:38:21Z</time>
 <fix>none</fix>
 <sat>0</sat>
</trkpt>
<trkpt lat="60.939221667" lon="15.171590000">
<time>2014-07-06T11:38:22Z</time>
 <fix>none</fix>
 <sat>0</sat>
</trkpt>
<trkpt lat="60.939255000" lon="15.171483333">
<time>2014-07-06T11:38:23Z</time>
 <fix>none</fix>
 <sat>0</sat>
</trkpt>
<trkpt lat="60.939290000" lon="15.171395000">
<time>2014-07-06T11:38:24Z</time>
 <fix>none</fix>
 <sat>0</sat>
</trkpt>
<trkpt lat="60.939331667" lon="15.171326667">
<time>2014-07-06T11:38:25Z</time>
 <fix>none</fix>
 <sat>0</sat>
</trkpt>
<trkpt lat="60.939375000" lon="15.171275000">
<time>2014-07-06T11:38:26Z</time>
 <fix>none</fix>
 <sat>0</sat>
</trkpt>
<trkpt lat="60.939420000" lon="15.171226667">
<time>2014-07-06T11:38:27Z</time>
 <fix>none</fix>
 <sat>0</sat>
</trkpt>
<trkpt lat="60.939420000" lon="15.171226667">
<time>2014-07-06T11:38:28Z</time>
 <fix>none</fix>
 <sat>0</sat>
</trkpt>
<trkpt lat="60.939465000" lon="15.171188333">
<time>2014-07-06T11:38:29Z</time>
 <fix>none</fix>
 <sat>0</sat>
</trkpt>
<trkpt lat="60.939508333" lon="15.171146667">
<time>2014-07-06T11:38:30Z</time>
 <fix>none</fix>
 <sat>0</sat>
</trkpt>
<trkpt lat="60.939548333" lon="15.171106667">
<time>2014-07-06T11:38:31Z</time>
 <fix>none</fix>
 <sat>0</sat>
</trkpt>
<trkpt lat="60.939588333" lon="15.171058333">
<time>2014-07-06T11:38:32Z</time>
 <fix>none</fix>
 <sat>0</sat>
</trkpt>
<trkpt lat="60.939628333" lon="15.171026667">
<time>2014-07-06T11:38:33Z</time>
 <fix>none</fix>
 <sat>0</sat>
</trkpt>
<trkpt lat="60.939665000" lon="15.170995000">
<time>2014-07-06T11:38:34Z</time>
 <fix>none</fix>
 <sat>0</sat>
</trkpt>
<trkpt lat="60.939701667" lon="15.170953333">
<time>2014-07-06T11:38:35Z</time>
 <fix>none</fix>
 <sat>0</sat>
</trkpt>
<trkpt lat="60.939701667" lon="15.170953333">
<time>2014-07-06T11:38:36Z</time>
 <fix>none</fix>
 <sat>0</sat>
</trkpt>
<trkpt lat="60.939808333" lon="15.170866667">
<time>2014-07-06T11:38:37Z</time>
 <fix>none</fix>
 <sat>0</sat>
</trkpt>
<trkpt lat="60.939808333" lon="15.170866667">
<time>2014-07-06T11:38:38Z</time>
 <fix>none</fix>
 <sat>0</sat>
</trkpt>
<trkpt lat="60.939890000" lon="15.170835000">
<time>2014-07-06T11:38:39Z</time>
 <fix>none</fix>
 <sat>0</sat>
</trkpt>
<trkpt lat="60.939890000" lon="15.170835000">
<time>2014-07-06T11:38:40Z</time>
 <fix>none</fix>
 <sat>0</sat>
</trkpt>
<trkpt lat="60.939961667" lon="15.170781667">
<time>2014-07-06T11:38:41Z</time>
 <fix>none</fix>
 <sat>0</sat>
</trkpt>
<trkpt lat="60.939961667" lon="15.170781667">
<time>2014-07-06T11:38:42Z</time>
 <fix>none</fix>
 <sat>0</sat>
</trkpt>
<trkpt lat="60.940051667" lon="15.170776667">
<time>2014-07-06T11:38:43Z</time>
 <fix>none</fix>
 <sat>0</sat>
</trkpt>
<trkpt lat="60.940051667" lon="15.170776667">
<time>2014-07-06T11:38:44Z</time>
 <fix>none</fix>
 <sat>0</sat>
</trkpt>
<trkpt lat="60.940128333" lon="15.170746667">
<time>2014-07-06T11:38:45Z</time>
 <fix>none</fix>
 <sat>0</sat>
</trkpt>
<trkpt lat="60.940128333" lon="15.170746667">
<time>2014-07-06T11:38:46Z</time>
 <fix>none</fix>
 <sat>0</sat>
</trkpt>
<trkpt lat="60.940175000" lon="15.170648333">
<time>2014-07-06T11:38:47Z</time>
 <fix>none</fix>
 <sat>0</sat>
</trkpt>
<trkpt lat="60.940200000" lon="15.170618333">
<time>2014-07-06T11:38:48Z</time>
 <fix>none</fix>
 <sat>0</sat>
</trkpt>
<trkpt lat="60.940238333" lon="15.170600000">
<time>2014-07-06T11:38:49Z</time>
 <fix>none</fix>
 <sat>0</sat>
</trkpt>
<trkpt lat="60.940256667" lon="15.170581667">
<time>2014-07-06T11:38:50Z</time>
 <fix>none</fix>
 <sat>0</sat>
</trkpt>
<trkpt lat="60.940256667" lon="15.170581667">
<time>2014-07-06T11:38:51Z</time>
 <fix>none</fix>
 <sat>0</sat>
</trkpt>
<trkpt lat="60.940285000" lon="15.170565000">
<time>2014-07-06T11:38:52Z</time>
 <fix>none</fix>
 <sat>0</sat>
</trkpt>
<trkpt lat="60.940315000" lon="15.170553333">
<time>2014-07-06T11:38:53Z</time>
 <fix>none</fix>
 <sat>0</sat>
</trkpt>
<trkpt lat="60.940343333" lon="15.170523333">
<time>2014-07-06T11:38:54Z</time>
 <fix>none</fix>
 <sat>0</sat>
</trkpt>
<trkpt lat="60.940373333" lon="15.170501667">
<time>2014-07-06T11:38:55Z</time>
 <fix>none</fix>
 <sat>0</sat>
</trkpt>
<trkpt lat="60.940406667" lon="15.170485000">
<time>2014-07-06T11:38:56Z</time>
 <fix>none</fix>
 <sat>0</sat>
</trkpt>
<trkpt lat="60.940433333" lon="15.170463333">
<time>2014-07-06T11:38:57Z</time>
 <fix>none</fix>
 <sat>0</sat>
</trkpt>
<trkpt lat="60.940451667" lon="15.170455000">
<time>2014-07-06T11:38:58Z</time>
 <fix>none</fix>
 <sat>0</sat>
</trkpt>
<trkpt lat="60.940491667" lon="15.170426667">
<time>2014-07-06T11:38:59Z</time>
 <fix>none</fix>
 <sat>0</sat>
</trkpt>
<trkpt lat="60.940491667" lon="15.170426667">
<time>2014-07-06T11:39:00Z</time>
 <fix>none</fix>
 <sat>0</sat>
</trkpt>
<trkpt lat="60.940491667" lon="15.170426667">
<time>2014-07-06T11:39:01Z</time>
 <fix>none</fix>
 <sat>0</sat>
</trkpt>
<trkpt lat="60.940525000" lon="15.170418333">
<time>2014-07-06T11:39:02Z</time>
 <fix>none</fix>
 <sat>0</sat>
</trkpt>
<trkpt lat="60.940536667" lon="15.170410000">
<time>2014-07-06T11:39:03Z</time>
 <fix>none</fix>
 <sat>0</sat>
</trkpt>
<trkpt lat="60.940568333" lon="15.170366667">
<time>2014-07-06T11:39:04Z</time>
 <fix>none</fix>
 <sat>0</sat>
</trkpt>
<trkpt lat="60.940585000" lon="15.170323333">
<time>2014-07-06T11:39:05Z</time>
 <fix>none</fix>
 <sat>0</sat>
</trkpt>
<trkpt lat="60.940596667" lon="15.170306667">
<time>2014-07-06T11:39:06Z</time>
 <fix>none</fix>
 <sat>0</sat>
</trkpt>
<trkpt lat="60.940620000" lon="15.170265000">
<time>2014-07-06T11:39:07Z</time>
 <fix>none</fix>
 <sat>0</sat>
</trkpt>
<trkpt lat="60.940631667" lon="15.170240000">
<time>2014-07-06T11:39:08Z</time>
 <fix>none</fix>
 <sat>0</sat>
</trkpt>
<trkpt lat="60.940653333" lon="15.170200000">
<time>2014-07-06T11:39:09Z</time>
 <fix>none</fix>
 <sat>0</sat>
</trkpt>
<trkpt lat="60.940676667" lon="15.170163333">
<time>2014-07-06T11:39:10Z</time>
 <fix>none</fix>
 <sat>0</sat>
</trkpt>
<trkpt lat="60.940701667" lon="15.170123333">
<time>2014-07-06T11:39:11Z</time>
 <fix>none</fix>
 <sat>0</sat>
</trkpt>
<trkpt lat="60.940718333" lon="15.170101667">
<time>2014-07-06T11:39:12Z</time>
 <fix>none</fix>
 <sat>0</sat>
</trkpt>
<trkpt lat="60.940743333" lon="15.170066667">
<time>2014-07-06T11:39:13Z</time>
 <fix>none</fix>
 <sat>0</sat>
</trkpt>
<trkpt lat="60.940743333" lon="15.170066667">
<time>2014-07-06T11:39:14Z</time>
 <fix>none</fix>
 <sat>0</sat>
</trkpt>
<trkpt lat="60.940775000" lon="15.170021667">
<time>2014-07-06T11:39:15Z</time>
 <fix>none</fix>
 <sat>0</sat>
</trkpt>
<trkpt lat="60.940800000" lon="15.169970000">
<time>2014-07-06T11:39:16Z</time>
 <fix>none</fix>
 <sat>0</sat>
</trkpt>
<trkpt lat="60.940826667" lon="15.169945000">
<time>2014-07-06T11:39:17Z</time>
 <fix>none</fix>
 <sat>0</sat>
</trkpt>
<trkpt lat="60.940846667" lon="15.169911667">
<time>2014-07-06T11:39:18Z</time>
 <fix>none</fix>
 <sat>0</sat>
</trkpt>
<trkpt lat="60.940876667" lon="15.169871667">
<time>2014-07-06T11:39:19Z</time>
 <fix>none</fix>
 <sat>0</sat>
</trkpt>
<trkpt lat="60.940916667" lon="15.169798333">
<time>2014-07-06T11:39:20Z</time>
 <fix>none</fix>
 <sat>0</sat>
</trkpt>
<trkpt lat="60.940916667" lon="15.169798333">
<time>2014-07-06T11:39:21Z</time>
 <fix>none</fix>
 <sat>0</sat>
</trkpt>
<trkpt lat="60.940963333" lon="15.169735000">
<time>2014-07-06T11:39:22Z</time>
 <fix>none</fix>
 <sat>0</sat>
</trkpt>
<trkpt lat="60.941006667" lon="15.169710000">
<time>2014-07-06T11:39:23Z</time>
 <fix>none</fix>
 <sat>0</sat>
</trkpt>
<trkpt lat="60.941046667" lon="15.169681667">
<time>2014-07-06T11:39:24Z</time>
 <fix>none</fix>
 <sat>0</sat>
</trkpt>
<trkpt lat="60.941083333" lon="15.169661667">
<time>2014-07-06T11:39:25Z</time>
 <fix>none</fix>
 <sat>0</sat>
</trkpt>
<trkpt lat="60.941133333" lon="15.169636667">
<time>2014-07-06T11:39:26Z</time>
 <fix>none</fix>
 <sat>0</sat>
</trkpt>
<trkpt lat="60.941133333" lon="15.169636667">
<time>2014-07-06T11:39:27Z</time>
 <fix>none</fix>
 <sat>0</sat>
</trkpt>
<trkpt lat="60.941208333" lon="15.169596667">
<time>2014-07-06T11:39:28Z</time>
 <fix>none</fix>
 <sat>0</sat>
</trkpt>
<trkpt lat="60.941241667" lon="15.169560000">
<time>2014-07-06T11:39:29Z</time>
 <fix>none</fix>
 <sat>0</sat>
</trkpt>
<trkpt lat="60.941283333" lon="15.169526667">
<time>2014-07-06T11:39:30Z</time>
 <fix>none</fix>
 <sat>0</sat>
</trkpt>
<trkpt lat="60.941323333" lon="15.169500000">
<time>2014-07-06T11:39:31Z</time>
 <fix>none</fix>
 <sat>0</sat>
</trkpt>
<trkpt lat="60.941358333" lon="15.169470000">
<time>2014-07-06T11:39:32Z</time>
 <fix>none</fix>
 <sat>0</sat>
</trkpt>
<trkpt lat="60.941396667" lon="15.169441667">
<time>2014-07-06T11:39:33Z</time>
 <fix>none</fix>
 <sat>0</sat>
</trkpt>
<trkpt lat="60.941431667" lon="15.169416667">
<time>2014-07-06T11:39:34Z</time>
 <fix>none</fix>
 <sat>0</sat>
</trkpt>
<trkpt lat="60.941465000" lon="15.169400000">
<time>2014-07-06T11:39:35Z</time>
 <fix>none</fix>
 <sat>0</sat>
</trkpt>
<trkpt lat="60.941498333" lon="15.169380000">
<time>2014-07-06T11:39:36Z</time>
 <fix>none</fix>
 <sat>0</sat>
</trkpt>
<trkpt lat="60.941498333" lon="15.169380000">
<time>2014-07-06T11:39:37Z</time>
 <fix>none</fix>
 <sat>0</sat>
</trkpt>
<trkpt lat="60.941535000" lon="15.169351667">
<time>2014-07-06T11:39:38Z</time>
 <fix>none</fix>
 <sat>0</sat>
</trkpt>
<trkpt lat="60.941566667" lon="15.169323333">
<time>2014-07-06T11:39:39Z</time>
 <fix>none</fix>
 <sat>0</sat>
</trkpt>
<trkpt lat="60.941598333" lon="15.169301667">
<time>2014-07-06T11:39:40Z</time>
 <fix>none</fix>
 <sat>0</sat>
</trkpt>
<trkpt lat="60.941625000" lon="15.169288333">
<time>2014-07-06T11:39:41Z</time>
 <fix>none</fix>
 <sat>0</sat>
</trkpt>
<trkpt lat="60.941688333" lon="15.169248333">
<time>2014-07-06T11:39:42Z</time>
 <fix>none</fix>
 <sat>0</sat>
</trkpt>
<trkpt lat="60.941721667" lon="15.169225000">
<time>2014-07-06T11:39:43Z</time>
 <fix>none</fix>
 <sat>0</sat>
</trkpt>
<trkpt lat="60.941761667" lon="15.169188333">
<time>2014-07-06T11:39:44Z</time>
 <fix>none</fix>
 <sat>0</sat>
</trkpt>
<trkpt lat="60.941790000" lon="15.169168333">
<time>2014-07-06T11:39:45Z</time>
 <fix>none</fix>
 <sat>0</sat>
</trkpt>
<trkpt lat="60.941808333" lon="15.169161667">
<time>2014-07-06T11:39:46Z</time>
 <fix>none</fix>
 <sat>0</sat>
</trkpt>
<trkpt lat="60.941828333" lon="15.169158333">
<time>2014-07-06T11:39:47Z</time>
 <fix>none</fix>
 <sat>0</sat>
</trkpt>
<trkpt lat="60.941855000" lon="15.169146667">
<time>2014-07-06T11:39:48Z</time>
 <fix>none</fix>
 <sat>0</sat>
</trkpt>
<trkpt lat="60.941883333" lon="15.169138333">
<time>2014-07-06T11:39:49Z</time>
 <fix>none</fix>
 <sat>0</sat>
</trkpt>
<trkpt lat="60.941905000" lon="15.169140000">
<time>2014-07-06T11:39:50Z</time>
 <fix>none</fix>
 <sat>0</sat>
</trkpt>
<trkpt lat="60.941935000" lon="15.169133333">
<time>2014-07-06T11:39:51Z</time>
 <fix>none</fix>
 <sat>0</sat>
</trkpt>
<trkpt lat="60.941963333" lon="15.169118333">
<time>2014-07-06T11:39:52Z</time>
 <fix>none</fix>
 <sat>0</sat>
</trkpt>
<trkpt lat="60.942003333" lon="15.169080000">
<time>2014-07-06T11:39:53Z</time>
 <fix>none</fix>
 <sat>0</sat>
</trkpt>
<trkpt lat="60.942035000" lon="15.169045000">
<time>2014-07-06T11:39:54Z</time>
 <fix>none</fix>
 <sat>0</sat>
</trkpt>
<trkpt lat="60.942068333" lon="15.169016667">
<time>2014-07-06T11:39:55Z</time>
 <fix>none</fix>
 <sat>0</sat>
</trkpt>
<trkpt lat="60.942096667" lon="15.168998333">
<time>2014-07-06T11:39:56Z</time>
 <fix>none</fix>
 <sat>0</sat>
</trkpt>
<trkpt lat="60.942125000" lon="15.168975000">
<time>2014-07-06T11:39:57Z</time>
 <fix>none</fix>
 <sat>0</sat>
</trkpt>
<trkpt lat="60.942155000" lon="15.168945000">
<time>2014-07-06T11:39:58Z</time>
 <fix>none</fix>
 <sat>0</sat>
</trkpt>
<trkpt lat="60.942183333" lon="15.168920000">
<time>2014-07-06T11:39:59Z</time>
 <fix>none</fix>
 <sat>0</sat>
</trkpt>
<trkpt lat="60.942183333" lon="15.168920000">
<time>2014-07-06T11:40:00Z</time>
 <fix>none</fix>
 <sat>0</sat>
</trkpt>
<trkpt lat="60.942211667" lon="15.168905000">
<time>2014-07-06T11:40:01Z</time>
 <fix>none</fix>
 <sat>0</sat>
</trkpt>
<trkpt lat="60.942248333" lon="15.168880000">
<time>2014-07-06T11:40:02Z</time>
 <fix>none</fix>
 <sat>0</sat>
</trkpt>
<trkpt lat="60.942283333" lon="15.168856667">
<time>2014-07-06T11:40:03Z</time>
 <fix>none</fix>
 <sat>0</sat>
</trkpt>
<trkpt lat="60.942306667" lon="15.168845000">
<time>2014-07-06T11:40:04Z</time>
 <fix>none</fix>
 <sat>0</sat>
</trkpt>
<trkpt lat="60.942358333" lon="15.168805000">
<time>2014-07-06T11:40:05Z</time>
 <fix>none</fix>
 <sat>0</sat>
</trkpt>
<trkpt lat="60.942358333" lon="15.168805000">
<time>2014-07-06T11:40:06Z</time>
 <fix>none</fix>
 <sat>0</sat>
</trkpt>
<trkpt lat="60.942406667" lon="15.168768333">
<time>2014-07-06T11:40:07Z</time>
 <fix>none</fix>
 <sat>0</sat>
</trkpt>
<trkpt lat="60.942426667" lon="15.168758333">
<time>2014-07-06T11:40:08Z</time>
 <fix>none</fix>
 <sat>0</sat>
</trkpt>
<trkpt lat="60.942446667" lon="15.168743333">
<time>2014-07-06T11:40:09Z</time>
 <fix>none</fix>
 <sat>0</sat>
</trkpt>
<trkpt lat="60.942473333" lon="15.168723333">
<time>2014-07-06T11:40:10Z</time>
 <fix>none</fix>
 <sat>0</sat>
</trkpt>
<trkpt lat="60.942493333" lon="15.168700000">
<time>2014-07-06T11:40:11Z</time>
 <fix>none</fix>
 <sat>0</sat>
</trkpt>
<trkpt lat="60.942521667" lon="15.168678333">
<time>2014-07-06T11:40:12Z</time>
 <fix>none</fix>
 <sat>0</sat>
</trkpt>
<trkpt lat="60.942545000" lon="15.168648333">
<time>2014-07-06T11:40:13Z</time>
 <fix>none</fix>
 <sat>0</sat>
</trkpt>
<trkpt lat="60.942571667" lon="15.168620000">
<time>2014-07-06T11:40:14Z</time>
 <fix>none</fix>
 <sat>0</sat>
</trkpt>
<trkpt lat="60.942598333" lon="15.168591667">
<time>2014-07-06T11:40:15Z</time>
 <fix>none</fix>
 <sat>0</sat>
</trkpt>
<trkpt lat="60.942643333" lon="15.168538333">
<time>2014-07-06T11:40:16Z</time>
 <fix>none</fix>
 <sat>0</sat>
</trkpt>
<trkpt lat="60.942681667" lon="15.168486667">
<time>2014-07-06T11:40:17Z</time>
 <fix>none</fix>
 <sat>0</sat>
</trkpt>
<trkpt lat="60.942721667" lon="15.168440000">
<time>2014-07-06T11:40:18Z</time>
 <fix>none</fix>
 <sat>0</sat>
</trkpt>
<trkpt lat="60.942756667" lon="15.168395000">
<time>2014-07-06T11:40:19Z</time>
 <fix>none</fix>
 <sat>0</sat>
</trkpt>
<trkpt lat="60.942788333" lon="15.168356667">
<time>2014-07-06T11:40:20Z</time>
 <fix>none</fix>
 <sat>0</sat>
</trkpt>
<trkpt lat="60.942828333" lon="15.168315000">
<time>2014-07-06T11:40:21Z</time>
 <fix>none</fix>
 <sat>0</sat>
</trkpt>
<trkpt lat="60.942828333" lon="15.168315000">
<time>2014-07-06T11:40:22Z</time>
 <fix>none</fix>
 <sat>0</sat>
</trkpt>
<trkpt lat="60.942871667" lon="15.168278333">
<time>2014-07-06T11:40:23Z</time>
 <fix>none</fix>
 <sat>0</sat>
</trkpt>
<trkpt lat="60.942916667" lon="15.168236667">
<time>2014-07-06T11:40:24Z</time>
 <fix>none</fix>
 <sat>0</sat>
</trkpt>
<trkpt lat="60.942956667" lon="15.168198333">
<time>2014-07-06T11:40:25Z</time>
 <fix>none</fix>
 <sat>0</sat>
</trkpt>
<trkpt lat="60.942998333" lon="15.168170000">
<time>2014-07-06T11:40:26Z</time>
 <fix>none</fix>
 <sat>0</sat>
</trkpt>
<trkpt lat="60.943038333" lon="15.168146667">
<time>2014-07-06T11:40:27Z</time>
 <fix>none</fix>
 <sat>0</sat>
</trkpt>
<trkpt lat="60.943116667" lon="15.168126667">
<time>2014-07-06T11:40:28Z</time>
 <fix>none</fix>
 <sat>0</sat>
</trkpt>
<trkpt lat="60.943150000" lon="15.168123333">
<time>2014-07-06T11:40:29Z</time>
 <fix>none</fix>
 <sat>0</sat>
</trkpt>
<trkpt lat="60.943150000" lon="15.168123333">
<time>2014-07-06T11:40:30Z</time>
 <fix>none</fix>
 <sat>0</sat>
</trkpt>
<trkpt lat="60.943206667" lon="15.168138333">
<time>2014-07-06T11:40:31Z</time>
 <fix>none</fix>
 <sat>0</sat>
</trkpt>
<trkpt lat="60.943240000" lon="15.168135000">
<time>2014-07-06T11:40:32Z</time>
 <fix>none</fix>
 <sat>0</sat>
</trkpt>
<trkpt lat="60.943276667" lon="15.168126667">
<time>2014-07-06T11:40:33Z</time>
 <fix>none</fix>
 <sat>0</sat>
</trkpt>
<trkpt lat="60.943305000" lon="15.168108333">
<time>2014-07-06T11:40:34Z</time>
 <fix>none</fix>
 <sat>0</sat>
</trkpt>
<trkpt lat="60.943330000" lon="15.168090000">
<time>2014-07-06T11:40:35Z</time>
 <fix>none</fix>
 <sat>0</sat>
</trkpt>
<trkpt lat="60.943358333" lon="15.168081667">
<time>2014-07-06T11:40:36Z</time>
 <fix>none</fix>
 <sat>0</sat>
</trkpt>
<trkpt lat="60.943391667" lon="15.168061667">
<time>2014-07-06T11:40:37Z</time>
 <fix>none</fix>
 <sat>0</sat>
</trkpt>
<trkpt lat="60.943391667" lon="15.168061667">
<time>2014-07-06T11:40:38Z</time>
 <fix>none</fix>
 <sat>0</sat>
</trkpt>
<trkpt lat="60.943391667" lon="15.168061667">
<time>2014-07-06T11:40:39Z</time>
 <fix>none</fix>
 <sat>0</sat>
</trkpt>
<trkpt lat="60.943486667" lon="15.168018333">
<time>2014-07-06T11:40:40Z</time>
 <fix>none</fix>
 <sat>0</sat>
</trkpt>
<trkpt lat="60.943521667" lon="15.168045000">
<time>2014-07-06T11:40:41Z</time>
 <fix>none</fix>
 <sat>0</sat>
</trkpt>
<trkpt lat="60.943561667" lon="15.167966667">
<time>2014-07-06T11:40:42Z</time>
 <fix>none</fix>
 <sat>0</sat>
</trkpt>
<trkpt lat="60.943583333" lon="15.167925000">
<time>2014-07-06T11:40:43Z</time>
 <fix>none</fix>
 <sat>0</sat>
</trkpt>
<trkpt lat="60.943605000" lon="15.167886667">
<time>2014-07-06T11:40:44Z</time>
 <fix>none</fix>
 <sat>0</sat>
</trkpt>
<trkpt lat="60.943605000" lon="15.167886667">
<time>2014-07-06T11:40:45Z</time>
 <fix>none</fix>
 <sat>0</sat>
</trkpt>
<trkpt lat="60.943630000" lon="15.167855000">
<time>2014-07-06T11:40:46Z</time>
 <fix>none</fix>
 <sat>0</sat>
</trkpt>
<trkpt lat="60.943655000" lon="15.167851667">
<time>2014-07-06T11:40:47Z</time>
 <fix>none</fix>
 <sat>0</sat>
</trkpt>
<trkpt lat="60.943691667" lon="15.167860000">
<time>2014-07-06T11:40:48Z</time>
 <fix>none</fix>
 <sat>0</sat>
</trkpt>
<trkpt lat="60.943723333" lon="15.167866667">
<time>2014-07-06T11:40:49Z</time>
 <fix>none</fix>
 <sat>0</sat>
</trkpt>
<trkpt lat="60.943761667" lon="15.167863333">
<time>2014-07-06T11:40:50Z</time>
 <fix>none</fix>
 <sat>0</sat>
</trkpt>
<trkpt lat="60.943798333" lon="15.167855000">
<time>2014-07-06T11:40:51Z</time>
 <fix>none</fix>
 <sat>0</sat>
</trkpt>
<trkpt lat="60.943828333" lon="15.167843333">
<time>2014-07-06T11:40:52Z</time>
 <fix>none</fix>
 <sat>0</sat>
</trkpt>
<trkpt lat="60.943861667" lon="15.167833333">
<time>2014-07-06T11:40:53Z</time>
 <fix>none</fix>
 <sat>0</sat>
</trkpt>
<trkpt lat="60.943926667" lon="15.167805000">
<time>2014-07-06T11:40:54Z</time>
 <fix>none</fix>
 <sat>0</sat>
</trkpt>
<trkpt lat="60.943960000" lon="15.167788333">
<time>2014-07-06T11:40:55Z</time>
 <fix>none</fix>
 <sat>0</sat>
</trkpt>
<trkpt lat="60.943990000" lon="15.167785000">
<time>2014-07-06T11:40:56Z</time>
 <fix>none</fix>
 <sat>0</sat>
</trkpt>
<trkpt lat="60.944016667" lon="15.167773333">
<time>2014-07-06T11:40:57Z</time>
 <fix>none</fix>
 <sat>0</sat>
</trkpt>
<trkpt lat="60.944041667" lon="15.167758333">
<time>2014-07-06T11:40:58Z</time>
 <fix>none</fix>
 <sat>0</sat>
</trkpt>
<trkpt lat="60.944041667" lon="15.167758333">
<time>2014-07-06T11:40:59Z</time>
 <fix>none</fix>
 <sat>0</sat>
</trkpt>
<trkpt lat="60.944041667" lon="15.167758333">
<time>2014-07-06T11:41:00Z</time>
 <fix>none</fix>
 <sat>0</sat>
</trkpt>
<trkpt lat="60.944116667" lon="15.167663333">
<time>2014-07-06T11:41:01Z</time>
 <fix>none</fix>
 <sat>0</sat>
</trkpt>
<trkpt lat="60.944116667" lon="15.167663333">
<time>2014-07-06T11:41:02Z</time>
 <fix>none</fix>
 <sat>0</sat>
</trkpt>
<trkpt lat="60.944185000" lon="15.167598333">
<time>2014-07-06T11:41:03Z</time>
 <fix>none</fix>
 <sat>0</sat>
</trkpt>
<trkpt lat="60.944185000" lon="15.167598333">
<time>2014-07-06T11:41:04Z</time>
 <fix>none</fix>
 <sat>0</sat>
</trkpt>
<trkpt lat="60.944253333" lon="15.167541667">
<time>2014-07-06T11:41:05Z</time>
 <fix>none</fix>
 <sat>0</sat>
</trkpt>
<trkpt lat="60.944283333" lon="15.167526667">
<time>2014-07-06T11:41:06Z</time>
 <fix>none</fix>
 <sat>0</sat>
</trkpt>
<trkpt lat="60.944333333" lon="15.167486667">
<time>2014-07-06T11:41:07Z</time>
 <fix>none</fix>
 <sat>0</sat>
</trkpt>
<trkpt lat="60.944333333" lon="15.167486667">
<time>2014-07-06T11:41:08Z</time>
 <fix>none</fix>
 <sat>0</sat>
</trkpt>
<trkpt lat="60.944376667" lon="15.167458333">
<time>2014-07-06T11:41:09Z</time>
 <fix>none</fix>
 <sat>0</sat>
</trkpt>
<trkpt lat="60.944420000" lon="15.167438333">
<time>2014-07-06T11:41:10Z</time>
 <fix>none</fix>
 <sat>0</sat>
</trkpt>
<trkpt lat="60.944460000" lon="15.167413333">
<time>2014-07-06T11:41:11Z</time>
 <fix>none</fix>
 <sat>0</sat>
</trkpt>
<trkpt lat="60.944503333" lon="15.167365000">
<time>2014-07-06T11:41:12Z</time>
 <fix>none</fix>
 <sat>0</sat>
</trkpt>
<trkpt lat="60.944553333" lon="15.167326667">
<time>2014-07-06T11:41:13Z</time>
 <fix>none</fix>
 <sat>0</sat>
</trkpt>
<trkpt lat="60.944638333" lon="15.167263333">
<time>2014-07-06T11:41:14Z</time>
 <fix>none</fix>
 <sat>0</sat>
</trkpt>
<trkpt lat="60.944638333" lon="15.167263333">
<time>2014-07-06T11:41:15Z</time>
 <fix>none</fix>
 <sat>0</sat>
</trkpt>
<trkpt lat="60.944726667" lon="15.167193333">
<time>2014-07-06T11:41:16Z</time>
 <fix>none</fix>
 <sat>0</sat>
</trkpt>
<trkpt lat="60.944775000" lon="15.167163333">
<time>2014-07-06T11:41:17Z</time>
 <fix>none</fix>
 <sat>0</sat>
</trkpt>
<trkpt lat="60.944825000" lon="15.167131667">
<time>2014-07-06T11:41:18Z</time>
 <fix>none</fix>
 <sat>0</sat>
</trkpt>
<trkpt lat="60.944873333" lon="15.167093333">
<time>2014-07-06T11:41:19Z</time>
 <fix>none</fix>
 <sat>0</sat>
</trkpt>
<trkpt lat="60.944926667" lon="15.167053333">
<time>2014-07-06T11:41:20Z</time>
 <fix>none</fix>
 <sat>0</sat>
</trkpt>
<trkpt lat="60.944980000" lon="15.167015000">
<time>2014-07-06T11:41:21Z</time>
 <fix>none</fix>
 <sat>0</sat>
</trkpt>
<trkpt lat="60.945031667" lon="15.166983333">
<time>2014-07-06T11:41:22Z</time>
 <fix>none</fix>
 <sat>0</sat>
</trkpt>
<trkpt lat="60.945088333" lon="15.166955000">
<time>2014-07-06T11:41:23Z</time>
 <fix>none</fix>
 <sat>0</sat>
</trkpt>
<trkpt lat="60.945146667" lon="15.166926667">
<time>2014-07-06T11:41:24Z</time>
 <fix>none</fix>
 <sat>0</sat>
</trkpt>
<trkpt lat="60.945146667" lon="15.166926667">
<time>2014-07-06T11:41:25Z</time>
 <fix>none</fix>
 <sat>0</sat>
</trkpt>
<trkpt lat="60.945146667" lon="15.166926667">
<time>2014-07-06T11:41:26Z</time>
 <fix>none</fix>
 <sat>0</sat>
</trkpt>
<trkpt lat="60.945336667" lon="15.166815000">
<time>2014-07-06T11:41:27Z</time>
 <fix>none</fix>
 <sat>0</sat>
</trkpt>
<trkpt lat="60.945336667" lon="15.166815000">
<time>2014-07-06T11:41:28Z</time>
 <fix>none</fix>
 <sat>0</sat>
</trkpt>
<trkpt lat="60.945468333" lon="15.166725000">
<time>2014-07-06T11:41:29Z</time>
 <fix>none</fix>
 <sat>0</sat>
</trkpt>
<trkpt lat="60.945533333" lon="15.166678333">
<time>2014-07-06T11:41:30Z</time>
 <fix>none</fix>
 <sat>0</sat>
</trkpt>
<trkpt lat="60.945533333" lon="15.166678333">
<time>2014-07-06T11:41:31Z</time>
 <fix>none</fix>
 <sat>0</sat>
</trkpt>
<trkpt lat="60.945596667" lon="15.166620000">
<time>2014-07-06T11:41:32Z</time>
 <fix>none</fix>
 <sat>0</sat>
</trkpt>
<trkpt lat="60.945661667" lon="15.166570000">
<time>2014-07-06T11:41:33Z</time>
 <fix>none</fix>
 <sat>0</sat>
</trkpt>
<trkpt lat="60.945718333" lon="15.166531667">
<time>2014-07-06T11:41:34Z</time>
 <fix>none</fix>
 <sat>0</sat>
</trkpt>
<trkpt lat="60.945773333" lon="15.166485000">
<time>2014-07-06T11:41:35Z</time>
 <fix>none</fix>
 <sat>0</sat>
</trkpt>
<trkpt lat="60.945900000" lon="15.166348333">
<time>2014-07-06T11:41:36Z</time>
 <fix>none</fix>
 <sat>0</sat>
</trkpt>
<trkpt lat="60.945900000" lon="15.166348333">
<time>2014-07-06T11:41:37Z</time>
 <fix>none</fix>
 <sat>0</sat>
</trkpt>
<trkpt lat="60.945965000" lon="15.166278333">
<time>2014-07-06T11:41:38Z</time>
 <fix>none</fix>
 <sat>0</sat>
</trkpt>
<trkpt lat="60.946091667" lon="15.166143333">
<time>2014-07-06T11:41:39Z</time>
 <fix>none</fix>
 <sat>0</sat>
</trkpt>
<trkpt lat="60.946165000" lon="15.166075000">
<time>2014-07-06T11:41:40Z</time>
 <fix>none</fix>
 <sat>0</sat>
</trkpt>
<trkpt lat="60.946236667" lon="15.166013333">
<time>2014-07-06T11:41:41Z</time>
 <fix>none</fix>
 <sat>0</sat>
</trkpt>
<trkpt lat="60.946298333" lon="15.165948333">
<time>2014-07-06T11:41:42Z</time>
 <fix>none</fix>
 <sat>0</sat>
</trkpt>
<trkpt lat="60.946366667" lon="15.165880000">
<time>2014-07-06T11:41:43Z</time>
 <fix>none</fix>
 <sat>0</sat>
</trkpt>
<trkpt lat="60.946431667" lon="15.165821667">
<time>2014-07-06T11:41:44Z</time>
 <fix>none</fix>
 <sat>0</sat>
</trkpt>
<trkpt lat="60.946496667" lon="15.165768333">
<time>2014-07-06T11:41:45Z</time>
 <fix>none</fix>
 <sat>0</sat>
</trkpt>
<trkpt lat="60.946563333" lon="15.165730000">
<time>2014-07-06T11:41:46Z</time>
 <fix>none</fix>
 <sat>0</sat>
</trkpt>
<trkpt lat="60.946628333" lon="15.165688333">
<time>2014-07-06T11:41:47Z</time>
 <fix>none</fix>
 <sat>0</sat>
</trkpt>
<trkpt lat="60.946628333" lon="15.165688333">
<time>2014-07-06T11:41:48Z</time>
 <fix>none</fix>
 <sat>0</sat>
</trkpt>
<trkpt lat="60.946628333" lon="15.165688333">
<time>2014-07-06T11:41:49Z</time>
 <fix>none</fix>
 <sat>0</sat>
</trkpt>
<trkpt lat="60.946833333" lon="15.165560000">
<time>2014-07-06T11:41:50Z</time>
 <fix>none</fix>
 <sat>0</sat>
</trkpt>
<trkpt lat="60.946833333" lon="15.165560000">
<time>2014-07-06T11:41:51Z</time>
 <fix>none</fix>
 <sat>0</sat>
</trkpt>
<trkpt lat="60.946960000" lon="15.165505000">
<time>2014-07-06T11:41:52Z</time>
 <fix>none</fix>
 <sat>0</sat>
</trkpt>
<trkpt lat="60.946960000" lon="15.165505000">
<time>2014-07-06T11:41:53Z</time>
 <fix>none</fix>
 <sat>0</sat>
</trkpt>
<trkpt lat="60.947086667" lon="15.165451667">
<time>2014-07-06T11:41:54Z</time>
 <fix>none</fix>
 <sat>0</sat>
</trkpt>
<trkpt lat="60.947086667" lon="15.165451667">
<time>2014-07-06T11:41:55Z</time>
 <fix>none</fix>
 <sat>0</sat>
</trkpt>
<trkpt lat="60.947205000" lon="15.165323333">
<time>2014-07-06T11:41:56Z</time>
 <fix>none</fix>
 <sat>0</sat>
</trkpt>
<trkpt lat="60.947205000" lon="15.165323333">
<time>2014-07-06T11:41:57Z</time>
 <fix>none</fix>
 <sat>0</sat>
</trkpt>
<trkpt lat="60.947326667" lon="15.165185000">
<time>2014-07-06T11:41:58Z</time>
 <fix>none</fix>
 <sat>0</sat>
</trkpt>
<trkpt lat="60.947326667" lon="15.165185000">
<time>2014-07-06T11:41:59Z</time>
 <fix>none</fix>
 <sat>0</sat>
</trkpt>
<trkpt lat="60.947443333" lon="15.165038333">
<time>2014-07-06T11:42:00Z</time>
 <fix>none</fix>
 <sat>0</sat>
</trkpt>
<trkpt lat="60.947443333" lon="15.165038333">
<time>2014-07-06T11:42:01Z</time>
 <fix>none</fix>
 <sat>0</sat>
</trkpt>
<trkpt lat="60.947561667" lon="15.164896667">
<time>2014-07-06T11:42:02Z</time>
 <fix>none</fix>
 <sat>0</sat>
</trkpt>
<trkpt lat="60.947561667" lon="15.164896667">
<time>2014-07-06T11:42:03Z</time>
 <fix>none</fix>
 <sat>0</sat>
</trkpt>
<trkpt lat="60.947675000" lon="15.164750000">
<time>2014-07-06T11:42:04Z</time>
 <fix>none</fix>
 <sat>0</sat>
</trkpt>
<trkpt lat="60.947675000" lon="15.164750000">
<time>2014-07-06T11:42:05Z</time>
 <fix>none</fix>
 <sat>0</sat>
</trkpt>
<trkpt lat="60.947793333" lon="15.164586667">
<time>2014-07-06T11:42:06Z</time>
 <fix>none</fix>
 <sat>0</sat>
</trkpt>
<trkpt lat="60.947793333" lon="15.164586667">
<time>2014-07-06T11:42:07Z</time>
 <fix>none</fix>
 <sat>0</sat>
</trkpt>
<trkpt lat="60.947931667" lon="15.164425000">
<time>2014-07-06T11:42:08Z</time>
 <fix>none</fix>
 <sat>0</sat>
</trkpt>
<trkpt lat="60.947931667" lon="15.164425000">
<time>2014-07-06T11:42:09Z</time>
 <fix>none</fix>
 <sat>0</sat>
</trkpt>
<trkpt lat="60.948113333" lon="15.164266667">
<time>2014-07-06T11:42:10Z</time>
 <fix>none</fix>
 <sat>0</sat>
</trkpt>
<trkpt lat="60.948113333" lon="15.164266667">
<time>2014-07-06T11:42:11Z</time>
 <fix>none</fix>
 <sat>0</sat>
</trkpt>
<trkpt lat="60.948260000" lon="15.164186667">
<time>2014-07-06T11:42:12Z</time>
 <fix>none</fix>
 <sat>0</sat>
</trkpt>
<trkpt lat="60.948260000" lon="15.164186667">
<time>2014-07-06T11:42:13Z</time>
 <fix>none</fix>
 <sat>0</sat>
</trkpt>
<trkpt lat="60.948396667" lon="15.164133333">
<time>2014-07-06T11:42:14Z</time>
 <fix>none</fix>
 <sat>0</sat>
</trkpt>
<trkpt lat="60.948396667" lon="15.164133333">
<time>2014-07-06T11:42:15Z</time>
 <fix>none</fix>
 <sat>0</sat>
</trkpt>
<trkpt lat="60.948505000" lon="15.164101667">
<time>2014-07-06T11:42:16Z</time>
 <fix>none</fix>
 <sat>0</sat>
</trkpt>
<trkpt lat="60.948505000" lon="15.164101667">
<time>2014-07-06T11:42:17Z</time>
 <fix>none</fix>
 <sat>0</sat>
</trkpt>
<trkpt lat="60.948636667" lon="15.164068333">
<time>2014-07-06T11:42:18Z</time>
 <fix>none</fix>
 <sat>0</sat>
</trkpt>
<trkpt lat="60.948636667" lon="15.164068333">
<time>2014-07-06T11:42:19Z</time>
 <fix>none</fix>
 <sat>0</sat>
</trkpt>
<trkpt lat="60.948753333" lon="15.164001667">
<time>2014-07-06T11:42:20Z</time>
 <fix>none</fix>
 <sat>0</sat>
</trkpt>
<trkpt lat="60.948753333" lon="15.164001667">
<time>2014-07-06T11:42:21Z</time>
 <fix>none</fix>
 <sat>0</sat>
</trkpt>
<trkpt lat="60.948880000" lon="15.163956667">
<time>2014-07-06T11:42:22Z</time>
 <fix>none</fix>
 <sat>0</sat>
</trkpt>
<trkpt lat="60.948880000" lon="15.163956667">
<time>2014-07-06T11:42:23Z</time>
 <fix>none</fix>
 <sat>0</sat>
</trkpt>
<trkpt lat="60.948880000" lon="15.163956667">
<time>2014-07-06T11:42:24Z</time>
 <fix>none</fix>
 <sat>0</sat>
</trkpt>
<trkpt lat="60.948991667" lon="15.163926667">
<time>2014-07-06T11:42:25Z</time>
 <fix>none</fix>
 <sat>0</sat>
</trkpt>
<trkpt lat="60.949088333" lon="15.163903333">
<time>2014-07-06T11:42:26Z</time>
 <fix>none</fix>
 <sat>0</sat>
</trkpt>
<trkpt lat="60.949088333" lon="15.163903333">
<time>2014-07-06T11:42:27Z</time>
 <fix>none</fix>
 <sat>0</sat>
</trkpt>
<trkpt lat="60.949206667" lon="15.163881667">
<time>2014-07-06T11:42:28Z</time>
 <fix>none</fix>
 <sat>0</sat>
</trkpt>
<trkpt lat="60.949206667" lon="15.163881667">
<time>2014-07-06T11:42:29Z</time>
 <fix>none</fix>
 <sat>0</sat>
</trkpt>
<trkpt lat="60.949336667" lon="15.163931667">
<time>2014-07-06T11:42:30Z</time>
 <fix>none</fix>
 <sat>0</sat>
</trkpt>
<trkpt lat="60.949336667" lon="15.163931667">
<time>2014-07-06T11:42:31Z</time>
 <fix>none</fix>
 <sat>0</sat>
</trkpt>
<trkpt lat="60.949448333" lon="15.163923333">
<time>2014-07-06T11:42:32Z</time>
 <fix>none</fix>
 <sat>0</sat>
</trkpt>
<trkpt lat="60.949448333" lon="15.163923333">
<time>2014-07-06T11:42:33Z</time>
 <fix>none</fix>
 <sat>0</sat>
</trkpt>
<trkpt lat="60.949580000" lon="15.163898333">
<time>2014-07-06T11:42:34Z</time>
 <fix>none</fix>
 <sat>0</sat>
</trkpt>
<trkpt lat="60.949580000" lon="15.163898333">
<time>2014-07-06T11:42:35Z</time>
 <fix>none</fix>
 <sat>0</sat>
</trkpt>
<trkpt lat="60.949681667" lon="15.163823333">
<time>2014-07-06T11:42:36Z</time>
 <fix>none</fix>
 <sat>0</sat>
</trkpt>
<trkpt lat="60.949681667" lon="15.163823333">
<time>2014-07-06T11:42:37Z</time>
 <fix>none</fix>
 <sat>0</sat>
</trkpt>
<trkpt lat="60.949775000" lon="15.163778333">
<time>2014-07-06T11:42:38Z</time>
 <fix>none</fix>
 <sat>0</sat>
</trkpt>
<trkpt lat="60.949775000" lon="15.163778333">
<time>2014-07-06T11:42:39Z</time>
 <fix>none</fix>
 <sat>0</sat>
</trkpt>
<trkpt lat="60.949861667" lon="15.163698333">
<time>2014-07-06T11:42:40Z</time>
 <fix>none</fix>
 <sat>0</sat>
</trkpt>
<trkpt lat="60.949861667" lon="15.163698333">
<time>2014-07-06T11:42:41Z</time>
 <fix>none</fix>
 <sat>0</sat>
</trkpt>
<trkpt lat="60.949970000" lon="15.163640000">
<time>2014-07-06T11:42:42Z</time>
 <fix>none</fix>
 <sat>0</sat>
</trkpt>
<trkpt lat="60.949980000" lon="15.163630000">
<time>2014-07-06T11:42:43Z</time>
 <fix>none</fix>
 <sat>0</sat>
</trkpt>
<trkpt lat="60.950013333" lon="15.163605000">
<time>2014-07-06T11:42:44Z</time>
 <fix>none</fix>
 <sat>0</sat>
</trkpt>
<trkpt lat="60.950091667" lon="15.163511667">
<time>2014-07-06T11:42:45Z</time>
 <fix>none</fix>
 <sat>0</sat>
</trkpt>
<trkpt lat="60.950091667" lon="15.163511667">
<time>2014-07-06T11:42:46Z</time>
 <fix>none</fix>
 <sat>0</sat>
</trkpt>
<trkpt lat="60.950190000" lon="15.163410000">
<time>2014-07-06T11:42:47Z</time>
 <fix>none</fix>
 <sat>0</sat>
</trkpt>
<trkpt lat="60.950236667" lon="15.163356667">
<time>2014-07-06T11:42:48Z</time>
 <fix>none</fix>
 <sat>0</sat>
</trkpt>
<trkpt lat="60.950285000" lon="15.163305000">
<time>2014-07-06T11:42:49Z</time>
 <fix>none</fix>
 <sat>0</sat>
</trkpt>
<trkpt lat="60.950333333" lon="15.163253333">
<time>2014-07-06T11:42:50Z</time>
 <fix>none</fix>
 <sat>0</sat>
</trkpt>
<trkpt lat="60.950380000" lon="15.163200000">
<time>2014-07-06T11:42:51Z</time>
 <fix>none</fix>
 <sat>0</sat>
</trkpt>
<trkpt lat="60.950421667" lon="15.163141667">
<time>2014-07-06T11:42:52Z</time>
 <fix>none</fix>
 <sat>0</sat>
</trkpt>
<trkpt lat="60.950470000" lon="15.163081667">
<time>2014-07-06T11:42:53Z</time>
 <fix>none</fix>
 <sat>0</sat>
</trkpt>
<trkpt lat="60.950521667" lon="15.163016667">
<time>2014-07-06T11:42:54Z</time>
 <fix>none</fix>
 <sat>0</sat>
</trkpt>
<trkpt lat="60.950521667" lon="15.163016667">
<time>2014-07-06T11:42:55Z</time>
 <fix>none</fix>
 <sat>0</sat>
</trkpt>
<trkpt lat="60.950521667" lon="15.163016667">
<time>2014-07-06T11:42:56Z</time>
 <fix>none</fix>
 <sat>0</sat>
</trkpt>
<trkpt lat="60.950660000" lon="15.162821667">
<time>2014-07-06T11:42:57Z</time>
 <fix>none</fix>
 <sat>0</sat>
</trkpt>
<trkpt lat="60.950660000" lon="15.162821667">
<time>2014-07-06T11:42:58Z</time>
 <fix>none</fix>
 <sat>0</sat>
</trkpt>
<trkpt lat="60.950751667" lon="15.162695000">
<time>2014-07-06T11:42:59Z</time>
 <fix>none</fix>
 <sat>0</sat>
</trkpt>
<trkpt lat="60.950751667" lon="15.162695000">
<time>2014-07-06T11:43:00Z</time>
 <fix>none</fix>
 <sat>0</sat>
</trkpt>
<trkpt lat="60.950858333" lon="15.162573333">
<time>2014-07-06T11:43:01Z</time>
 <fix>none</fix>
 <sat>0</sat>
</trkpt>
<trkpt lat="60.950858333" lon="15.162573333">
<time>2014-07-06T11:43:02Z</time>
 <fix>none</fix>
 <sat>0</sat>
</trkpt>
<trkpt lat="60.950980000" lon="15.162460000">
<time>2014-07-06T11:43:03Z</time>
 <fix>none</fix>
 <sat>0</sat>
</trkpt>
<trkpt lat="60.950980000" lon="15.162460000">
<time>2014-07-06T11:43:04Z</time>
 <fix>none</fix>
 <sat>0</sat>
</trkpt>
<trkpt lat="60.951111667" lon="15.162356667">
<time>2014-07-06T11:43:05Z</time>
 <fix>none</fix>
 <sat>0</sat>
</trkpt>
<trkpt lat="60.951111667" lon="15.162356667">
<time>2014-07-06T11:43:06Z</time>
 <fix>none</fix>
 <sat>0</sat>
</trkpt>
<trkpt lat="60.951245000" lon="15.162261667">
<time>2014-07-06T11:43:07Z</time>
 <fix>none</fix>
 <sat>0</sat>
</trkpt>
<trkpt lat="60.951245000" lon="15.162261667">
<time>2014-07-06T11:43:08Z</time>
 <fix>none</fix>
 <sat>0</sat>
</trkpt>
<trkpt lat="60.951245000" lon="15.162261667">
<time>2014-07-06T11:43:09Z</time>
 <fix>none</fix>
 <sat>0</sat>
</trkpt>
<trkpt lat="60.951388333" lon="15.162178333">
<time>2014-07-06T11:43:10Z</time>
 <fix>none</fix>
 <sat>0</sat>
</trkpt>
<trkpt lat="60.951548333" lon="15.162121667">
<time>2014-07-06T11:43:11Z</time>
 <fix>none</fix>
 <sat>0</sat>
</trkpt>
<trkpt lat="60.951548333" lon="15.162121667">
<time>2014-07-06T11:43:12Z</time>
 <fix>none</fix>
 <sat>0</sat>
</trkpt>
<trkpt lat="60.951726667" lon="15.162070000">
<time>2014-07-06T11:43:13Z</time>
 <fix>none</fix>
 <sat>0</sat>
</trkpt>
<trkpt lat="60.951726667" lon="15.162070000">
<time>2014-07-06T11:43:14Z</time>
 <fix>none</fix>
 <sat>0</sat>
</trkpt>
<trkpt lat="60.951901667" lon="15.162043333">
<time>2014-07-06T11:43:15Z</time>
 <fix>none</fix>
 <sat>0</sat>
</trkpt>
<trkpt lat="60.951901667" lon="15.162043333">
<time>2014-07-06T11:43:16Z</time>
 <fix>none</fix>
 <sat>0</sat>
</trkpt>
<trkpt lat="60.952058333" lon="15.162023333">
<time>2014-07-06T11:43:17Z</time>
 <fix>none</fix>
 <sat>0</sat>
</trkpt>
<trkpt lat="60.952058333" lon="15.162023333">
<time>2014-07-06T11:43:18Z</time>
 <fix>none</fix>
 <sat>0</sat>
</trkpt>
<trkpt lat="60.952351667" lon="15.162038333">
<time>2014-07-06T11:43:19Z</time>
 <fix>none</fix>
 <sat>0</sat>
</trkpt>
<trkpt lat="60.952401667" lon="15.162026667">
<time>2014-07-06T11:43:20Z</time>
 <fix>none</fix>
 <sat>0</sat>
</trkpt>
<trkpt lat="60.952463333" lon="15.161960000">
<time>2014-07-06T11:43:21Z</time>
 <fix>none</fix>
 <sat>0</sat>
</trkpt>
<trkpt lat="60.952543333" lon="15.161983333">
<time>2014-07-06T11:43:22Z</time>
 <fix>none</fix>
 <sat>0</sat>
</trkpt>
<trkpt lat="60.952626667" lon="15.161991667">
<time>2014-07-06T11:43:23Z</time>
 <fix>none</fix>
 <sat>0</sat>
</trkpt>
<trkpt lat="60.952708333" lon="15.161970000">
<time>2014-07-06T11:43:24Z</time>
 <fix>none</fix>
 <sat>0</sat>
</trkpt>
<trkpt lat="60.952708333" lon="15.161970000">
<time>2014-07-06T11:43:25Z</time>
 <fix>none</fix>
 <sat>0</sat>
</trkpt>
<trkpt lat="60.952785000" lon="15.161961667">
<time>2014-07-06T11:43:26Z</time>
 <fix>none</fix>
 <sat>0</sat>
</trkpt>
<trkpt lat="60.952858333" lon="15.161970000">
<time>2014-07-06T11:43:27Z</time>
 <fix>none</fix>
 <sat>0</sat>
</trkpt>
<trkpt lat="60.952941667" lon="15.161976667">
<time>2014-07-06T11:43:28Z</time>
 <fix>none</fix>
 <sat>0</sat>
</trkpt>
<trkpt lat="60.953023333" lon="15.162005000">
<time>2014-07-06T11:43:29Z</time>
 <fix>none</fix>
 <sat>0</sat>
</trkpt>
<trkpt lat="60.953088333" lon="15.162031667">
<time>2014-07-06T11:43:30Z</time>
 <fix>none</fix>
 <sat>0</sat>
</trkpt>
<trkpt lat="60.953210000" lon="15.162053333">
<time>2014-07-06T11:43:31Z</time>
 <fix>none</fix>
 <sat>0</sat>
</trkpt>
<trkpt lat="60.953210000" lon="15.162053333">
<time>2014-07-06T11:43:32Z</time>
 <fix>none</fix>
 <sat>0</sat>
</trkpt>
<trkpt lat="60.953351667" lon="15.162040000">
<time>2014-07-06T11:43:33Z</time>
 <fix>none</fix>
 <sat>0</sat>
</trkpt>
<trkpt lat="60.953423333" lon="15.162013333">
<time>2014-07-06T11:43:34Z</time>
 <fix>none</fix>
 <sat>0</sat>
</trkpt>
<trkpt lat="60.953490000" lon="15.161965000">
<time>2014-07-06T11:43:35Z</time>
 <fix>none</fix>
 <sat>0</sat>
</trkpt>
<trkpt lat="60.953553333" lon="15.161926667">
<time>2014-07-06T11:43:36Z</time>
 <fix>none</fix>
 <sat>0</sat>
</trkpt>
<trkpt lat="60.953605000" lon="15.161891667">
<time>2014-07-06T11:43:37Z</time>
 <fix>none</fix>
 <sat>0</sat>
</trkpt>
<trkpt lat="60.953663333" lon="15.161853333">
<time>2014-07-06T11:43:38Z</time>
 <fix>none</fix>
 <sat>0</sat>
</trkpt>
<trkpt lat="60.953733333" lon="15.161816667">
<time>2014-07-06T11:43:39Z</time>
 <fix>none</fix>
 <sat>0</sat>
</trkpt>
<trkpt lat="60.953806667" lon="15.161758333">
<time>2014-07-06T11:43:40Z</time>
 <fix>none</fix>
 <sat>0</sat>
</trkpt>
<trkpt lat="60.953881667" lon="15.161708333">
<time>2014-07-06T11:43:41Z</time>
 <fix>none</fix>
 <sat>0</sat>
</trkpt>
<trkpt lat="60.953953333" lon="15.161656667">
<time>2014-07-06T11:43:42Z</time>
 <fix>none</fix>
 <sat>0</sat>
</trkpt>
<trkpt lat="60.954025000" lon="15.161605000">
<time>2014-07-06T11:43:43Z</time>
 <fix>none</fix>
 <sat>0</sat>
</trkpt>
<trkpt lat="60.954101667" lon="15.161565000">
<time>2014-07-06T11:43:44Z</time>
 <fix>none</fix>
 <sat>0</sat>
</trkpt>
<trkpt lat="60.954176667" lon="15.161543333">
<time>2014-07-06T11:43:45Z</time>
 <fix>none</fix>
 <sat>0</sat>
</trkpt>
<trkpt lat="60.954253333" lon="15.161543333">
<time>2014-07-06T11:43:46Z</time>
 <fix>none</fix>
 <sat>0</sat>
</trkpt>
<trkpt lat="60.954330000" lon="15.161556667">
<time>2014-07-06T11:43:47Z</time>
 <fix>none</fix>
 <sat>0</sat>
</trkpt>
<trkpt lat="60.954330000" lon="15.161556667">
<time>2014-07-06T11:43:48Z</time>
 <fix>none</fix>
 <sat>0</sat>
</trkpt>
<trkpt lat="60.954405000" lon="15.161576667">
<time>2014-07-06T11:43:49Z</time>
 <fix>none</fix>
 <sat>0</sat>
</trkpt>
<trkpt lat="60.954475000" lon="15.161583333">
<time>2014-07-06T11:43:50Z</time>
 <fix>none</fix>
 <sat>0</sat>
</trkpt>
<trkpt lat="60.954545000" lon="15.161591667">
<time>2014-07-06T11:43:51Z</time>
 <fix>none</fix>
 <sat>0</sat>
</trkpt>
<trkpt lat="60.954613333" lon="15.161588333">
<time>2014-07-06T11:43:52Z</time>
 <fix>none</fix>
 <sat>0</sat>
</trkpt>
<trkpt lat="60.954685000" lon="15.161573333">
<time>2014-07-06T11:43:53Z</time>
 <fix>none</fix>
 <sat>0</sat>
</trkpt>
<trkpt lat="60.954820000" lon="15.161511667">
<time>2014-07-06T11:43:54Z</time>
 <fix>none</fix>
 <sat>0</sat>
</trkpt>
<trkpt lat="60.954895000" lon="15.161438333">
<time>2014-07-06T11:43:55Z</time>
 <fix>none</fix>
 <sat>0</sat>
</trkpt>
<trkpt lat="60.954966667" lon="15.161395000">
<time>2014-07-06T11:43:56Z</time>
 <fix>none</fix>
 <sat>0</sat>
</trkpt>
<trkpt lat="60.955026667" lon="15.161355000">
<time>2014-07-06T11:43:57Z</time>
 <fix>none</fix>
 <sat>0</sat>
</trkpt>
<trkpt lat="60.955088333" lon="15.161318333">
<time>2014-07-06T11:43:58Z</time>
 <fix>none</fix>
 <sat>0</sat>
</trkpt>
<trkpt lat="60.955151667" lon="15.161276667">
<time>2014-07-06T11:43:59Z</time>
 <fix>none</fix>
 <sat>0</sat>
</trkpt>
<trkpt lat="60.955208333" lon="15.161245000">
<time>2014-07-06T11:44:00Z</time>
 <fix>none</fix>
 <sat>0</sat>
</trkpt>
<trkpt lat="60.955266667" lon="15.161203333">
<time>2014-07-06T11:44:01Z</time>
 <fix>none</fix>
 <sat>0</sat>
</trkpt>
<trkpt lat="60.955323333" lon="15.161151667">
<time>2014-07-06T11:44:02Z</time>
 <fix>none</fix>
 <sat>0</sat>
</trkpt>
<trkpt lat="60.955381667" lon="15.161108333">
<time>2014-07-06T11:44:03Z</time>
 <fix>none</fix>
 <sat>0</sat>
</trkpt>
<trkpt lat="60.955443333" lon="15.161063333">
<time>2014-07-06T11:44:04Z</time>
 <fix>none</fix>
 <sat>0</sat>
</trkpt>
<trkpt lat="60.955508333" lon="15.161016667">
<time>2014-07-06T11:44:05Z</time>
 <fix>none</fix>
 <sat>0</sat>
</trkpt>
<trkpt lat="60.955566667" lon="15.160965000">
<time>2014-07-06T11:44:06Z</time>
 <fix>none</fix>
 <sat>0</sat>
</trkpt>
<trkpt lat="60.955628333" lon="15.160910000">
<time>2014-07-06T11:44:07Z</time>
 <fix>none</fix>
 <sat>0</sat>
</trkpt>
<trkpt lat="60.955691667" lon="15.160865000">
<time>2014-07-06T11:44:08Z</time>
 <fix>none</fix>
 <sat>0</sat>
</trkpt>
<trkpt lat="60.955755000" lon="15.160831667">
<time>2014-07-06T11:44:09Z</time>
 <fix>none</fix>
 <sat>0</sat>
</trkpt>
<trkpt lat="60.955755000" lon="15.160831667">
<time>2014-07-06T11:44:10Z</time>
 <fix>none</fix>
 <sat>0</sat>
</trkpt>
<trkpt lat="60.955816667" lon="15.160805000">
<time>2014-07-06T11:44:11Z</time>
 <fix>none</fix>
 <sat>0</sat>
</trkpt>
<trkpt lat="60.955881667" lon="15.160776667">
<time>2014-07-06T11:44:12Z</time>
 <fix>none</fix>
 <sat>0</sat>
</trkpt>
<trkpt lat="60.955948333" lon="15.160751667">
<time>2014-07-06T11:44:13Z</time>
 <fix>none</fix>
 <sat>0</sat>
</trkpt>
<trkpt lat="60.956016667" lon="15.160725000">
<time>2014-07-06T11:44:14Z</time>
 <fix>none</fix>
 <sat>0</sat>
</trkpt>
<trkpt lat="60.956083333" lon="15.160698333">
<time>2014-07-06T11:44:15Z</time>
 <fix>none</fix>
 <sat>0</sat>
</trkpt>
<trkpt lat="60.956221667" lon="15.160648333">
<time>2014-07-06T11:44:16Z</time>
 <fix>none</fix>
 <sat>0</sat>
</trkpt>
<trkpt lat="60.956221667" lon="15.160648333">
<time>2014-07-06T11:44:17Z</time>
 <fix>none</fix>
 <sat>0</sat>
</trkpt>
<trkpt lat="60.956291667" lon="15.160628333">
<time>2014-07-06T11:44:18Z</time>
 <fix>none</fix>
 <sat>0</sat>
</trkpt>
<trkpt lat="60.956430000" lon="15.160588333">
<time>2014-07-06T11:44:19Z</time>
 <fix>none</fix>
 <sat>0</sat>
</trkpt>
<trkpt lat="60.956496667" lon="15.160563333">
<time>2014-07-06T11:44:20Z</time>
 <fix>none</fix>
 <sat>0</sat>
</trkpt>
<trkpt lat="60.956561667" lon="15.160525000">
<time>2014-07-06T11:44:21Z</time>
 <fix>none</fix>
 <sat>0</sat>
</trkpt>
<trkpt lat="60.956630000" lon="15.160483333">
<time>2014-07-06T11:44:22Z</time>
 <fix>none</fix>
 <sat>0</sat>
</trkpt>
<trkpt lat="60.956700000" lon="15.160436667">
<time>2014-07-06T11:44:23Z</time>
 <fix>none</fix>
 <sat>0</sat>
</trkpt>
<trkpt lat="60.956766667" lon="15.160390000">
<time>2014-07-06T11:44:24Z</time>
 <fix>none</fix>
 <sat>0</sat>
</trkpt>
<trkpt lat="60.956836667" lon="15.160335000">
<time>2014-07-06T11:44:25Z</time>
 <fix>none</fix>
 <sat>0</sat>
</trkpt>
<trkpt lat="60.956906667" lon="15.160275000">
<time>2014-07-06T11:44:26Z</time>
 <fix>none</fix>
 <sat>0</sat>
</trkpt>
<trkpt lat="60.956975000" lon="15.160216667">
<time>2014-07-06T11:44:27Z</time>
 <fix>none</fix>
 <sat>0</sat>
</trkpt>
<trkpt lat="60.957045000" lon="15.160153333">
<time>2014-07-06T11:44:28Z</time>
 <fix>none</fix>
 <sat>0</sat>
</trkpt>
<trkpt lat="60.957111667" lon="15.160093333">
<time>2014-07-06T11:44:29Z</time>
 <fix>none</fix>
 <sat>0</sat>
</trkpt>
<trkpt lat="60.957175000" lon="15.160033333">
<time>2014-07-06T11:44:30Z</time>
 <fix>none</fix>
 <sat>0</sat>
</trkpt>
<trkpt lat="60.957241667" lon="15.159968333">
<time>2014-07-06T11:44:31Z</time>
 <fix>none</fix>
 <sat>0</sat>
</trkpt>
<trkpt lat="60.957308333" lon="15.159901667">
<time>2014-07-06T11:44:32Z</time>
 <fix>none</fix>
 <sat>0</sat>
</trkpt>
<trkpt lat="60.957308333" lon="15.159901667">
<time>2014-07-06T11:44:33Z</time>
 <fix>none</fix>
 <sat>0</sat>
</trkpt>
<trkpt lat="60.957375000" lon="15.159823333">
<time>2014-07-06T11:44:34Z</time>
 <fix>none</fix>
 <sat>0</sat>
</trkpt>
<trkpt lat="60.957436667" lon="15.159731667">
<time>2014-07-06T11:44:35Z</time>
 <fix>none</fix>
 <sat>0</sat>
</trkpt>
<trkpt lat="60.957503333" lon="15.159625000">
<time>2014-07-06T11:44:36Z</time>
 <fix>none</fix>
 <sat>0</sat>
</trkpt>
<trkpt lat="60.957575000" lon="15.159536667">
<time>2014-07-06T11:44:37Z</time>
 <fix>none</fix>
 <sat>0</sat>
</trkpt>
<trkpt lat="60.957643333" lon="15.159438333">
<time>2014-07-06T11:44:38Z</time>
 <fix>none</fix>
 <sat>0</sat>
</trkpt>
<trkpt lat="60.957798333" lon="15.159308333">
<time>2014-07-06T11:44:39Z</time>
 <fix>none</fix>
 <sat>0</sat>
</trkpt>
<trkpt lat="60.957876667" lon="15.159248333">
<time>2014-07-06T11:44:40Z</time>
 <fix>none</fix>
 <sat>0</sat>
</trkpt>
<trkpt lat="60.957876667" lon="15.159248333">
<time>2014-07-06T11:44:41Z</time>
 <fix>none</fix>
 <sat>0</sat>
</trkpt>
<trkpt lat="60.958015000" lon="15.159105000">
<time>2014-07-06T11:44:42Z</time>
 <fix>none</fix>
 <sat>0</sat>
</trkpt>
<trkpt lat="60.958068333" lon="15.159016667">
<time>2014-07-06T11:44:43Z</time>
 <fix>none</fix>
 <sat>0</sat>
</trkpt>
<trkpt lat="60.958126667" lon="15.158916667">
<time>2014-07-06T11:44:44Z</time>
 <fix>none</fix>
 <sat>0</sat>
</trkpt>
<trkpt lat="60.958185000" lon="15.158806667">
<time>2014-07-06T11:44:45Z</time>
 <fix>none</fix>
 <sat>0</sat>
</trkpt>
<trkpt lat="60.958238333" lon="15.158701667">
<time>2014-07-06T11:44:46Z</time>
 <fix>none</fix>
 <sat>0</sat>
</trkpt>
<trkpt lat="60.958295000" lon="15.158593333">
<time>2014-07-06T11:44:47Z</time>
 <fix>none</fix>
 <sat>0</sat>
</trkpt>
<trkpt lat="60.958351667" lon="15.158480000">
<time>2014-07-06T11:44:48Z</time>
 <fix>none</fix>
 <sat>0</sat>
</trkpt>
<trkpt lat="60.958410000" lon="15.158383333">
<time>2014-07-06T11:44:49Z</time>
 <fix>none</fix>
 <sat>0</sat>
</trkpt>
<trkpt lat="60.958481667" lon="15.158308333">
<time>2014-07-06T11:44:50Z</time>
 <fix>none</fix>
 <sat>0</sat>
</trkpt>
<trkpt lat="60.958560000" lon="15.158226667">
<time>2014-07-06T11:44:51Z</time>
 <fix>none</fix>
 <sat>0</sat>
</trkpt>
<trkpt lat="60.958626667" lon="15.158140000">
<time>2014-07-06T11:44:52Z</time>
 <fix>none</fix>
 <sat>0</sat>
</trkpt>
<trkpt lat="60.958693333" lon="15.158068333">
<time>2014-07-06T11:44:53Z</time>
 <fix>none</fix>
 <sat>0</sat>
</trkpt>
<trkpt lat="60.958765000" lon="15.157985000">
<time>2014-07-06T11:44:54Z</time>
 <fix>none</fix>
 <sat>0</sat>
</trkpt>
<trkpt lat="60.958833333" lon="15.157906667">
<time>2014-07-06T11:44:55Z</time>
 <fix>none</fix>
 <sat>0</sat>
</trkpt>
<trkpt lat="60.958833333" lon="15.157906667">
<time>2014-07-06T11:44:56Z</time>
 <fix>none</fix>
 <sat>0</sat>
</trkpt>
<trkpt lat="60.958900000" lon="15.157835000">
<time>2014-07-06T11:44:57Z</time>
 <fix>none</fix>
 <sat>0</sat>
</trkpt>
<trkpt lat="60.958971667" lon="15.157766667">
<time>2014-07-06T11:44:58Z</time>
 <fix>none</fix>
 <sat>0</sat>
</trkpt>
<trkpt lat="60.958971667" lon="15.157766667">
<time>2014-07-06T11:44:59Z</time>
 <fix>none</fix>
 <sat>0</sat>
</trkpt>
<trkpt lat="60.959196667" lon="15.157653333">
<time>2014-07-06T11:45:00Z</time>
 <fix>none</fix>
 <sat>0</sat>
</trkpt>
<trkpt lat="60.959385000" lon="15.157651667">
<time>2014-07-06T11:45:01Z</time>
 <fix>none</fix>
 <sat>0</sat>
</trkpt>
<trkpt lat="60.959385000" lon="15.157651667">
<time>2014-07-06T11:45:02Z</time>
 <fix>none</fix>
 <sat>0</sat>
</trkpt>
<trkpt lat="60.959385000" lon="15.157651667">
<time>2014-07-06T11:45:03Z</time>
 <fix>none</fix>
 <sat>0</sat>
</trkpt>
<trkpt lat="60.959551667" lon="15.157621667">
<time>2014-07-06T11:45:04Z</time>
 <fix>none</fix>
 <sat>0</sat>
</trkpt>
<trkpt lat="60.959551667" lon="15.157621667">
<time>2014-07-06T11:45:05Z</time>
 <fix>none</fix>
 <sat>0</sat>
</trkpt>
<trkpt lat="60.959716667" lon="15.157558333">
<time>2014-07-06T11:45:06Z</time>
 <fix>none</fix>
 <sat>0</sat>
</trkpt>
<trkpt lat="60.959716667" lon="15.157558333">
<time>2014-07-06T11:45:07Z</time>
 <fix>none</fix>
 <sat>0</sat>
</trkpt>
<trkpt lat="60.959881667" lon="15.157466667">
<time>2014-07-06T11:45:08Z</time>
 <fix>none</fix>
 <sat>0</sat>
</trkpt>
<trkpt lat="60.959881667" lon="15.157466667">
<time>2014-07-06T11:45:09Z</time>
 <fix>none</fix>
 <sat>0</sat>
</trkpt>
<trkpt lat="60.960056667" lon="15.157410000">
<time>2014-07-06T11:45:10Z</time>
 <fix>none</fix>
 <sat>0</sat>
</trkpt>
<trkpt lat="60.960056667" lon="15.157410000">
<time>2014-07-06T11:45:11Z</time>
 <fix>none</fix>
 <sat>0</sat>
</trkpt>
<trkpt lat="60.960233333" lon="15.157371667">
<time>2014-07-06T11:45:12Z</time>
 <fix>none</fix>
 <sat>0</sat>
</trkpt>
<trkpt lat="60.960233333" lon="15.157371667">
<time>2014-07-06T11:45:13Z</time>
 <fix>none</fix>
 <sat>0</sat>
</trkpt>
<trkpt lat="60.960403333" lon="15.157313333">
<time>2014-07-06T11:45:14Z</time>
 <fix>none</fix>
 <sat>0</sat>
</trkpt>
<trkpt lat="60.960403333" lon="15.157313333">
<time>2014-07-06T11:45:15Z</time>
 <fix>none</fix>
 <sat>0</sat>
</trkpt>
<trkpt lat="60.960576667" lon="15.157218333">
<time>2014-07-06T11:45:16Z</time>
 <fix>none</fix>
 <sat>0</sat>
</trkpt>
<trkpt lat="60.960576667" lon="15.157218333">
<time>2014-07-06T11:45:17Z</time>
 <fix>none</fix>
 <sat>0</sat>
</trkpt>
<trkpt lat="60.960745000" lon="15.157111667">
<time>2014-07-06T11:45:18Z</time>
 <fix>none</fix>
 <sat>0</sat>
</trkpt>
<trkpt lat="60.960745000" lon="15.157111667">
<time>2014-07-06T11:45:19Z</time>
 <fix>none</fix>
 <sat>0</sat>
</trkpt>
<trkpt lat="60.960880000" lon="15.157071667">
<time>2014-07-06T11:45:20Z</time>
 <fix>none</fix>
 <sat>0</sat>
</trkpt>
<trkpt lat="60.960880000" lon="15.157071667">
<time>2014-07-06T11:45:21Z</time>
 <fix>none</fix>
 <sat>0</sat>
</trkpt>
<trkpt lat="60.961018333" lon="15.156973333">
<time>2014-07-06T11:45:22Z</time>
 <fix>none</fix>
 <sat>0</sat>
</trkpt>
<trkpt lat="60.961018333" lon="15.156973333">
<time>2014-07-06T11:45:23Z</time>
 <fix>none</fix>
 <sat>0</sat>
</trkpt>
<trkpt lat="60.961183333" lon="15.156855000">
<time>2014-07-06T11:45:24Z</time>
 <fix>none</fix>
 <sat>0</sat>
</trkpt>
<trkpt lat="60.961183333" lon="15.156855000">
<time>2014-07-06T11:45:25Z</time>
 <fix>none</fix>
 <sat>0</sat>
</trkpt>
<trkpt lat="60.961330000" lon="15.156673333">
<time>2014-07-06T11:45:26Z</time>
 <fix>none</fix>
 <sat>0</sat>
</trkpt>
<trkpt lat="60.961330000" lon="15.156673333">
<time>2014-07-06T11:45:27Z</time>
 <fix>none</fix>
 <sat>0</sat>
</trkpt>
<trkpt lat="60.961460000" lon="15.156516667">
<time>2014-07-06T11:45:28Z</time>
 <fix>none</fix>
 <sat>0</sat>
</trkpt>
<trkpt lat="60.961460000" lon="15.156516667">
<time>2014-07-06T11:45:29Z</time>
 <fix>none</fix>
 <sat>0</sat>
</trkpt>
<trkpt lat="60.961618333" lon="15.156380000">
<time>2014-07-06T11:45:30Z</time>
 <fix>none</fix>
 <sat>0</sat>
</trkpt>
<trkpt lat="60.961618333" lon="15.156380000">
<time>2014-07-06T11:45:31Z</time>
 <fix>none</fix>
 <sat>0</sat>
</trkpt>
<trkpt lat="60.961778333" lon="15.156293333">
<time>2014-07-06T11:45:32Z</time>
 <fix>none</fix>
 <sat>0</sat>
</trkpt>
<trkpt lat="60.961778333" lon="15.156293333">
<time>2014-07-06T11:45:33Z</time>
 <fix>none</fix>
 <sat>0</sat>
</trkpt>
<trkpt lat="60.961976667" lon="15.156188333">
<time>2014-07-06T11:45:34Z</time>
 <fix>none</fix>
 <sat>0</sat>
</trkpt>
<trkpt lat="60.962046667" lon="15.156138333">
<time>2014-07-06T11:45:35Z</time>
 <fix>none</fix>
 <sat>0</sat>
</trkpt>
<trkpt lat="60.962121667" lon="15.156030000">
<time>2014-07-06T11:45:36Z</time>
 <fix>none</fix>
 <sat>0</sat>
</trkpt>
<trkpt lat="60.962200000" lon="15.155935000">
<time>2014-07-06T11:45:37Z</time>
 <fix>none</fix>
 <sat>0</sat>
</trkpt>
<trkpt lat="60.962263333" lon="15.155861667">
<time>2014-07-06T11:45:38Z</time>
 <fix>none</fix>
 <sat>0</sat>
</trkpt>
<trkpt lat="60.962331667" lon="15.155791667">
<time>2014-07-06T11:45:39Z</time>
 <fix>none</fix>
 <sat>0</sat>
</trkpt>
<trkpt lat="60.962398333" lon="15.155723333">
<time>2014-07-06T11:45:40Z</time>
 <fix>none</fix>
 <sat>0</sat>
</trkpt>
<trkpt lat="60.962470000" lon="15.155651667">
<time>2014-07-06T11:45:41Z</time>
 <fix>none</fix>
 <sat>0</sat>
</trkpt>
<trkpt lat="60.962470000" lon="15.155651667">
<time>2014-07-06T11:45:42Z</time>
 <fix>none</fix>
 <sat>0</sat>
</trkpt>
<trkpt lat="60.962538333" lon="15.155578333">
<time>2014-07-06T11:45:43Z</time>
 <fix>none</fix>
 <sat>0</sat>
</trkpt>
<trkpt lat="60.962600000" lon="15.155521667">
<time>2014-07-06T11:45:44Z</time>
 <fix>none</fix>
 <sat>0</sat>
</trkpt>
<trkpt lat="60.962646667" lon="15.155463333">
<time>2014-07-06T11:45:45Z</time>
 <fix>none</fix>
 <sat>0</sat>
</trkpt>
<trkpt lat="60.962695000" lon="15.155403333">
<time>2014-07-06T11:45:46Z</time>
 <fix>none</fix>
 <sat>0</sat>
</trkpt>
<trkpt lat="60.962798333" lon="15.155231667">
<time>2014-07-06T11:45:47Z</time>
 <fix>none</fix>
 <sat>0</sat>
</trkpt>
<trkpt lat="60.962866667" lon="15.155116667">
<time>2014-07-06T11:45:48Z</time>
 <fix>none</fix>
 <sat>0</sat>
</trkpt>
<trkpt lat="60.962938333" lon="15.154995000">
<time>2014-07-06T11:45:49Z</time>
 <fix>none</fix>
 <sat>0</sat>
</trkpt>
<trkpt lat="60.963001667" lon="15.154883333">
<time>2014-07-06T11:45:50Z</time>
 <fix>none</fix>
 <sat>0</sat>
</trkpt>
<trkpt lat="60.963063333" lon="15.154776667">
<time>2014-07-06T11:45:51Z</time>
 <fix>none</fix>
 <sat>0</sat>
</trkpt>
<trkpt lat="60.963111667" lon="15.154681667">
<time>2014-07-06T11:45:52Z</time>
 <fix>none</fix>
 <sat>0</sat>
</trkpt>
<trkpt lat="60.963158333" lon="15.154586667">
<time>2014-07-06T11:45:53Z</time>
 <fix>none</fix>
 <sat>0</sat>
</trkpt>
<trkpt lat="60.963211667" lon="15.154481667">
<time>2014-07-06T11:45:54Z</time>
 <fix>none</fix>
 <sat>0</sat>
</trkpt>
<trkpt lat="60.963271667" lon="15.154376667">
<time>2014-07-06T11:45:55Z</time>
 <fix>none</fix>
 <sat>0</sat>
</trkpt>
<trkpt lat="60.963335000" lon="15.154276667">
<time>2014-07-06T11:45:56Z</time>
 <fix>none</fix>
 <sat>0</sat>
</trkpt>
<trkpt lat="60.963395000" lon="15.154185000">
<time>2014-07-06T11:45:57Z</time>
 <fix>none</fix>
 <sat>0</sat>
</trkpt>
<trkpt lat="60.963463333" lon="15.154105000">
<time>2014-07-06T11:45:58Z</time>
 <fix>none</fix>
 <sat>0</sat>
</trkpt>
<trkpt lat="60.963528333" lon="15.154035000">
<time>2014-07-06T11:45:59Z</time>
 <fix>none</fix>
 <sat>0</sat>
</trkpt>
<trkpt lat="60.963606667" lon="15.153956667">
<time>2014-07-06T11:46:00Z</time>
 <fix>none</fix>
 <sat>0</sat>
</trkpt>
<trkpt lat="60.963686667" lon="15.153873333">
<time>2014-07-06T11:46:01Z</time>
 <fix>none</fix>
 <sat>0</sat>
</trkpt>
<trkpt lat="60.963760000" lon="15.153798333">
<time>2014-07-06T11:46:02Z</time>
 <fix>none</fix>
 <sat>0</sat>
</trkpt>
<trkpt lat="60.963828333" lon="15.153730000">
<time>2014-07-06T11:46:03Z</time>
 <fix>none</fix>
 <sat>0</sat>
</trkpt>
<trkpt lat="60.963828333" lon="15.153730000">
<time>2014-07-06T11:46:04Z</time>
 <fix>none</fix>
 <sat>0</sat>
</trkpt>
<trkpt lat="60.963898333" lon="15.153665000">
<time>2014-07-06T11:46:05Z</time>
 <fix>none</fix>
 <sat>0</sat>
</trkpt>
<trkpt lat="60.963973333" lon="15.153606667">
<time>2014-07-06T11:46:06Z</time>
 <fix>none</fix>
 <sat>0</sat>
</trkpt>
<trkpt lat="60.964060000" lon="15.153556667">
<time>2014-07-06T11:46:07Z</time>
 <fix>none</fix>
 <sat>0</sat>
</trkpt>
<trkpt lat="60.964135000" lon="15.153515000">
<time>2014-07-06T11:46:08Z</time>
 <fix>none</fix>
 <sat>0</sat>
</trkpt>
<trkpt lat="60.964196667" lon="15.153476667">
<time>2014-07-06T11:46:09Z</time>
 <fix>none</fix>
 <sat>0</sat>
</trkpt>
<trkpt lat="60.964300000" lon="15.153376667">
<time>2014-07-06T11:46:10Z</time>
 <fix>none</fix>
 <sat>0</sat>
</trkpt>
<trkpt lat="60.964345000" lon="15.153336667">
<time>2014-07-06T11:46:11Z</time>
 <fix>none</fix>
 <sat>0</sat>
</trkpt>
<trkpt lat="60.964345000" lon="15.153336667">
<time>2014-07-06T11:46:12Z</time>
 <fix>none</fix>
 <sat>0</sat>
</trkpt>
<trkpt lat="60.964460000" lon="15.153225000">
<time>2014-07-06T11:46:13Z</time>
 <fix>none</fix>
 <sat>0</sat>
</trkpt>
<trkpt lat="60.964491667" lon="15.153200000">
<time>2014-07-06T11:46:14Z</time>
 <fix>none</fix>
 <sat>0</sat>
</trkpt>
<trkpt lat="60.964548333" lon="15.153151667">
<time>2014-07-06T11:46:15Z</time>
 <fix>none</fix>
 <sat>0</sat>
</trkpt>
<trkpt lat="60.964611667" lon="15.153088333">
<time>2014-07-06T11:46:16Z</time>
 <fix>none</fix>
 <sat>0</sat>
</trkpt>
<trkpt lat="60.964681667" lon="15.153015000">
<time>2014-07-06T11:46:17Z</time>
 <fix>none</fix>
 <sat>0</sat>
</trkpt>
<trkpt lat="60.964761667" lon="15.152936667">
<time>2014-07-06T11:46:18Z</time>
 <fix>none</fix>
 <sat>0</sat>
</trkpt>
<trkpt lat="60.964841667" lon="15.152835000">
<time>2014-07-06T11:46:19Z</time>
 <fix>none</fix>
 <sat>0</sat>
</trkpt>
<trkpt lat="60.964923333" lon="15.152723333">
<time>2014-07-06T11:46:20Z</time>
 <fix>none</fix>
 <sat>0</sat>
</trkpt>
<trkpt lat="60.964973333" lon="15.152648333">
<time>2014-07-06T11:46:21Z</time>
 <fix>none</fix>
 <sat>0</sat>
</trkpt>
<trkpt lat="60.965050000" lon="15.152540000">
<time>2014-07-06T11:46:22Z</time>
 <fix>none</fix>
 <sat>0</sat>
</trkpt>
<trkpt lat="60.965100000" lon="15.152480000">
<time>2014-07-06T11:46:23Z</time>
 <fix>none</fix>
 <sat>0</sat>
</trkpt>
<trkpt lat="60.965173333" lon="15.152383333">
<time>2014-07-06T11:46:24Z</time>
 <fix>none</fix>
 <sat>0</sat>
</trkpt>
<trkpt lat="60.965238333" lon="15.152291667">
<time>2014-07-06T11:46:25Z</time>
 <fix>none</fix>
 <sat>0</sat>
</trkpt>
<trkpt lat="60.965276667" lon="15.152223333">
<time>2014-07-06T11:46:26Z</time>
 <fix>none</fix>
 <sat>0</sat>
</trkpt>
<trkpt lat="60.965276667" lon="15.152223333">
<time>2014-07-06T11:46:27Z</time>
 <fix>none</fix>
 <sat>0</sat>
</trkpt>
<trkpt lat="60.965330000" lon="15.152145000">
<time>2014-07-06T11:46:28Z</time>
 <fix>none</fix>
 <sat>0</sat>
</trkpt>
<trkpt lat="60.965385000" lon="15.152051667">
<time>2014-07-06T11:46:29Z</time>
 <fix>none</fix>
 <sat>0</sat>
</trkpt>
<trkpt lat="60.965465000" lon="15.151976667">
<time>2014-07-06T11:46:30Z</time>
 <fix>none</fix>
 <sat>0</sat>
</trkpt>
<trkpt lat="60.965506667" lon="15.151851667">
<time>2014-07-06T11:46:31Z</time>
 <fix>none</fix>
 <sat>0</sat>
</trkpt>
<trkpt lat="60.965563333" lon="15.151755000">
<time>2014-07-06T11:46:32Z</time>
 <fix>none</fix>
 <sat>0</sat>
</trkpt>
<trkpt lat="60.965638333" lon="15.151613333">
<time>2014-07-06T11:46:33Z</time>
 <fix>none</fix>
 <sat>0</sat>
</trkpt>
<trkpt lat="60.965638333" lon="15.151613333">
<time>2014-07-06T11:46:34Z</time>
 <fix>none</fix>
 <sat>0</sat>
</trkpt>
<trkpt lat="60.965588333" lon="15.151396667">
<time>2014-07-06T11:46:35Z</time>
 <fix>none</fix>
 <sat>0</sat>
</trkpt>
<trkpt lat="60.965568333" lon="15.151276667">
<time>2014-07-06T11:46:36Z</time>
 <fix>none</fix>
 <sat>0</sat>
</trkpt>
<trkpt lat="60.965528333" lon="15.151168333">
<time>2014-07-06T11:46:37Z</time>
 <fix>none</fix>
 <sat>0</sat>
</trkpt>
<trkpt lat="60.965493333" lon="15.151056667">
<time>2014-07-06T11:46:38Z</time>
 <fix>none</fix>
 <sat>0</sat>
</trkpt>
<trkpt lat="60.965446667" lon="15.150963333">
<time>2014-07-06T11:46:39Z</time>
 <fix>none</fix>
 <sat>0</sat>
</trkpt>
<trkpt lat="60.965396667" lon="15.150898333">
<time>2014-07-06T11:46:40Z</time>
 <fix>none</fix>
 <sat>0</sat>
</trkpt>
<trkpt lat="60.965355000" lon="15.150828333">
<time>2014-07-06T11:46:41Z</time>
 <fix>none</fix>
 <sat>0</sat>
</trkpt>
<trkpt lat="60.965303333" lon="15.150743333">
<time>2014-07-06T11:46:42Z</time>
 <fix>none</fix>
 <sat>0</sat>
</trkpt>
<trkpt lat="60.965246667" lon="15.150670000">
<time>2014-07-06T11:46:43Z</time>
 <fix>none</fix>
 <sat>0</sat>
</trkpt>
<trkpt lat="60.965180000" lon="15.150591667">
<time>2014-07-06T11:46:44Z</time>
 <fix>none</fix>
 <sat>0</sat>
</trkpt>
<trkpt lat="60.965103333" lon="15.150531667">
<time>2014-07-06T11:46:45Z</time>
 <fix>none</fix>
 <sat>0</sat>
</trkpt>
<trkpt lat="60.965021667" lon="15.150456667">
<time>2014-07-06T11:46:46Z</time>
 <fix>none</fix>
 <sat>0</sat>
</trkpt>
<trkpt lat="60.964950000" lon="15.150358333">
<time>2014-07-06T11:46:47Z</time>
 <fix>none</fix>
 <sat>0</sat>
</trkpt>
<trkpt lat="60.964886667" lon="15.150243333">
<time>2014-07-06T11:46:48Z</time>
 <fix>none</fix>
 <sat>0</sat>
</trkpt>
<trkpt lat="60.964853333" lon="15.150113333">
<time>2014-07-06T11:46:49Z</time>
 <fix>none</fix>
 <sat>0</sat>
</trkpt>
<trkpt lat="60.964853333" lon="15.150113333">
<time>2014-07-06T11:46:50Z</time>
 <fix>none</fix>
 <sat>0</sat>
</trkpt>
<trkpt lat="60.964836667" lon="15.149981667">
<time>2014-07-06T11:46:51Z</time>
 <fix>none</fix>
 <sat>0</sat>
</trkpt>
<trkpt lat="60.964830000" lon="15.149856667">
<time>2014-07-06T11:46:52Z</time>
 <fix>none</fix>
 <sat>0</sat>
</trkpt>
<trkpt lat="60.964840000" lon="15.149720000">
<time>2014-07-06T11:46:53Z</time>
 <fix>none</fix>
 <sat>0</sat>
</trkpt>
<trkpt lat="60.964858333" lon="15.149571667">
<time>2014-07-06T11:46:54Z</time>
 <fix>none</fix>
 <sat>0</sat>
</trkpt>
<trkpt lat="60.964883333" lon="15.149423333">
<time>2014-07-06T11:46:55Z</time>
 <fix>none</fix>
 <sat>0</sat>
</trkpt>
<trkpt lat="60.964941667" lon="15.149110000">
<time>2014-07-06T11:46:56Z</time>
 <fix>none</fix>
 <sat>0</sat>
</trkpt>
<trkpt lat="60.964966667" lon="15.148955000">
<time>2014-07-06T11:46:57Z</time>
 <fix>none</fix>
 <sat>0</sat>
</trkpt>
<trkpt lat="60.964966667" lon="15.148955000">
<time>2014-07-06T11:46:58Z</time>
 <fix>none</fix>
 <sat>0</sat>
</trkpt>
<trkpt lat="60.964983333" lon="15.148671667">
<time>2014-07-06T11:46:59Z</time>
 <fix>none</fix>
 <sat>0</sat>
</trkpt>
<trkpt lat="60.964990000" lon="15.148525000">
<time>2014-07-06T11:47:00Z</time>
 <fix>none</fix>
 <sat>0</sat>
</trkpt>
<trkpt lat="60.964990000" lon="15.148525000">
<time>2014-07-06T11:47:01Z</time>
 <fix>none</fix>
 <sat>0</sat>
</trkpt>
<trkpt lat="60.964990000" lon="15.148525000">
<time>2014-07-06T11:47:02Z</time>
 <fix>none</fix>
 <sat>0</sat>
</trkpt>
<trkpt lat="60.965020000" lon="15.148101667">
<time>2014-07-06T11:47:03Z</time>
 <fix>none</fix>
 <sat>0</sat>
</trkpt>
<trkpt lat="60.965020000" lon="15.148101667">
<time>2014-07-06T11:47:04Z</time>
 <fix>none</fix>
 <sat>0</sat>
</trkpt>
<trkpt lat="60.965043333" lon="15.147825000">
<time>2014-07-06T11:47:05Z</time>
 <fix>none</fix>
 <sat>0</sat>
</trkpt>
<trkpt lat="60.965043333" lon="15.147825000">
<time>2014-07-06T11:47:06Z</time>
 <fix>none</fix>
 <sat>0</sat>
</trkpt>
<trkpt lat="60.965068333" lon="15.147550000">
<time>2014-07-06T11:47:07Z</time>
 <fix>none</fix>
 <sat>0</sat>
</trkpt>
<trkpt lat="60.965068333" lon="15.147550000">
<time>2014-07-06T11:47:08Z</time>
 <fix>none</fix>
 <sat>0</sat>
</trkpt>
<trkpt lat="60.965101667" lon="15.147285000">
<time>2014-07-06T11:47:09Z</time>
 <fix>none</fix>
 <sat>0</sat>
</trkpt>
<trkpt lat="60.965101667" lon="15.147285000">
<time>2014-07-06T11:47:10Z</time>
 <fix>none</fix>
 <sat>0</sat>
</trkpt>
<trkpt lat="60.965131667" lon="15.147035000">
<time>2014-07-06T11:47:11Z</time>
 <fix>none</fix>
 <sat>0</sat>
</trkpt>
<trkpt lat="60.965131667" lon="15.147035000">
<time>2014-07-06T11:47:12Z</time>
 <fix>none</fix>
 <sat>0</sat>
</trkpt>
<trkpt lat="60.965175000" lon="15.146773333">
<time>2014-07-06T11:47:13Z</time>
 <fix>none</fix>
 <sat>0</sat>
</trkpt>
<trkpt lat="60.965175000" lon="15.146773333">
<time>2014-07-06T11:47:14Z</time>
 <fix>none</fix>
 <sat>0</sat>
</trkpt>
<trkpt lat="60.965220000" lon="15.146521667">
<time>2014-07-06T11:47:15Z</time>
 <fix>none</fix>
 <sat>0</sat>
</trkpt>
<trkpt lat="60.965220000" lon="15.146521667">
<time>2014-07-06T11:47:16Z</time>
 <fix>none</fix>
 <sat>0</sat>
</trkpt>
<trkpt lat="60.965275000" lon="15.146290000">
<time>2014-07-06T11:47:17Z</time>
 <fix>none</fix>
 <sat>0</sat>
</trkpt>
<trkpt lat="60.965275000" lon="15.146290000">
<time>2014-07-06T11:47:18Z</time>
 <fix>none</fix>
 <sat>0</sat>
</trkpt>
<trkpt lat="60.965340000" lon="15.146058333">
<time>2014-07-06T11:47:19Z</time>
 <fix>none</fix>
 <sat>0</sat>
</trkpt>
<trkpt lat="60.965340000" lon="15.146058333">
<time>2014-07-06T11:47:20Z</time>
 <fix>none</fix>
 <sat>0</sat>
</trkpt>
<trkpt lat="60.965415000" lon="15.145808333">
<time>2014-07-06T11:47:21Z</time>
 <fix>none</fix>
 <sat>0</sat>
</trkpt>
<trkpt lat="60.965415000" lon="15.145808333">
<time>2014-07-06T11:47:22Z</time>
 <fix>none</fix>
 <sat>0</sat>
</trkpt>
<trkpt lat="60.965510000" lon="15.145576667">
<time>2014-07-06T11:47:23Z</time>
 <fix>none</fix>
 <sat>0</sat>
</trkpt>
<trkpt lat="60.965510000" lon="15.145576667">
<time>2014-07-06T11:47:24Z</time>
 <fix>none</fix>
 <sat>0</sat>
</trkpt>
<trkpt lat="60.965570000" lon="15.145285000">
<time>2014-07-06T11:47:25Z</time>
 <fix>none</fix>
 <sat>0</sat>
</trkpt>
<trkpt lat="60.965570000" lon="15.145285000">
<time>2014-07-06T11:47:26Z</time>
 <fix>none</fix>
 <sat>0</sat>
</trkpt>
<trkpt lat="60.965603333" lon="15.144991667">
<time>2014-07-06T11:47:27Z</time>
 <fix>none</fix>
 <sat>0</sat>
</trkpt>
<trkpt lat="60.965603333" lon="15.144991667">
<time>2014-07-06T11:47:28Z</time>
 <fix>none</fix>
 <sat>0</sat>
</trkpt>
<trkpt lat="60.965603333" lon="15.144686667">
<time>2014-07-06T11:47:29Z</time>
 <fix>none</fix>
 <sat>0</sat>
</trkpt>
<trkpt lat="60.965603333" lon="15.144686667">
<time>2014-07-06T11:47:30Z</time>
 <fix>none</fix>
 <sat>0</sat>
</trkpt>
<trkpt lat="60.965586667" lon="15.144383333">
<time>2014-07-06T11:47:31Z</time>
 <fix>none</fix>
 <sat>0</sat>
</trkpt>
<trkpt lat="60.965586667" lon="15.144383333">
<time>2014-07-06T11:47:32Z</time>
 <fix>none</fix>
 <sat>0</sat>
</trkpt>
<trkpt lat="60.965581667" lon="15.144085000">
<time>2014-07-06T11:47:33Z</time>
 <fix>none</fix>
 <sat>0</sat>
</trkpt>
<trkpt lat="60.965581667" lon="15.144085000">
<time>2014-07-06T11:47:34Z</time>
 <fix>none</fix>
 <sat>0</sat>
</trkpt>
<trkpt lat="60.965581667" lon="15.143815000">
<time>2014-07-06T11:47:35Z</time>
 <fix>none</fix>
 <sat>0</sat>
</trkpt>
<trkpt lat="60.965585000" lon="15.143781667">
<time>2014-07-06T11:47:36Z</time>
 <fix>none</fix>
 <sat>0</sat>
</trkpt>
<trkpt lat="60.965590000" lon="15.143696667">
<time>2014-07-06T11:47:37Z</time>
 <fix>none</fix>
 <sat>0</sat>
</trkpt>
<trkpt lat="60.965675000" lon="15.143621667">
<time>2014-07-06T11:47:38Z</time>
 <fix>none</fix>
 <sat>0</sat>
</trkpt>
<trkpt lat="60.965778333" lon="15.143548333">
<time>2014-07-06T11:47:39Z</time>
 <fix>none</fix>
 <sat>0</sat>
</trkpt>
<trkpt lat="60.965861667" lon="15.143496667">
<time>2014-07-06T11:47:40Z</time>
 <fix>none</fix>
 <sat>0</sat>
</trkpt>
<trkpt lat="60.966021667" lon="15.143431667">
<time>2014-07-06T11:47:41Z</time>
 <fix>none</fix>
 <sat>0</sat>
</trkpt>
<trkpt lat="60.966021667" lon="15.143431667">
<time>2014-07-06T11:47:42Z</time>
 <fix>none</fix>
 <sat>0</sat>
</trkpt>
<trkpt lat="60.966093333" lon="15.143393333">
<time>2014-07-06T11:47:43Z</time>
 <fix>none</fix>
 <sat>0</sat>
</trkpt>
<trkpt lat="60.966230000" lon="15.143328333">
<time>2014-07-06T11:47:44Z</time>
 <fix>none</fix>
 <sat>0</sat>
</trkpt>
<trkpt lat="60.966298333" lon="15.143290000">
<time>2014-07-06T11:47:45Z</time>
 <fix>none</fix>
 <sat>0</sat>
</trkpt>
<trkpt lat="60.966366667" lon="15.143256667">
<time>2014-07-06T11:47:46Z</time>
 <fix>none</fix>
 <sat>0</sat>
</trkpt>
<trkpt lat="60.966431667" lon="15.143210000">
<time>2014-07-06T11:47:47Z</time>
 <fix>none</fix>
 <sat>0</sat>
</trkpt>
<trkpt lat="60.966431667" lon="15.143210000">
<time>2014-07-06T11:47:48Z</time>
 <fix>none</fix>
 <sat>0</sat>
</trkpt>
<trkpt lat="60.966431667" lon="15.143210000">
<time>2014-07-06T11:47:49Z</time>
 <fix>none</fix>
 <sat>0</sat>
</trkpt>
<trkpt lat="60.966623333" lon="15.143083333">
<time>2014-07-06T11:47:50Z</time>
 <fix>none</fix>
 <sat>0</sat>
</trkpt>
<trkpt lat="60.966623333" lon="15.143083333">
<time>2014-07-06T11:47:51Z</time>
 <fix>none</fix>
 <sat>0</sat>
</trkpt>
<trkpt lat="60.966753333" lon="15.143003333">
<time>2014-07-06T11:47:52Z</time>
 <fix>none</fix>
 <sat>0</sat>
</trkpt>
<trkpt lat="60.966753333" lon="15.143003333">
<time>2014-07-06T11:47:53Z</time>
 <fix>none</fix>
 <sat>0</sat>
</trkpt>
<trkpt lat="60.966891667" lon="15.142868333">
<time>2014-07-06T11:47:54Z</time>
 <fix>none</fix>
 <sat>0</sat>
</trkpt>
<trkpt lat="60.966933333" lon="15.142795000">
<time>2014-07-06T11:47:55Z</time>
 <fix>none</fix>
 <sat>0</sat>
</trkpt>
<trkpt lat="60.966981667" lon="15.142703333">
<time>2014-07-06T11:47:56Z</time>
 <fix>none</fix>
 <sat>0</sat>
</trkpt>
<trkpt lat="60.967026667" lon="15.142620000">
<time>2014-07-06T11:47:57Z</time>
 <fix>none</fix>
 <sat>0</sat>
</trkpt>
<trkpt lat="60.967026667" lon="15.142620000">
<time>2014-07-06T11:47:58Z</time>
 <fix>none</fix>
 <sat>0</sat>
</trkpt>
<trkpt lat="60.967073333" lon="15.142521667">
<time>2014-07-06T11:47:59Z</time>
 <fix>none</fix>
 <sat>0</sat>
</trkpt>
<trkpt lat="60.967103333" lon="15.142410000">
<time>2014-07-06T11:48:00Z</time>
 <fix>none</fix>
 <sat>0</sat>
</trkpt>
<trkpt lat="60.967123333" lon="15.142293333">
<time>2014-07-06T11:48:01Z</time>
 <fix>none</fix>
 <sat>0</sat>
</trkpt>
<trkpt lat="60.967131667" lon="15.142166667">
<time>2014-07-06T11:48:02Z</time>
 <fix>none</fix>
 <sat>0</sat>
</trkpt>
<trkpt lat="60.967133333" lon="15.142041667">
<time>2014-07-06T11:48:03Z</time>
 <fix>none</fix>
 <sat>0</sat>
</trkpt>
<trkpt lat="60.967130000" lon="15.141908333">
<time>2014-07-06T11:48:04Z</time>
 <fix>none</fix>
 <sat>0</sat>
</trkpt>
<trkpt lat="60.967105000" lon="15.141621667">
<time>2014-07-06T11:48:05Z</time>
 <fix>none</fix>
 <sat>0</sat>
</trkpt>
<trkpt lat="60.967078333" lon="15.141476667">
<time>2014-07-06T11:48:06Z</time>
 <fix>none</fix>
 <sat>0</sat>
</trkpt>
<trkpt lat="60.967023333" lon="15.141358333">
<time>2014-07-06T11:48:07Z</time>
 <fix>none</fix>
 <sat>0</sat>
</trkpt>
<trkpt lat="60.966946667" lon="15.141290000">
<time>2014-07-06T11:48:08Z</time>
 <fix>none</fix>
 <sat>0</sat>
</trkpt>
<trkpt lat="60.966883333" lon="15.141173333">
<time>2014-07-06T11:48:09Z</time>
 <fix>none</fix>
 <sat>0</sat>
</trkpt>
<trkpt lat="60.966883333" lon="15.141173333">
<time>2014-07-06T11:48:10Z</time>
 <fix>none</fix>
 <sat>0</sat>
</trkpt>
<trkpt lat="60.966883333" lon="15.141173333">
<time>2014-07-06T11:48:11Z</time>
 <fix>none</fix>
 <sat>0</sat>
</trkpt>
<trkpt lat="60.966901667" lon="15.140900000">
<time>2014-07-06T11:48:12Z</time>
 <fix>none</fix>
 <sat>0</sat>
</trkpt>
<trkpt lat="60.966901667" lon="15.140900000">
<time>2014-07-06T11:48:13Z</time>
 <fix>none</fix>
 <sat>0</sat>
</trkpt>
<trkpt lat="60.966780000" lon="15.140475000">
<time>2014-07-06T11:48:14Z</time>
 <fix>none</fix>
 <sat>0</sat>
</trkpt>
<trkpt lat="60.966780000" lon="15.140475000">
<time>2014-07-06T11:48:15Z</time>
 <fix>none</fix>
 <sat>0</sat>
</trkpt>
<trkpt lat="60.966705000" lon="15.140133333">
<time>2014-07-06T11:48:16Z</time>
 <fix>none</fix>
 <sat>0</sat>
</trkpt>
<trkpt lat="60.966705000" lon="15.140133333">
<time>2014-07-06T11:48:17Z</time>
 <fix>none</fix>
 <sat>0</sat>
</trkpt>
<trkpt lat="60.966630000" lon="15.139805000">
<time>2014-07-06T11:48:18Z</time>
 <fix>none</fix>
 <sat>0</sat>
</trkpt>
<trkpt lat="60.966630000" lon="15.139805000">
<time>2014-07-06T11:48:19Z</time>
 <fix>none</fix>
 <sat>0</sat>
</trkpt>
<trkpt lat="60.966551667" lon="15.139491667">
<time>2014-07-06T11:48:20Z</time>
 <fix>none</fix>
 <sat>0</sat>
</trkpt>
<trkpt lat="60.966551667" lon="15.139491667">
<time>2014-07-06T11:48:21Z</time>
 <fix>none</fix>
 <sat>0</sat>
</trkpt>
<trkpt lat="60.966465000" lon="15.139206667">
<time>2014-07-06T11:48:22Z</time>
 <fix>none</fix>
 <sat>0</sat>
</trkpt>
<trkpt lat="60.966465000" lon="15.139206667">
<time>2014-07-06T11:48:23Z</time>
 <fix>none</fix>
 <sat>0</sat>
</trkpt>
<trkpt lat="60.966345000" lon="15.138966667">
<time>2014-07-06T11:48:24Z</time>
 <fix>none</fix>
 <sat>0</sat>
</trkpt>
<trkpt lat="60.966345000" lon="15.138966667">
<time>2014-07-06T11:48:25Z</time>
 <fix>none</fix>
 <sat>0</sat>
</trkpt>
<trkpt lat="60.966241667" lon="15.138721667">
<time>2014-07-06T11:48:26Z</time>
 <fix>none</fix>
 <sat>0</sat>
</trkpt>
<trkpt lat="60.966241667" lon="15.138721667">
<time>2014-07-06T11:48:27Z</time>
 <fix>none</fix>
 <sat>0</sat>
</trkpt>
<trkpt lat="60.966140000" lon="15.138480000">
<time>2014-07-06T11:48:28Z</time>
 <fix>none</fix>
 <sat>0</sat>
</trkpt>
<trkpt lat="60.966140000" lon="15.138480000">
<time>2014-07-06T11:48:29Z</time>
 <fix>none</fix>
 <sat>0</sat>
</trkpt>
<trkpt lat="60.966140000" lon="15.138480000">
<time>2014-07-06T11:48:30Z</time>
 <fix>none</fix>
 <sat>0</sat>
</trkpt>
<trkpt lat="60.966020000" lon="15.138278333">
<time>2014-07-06T11:48:31Z</time>
 <fix>none</fix>
 <sat>0</sat>
</trkpt>
<trkpt lat="60.965900000" lon="15.138055000">
<time>2014-07-06T11:48:32Z</time>
 <fix>none</fix>
 <sat>0</sat>
</trkpt>
<trkpt lat="60.965900000" lon="15.138055000">
<time>2014-07-06T11:48:33Z</time>
 <fix>none</fix>
 <sat>0</sat>
</trkpt>
<trkpt lat="60.965786667" lon="15.137836667">
<time>2014-07-06T11:48:34Z</time>
 <fix>none</fix>
 <sat>0</sat>
</trkpt>
<trkpt lat="60.965786667" lon="15.137836667">
<time>2014-07-06T11:48:35Z</time>
 <fix>none</fix>
 <sat>0</sat>
</trkpt>
<trkpt lat="60.965678333" lon="15.137595000">
<time>2014-07-06T11:48:36Z</time>
 <fix>none</fix>
 <sat>0</sat>
</trkpt>
<trkpt lat="60.965678333" lon="15.137595000">
<time>2014-07-06T11:48:37Z</time>
 <fix>none</fix>
 <sat>0</sat>
</trkpt>
<trkpt lat="60.965566667" lon="15.137365000">
<time>2014-07-06T11:48:38Z</time>
 <fix>none</fix>
 <sat>0</sat>
</trkpt>
<trkpt lat="60.965566667" lon="15.137365000">
<time>2014-07-06T11:48:39Z</time>
 <fix>none</fix>
 <sat>0</sat>
</trkpt>
<trkpt lat="60.965438333" lon="15.137153333">
<time>2014-07-06T11:48:40Z</time>
 <fix>none</fix>
 <sat>0</sat>
</trkpt>
<trkpt lat="60.965438333" lon="15.137153333">
<time>2014-07-06T11:48:41Z</time>
 <fix>none</fix>
 <sat>0</sat>
</trkpt>
<trkpt lat="60.965316667" lon="15.136941667">
<time>2014-07-06T11:48:42Z</time>
 <fix>none</fix>
 <sat>0</sat>
</trkpt>
<trkpt lat="60.965316667" lon="15.136941667">
<time>2014-07-06T11:48:43Z</time>
 <fix>none</fix>
 <sat>0</sat>
</trkpt>
<trkpt lat="60.965186667" lon="15.136736667">
<time>2014-07-06T11:48:44Z</time>
 <fix>none</fix>
 <sat>0</sat>
</trkpt>
<trkpt lat="60.965186667" lon="15.136736667">
<time>2014-07-06T11:48:45Z</time>
 <fix>none</fix>
 <sat>0</sat>
</trkpt>
<trkpt lat="60.965063333" lon="15.136531667">
<time>2014-07-06T11:48:46Z</time>
 <fix>none</fix>
 <sat>0</sat>
</trkpt>
<trkpt lat="60.965063333" lon="15.136531667">
<time>2014-07-06T11:48:47Z</time>
 <fix>none</fix>
 <sat>0</sat>
</trkpt>
<trkpt lat="60.964981667" lon="15.136345000">
<time>2014-07-06T11:48:48Z</time>
 <fix>none</fix>
 <sat>0</sat>
</trkpt>
<trkpt lat="60.965036667" lon="15.136116667">
<time>2014-07-06T11:48:49Z</time>
 <fix>none</fix>
 <sat>0</sat>
</trkpt>
<trkpt lat="60.965036667" lon="15.136116667">
<time>2014-07-06T11:48:50Z</time>
 <fix>none</fix>
 <sat>0</sat>
</trkpt>
<trkpt lat="60.965036667" lon="15.136116667">
<time>2014-07-06T11:48:51Z</time>
 <fix>none</fix>
 <sat>0</sat>
</trkpt>
<trkpt lat="60.964976667" lon="15.135988333">
<time>2014-07-06T11:48:52Z</time>
 <fix>none</fix>
 <sat>0</sat>
</trkpt>
<trkpt lat="60.964975000" lon="15.135971667">
<time>2014-07-06T11:48:53Z</time>
 <fix>none</fix>
 <sat>0</sat>
</trkpt>
<trkpt lat="60.965146667" lon="15.135916667">
<time>2014-07-06T11:48:54Z</time>
 <fix>none</fix>
 <sat>0</sat>
</trkpt>
<trkpt lat="60.965356667" lon="15.135758333">
<time>2014-07-06T11:48:55Z</time>
 <fix>none</fix>
 <sat>0</sat>
</trkpt>
<trkpt lat="60.965411667" lon="15.135723333">
<time>2014-07-06T11:48:56Z</time>
 <fix>none</fix>
 <sat>0</sat>
</trkpt>
<trkpt lat="60.965491667" lon="15.135686667">
<time>2014-07-06T11:48:57Z</time>
 <fix>none</fix>
 <sat>0</sat>
</trkpt>
<trkpt lat="60.965571667" lon="15.135626667">
<time>2014-07-06T11:48:58Z</time>
 <fix>none</fix>
 <sat>0</sat>
</trkpt>
<trkpt lat="60.965635000" lon="15.135595000">
<time>2014-07-06T11:48:59Z</time>
 <fix>none</fix>
 <sat>0</sat>
</trkpt>
<trkpt lat="60.965685000" lon="15.135571667">
<time>2014-07-06T11:49:00Z</time>
 <fix>none</fix>
 <sat>0</sat>
</trkpt>
<trkpt lat="60.965733333" lon="15.135545000">
<time>2014-07-06T11:49:01Z</time>
 <fix>none</fix>
 <sat>0</sat>
</trkpt>
<trkpt lat="60.965781667" lon="15.135536667">
<time>2014-07-06T11:49:02Z</time>
 <fix>none</fix>
 <sat>0</sat>
</trkpt>
<trkpt lat="60.965835000" lon="15.135523333">
<time>2014-07-06T11:49:03Z</time>
 <fix>none</fix>
 <sat>0</sat>
</trkpt>
<trkpt lat="60.965901667" lon="15.135498333">
<time>2014-07-06T11:49:04Z</time>
 <fix>none</fix>
 <sat>0</sat>
</trkpt>
<trkpt lat="60.965973333" lon="15.135466667">
<time>2014-07-06T11:49:05Z</time>
 <fix>none</fix>
 <sat>0</sat>
</trkpt>
<trkpt lat="60.966046667" lon="15.135436667">
<time>2014-07-06T11:49:06Z</time>
 <fix>none</fix>
 <sat>0</sat>
</trkpt>
<trkpt lat="60.966046667" lon="15.135436667">
<time>2014-07-06T11:49:07Z</time>
 <fix>none</fix>
 <sat>0</sat>
</trkpt>
<trkpt lat="60.966111667" lon="15.135411667">
<time>2014-07-06T11:49:08Z</time>
 <fix>none</fix>
 <sat>0</sat>
</trkpt>
<trkpt lat="60.966188333" lon="15.135380000">
<time>2014-07-06T11:49:09Z</time>
 <fix>none</fix>
 <sat>0</sat>
</trkpt>
<trkpt lat="60.966263333" lon="15.135351667">
<time>2014-07-06T11:49:10Z</time>
 <fix>none</fix>
 <sat>0</sat>
</trkpt>
<trkpt lat="60.966333333" lon="15.135328333">
<time>2014-07-06T11:49:11Z</time>
 <fix>none</fix>
 <sat>0</sat>
</trkpt>
<trkpt lat="60.966403333" lon="15.135305000">
<time>2014-07-06T11:49:12Z</time>
 <fix>none</fix>
 <sat>0</sat>
</trkpt>
<trkpt lat="60.966538333" lon="15.135251667">
<time>2014-07-06T11:49:13Z</time>
 <fix>none</fix>
 <sat>0</sat>
</trkpt>
<trkpt lat="60.966603333" lon="15.135228333">
<time>2014-07-06T11:49:14Z</time>
 <fix>none</fix>
 <sat>0</sat>
</trkpt>
<trkpt lat="60.966670000" lon="15.135211667">
<time>2014-07-06T11:49:15Z</time>
 <fix>none</fix>
 <sat>0</sat>
</trkpt>
<trkpt lat="60.966735000" lon="15.135196667">
<time>2014-07-06T11:49:16Z</time>
 <fix>none</fix>
 <sat>0</sat>
</trkpt>
<trkpt lat="60.966735000" lon="15.135196667">
<time>2014-07-06T11:49:17Z</time>
 <fix>none</fix>
 <sat>0</sat>
</trkpt>
<trkpt lat="60.966866667" lon="15.135150000">
<time>2014-07-06T11:49:18Z</time>
 <fix>none</fix>
 <sat>0</sat>
</trkpt>
<trkpt lat="60.966866667" lon="15.135150000">
<time>2014-07-06T11:49:19Z</time>
 <fix>none</fix>
 <sat>0</sat>
</trkpt>
<trkpt lat="60.966866667" lon="15.135150000">
<time>2014-07-06T11:49:20Z</time>
 <fix>none</fix>
 <sat>0</sat>
</trkpt>
<trkpt lat="60.967046667" lon="15.135063333">
<time>2014-07-06T11:49:21Z</time>
 <fix>none</fix>
 <sat>0</sat>
</trkpt>
<trkpt lat="60.967046667" lon="15.135063333">
<time>2014-07-06T11:49:22Z</time>
 <fix>none</fix>
 <sat>0</sat>
</trkpt>
<trkpt lat="60.967158333" lon="15.134970000">
<time>2014-07-06T11:49:23Z</time>
 <fix>none</fix>
 <sat>0</sat>
</trkpt>
<trkpt lat="60.967158333" lon="15.134970000">
<time>2014-07-06T11:49:24Z</time>
 <fix>none</fix>
 <sat>0</sat>
</trkpt>
<trkpt lat="60.967255000" lon="15.134850000">
<time>2014-07-06T11:49:25Z</time>
 <fix>none</fix>
 <sat>0</sat>
</trkpt>
<trkpt lat="60.967255000" lon="15.134850000">
<time>2014-07-06T11:49:26Z</time>
 <fix>none</fix>
 <sat>0</sat>
</trkpt>
<trkpt lat="60.967351667" lon="15.134701667">
<time>2014-07-06T11:49:27Z</time>
 <fix>none</fix>
 <sat>0</sat>
</trkpt>
<trkpt lat="60.967393333" lon="15.134628333">
<time>2014-07-06T11:49:28Z</time>
 <fix>none</fix>
 <sat>0</sat>
</trkpt>
<trkpt lat="60.967440000" lon="15.134536667">
<time>2014-07-06T11:49:29Z</time>
 <fix>none</fix>
 <sat>0</sat>
</trkpt>
<trkpt lat="60.967440000" lon="15.134536667">
<time>2014-07-06T11:49:30Z</time>
 <fix>none</fix>
 <sat>0</sat>
</trkpt>
<trkpt lat="60.967465000" lon="15.134473333">
<time>2014-07-06T11:49:31Z</time>
 <fix>none</fix>
 <sat>0</sat>
</trkpt>
<trkpt lat="60.967490000" lon="15.134421667">
<time>2014-07-06T11:49:32Z</time>
 <fix>none</fix>
 <sat>0</sat>
</trkpt>
<trkpt lat="60.967540000" lon="15.134346667">
<time>2014-07-06T11:49:33Z</time>
 <fix>none</fix>
 <sat>0</sat>
</trkpt>
<trkpt lat="60.967595000" lon="15.134271667">
<time>2014-07-06T11:49:34Z</time>
 <fix>none</fix>
 <sat>0</sat>
</trkpt>
<trkpt lat="60.967650000" lon="15.134206667">
<time>2014-07-06T11:49:35Z</time>
 <fix>none</fix>
 <sat>0</sat>
</trkpt>
<trkpt lat="60.967763333" lon="15.134085000">
<time>2014-07-06T11:49:36Z</time>
 <fix>none</fix>
 <sat>0</sat>
</trkpt>
<trkpt lat="60.967763333" lon="15.134085000">
<time>2014-07-06T11:49:37Z</time>
 <fix>none</fix>
 <sat>0</sat>
</trkpt>
<trkpt lat="60.967876667" lon="15.134018333">
<time>2014-07-06T11:49:38Z</time>
 <fix>none</fix>
 <sat>0</sat>
</trkpt>
<trkpt lat="60.967935000" lon="15.133995000">
<time>2014-07-06T11:49:39Z</time>
 <fix>none</fix>
 <sat>0</sat>
</trkpt>
<trkpt lat="60.967991667" lon="15.133975000">
<time>2014-07-06T11:49:40Z</time>
 <fix>none</fix>
 <sat>0</sat>
</trkpt>
<trkpt lat="60.968046667" lon="15.133966667">
<time>2014-07-06T11:49:41Z</time>
 <fix>none</fix>
 <sat>0</sat>
</trkpt>
<trkpt lat="60.968046667" lon="15.133966667">
<time>2014-07-06T11:49:42Z</time>
 <fix>none</fix>
 <sat>0</sat>
</trkpt>
<trkpt lat="60.968046667" lon="15.133966667">
<time>2014-07-06T11:49:43Z</time>
 <fix>none</fix>
 <sat>0</sat>
</trkpt>
<trkpt lat="60.968201667" lon="15.133943333">
<time>2014-07-06T11:49:44Z</time>
 <fix>none</fix>
 <sat>0</sat>
</trkpt>
<trkpt lat="60.968201667" lon="15.133943333">
<time>2014-07-06T11:49:45Z</time>
 <fix>none</fix>
 <sat>0</sat>
</trkpt>
<trkpt lat="60.968310000" lon="15.133961667">
<time>2014-07-06T11:49:46Z</time>
 <fix>none</fix>
 <sat>0</sat>
</trkpt>
<trkpt lat="60.968343333" lon="15.133971667">
<time>2014-07-06T11:49:47Z</time>
 <fix>none</fix>
 <sat>0</sat>
</trkpt>
<trkpt lat="60.968398333" lon="15.133995000">
<time>2014-07-06T11:49:48Z</time>
 <fix>none</fix>
 <sat>0</sat>
</trkpt>
<trkpt lat="60.968438333" lon="15.134020000">
<time>2014-07-06T11:49:49Z</time>
 <fix>none</fix>
 <sat>0</sat>
</trkpt>
<trkpt lat="60.968475000" lon="15.134046667">
<time>2014-07-06T11:49:50Z</time>
 <fix>none</fix>
 <sat>0</sat>
</trkpt>
<trkpt lat="60.968523333" lon="15.134036667">
<time>2014-07-06T11:49:51Z</time>
 <fix>none</fix>
 <sat>0</sat>
</trkpt>
<trkpt lat="60.968523333" lon="15.134036667">
<time>2014-07-06T11:49:52Z</time>
 <fix>none</fix>
 <sat>0</sat>
</trkpt>
<trkpt lat="60.968568333" lon="15.134033333">
<time>2014-07-06T11:49:53Z</time>
 <fix>none</fix>
 <sat>0</sat>
</trkpt>
<trkpt lat="60.968615000" lon="15.134020000">
<time>2014-07-06T11:49:54Z</time>
 <fix>none</fix>
 <sat>0</sat>
</trkpt>
<trkpt lat="60.968665000" lon="15.133990000">
<time>2014-07-06T11:49:55Z</time>
 <fix>none</fix>
 <sat>0</sat>
</trkpt>
<trkpt lat="60.968716667" lon="15.133955000">
<time>2014-07-06T11:49:56Z</time>
 <fix>none</fix>
 <sat>0</sat>
</trkpt>
<trkpt lat="60.968761667" lon="15.133916667">
<time>2014-07-06T11:49:57Z</time>
 <fix>none</fix>
 <sat>0</sat>
</trkpt>
<trkpt lat="60.968846667" lon="15.133830000">
<time>2014-07-06T11:49:58Z</time>
 <fix>none</fix>
 <sat>0</sat>
</trkpt>
<trkpt lat="60.968881667" lon="15.133795000">
<time>2014-07-06T11:49:59Z</time>
 <fix>none</fix>
 <sat>0</sat>
</trkpt>
<trkpt lat="60.968916667" lon="15.133761667">
<time>2014-07-06T11:50:00Z</time>
 <fix>none</fix>
 <sat>0</sat>
</trkpt>
<trkpt lat="60.968955000" lon="15.133723333">
<time>2014-07-06T11:50:01Z</time>
 <fix>none</fix>
 <sat>0</sat>
</trkpt>
<trkpt lat="60.968995000" lon="15.133671667">
<time>2014-07-06T11:50:02Z</time>
 <fix>none</fix>
 <sat>0</sat>
</trkpt>
<trkpt lat="60.968995000" lon="15.133671667">
<time>2014-07-06T11:50:03Z</time>
 <fix>none</fix>
 <sat>0</sat>
</trkpt>
<trkpt lat="60.968995000" lon="15.133671667">
<time>2014-07-06T11:50:04Z</time>
 <fix>none</fix>
 <sat>0</sat>
</trkpt>
<trkpt lat="60.969098333" lon="15.133531667">
<time>2014-07-06T11:50:05Z</time>
 <fix>none</fix>
 <sat>0</sat>
</trkpt>
<trkpt lat="60.969098333" lon="15.133531667">
<time>2014-07-06T11:50:06Z</time>
 <fix>none</fix>
 <sat>0</sat>
</trkpt>
<trkpt lat="60.969140000" lon="15.133490000">
<time>2014-07-06T11:50:07Z</time>
 <fix>none</fix>
 <sat>0</sat>
</trkpt>
<trkpt lat="60.969140000" lon="15.133490000">
<time>2014-07-06T11:50:08Z</time>
 <fix>none</fix>
 <sat>0</sat>
</trkpt>
<trkpt lat="60.969161667" lon="15.133446667">
<time>2014-07-06T11:50:09Z</time>
 <fix>none</fix>
 <sat>0</sat>
</trkpt>
<trkpt lat="60.969161667" lon="15.133446667">
<time>2014-07-06T11:50:10Z</time>
 <fix>none</fix>
 <sat>0</sat>
</trkpt>
<trkpt lat="60.969168333" lon="15.133408333">
<time>2014-07-06T11:50:11Z</time>
 <fix>none</fix>
 <sat>0</sat>
</trkpt>
<trkpt lat="60.969168333" lon="15.133408333">
<time>2014-07-06T11:50:12Z</time>
 <fix>none</fix>
 <sat>0</sat>
</trkpt>
<trkpt lat="60.969180000" lon="15.133378333">
<time>2014-07-06T11:50:13Z</time>
 <fix>none</fix>
 <sat>0</sat>
</trkpt>
<trkpt lat="60.969180000" lon="15.133378333">
<time>2014-07-06T11:50:14Z</time>
 <fix>none</fix>
 <sat>0</sat>
</trkpt>
<trkpt lat="60.969190000" lon="15.133355000">
<time>2014-07-06T11:50:15Z</time>
 <fix>none</fix>
 <sat>0</sat>
</trkpt>
<trkpt lat="60.969190000" lon="15.133355000">
<time>2014-07-06T11:50:16Z</time>
 <fix>none</fix>
 <sat>0</sat>
</trkpt>
<trkpt lat="60.969186667" lon="15.133206667">
<time>2014-07-06T11:50:17Z</time>
 <fix>none</fix>
 <sat>0</sat>
</trkpt>
<trkpt lat="60.969186667" lon="15.133206667">
<time>2014-07-06T11:50:18Z</time>
 <fix>none</fix>
 <sat>0</sat>
</trkpt>
<trkpt lat="60.969136667" lon="15.133066667">
<time>2014-07-06T11:50:19Z</time>
 <fix>none</fix>
 <sat>0</sat>
</trkpt>
<trkpt lat="60.969136667" lon="15.133066667">
<time>2014-07-06T11:50:20Z</time>
 <fix>none</fix>
 <sat>0</sat>
</trkpt>
<trkpt lat="60.969061667" lon="15.132886667">
<time>2014-07-06T11:50:21Z</time>
 <fix>none</fix>
 <sat>0</sat>
</trkpt>
<trkpt lat="60.969061667" lon="15.132886667">
<time>2014-07-06T11:50:22Z</time>
 <fix>none</fix>
 <sat>0</sat>
</trkpt>
<trkpt lat="60.968953333" lon="15.132621667">
<time>2014-07-06T11:50:23Z</time>
 <fix>none</fix>
 <sat>0</sat>
</trkpt>
<trkpt lat="60.968953333" lon="15.132621667">
<time>2014-07-06T11:50:24Z</time>
 <fix>none</fix>
 <sat>0</sat>
</trkpt>
<trkpt lat="60.968853333" lon="15.132405000">
<time>2014-07-06T11:50:25Z</time>
 <fix>none</fix>
 <sat>0</sat>
</trkpt>
<trkpt lat="60.968853333" lon="15.132405000">
<time>2014-07-06T11:50:26Z</time>
 <fix>none</fix>
 <sat>0</sat>
</trkpt>
<trkpt lat="60.968735000" lon="15.132115000">
<time>2014-07-06T11:50:27Z</time>
 <fix>none</fix>
 <sat>0</sat>
</trkpt>
<trkpt lat="60.968735000" lon="15.132115000">
<time>2014-07-06T11:50:28Z</time>
 <fix>none</fix>
 <sat>0</sat>
</trkpt>
<trkpt lat="60.968620000" lon="15.131785000">
<time>2014-07-06T11:50:29Z</time>
 <fix>none</fix>
 <sat>0</sat>
</trkpt>
<trkpt lat="60.968620000" lon="15.131785000">
<time>2014-07-06T11:50:30Z</time>
 <fix>none</fix>
 <sat>0</sat>
</trkpt>
<trkpt lat="60.968503333" lon="15.131466667">
<time>2014-07-06T11:50:31Z</time>
 <fix>none</fix>
 <sat>0</sat>
</trkpt>
<trkpt lat="60.968503333" lon="15.131466667">
<time>2014-07-06T11:50:32Z</time>
 <fix>none</fix>
 <sat>0</sat>
</trkpt>
<trkpt lat="60.968418333" lon="15.131135000">
<time>2014-07-06T11:50:33Z</time>
 <fix>none</fix>
 <sat>0</sat>
</trkpt>
<trkpt lat="60.968418333" lon="15.131135000">
<time>2014-07-06T11:50:34Z</time>
 <fix>none</fix>
 <sat>0</sat>
</trkpt>
<trkpt lat="60.968375000" lon="15.130861667">
<time>2014-07-06T11:50:35Z</time>
 <fix>none</fix>
 <sat>0</sat>
</trkpt>
<trkpt lat="60.968375000" lon="15.130861667">
<time>2014-07-06T11:50:36Z</time>
 <fix>none</fix>
 <sat>0</sat>
</trkpt>
<trkpt lat="60.968325000" lon="15.130413333">
<time>2014-07-06T11:50:37Z</time>
 <fix>none</fix>
 <sat>0</sat>
</trkpt>
<trkpt lat="60.968325000" lon="15.130413333">
<time>2014-07-06T11:50:38Z</time>
 <fix>none</fix>
 <sat>0</sat>
</trkpt>
<trkpt lat="60.968316667" lon="15.130010000">
<time>2014-07-06T11:50:39Z</time>
 <fix>none</fix>
 <sat>0</sat>
</trkpt>
<trkpt lat="60.968316667" lon="15.130010000">
<time>2014-07-06T11:50:40Z</time>
 <fix>none</fix>
 <sat>0</sat>
</trkpt>
<trkpt lat="60.968315000" lon="15.129603333">
<time>2014-07-06T11:50:41Z</time>
 <fix>none</fix>
 <sat>0</sat>
</trkpt>
<trkpt lat="60.968315000" lon="15.129603333">
<time>2014-07-06T11:50:42Z</time>
 <fix>none</fix>
 <sat>0</sat>
</trkpt>
<trkpt lat="60.968358333" lon="15.129221667">
<time>2014-07-06T11:50:43Z</time>
 <fix>none</fix>
 <sat>0</sat>
</trkpt>
<trkpt lat="60.968358333" lon="15.129221667">
<time>2014-07-06T11:50:44Z</time>
 <fix>none</fix>
 <sat>0</sat>
</trkpt>
<trkpt lat="60.968358333" lon="15.129221667">
<time>2014-07-06T11:50:45Z</time>
 <fix>none</fix>
 <sat>0</sat>
</trkpt>
<trkpt lat="60.968435000" lon="15.128675000">
<time>2014-07-06T11:50:46Z</time>
 <fix>none</fix>
 <sat>0</sat>
</trkpt>
<trkpt lat="60.968491667" lon="15.128480000">
<time>2014-07-06T11:50:47Z</time>
 <fix>none</fix>
 <sat>0</sat>
</trkpt>
<trkpt lat="60.968516667" lon="15.128296667">
<time>2014-07-06T11:50:48Z</time>
 <fix>none</fix>
 <sat>0</sat>
</trkpt>
<trkpt lat="60.968551667" lon="15.128123333">
<time>2014-07-06T11:50:49Z</time>
 <fix>none</fix>
 <sat>0</sat>
</trkpt>
<trkpt lat="60.968586667" lon="15.127955000">
<time>2014-07-06T11:50:50Z</time>
 <fix>none</fix>
 <sat>0</sat>
</trkpt>
<trkpt lat="60.968621667" lon="15.127780000">
<time>2014-07-06T11:50:51Z</time>
 <fix>none</fix>
 <sat>0</sat>
</trkpt>
<trkpt lat="60.968638333" lon="15.127626667">
<time>2014-07-06T11:50:52Z</time>
 <fix>none</fix>
 <sat>0</sat>
</trkpt>
<trkpt lat="60.968655000" lon="15.127443333">
<time>2014-07-06T11:50:53Z</time>
 <fix>none</fix>
 <sat>0</sat>
</trkpt>
<trkpt lat="60.968661667" lon="15.127251667">
<time>2014-07-06T11:50:54Z</time>
 <fix>none</fix>
 <sat>0</sat>
</trkpt>
<trkpt lat="60.968640000" lon="15.127083333">
<time>2014-07-06T11:50:55Z</time>
 <fix>none</fix>
 <sat>0</sat>
</trkpt>
<trkpt lat="60.968601667" lon="15.126921667">
<time>2014-07-06T11:50:56Z</time>
 <fix>none</fix>
 <sat>0</sat>
</trkpt>
<trkpt lat="60.968535000" lon="15.126791667">
<time>2014-07-06T11:50:57Z</time>
 <fix>none</fix>
 <sat>0</sat>
</trkpt>
<trkpt lat="60.968481667" lon="15.126650000">
<time>2014-07-06T11:50:58Z</time>
 <fix>none</fix>
 <sat>0</sat>
</trkpt>
<trkpt lat="60.968428333" lon="15.126505000">
<time>2014-07-06T11:50:59Z</time>
 <fix>none</fix>
 <sat>0</sat>
</trkpt>
<trkpt lat="60.968363333" lon="15.126373333">
<time>2014-07-06T11:51:00Z</time>
 <fix>none</fix>
 <sat>0</sat>
</trkpt>
<trkpt lat="60.968363333" lon="15.126373333">
<time>2014-07-06T11:51:01Z</time>
 <fix>none</fix>
 <sat>0</sat>
</trkpt>
<trkpt lat="60.968293333" lon="15.126263333">
<time>2014-07-06T11:51:02Z</time>
 <fix>none</fix>
 <sat>0</sat>
</trkpt>
<trkpt lat="60.968216667" lon="15.126155000">
<time>2014-07-06T11:51:03Z</time>
 <fix>none</fix>
 <sat>0</sat>
</trkpt>
<trkpt lat="60.968130000" lon="15.126063333">
<time>2014-07-06T11:51:04Z</time>
 <fix>none</fix>
 <sat>0</sat>
</trkpt>
<trkpt lat="60.968058333" lon="15.125958333">
<time>2014-07-06T11:51:05Z</time>
 <fix>none</fix>
 <sat>0</sat>
</trkpt>
<trkpt lat="60.967978333" lon="15.125880000">
<time>2014-07-06T11:51:06Z</time>
 <fix>none</fix>
 <sat>0</sat>
</trkpt>
<trkpt lat="60.967890000" lon="15.125805000">
<time>2014-07-06T11:51:07Z</time>
 <fix>none</fix>
 <sat>0</sat>
</trkpt>
<trkpt lat="60.967800000" lon="15.125735000">
<time>2014-07-06T11:51:08Z</time>
 <fix>none</fix>
 <sat>0</sat>
</trkpt>
<trkpt lat="60.967708333" lon="15.125663333">
<time>2014-07-06T11:51:09Z</time>
 <fix>none</fix>
 <sat>0</sat>
</trkpt>
<trkpt lat="60.967530000" lon="15.125495000">
<time>2014-07-06T11:51:10Z</time>
 <fix>none</fix>
 <sat>0</sat>
</trkpt>
<trkpt lat="60.967451667" lon="15.125385000">
<time>2014-07-06T11:51:11Z</time>
 <fix>none</fix>
 <sat>0</sat>
</trkpt>
<trkpt lat="60.967381667" lon="15.125256667">
<time>2014-07-06T11:51:12Z</time>
 <fix>none</fix>
 <sat>0</sat>
</trkpt>
<trkpt lat="60.967310000" lon="15.125128333">
<time>2014-07-06T11:51:13Z</time>
 <fix>none</fix>
 <sat>0</sat>
</trkpt>
<trkpt lat="60.967246667" lon="15.124985000">
<time>2014-07-06T11:51:14Z</time>
 <fix>none</fix>
 <sat>0</sat>
</trkpt>
<trkpt lat="60.967190000" lon="15.124836667">
<time>2014-07-06T11:51:15Z</time>
 <fix>none</fix>
 <sat>0</sat>
</trkpt>
<trkpt lat="60.967140000" lon="15.124678333">
<time>2014-07-06T11:51:16Z</time>
 <fix>none</fix>
 <sat>0</sat>
</trkpt>
<trkpt lat="60.967091667" lon="15.124521667">
<time>2014-07-06T11:51:17Z</time>
 <fix>none</fix>
 <sat>0</sat>
</trkpt>
<trkpt lat="60.967040000" lon="15.124375000">
<time>2014-07-06T11:51:18Z</time>
 <fix>none</fix>
 <sat>0</sat>
</trkpt>
<trkpt lat="60.966988333" lon="15.124233333">
<time>2014-07-06T11:51:19Z</time>
 <fix>none</fix>
 <sat>0</sat>
</trkpt>
<trkpt lat="60.966930000" lon="15.124103333">
<time>2014-07-06T11:51:20Z</time>
 <fix>none</fix>
 <sat>0</sat>
</trkpt>
<trkpt lat="60.966865000" lon="15.123991667">
<time>2014-07-06T11:51:21Z</time>
 <fix>none</fix>
 <sat>0</sat>
</trkpt>
<trkpt lat="60.966795000" lon="15.123893333">
<time>2014-07-06T11:51:22Z</time>
 <fix>none</fix>
 <sat>0</sat>
</trkpt>
<trkpt lat="60.966713333" lon="15.123825000">
<time>2014-07-06T11:51:23Z</time>
 <fix>none</fix>
 <sat>0</sat>
</trkpt>
<trkpt lat="60.966713333" lon="15.123825000">
<time>2014-07-06T11:51:24Z</time>
 <fix>none</fix>
 <sat>0</sat>
</trkpt>
<trkpt lat="60.966713333" lon="15.123825000">
<time>2014-07-06T11:51:25Z</time>
 <fix>none</fix>
 <sat>0</sat>
</trkpt>
<trkpt lat="60.966480000" lon="15.123663333">
<time>2014-07-06T11:51:26Z</time>
 <fix>none</fix>
 <sat>0</sat>
</trkpt>
<trkpt lat="60.966480000" lon="15.123663333">
<time>2014-07-06T11:51:27Z</time>
 <fix>none</fix>
 <sat>0</sat>
</trkpt>
<trkpt lat="60.966318333" lon="15.123605000">
<time>2014-07-06T11:51:28Z</time>
 <fix>none</fix>
 <sat>0</sat>
</trkpt>
<trkpt lat="60.966235000" lon="15.123608333">
<time>2014-07-06T11:51:29Z</time>
 <fix>none</fix>
 <sat>0</sat>
</trkpt>
<trkpt lat="60.966235000" lon="15.123608333">
<time>2014-07-06T11:51:30Z</time>
 <fix>none</fix>
 <sat>0</sat>
</trkpt>
<trkpt lat="60.966136667" lon="15.123648333">
<time>2014-07-06T11:51:31Z</time>
 <fix>none</fix>
 <sat>0</sat>
</trkpt>
<trkpt lat="60.965946667" lon="15.123680000">
<time>2014-07-06T11:51:32Z</time>
 <fix>none</fix>
 <sat>0</sat>
</trkpt>
<trkpt lat="60.965845000" lon="15.123711667">
<time>2014-07-06T11:51:33Z</time>
 <fix>none</fix>
 <sat>0</sat>
</trkpt>
<trkpt lat="60.965730000" lon="15.123698333">
<time>2014-07-06T11:51:34Z</time>
 <fix>none</fix>
 <sat>0</sat>
</trkpt>
<trkpt lat="60.965626667" lon="15.123666667">
<time>2014-07-06T11:51:35Z</time>
 <fix>none</fix>
 <sat>0</sat>
</trkpt>
<trkpt lat="60.965540000" lon="15.123560000">
<time>2014-07-06T11:51:36Z</time>
 <fix>none</fix>
 <sat>0</sat>
</trkpt>
<trkpt lat="60.965473333" lon="15.123451667">
<time>2014-07-06T11:51:37Z</time>
 <fix>none</fix>
 <sat>0</sat>
</trkpt>
<trkpt lat="60.965403333" lon="15.123365000">
<time>2014-07-06T11:51:38Z</time>
 <fix>none</fix>
 <sat>0</sat>
</trkpt>
<trkpt lat="60.965320000" lon="15.123316667">
<time>2014-07-06T11:51:39Z</time>
 <fix>none</fix>
 <sat>0</sat>
</trkpt>
<trkpt lat="60.965251667" lon="15.123231667">
<time>2014-07-06T11:51:40Z</time>
 <fix>none</fix>
 <sat>0</sat>
</trkpt>
<trkpt lat="60.965185000" lon="15.123135000">
<time>2014-07-06T11:51:41Z</time>
 <fix>none</fix>
 <sat>0</sat>
</trkpt>
<trkpt lat="60.965120000" lon="15.123038333">
<time>2014-07-06T11:51:42Z</time>
 <fix>none</fix>
 <sat>0</sat>
</trkpt>
<trkpt lat="60.965080000" lon="15.122875000">
<time>2014-07-06T11:51:43Z</time>
 <fix>none</fix>
 <sat>0</sat>
</trkpt>
<trkpt lat="60.965043333" lon="15.122703333">
<time>2014-07-06T11:51:44Z</time>
 <fix>none</fix>
 <sat>0</sat>
</trkpt>
<trkpt lat="60.965001667" lon="15.122510000">
<time>2014-07-06T11:51:45Z</time>
 <fix>none</fix>
 <sat>0</sat>
</trkpt>
<trkpt lat="60.965001667" lon="15.122510000">
<time>2014-07-06T11:51:46Z</time>
 <fix>none</fix>
 <sat>0</sat>
</trkpt>
<trkpt lat="60.964950000" lon="15.122338333">
<time>2014-07-06T11:51:47Z</time>
 <fix>none</fix>
 <sat>0</sat>
</trkpt>
<trkpt lat="60.964895000" lon="15.122155000">
<time>2014-07-06T11:51:48Z</time>
 <fix>none</fix>
 <sat>0</sat>
</trkpt>
<trkpt lat="60.964858333" lon="15.121943333">
<time>2014-07-06T11:51:49Z</time>
 <fix>none</fix>
 <sat>0</sat>
</trkpt>
<trkpt lat="60.964790000" lon="15.121763333">
<time>2014-07-06T11:51:50Z</time>
 <fix>none</fix>
 <sat>0</sat>
</trkpt>
<trkpt lat="60.964696667" lon="15.121626667">
<time>2014-07-06T11:51:51Z</time>
 <fix>none</fix>
 <sat>0</sat>
</trkpt>
<trkpt lat="60.964471667" lon="15.121191667">
<time>2014-07-06T11:51:52Z</time>
 <fix>none</fix>
 <sat>0</sat>
</trkpt>
<trkpt lat="60.964471667" lon="15.121191667">
<time>2014-07-06T11:51:53Z</time>
 <fix>none</fix>
 <sat>0</sat>
</trkpt>
<trkpt lat="60.964471667" lon="15.121191667">
<time>2014-07-06T11:51:54Z</time>
 <fix>none</fix>
 <sat>0</sat>
</trkpt>
<trkpt lat="60.964291667" lon="15.121021667">
<time>2014-07-06T11:51:55Z</time>
 <fix>none</fix>
 <sat>0</sat>
</trkpt>
<trkpt lat="60.964291667" lon="15.121021667">
<time>2014-07-06T11:51:56Z</time>
 <fix>none</fix>
 <sat>0</sat>
</trkpt>
<trkpt lat="60.964030000" lon="15.120875000">
<time>2014-07-06T11:51:57Z</time>
 <fix>none</fix>
 <sat>0</sat>
</trkpt>
<trkpt lat="60.964030000" lon="15.120875000">
<time>2014-07-06T11:51:58Z</time>
 <fix>none</fix>
 <sat>0</sat>
</trkpt>
<trkpt lat="60.963900000" lon="15.120620000">
<time>2014-07-06T11:51:59Z</time>
 <fix>none</fix>
 <sat>0</sat>
</trkpt>
<trkpt lat="60.963900000" lon="15.120620000">
<time>2014-07-06T11:52:00Z</time>
 <fix>none</fix>
 <sat>0</sat>
</trkpt>
<trkpt lat="60.963805000" lon="15.120313333">
<time>2014-07-06T11:52:01Z</time>
 <fix>none</fix>
 <sat>0</sat>
</trkpt>
<trkpt lat="60.963805000" lon="15.120313333">
<time>2014-07-06T11:52:02Z</time>
 <fix>none</fix>
 <sat>0</sat>
</trkpt>
<trkpt lat="60.963703333" lon="15.119975000">
<time>2014-07-06T11:52:03Z</time>
 <fix>none</fix>
 <sat>0</sat>
</trkpt>
<trkpt lat="60.963703333" lon="15.119975000">
<time>2014-07-06T11:52:04Z</time>
 <fix>none</fix>
 <sat>0</sat>
</trkpt>
<trkpt lat="60.963586667" lon="15.119638333">
<time>2014-07-06T11:52:05Z</time>
 <fix>none</fix>
 <sat>0</sat>
</trkpt>
<trkpt lat="60.963586667" lon="15.119638333">
<time>2014-07-06T11:52:06Z</time>
 <fix>none</fix>
 <sat>0</sat>
</trkpt>
<trkpt lat="60.963471667" lon="15.119280000">
<time>2014-07-06T11:52:07Z</time>
 <fix>none</fix>
 <sat>0</sat>
</trkpt>
<trkpt lat="60.963471667" lon="15.119280000">
<time>2014-07-06T11:52:08Z</time>
 <fix>none</fix>
 <sat>0</sat>
</trkpt>
<trkpt lat="60.963396667" lon="15.118888333">
<time>2014-07-06T11:52:09Z</time>
 <fix>none</fix>
 <sat>0</sat>
</trkpt>
<trkpt lat="60.963396667" lon="15.118888333">
<time>2014-07-06T11:52:10Z</time>
 <fix>none</fix>
 <sat>0</sat>
</trkpt>
<trkpt lat="60.963313333" lon="15.118491667">
<time>2014-07-06T11:52:11Z</time>
 <fix>none</fix>
 <sat>0</sat>
</trkpt>
<trkpt lat="60.963313333" lon="15.118491667">
<time>2014-07-06T11:52:12Z</time>
 <fix>none</fix>
 <sat>0</sat>
</trkpt>
<trkpt lat="60.963296667" lon="15.118028333">
<time>2014-07-06T11:52:13Z</time>
 <fix>none</fix>
 <sat>0</sat>
</trkpt>
<trkpt lat="60.963296667" lon="15.118028333">
<time>2014-07-06T11:52:14Z</time>
 <fix>none</fix>
 <sat>0</sat>
</trkpt>
<trkpt lat="60.963288333" lon="15.117575000">
<time>2014-07-06T11:52:15Z</time>
 <fix>none</fix>
 <sat>0</sat>
</trkpt>
<trkpt lat="60.963288333" lon="15.117575000">
<time>2014-07-06T11:52:16Z</time>
 <fix>none</fix>
 <sat>0</sat>
</trkpt>
<trkpt lat="60.963288333" lon="15.117575000">
<time>2014-07-06T11:52:17Z</time>
 <fix>none</fix>
 <sat>0</sat>
</trkpt>
<trkpt lat="60.963253333" lon="15.117025000">
<time>2014-07-06T11:52:18Z</time>
 <fix>none</fix>
 <sat>0</sat>
</trkpt>
<trkpt lat="60.963321667" lon="15.116706667">
<time>2014-07-06T11:52:19Z</time>
 <fix>none</fix>
 <sat>0</sat>
</trkpt>
<trkpt lat="60.963321667" lon="15.116706667">
<time>2014-07-06T11:52:20Z</time>
 <fix>none</fix>
 <sat>0</sat>
</trkpt>
<trkpt lat="60.963361667" lon="15.116405000">
<time>2014-07-06T11:52:21Z</time>
 <fix>none</fix>
 <sat>0</sat>
</trkpt>
<trkpt lat="60.963361667" lon="15.116405000">
<time>2014-07-06T11:52:22Z</time>
 <fix>none</fix>
 <sat>0</sat>
</trkpt>
<trkpt lat="60.963453333" lon="15.116055000">
<time>2014-07-06T11:52:23Z</time>
 <fix>none</fix>
 <sat>0</sat>
</trkpt>
<trkpt lat="60.963453333" lon="15.116055000">
<time>2014-07-06T11:52:24Z</time>
 <fix>none</fix>
 <sat>0</sat>
</trkpt>
<trkpt lat="60.963498333" lon="15.115678333">
<time>2014-07-06T11:52:25Z</time>
 <fix>none</fix>
 <sat>0</sat>
</trkpt>
<trkpt lat="60.963498333" lon="15.115678333">
<time>2014-07-06T11:52:26Z</time>
 <fix>none</fix>
 <sat>0</sat>
</trkpt>
<trkpt lat="60.963561667" lon="15.115281667">
<time>2014-07-06T11:52:27Z</time>
 <fix>none</fix>
 <sat>0</sat>
</trkpt>
<trkpt lat="60.963561667" lon="15.115281667">
<time>2014-07-06T11:52:28Z</time>
 <fix>none</fix>
 <sat>0</sat>
</trkpt>
<trkpt lat="60.963596667" lon="15.114923333">
<time>2014-07-06T11:52:29Z</time>
 <fix>none</fix>
 <sat>0</sat>
</trkpt>
<trkpt lat="60.963596667" lon="15.114923333">
<time>2014-07-06T11:52:30Z</time>
 <fix>none</fix>
 <sat>0</sat>
</trkpt>
<trkpt lat="60.963668333" lon="15.114545000">
<time>2014-07-06T11:52:31Z</time>
 <fix>none</fix>
 <sat>0</sat>
</trkpt>
<trkpt lat="60.963668333" lon="15.114545000">
<time>2014-07-06T11:52:32Z</time>
 <fix>none</fix>
 <sat>0</sat>
</trkpt>
<trkpt lat="60.963700000" lon="15.114188333">
<time>2014-07-06T11:52:33Z</time>
 <fix>none</fix>
 <sat>0</sat>
</trkpt>
<trkpt lat="60.963700000" lon="15.114188333">
<time>2014-07-06T11:52:34Z</time>
 <fix>none</fix>
 <sat>0</sat>
</trkpt>
<trkpt lat="60.963728333" lon="15.113816667">
<time>2014-07-06T11:52:35Z</time>
 <fix>none</fix>
 <sat>0</sat>
</trkpt>
<trkpt lat="60.963728333" lon="15.113816667">
<time>2014-07-06T11:52:36Z</time>
 <fix>none</fix>
 <sat>0</sat>
</trkpt>
<trkpt lat="60.963775000" lon="15.113416667">
<time>2014-07-06T11:52:37Z</time>
 <fix>none</fix>
 <sat>0</sat>
</trkpt>
<trkpt lat="60.963775000" lon="15.113416667">
<time>2014-07-06T11:52:38Z</time>
 <fix>none</fix>
 <sat>0</sat>
</trkpt>
<trkpt lat="60.963751667" lon="15.113023333">
<time>2014-07-06T11:52:39Z</time>
 <fix>none</fix>
 <sat>0</sat>
</trkpt>
<trkpt lat="60.963751667" lon="15.113023333">
<time>2014-07-06T11:52:40Z</time>
 <fix>none</fix>
 <sat>0</sat>
</trkpt>
<trkpt lat="60.963711667" lon="15.112646667">
<time>2014-07-06T11:52:41Z</time>
 <fix>none</fix>
 <sat>0</sat>
</trkpt>
<trkpt lat="60.963711667" lon="15.112646667">
<time>2014-07-06T11:52:42Z</time>
 <fix>none</fix>
 <sat>0</sat>
</trkpt>
<trkpt lat="60.963645000" lon="15.112243333">
<time>2014-07-06T11:52:43Z</time>
 <fix>none</fix>
 <sat>0</sat>
</trkpt>
<trkpt lat="60.963645000" lon="15.112243333">
<time>2014-07-06T11:52:44Z</time>
 <fix>none</fix>
 <sat>0</sat>
</trkpt>
<trkpt lat="60.963531667" lon="15.111880000">
<time>2014-07-06T11:52:45Z</time>
 <fix>none</fix>
 <sat>0</sat>
</trkpt>
<trkpt lat="60.963531667" lon="15.111880000">
<time>2014-07-06T11:52:46Z</time>
 <fix>none</fix>
 <sat>0</sat>
</trkpt>
<trkpt lat="60.963405000" lon="15.111513333">
<time>2014-07-06T11:52:47Z</time>
 <fix>none</fix>
 <sat>0</sat>
</trkpt>
<trkpt lat="60.963405000" lon="15.111513333">
<time>2014-07-06T11:52:48Z</time>
 <fix>none</fix>
 <sat>0</sat>
</trkpt>
<trkpt lat="60.963303333" lon="15.111136667">
<time>2014-07-06T11:52:49Z</time>
 <fix>none</fix>
 <sat>0</sat>
</trkpt>
<trkpt lat="60.963303333" lon="15.111136667">
<time>2014-07-06T11:52:50Z</time>
 <fix>none</fix>
 <sat>0</sat>
</trkpt>
<trkpt lat="60.963180000" lon="15.110761667">
<time>2014-07-06T11:52:51Z</time>
 <fix>none</fix>
 <sat>0</sat>
</trkpt>
<trkpt lat="60.963180000" lon="15.110761667">
<time>2014-07-06T11:52:52Z</time>
 <fix>none</fix>
 <sat>0</sat>
</trkpt>
<trkpt lat="60.963095000" lon="15.110371667">
<time>2014-07-06T11:52:53Z</time>
 <fix>none</fix>
 <sat>0</sat>
</trkpt>
<trkpt lat="60.963095000" lon="15.110371667">
<time>2014-07-06T11:52:54Z</time>
 <fix>none</fix>
 <sat>0</sat>
</trkpt>
<trkpt lat="60.963011667" lon="15.109973333">
<time>2014-07-06T11:52:55Z</time>
 <fix>none</fix>
 <sat>0</sat>
</trkpt>
<trkpt lat="60.963011667" lon="15.109973333">
<time>2014-07-06T11:52:56Z</time>
 <fix>none</fix>
 <sat>0</sat>
</trkpt>
<trkpt lat="60.962923333" lon="15.109576667">
<time>2014-07-06T11:52:57Z</time>
 <fix>none</fix>
 <sat>0</sat>
</trkpt>
<trkpt lat="60.962923333" lon="15.109576667">
<time>2014-07-06T11:52:58Z</time>
 <fix>none</fix>
 <sat>0</sat>
</trkpt>
<trkpt lat="60.962806667" lon="15.109211667">
<time>2014-07-06T11:52:59Z</time>
 <fix>none</fix>
 <sat>0</sat>
</trkpt>
<trkpt lat="60.962806667" lon="15.109211667">
<time>2014-07-06T11:53:00Z</time>
 <fix>none</fix>
 <sat>0</sat>
</trkpt>
<trkpt lat="60.962711667" lon="15.108821667">
<time>2014-07-06T11:53:01Z</time>
 <fix>none</fix>
 <sat>0</sat>
</trkpt>
<trkpt lat="60.962711667" lon="15.108821667">
<time>2014-07-06T11:53:02Z</time>
 <fix>none</fix>
 <sat>0</sat>
</trkpt>
<trkpt lat="60.962655000" lon="15.108486667">
<time>2014-07-06T11:53:03Z</time>
 <fix>none</fix>
 <sat>0</sat>
</trkpt>
<trkpt lat="60.962655000" lon="15.108486667">
<time>2014-07-06T11:53:04Z</time>
 <fix>none</fix>
 <sat>0</sat>
</trkpt>
<trkpt lat="60.962575000" lon="15.108080000">
<time>2014-07-06T11:53:05Z</time>
 <fix>none</fix>
 <sat>0</sat>
</trkpt>
<trkpt lat="60.962575000" lon="15.108080000">
<time>2014-07-06T11:53:06Z</time>
 <fix>none</fix>
 <sat>0</sat>
</trkpt>
<trkpt lat="60.962631667" lon="15.107718333">
<time>2014-07-06T11:53:07Z</time>
 <fix>none</fix>
 <sat>0</sat>
</trkpt>
<trkpt lat="60.962631667" lon="15.107718333">
<time>2014-07-06T11:53:08Z</time>
 <fix>none</fix>
 <sat>0</sat>
</trkpt>
<trkpt lat="60.962660000" lon="15.107350000">
<time>2014-07-06T11:53:09Z</time>
 <fix>none</fix>
 <sat>0</sat>
</trkpt>
<trkpt lat="60.962660000" lon="15.107350000">
<time>2014-07-06T11:53:10Z</time>
 <fix>none</fix>
 <sat>0</sat>
</trkpt>
<trkpt lat="60.962728333" lon="15.106921667">
<time>2014-07-06T11:53:11Z</time>
 <fix>none</fix>
 <sat>0</sat>
</trkpt>
<trkpt lat="60.962728333" lon="15.106921667">
<time>2014-07-06T11:53:12Z</time>
 <fix>none</fix>
 <sat>0</sat>
</trkpt>
<trkpt lat="60.962715000" lon="15.106578333">
<time>2014-07-06T11:53:13Z</time>
 <fix>none</fix>
 <sat>0</sat>
</trkpt>
<trkpt lat="60.962715000" lon="15.106578333">
<time>2014-07-06T11:53:14Z</time>
 <fix>none</fix>
 <sat>0</sat>
</trkpt>
<trkpt lat="60.962766667" lon="15.106305000">
<time>2014-07-06T11:53:15Z</time>
 <fix>none</fix>
 <sat>0</sat>
</trkpt>
<trkpt lat="60.962766667" lon="15.106305000">
<time>2014-07-06T11:53:16Z</time>
 <fix>none</fix>
 <sat>0</sat>
</trkpt>
<trkpt lat="60.962796667" lon="15.105966667">
<time>2014-07-06T11:53:17Z</time>
 <fix>none</fix>
 <sat>0</sat>
</trkpt>
<trkpt lat="60.962800000" lon="15.105933333">
<time>2014-07-06T11:53:18Z</time>
 <fix>none</fix>
 <sat>0</sat>
</trkpt>
<trkpt lat="60.962808333" lon="15.105765000">
<time>2014-07-06T11:53:19Z</time>
 <fix>none</fix>
 <sat>0</sat>
</trkpt>
<trkpt lat="60.962800000" lon="15.105473333">
<time>2014-07-06T11:53:20Z</time>
 <fix>none</fix>
 <sat>0</sat>
</trkpt>
<trkpt lat="60.962778333" lon="15.105268333">
<time>2014-07-06T11:53:21Z</time>
 <fix>none</fix>
 <sat>0</sat>
</trkpt>
<trkpt lat="60.962750000" lon="15.105070000">
<time>2014-07-06T11:53:22Z</time>
 <fix>none</fix>
 <sat>0</sat>
</trkpt>
<trkpt lat="60.962703333" lon="15.104646667">
<time>2014-07-06T11:53:23Z</time>
 <fix>none</fix>
 <sat>0</sat>
</trkpt>
<trkpt lat="60.962665000" lon="15.104465000">
<time>2014-07-06T11:53:24Z</time>
 <fix>none</fix>
 <sat>0</sat>
</trkpt>
<trkpt lat="60.962665000" lon="15.104465000">
<time>2014-07-06T11:53:25Z</time>
 <fix>none</fix>
 <sat>0</sat>
</trkpt>
<trkpt lat="60.962583333" lon="15.104118333">
<time>2014-07-06T11:53:26Z</time>
 <fix>none</fix>
 <sat>0</sat>
</trkpt>
<trkpt lat="60.962563333" lon="15.103930000">
<time>2014-07-06T11:53:27Z</time>
 <fix>none</fix>
 <sat>0</sat>
</trkpt>
<trkpt lat="60.962541667" lon="15.103748333">
<time>2014-07-06T11:53:28Z</time>
 <fix>none</fix>
 <sat>0</sat>
</trkpt>
<trkpt lat="60.962531667" lon="15.103563333">
<time>2014-07-06T11:53:29Z</time>
 <fix>none</fix>
 <sat>0</sat>
</trkpt>
<trkpt lat="60.962531667" lon="15.103378333">
<time>2014-07-06T11:53:30Z</time>
 <fix>none</fix>
 <sat>0</sat>
</trkpt>
<trkpt lat="60.962541667" lon="15.103195000">
<time>2014-07-06T11:53:31Z</time>
 <fix>none</fix>
 <sat>0</sat>
</trkpt>
<trkpt lat="60.962553333" lon="15.103011667">
<time>2014-07-06T11:53:32Z</time>
 <fix>none</fix>
 <sat>0</sat>
</trkpt>
<trkpt lat="60.962561667" lon="15.102825000">
<time>2014-07-06T11:53:33Z</time>
 <fix>none</fix>
 <sat>0</sat>
</trkpt>
<trkpt lat="60.962553333" lon="15.102640000">
<time>2014-07-06T11:53:34Z</time>
 <fix>none</fix>
 <sat>0</sat>
</trkpt>
<trkpt lat="60.962530000" lon="15.102461667">
<time>2014-07-06T11:53:35Z</time>
 <fix>none</fix>
 <sat>0</sat>
</trkpt>
<trkpt lat="60.962496667" lon="15.102291667">
<time>2014-07-06T11:53:36Z</time>
 <fix>none</fix>
 <sat>0</sat>
</trkpt>
<trkpt lat="60.962448333" lon="15.102133333">
<time>2014-07-06T11:53:37Z</time>
 <fix>none</fix>
 <sat>0</sat>
</trkpt>
<trkpt lat="60.962391667" lon="15.101981667">
<time>2014-07-06T11:53:38Z</time>
 <fix>none</fix>
 <sat>0</sat>
</trkpt>
<trkpt lat="60.962328333" lon="15.101845000">
<time>2014-07-06T11:53:39Z</time>
 <fix>none</fix>
 <sat>0</sat>
</trkpt>
<trkpt lat="60.962328333" lon="15.101845000">
<time>2014-07-06T11:53:40Z</time>
 <fix>none</fix>
 <sat>0</sat>
</trkpt>
<trkpt lat="60.962261667" lon="15.101705000">
<time>2014-07-06T11:53:41Z</time>
 <fix>none</fix>
 <sat>0</sat>
</trkpt>
<trkpt lat="60.962198333" lon="15.101558333">
<time>2014-07-06T11:53:42Z</time>
 <fix>none</fix>
 <sat>0</sat>
</trkpt>
<trkpt lat="60.962133333" lon="15.101410000">
<time>2014-07-06T11:53:43Z</time>
 <fix>none</fix>
 <sat>0</sat>
</trkpt>
<trkpt lat="60.962068333" lon="15.101258333">
<time>2014-07-06T11:53:44Z</time>
 <fix>none</fix>
 <sat>0</sat>
</trkpt>
<trkpt lat="60.962068333" lon="15.101258333">
<time>2014-07-06T11:53:45Z</time>
 <fix>none</fix>
 <sat>0</sat>
</trkpt>
<trkpt lat="60.961901667" lon="15.100768333">
<time>2014-07-06T11:53:46Z</time>
 <fix>none</fix>
 <sat>0</sat>
</trkpt>
<trkpt lat="60.961901667" lon="15.100768333">
<time>2014-07-06T11:53:47Z</time>
 <fix>none</fix>
 <sat>0</sat>
</trkpt>
<trkpt lat="60.961806667" lon="15.100438333">
<time>2014-07-06T11:53:48Z</time>
 <fix>none</fix>
 <sat>0</sat>
</trkpt>
<trkpt lat="60.961806667" lon="15.100438333">
<time>2014-07-06T11:53:49Z</time>
 <fix>none</fix>
 <sat>0</sat>
</trkpt>
<trkpt lat="60.961701667" lon="15.100111667">
<time>2014-07-06T11:53:50Z</time>
 <fix>none</fix>
 <sat>0</sat>
</trkpt>
<trkpt lat="60.961666667" lon="15.100000000">
<time>2014-07-06T11:53:51Z</time>
 <fix>none</fix>
 <sat>0</sat>
</trkpt>
<trkpt lat="60.961610000" lon="15.099910000">
<time>2014-07-06T11:53:52Z</time>
 <fix>none</fix>
 <sat>0</sat>
</trkpt>
<trkpt lat="60.961493333" lon="15.099960000">
<time>2014-07-06T11:53:53Z</time>
 <fix>none</fix>
 <sat>0</sat>
</trkpt>
<trkpt lat="60.961395000" lon="15.099998333">
<time>2014-07-06T11:53:54Z</time>
 <fix>none</fix>
 <sat>0</sat>
</trkpt>
<trkpt lat="60.961318333" lon="15.099991667">
<time>2014-07-06T11:53:55Z</time>
 <fix>none</fix>
 <sat>0</sat>
</trkpt>
<trkpt lat="60.961236667" lon="15.099991667">
<time>2014-07-06T11:53:56Z</time>
 <fix>none</fix>
 <sat>0</sat>
</trkpt>
<trkpt lat="60.961155000" lon="15.099996667">
<time>2014-07-06T11:53:57Z</time>
 <fix>none</fix>
 <sat>0</sat>
</trkpt>
<trkpt lat="60.961075000" lon="15.099996667">
<time>2014-07-06T11:53:58Z</time>
 <fix>none</fix>
 <sat>0</sat>
</trkpt>
<trkpt lat="60.960993333" lon="15.100016667">
<time>2014-07-06T11:53:59Z</time>
 <fix>none</fix>
 <sat>0</sat>
</trkpt>
<trkpt lat="60.960921667" lon="15.100031667">
<time>2014-07-06T11:54:00Z</time>
 <fix>none</fix>
 <sat>0</sat>
</trkpt>
<trkpt lat="60.960856667" lon="15.100061667">
<time>2014-07-06T11:54:01Z</time>
 <fix>none</fix>
 <sat>0</sat>
</trkpt>
<trkpt lat="60.960788333" lon="15.100093333">
<time>2014-07-06T11:54:02Z</time>
 <fix>none</fix>
 <sat>0</sat>
</trkpt>
<trkpt lat="60.960788333" lon="15.100093333">
<time>2014-07-06T11:54:03Z</time>
 <fix>none</fix>
 <sat>0</sat>
</trkpt>
<trkpt lat="60.960711667" lon="15.100143333">
<time>2014-07-06T11:54:04Z</time>
 <fix>none</fix>
 <sat>0</sat>
</trkpt>
<trkpt lat="60.960626667" lon="15.100205000">
<time>2014-07-06T11:54:05Z</time>
 <fix>none</fix>
 <sat>0</sat>
</trkpt>
<trkpt lat="60.960548333" lon="15.100263333">
<time>2014-07-06T11:54:06Z</time>
 <fix>none</fix>
 <sat>0</sat>
</trkpt>
<trkpt lat="60.960478333" lon="15.100308333">
<time>2014-07-06T11:54:07Z</time>
 <fix>none</fix>
 <sat>0</sat>
</trkpt>
<trkpt lat="60.960403333" lon="15.100363333">
<time>2014-07-06T11:54:08Z</time>
 <fix>none</fix>
 <sat>0</sat>
</trkpt>
<trkpt lat="60.960255000" lon="15.100440000">
<time>2014-07-06T11:54:09Z</time>
 <fix>none</fix>
 <sat>0</sat>
</trkpt>
<trkpt lat="60.960255000" lon="15.100440000">
<time>2014-07-06T11:54:10Z</time>
 <fix>none</fix>
 <sat>0</sat>
</trkpt>
<trkpt lat="60.960170000" lon="15.100470000">
<time>2014-07-06T11:54:11Z</time>
 <fix>none</fix>
 <sat>0</sat>
</trkpt>
<trkpt lat="60.959995000" lon="15.100528333">
<time>2014-07-06T11:54:12Z</time>
 <fix>none</fix>
 <sat>0</sat>
</trkpt>
<trkpt lat="60.959903333" lon="15.100566667">
<time>2014-07-06T11:54:13Z</time>
 <fix>none</fix>
 <sat>0</sat>
</trkpt>
<trkpt lat="60.959808333" lon="15.100628333">
<time>2014-07-06T11:54:14Z</time>
 <fix>none</fix>
 <sat>0</sat>
</trkpt>
<trkpt lat="60.959711667" lon="15.100710000">
<time>2014-07-06T11:54:15Z</time>
 <fix>none</fix>
 <sat>0</sat>
</trkpt>
<trkpt lat="60.959618333" lon="15.100801667">
<time>2014-07-06T11:54:16Z</time>
 <fix>none</fix>
 <sat>0</sat>
</trkpt>
<trkpt lat="60.959533333" lon="15.100895000">
<time>2014-07-06T11:54:17Z</time>
 <fix>none</fix>
 <sat>0</sat>
</trkpt>
<trkpt lat="60.959443333" lon="15.100990000">
<time>2014-07-06T11:54:18Z</time>
 <fix>none</fix>
 <sat>0</sat>
</trkpt>
<trkpt lat="60.959363333" lon="15.101068333">
<time>2014-07-06T11:54:19Z</time>
 <fix>none</fix>
 <sat>0</sat>
</trkpt>
<trkpt lat="60.959295000" lon="15.101130000">
<time>2014-07-06T11:54:20Z</time>
 <fix>none</fix>
 <sat>0</sat>
</trkpt>
<trkpt lat="60.959228333" lon="15.101160000">
<time>2014-07-06T11:54:21Z</time>
 <fix>none</fix>
 <sat>0</sat>
</trkpt>
<trkpt lat="60.959161667" lon="15.101230000">
<time>2014-07-06T11:54:22Z</time>
 <fix>none</fix>
 <sat>0</sat>
</trkpt>
<trkpt lat="60.959091667" lon="15.101286667">
<time>2014-07-06T11:54:23Z</time>
 <fix>none</fix>
 <sat>0</sat>
</trkpt>
<trkpt lat="60.959020000" lon="15.101326667">
<time>2014-07-06T11:54:24Z</time>
 <fix>none</fix>
 <sat>0</sat>
</trkpt>
<trkpt lat="60.958960000" lon="15.101360000">
<time>2014-07-06T11:54:25Z</time>
 <fix>none</fix>
 <sat>0</sat>
</trkpt>
<trkpt lat="60.958960000" lon="15.101360000">
<time>2014-07-06T11:54:26Z</time>
 <fix>none</fix>
 <sat>0</sat>
</trkpt>
<trkpt lat="60.958898333" lon="15.101401667">
<time>2014-07-06T11:54:27Z</time>
 <fix>none</fix>
 <sat>0</sat>
</trkpt>
<trkpt lat="60.958826667" lon="15.101463333">
<time>2014-07-06T11:54:28Z</time>
 <fix>none</fix>
 <sat>0</sat>
</trkpt>
<trkpt lat="60.958751667" lon="15.101536667">
<time>2014-07-06T11:54:29Z</time>
 <fix>none</fix>
 <sat>0</sat>
</trkpt>
<trkpt lat="60.958675000" lon="15.101606667">
<time>2014-07-06T11:54:30Z</time>
 <fix>none</fix>
 <sat>0</sat>
</trkpt>
<trkpt lat="60.958606667" lon="15.101666667">
<time>2014-07-06T11:54:31Z</time>
 <fix>none</fix>
 <sat>0</sat>
</trkpt>
<trkpt lat="60.958466667" lon="15.101766667">
<time>2014-07-06T11:54:32Z</time>
 <fix>none</fix>
 <sat>0</sat>
</trkpt>
<trkpt lat="60.958466667" lon="15.101766667">
<time>2014-07-06T11:54:33Z</time>
 <fix>none</fix>
 <sat>0</sat>
</trkpt>
<trkpt lat="60.958316667" lon="15.101870000">
<time>2014-07-06T11:54:34Z</time>
 <fix>none</fix>
 <sat>0</sat>
</trkpt>
<trkpt lat="60.958241667" lon="15.101911667">
<time>2014-07-06T11:54:35Z</time>
 <fix>none</fix>
 <sat>0</sat>
</trkpt>
<trkpt lat="60.958158333" lon="15.101940000">
<time>2014-07-06T11:54:36Z</time>
 <fix>none</fix>
 <sat>0</sat>
</trkpt>
<trkpt lat="60.958071667" lon="15.101955000">
<time>2014-07-06T11:54:37Z</time>
 <fix>none</fix>
 <sat>0</sat>
</trkpt>
<trkpt lat="60.957985000" lon="15.101965000">
<time>2014-07-06T11:54:38Z</time>
 <fix>none</fix>
 <sat>0</sat>
</trkpt>
<trkpt lat="60.957895000" lon="15.101981667">
<time>2014-07-06T11:54:39Z</time>
 <fix>none</fix>
 <sat>0</sat>
</trkpt>
<trkpt lat="60.957808333" lon="15.101985000">
<time>2014-07-06T11:54:40Z</time>
 <fix>none</fix>
 <sat>0</sat>
</trkpt>
<trkpt lat="60.957716667" lon="15.102006667">
<time>2014-07-06T11:54:41Z</time>
 <fix>none</fix>
 <sat>0</sat>
</trkpt>
<trkpt lat="60.957635000" lon="15.102010000">
<time>2014-07-06T11:54:42Z</time>
 <fix>none</fix>
 <sat>0</sat>
</trkpt>
<trkpt lat="60.957550000" lon="15.102010000">
<time>2014-07-06T11:54:43Z</time>
 <fix>none</fix>
 <sat>0</sat>
</trkpt>
<trkpt lat="60.957470000" lon="15.102005000">
<time>2014-07-06T11:54:44Z</time>
 <fix>none</fix>
 <sat>0</sat>
</trkpt>
<trkpt lat="60.957375000" lon="15.101993333">
<time>2014-07-06T11:54:45Z</time>
 <fix>none</fix>
 <sat>0</sat>
</trkpt>
<trkpt lat="60.957273333" lon="15.101978333">
<time>2014-07-06T11:54:46Z</time>
 <fix>none</fix>
 <sat>0</sat>
</trkpt>
<trkpt lat="60.957178333" lon="15.101936667">
<time>2014-07-06T11:54:47Z</time>
 <fix>none</fix>
 <sat>0</sat>
</trkpt>
<trkpt lat="60.957080000" lon="15.101875000">
<time>2014-07-06T11:54:48Z</time>
 <fix>none</fix>
 <sat>0</sat>
</trkpt>
<trkpt lat="60.957080000" lon="15.101875000">
<time>2014-07-06T11:54:49Z</time>
 <fix>none</fix>
 <sat>0</sat>
</trkpt>
<trkpt lat="60.956961667" lon="15.101810000">
<time>2014-07-06T11:54:50Z</time>
 <fix>none</fix>
 <sat>0</sat>
</trkpt>
<trkpt lat="60.956846667" lon="15.101731667">
<time>2014-07-06T11:54:51Z</time>
 <fix>none</fix>
 <sat>0</sat>
</trkpt>
<trkpt lat="60.956735000" lon="15.101648333">
<time>2014-07-06T11:54:52Z</time>
 <fix>none</fix>
 <sat>0</sat>
</trkpt>
<trkpt lat="60.956681667" lon="15.101496667">
<time>2014-07-06T11:54:53Z</time>
 <fix>none</fix>
 <sat>0</sat>
</trkpt>
<trkpt lat="60.956630000" lon="15.101181667">
<time>2014-07-06T11:54:54Z</time>
 <fix>none</fix>
 <sat>0</sat>
</trkpt>
<trkpt lat="60.956591667" lon="15.101053333">
<time>2014-07-06T11:54:55Z</time>
 <fix>none</fix>
 <sat>0</sat>
</trkpt>
<trkpt lat="60.956591667" lon="15.101053333">
<time>2014-07-06T11:54:56Z</time>
 <fix>none</fix>
 <sat>0</sat>
</trkpt>
<trkpt lat="60.956490000" lon="15.100843333">
<time>2014-07-06T11:54:57Z</time>
 <fix>none</fix>
 <sat>0</sat>
</trkpt>
<trkpt lat="60.956441667" lon="15.100745000">
<time>2014-07-06T11:54:58Z</time>
 <fix>none</fix>
 <sat>0</sat>
</trkpt>
<trkpt lat="60.956380000" lon="15.100675000">
<time>2014-07-06T11:54:59Z</time>
 <fix>none</fix>
 <sat>0</sat>
</trkpt>
<trkpt lat="60.956318333" lon="15.100600000">
<time>2014-07-06T11:55:00Z</time>
 <fix>none</fix>
 <sat>0</sat>
</trkpt>
<trkpt lat="60.956253333" lon="15.100523333">
<time>2014-07-06T11:55:01Z</time>
 <fix>none</fix>
 <sat>0</sat>
</trkpt>
<trkpt lat="60.956188333" lon="15.100463333">
<time>2014-07-06T11:55:02Z</time>
 <fix>none</fix>
 <sat>0</sat>
</trkpt>
<trkpt lat="60.956125000" lon="15.100401667">
<time>2014-07-06T11:55:03Z</time>
 <fix>none</fix>
 <sat>0</sat>
</trkpt>
<trkpt lat="60.956061667" lon="15.100345000">
<time>2014-07-06T11:55:04Z</time>
 <fix>none</fix>
 <sat>0</sat>
</trkpt>
<trkpt lat="60.956000000" lon="15.100290000">
<time>2014-07-06T11:55:05Z</time>
 <fix>none</fix>
 <sat>0</sat>
</trkpt>
<trkpt lat="60.955933333" lon="15.100245000">
<time>2014-07-06T11:55:06Z</time>
 <fix>none</fix>
 <sat>0</sat>
</trkpt>
<trkpt lat="60.955865000" lon="15.100198333">
<time>2014-07-06T11:55:07Z</time>
 <fix>none</fix>
 <sat>0</sat>
</trkpt>
<trkpt lat="60.955865000" lon="15.100198333">
<time>2014-07-06T11:55:08Z</time>
 <fix>none</fix>
 <sat>0</sat>
</trkpt>
<trkpt lat="60.955865000" lon="15.100198333">
<time>2014-07-06T11:55:09Z</time>
 <fix>none</fix>
 <sat>0</sat>
</trkpt>
<trkpt lat="60.955655000" lon="15.100053333">
<time>2014-07-06T11:55:10Z</time>
 <fix>none</fix>
 <sat>0</sat>
</trkpt>
<trkpt lat="60.955655000" lon="15.100053333">
<time>2014-07-06T11:55:11Z</time>
 <fix>none</fix>
 <sat>0</sat>
</trkpt>
<trkpt lat="60.955506667" lon="15.099966667">
<time>2014-07-06T11:55:12Z</time>
 <fix>none</fix>
 <sat>0</sat>
</trkpt>
<trkpt lat="60.955506667" lon="15.099966667">
<time>2014-07-06T11:55:13Z</time>
 <fix>none</fix>
 <sat>0</sat>
</trkpt>
<trkpt lat="60.955358333" lon="15.099896667">
<time>2014-07-06T11:55:14Z</time>
 <fix>none</fix>
 <sat>0</sat>
</trkpt>
<trkpt lat="60.955358333" lon="15.099896667">
<time>2014-07-06T11:55:15Z</time>
 <fix>none</fix>
 <sat>0</sat>
</trkpt>
<trkpt lat="60.955231667" lon="15.099771667">
<time>2014-07-06T11:55:16Z</time>
 <fix>none</fix>
 <sat>0</sat>
</trkpt>
<trkpt lat="60.955093333" lon="15.099816667">
<time>2014-07-06T11:55:17Z</time>
 <fix>none</fix>
 <sat>0</sat>
</trkpt>
<trkpt lat="60.955093333" lon="15.099816667">
<time>2014-07-06T11:55:18Z</time>
 <fix>none</fix>
 <sat>0</sat>
</trkpt>
<trkpt lat="60.955093333" lon="15.099816667">
<time>2014-07-06T11:55:19Z</time>
 <fix>none</fix>
 <sat>0</sat>
</trkpt>
<trkpt lat="60.954951667" lon="15.099925000">
<time>2014-07-06T11:55:20Z</time>
 <fix>none</fix>
 <sat>0</sat>
</trkpt>
<trkpt lat="60.954951667" lon="15.099925000">
<time>2014-07-06T11:55:21Z</time>
 <fix>none</fix>
 <sat>0</sat>
</trkpt>
<trkpt lat="60.954841667" lon="15.099983333">
<time>2014-07-06T11:55:22Z</time>
 <fix>none</fix>
 <sat>0</sat>
</trkpt>
<trkpt lat="60.954758333" lon="15.100041667">
<time>2014-07-06T11:55:23Z</time>
 <fix>none</fix>
 <sat>0</sat>
</trkpt>
<trkpt lat="60.954678333" lon="15.100111667">
<time>2014-07-06T11:55:24Z</time>
 <fix>none</fix>
 <sat>0</sat>
</trkpt>
<trkpt lat="60.954593333" lon="15.100178333">
<time>2014-07-06T11:55:25Z</time>
 <fix>none</fix>
 <sat>0</sat>
</trkpt>
<trkpt lat="60.954526667" lon="15.100215000">
<time>2014-07-06T11:55:26Z</time>
 <fix>none</fix>
 <sat>0</sat>
</trkpt>
<trkpt lat="60.954461667" lon="15.100251667">
<time>2014-07-06T11:55:27Z</time>
 <fix>none</fix>
 <sat>0</sat>
</trkpt>
<trkpt lat="60.954370000" lon="15.100326667">
<time>2014-07-06T11:55:28Z</time>
 <fix>none</fix>
 <sat>0</sat>
</trkpt>
<trkpt lat="60.954288333" lon="15.100396667">
<time>2014-07-06T11:55:29Z</time>
 <fix>none</fix>
 <sat>0</sat>
</trkpt>
<trkpt lat="60.954211667" lon="15.100483333">
<time>2014-07-06T11:55:30Z</time>
 <fix>none</fix>
 <sat>0</sat>
</trkpt>
<trkpt lat="60.954125000" lon="15.100555000">
<time>2014-07-06T11:55:31Z</time>
 <fix>none</fix>
 <sat>0</sat>
</trkpt>
<trkpt lat="60.954053333" lon="15.100611667">
<time>2014-07-06T11:55:32Z</time>
 <fix>none</fix>
 <sat>0</sat>
</trkpt>
<trkpt lat="60.953981667" lon="15.100655000">
<time>2014-07-06T11:55:33Z</time>
 <fix>none</fix>
 <sat>0</sat>
</trkpt>
<trkpt lat="60.953981667" lon="15.100655000">
<time>2014-07-06T11:55:34Z</time>
 <fix>none</fix>
 <sat>0</sat>
</trkpt>
<trkpt lat="60.953906667" lon="15.100676667">
<time>2014-07-06T11:55:35Z</time>
 <fix>none</fix>
 <sat>0</sat>
</trkpt>
<trkpt lat="60.953846667" lon="15.100703333">
<time>2014-07-06T11:55:36Z</time>
 <fix>none</fix>
 <sat>0</sat>
</trkpt>
<trkpt lat="60.953778333" lon="15.100741667">
<time>2014-07-06T11:55:37Z</time>
 <fix>none</fix>
 <sat>0</sat>
</trkpt>
<trkpt lat="60.953715000" lon="15.100773333">
<time>2014-07-06T11:55:38Z</time>
 <fix>none</fix>
 <sat>0</sat>
</trkpt>
<trkpt lat="60.953640000" lon="15.100840000">
<time>2014-07-06T11:55:39Z</time>
 <fix>none</fix>
 <sat>0</sat>
</trkpt>
<trkpt lat="60.953511667" lon="15.100936667">
<time>2014-07-06T11:55:40Z</time>
 <fix>none</fix>
 <sat>0</sat>
</trkpt>
<trkpt lat="60.953511667" lon="15.100936667">
<time>2014-07-06T11:55:41Z</time>
 <fix>none</fix>
 <sat>0</sat>
</trkpt>
<trkpt lat="60.953461667" lon="15.100981667">
<time>2014-07-06T11:55:42Z</time>
 <fix>none</fix>
 <sat>0</sat>
</trkpt>
<trkpt lat="60.953366667" lon="15.101105000">
<time>2014-07-06T11:55:43Z</time>
 <fix>none</fix>
 <sat>0</sat>
</trkpt>
<trkpt lat="60.953318333" lon="15.101175000">
<time>2014-07-06T11:55:44Z</time>
 <fix>none</fix>
 <sat>0</sat>
</trkpt>
<trkpt lat="60.953260000" lon="15.101253333">
<time>2014-07-06T11:55:45Z</time>
 <fix>none</fix>
 <sat>0</sat>
</trkpt>
<trkpt lat="60.953181667" lon="15.101328333">
<time>2014-07-06T11:55:46Z</time>
 <fix>none</fix>
 <sat>0</sat>
</trkpt>
<trkpt lat="60.953098333" lon="15.101393333">
<time>2014-07-06T11:55:47Z</time>
 <fix>none</fix>
 <sat>0</sat>
</trkpt>
<trkpt lat="60.953021667" lon="15.101448333">
<time>2014-07-06T11:55:48Z</time>
 <fix>none</fix>
 <sat>0</sat>
</trkpt>
<trkpt lat="60.952950000" lon="15.101495000">
<time>2014-07-06T11:55:49Z</time>
 <fix>none</fix>
 <sat>0</sat>
</trkpt>
<trkpt lat="60.952876667" lon="15.101538333">
<time>2014-07-06T11:55:50Z</time>
 <fix>none</fix>
 <sat>0</sat>
</trkpt>
<trkpt lat="60.952793333" lon="15.101585000">
<time>2014-07-06T11:55:51Z</time>
 <fix>none</fix>
 <sat>0</sat>
</trkpt>
<trkpt lat="60.952708333" lon="15.101618333">
<time>2014-07-06T11:55:52Z</time>
 <fix>none</fix>
 <sat>0</sat>
</trkpt>
<trkpt lat="60.952618333" lon="15.101651667">
<time>2014-07-06T11:55:53Z</time>
 <fix>none</fix>
 <sat>0</sat>
</trkpt>
<trkpt lat="60.952526667" lon="15.101688333">
<time>2014-07-06T11:55:54Z</time>
 <fix>none</fix>
 <sat>0</sat>
</trkpt>
<trkpt lat="60.952440000" lon="15.101716667">
<time>2014-07-06T11:55:55Z</time>
 <fix>none</fix>
 <sat>0</sat>
</trkpt>
<trkpt lat="60.952353333" lon="15.101756667">
<time>2014-07-06T11:55:56Z</time>
 <fix>none</fix>
 <sat>0</sat>
</trkpt>
<trkpt lat="60.952353333" lon="15.101756667">
<time>2014-07-06T11:55:57Z</time>
 <fix>none</fix>
 <sat>0</sat>
</trkpt>
<trkpt lat="60.952271667" lon="15.101791667">
<time>2014-07-06T11:55:58Z</time>
 <fix>none</fix>
 <sat>0</sat>
</trkpt>
<trkpt lat="60.952195000" lon="15.101820000">
<time>2014-07-06T11:55:59Z</time>
 <fix>none</fix>
 <sat>0</sat>
</trkpt>
<trkpt lat="60.952120000" lon="15.101845000">
<time>2014-07-06T11:56:00Z</time>
 <fix>none</fix>
 <sat>0</sat>
</trkpt>
<trkpt lat="60.952045000" lon="15.101876667">
<time>2014-07-06T11:56:01Z</time>
 <fix>none</fix>
 <sat>0</sat>
</trkpt>
<trkpt lat="60.951965000" lon="15.101916667">
<time>2014-07-06T11:56:02Z</time>
 <fix>none</fix>
 <sat>0</sat>
</trkpt>
<trkpt lat="60.951835000" lon="15.101923333">
<time>2014-07-06T11:56:03Z</time>
 <fix>none</fix>
 <sat>0</sat>
</trkpt>
<trkpt lat="60.951835000" lon="15.101923333">
<time>2014-07-06T11:56:04Z</time>
 <fix>none</fix>
 <sat>0</sat>
</trkpt>
<trkpt lat="60.951735000" lon="15.101813333">
<time>2014-07-06T11:56:05Z</time>
 <fix>none</fix>
 <sat>0</sat>
</trkpt>
<trkpt lat="60.951683333" lon="15.101751667">
<time>2014-07-06T11:56:06Z</time>
 <fix>none</fix>
 <sat>0</sat>
</trkpt>
<trkpt lat="60.951628333" lon="15.101691667">
<time>2014-07-06T11:56:07Z</time>
 <fix>none</fix>
 <sat>0</sat>
</trkpt>
<trkpt lat="60.951571667" lon="15.101673333">
<time>2014-07-06T11:56:08Z</time>
 <fix>none</fix>
 <sat>0</sat>
</trkpt>
<trkpt lat="60.951516667" lon="15.101646667">
<time>2014-07-06T11:56:09Z</time>
 <fix>none</fix>
 <sat>0</sat>
</trkpt>
<trkpt lat="60.951456667" lon="15.101618333">
<time>2014-07-06T11:56:10Z</time>
 <fix>none</fix>
 <sat>0</sat>
</trkpt>
<trkpt lat="60.951393333" lon="15.101613333">
<time>2014-07-06T11:56:11Z</time>
 <fix>none</fix>
 <sat>0</sat>
</trkpt>
<trkpt lat="60.951331667" lon="15.101618333">
<time>2014-07-06T11:56:12Z</time>
 <fix>none</fix>
 <sat>0</sat>
</trkpt>
<trkpt lat="60.951276667" lon="15.101643333">
<time>2014-07-06T11:56:13Z</time>
 <fix>none</fix>
 <sat>0</sat>
</trkpt>
<trkpt lat="60.951225000" lon="15.101700000">
<time>2014-07-06T11:56:14Z</time>
 <fix>none</fix>
 <sat>0</sat>
</trkpt>
<trkpt lat="60.951168333" lon="15.101731667">
<time>2014-07-06T11:56:15Z</time>
 <fix>none</fix>
 <sat>0</sat>
</trkpt>
<trkpt lat="60.951120000" lon="15.101753333">
<time>2014-07-06T11:56:16Z</time>
 <fix>none</fix>
 <sat>0</sat>
</trkpt>
<trkpt lat="60.951075000" lon="15.101758333">
<time>2014-07-06T11:56:17Z</time>
 <fix>none</fix>
 <sat>0</sat>
</trkpt>
<trkpt lat="60.951030000" lon="15.101765000">
<time>2014-07-06T11:56:18Z</time>
 <fix>none</fix>
 <sat>0</sat>
</trkpt>
<trkpt lat="60.950983333" lon="15.101768333">
<time>2014-07-06T11:56:19Z</time>
 <fix>none</fix>
 <sat>0</sat>
</trkpt>
<trkpt lat="60.950983333" lon="15.101768333">
<time>2014-07-06T11:56:20Z</time>
 <fix>none</fix>
 <sat>0</sat>
</trkpt>
<trkpt lat="60.950923333" lon="15.101780000">
<time>2014-07-06T11:56:21Z</time>
 <fix>none</fix>
 <sat>0</sat>
</trkpt>
<trkpt lat="60.950870000" lon="15.101776667">
<time>2014-07-06T11:56:22Z</time>
 <fix>none</fix>
 <sat>0</sat>
</trkpt>
<trkpt lat="60.950810000" lon="15.101786667">
<time>2014-07-06T11:56:23Z</time>
 <fix>none</fix>
 <sat>0</sat>
</trkpt>
<trkpt lat="60.950745000" lon="15.101803333">
<time>2014-07-06T11:56:24Z</time>
 <fix>none</fix>
 <sat>0</sat>
</trkpt>
<trkpt lat="60.950681667" lon="15.101810000">
<time>2014-07-06T11:56:25Z</time>
 <fix>none</fix>
 <sat>0</sat>
</trkpt>
<trkpt lat="60.950536667" lon="15.101828333">
<time>2014-07-06T11:56:26Z</time>
 <fix>none</fix>
 <sat>0</sat>
</trkpt>
<trkpt lat="60.950536667" lon="15.101828333">
<time>2014-07-06T11:56:27Z</time>
 <fix>none</fix>
 <sat>0</sat>
</trkpt>
<trkpt lat="60.950386667" lon="15.101886667">
<time>2014-07-06T11:56:28Z</time>
 <fix>none</fix>
 <sat>0</sat>
</trkpt>
<trkpt lat="60.950315000" lon="15.101923333">
<time>2014-07-06T11:56:29Z</time>
 <fix>none</fix>
 <sat>0</sat>
</trkpt>
<trkpt lat="60.950251667" lon="15.101960000">
<time>2014-07-06T11:56:30Z</time>
 <fix>none</fix>
 <sat>0</sat>
</trkpt>
<trkpt lat="60.950193333" lon="15.101983333">
<time>2014-07-06T11:56:31Z</time>
 <fix>none</fix>
 <sat>0</sat>
</trkpt>
<trkpt lat="60.950123333" lon="15.102021667">
<time>2014-07-06T11:56:32Z</time>
 <fix>none</fix>
 <sat>0</sat>
</trkpt>
<trkpt lat="60.950053333" lon="15.102060000">
<time>2014-07-06T11:56:33Z</time>
 <fix>none</fix>
 <sat>0</sat>
</trkpt>
<trkpt lat="60.949996667" lon="15.102078333">
<time>2014-07-06T11:56:34Z</time>
 <fix>none</fix>
 <sat>0</sat>
</trkpt>
<trkpt lat="60.949933333" lon="15.102095000">
<time>2014-07-06T11:56:35Z</time>
 <fix>none</fix>
 <sat>0</sat>
</trkpt>
<trkpt lat="60.949868333" lon="15.102118333">
<time>2014-07-06T11:56:36Z</time>
 <fix>none</fix>
 <sat>0</sat>
</trkpt>
<trkpt lat="60.949805000" lon="15.102118333">
<time>2014-07-06T11:56:37Z</time>
 <fix>none</fix>
 <sat>0</sat>
</trkpt>
<trkpt lat="60.949745000" lon="15.102135000">
<time>2014-07-06T11:56:38Z</time>
 <fix>none</fix>
 <sat>0</sat>
</trkpt>
<trkpt lat="60.949698333" lon="15.102143333">
<time>2014-07-06T11:56:39Z</time>
 <fix>none</fix>
 <sat>0</sat>
</trkpt>
<trkpt lat="60.949641667" lon="15.102168333">
<time>2014-07-06T11:56:40Z</time>
 <fix>none</fix>
 <sat>0</sat>
</trkpt>
<trkpt lat="60.949583333" lon="15.102178333">
<time>2014-07-06T11:56:41Z</time>
 <fix>none</fix>
 <sat>0</sat>
</trkpt>
<trkpt lat="60.949531667" lon="15.102200000">
<time>2014-07-06T11:56:42Z</time>
 <fix>none</fix>
 <sat>0</sat>
</trkpt>
<trkpt lat="60.949531667" lon="15.102200000">
<time>2014-07-06T11:56:43Z</time>
 <fix>none</fix>
 <sat>0</sat>
</trkpt>
<trkpt lat="60.949481667" lon="15.102223333">
<time>2014-07-06T11:56:44Z</time>
 <fix>none</fix>
 <sat>0</sat>
</trkpt>
<trkpt lat="60.949430000" lon="15.102246667">
<time>2014-07-06T11:56:45Z</time>
 <fix>none</fix>
 <sat>0</sat>
</trkpt>
<trkpt lat="60.949381667" lon="15.102260000">
<time>2014-07-06T11:56:46Z</time>
 <fix>none</fix>
 <sat>0</sat>
</trkpt>
<trkpt lat="60.949318333" lon="15.102283333">
<time>2014-07-06T11:56:47Z</time>
 <fix>none</fix>
 <sat>0</sat>
</trkpt>
<trkpt lat="60.949261667" lon="15.102293333">
<time>2014-07-06T11:56:48Z</time>
 <fix>none</fix>
 <sat>0</sat>
</trkpt>
<trkpt lat="60.949146667" lon="15.102275000">
<time>2014-07-06T11:56:49Z</time>
 <fix>none</fix>
 <sat>0</sat>
</trkpt>
<trkpt lat="60.949146667" lon="15.102275000">
<time>2014-07-06T11:56:50Z</time>
 <fix>none</fix>
 <sat>0</sat>
</trkpt>
<trkpt lat="60.949018333" lon="15.102263333">
<time>2014-07-06T11:56:51Z</time>
 <fix>none</fix>
 <sat>0</sat>
</trkpt>
<trkpt lat="60.948961667" lon="15.102240000">
<time>2014-07-06T11:56:52Z</time>
 <fix>none</fix>
 <sat>0</sat>
</trkpt>
<trkpt lat="60.948905000" lon="15.102213333">
<time>2014-07-06T11:56:53Z</time>
 <fix>none</fix>
 <sat>0</sat>
</trkpt>
<trkpt lat="60.948848333" lon="15.102181667">
<time>2014-07-06T11:56:54Z</time>
 <fix>none</fix>
 <sat>0</sat>
</trkpt>
<trkpt lat="60.948791667" lon="15.102148333">
<time>2014-07-06T11:56:55Z</time>
 <fix>none</fix>
 <sat>0</sat>
</trkpt>
<trkpt lat="60.948791667" lon="15.102148333">
<time>2014-07-06T11:56:56Z</time>
 <fix>none</fix>
 <sat>0</sat>
</trkpt>
<trkpt lat="60.948683333" lon="15.102038333">
<time>2014-07-06T11:56:57Z</time>
 <fix>none</fix>
 <sat>0</sat>
</trkpt>
<trkpt lat="60.948633333" lon="15.101983333">
<time>2014-07-06T11:56:58Z</time>
 <fix>none</fix>
 <sat>0</sat>
</trkpt>
<trkpt lat="60.948578333" lon="15.101943333">
<time>2014-07-06T11:56:59Z</time>
 <fix>none</fix>
 <sat>0</sat>
</trkpt>
<trkpt lat="60.948525000" lon="15.101908333">
<time>2014-07-06T11:57:00Z</time>
 <fix>none</fix>
 <sat>0</sat>
</trkpt>
<trkpt lat="60.948468333" lon="15.101876667">
<time>2014-07-06T11:57:01Z</time>
 <fix>none</fix>
 <sat>0</sat>
</trkpt>
<trkpt lat="60.948418333" lon="15.101856667">
<time>2014-07-06T11:57:02Z</time>
 <fix>none</fix>
 <sat>0</sat>
</trkpt>
<trkpt lat="60.948368333" lon="15.101838333">
<time>2014-07-06T11:57:03Z</time>
 <fix>none</fix>
 <sat>0</sat>
</trkpt>
<trkpt lat="60.948313333" lon="15.101813333">
<time>2014-07-06T11:57:04Z</time>
 <fix>none</fix>
 <sat>0</sat>
</trkpt>
<trkpt lat="60.948256667" lon="15.101801667">
<time>2014-07-06T11:57:05Z</time>
 <fix>none</fix>
 <sat>0</sat>
</trkpt>
<trkpt lat="60.948256667" lon="15.101801667">
<time>2014-07-06T11:57:06Z</time>
 <fix>none</fix>
 <sat>0</sat>
</trkpt>
<trkpt lat="60.948195000" lon="15.101800000">
<time>2014-07-06T11:57:07Z</time>
 <fix>none</fix>
 <sat>0</sat>
</trkpt>
<trkpt lat="60.948145000" lon="15.101798333">
<time>2014-07-06T11:57:08Z</time>
 <fix>none</fix>
 <sat>0</sat>
</trkpt>
<trkpt lat="60.948106667" lon="15.101805000">
<time>2014-07-06T11:57:09Z</time>
 <fix>none</fix>
 <sat>0</sat>
</trkpt>
<trkpt lat="60.948056667" lon="15.101831667">
<time>2014-07-06T11:57:10Z</time>
 <fix>none</fix>
 <sat>0</sat>
</trkpt>
<trkpt lat="60.947931667" lon="15.101868333">
<time>2014-07-06T11:57:11Z</time>
 <fix>none</fix>
 <sat>0</sat>
</trkpt>
<trkpt lat="60.947931667" lon="15.101868333">
<time>2014-07-06T11:57:12Z</time>
 <fix>none</fix>
 <sat>0</sat>
</trkpt>
<trkpt lat="60.947865000" lon="15.101861667">
<time>2014-07-06T11:57:13Z</time>
 <fix>none</fix>
 <sat>0</sat>
</trkpt>
<trkpt lat="60.947738333" lon="15.101803333">
<time>2014-07-06T11:57:14Z</time>
 <fix>none</fix>
 <sat>0</sat>
</trkpt>
<trkpt lat="60.947676667" lon="15.101766667">
<time>2014-07-06T11:57:15Z</time>
 <fix>none</fix>
 <sat>0</sat>
</trkpt>
<trkpt lat="60.947615000" lon="15.101738333">
<time>2014-07-06T11:57:16Z</time>
 <fix>none</fix>
 <sat>0</sat>
</trkpt>
<trkpt lat="60.947555000" lon="15.101703333">
<time>2014-07-06T11:57:17Z</time>
 <fix>none</fix>
 <sat>0</sat>
</trkpt>
<trkpt lat="60.947496667" lon="15.101663333">
<time>2014-07-06T11:57:18Z</time>
 <fix>none</fix>
 <sat>0</sat>
</trkpt>
<trkpt lat="60.947435000" lon="15.101616667">
<time>2014-07-06T11:57:19Z</time>
 <fix>none</fix>
 <sat>0</sat>
</trkpt>
<trkpt lat="60.947368333" lon="15.101578333">
<time>2014-07-06T11:57:20Z</time>
 <fix>none</fix>
 <sat>0</sat>
</trkpt>
<trkpt lat="60.947301667" lon="15.101541667">
<time>2014-07-06T11:57:21Z</time>
 <fix>none</fix>
 <sat>0</sat>
</trkpt>
<trkpt lat="60.947241667" lon="15.101508333">
<time>2014-07-06T11:57:22Z</time>
 <fix>none</fix>
 <sat>0</sat>
</trkpt>
<trkpt lat="60.947188333" lon="15.101461667">
<time>2014-07-06T11:57:23Z</time>
 <fix>none</fix>
 <sat>0</sat>
</trkpt>
<trkpt lat="60.947136667" lon="15.101441667">
<time>2014-07-06T11:57:24Z</time>
 <fix>none</fix>
 <sat>0</sat>
</trkpt>
<trkpt lat="60.947086667" lon="15.101431667">
<time>2014-07-06T11:57:25Z</time>
 <fix>none</fix>
 <sat>0</sat>
</trkpt>
<trkpt lat="60.947048333" lon="15.101431667">
<time>2014-07-06T11:57:26Z</time>
 <fix>none</fix>
 <sat>0</sat>
</trkpt>
<trkpt lat="60.947020000" lon="15.101460000">
<time>2014-07-06T11:57:27Z</time>
 <fix>none</fix>
 <sat>0</sat>
</trkpt>
<trkpt lat="60.947020000" lon="15.101460000">
<time>2014-07-06T11:57:28Z</time>
 <fix>none</fix>
 <sat>0</sat>
</trkpt>
<trkpt lat="60.946995000" lon="15.101503333">
<time>2014-07-06T11:57:29Z</time>
 <fix>none</fix>
 <sat>0</sat>
</trkpt>
<trkpt lat="60.946965000" lon="15.101545000">
<time>2014-07-06T11:57:30Z</time>
 <fix>none</fix>
 <sat>0</sat>
</trkpt>
<trkpt lat="60.946915000" lon="15.101588333">
<time>2014-07-06T11:57:31Z</time>
 <fix>none</fix>
 <sat>0</sat>
</trkpt>
<trkpt lat="60.946873333" lon="15.101631667">
<time>2014-07-06T11:57:32Z</time>
 <fix>none</fix>
 <sat>0</sat>
</trkpt>
<trkpt lat="60.946843333" lon="15.101676667">
<time>2014-07-06T11:57:33Z</time>
 <fix>none</fix>
 <sat>0</sat>
</trkpt>
<trkpt lat="60.946815000" lon="15.101728333">
<time>2014-07-06T11:57:34Z</time>
 <fix>none</fix>
 <sat>0</sat>
</trkpt>
<trkpt lat="60.946795000" lon="15.101876667">
<time>2014-07-06T11:57:35Z</time>
 <fix>none</fix>
 <sat>0</sat>
</trkpt>
<trkpt lat="60.946785000" lon="15.101956667">
<time>2014-07-06T11:57:36Z</time>
 <fix>none</fix>
 <sat>0</sat>
</trkpt>
<trkpt lat="60.946768333" lon="15.102036667">
<time>2014-07-06T11:57:37Z</time>
 <fix>none</fix>
 <sat>0</sat>
</trkpt>
<trkpt lat="60.946746667" lon="15.102098333">
<time>2014-07-06T11:57:38Z</time>
 <fix>none</fix>
 <sat>0</sat>
</trkpt>
<trkpt lat="60.946716667" lon="15.102168333">
<time>2014-07-06T11:57:39Z</time>
 <fix>none</fix>
 <sat>0</sat>
</trkpt>
<trkpt lat="60.946685000" lon="15.102243333">
<time>2014-07-06T11:57:40Z</time>
 <fix>none</fix>
 <sat>0</sat>
</trkpt>
<trkpt lat="60.946655000" lon="15.102321667">
<time>2014-07-06T11:57:41Z</time>
 <fix>none</fix>
 <sat>0</sat>
</trkpt>
<trkpt lat="60.946636667" lon="15.102366667">
<time>2014-07-06T11:57:42Z</time>
 <fix>none</fix>
 <sat>0</sat>
</trkpt>
<trkpt lat="60.946620000" lon="15.102395000">
<time>2014-07-06T11:57:43Z</time>
 <fix>none</fix>
 <sat>0</sat>
</trkpt>
<trkpt lat="60.946611667" lon="15.102440000">
<time>2014-07-06T11:57:44Z</time>
 <fix>none</fix>
 <sat>0</sat>
</trkpt>
<trkpt lat="60.946620000" lon="15.102478333">
<time>2014-07-06T11:57:45Z</time>
 <fix>none</fix>
 <sat>0</sat>
</trkpt>
<trkpt lat="60.946623333" lon="15.102533333">
<time>2014-07-06T11:57:46Z</time>
 <fix>none</fix>
 <sat>0</sat>
</trkpt>
<trkpt lat="60.946631667" lon="15.102593333">
<time>2014-07-06T11:57:47Z</time>
 <fix>none</fix>
 <sat>0</sat>
</trkpt>
<trkpt lat="60.946640000" lon="15.102653333">
<time>2014-07-06T11:57:48Z</time>
 <fix>none</fix>
 <sat>0</sat>
</trkpt>
<trkpt lat="60.946635000" lon="15.102726667">
<time>2014-07-06T11:57:49Z</time>
 <fix>none</fix>
 <sat>0</sat>
</trkpt>
<trkpt lat="60.946621667" lon="15.102808333">
<time>2014-07-06T11:57:50Z</time>
 <fix>none</fix>
 <sat>0</sat>
</trkpt>
<trkpt lat="60.946621667" lon="15.102808333">
<time>2014-07-06T11:57:51Z</time>
 <fix>none</fix>
 <sat>0</sat>
</trkpt>
<trkpt lat="60.946623333" lon="15.102866667">
<time>2014-07-06T11:57:52Z</time>
 <fix>none</fix>
 <sat>0</sat>
</trkpt>
<trkpt lat="60.946625000" lon="15.102941667">
<time>2014-07-06T11:57:53Z</time>
 <fix>none</fix>
 <sat>0</sat>
</trkpt>
<trkpt lat="60.946636667" lon="15.103018333">
<time>2014-07-06T11:57:54Z</time>
 <fix>none</fix>
 <sat>0</sat>
</trkpt>
<trkpt lat="60.946648333" lon="15.103103333">
<time>2014-07-06T11:57:55Z</time>
 <fix>none</fix>
 <sat>0</sat>
</trkpt>
<trkpt lat="60.946668333" lon="15.103171667">
<time>2014-07-06T11:57:56Z</time>
 <fix>none</fix>
 <sat>0</sat>
</trkpt>
<trkpt lat="60.946706667" lon="15.103290000">
<time>2014-07-06T11:57:57Z</time>
 <fix>none</fix>
 <sat>0</sat>
</trkpt>
<trkpt lat="60.946721667" lon="15.103356667">
<time>2014-07-06T11:57:58Z</time>
 <fix>none</fix>
 <sat>0</sat>
</trkpt>
<trkpt lat="60.946723333" lon="15.103418333">
<time>2014-07-06T11:57:59Z</time>
 <fix>none</fix>
 <sat>0</sat>
</trkpt>
<trkpt lat="60.946723333" lon="15.103418333">
<time>2014-07-06T11:58:00Z</time>
 <fix>none</fix>
 <sat>0</sat>
</trkpt>
<trkpt lat="60.946690000" lon="15.103515000">
<time>2014-07-06T11:58:01Z</time>
 <fix>none</fix>
 <sat>0</sat>
</trkpt>
<trkpt lat="60.946645000" lon="15.103535000">
<time>2014-07-06T11:58:02Z</time>
 <fix>none</fix>
 <sat>0</sat>
</trkpt>
<trkpt lat="60.946585000" lon="15.103546667">
<time>2014-07-06T11:58:03Z</time>
 <fix>none</fix>
 <sat>0</sat>
</trkpt>
<trkpt lat="60.946521667" lon="15.103576667">
<time>2014-07-06T11:58:04Z</time>
 <fix>none</fix>
 <sat>0</sat>
</trkpt>
<trkpt lat="60.946440000" lon="15.103620000">
<time>2014-07-06T11:58:05Z</time>
 <fix>none</fix>
 <sat>0</sat>
</trkpt>
<trkpt lat="60.946366667" lon="15.103660000">
<time>2014-07-06T11:58:06Z</time>
 <fix>none</fix>
 <sat>0</sat>
</trkpt>
<trkpt lat="60.946285000" lon="15.103726667">
<time>2014-07-06T11:58:07Z</time>
 <fix>none</fix>
 <sat>0</sat>
</trkpt>
<trkpt lat="60.946191667" lon="15.103805000">
<time>2014-07-06T11:58:08Z</time>
 <fix>none</fix>
 <sat>0</sat>
</trkpt>
<trkpt lat="60.946095000" lon="15.103863333">
<time>2014-07-06T11:58:09Z</time>
 <fix>none</fix>
 <sat>0</sat>
</trkpt>
<trkpt lat="60.945991667" lon="15.103936667">
<time>2014-07-06T11:58:10Z</time>
 <fix>none</fix>
 <sat>0</sat>
</trkpt>
<trkpt lat="60.945878333" lon="15.104025000">
<time>2014-07-06T11:58:11Z</time>
 <fix>none</fix>
 <sat>0</sat>
</trkpt>
<trkpt lat="60.945733333" lon="15.104148333">
<time>2014-07-06T11:58:12Z</time>
 <fix>none</fix>
 <sat>0</sat>
</trkpt>
<trkpt lat="60.945596667" lon="15.104246667">
<time>2014-07-06T11:58:13Z</time>
 <fix>none</fix>
 <sat>0</sat>
</trkpt>
<trkpt lat="60.945596667" lon="15.104246667">
<time>2014-07-06T11:58:14Z</time>
 <fix>none</fix>
 <sat>0</sat>
</trkpt>
<trkpt lat="60.945461667" lon="15.104333333">
<time>2014-07-06T11:58:15Z</time>
 <fix>none</fix>
 <sat>0</sat>
</trkpt>
<trkpt lat="60.945343333" lon="15.104381667">
<time>2014-07-06T11:58:16Z</time>
 <fix>none</fix>
 <sat>0</sat>
</trkpt>
<trkpt lat="60.945235000" lon="15.104401667">
<time>2014-07-06T11:58:17Z</time>
 <fix>none</fix>
 <sat>0</sat>
</trkpt>
<trkpt lat="60.945128333" lon="15.104418333">
<time>2014-07-06T11:58:18Z</time>
 <fix>none</fix>
 <sat>0</sat>
</trkpt>
<trkpt lat="60.945028333" lon="15.104431667">
<time>2014-07-06T11:58:19Z</time>
 <fix>none</fix>
 <sat>0</sat>
</trkpt>
<trkpt lat="60.944825000" lon="15.104461667">
<time>2014-07-06T11:58:20Z</time>
 <fix>none</fix>
 <sat>0</sat>
</trkpt>
<trkpt lat="60.944825000" lon="15.104461667">
<time>2014-07-06T11:58:21Z</time>
 <fix>none</fix>
 <sat>0</sat>
</trkpt>
<trkpt lat="60.944611667" lon="15.104528333">
<time>2014-07-06T11:58:22Z</time>
 <fix>none</fix>
 <sat>0</sat>
</trkpt>
<trkpt lat="60.944506667" lon="15.104578333">
<time>2014-07-06T11:58:23Z</time>
 <fix>none</fix>
 <sat>0</sat>
</trkpt>
<trkpt lat="60.944405000" lon="15.104638333">
<time>2014-07-06T11:58:24Z</time>
 <fix>none</fix>
 <sat>0</sat>
</trkpt>
<trkpt lat="60.944298333" lon="15.104701667">
<time>2014-07-06T11:58:25Z</time>
 <fix>none</fix>
 <sat>0</sat>
</trkpt>
<trkpt lat="60.944198333" lon="15.104755000">
<time>2014-07-06T11:58:26Z</time>
 <fix>none</fix>
 <sat>0</sat>
</trkpt>
<trkpt lat="60.944096667" lon="15.104830000">
<time>2014-07-06T11:58:27Z</time>
 <fix>none</fix>
 <sat>0</sat>
</trkpt>
<trkpt lat="60.943996667" lon="15.104898333">
<time>2014-07-06T11:58:28Z</time>
 <fix>none</fix>
 <sat>0</sat>
</trkpt>
<trkpt lat="60.943893333" lon="15.104945000">
<time>2014-07-06T11:58:29Z</time>
 <fix>none</fix>
 <sat>0</sat>
</trkpt>
<trkpt lat="60.943788333" lon="15.104993333">
<time>2014-07-06T11:58:30Z</time>
 <fix>none</fix>
 <sat>0</sat>
</trkpt>
<trkpt lat="60.943686667" lon="15.105050000">
<time>2014-07-06T11:58:31Z</time>
 <fix>none</fix>
 <sat>0</sat>
</trkpt>
<trkpt lat="60.943585000" lon="15.105121667">
<time>2014-07-06T11:58:32Z</time>
 <fix>none</fix>
 <sat>0</sat>
</trkpt>
<trkpt lat="60.943475000" lon="15.105218333">
<time>2014-07-06T11:58:33Z</time>
 <fix>none</fix>
 <sat>0</sat>
</trkpt>
<trkpt lat="60.943373333" lon="15.105305000">
<time>2014-07-06T11:58:34Z</time>
 <fix>none</fix>
 <sat>0</sat>
</trkpt>
<trkpt lat="60.943271667" lon="15.105391667">
<time>2014-07-06T11:58:35Z</time>
 <fix>none</fix>
 <sat>0</sat>
</trkpt>
<trkpt lat="60.943171667" lon="15.105478333">
<time>2014-07-06T11:58:36Z</time>
 <fix>none</fix>
 <sat>0</sat>
</trkpt>
<trkpt lat="60.943171667" lon="15.105478333">
<time>2014-07-06T11:58:37Z</time>
 <fix>none</fix>
 <sat>0</sat>
</trkpt>
<trkpt lat="60.943065000" lon="15.105551667">
<time>2014-07-06T11:58:38Z</time>
 <fix>none</fix>
 <sat>0</sat>
</trkpt>
<trkpt lat="60.942960000" lon="15.105618333">
<time>2014-07-06T11:58:39Z</time>
 <fix>none</fix>
 <sat>0</sat>
</trkpt>
<trkpt lat="60.942846667" lon="15.105666667">
<time>2014-07-06T11:58:40Z</time>
 <fix>none</fix>
 <sat>0</sat>
</trkpt>
<trkpt lat="60.942725000" lon="15.105700000">
<time>2014-07-06T11:58:41Z</time>
 <fix>none</fix>
 <sat>0</sat>
</trkpt>
<trkpt lat="60.942606667" lon="15.105711667">
<time>2014-07-06T11:58:42Z</time>
 <fix>none</fix>
 <sat>0</sat>
</trkpt>
<trkpt lat="60.942375000" lon="15.105700000">
<time>2014-07-06T11:58:43Z</time>
 <fix>none</fix>
 <sat>0</sat>
</trkpt>
<trkpt lat="60.942375000" lon="15.105700000">
<time>2014-07-06T11:58:44Z</time>
 <fix>none</fix>
 <sat>0</sat>
</trkpt>
<trkpt lat="60.942148333" lon="15.105700000">
<time>2014-07-06T11:58:45Z</time>
 <fix>none</fix>
 <sat>0</sat>
</trkpt>
<trkpt lat="60.942063333" lon="15.105661667">
<time>2014-07-06T11:58:46Z</time>
 <fix>none</fix>
 <sat>0</sat>
</trkpt>
<trkpt lat="60.941978333" lon="15.105613333">
<time>2014-07-06T11:58:47Z</time>
 <fix>none</fix>
 <sat>0</sat>
</trkpt>
<trkpt lat="60.941926667" lon="15.105453333">
<time>2014-07-06T11:58:48Z</time>
 <fix>none</fix>
 <sat>0</sat>
</trkpt>
<trkpt lat="60.941893333" lon="15.105251667">
<time>2014-07-06T11:58:49Z</time>
 <fix>none</fix>
 <sat>0</sat>
</trkpt>
<trkpt lat="60.941841667" lon="15.105095000">
<time>2014-07-06T11:58:50Z</time>
 <fix>none</fix>
 <sat>0</sat>
</trkpt>
<trkpt lat="60.941790000" lon="15.104925000">
<time>2014-07-06T11:58:51Z</time>
 <fix>none</fix>
 <sat>0</sat>
</trkpt>
<trkpt lat="60.941785000" lon="15.104700000">
<time>2014-07-06T11:58:52Z</time>
 <fix>none</fix>
 <sat>0</sat>
</trkpt>
<trkpt lat="60.941805000" lon="15.104486667">
<time>2014-07-06T11:58:53Z</time>
 <fix>none</fix>
 <sat>0</sat>
</trkpt>
<trkpt lat="60.941830000" lon="15.104278333">
<time>2014-07-06T11:58:54Z</time>
 <fix>none</fix>
 <sat>0</sat>
</trkpt>
<trkpt lat="60.941840000" lon="15.104081667">
<time>2014-07-06T11:58:55Z</time>
 <fix>none</fix>
 <sat>0</sat>
</trkpt>
<trkpt lat="60.941835000" lon="15.103895000">
<time>2014-07-06T11:58:56Z</time>
 <fix>none</fix>
 <sat>0</sat>
</trkpt>
<trkpt lat="60.941821667" lon="15.103706667">
<time>2014-07-06T11:58:57Z</time>
 <fix>none</fix>
 <sat>0</sat>
</trkpt>
<trkpt lat="60.941815000" lon="15.103508333">
<time>2014-07-06T11:58:58Z</time>
 <fix>none</fix>
 <sat>0</sat>
</trkpt>
<trkpt lat="60.941815000" lon="15.103508333">
<time>2014-07-06T11:58:59Z</time>
 <fix>none</fix>
 <sat>0</sat>
</trkpt>
<trkpt lat="60.941795000" lon="15.103313333">
<time>2014-07-06T11:59:00Z</time>
 <fix>none</fix>
 <sat>0</sat>
</trkpt>
<trkpt lat="60.941795000" lon="15.103313333">
<time>2014-07-06T11:59:01Z</time>
 <fix>none</fix>
 <sat>0</sat>
</trkpt>
<trkpt lat="60.941706667" lon="15.102773333">
<time>2014-07-06T11:59:02Z</time>
 <fix>none</fix>
 <sat>0</sat>
</trkpt>
<trkpt lat="60.941706667" lon="15.102773333">
<time>2014-07-06T11:59:03Z</time>
 <fix>none</fix>
 <sat>0</sat>
</trkpt>
<trkpt lat="60.941640000" lon="15.102421667">
<time>2014-07-06T11:59:04Z</time>
 <fix>none</fix>
 <sat>0</sat>
</trkpt>
<trkpt lat="60.941566667" lon="15.102090000">
<time>2014-07-06T11:59:05Z</time>
 <fix>none</fix>
 <sat>0</sat>
</trkpt>
<trkpt lat="60.941566667" lon="15.102090000">
<time>2014-07-06T11:59:06Z</time>
 <fix>none</fix>
 <sat>0</sat>
</trkpt>
<trkpt lat="60.941566667" lon="15.102090000">
<time>2014-07-06T11:59:07Z</time>
 <fix>none</fix>
 <sat>0</sat>
</trkpt>
<trkpt lat="60.941531667" lon="15.101648333">
<time>2014-07-06T11:59:08Z</time>
 <fix>none</fix>
 <sat>0</sat>
</trkpt>
<trkpt lat="60.941531667" lon="15.101648333">
<time>2014-07-06T11:59:09Z</time>
 <fix>none</fix>
 <sat>0</sat>
</trkpt>
<trkpt lat="60.941538333" lon="15.101216667">
<time>2014-07-06T11:59:10Z</time>
 <fix>none</fix>
 <sat>0</sat>
</trkpt>
<trkpt lat="60.941538333" lon="15.101216667">
<time>2014-07-06T11:59:11Z</time>
 <fix>none</fix>
 <sat>0</sat>
</trkpt>
<trkpt lat="60.941533333" lon="15.100856667">
<time>2014-07-06T11:59:12Z</time>
 <fix>none</fix>
 <sat>0</sat>
</trkpt>
<trkpt lat="60.941510000" lon="15.100796667">
<time>2014-07-06T11:59:13Z</time>
 <fix>none</fix>
 <sat>0</sat>
</trkpt>
<trkpt lat="60.941523333" lon="15.100658333">
<time>2014-07-06T11:59:14Z</time>
 <fix>none</fix>
 <sat>0</sat>
</trkpt>
<trkpt lat="60.941535000" lon="15.100481667">
<time>2014-07-06T11:59:15Z</time>
 <fix>none</fix>
 <sat>0</sat>
</trkpt>
<trkpt lat="60.941561667" lon="15.100271667">
<time>2014-07-06T11:59:16Z</time>
 <fix>none</fix>
 <sat>0</sat>
</trkpt>
<trkpt lat="60.941545000" lon="15.100110000">
<time>2014-07-06T11:59:17Z</time>
 <fix>none</fix>
 <sat>0</sat>
</trkpt>
<trkpt lat="60.941535000" lon="15.099918333">
<time>2014-07-06T11:59:18Z</time>
 <fix>none</fix>
 <sat>0</sat>
</trkpt>
<trkpt lat="60.941526667" lon="15.099720000">
<time>2014-07-06T11:59:19Z</time>
 <fix>none</fix>
 <sat>0</sat>
</trkpt>
<trkpt lat="60.941518333" lon="15.099526667">
<time>2014-07-06T11:59:20Z</time>
 <fix>none</fix>
 <sat>0</sat>
</trkpt>
<trkpt lat="60.941491667" lon="15.099353333">
<time>2014-07-06T11:59:21Z</time>
 <fix>none</fix>
 <sat>0</sat>
</trkpt>
<trkpt lat="60.941491667" lon="15.099353333">
<time>2014-07-06T11:59:22Z</time>
 <fix>none</fix>
 <sat>0</sat>
</trkpt>
<trkpt lat="60.941465000" lon="15.099173333">
<time>2014-07-06T11:59:23Z</time>
 <fix>none</fix>
 <sat>0</sat>
</trkpt>
<trkpt lat="60.941440000" lon="15.098993333">
<time>2014-07-06T11:59:24Z</time>
 <fix>none</fix>
 <sat>0</sat>
</trkpt>
<trkpt lat="60.941415000" lon="15.098818333">
<time>2014-07-06T11:59:25Z</time>
 <fix>none</fix>
 <sat>0</sat>
</trkpt>
<trkpt lat="60.941386667" lon="15.098651667">
<time>2014-07-06T11:59:26Z</time>
 <fix>none</fix>
 <sat>0</sat>
</trkpt>
<trkpt lat="60.941358333" lon="15.098491667">
<time>2014-07-06T11:59:27Z</time>
 <fix>none</fix>
 <sat>0</sat>
</trkpt>
<trkpt lat="60.941298333" lon="15.098178333">
<time>2014-07-06T11:59:28Z</time>
 <fix>none</fix>
 <sat>0</sat>
</trkpt>
<trkpt lat="60.941298333" lon="15.098178333">
<time>2014-07-06T11:59:29Z</time>
 <fix>none</fix>
 <sat>0</sat>
</trkpt>
<trkpt lat="60.941231667" lon="15.097910000">
<time>2014-07-06T11:59:30Z</time>
 <fix>none</fix>
 <sat>0</sat>
</trkpt>
<trkpt lat="60.941196667" lon="15.097783333">
<time>2014-07-06T11:59:31Z</time>
 <fix>none</fix>
 <sat>0</sat>
</trkpt>
<trkpt lat="60.941171667" lon="15.097648333">
<time>2014-07-06T11:59:32Z</time>
 <fix>none</fix>
 <sat>0</sat>
</trkpt>
<trkpt lat="60.941146667" lon="15.097528333">
<time>2014-07-06T11:59:33Z</time>
 <fix>none</fix>
 <sat>0</sat>
</trkpt>
<trkpt lat="60.941126667" lon="15.097423333">
<time>2014-07-06T11:59:34Z</time>
 <fix>none</fix>
 <sat>0</sat>
</trkpt>
<trkpt lat="60.941115000" lon="15.097316667">
<time>2014-07-06T11:59:35Z</time>
 <fix>none</fix>
 <sat>0</sat>
</trkpt>
<trkpt lat="60.941101667" lon="15.097230000">
<time>2014-07-06T11:59:36Z</time>
 <fix>none</fix>
 <sat>0</sat>
</trkpt>
<trkpt lat="60.941086667" lon="15.097153333">
<time>2014-07-06T11:59:37Z</time>
 <fix>none</fix>
 <sat>0</sat>
</trkpt>
<trkpt lat="60.941081667" lon="15.097066667">
<time>2014-07-06T11:59:38Z</time>
 <fix>none</fix>
 <sat>0</sat>
</trkpt>
<trkpt lat="60.941081667" lon="15.096975000">
<time>2014-07-06T11:59:39Z</time>
 <fix>none</fix>
 <sat>0</sat>
</trkpt>
<trkpt lat="60.941083333" lon="15.096865000">
<time>2014-07-06T11:59:40Z</time>
 <fix>none</fix>
 <sat>0</sat>
</trkpt>
<trkpt lat="60.941090000" lon="15.096763333">
<time>2014-07-06T11:59:41Z</time>
 <fix>none</fix>
 <sat>0</sat>
</trkpt>
<trkpt lat="60.941103333" lon="15.096651667">
<time>2014-07-06T11:59:42Z</time>
 <fix>none</fix>
 <sat>0</sat>
</trkpt>
<trkpt lat="60.941108333" lon="15.096555000">
<time>2014-07-06T11:59:43Z</time>
 <fix>none</fix>
 <sat>0</sat>
</trkpt>
<trkpt lat="60.941116667" lon="15.096445000">
<time>2014-07-06T11:59:44Z</time>
 <fix>none</fix>
 <sat>0</sat>
</trkpt>
<trkpt lat="60.941116667" lon="15.096445000">
<time>2014-07-06T11:59:45Z</time>
 <fix>none</fix>
 <sat>0</sat>
</trkpt>
<trkpt lat="60.941113333" lon="15.096355000">
<time>2014-07-06T11:59:46Z</time>
 <fix>none</fix>
 <sat>0</sat>
</trkpt>
<trkpt lat="60.941111667" lon="15.096231667">
<time>2014-07-06T11:59:47Z</time>
 <fix>none</fix>
 <sat>0</sat>
</trkpt>
<trkpt lat="60.941116667" lon="15.096095000">
<time>2014-07-06T11:59:48Z</time>
 <fix>none</fix>
 <sat>0</sat>
</trkpt>
<trkpt lat="60.941116667" lon="15.095950000">
<time>2014-07-06T11:59:49Z</time>
 <fix>none</fix>
 <sat>0</sat>
</trkpt>
<trkpt lat="60.941115000" lon="15.095791667">
<time>2014-07-06T11:59:50Z</time>
 <fix>none</fix>
 <sat>0</sat>
</trkpt>
<trkpt lat="60.941118333" lon="15.095626667">
<time>2014-07-06T11:59:51Z</time>
 <fix>none</fix>
 <sat>0</sat>
</trkpt>
<trkpt lat="60.941106667" lon="15.095311667">
<time>2014-07-06T11:59:52Z</time>
 <fix>none</fix>
 <sat>0</sat>
</trkpt>
<trkpt lat="60.941105000" lon="15.095158333">
<time>2014-07-06T11:59:53Z</time>
 <fix>none</fix>
 <sat>0</sat>
</trkpt>
<trkpt lat="60.941100000" lon="15.094993333">
<time>2014-07-06T11:59:54Z</time>
 <fix>none</fix>
 <sat>0</sat>
</trkpt>
<trkpt lat="60.941090000" lon="15.094838333">
<time>2014-07-06T11:59:55Z</time>
 <fix>none</fix>
 <sat>0</sat>
</trkpt>
<trkpt lat="60.941075000" lon="15.094678333">
<time>2014-07-06T11:59:56Z</time>
 <fix>none</fix>
 <sat>0</sat>
</trkpt>
<trkpt lat="60.941055000" lon="15.094551667">
<time>2014-07-06T11:59:57Z</time>
 <fix>none</fix>
 <sat>0</sat>
</trkpt>
<trkpt lat="60.941040000" lon="15.094403333">
<time>2014-07-06T11:59:58Z</time>
 <fix>none</fix>
 <sat>0</sat>
</trkpt>
<trkpt lat="60.941021667" lon="15.094246667">
<time>2014-07-06T11:59:59Z</time>
 <fix>none</fix>
 <sat>0</sat>
</trkpt>
<trkpt lat="60.940995000" lon="15.094103333">
<time>2014-07-06T12:00:00Z</time>
 <fix>none</fix>
 <sat>0</sat>
</trkpt>
<trkpt lat="60.940973333" lon="15.093950000">
<time>2014-07-06T12:00:01Z</time>
 <fix>none</fix>
 <sat>0</sat>
</trkpt>
<trkpt lat="60.940950000" lon="15.093790000">
<time>2014-07-06T12:00:02Z</time>
 <fix>none</fix>
 <sat>0</sat>
</trkpt>
<trkpt lat="60.940915000" lon="15.093633333">
<time>2014-07-06T12:00:03Z</time>
 <fix>none</fix>
 <sat>0</sat>
</trkpt>
<trkpt lat="60.940875000" lon="15.093460000">
<time>2014-07-06T12:00:04Z</time>
 <fix>none</fix>
 <sat>0</sat>
</trkpt>
<trkpt lat="60.940871667" lon="15.093258333">
<time>2014-07-06T12:00:05Z</time>
 <fix>none</fix>
 <sat>0</sat>
</trkpt>
<trkpt lat="60.940868333" lon="15.093046667">
<time>2014-07-06T12:00:06Z</time>
 <fix>none</fix>
 <sat>0</sat>
</trkpt>
<trkpt lat="60.940850000" lon="15.092845000">
<time>2014-07-06T12:00:07Z</time>
 <fix>none</fix>
 <sat>0</sat>
</trkpt>
<trkpt lat="60.940850000" lon="15.092845000">
<time>2014-07-06T12:00:08Z</time>
 <fix>none</fix>
 <sat>0</sat>
</trkpt>
<trkpt lat="60.940828333" lon="15.092648333">
<time>2014-07-06T12:00:09Z</time>
 <fix>none</fix>
 <sat>0</sat>
</trkpt>
<trkpt lat="60.940808333" lon="15.092463333">
<time>2014-07-06T12:00:10Z</time>
 <fix>none</fix>
 <sat>0</sat>
</trkpt>
<trkpt lat="60.940780000" lon="15.092293333">
<time>2014-07-06T12:00:11Z</time>
 <fix>none</fix>
 <sat>0</sat>
</trkpt>
<trkpt lat="60.940746667" lon="15.092133333">
<time>2014-07-06T12:00:12Z</time>
 <fix>none</fix>
 <sat>0</sat>
</trkpt>
<trkpt lat="60.940723333" lon="15.091956667">
<time>2014-07-06T12:00:13Z</time>
 <fix>none</fix>
 <sat>0</sat>
</trkpt>
<trkpt lat="60.940676667" lon="15.091620000">
<time>2014-07-06T12:00:14Z</time>
 <fix>none</fix>
 <sat>0</sat>
</trkpt>
<trkpt lat="60.940676667" lon="15.091620000">
<time>2014-07-06T12:00:15Z</time>
 <fix>none</fix>
 <sat>0</sat>
</trkpt>
<trkpt lat="60.940618333" lon="15.091336667">
<time>2014-07-06T12:00:16Z</time>
 <fix>none</fix>
 <sat>0</sat>
</trkpt>
<trkpt lat="60.940618333" lon="15.091336667">
<time>2014-07-06T12:00:17Z</time>
 <fix>none</fix>
 <sat>0</sat>
</trkpt>
<trkpt lat="60.940618333" lon="15.091336667">
<time>2014-07-06T12:00:18Z</time>
 <fix>none</fix>
 <sat>0</sat>
</trkpt>
<trkpt lat="60.940520000" lon="15.090946667">
<time>2014-07-06T12:00:19Z</time>
 <fix>none</fix>
 <sat>0</sat>
</trkpt>
<trkpt lat="60.940520000" lon="15.090946667">
<time>2014-07-06T12:00:20Z</time>
 <fix>none</fix>
 <sat>0</sat>
</trkpt>
<trkpt lat="60.940461667" lon="15.090705000">
<time>2014-07-06T12:00:21Z</time>
 <fix>none</fix>
 <sat>0</sat>
</trkpt>
<trkpt lat="60.940461667" lon="15.090705000">
<time>2014-07-06T12:00:22Z</time>
 <fix>none</fix>
 <sat>0</sat>
</trkpt>
<trkpt lat="60.940398333" lon="15.090495000">
<time>2014-07-06T12:00:23Z</time>
 <fix>none</fix>
 <sat>0</sat>
</trkpt>
<trkpt lat="60.940398333" lon="15.090495000">
<time>2014-07-06T12:00:24Z</time>
 <fix>none</fix>
 <sat>0</sat>
</trkpt>
<trkpt lat="60.940330000" lon="15.090293333">
<time>2014-07-06T12:00:25Z</time>
 <fix>none</fix>
 <sat>0</sat>
</trkpt>
<trkpt lat="60.940300000" lon="15.090221667">
<time>2014-07-06T12:00:26Z</time>
 <fix>none</fix>
 <sat>0</sat>
</trkpt>
<trkpt lat="60.940278333" lon="15.090111667">
<time>2014-07-06T12:00:27Z</time>
 <fix>none</fix>
 <sat>0</sat>
</trkpt>
<trkpt lat="60.940241667" lon="15.090026667">
<time>2014-07-06T12:00:28Z</time>
 <fix>none</fix>
 <sat>0</sat>
</trkpt>
<trkpt lat="60.940221667" lon="15.089915000">
<time>2014-07-06T12:00:29Z</time>
 <fix>none</fix>
 <sat>0</sat>
</trkpt>
<trkpt lat="60.940198333" lon="15.089811667">
<time>2014-07-06T12:00:30Z</time>
 <fix>none</fix>
 <sat>0</sat>
</trkpt>
<trkpt lat="60.940198333" lon="15.089811667">
<time>2014-07-06T12:00:31Z</time>
 <fix>none</fix>
 <sat>0</sat>
</trkpt>
<trkpt lat="60.940161667" lon="15.089728333">
<time>2014-07-06T12:00:32Z</time>
 <fix>none</fix>
 <sat>0</sat>
</trkpt>
<trkpt lat="60.940125000" lon="15.089645000">
<time>2014-07-06T12:00:33Z</time>
 <fix>none</fix>
 <sat>0</sat>
</trkpt>
<trkpt lat="60.940093333" lon="15.089548333">
<time>2014-07-06T12:00:34Z</time>
 <fix>none</fix>
 <sat>0</sat>
</trkpt>
<trkpt lat="60.940068333" lon="15.089451667">
<time>2014-07-06T12:00:35Z</time>
 <fix>none</fix>
 <sat>0</sat>
</trkpt>
<trkpt lat="60.940035000" lon="15.089366667">
<time>2014-07-06T12:00:36Z</time>
 <fix>none</fix>
 <sat>0</sat>
</trkpt>
<trkpt lat="60.939978333" lon="15.089178333">
<time>2014-07-06T12:00:37Z</time>
 <fix>none</fix>
 <sat>0</sat>
</trkpt>
<trkpt lat="60.939978333" lon="15.089178333">
<time>2014-07-06T12:00:38Z</time>
 <fix>none</fix>
 <sat>0</sat>
</trkpt>
<trkpt lat="60.939978333" lon="15.089178333">
<time>2014-07-06T12:00:39Z</time>
 <fix>none</fix>
 <sat>0</sat>
</trkpt>
<trkpt lat="60.939895000" lon="15.088850000">
<time>2014-07-06T12:00:40Z</time>
 <fix>none</fix>
 <sat>0</sat>
</trkpt>
<trkpt lat="60.939895000" lon="15.088850000">
<time>2014-07-06T12:00:41Z</time>
 <fix>none</fix>
 <sat>0</sat>
</trkpt>
<trkpt lat="60.939856667" lon="15.088615000">
<time>2014-07-06T12:00:42Z</time>
 <fix>none</fix>
 <sat>0</sat>
</trkpt>
<trkpt lat="60.939856667" lon="15.088615000">
<time>2014-07-06T12:00:43Z</time>
 <fix>none</fix>
 <sat>0</sat>
</trkpt>
<trkpt lat="60.939848333" lon="15.088375000">
<time>2014-07-06T12:00:44Z</time>
 <fix>none</fix>
 <sat>0</sat>
</trkpt>
<trkpt lat="60.939848333" lon="15.088375000">
<time>2014-07-06T12:00:45Z</time>
 <fix>none</fix>
 <sat>0</sat>
</trkpt>
<trkpt lat="60.939853333" lon="15.088091667">
<time>2014-07-06T12:00:46Z</time>
 <fix>none</fix>
 <sat>0</sat>
</trkpt>
<trkpt lat="60.939853333" lon="15.088091667">
<time>2014-07-06T12:00:47Z</time>
 <fix>none</fix>
 <sat>0</sat>
</trkpt>
<trkpt lat="60.939875000" lon="15.087760000">
<time>2014-07-06T12:00:48Z</time>
 <fix>none</fix>
 <sat>0</sat>
</trkpt>
<trkpt lat="60.939888333" lon="15.087606667">
<time>2014-07-06T12:00:49Z</time>
 <fix>none</fix>
 <sat>0</sat>
</trkpt>
<trkpt lat="60.939913333" lon="15.087411667">
<time>2014-07-06T12:00:50Z</time>
 <fix>none</fix>
 <sat>0</sat>
</trkpt>
<trkpt lat="60.939906667" lon="15.087196667">
<time>2014-07-06T12:00:51Z</time>
 <fix>none</fix>
 <sat>0</sat>
</trkpt>
<trkpt lat="60.939901667" lon="15.086960000">
<time>2014-07-06T12:00:52Z</time>
 <fix>none</fix>
 <sat>0</sat>
</trkpt>
<trkpt lat="60.939876667" lon="15.086748333">
<time>2014-07-06T12:00:53Z</time>
 <fix>none</fix>
 <sat>0</sat>
</trkpt>
<trkpt lat="60.939876667" lon="15.086748333">
<time>2014-07-06T12:00:54Z</time>
 <fix>none</fix>
 <sat>0</sat>
</trkpt>
<trkpt lat="60.939818333" lon="15.086588333">
<time>2014-07-06T12:00:55Z</time>
 <fix>none</fix>
 <sat>0</sat>
</trkpt>
<trkpt lat="60.939778333" lon="15.086390000">
<time>2014-07-06T12:00:56Z</time>
 <fix>none</fix>
 <sat>0</sat>
</trkpt>
<trkpt lat="60.939720000" lon="15.086218333">
<time>2014-07-06T12:00:57Z</time>
 <fix>none</fix>
 <sat>0</sat>
</trkpt>
<trkpt lat="60.939636667" lon="15.086078333">
<time>2014-07-06T12:00:58Z</time>
 <fix>none</fix>
 <sat>0</sat>
</trkpt>
<trkpt lat="60.939556667" lon="15.085926667">
<time>2014-07-06T12:00:59Z</time>
 <fix>none</fix>
 <sat>0</sat>
</trkpt>
<trkpt lat="60.939435000" lon="15.085593333">
<time>2014-07-06T12:01:00Z</time>
 <fix>none</fix>
 <sat>0</sat>
</trkpt>
<trkpt lat="60.939435000" lon="15.085593333">
<time>2014-07-06T12:01:01Z</time>
 <fix>none</fix>
 <sat>0</sat>
</trkpt>
<trkpt lat="60.939303333" lon="15.085306667">
<time>2014-07-06T12:01:02Z</time>
 <fix>none</fix>
 <sat>0</sat>
</trkpt>
<trkpt lat="60.939230000" lon="15.085190000">
<time>2014-07-06T12:01:03Z</time>
 <fix>none</fix>
 <sat>0</sat>
</trkpt>
<trkpt lat="60.939153333" lon="15.085076667">
<time>2014-07-06T12:01:04Z</time>
 <fix>none</fix>
 <sat>0</sat>
</trkpt>
<trkpt lat="60.939070000" lon="15.084970000">
<time>2014-07-06T12:01:05Z</time>
 <fix>none</fix>
 <sat>0</sat>
</trkpt>
<trkpt lat="60.938981667" lon="15.084866667">
<time>2014-07-06T12:01:06Z</time>
 <fix>none</fix>
 <sat>0</sat>
</trkpt>
<trkpt lat="60.938895000" lon="15.084758333">
<time>2014-07-06T12:01:07Z</time>
 <fix>none</fix>
 <sat>0</sat>
</trkpt>
<trkpt lat="60.938798333" lon="15.084668333">
<time>2014-07-06T12:01:08Z</time>
 <fix>none</fix>
 <sat>0</sat>
</trkpt>
<trkpt lat="60.938708333" lon="15.084560000">
<time>2014-07-06T12:01:09Z</time>
 <fix>none</fix>
 <sat>0</sat>
</trkpt>
<trkpt lat="60.938618333" lon="15.084460000">
<time>2014-07-06T12:01:10Z</time>
 <fix>none</fix>
 <sat>0</sat>
</trkpt>
<trkpt lat="60.938535000" lon="15.084355000">
<time>2014-07-06T12:01:11Z</time>
 <fix>none</fix>
 <sat>0</sat>
</trkpt>
<trkpt lat="60.938446667" lon="15.084265000">
<time>2014-07-06T12:01:12Z</time>
 <fix>none</fix>
 <sat>0</sat>
</trkpt>
<trkpt lat="60.938366667" lon="15.084171667">
<time>2014-07-06T12:01:13Z</time>
 <fix>none</fix>
 <sat>0</sat>
</trkpt>
<trkpt lat="60.938280000" lon="15.084083333">
<time>2014-07-06T12:01:14Z</time>
 <fix>none</fix>
 <sat>0</sat>
</trkpt>
<trkpt lat="60.938198333" lon="15.083986667">
<time>2014-07-06T12:01:15Z</time>
 <fix>none</fix>
 <sat>0</sat>
</trkpt>
<trkpt lat="60.938198333" lon="15.083986667">
<time>2014-07-06T12:01:16Z</time>
 <fix>none</fix>
 <sat>0</sat>
</trkpt>
<trkpt lat="60.938116667" lon="15.083893333">
<time>2014-07-06T12:01:17Z</time>
 <fix>none</fix>
 <sat>0</sat>
</trkpt>
<trkpt lat="60.938036667" lon="15.083795000">
<time>2014-07-06T12:01:18Z</time>
 <fix>none</fix>
 <sat>0</sat>
</trkpt>
<trkpt lat="60.937951667" lon="15.083691667">
<time>2014-07-06T12:01:19Z</time>
 <fix>none</fix>
 <sat>0</sat>
</trkpt>
<trkpt lat="60.937870000" lon="15.083581667">
<time>2014-07-06T12:01:20Z</time>
 <fix>none</fix>
 <sat>0</sat>
</trkpt>
<trkpt lat="60.937765000" lon="15.083486667">
<time>2014-07-06T12:01:21Z</time>
 <fix>none</fix>
 <sat>0</sat>
</trkpt>
<trkpt lat="60.937603333" lon="15.083331667">
<time>2014-07-06T12:01:22Z</time>
 <fix>none</fix>
 <sat>0</sat>
</trkpt>
<trkpt lat="60.937603333" lon="15.083331667">
<time>2014-07-06T12:01:23Z</time>
 <fix>none</fix>
 <sat>0</sat>
</trkpt>
<trkpt lat="60.937455000" lon="15.083355000">
<time>2014-07-06T12:01:24Z</time>
 <fix>none</fix>
 <sat>0</sat>
</trkpt>
<trkpt lat="60.937393333" lon="15.083415000">
<time>2014-07-06T12:01:25Z</time>
 <fix>none</fix>
 <sat>0</sat>
</trkpt>
<trkpt lat="60.937335000" lon="15.083500000">
<time>2014-07-06T12:01:26Z</time>
 <fix>none</fix>
 <sat>0</sat>
</trkpt>
<trkpt lat="60.937280000" lon="15.083595000">
<time>2014-07-06T12:01:27Z</time>
 <fix>none</fix>
 <sat>0</sat>
</trkpt>
<trkpt lat="60.937228333" lon="15.083690000">
<time>2014-07-06T12:01:28Z</time>
 <fix>none</fix>
 <sat>0</sat>
</trkpt>
<trkpt lat="60.937181667" lon="15.083776667">
<time>2014-07-06T12:01:29Z</time>
 <fix>none</fix>
 <sat>0</sat>
</trkpt>
<trkpt lat="60.937133333" lon="15.083856667">
<time>2014-07-06T12:01:30Z</time>
 <fix>none</fix>
 <sat>0</sat>
</trkpt>
<trkpt lat="60.937088333" lon="15.083926667">
<time>2014-07-06T12:01:31Z</time>
 <fix>none</fix>
 <sat>0</sat>
</trkpt>
<trkpt lat="60.937043333" lon="15.083990000">
<time>2014-07-06T12:01:32Z</time>
 <fix>none</fix>
 <sat>0</sat>
</trkpt>
<trkpt lat="60.937001667" lon="15.084048333">
<time>2014-07-06T12:01:33Z</time>
 <fix>none</fix>
 <sat>0</sat>
</trkpt>
<trkpt lat="60.936960000" lon="15.084095000">
<time>2014-07-06T12:01:34Z</time>
 <fix>none</fix>
 <sat>0</sat>
</trkpt>
<trkpt lat="60.936906667" lon="15.084138333">
<time>2014-07-06T12:01:35Z</time>
 <fix>none</fix>
 <sat>0</sat>
</trkpt>
<trkpt lat="60.936853333" lon="15.084180000">
<time>2014-07-06T12:01:36Z</time>
 <fix>none</fix>
 <sat>0</sat>
</trkpt>
<trkpt lat="60.936798333" lon="15.084215000">
<time>2014-07-06T12:01:37Z</time>
 <fix>none</fix>
 <sat>0</sat>
</trkpt>
<trkpt lat="60.936743333" lon="15.084248333">
<time>2014-07-06T12:01:38Z</time>
 <fix>none</fix>
 <sat>0</sat>
</trkpt>
<trkpt lat="60.936743333" lon="15.084248333">
<time>2014-07-06T12:01:39Z</time>
 <fix>none</fix>
 <sat>0</sat>
</trkpt>
<trkpt lat="60.936690000" lon="15.084286667">
<time>2014-07-06T12:01:40Z</time>
 <fix>none</fix>
 <sat>0</sat>
</trkpt>
<trkpt lat="60.936690000" lon="15.084286667">
<time>2014-07-06T12:01:41Z</time>
 <fix>none</fix>
 <sat>0</sat>
</trkpt>
<trkpt lat="60.936545000" lon="15.084451667">
<time>2014-07-06T12:01:42Z</time>
 <fix>none</fix>
 <sat>0</sat>
</trkpt>
<trkpt lat="60.936545000" lon="15.084451667">
<time>2014-07-06T12:01:43Z</time>
 <fix>none</fix>
 <sat>0</sat>
</trkpt>
<trkpt lat="60.936446667" lon="15.084593333">
<time>2014-07-06T12:01:44Z</time>
 <fix>none</fix>
 <sat>0</sat>
</trkpt>
<trkpt lat="60.936341667" lon="15.084736667">
<time>2014-07-06T12:01:45Z</time>
 <fix>none</fix>
 <sat>0</sat>
</trkpt>
<trkpt lat="60.936341667" lon="15.084736667">
<time>2014-07-06T12:01:46Z</time>
 <fix>none</fix>
 <sat>0</sat>
</trkpt>
<trkpt lat="60.936341667" lon="15.084736667">
<time>2014-07-06T12:01:47Z</time>
 <fix>none</fix>
 <sat>0</sat>
</trkpt>
<trkpt lat="60.936248333" lon="15.084855000">
<time>2014-07-06T12:01:48Z</time>
 <fix>none</fix>
 <sat>0</sat>
</trkpt>
<trkpt lat="60.936248333" lon="15.084855000">
<time>2014-07-06T12:01:49Z</time>
 <fix>none</fix>
 <sat>0</sat>
</trkpt>
<trkpt lat="60.936140000" lon="15.084971667">
<time>2014-07-06T12:01:50Z</time>
 <fix>none</fix>
 <sat>0</sat>
</trkpt>
<trkpt lat="60.936140000" lon="15.084971667">
<time>2014-07-06T12:01:51Z</time>
 <fix>none</fix>
 <sat>0</sat>
</trkpt>
<trkpt lat="60.936011667" lon="15.085101667">
<time>2014-07-06T12:01:52Z</time>
 <fix>none</fix>
 <sat>0</sat>
</trkpt>
<trkpt lat="60.936011667" lon="15.085101667">
<time>2014-07-06T12:01:53Z</time>
 <fix>none</fix>
 <sat>0</sat>
</trkpt>
<trkpt lat="60.935890000" lon="15.085213333">
<time>2014-07-06T12:01:54Z</time>
 <fix>none</fix>
 <sat>0</sat>
</trkpt>
<trkpt lat="60.935890000" lon="15.085213333">
<time>2014-07-06T12:01:55Z</time>
 <fix>none</fix>
 <sat>0</sat>
</trkpt>
<trkpt lat="60.935786667" lon="15.085318333">
<time>2014-07-06T12:01:56Z</time>
 <fix>none</fix>
 <sat>0</sat>
</trkpt>
<trkpt lat="60.935766667" lon="15.085348333">
<time>2014-07-06T12:01:57Z</time>
 <fix>none</fix>
 <sat>0</sat>
</trkpt>
<trkpt lat="60.935725000" lon="15.085393333">
<time>2014-07-06T12:01:58Z</time>
 <fix>none</fix>
 <sat>0</sat>
</trkpt>
<trkpt lat="60.935665000" lon="15.085443333">
<time>2014-07-06T12:01:59Z</time>
 <fix>none</fix>
 <sat>0</sat>
</trkpt>
<trkpt lat="60.935608333" lon="15.085490000">
<time>2014-07-06T12:02:00Z</time>
 <fix>none</fix>
 <sat>0</sat>
</trkpt>
<trkpt lat="60.935586667" lon="15.085525000">
<time>2014-07-06T12:02:01Z</time>
 <fix>none</fix>
 <sat>0</sat>
</trkpt>
<trkpt lat="60.935586667" lon="15.085525000">
<time>2014-07-06T12:02:02Z</time>
 <fix>none</fix>
 <sat>0</sat>
</trkpt>
<trkpt lat="60.935570000" lon="15.085535000">
<time>2014-07-06T12:02:03Z</time>
 <fix>none</fix>
 <sat>0</sat>
</trkpt>
<trkpt lat="60.935525000" lon="15.085571667">
<time>2014-07-06T12:02:04Z</time>
 <fix>none</fix>
 <sat>0</sat>
</trkpt>
<trkpt lat="60.935480000" lon="15.085603333">
<time>2014-07-06T12:02:05Z</time>
 <fix>none</fix>
 <sat>0</sat>
</trkpt>
<trkpt lat="60.935430000" lon="15.085628333">
<time>2014-07-06T12:02:06Z</time>
 <fix>none</fix>
 <sat>0</sat>
</trkpt>
<trkpt lat="60.935385000" lon="15.085671667">
<time>2014-07-06T12:02:07Z</time>
 <fix>none</fix>
 <sat>0</sat>
</trkpt>
<trkpt lat="60.935300000" lon="15.085725000">
<time>2014-07-06T12:02:08Z</time>
 <fix>none</fix>
 <sat>0</sat>
</trkpt>
<trkpt lat="60.935300000" lon="15.085725000">
<time>2014-07-06T12:02:09Z</time>
 <fix>none</fix>
 <sat>0</sat>
</trkpt>
<trkpt lat="60.935208333" lon="15.085795000">
<time>2014-07-06T12:02:10Z</time>
 <fix>none</fix>
 <sat>0</sat>
</trkpt>
<trkpt lat="60.935166667" lon="15.085825000">
<time>2014-07-06T12:02:11Z</time>
 <fix>none</fix>
 <sat>0</sat>
</trkpt>
<trkpt lat="60.935123333" lon="15.085843333">
<time>2014-07-06T12:02:12Z</time>
 <fix>none</fix>
 <sat>0</sat>
</trkpt>
<trkpt lat="60.935085000" lon="15.085865000">
<time>2014-07-06T12:02:13Z</time>
 <fix>none</fix>
 <sat>0</sat>
</trkpt>
<trkpt lat="60.935048333" lon="15.085883333">
<time>2014-07-06T12:02:14Z</time>
 <fix>none</fix>
 <sat>0</sat>
</trkpt>
<trkpt lat="60.935008333" lon="15.085905000">
<time>2014-07-06T12:02:15Z</time>
 <fix>none</fix>
 <sat>0</sat>
</trkpt>
<trkpt lat="60.934968333" lon="15.085920000">
<time>2014-07-06T12:02:16Z</time>
 <fix>none</fix>
 <sat>0</sat>
</trkpt>
<trkpt lat="60.934925000" lon="15.085938333">
<time>2014-07-06T12:02:17Z</time>
 <fix>none</fix>
 <sat>0</sat>
</trkpt>
<trkpt lat="60.934880000" lon="15.085963333">
<time>2014-07-06T12:02:18Z</time>
 <fix>none</fix>
 <sat>0</sat>
</trkpt>
<trkpt lat="60.934833333" lon="15.085981667">
<time>2014-07-06T12:02:19Z</time>
 <fix>none</fix>
 <sat>0</sat>
</trkpt>
<trkpt lat="60.934795000" lon="15.085985000">
<time>2014-07-06T12:02:20Z</time>
 <fix>none</fix>
 <sat>0</sat>
</trkpt>
<trkpt lat="60.934740000" lon="15.085986667">
<time>2014-07-06T12:02:21Z</time>
 <fix>none</fix>
 <sat>0</sat>
</trkpt>
<trkpt lat="60.934688333" lon="15.085985000">
<time>2014-07-06T12:02:22Z</time>
 <fix>none</fix>
 <sat>0</sat>
</trkpt>
<trkpt lat="60.934646667" lon="15.085998333">
<time>2014-07-06T12:02:23Z</time>
 <fix>none</fix>
 <sat>0</sat>
</trkpt>
<trkpt lat="60.934600000" lon="15.086000000">
<time>2014-07-06T12:02:24Z</time>
 <fix>none</fix>
 <sat>0</sat>
</trkpt>
<trkpt lat="60.934600000" lon="15.086000000">
<time>2014-07-06T12:02:25Z</time>
 <fix>none</fix>
 <sat>0</sat>
</trkpt>
<trkpt lat="60.934556667" lon="15.086001667">
<time>2014-07-06T12:02:26Z</time>
 <fix>none</fix>
 <sat>0</sat>
</trkpt>
<trkpt lat="60.934496667" lon="15.085995000">
<time>2014-07-06T12:02:27Z</time>
 <fix>none</fix>
 <sat>0</sat>
</trkpt>
<trkpt lat="60.934440000" lon="15.086001667">
<time>2014-07-06T12:02:28Z</time>
 <fix>none</fix>
 <sat>0</sat>
</trkpt>
<trkpt lat="60.934388333" lon="15.086005000">
<time>2014-07-06T12:02:29Z</time>
 <fix>none</fix>
 <sat>0</sat>
</trkpt>
<trkpt lat="60.934295000" lon="15.086013333">
<time>2014-07-06T12:02:30Z</time>
 <fix>none</fix>
 <sat>0</sat>
</trkpt>
<trkpt lat="60.934295000" lon="15.086013333">
<time>2014-07-06T12:02:31Z</time>
 <fix>none</fix>
 <sat>0</sat>
</trkpt>
<trkpt lat="60.934208333" lon="15.086031667">
<time>2014-07-06T12:02:32Z</time>
 <fix>none</fix>
 <sat>0</sat>
</trkpt>
<trkpt lat="60.934163333" lon="15.086045000">
<time>2014-07-06T12:02:33Z</time>
 <fix>none</fix>
 <sat>0</sat>
</trkpt>
<trkpt lat="60.934120000" lon="15.086061667">
<time>2014-07-06T12:02:34Z</time>
 <fix>none</fix>
 <sat>0</sat>
</trkpt>
<trkpt lat="60.934073333" lon="15.086080000">
<time>2014-07-06T12:02:35Z</time>
 <fix>none</fix>
 <sat>0</sat>
</trkpt>
<trkpt lat="60.934028333" lon="15.086106667">
<time>2014-07-06T12:02:36Z</time>
 <fix>none</fix>
 <sat>0</sat>
</trkpt>
<trkpt lat="60.933978333" lon="15.086140000">
<time>2014-07-06T12:02:37Z</time>
 <fix>none</fix>
 <sat>0</sat>
</trkpt>
<trkpt lat="60.933931667" lon="15.086161667">
<time>2014-07-06T12:02:38Z</time>
 <fix>none</fix>
 <sat>0</sat>
</trkpt>
<trkpt lat="60.933883333" lon="15.086145000">
<time>2014-07-06T12:02:39Z</time>
 <fix>none</fix>
 <sat>0</sat>
</trkpt>
<trkpt lat="60.933843333" lon="15.086096667">
<time>2014-07-06T12:02:40Z</time>
 <fix>none</fix>
 <sat>0</sat>
</trkpt>
<trkpt lat="60.933816667" lon="15.086036667">
<time>2014-07-06T12:02:41Z</time>
 <fix>none</fix>
 <sat>0</sat>
</trkpt>
<trkpt lat="60.933798333" lon="15.085980000">
<time>2014-07-06T12:02:42Z</time>
 <fix>none</fix>
 <sat>0</sat>
</trkpt>
<trkpt lat="60.933798333" lon="15.085980000">
<time>2014-07-06T12:02:43Z</time>
 <fix>none</fix>
 <sat>0</sat>
</trkpt>
<trkpt lat="60.933798333" lon="15.085980000">
<time>2014-07-06T12:02:44Z</time>
 <fix>none</fix>
 <sat>0</sat>
</trkpt>
<trkpt lat="60.933776667" lon="15.085818333">
<time>2014-07-06T12:02:45Z</time>
 <fix>none</fix>
 <sat>0</sat>
</trkpt>
<trkpt lat="60.933776667" lon="15.085818333">
<time>2014-07-06T12:02:46Z</time>
 <fix>none</fix>
 <sat>0</sat>
</trkpt>
<trkpt lat="60.933773333" lon="15.085715000">
<time>2014-07-06T12:02:47Z</time>
 <fix>none</fix>
 <sat>0</sat>
</trkpt>
<trkpt lat="60.933768333" lon="15.085708333">
<time>2014-07-06T12:02:48Z</time>
 <fix>none</fix>
 <sat>0</sat>
</trkpt>
<trkpt lat="60.933753333" lon="15.085683333">
<time>2014-07-06T12:02:49Z</time>
 <fix>none</fix>
 <sat>0</sat>
</trkpt>
<trkpt lat="60.933748333" lon="15.085631667">
<time>2014-07-06T12:02:50Z</time>
 <fix>none</fix>
 <sat>0</sat>
</trkpt>
<trkpt lat="60.933758333" lon="15.085565000">
<time>2014-07-06T12:02:51Z</time>
 <fix>none</fix>
 <sat>0</sat>
</trkpt>
<trkpt lat="60.933766667" lon="15.085488333">
<time>2014-07-06T12:02:52Z</time>
 <fix>none</fix>
 <sat>0</sat>
</trkpt>
<trkpt lat="60.933780000" lon="15.085416667">
<time>2014-07-06T12:02:53Z</time>
 <fix>none</fix>
 <sat>0</sat>
</trkpt>
<trkpt lat="60.933798333" lon="15.085343333">
<time>2014-07-06T12:02:54Z</time>
 <fix>none</fix>
 <sat>0</sat>
</trkpt>
<trkpt lat="60.933825000" lon="15.085196667">
<time>2014-07-06T12:02:55Z</time>
 <fix>none</fix>
 <sat>0</sat>
</trkpt>
<trkpt lat="60.933838333" lon="15.085126667">
<time>2014-07-06T12:02:56Z</time>
 <fix>none</fix>
 <sat>0</sat>
</trkpt>
<trkpt lat="60.933848333" lon="15.085065000">
<time>2014-07-06T12:02:57Z</time>
 <fix>none</fix>
 <sat>0</sat>
</trkpt>
<trkpt lat="60.933855000" lon="15.085013333">
<time>2014-07-06T12:02:58Z</time>
 <fix>none</fix>
 <sat>0</sat>
</trkpt>
<trkpt lat="60.933863333" lon="15.084963333">
<time>2014-07-06T12:02:59Z</time>
 <fix>none</fix>
 <sat>0</sat>
</trkpt>
<trkpt lat="60.933875000" lon="15.084911667">
<time>2014-07-06T12:03:00Z</time>
 <fix>none</fix>
 <sat>0</sat>
</trkpt>
<trkpt lat="60.933875000" lon="15.084911667">
<time>2014-07-06T12:03:01Z</time>
 <fix>none</fix>
 <sat>0</sat>
</trkpt>
<trkpt lat="60.933875000" lon="15.084911667">
<time>2014-07-06T12:03:02Z</time>
 <fix>none</fix>
 <sat>0</sat>
</trkpt>
<trkpt lat="60.933926667" lon="15.084760000">
<time>2014-07-06T12:03:03Z</time>
 <fix>none</fix>
 <sat>0</sat>
</trkpt>
<trkpt lat="60.933926667" lon="15.084760000">
<time>2014-07-06T12:03:04Z</time>
 <fix>none</fix>
 <sat>0</sat>
</trkpt>
<trkpt lat="60.933966667" lon="15.084650000">
<time>2014-07-06T12:03:05Z</time>
 <fix>none</fix>
 <sat>0</sat>
</trkpt>
<trkpt lat="60.933966667" lon="15.084650000">
<time>2014-07-06T12:03:06Z</time>
 <fix>none</fix>
 <sat>0</sat>
</trkpt>
<trkpt lat="60.934001667" lon="15.084513333">
<time>2014-07-06T12:03:07Z</time>
 <fix>none</fix>
 <sat>0</sat>
</trkpt>
<trkpt lat="60.934001667" lon="15.084513333">
<time>2014-07-06T12:03:08Z</time>
 <fix>none</fix>
 <sat>0</sat>
</trkpt>
<trkpt lat="60.934041667" lon="15.084340000">
<time>2014-07-06T12:03:09Z</time>
 <fix>none</fix>
 <sat>0</sat>
</trkpt>
<trkpt lat="60.934041667" lon="15.084340000">
<time>2014-07-06T12:03:10Z</time>
 <fix>none</fix>
 <sat>0</sat>
</trkpt>
<trkpt lat="60.934090000" lon="15.084191667">
<time>2014-07-06T12:03:11Z</time>
 <fix>none</fix>
 <sat>0</sat>
</trkpt>
<trkpt lat="60.934090000" lon="15.084191667">
<time>2014-07-06T12:03:12Z</time>
 <fix>none</fix>
 <sat>0</sat>
</trkpt>
<trkpt lat="60.934153333" lon="15.084018333">
<time>2014-07-06T12:03:13Z</time>
 <fix>none</fix>
 <sat>0</sat>
</trkpt>
<trkpt lat="60.934153333" lon="15.084018333">
<time>2014-07-06T12:03:14Z</time>
 <fix>none</fix>
 <sat>0</sat>
</trkpt>
<trkpt lat="60.934241667" lon="15.083883333">
<time>2014-07-06T12:03:15Z</time>
 <fix>none</fix>
 <sat>0</sat>
</trkpt>
<trkpt lat="60.934241667" lon="15.083883333">
<time>2014-07-06T12:03:16Z</time>
 <fix>none</fix>
 <sat>0</sat>
</trkpt>
<trkpt lat="60.934241667" lon="15.083883333">
<time>2014-07-06T12:03:17Z</time>
 <fix>none</fix>
 <sat>0</sat>
</trkpt>
<trkpt lat="60.934376667" lon="15.083875000">
<time>2014-07-06T12:03:18Z</time>
 <fix>none</fix>
 <sat>0</sat>
</trkpt>
<trkpt lat="60.934480000" lon="15.083806667">
<time>2014-07-06T12:03:19Z</time>
 <fix>none</fix>
 <sat>0</sat>
</trkpt>
<trkpt lat="60.934535000" lon="15.083720000">
<time>2014-07-06T12:03:20Z</time>
 <fix>none</fix>
 <sat>0</sat>
</trkpt>
<trkpt lat="60.934578333" lon="15.083650000">
<time>2014-07-06T12:03:21Z</time>
 <fix>none</fix>
 <sat>0</sat>
</trkpt>
<trkpt lat="60.934606667" lon="15.083541667">
<time>2014-07-06T12:03:22Z</time>
 <fix>none</fix>
 <sat>0</sat>
</trkpt>
<trkpt lat="60.934615000" lon="15.083431667">
<time>2014-07-06T12:03:23Z</time>
 <fix>none</fix>
 <sat>0</sat>
</trkpt>
<trkpt lat="60.934613333" lon="15.083306667">
<time>2014-07-06T12:03:24Z</time>
 <fix>none</fix>
 <sat>0</sat>
</trkpt>
<trkpt lat="60.934600000" lon="15.083155000">
<time>2014-07-06T12:03:25Z</time>
 <fix>none</fix>
 <sat>0</sat>
</trkpt>
<trkpt lat="60.934588333" lon="15.082983333">
<time>2014-07-06T12:03:26Z</time>
 <fix>none</fix>
 <sat>0</sat>
</trkpt>
<trkpt lat="60.934588333" lon="15.082810000">
<time>2014-07-06T12:03:27Z</time>
 <fix>none</fix>
 <sat>0</sat>
</trkpt>
<trkpt lat="60.934588333" lon="15.082636667">
<time>2014-07-06T12:03:28Z</time>
 <fix>none</fix>
 <sat>0</sat>
</trkpt>
<trkpt lat="60.934588333" lon="15.082636667">
<time>2014-07-06T12:03:29Z</time>
 <fix>none</fix>
 <sat>0</sat>
</trkpt>
<trkpt lat="60.934598333" lon="15.082286667">
<time>2014-07-06T12:03:30Z</time>
 <fix>none</fix>
 <sat>0</sat>
</trkpt>
<trkpt lat="60.934615000" lon="15.082103333">
<time>2014-07-06T12:03:31Z</time>
 <fix>none</fix>
 <sat>0</sat>
</trkpt>
<trkpt lat="60.934635000" lon="15.081918333">
<time>2014-07-06T12:03:32Z</time>
 <fix>none</fix>
 <sat>0</sat>
</trkpt>
<trkpt lat="60.934635000" lon="15.081918333">
<time>2014-07-06T12:03:33Z</time>
 <fix>none</fix>
 <sat>0</sat>
</trkpt>
<trkpt lat="60.934640000" lon="15.081741667">
<time>2014-07-06T12:03:34Z</time>
 <fix>none</fix>
 <sat>0</sat>
</trkpt>
<trkpt lat="60.934643333" lon="15.081570000">
<time>2014-07-06T12:03:35Z</time>
 <fix>none</fix>
 <sat>0</sat>
</trkpt>
<trkpt lat="60.934641667" lon="15.081400000">
<time>2014-07-06T12:03:36Z</time>
 <fix>none</fix>
 <sat>0</sat>
</trkpt>
<trkpt lat="60.934631667" lon="15.081258333">
<time>2014-07-06T12:03:37Z</time>
 <fix>none</fix>
 <sat>0</sat>
</trkpt>
<trkpt lat="60.934625000" lon="15.081116667">
<time>2014-07-06T12:03:38Z</time>
 <fix>none</fix>
 <sat>0</sat>
</trkpt>
<trkpt lat="60.934563333" lon="15.080921667">
<time>2014-07-06T12:03:39Z</time>
 <fix>none</fix>
 <sat>0</sat>
</trkpt>
<trkpt lat="60.934563333" lon="15.080921667">
<time>2014-07-06T12:03:40Z</time>
 <fix>none</fix>
 <sat>0</sat>
</trkpt>
<trkpt lat="60.934463333" lon="15.080785000">
<time>2014-07-06T12:03:41Z</time>
 <fix>none</fix>
 <sat>0</sat>
</trkpt>
<trkpt lat="60.934425000" lon="15.080715000">
<time>2014-07-06T12:03:42Z</time>
 <fix>none</fix>
 <sat>0</sat>
</trkpt>
<trkpt lat="60.934396667" lon="15.080641667">
<time>2014-07-06T12:03:43Z</time>
 <fix>none</fix>
 <sat>0</sat>
</trkpt>
<trkpt lat="60.934373333" lon="15.080565000">
<time>2014-07-06T12:03:44Z</time>
 <fix>none</fix>
 <sat>0</sat>
</trkpt>
<trkpt lat="60.934371667" lon="15.080488333">
<time>2014-07-06T12:03:45Z</time>
 <fix>none</fix>
 <sat>0</sat>
</trkpt>
<trkpt lat="60.934348333" lon="15.080443333">
<time>2014-07-06T12:03:46Z</time>
 <fix>none</fix>
 <sat>0</sat>
</trkpt>
<trkpt lat="60.934325000" lon="15.080418333">
<time>2014-07-06T12:03:47Z</time>
 <fix>none</fix>
 <sat>0</sat>
</trkpt>
<trkpt lat="60.934316667" lon="15.080393333">
<time>2014-07-06T12:03:48Z</time>
 <fix>none</fix>
 <sat>0</sat>
</trkpt>
<trkpt lat="60.934313333" lon="15.080376667">
<time>2014-07-06T12:03:49Z</time>
 <fix>none</fix>
 <sat>0</sat>
</trkpt>
<trkpt lat="60.934311667" lon="15.080351667">
<time>2014-07-06T12:03:50Z</time>
 <fix>none</fix>
 <sat>0</sat>
</trkpt>
<trkpt lat="60.934293333" lon="15.080338333">
<time>2014-07-06T12:03:51Z</time>
 <fix>none</fix>
 <sat>0</sat>
</trkpt>
<trkpt lat="60.934271667" lon="15.080335000">
<time>2014-07-06T12:03:52Z</time>
 <fix>none</fix>
 <sat>0</sat>
</trkpt>
<trkpt lat="60.934255000" lon="15.080315000">
<time>2014-07-06T12:03:53Z</time>
 <fix>none</fix>
 <sat>0</sat>
</trkpt>
<trkpt lat="60.934240000" lon="15.080288333">
<time>2014-07-06T12:03:54Z</time>
 <fix>none</fix>
 <sat>0</sat>
</trkpt>
<trkpt lat="60.934226667" lon="15.080256667">
<time>2014-07-06T12:03:55Z</time>
 <fix>none</fix>
 <sat>0</sat>
</trkpt>
<trkpt lat="60.934226667" lon="15.080256667">
<time>2014-07-06T12:03:56Z</time>
 <fix>none</fix>
 <sat>0</sat>
</trkpt>
<trkpt lat="60.934213333" lon="15.080213333">
<time>2014-07-06T12:03:57Z</time>
 <fix>none</fix>
 <sat>0</sat>
</trkpt>
<trkpt lat="60.934200000" lon="15.080163333">
<time>2014-07-06T12:03:58Z</time>
 <fix>none</fix>
 <sat>0</sat>
</trkpt>
<trkpt lat="60.934191667" lon="15.080115000">
<time>2014-07-06T12:03:59Z</time>
 <fix>none</fix>
 <sat>0</sat>
</trkpt>
<trkpt lat="60.934180000" lon="15.080075000">
<time>2014-07-06T12:04:00Z</time>
 <fix>none</fix>
 <sat>0</sat>
</trkpt>
<trkpt lat="60.934156667" lon="15.080026667">
<time>2014-07-06T12:04:01Z</time>
 <fix>none</fix>
 <sat>0</sat>
</trkpt>
<trkpt lat="60.934081667" lon="15.079910000">
<time>2014-07-06T12:04:02Z</time>
 <fix>none</fix>
 <sat>0</sat>
</trkpt>
<trkpt lat="60.934081667" lon="15.079910000">
<time>2014-07-06T12:04:03Z</time>
 <fix>none</fix>
 <sat>0</sat>
</trkpt>
<trkpt lat="60.934011667" lon="15.079803333">
<time>2014-07-06T12:04:04Z</time>
 <fix>none</fix>
 <sat>0</sat>
</trkpt>
<trkpt lat="60.933965000" lon="15.079773333">
<time>2014-07-06T12:04:05Z</time>
 <fix>none</fix>
 <sat>0</sat>
</trkpt>
<trkpt lat="60.933920000" lon="15.079750000">
<time>2014-07-06T12:04:06Z</time>
 <fix>none</fix>
 <sat>0</sat>
</trkpt>
<trkpt lat="60.933866667" lon="15.079733333">
<time>2014-07-06T12:04:07Z</time>
 <fix>none</fix>
 <sat>0</sat>
</trkpt>
<trkpt lat="60.933816667" lon="15.079680000">
<time>2014-07-06T12:04:08Z</time>
 <fix>none</fix>
 <sat>0</sat>
</trkpt>
<trkpt lat="60.933771667" lon="15.079605000">
<time>2014-07-06T12:04:09Z</time>
 <fix>none</fix>
 <sat>0</sat>
</trkpt>
<trkpt lat="60.933725000" lon="15.079556667">
<time>2014-07-06T12:04:10Z</time>
 <fix>none</fix>
 <sat>0</sat>
</trkpt>
<trkpt lat="60.933673333" lon="15.079515000">
<time>2014-07-06T12:04:11Z</time>
 <fix>none</fix>
 <sat>0</sat>
</trkpt>
<trkpt lat="60.933620000" lon="15.079485000">
<time>2014-07-06T12:04:12Z</time>
 <fix>none</fix>
 <sat>0</sat>
</trkpt>
<trkpt lat="60.933571667" lon="15.079440000">
<time>2014-07-06T12:04:13Z</time>
 <fix>none</fix>
 <sat>0</sat>
</trkpt>
<trkpt lat="60.933525000" lon="15.079378333">
<time>2014-07-06T12:04:14Z</time>
 <fix>none</fix>
 <sat>0</sat>
</trkpt>
<trkpt lat="60.933473333" lon="15.079326667">
<time>2014-07-06T12:04:15Z</time>
 <fix>none</fix>
 <sat>0</sat>
</trkpt>
<trkpt lat="60.933423333" lon="15.079271667">
<time>2014-07-06T12:04:16Z</time>
 <fix>none</fix>
 <sat>0</sat>
</trkpt>
<trkpt lat="60.933375000" lon="15.079220000">
<time>2014-07-06T12:04:17Z</time>
 <fix>none</fix>
 <sat>0</sat>
</trkpt>
<trkpt lat="60.933320000" lon="15.079165000">
<time>2014-07-06T12:04:18Z</time>
 <fix>none</fix>
 <sat>0</sat>
</trkpt>
<trkpt lat="60.933320000" lon="15.079165000">
<time>2014-07-06T12:04:19Z</time>
 <fix>none</fix>
 <sat>0</sat>
</trkpt>
<trkpt lat="60.933265000" lon="15.079110000">
<time>2014-07-06T12:04:20Z</time>
 <fix>none</fix>
 <sat>0</sat>
</trkpt>
<trkpt lat="60.933220000" lon="15.079028333">
<time>2014-07-06T12:04:21Z</time>
 <fix>none</fix>
 <sat>0</sat>
</trkpt>
<trkpt lat="60.933183333" lon="15.078946667">
<time>2014-07-06T12:04:22Z</time>
 <fix>none</fix>
 <sat>0</sat>
</trkpt>
<trkpt lat="60.933148333" lon="15.078865000">
<time>2014-07-06T12:04:23Z</time>
 <fix>none</fix>
 <sat>0</sat>
</trkpt>
<trkpt lat="60.933120000" lon="15.078626667">
<time>2014-07-06T12:04:24Z</time>
 <fix>none</fix>
 <sat>0</sat>
</trkpt>
<trkpt lat="60.933095000" lon="15.078511667">
<time>2014-07-06T12:04:25Z</time>
 <fix>none</fix>
 <sat>0</sat>
</trkpt>
<trkpt lat="60.933036667" lon="15.078488333">
<time>2014-07-06T12:04:26Z</time>
 <fix>none</fix>
 <sat>0</sat>
</trkpt>
<trkpt lat="60.932988333" lon="15.078466667">
<time>2014-07-06T12:04:27Z</time>
 <fix>none</fix>
 <sat>0</sat>
</trkpt>
<trkpt lat="60.932961667" lon="15.078460000">
<time>2014-07-06T12:04:28Z</time>
 <fix>none</fix>
 <sat>0</sat>
</trkpt>
<trkpt lat="60.932945000" lon="15.078486667">
<time>2014-07-06T12:04:29Z</time>
 <fix>none</fix>
 <sat>0</sat>
</trkpt>
<trkpt lat="60.932916667" lon="15.078535000">
<time>2014-07-06T12:04:30Z</time>
 <fix>none</fix>
 <sat>0</sat>
</trkpt>
<trkpt lat="60.932863333" lon="15.078550000">
<time>2014-07-06T12:04:31Z</time>
 <fix>none</fix>
 <sat>0</sat>
</trkpt>
<trkpt lat="60.932800000" lon="15.078571667">
<time>2014-07-06T12:04:32Z</time>
 <fix>none</fix>
 <sat>0</sat>
</trkpt>
<trkpt lat="60.932748333" lon="15.078586667">
<time>2014-07-06T12:04:33Z</time>
 <fix>none</fix>
 <sat>0</sat>
</trkpt>
<trkpt lat="60.932693333" lon="15.078568333">
<time>2014-07-06T12:04:34Z</time>
 <fix>none</fix>
 <sat>0</sat>
</trkpt>
<trkpt lat="60.932638333" lon="15.078558333">
<time>2014-07-06T12:04:35Z</time>
 <fix>none</fix>
 <sat>0</sat>
</trkpt>
<trkpt lat="60.932598333" lon="15.078533333">
<time>2014-07-06T12:04:36Z</time>
 <fix>none</fix>
 <sat>0</sat>
</trkpt>
<trkpt lat="60.932561667" lon="15.078505000">
<time>2014-07-06T12:04:37Z</time>
 <fix>none</fix>
 <sat>0</sat>
</trkpt>
<trkpt lat="60.932521667" lon="15.078480000">
<time>2014-07-06T12:04:38Z</time>
 <fix>none</fix>
 <sat>0</sat>
</trkpt>
<trkpt lat="60.932473333" lon="15.078455000">
<time>2014-07-06T12:04:39Z</time>
 <fix>none</fix>
 <sat>0</sat>
</trkpt>
<trkpt lat="60.932426667" lon="15.078433333">
<time>2014-07-06T12:04:40Z</time>
 <fix>none</fix>
 <sat>0</sat>
</trkpt>
<trkpt lat="60.932380000" lon="15.078395000">
<time>2014-07-06T12:04:41Z</time>
 <fix>none</fix>
 <sat>0</sat>
</trkpt>
<trkpt lat="60.932380000" lon="15.078395000">
<time>2014-07-06T12:04:42Z</time>
 <fix>none</fix>
 <sat>0</sat>
</trkpt>
<trkpt lat="60.932335000" lon="15.078356667">
<time>2014-07-06T12:04:43Z</time>
 <fix>none</fix>
 <sat>0</sat>
</trkpt>
<trkpt lat="60.932288333" lon="15.078328333">
<time>2014-07-06T12:04:44Z</time>
 <fix>none</fix>
 <sat>0</sat>
</trkpt>
<trkpt lat="60.932246667" lon="15.078286667">
<time>2014-07-06T12:04:45Z</time>
 <fix>none</fix>
 <sat>0</sat>
</trkpt>
<trkpt lat="60.932205000" lon="15.078261667">
<time>2014-07-06T12:04:46Z</time>
 <fix>none</fix>
 <sat>0</sat>
</trkpt>
<trkpt lat="60.932176667" lon="15.078218333">
<time>2014-07-06T12:04:47Z</time>
 <fix>none</fix>
 <sat>0</sat>
</trkpt>
<trkpt lat="60.932131667" lon="15.078080000">
<time>2014-07-06T12:04:48Z</time>
 <fix>none</fix>
 <sat>0</sat>
</trkpt>
<trkpt lat="60.932106667" lon="15.077960000">
<time>2014-07-06T12:04:49Z</time>
 <fix>none</fix>
 <sat>0</sat>
</trkpt>
<trkpt lat="60.932088333" lon="15.077826667">
<time>2014-07-06T12:04:50Z</time>
 <fix>none</fix>
 <sat>0</sat>
</trkpt>
<trkpt lat="60.932088333" lon="15.077826667">
<time>2014-07-06T12:04:51Z</time>
 <fix>none</fix>
 <sat>0</sat>
</trkpt>
<trkpt lat="60.932035000" lon="15.077620000">
<time>2014-07-06T12:04:52Z</time>
 <fix>none</fix>
 <sat>0</sat>
</trkpt>
<trkpt lat="60.932008333" lon="15.077573333">
<time>2014-07-06T12:04:53Z</time>
 <fix>none</fix>
 <sat>0</sat>
</trkpt>
<trkpt lat="60.931980000" lon="15.077546667">
<time>2014-07-06T12:04:54Z</time>
 <fix>none</fix>
 <sat>0</sat>
</trkpt>
<trkpt lat="60.931955000" lon="15.077521667">
<time>2014-07-06T12:04:55Z</time>
 <fix>none</fix>
 <sat>0</sat>
</trkpt>
<trkpt lat="60.931948333" lon="15.077496667">
<time>2014-07-06T12:04:56Z</time>
 <fix>none</fix>
 <sat>0</sat>
</trkpt>
<trkpt lat="60.931926667" lon="15.077478333">
<time>2014-07-06T12:04:57Z</time>
 <fix>none</fix>
 <sat>0</sat>
</trkpt>
<trkpt lat="60.931898333" lon="15.077458333">
<time>2014-07-06T12:04:58Z</time>
 <fix>none</fix>
 <sat>0</sat>
</trkpt>
<trkpt lat="60.931876667" lon="15.077420000">
<time>2014-07-06T12:04:59Z</time>
 <fix>none</fix>
 <sat>0</sat>
</trkpt>
<trkpt lat="60.931843333" lon="15.077376667">
<time>2014-07-06T12:05:00Z</time>
 <fix>none</fix>
 <sat>0</sat>
</trkpt>
<trkpt lat="60.931801667" lon="15.077331667">
<time>2014-07-06T12:05:01Z</time>
 <fix>none</fix>
 <sat>0</sat>
</trkpt>
<trkpt lat="60.931758333" lon="15.077285000">
<time>2014-07-06T12:05:02Z</time>
 <fix>none</fix>
 <sat>0</sat>
</trkpt>
<trkpt lat="60.931708333" lon="15.077251667">
<time>2014-07-06T12:05:03Z</time>
 <fix>none</fix>
 <sat>0</sat>
</trkpt>
<trkpt lat="60.931708333" lon="15.077251667">
<time>2014-07-06T12:05:04Z</time>
 <fix>none</fix>
 <sat>0</sat>
</trkpt>
<trkpt lat="60.931668333" lon="15.077206667">
<time>2014-07-06T12:05:05Z</time>
 <fix>none</fix>
 <sat>0</sat>
</trkpt>
<trkpt lat="60.931615000" lon="15.077175000">
<time>2014-07-06T12:05:06Z</time>
 <fix>none</fix>
 <sat>0</sat>
</trkpt>
<trkpt lat="60.931561667" lon="15.077135000">
<time>2014-07-06T12:05:07Z</time>
 <fix>none</fix>
 <sat>0</sat>
</trkpt>
<trkpt lat="60.931508333" lon="15.077098333">
<time>2014-07-06T12:05:08Z</time>
 <fix>none</fix>
 <sat>0</sat>
</trkpt>
<trkpt lat="60.931463333" lon="15.077058333">
<time>2014-07-06T12:05:09Z</time>
 <fix>none</fix>
 <sat>0</sat>
</trkpt>
<trkpt lat="60.931360000" lon="15.076985000">
<time>2014-07-06T12:05:10Z</time>
 <fix>none</fix>
 <sat>0</sat>
</trkpt>
<trkpt lat="60.931360000" lon="15.076985000">
<time>2014-07-06T12:05:11Z</time>
 <fix>none</fix>
 <sat>0</sat>
</trkpt>
<trkpt lat="60.931311667" lon="15.076941667">
<time>2014-07-06T12:05:12Z</time>
 <fix>none</fix>
 <sat>0</sat>
</trkpt>
<trkpt lat="60.931206667" lon="15.076880000">
<time>2014-07-06T12:05:13Z</time>
 <fix>none</fix>
 <sat>0</sat>
</trkpt>
<trkpt lat="60.931160000" lon="15.076863333">
<time>2014-07-06T12:05:14Z</time>
 <fix>none</fix>
 <sat>0</sat>
</trkpt>
<trkpt lat="60.931121667" lon="15.076843333">
<time>2014-07-06T12:05:15Z</time>
 <fix>none</fix>
 <sat>0</sat>
</trkpt>
<trkpt lat="60.931085000" lon="15.076841667">
<time>2014-07-06T12:05:16Z</time>
 <fix>none</fix>
 <sat>0</sat>
</trkpt>
<trkpt lat="60.931050000" lon="15.076838333">
<time>2014-07-06T12:05:17Z</time>
 <fix>none</fix>
 <sat>0</sat>
</trkpt>
<trkpt lat="60.931018333" lon="15.076843333">
<time>2014-07-06T12:05:18Z</time>
 <fix>none</fix>
 <sat>0</sat>
</trkpt>
<trkpt lat="60.930988333" lon="15.076853333">
<time>2014-07-06T12:05:19Z</time>
 <fix>none</fix>
 <sat>0</sat>
</trkpt>
<trkpt lat="60.930988333" lon="15.076853333">
<time>2014-07-06T12:05:20Z</time>
 <fix>none</fix>
 <sat>0</sat>
</trkpt>
<trkpt lat="60.930988333" lon="15.076853333">
<time>2014-07-06T12:05:21Z</time>
 <fix>none</fix>
 <sat>0</sat>
</trkpt>
<trkpt lat="60.930935000" lon="15.076865000">
<time>2014-07-06T12:05:22Z</time>
 <fix>none</fix>
 <sat>0</sat>
</trkpt>
<trkpt lat="60.930935000" lon="15.076865000">
<time>2014-07-06T12:05:23Z</time>
 <fix>none</fix>
 <sat>0</sat>
</trkpt>
<trkpt lat="60.930896667" lon="15.076903333">
<time>2014-07-06T12:05:24Z</time>
 <fix>none</fix>
 <sat>0</sat>
</trkpt>
<trkpt lat="60.930896667" lon="15.076903333">
<time>2014-07-06T12:05:25Z</time>
 <fix>none</fix>
 <sat>0</sat>
</trkpt>
<trkpt lat="60.930868333" lon="15.076901667">
<time>2014-07-06T12:05:26Z</time>
 <fix>none</fix>
 <sat>0</sat>
</trkpt>
<trkpt lat="60.930868333" lon="15.076901667">
<time>2014-07-06T12:05:27Z</time>
 <fix>none</fix>
 <sat>0</sat>
</trkpt>
<trkpt lat="60.930818333" lon="15.076933333">
<time>2014-07-06T12:05:28Z</time>
 <fix>none</fix>
 <sat>0</sat>
</trkpt>
<trkpt lat="60.930818333" lon="15.076933333">
<time>2014-07-06T12:05:29Z</time>
 <fix>none</fix>
 <sat>0</sat>
</trkpt>
<trkpt lat="60.930755000" lon="15.076973333">
<time>2014-07-06T12:05:30Z</time>
 <fix>none</fix>
 <sat>0</sat>
</trkpt>
<trkpt lat="60.930755000" lon="15.076973333">
<time>2014-07-06T12:05:31Z</time>
 <fix>none</fix>
 <sat>0</sat>
</trkpt>
<trkpt lat="60.930686667" lon="15.077041667">
<time>2014-07-06T12:05:32Z</time>
 <fix>none</fix>
 <sat>0</sat>
</trkpt>
<trkpt lat="60.930686667" lon="15.077041667">
<time>2014-07-06T12:05:33Z</time>
 <fix>none</fix>
 <sat>0</sat>
</trkpt>
<trkpt lat="60.930686667" lon="15.077041667">
<time>2014-07-06T12:05:34Z</time>
 <fix>none</fix>
 <sat>0</sat>
</trkpt>
<trkpt lat="60.930580000" lon="15.077081667">
<time>2014-07-06T12:05:35Z</time>
 <fix>none</fix>
 <sat>0</sat>
</trkpt>
<trkpt lat="60.930545000" lon="15.077100000">
<time>2014-07-06T12:05:36Z</time>
 <fix>none</fix>
 <sat>0</sat>
</trkpt>
<trkpt lat="60.930513333" lon="15.077110000">
<time>2014-07-06T12:05:37Z</time>
 <fix>none</fix>
 <sat>0</sat>
</trkpt>
<trkpt lat="60.930483333" lon="15.077135000">
<time>2014-07-06T12:05:38Z</time>
 <fix>none</fix>
 <sat>0</sat>
</trkpt>
<trkpt lat="60.930450000" lon="15.077158333">
<time>2014-07-06T12:05:39Z</time>
 <fix>none</fix>
 <sat>0</sat>
</trkpt>
<trkpt lat="60.930416667" lon="15.077186667">
<time>2014-07-06T12:05:40Z</time>
 <fix>none</fix>
 <sat>0</sat>
</trkpt>
<trkpt lat="60.930373333" lon="15.077211667">
<time>2014-07-06T12:05:41Z</time>
 <fix>none</fix>
 <sat>0</sat>
</trkpt>
<trkpt lat="60.930330000" lon="15.077245000">
<time>2014-07-06T12:05:42Z</time>
 <fix>none</fix>
 <sat>0</sat>
</trkpt>
<trkpt lat="60.930295000" lon="15.077275000">
<time>2014-07-06T12:05:43Z</time>
 <fix>none</fix>
 <sat>0</sat>
</trkpt>
<trkpt lat="60.930256667" lon="15.077313333">
<time>2014-07-06T12:05:44Z</time>
 <fix>none</fix>
 <sat>0</sat>
</trkpt>
<trkpt lat="60.930226667" lon="15.077351667">
<time>2014-07-06T12:05:45Z</time>
 <fix>none</fix>
 <sat>0</sat>
</trkpt>
<trkpt lat="60.930186667" lon="15.077416667">
<time>2014-07-06T12:05:46Z</time>
 <fix>none</fix>
 <sat>0</sat>
</trkpt>
<trkpt lat="60.930143333" lon="15.077475000">
<time>2014-07-06T12:05:47Z</time>
 <fix>none</fix>
 <sat>0</sat>
</trkpt>
<trkpt lat="60.930105000" lon="15.077511667">
<time>2014-07-06T12:05:48Z</time>
 <fix>none</fix>
 <sat>0</sat>
</trkpt>
<trkpt lat="60.930073333" lon="15.077526667">
<time>2014-07-06T12:05:49Z</time>
 <fix>none</fix>
 <sat>0</sat>
</trkpt>
<trkpt lat="60.930073333" lon="15.077526667">
<time>2014-07-06T12:05:50Z</time>
 <fix>none</fix>
 <sat>0</sat>
</trkpt>
<trkpt lat="60.930040000" lon="15.077551667">
<time>2014-07-06T12:05:51Z</time>
 <fix>none</fix>
 <sat>0</sat>
</trkpt>
<trkpt lat="60.930018333" lon="15.077570000">
<time>2014-07-06T12:05:52Z</time>
 <fix>none</fix>
 <sat>0</sat>
</trkpt>
<trkpt lat="60.929998333" lon="15.077583333">
<time>2014-07-06T12:05:53Z</time>
 <fix>none</fix>
 <sat>0</sat>
</trkpt>
<trkpt lat="60.929975000" lon="15.077590000">
<time>2014-07-06T12:05:54Z</time>
 <fix>none</fix>
 <sat>0</sat>
</trkpt>
<trkpt lat="60.929940000" lon="15.077601667">
<time>2014-07-06T12:05:55Z</time>
 <fix>none</fix>
 <sat>0</sat>
</trkpt>
<trkpt lat="60.929913333" lon="15.077613333">
<time>2014-07-06T12:05:56Z</time>
 <fix>none</fix>
 <sat>0</sat>
</trkpt>
<trkpt lat="60.929888333" lon="15.077620000">
<time>2014-07-06T12:05:57Z</time>
 <fix>none</fix>
 <sat>0</sat>
</trkpt>
<trkpt lat="60.929818333" lon="15.077641667">
<time>2014-07-06T12:05:58Z</time>
 <fix>none</fix>
 <sat>0</sat>
</trkpt>
<trkpt lat="60.929788333" lon="15.077646667">
<time>2014-07-06T12:05:59Z</time>
 <fix>none</fix>
 <sat>0</sat>
</trkpt>
<trkpt lat="60.929753333" lon="15.077660000">
<time>2014-07-06T12:06:00Z</time>
 <fix>none</fix>
 <sat>0</sat>
</trkpt>
<trkpt lat="60.929713333" lon="15.077668333">
<time>2014-07-06T12:06:01Z</time>
 <fix>none</fix>
 <sat>0</sat>
</trkpt>
<trkpt lat="60.929673333" lon="15.077680000">
<time>2014-07-06T12:06:02Z</time>
 <fix>none</fix>
 <sat>0</sat>
</trkpt>
<trkpt lat="60.929635000" lon="15.077700000">
<time>2014-07-06T12:06:03Z</time>
 <fix>none</fix>
 <sat>0</sat>
</trkpt>
<trkpt lat="60.929588333" lon="15.077730000">
<time>2014-07-06T12:06:04Z</time>
 <fix>none</fix>
 <sat>0</sat>
</trkpt>
<trkpt lat="60.929541667" lon="15.077755000">
<time>2014-07-06T12:06:05Z</time>
 <fix>none</fix>
 <sat>0</sat>
</trkpt>
<trkpt lat="60.929495000" lon="15.077760000">
<time>2014-07-06T12:06:06Z</time>
 <fix>none</fix>
 <sat>0</sat>
</trkpt>
<trkpt lat="60.929448333" lon="15.077763333">
<time>2014-07-06T12:06:07Z</time>
 <fix>none</fix>
 <sat>0</sat>
</trkpt>
<trkpt lat="60.929403333" lon="15.077736667">
<time>2014-07-06T12:06:08Z</time>
 <fix>none</fix>
 <sat>0</sat>
</trkpt>
<trkpt lat="60.929358333" lon="15.077686667">
<time>2014-07-06T12:06:09Z</time>
 <fix>none</fix>
 <sat>0</sat>
</trkpt>
<trkpt lat="60.929278333" lon="15.077661667">
<time>2014-07-06T12:06:10Z</time>
 <fix>none</fix>
 <sat>0</sat>
</trkpt>
<trkpt lat="60.929216667" lon="15.077586667">
<time>2014-07-06T12:06:11Z</time>
 <fix>none</fix>
 <sat>0</sat>
</trkpt>
<trkpt lat="60.929168333" lon="15.077463333">
<time>2014-07-06T12:06:12Z</time>
 <fix>none</fix>
 <sat>0</sat>
</trkpt>
<trkpt lat="60.929168333" lon="15.077463333">
<time>2014-07-06T12:06:13Z</time>
 <fix>none</fix>
 <sat>0</sat>
</trkpt>
<trkpt lat="60.929111667" lon="15.077361667">
<time>2014-07-06T12:06:14Z</time>
 <fix>none</fix>
 <sat>0</sat>
</trkpt>
<trkpt lat="60.929056667" lon="15.077261667">
<time>2014-07-06T12:06:15Z</time>
 <fix>none</fix>
 <sat>0</sat>
</trkpt>
<trkpt lat="60.929016667" lon="15.077151667">
<time>2014-07-06T12:06:16Z</time>
 <fix>none</fix>
 <sat>0</sat>
</trkpt>
<trkpt lat="60.928975000" lon="15.077055000">
<time>2014-07-06T12:06:17Z</time>
 <fix>none</fix>
 <sat>0</sat>
</trkpt>
<trkpt lat="60.928888333" lon="15.076941667">
<time>2014-07-06T12:06:18Z</time>
 <fix>none</fix>
 <sat>0</sat>
</trkpt>
<trkpt lat="60.928846667" lon="15.076901667">
<time>2014-07-06T12:06:19Z</time>
 <fix>none</fix>
 <sat>0</sat>
</trkpt>
<trkpt lat="60.928815000" lon="15.076850000">
<time>2014-07-06T12:06:20Z</time>
 <fix>none</fix>
 <sat>0</sat>
</trkpt>
<trkpt lat="60.928780000" lon="15.076788333">
<time>2014-07-06T12:06:21Z</time>
 <fix>none</fix>
 <sat>0</sat>
</trkpt>
<trkpt lat="60.928736667" lon="15.076730000">
<time>2014-07-06T12:06:22Z</time>
 <fix>none</fix>
 <sat>0</sat>
</trkpt>
<trkpt lat="60.928695000" lon="15.076680000">
<time>2014-07-06T12:06:23Z</time>
 <fix>none</fix>
 <sat>0</sat>
</trkpt>
<trkpt lat="60.928656667" lon="15.076621667">
<time>2014-07-06T12:06:24Z</time>
 <fix>none</fix>
 <sat>0</sat>
</trkpt>
<trkpt lat="60.928611667" lon="15.076575000">
<time>2014-07-06T12:06:25Z</time>
 <fix>none</fix>
 <sat>0</sat>
</trkpt>
<trkpt lat="60.928558333" lon="15.076538333">
<time>2014-07-06T12:06:26Z</time>
 <fix>none</fix>
 <sat>0</sat>
</trkpt>
<trkpt lat="60.928500000" lon="15.076511667">
<time>2014-07-06T12:06:27Z</time>
 <fix>none</fix>
 <sat>0</sat>
</trkpt>
<trkpt lat="60.928435000" lon="15.076470000">
<time>2014-07-06T12:06:28Z</time>
 <fix>none</fix>
 <sat>0</sat>
</trkpt>
<trkpt lat="60.928371667" lon="15.076406667">
<time>2014-07-06T12:06:29Z</time>
 <fix>none</fix>
 <sat>0</sat>
</trkpt>
<trkpt lat="60.928308333" lon="15.076333333">
<time>2014-07-06T12:06:30Z</time>
 <fix>none</fix>
 <sat>0</sat>
</trkpt>
<trkpt lat="60.928248333" lon="15.076243333">
<time>2014-07-06T12:06:31Z</time>
 <fix>none</fix>
 <sat>0</sat>
</trkpt>
<trkpt lat="60.928198333" lon="15.076128333">
<time>2014-07-06T12:06:32Z</time>
 <fix>none</fix>
 <sat>0</sat>
</trkpt>
<trkpt lat="60.928150000" lon="15.076000000">
<time>2014-07-06T12:06:33Z</time>
 <fix>none</fix>
 <sat>0</sat>
</trkpt>
<trkpt lat="60.928106667" lon="15.075868333">
<time>2014-07-06T12:06:34Z</time>
 <fix>none</fix>
 <sat>0</sat>
</trkpt>
<trkpt lat="60.928076667" lon="15.075735000">
<time>2014-07-06T12:06:35Z</time>
 <fix>none</fix>
 <sat>0</sat>
</trkpt>
<trkpt lat="60.928076667" lon="15.075735000">
<time>2014-07-06T12:06:36Z</time>
 <fix>none</fix>
 <sat>0</sat>
</trkpt>
<trkpt lat="60.928065000" lon="15.075603333">
<time>2014-07-06T12:06:37Z</time>
 <fix>none</fix>
 <sat>0</sat>
</trkpt>
<trkpt lat="60.928078333" lon="15.075476667">
<time>2014-07-06T12:06:38Z</time>
 <fix>none</fix>
 <sat>0</sat>
</trkpt>
<trkpt lat="60.928098333" lon="15.075356667">
<time>2014-07-06T12:06:39Z</time>
 <fix>none</fix>
 <sat>0</sat>
</trkpt>
<trkpt lat="60.928098333" lon="15.075356667">
<time>2014-07-06T12:06:40Z</time>
 <fix>none</fix>
 <sat>0</sat>
</trkpt>
<trkpt lat="60.928178333" lon="15.075028333">
<time>2014-07-06T12:06:41Z</time>
 <fix>none</fix>
 <sat>0</sat>
</trkpt>
<trkpt lat="60.928178333" lon="15.075028333">
<time>2014-07-06T12:06:42Z</time>
 <fix>none</fix>
 <sat>0</sat>
</trkpt>
<trkpt lat="60.928243333" lon="15.074793333">
<time>2014-07-06T12:06:43Z</time>
 <fix>none</fix>
 <sat>0</sat>
</trkpt>
<trkpt lat="60.928243333" lon="15.074793333">
<time>2014-07-06T12:06:44Z</time>
 <fix>none</fix>
 <sat>0</sat>
</trkpt>
<trkpt lat="60.928210000" lon="15.074590000">
<time>2014-07-06T12:06:45Z</time>
 <fix>none</fix>
 <sat>0</sat>
</trkpt>
<trkpt lat="60.928210000" lon="15.074590000">
<time>2014-07-06T12:06:46Z</time>
 <fix>none</fix>
 <sat>0</sat>
</trkpt>
<trkpt lat="60.928140000" lon="15.074283333">
<time>2014-07-06T12:06:47Z</time>
 <fix>none</fix>
 <sat>0</sat>
</trkpt>
<trkpt lat="60.928140000" lon="15.074283333">
<time>2014-07-06T12:06:48Z</time>
 <fix>none</fix>
 <sat>0</sat>
</trkpt>
<trkpt lat="60.928095000" lon="15.073970000">
<time>2014-07-06T12:06:49Z</time>
 <fix>none</fix>
 <sat>0</sat>
</trkpt>
<trkpt lat="60.928095000" lon="15.073970000">
<time>2014-07-06T12:06:50Z</time>
 <fix>none</fix>
 <sat>0</sat>
</trkpt>
<trkpt lat="60.927915000" lon="15.073723333">
<time>2014-07-06T12:06:51Z</time>
 <fix>none</fix>
 <sat>0</sat>
</trkpt>
<trkpt lat="60.927915000" lon="15.073723333">
<time>2014-07-06T12:06:52Z</time>
 <fix>none</fix>
 <sat>0</sat>
</trkpt>
<trkpt lat="60.927745000" lon="15.073505000">
<time>2014-07-06T12:06:53Z</time>
 <fix>none</fix>
 <sat>0</sat>
</trkpt>
<trkpt lat="60.927681667" lon="15.073431667">
<time>2014-07-06T12:06:54Z</time>
 <fix>none</fix>
 <sat>0</sat>
</trkpt>
<trkpt lat="60.927568333" lon="15.073396667">
<time>2014-07-06T12:06:55Z</time>
 <fix>none</fix>
 <sat>0</sat>
</trkpt>
<trkpt lat="60.927501667" lon="15.073296667">
<time>2014-07-06T12:06:56Z</time>
 <fix>none</fix>
 <sat>0</sat>
</trkpt>
<trkpt lat="60.927471667" lon="15.073163333">
<time>2014-07-06T12:06:57Z</time>
 <fix>none</fix>
 <sat>0</sat>
</trkpt>
<trkpt lat="60.927471667" lon="15.073163333">
<time>2014-07-06T12:06:58Z</time>
 <fix>none</fix>
 <sat>0</sat>
</trkpt>
<trkpt lat="60.927408333" lon="15.073021667">
<time>2014-07-06T12:06:59Z</time>
 <fix>none</fix>
 <sat>0</sat>
</trkpt>
<trkpt lat="60.927343333" lon="15.072868333">
<time>2014-07-06T12:07:00Z</time>
 <fix>none</fix>
 <sat>0</sat>
</trkpt>
<trkpt lat="60.927286667" lon="15.072678333">
<time>2014-07-06T12:07:01Z</time>
 <fix>none</fix>
 <sat>0</sat>
</trkpt>
<trkpt lat="60.927225000" lon="15.072501667">
<time>2014-07-06T12:07:02Z</time>
 <fix>none</fix>
 <sat>0</sat>
</trkpt>
<trkpt lat="60.927158333" lon="15.072350000">
<time>2014-07-06T12:07:03Z</time>
 <fix>none</fix>
 <sat>0</sat>
</trkpt>
<trkpt lat="60.927075000" lon="15.072220000">
<time>2014-07-06T12:07:04Z</time>
 <fix>none</fix>
 <sat>0</sat>
</trkpt>
<trkpt lat="60.926918333" lon="15.071958333">
<time>2014-07-06T12:07:05Z</time>
 <fix>none</fix>
 <sat>0</sat>
</trkpt>
<trkpt lat="60.926840000" lon="15.071841667">
<time>2014-07-06T12:07:06Z</time>
 <fix>none</fix>
 <sat>0</sat>
</trkpt>
<trkpt lat="60.926760000" lon="15.071725000">
<time>2014-07-06T12:07:07Z</time>
 <fix>none</fix>
 <sat>0</sat>
</trkpt>
<trkpt lat="60.926676667" lon="15.071606667">
<time>2014-07-06T12:07:08Z</time>
 <fix>none</fix>
 <sat>0</sat>
</trkpt>
<trkpt lat="60.926596667" lon="15.071471667">
<time>2014-07-06T12:07:09Z</time>
 <fix>none</fix>
 <sat>0</sat>
</trkpt>
<trkpt lat="60.926523333" lon="15.071320000">
<time>2014-07-06T12:07:10Z</time>
 <fix>none</fix>
 <sat>0</sat>
</trkpt>
<trkpt lat="60.926456667" lon="15.071158333">
<time>2014-07-06T12:07:11Z</time>
 <fix>none</fix>
 <sat>0</sat>
</trkpt>
<trkpt lat="60.926386667" lon="15.071016667">
<time>2014-07-06T12:07:12Z</time>
 <fix>none</fix>
 <sat>0</sat>
</trkpt>
<trkpt lat="60.926328333" lon="15.070881667">
<time>2014-07-06T12:07:13Z</time>
 <fix>none</fix>
 <sat>0</sat>
</trkpt>
<trkpt lat="60.926283333" lon="15.070725000">
<time>2014-07-06T12:07:14Z</time>
 <fix>none</fix>
 <sat>0</sat>
</trkpt>
<trkpt lat="60.926248333" lon="15.070580000">
<time>2014-07-06T12:07:15Z</time>
 <fix>none</fix>
 <sat>0</sat>
</trkpt>
<trkpt lat="60.926211667" lon="15.070471667">
<time>2014-07-06T12:07:16Z</time>
 <fix>none</fix>
 <sat>0</sat>
</trkpt>
<trkpt lat="60.926156667" lon="15.070420000">
<time>2014-07-06T12:07:17Z</time>
 <fix>none</fix>
 <sat>0</sat>
</trkpt>
<trkpt lat="60.926103333" lon="15.070378333">
<time>2014-07-06T12:07:18Z</time>
 <fix>none</fix>
 <sat>0</sat>
</trkpt>
<trkpt lat="60.926031667" lon="15.070368333">
<time>2014-07-06T12:07:19Z</time>
 <fix>none</fix>
 <sat>0</sat>
</trkpt>
<trkpt lat="60.925955000" lon="15.070326667">
<time>2014-07-06T12:07:20Z</time>
 <fix>none</fix>
 <sat>0</sat>
</trkpt>
<trkpt lat="60.925955000" lon="15.070326667">
<time>2014-07-06T12:07:21Z</time>
 <fix>none</fix>
 <sat>0</sat>
</trkpt>
<trkpt lat="60.925888333" lon="15.070276667">
<time>2014-07-06T12:07:22Z</time>
 <fix>none</fix>
 <sat>0</sat>
</trkpt>
<trkpt lat="60.925826667" lon="15.070225000">
<time>2014-07-06T12:07:23Z</time>
 <fix>none</fix>
 <sat>0</sat>
</trkpt>
<trkpt lat="60.925758333" lon="15.070188333">
<time>2014-07-06T12:07:24Z</time>
 <fix>none</fix>
 <sat>0</sat>
</trkpt>
<trkpt lat="60.925676667" lon="15.070178333">
<time>2014-07-06T12:07:25Z</time>
 <fix>none</fix>
 <sat>0</sat>
</trkpt>
<trkpt lat="60.925466667" lon="15.070190000">
<time>2014-07-06T12:07:26Z</time>
 <fix>none</fix>
 <sat>0</sat>
</trkpt>
<trkpt lat="60.925466667" lon="15.070190000">
<time>2014-07-06T12:07:27Z</time>
 <fix>none</fix>
 <sat>0</sat>
</trkpt>
<trkpt lat="60.925381667" lon="15.070220000">
<time>2014-07-06T12:07:28Z</time>
 <fix>none</fix>
 <sat>0</sat>
</trkpt>
<trkpt lat="60.925233333" lon="15.070116667">
<time>2014-07-06T12:07:29Z</time>
 <fix>none</fix>
 <sat>0</sat>
</trkpt>
<trkpt lat="60.925163333" lon="15.070060000">
<time>2014-07-06T12:07:30Z</time>
 <fix>none</fix>
 <sat>0</sat>
</trkpt>
<trkpt lat="60.925080000" lon="15.070008333">
<time>2014-07-06T12:07:31Z</time>
 <fix>none</fix>
 <sat>0</sat>
</trkpt>
<trkpt lat="60.925003333" lon="15.069908333">
<time>2014-07-06T12:07:32Z</time>
 <fix>none</fix>
 <sat>0</sat>
</trkpt>
<trkpt lat="60.924933333" lon="15.069810000">
<time>2014-07-06T12:07:33Z</time>
 <fix>none</fix>
 <sat>0</sat>
</trkpt>
<trkpt lat="60.924860000" lon="15.069751667">
<time>2014-07-06T12:07:34Z</time>
 <fix>none</fix>
 <sat>0</sat>
</trkpt>
<trkpt lat="60.924795000" lon="15.069671667">
<time>2014-07-06T12:07:35Z</time>
 <fix>none</fix>
 <sat>0</sat>
</trkpt>
<trkpt lat="60.924753333" lon="15.069611667">
<time>2014-07-06T12:07:36Z</time>
 <fix>none</fix>
 <sat>0</sat>
</trkpt>
<trkpt lat="60.924668333" lon="15.069573333">
<time>2014-07-06T12:07:37Z</time>
 <fix>none</fix>
 <sat>0</sat>
</trkpt>
<trkpt lat="60.924568333" lon="15.069493333">
<time>2014-07-06T12:07:38Z</time>
 <fix>none</fix>
 <sat>0</sat>
</trkpt>
<trkpt lat="60.924483333" lon="15.069435000">
<time>2014-07-06T12:07:39Z</time>
 <fix>none</fix>
 <sat>0</sat>
</trkpt>
<trkpt lat="60.924430000" lon="15.069335000">
<time>2014-07-06T12:07:40Z</time>
 <fix>none</fix>
 <sat>0</sat>
</trkpt>
<trkpt lat="60.924371667" lon="15.069263333">
<time>2014-07-06T12:07:41Z</time>
 <fix>none</fix>
 <sat>0</sat>
</trkpt>
<trkpt lat="60.924321667" lon="15.069196667">
<time>2014-07-06T12:07:42Z</time>
 <fix>none</fix>
 <sat>0</sat>
</trkpt>
<trkpt lat="60.924286667" lon="15.069128333">
<time>2014-07-06T12:07:43Z</time>
 <fix>none</fix>
 <sat>0</sat>
</trkpt>
<trkpt lat="60.924286667" lon="15.069128333">
<time>2014-07-06T12:07:44Z</time>
 <fix>none</fix>
 <sat>0</sat>
</trkpt>
<trkpt lat="60.924286667" lon="15.069036667">
<time>2014-07-06T12:07:45Z</time>
 <fix>none</fix>
 <sat>0</sat>
</trkpt>
<trkpt lat="60.924296667" lon="15.068945000">
<time>2014-07-06T12:07:46Z</time>
 <fix>none</fix>
 <sat>0</sat>
</trkpt>
<trkpt lat="60.924341667" lon="15.068883333">
<time>2014-07-06T12:07:47Z</time>
 <fix>none</fix>
 <sat>0</sat>
</trkpt>
<trkpt lat="60.924393333" lon="15.068816667">
<time>2014-07-06T12:07:48Z</time>
 <fix>none</fix>
 <sat>0</sat>
</trkpt>
<trkpt lat="60.924518333" lon="15.068730000">
<time>2014-07-06T12:07:49Z</time>
 <fix>none</fix>
 <sat>0</sat>
</trkpt>
<trkpt lat="60.924585000" lon="15.068710000">
<time>2014-07-06T12:07:50Z</time>
 <fix>none</fix>
 <sat>0</sat>
</trkpt>
<trkpt lat="60.924585000" lon="15.068710000">
<time>2014-07-06T12:07:51Z</time>
 <fix>none</fix>
 <sat>0</sat>
</trkpt>
<trkpt lat="60.924693333" lon="15.068581667">
<time>2014-07-06T12:07:52Z</time>
 <fix>none</fix>
 <sat>0</sat>
</trkpt>
<trkpt lat="60.924723333" lon="15.068530000">
<time>2014-07-06T12:07:53Z</time>
 <fix>none</fix>
 <sat>0</sat>
</trkpt>
<trkpt lat="60.924736667" lon="15.068496667">
<time>2014-07-06T12:07:54Z</time>
 <fix>none</fix>
 <sat>0</sat>
</trkpt>
<trkpt lat="60.924730000" lon="15.068471667">
<time>2014-07-06T12:07:55Z</time>
 <fix>none</fix>
 <sat>0</sat>
</trkpt>
<trkpt lat="60.924735000" lon="15.068390000">
<time>2014-07-06T12:07:56Z</time>
 <fix>none</fix>
 <sat>0</sat>
</trkpt>
<trkpt lat="60.924743333" lon="15.068288333">
<time>2014-07-06T12:07:57Z</time>
 <fix>none</fix>
 <sat>0</sat>
</trkpt>
<trkpt lat="60.924756667" lon="15.068195000">
<time>2014-07-06T12:07:58Z</time>
 <fix>none</fix>
 <sat>0</sat>
</trkpt>
<trkpt lat="60.924753333" lon="15.068106667">
<time>2014-07-06T12:07:59Z</time>
 <fix>none</fix>
 <sat>0</sat>
</trkpt>
<trkpt lat="60.924738333" lon="15.068030000">
<time>2014-07-06T12:08:00Z</time>
 <fix>none</fix>
 <sat>0</sat>
</trkpt>
<trkpt lat="60.924733333" lon="15.067943333">
<time>2014-07-06T12:08:01Z</time>
 <fix>none</fix>
 <sat>0</sat>
</trkpt>
<trkpt lat="60.924705000" lon="15.067900000">
<time>2014-07-06T12:08:02Z</time>
 <fix>none</fix>
 <sat>0</sat>
</trkpt>
<trkpt lat="60.924676667" lon="15.067840000">
<time>2014-07-06T12:08:03Z</time>
 <fix>none</fix>
 <sat>0</sat>
</trkpt>
<trkpt lat="60.924653333" lon="15.067783333">
<time>2014-07-06T12:08:04Z</time>
 <fix>none</fix>
 <sat>0</sat>
</trkpt>
<trkpt lat="60.924626667" lon="15.067721667">
<time>2014-07-06T12:08:05Z</time>
 <fix>none</fix>
 <sat>0</sat>
</trkpt>
<trkpt lat="60.924593333" lon="15.067665000">
<time>2014-07-06T12:08:06Z</time>
 <fix>none</fix>
 <sat>0</sat>
</trkpt>
<trkpt lat="60.924593333" lon="15.067665000">
<time>2014-07-06T12:08:07Z</time>
 <fix>none</fix>
 <sat>0</sat>
</trkpt>
<trkpt lat="60.924563333" lon="15.067601667">
<time>2014-07-06T12:08:08Z</time>
 <fix>none</fix>
 <sat>0</sat>
</trkpt>
<trkpt lat="60.924533333" lon="15.067536667">
<time>2014-07-06T12:08:09Z</time>
 <fix>none</fix>
 <sat>0</sat>
</trkpt>
<trkpt lat="60.924508333" lon="15.067463333">
<time>2014-07-06T12:08:10Z</time>
 <fix>none</fix>
 <sat>0</sat>
</trkpt>
<trkpt lat="60.924486667" lon="15.067383333">
<time>2014-07-06T12:08:11Z</time>
 <fix>none</fix>
 <sat>0</sat>
</trkpt>
<trkpt lat="60.924460000" lon="15.067305000">
<time>2014-07-06T12:08:12Z</time>
 <fix>none</fix>
 <sat>0</sat>
</trkpt>
<trkpt lat="60.924438333" lon="15.067218333">
<time>2014-07-06T12:08:13Z</time>
 <fix>none</fix>
 <sat>0</sat>
</trkpt>
<trkpt lat="60.924391667" lon="15.067043333">
<time>2014-07-06T12:08:14Z</time>
 <fix>none</fix>
 <sat>0</sat>
</trkpt>
<trkpt lat="60.924371667" lon="15.066951667">
<time>2014-07-06T12:08:15Z</time>
 <fix>none</fix>
 <sat>0</sat>
</trkpt>
<trkpt lat="60.924348333" lon="15.066853333">
<time>2014-07-06T12:08:16Z</time>
 <fix>none</fix>
 <sat>0</sat>
</trkpt>
<trkpt lat="60.924315000" lon="15.066766667">
<time>2014-07-06T12:08:17Z</time>
 <fix>none</fix>
 <sat>0</sat>
</trkpt>
<trkpt lat="60.924281667" lon="15.066683333">
<time>2014-07-06T12:08:18Z</time>
 <fix>none</fix>
 <sat>0</sat>
</trkpt>
<trkpt lat="60.924253333" lon="15.066588333">
<time>2014-07-06T12:08:19Z</time>
 <fix>none</fix>
 <sat>0</sat>
</trkpt>
<trkpt lat="60.924221667" lon="15.066503333">
<time>2014-07-06T12:08:20Z</time>
 <fix>none</fix>
 <sat>0</sat>
</trkpt>
<trkpt lat="60.924200000" lon="15.066405000">
<time>2014-07-06T12:08:21Z</time>
 <fix>none</fix>
 <sat>0</sat>
</trkpt>
<trkpt lat="60.924176667" lon="15.066306667">
<time>2014-07-06T12:08:22Z</time>
 <fix>none</fix>
 <sat>0</sat>
</trkpt>
<trkpt lat="60.924160000" lon="15.066196667">
<time>2014-07-06T12:08:23Z</time>
 <fix>none</fix>
 <sat>0</sat>
</trkpt>
<trkpt lat="60.924146667" lon="15.066096667">
<time>2014-07-06T12:08:24Z</time>
 <fix>none</fix>
 <sat>0</sat>
</trkpt>
<trkpt lat="60.924125000" lon="15.066003333">
<time>2014-07-06T12:08:25Z</time>
 <fix>none</fix>
 <sat>0</sat>
</trkpt>
<trkpt lat="60.924113333" lon="15.065883333">
<time>2014-07-06T12:08:26Z</time>
 <fix>none</fix>
 <sat>0</sat>
</trkpt>
<trkpt lat="60.924106667" lon="15.065763333">
<time>2014-07-06T12:08:27Z</time>
 <fix>none</fix>
 <sat>0</sat>
</trkpt>
<trkpt lat="60.924105000" lon="15.065635000">
<time>2014-07-06T12:08:28Z</time>
 <fix>none</fix>
 <sat>0</sat>
</trkpt>
<trkpt lat="60.924118333" lon="15.065516667">
<time>2014-07-06T12:08:29Z</time>
 <fix>none</fix>
 <sat>0</sat>
</trkpt>
<trkpt lat="60.924118333" lon="15.065516667">
<time>2014-07-06T12:08:30Z</time>
 <fix>none</fix>
 <sat>0</sat>
</trkpt>
<trkpt lat="60.924140000" lon="15.065425000">
<time>2014-07-06T12:08:31Z</time>
 <fix>none</fix>
 <sat>0</sat>
</trkpt>
<trkpt lat="60.924158333" lon="15.065326667">
<time>2014-07-06T12:08:32Z</time>
 <fix>none</fix>
 <sat>0</sat>
</trkpt>
<trkpt lat="60.924158333" lon="15.065326667">
<time>2014-07-06T12:08:33Z</time>
 <fix>none</fix>
 <sat>0</sat>
</trkpt>
<trkpt lat="60.924196667" lon="15.065031667">
<time>2014-07-06T12:08:34Z</time>
 <fix>none</fix>
 <sat>0</sat>
</trkpt>
<trkpt lat="60.924196667" lon="15.065031667">
<time>2014-07-06T12:08:35Z</time>
 <fix>none</fix>
 <sat>0</sat>
</trkpt>
<trkpt lat="60.924220000" lon="15.064818333">
<time>2014-07-06T12:08:36Z</time>
 <fix>none</fix>
 <sat>0</sat>
</trkpt>
<trkpt lat="60.924220000" lon="15.064818333">
<time>2014-07-06T12:08:37Z</time>
 <fix>none</fix>
 <sat>0</sat>
</trkpt>
<trkpt lat="60.924235000" lon="15.064610000">
<time>2014-07-06T12:08:38Z</time>
 <fix>none</fix>
 <sat>0</sat>
</trkpt>
<trkpt lat="60.924235000" lon="15.064610000">
<time>2014-07-06T12:08:39Z</time>
 <fix>none</fix>
 <sat>0</sat>
</trkpt>
<trkpt lat="60.924266667" lon="15.064411667">
<time>2014-07-06T12:08:40Z</time>
 <fix>none</fix>
 <sat>0</sat>
</trkpt>
<trkpt lat="60.924266667" lon="15.064411667">
<time>2014-07-06T12:08:41Z</time>
 <fix>none</fix>
 <sat>0</sat>
</trkpt>
<trkpt lat="60.924301667" lon="15.064185000">
<time>2014-07-06T12:08:42Z</time>
 <fix>none</fix>
 <sat>0</sat>
</trkpt>
<trkpt lat="60.924301667" lon="15.064185000">
<time>2014-07-06T12:08:43Z</time>
 <fix>none</fix>
 <sat>0</sat>
</trkpt>
<trkpt lat="60.924336667" lon="15.063960000">
<time>2014-07-06T12:08:44Z</time>
 <fix>none</fix>
 <sat>0</sat>
</trkpt>
<trkpt lat="60.924336667" lon="15.063960000">
<time>2014-07-06T12:08:45Z</time>
 <fix>none</fix>
 <sat>0</sat>
</trkpt>
<trkpt lat="60.924341667" lon="15.063701667">
<time>2014-07-06T12:08:46Z</time>
 <fix>none</fix>
 <sat>0</sat>
</trkpt>
<trkpt lat="60.924333333" lon="15.063603333">
<time>2014-07-06T12:08:47Z</time>
 <fix>none</fix>
 <sat>0</sat>
</trkpt>
<trkpt lat="60.924325000" lon="15.063468333">
<time>2014-07-06T12:08:48Z</time>
 <fix>none</fix>
 <sat>0</sat>
</trkpt>
<trkpt lat="60.924301667" lon="15.063355000">
<time>2014-07-06T12:08:49Z</time>
 <fix>none</fix>
 <sat>0</sat>
</trkpt>
<trkpt lat="60.924271667" lon="15.063251667">
<time>2014-07-06T12:08:50Z</time>
 <fix>none</fix>
 <sat>0</sat>
</trkpt>
<trkpt lat="60.924248333" lon="15.063141667">
<time>2014-07-06T12:08:51Z</time>
 <fix>none</fix>
 <sat>0</sat>
</trkpt>
<trkpt lat="60.924248333" lon="15.063141667">
<time>2014-07-06T12:08:52Z</time>
 <fix>none</fix>
 <sat>0</sat>
</trkpt>
<trkpt lat="60.924236667" lon="15.063025000">
<time>2014-07-06T12:08:53Z</time>
 <fix>none</fix>
 <sat>0</sat>
</trkpt>
<trkpt lat="60.924226667" lon="15.062911667">
<time>2014-07-06T12:08:54Z</time>
 <fix>none</fix>
 <sat>0</sat>
</trkpt>
<trkpt lat="60.924221667" lon="15.062811667">
<time>2014-07-06T12:08:55Z</time>
 <fix>none</fix>
 <sat>0</sat>
</trkpt>
<trkpt lat="60.924210000" lon="15.062731667">
<time>2014-07-06T12:08:56Z</time>
 <fix>none</fix>
 <sat>0</sat>
</trkpt>
<trkpt lat="60.924200000" lon="15.062631667">
<time>2014-07-06T12:08:57Z</time>
 <fix>none</fix>
 <sat>0</sat>
</trkpt>
<trkpt lat="60.924166667" lon="15.062438333">
<time>2014-07-06T12:08:58Z</time>
 <fix>none</fix>
 <sat>0</sat>
</trkpt>
<trkpt lat="60.924166667" lon="15.062438333">
<time>2014-07-06T12:08:59Z</time>
 <fix>none</fix>
 <sat>0</sat>
</trkpt>
<trkpt lat="60.924143333" lon="15.062341667">
<time>2014-07-06T12:09:00Z</time>
 <fix>none</fix>
 <sat>0</sat>
</trkpt>
<trkpt lat="60.924096667" lon="15.062148333">
<time>2014-07-06T12:09:01Z</time>
 <fix>none</fix>
 <sat>0</sat>
</trkpt>
<trkpt lat="60.924071667" lon="15.062050000">
<time>2014-07-06T12:09:02Z</time>
 <fix>none</fix>
 <sat>0</sat>
</trkpt>
<trkpt lat="60.924058333" lon="15.061943333">
<time>2014-07-06T12:09:03Z</time>
 <fix>none</fix>
 <sat>0</sat>
</trkpt>
<trkpt lat="60.924033333" lon="15.061858333">
<time>2014-07-06T12:09:04Z</time>
 <fix>none</fix>
 <sat>0</sat>
</trkpt>
<trkpt lat="60.924021667" lon="15.061780000">
<time>2014-07-06T12:09:05Z</time>
 <fix>none</fix>
 <sat>0</sat>
</trkpt>
<trkpt lat="60.924006667" lon="15.061696667">
<time>2014-07-06T12:09:06Z</time>
 <fix>none</fix>
 <sat>0</sat>
</trkpt>
<trkpt lat="60.923990000" lon="15.061580000">
<time>2014-07-06T12:09:07Z</time>
 <fix>none</fix>
 <sat>0</sat>
</trkpt>
<trkpt lat="60.923968333" lon="15.061476667">
<time>2014-07-06T12:09:08Z</time>
 <fix>none</fix>
 <sat>0</sat>
</trkpt>
<trkpt lat="60.923951667" lon="15.061370000">
<time>2014-07-06T12:09:09Z</time>
 <fix>none</fix>
 <sat>0</sat>
</trkpt>
<trkpt lat="60.923933333" lon="15.061263333">
<time>2014-07-06T12:09:10Z</time>
 <fix>none</fix>
 <sat>0</sat>
</trkpt>
<trkpt lat="60.923913333" lon="15.061158333">
<time>2014-07-06T12:09:11Z</time>
 <fix>none</fix>
 <sat>0</sat>
</trkpt>
<trkpt lat="60.923888333" lon="15.061066667">
<time>2014-07-06T12:09:12Z</time>
 <fix>none</fix>
 <sat>0</sat>
</trkpt>
<trkpt lat="60.923856667" lon="15.060983333">
<time>2014-07-06T12:09:13Z</time>
 <fix>none</fix>
 <sat>0</sat>
</trkpt>
<trkpt lat="60.923820000" lon="15.060905000">
<time>2014-07-06T12:09:14Z</time>
 <fix>none</fix>
 <sat>0</sat>
</trkpt>
<trkpt lat="60.923820000" lon="15.060905000">
<time>2014-07-06T12:09:15Z</time>
 <fix>none</fix>
 <sat>0</sat>
</trkpt>
<trkpt lat="60.923785000" lon="15.060836667">
<time>2014-07-06T12:09:16Z</time>
 <fix>none</fix>
 <sat>0</sat>
</trkpt>
<trkpt lat="60.923756667" lon="15.060760000">
<time>2014-07-06T12:09:17Z</time>
 <fix>none</fix>
 <sat>0</sat>
</trkpt>
<trkpt lat="60.923728333" lon="15.060695000">
<time>2014-07-06T12:09:18Z</time>
 <fix>none</fix>
 <sat>0</sat>
</trkpt>
<trkpt lat="60.923698333" lon="15.060638333">
<time>2014-07-06T12:09:19Z</time>
 <fix>none</fix>
 <sat>0</sat>
</trkpt>
<trkpt lat="60.923660000" lon="15.060590000">
<time>2014-07-06T12:09:20Z</time>
 <fix>none</fix>
 <sat>0</sat>
</trkpt>
<trkpt lat="60.923573333" lon="15.060498333">
<time>2014-07-06T12:09:21Z</time>
 <fix>none</fix>
 <sat>0</sat>
</trkpt>
<trkpt lat="60.923531667" lon="15.060448333">
<time>2014-07-06T12:09:22Z</time>
 <fix>none</fix>
 <sat>0</sat>
</trkpt>
<trkpt lat="60.923488333" lon="15.060383333">
<time>2014-07-06T12:09:23Z</time>
 <fix>none</fix>
 <sat>0</sat>
</trkpt>
<trkpt lat="60.923448333" lon="15.060305000">
<time>2014-07-06T12:09:24Z</time>
 <fix>none</fix>
 <sat>0</sat>
</trkpt>
<trkpt lat="60.923415000" lon="15.060220000">
<time>2014-07-06T12:09:25Z</time>
 <fix>none</fix>
 <sat>0</sat>
</trkpt>
<trkpt lat="60.923375000" lon="15.060141667">
<time>2014-07-06T12:09:26Z</time>
 <fix>none</fix>
 <sat>0</sat>
</trkpt>
<trkpt lat="60.923330000" lon="15.060075000">
<time>2014-07-06T12:09:27Z</time>
 <fix>none</fix>
 <sat>0</sat>
</trkpt>
<trkpt lat="60.923286667" lon="15.059993333">
<time>2014-07-06T12:09:28Z</time>
 <fix>none</fix>
 <sat>0</sat>
</trkpt>
<trkpt lat="60.923236667" lon="15.059920000">
<time>2014-07-06T12:09:29Z</time>
 <fix>none</fix>
 <sat>0</sat>
</trkpt>
<trkpt lat="60.923191667" lon="15.059845000">
<time>2014-07-06T12:09:30Z</time>
 <fix>none</fix>
 <sat>0</sat>
</trkpt>
<trkpt lat="60.923156667" lon="15.059761667">
<time>2014-07-06T12:09:31Z</time>
 <fix>none</fix>
 <sat>0</sat>
</trkpt>
<trkpt lat="60.923115000" lon="15.059693333">
<time>2014-07-06T12:09:32Z</time>
 <fix>none</fix>
 <sat>0</sat>
</trkpt>
<trkpt lat="60.923076667" lon="15.059618333">
<time>2014-07-06T12:09:33Z</time>
 <fix>none</fix>
 <sat>0</sat>
</trkpt>
<trkpt lat="60.923036667" lon="15.059543333">
<time>2014-07-06T12:09:34Z</time>
 <fix>none</fix>
 <sat>0</sat>
</trkpt>
<trkpt lat="60.922996667" lon="15.059481667">
<time>2014-07-06T12:09:35Z</time>
 <fix>none</fix>
 <sat>0</sat>
</trkpt>
<trkpt lat="60.922958333" lon="15.059398333">
<time>2014-07-06T12:09:36Z</time>
 <fix>none</fix>
 <sat>0</sat>
</trkpt>
<trkpt lat="60.922926667" lon="15.059325000">
<time>2014-07-06T12:09:37Z</time>
 <fix>none</fix>
 <sat>0</sat>
</trkpt>
<trkpt lat="60.922926667" lon="15.059325000">
<time>2014-07-06T12:09:38Z</time>
 <fix>none</fix>
 <sat>0</sat>
</trkpt>
<trkpt lat="60.922893333" lon="15.059248333">
<time>2014-07-06T12:09:39Z</time>
 <fix>none</fix>
 <sat>0</sat>
</trkpt>
<trkpt lat="60.922863333" lon="15.059188333">
<time>2014-07-06T12:09:40Z</time>
 <fix>none</fix>
 <sat>0</sat>
</trkpt>
<trkpt lat="60.922826667" lon="15.059146667">
<time>2014-07-06T12:09:41Z</time>
 <fix>none</fix>
 <sat>0</sat>
</trkpt>
<trkpt lat="60.922786667" lon="15.059096667">
<time>2014-07-06T12:09:42Z</time>
 <fix>none</fix>
 <sat>0</sat>
</trkpt>
<trkpt lat="60.922726667" lon="15.058961667">
<time>2014-07-06T12:09:43Z</time>
 <fix>none</fix>
 <sat>0</sat>
</trkpt>
<trkpt lat="60.922696667" lon="15.058930000">
<time>2014-07-06T12:09:44Z</time>
 <fix>none</fix>
 <sat>0</sat>
</trkpt>
<trkpt lat="60.922661667" lon="15.058915000">
<time>2014-07-06T12:09:45Z</time>
 <fix>none</fix>
 <sat>0</sat>
</trkpt>
<trkpt lat="60.922661667" lon="15.058915000">
<time>2014-07-06T12:09:46Z</time>
 <fix>none</fix>
 <sat>0</sat>
</trkpt>
<trkpt lat="60.922601667" lon="15.058826667">
<time>2014-07-06T12:09:47Z</time>
 <fix>none</fix>
 <sat>0</sat>
</trkpt>
<trkpt lat="60.922575000" lon="15.058770000">
<time>2014-07-06T12:09:48Z</time>
 <fix>none</fix>
 <sat>0</sat>
</trkpt>
<trkpt lat="60.922551667" lon="15.058713333">
<time>2014-07-06T12:09:49Z</time>
 <fix>none</fix>
 <sat>0</sat>
</trkpt>
<trkpt lat="60.922535000" lon="15.058645000">
<time>2014-07-06T12:09:50Z</time>
 <fix>none</fix>
 <sat>0</sat>
</trkpt>
<trkpt lat="60.922518333" lon="15.058581667">
<time>2014-07-06T12:09:51Z</time>
 <fix>none</fix>
 <sat>0</sat>
</trkpt>
<trkpt lat="60.922496667" lon="15.058513333">
<time>2014-07-06T12:09:52Z</time>
 <fix>none</fix>
 <sat>0</sat>
</trkpt>
<trkpt lat="60.922480000" lon="15.058431667">
<time>2014-07-06T12:09:53Z</time>
 <fix>none</fix>
 <sat>0</sat>
</trkpt>
<trkpt lat="60.922451667" lon="15.058353333">
<time>2014-07-06T12:09:54Z</time>
 <fix>none</fix>
 <sat>0</sat>
</trkpt>
<trkpt lat="60.922425000" lon="15.058281667">
<time>2014-07-06T12:09:55Z</time>
 <fix>none</fix>
 <sat>0</sat>
</trkpt>
<trkpt lat="60.922403333" lon="15.058218333">
<time>2014-07-06T12:09:56Z</time>
 <fix>none</fix>
 <sat>0</sat>
</trkpt>
<trkpt lat="60.922380000" lon="15.058156667">
<time>2014-07-06T12:09:57Z</time>
 <fix>none</fix>
 <sat>0</sat>
</trkpt>
<trkpt lat="60.922360000" lon="15.058088333">
<time>2014-07-06T12:09:58Z</time>
 <fix>none</fix>
 <sat>0</sat>
</trkpt>
<trkpt lat="60.922340000" lon="15.058015000">
<time>2014-07-06T12:09:59Z</time>
 <fix>none</fix>
 <sat>0</sat>
</trkpt>
<trkpt lat="60.922315000" lon="15.057948333">
<time>2014-07-06T12:10:00Z</time>
 <fix>none</fix>
 <sat>0</sat>
</trkpt>
<trkpt lat="60.922315000" lon="15.057948333">
<time>2014-07-06T12:10:01Z</time>
 <fix>none</fix>
 <sat>0</sat>
</trkpt>
<trkpt lat="60.922290000" lon="15.057888333">
<time>2014-07-06T12:10:02Z</time>
 <fix>none</fix>
 <sat>0</sat>
</trkpt>
<trkpt lat="60.922271667" lon="15.057825000">
<time>2014-07-06T12:10:03Z</time>
 <fix>none</fix>
 <sat>0</sat>
</trkpt>
<trkpt lat="60.922256667" lon="15.057770000">
<time>2014-07-06T12:10:04Z</time>
 <fix>none</fix>
 <sat>0</sat>
</trkpt>
<trkpt lat="60.922241667" lon="15.057726667">
<time>2014-07-06T12:10:05Z</time>
 <fix>none</fix>
 <sat>0</sat>
</trkpt>
<trkpt lat="60.922221667" lon="15.057625000">
<time>2014-07-06T12:10:06Z</time>
 <fix>none</fix>
 <sat>0</sat>
</trkpt>
<trkpt lat="60.922221667" lon="15.057625000">
<time>2014-07-06T12:10:07Z</time>
 <fix>none</fix>
 <sat>0</sat>
</trkpt>
<trkpt lat="60.922195000" lon="15.057511667">
<time>2014-07-06T12:10:08Z</time>
 <fix>none</fix>
 <sat>0</sat>
</trkpt>
<trkpt lat="60.922195000" lon="15.057511667">
<time>2014-07-06T12:10:09Z</time>
 <fix>none</fix>
 <sat>0</sat>
</trkpt>
<trkpt lat="60.922161667" lon="15.057405000">
<time>2014-07-06T12:10:10Z</time>
 <fix>none</fix>
 <sat>0</sat>
</trkpt>
<trkpt lat="60.922151667" lon="15.057340000">
<time>2014-07-06T12:10:11Z</time>
 <fix>none</fix>
 <sat>0</sat>
</trkpt>
<trkpt lat="60.922141667" lon="15.057271667">
<time>2014-07-06T12:10:12Z</time>
 <fix>none</fix>
 <sat>0</sat>
</trkpt>
<trkpt lat="60.922133333" lon="15.057188333">
<time>2014-07-06T12:10:13Z</time>
 <fix>none</fix>
 <sat>0</sat>
</trkpt>
<trkpt lat="60.922121667" lon="15.057100000">
<time>2014-07-06T12:10:14Z</time>
 <fix>none</fix>
 <sat>0</sat>
</trkpt>
<trkpt lat="60.922106667" lon="15.057010000">
<time>2014-07-06T12:10:15Z</time>
 <fix>none</fix>
 <sat>0</sat>
</trkpt>
<trkpt lat="60.922091667" lon="15.056923333">
<time>2014-07-06T12:10:16Z</time>
 <fix>none</fix>
 <sat>0</sat>
</trkpt>
<trkpt lat="60.922073333" lon="15.056853333">
<time>2014-07-06T12:10:17Z</time>
 <fix>none</fix>
 <sat>0</sat>
</trkpt>
<trkpt lat="60.922065000" lon="15.056776667">
<time>2014-07-06T12:10:18Z</time>
 <fix>none</fix>
 <sat>0</sat>
</trkpt>
<trkpt lat="60.922053333" lon="15.056710000">
<time>2014-07-06T12:10:19Z</time>
 <fix>none</fix>
 <sat>0</sat>
</trkpt>
<trkpt lat="60.922036667" lon="15.056653333">
<time>2014-07-06T12:10:20Z</time>
 <fix>none</fix>
 <sat>0</sat>
</trkpt>
<trkpt lat="60.922026667" lon="15.056598333">
<time>2014-07-06T12:10:21Z</time>
 <fix>none</fix>
 <sat>0</sat>
</trkpt>
<trkpt lat="60.922016667" lon="15.056551667">
<time>2014-07-06T12:10:22Z</time>
 <fix>none</fix>
 <sat>0</sat>
</trkpt>
<trkpt lat="60.922006667" lon="15.056501667">
<time>2014-07-06T12:10:23Z</time>
 <fix>none</fix>
 <sat>0</sat>
</trkpt>
<trkpt lat="60.922006667" lon="15.056501667">
<time>2014-07-06T12:10:24Z</time>
 <fix>none</fix>
 <sat>0</sat>
</trkpt>
<trkpt lat="60.921998333" lon="15.056440000">
<time>2014-07-06T12:10:25Z</time>
 <fix>none</fix>
 <sat>0</sat>
</trkpt>
<trkpt lat="60.921983333" lon="15.056385000">
<time>2014-07-06T12:10:26Z</time>
 <fix>none</fix>
 <sat>0</sat>
</trkpt>
<trkpt lat="60.921965000" lon="15.056323333">
<time>2014-07-06T12:10:27Z</time>
 <fix>none</fix>
 <sat>0</sat>
</trkpt>
<trkpt lat="60.921948333" lon="15.056256667">
<time>2014-07-06T12:10:28Z</time>
 <fix>none</fix>
 <sat>0</sat>
</trkpt>
<trkpt lat="60.921920000" lon="15.056110000">
<time>2014-07-06T12:10:29Z</time>
 <fix>none</fix>
 <sat>0</sat>
</trkpt>
<trkpt lat="60.921905000" lon="15.056036667">
<time>2014-07-06T12:10:30Z</time>
 <fix>none</fix>
 <sat>0</sat>
</trkpt>
<trkpt lat="60.921905000" lon="15.056036667">
<time>2014-07-06T12:10:31Z</time>
 <fix>none</fix>
 <sat>0</sat>
</trkpt>
<trkpt lat="60.921865000" lon="15.055898333">
<time>2014-07-06T12:10:32Z</time>
 <fix>none</fix>
 <sat>0</sat>
</trkpt>
<trkpt lat="60.921846667" lon="15.055816667">
<time>2014-07-06T12:10:33Z</time>
 <fix>none</fix>
 <sat>0</sat>
</trkpt>
<trkpt lat="60.921825000" lon="15.055736667">
<time>2014-07-06T12:10:34Z</time>
 <fix>none</fix>
 <sat>0</sat>
</trkpt>
<trkpt lat="60.921805000" lon="15.055655000">
<time>2014-07-06T12:10:35Z</time>
 <fix>none</fix>
 <sat>0</sat>
</trkpt>
<trkpt lat="60.921783333" lon="15.055580000">
<time>2014-07-06T12:10:36Z</time>
 <fix>none</fix>
 <sat>0</sat>
</trkpt>
<trkpt lat="60.921760000" lon="15.055525000">
<time>2014-07-06T12:10:37Z</time>
 <fix>none</fix>
 <sat>0</sat>
</trkpt>
<trkpt lat="60.921735000" lon="15.055493333">
<time>2014-07-06T12:10:38Z</time>
 <fix>none</fix>
 <sat>0</sat>
</trkpt>
<trkpt lat="60.921706667" lon="15.055481667">
<time>2014-07-06T12:10:39Z</time>
 <fix>none</fix>
 <sat>0</sat>
</trkpt>
<trkpt lat="60.921685000" lon="15.055465000">
<time>2014-07-06T12:10:40Z</time>
 <fix>none</fix>
 <sat>0</sat>
</trkpt>
<trkpt lat="60.921680000" lon="15.055460000">
<time>2014-07-06T12:10:41Z</time>
 <fix>none</fix>
 <sat>0</sat>
</trkpt>
<trkpt lat="60.921668333" lon="15.055491667">
<time>2014-07-06T12:10:42Z</time>
 <fix>none</fix>
 <sat>0</sat>
</trkpt>
<trkpt lat="60.921658333" lon="15.055578333">
<time>2014-07-06T12:10:43Z</time>
 <fix>none</fix>
 <sat>0</sat>
</trkpt>
<trkpt lat="60.921615000" lon="15.055726667">
<time>2014-07-06T12:10:44Z</time>
 <fix>none</fix>
 <sat>0</sat>
</trkpt>
<trkpt lat="60.921578333" lon="15.055880000">
<time>2014-07-06T12:10:45Z</time>
 <fix>none</fix>
 <sat>0</sat>
</trkpt>
<trkpt lat="60.921578333" lon="15.055880000">
<time>2014-07-06T12:10:46Z</time>
 <fix>none</fix>
 <sat>0</sat>
</trkpt>
<trkpt lat="60.921546667" lon="15.056018333">
<time>2014-07-06T12:10:47Z</time>
 <fix>none</fix>
 <sat>0</sat>
</trkpt>
<trkpt lat="60.921508333" lon="15.056158333">
<time>2014-07-06T12:10:48Z</time>
 <fix>none</fix>
 <sat>0</sat>
</trkpt>
<trkpt lat="60.921458333" lon="15.056293333">
<time>2014-07-06T12:10:49Z</time>
 <fix>none</fix>
 <sat>0</sat>
</trkpt>
<trkpt lat="60.921405000" lon="15.056406667">
<time>2014-07-06T12:10:50Z</time>
 <fix>none</fix>
 <sat>0</sat>
</trkpt>
<trkpt lat="60.921345000" lon="15.056513333">
<time>2014-07-06T12:10:51Z</time>
 <fix>none</fix>
 <sat>0</sat>
</trkpt>
<trkpt lat="60.921288333" lon="15.056620000">
<time>2014-07-06T12:10:52Z</time>
 <fix>none</fix>
 <sat>0</sat>
</trkpt>
<trkpt lat="60.921226667" lon="15.056721667">
<time>2014-07-06T12:10:53Z</time>
 <fix>none</fix>
 <sat>0</sat>
</trkpt>
<trkpt lat="60.921158333" lon="15.056820000">
<time>2014-07-06T12:10:54Z</time>
 <fix>none</fix>
 <sat>0</sat>
</trkpt>
<trkpt lat="60.921076667" lon="15.056921667">
<time>2014-07-06T12:10:55Z</time>
 <fix>none</fix>
 <sat>0</sat>
</trkpt>
<trkpt lat="60.920930000" lon="15.057038333">
<time>2014-07-06T12:10:56Z</time>
 <fix>none</fix>
 <sat>0</sat>
</trkpt>
<trkpt lat="60.920845000" lon="15.057113333">
<time>2014-07-06T12:10:57Z</time>
 <fix>none</fix>
 <sat>0</sat>
</trkpt>
<trkpt lat="60.920761667" lon="15.057186667">
<time>2014-07-06T12:10:58Z</time>
 <fix>none</fix>
 <sat>0</sat>
</trkpt>
<trkpt lat="60.920690000" lon="15.057245000">
<time>2014-07-06T12:10:59Z</time>
 <fix>none</fix>
 <sat>0</sat>
</trkpt>
<trkpt lat="60.920615000" lon="15.057293333">
<time>2014-07-06T12:11:00Z</time>
 <fix>none</fix>
 <sat>0</sat>
</trkpt>
<trkpt lat="60.920526667" lon="15.057320000">
<time>2014-07-06T12:11:01Z</time>
 <fix>none</fix>
 <sat>0</sat>
</trkpt>
<trkpt lat="60.920431667" lon="15.057358333">
<time>2014-07-06T12:11:02Z</time>
 <fix>none</fix>
 <sat>0</sat>
</trkpt>
<trkpt lat="60.920348333" lon="15.057388333">
<time>2014-07-06T12:11:03Z</time>
 <fix>none</fix>
 <sat>0</sat>
</trkpt>
<trkpt lat="60.920280000" lon="15.057388333">
<time>2014-07-06T12:11:04Z</time>
 <fix>none</fix>
 <sat>0</sat>
</trkpt>
<trkpt lat="60.920226667" lon="15.057396667">
<time>2014-07-06T12:11:05Z</time>
 <fix>none</fix>
 <sat>0</sat>
</trkpt>
<trkpt lat="60.920185000" lon="15.057406667">
<time>2014-07-06T12:11:06Z</time>
 <fix>none</fix>
 <sat>0</sat>
</trkpt>
<trkpt lat="60.920138333" lon="15.057410000">
<time>2014-07-06T12:11:07Z</time>
 <fix>none</fix>
 <sat>0</sat>
</trkpt>
<trkpt lat="60.920080000" lon="15.057406667">
<time>2014-07-06T12:11:08Z</time>
 <fix>none</fix>
 <sat>0</sat>
</trkpt>
<trkpt lat="60.920080000" lon="15.057406667">
<time>2014-07-06T12:11:09Z</time>
 <fix>none</fix>
 <sat>0</sat>
</trkpt>
<trkpt lat="60.920018333" lon="15.057386667">
<time>2014-07-06T12:11:10Z</time>
 <fix>none</fix>
 <sat>0</sat>
</trkpt>
<trkpt lat="60.919955000" lon="15.057373333">
<time>2014-07-06T12:11:11Z</time>
 <fix>none</fix>
 <sat>0</sat>
</trkpt>
<trkpt lat="60.919908333" lon="15.057373333">
<time>2014-07-06T12:11:12Z</time>
 <fix>none</fix>
 <sat>0</sat>
</trkpt>
<trkpt lat="60.919866667" lon="15.057365000">
<time>2014-07-06T12:11:13Z</time>
 <fix>none</fix>
 <sat>0</sat>
</trkpt>
<trkpt lat="60.919831667" lon="15.057353333">
<time>2014-07-06T12:11:14Z</time>
 <fix>none</fix>
 <sat>0</sat>
</trkpt>
<trkpt lat="60.919801667" lon="15.057320000">
<time>2014-07-06T12:11:15Z</time>
 <fix>none</fix>
 <sat>0</sat>
</trkpt>
<trkpt lat="60.919755000" lon="15.057298333">
<time>2014-07-06T12:11:16Z</time>
 <fix>none</fix>
 <sat>0</sat>
</trkpt>
<trkpt lat="60.919655000" lon="15.057258333">
<time>2014-07-06T12:11:17Z</time>
 <fix>none</fix>
 <sat>0</sat>
</trkpt>
<trkpt lat="60.919596667" lon="15.057231667">
<time>2014-07-06T12:11:18Z</time>
 <fix>none</fix>
 <sat>0</sat>
</trkpt>
<trkpt lat="60.919541667" lon="15.057210000">
<time>2014-07-06T12:11:19Z</time>
 <fix>none</fix>
 <sat>0</sat>
</trkpt>
<trkpt lat="60.919491667" lon="15.057218333">
<time>2014-07-06T12:11:20Z</time>
 <fix>none</fix>
 <sat>0</sat>
</trkpt>
<trkpt lat="60.919431667" lon="15.057238333">
<time>2014-07-06T12:11:21Z</time>
 <fix>none</fix>
 <sat>0</sat>
</trkpt>
<trkpt lat="60.919375000" lon="15.057250000">
<time>2014-07-06T12:11:22Z</time>
 <fix>none</fix>
 <sat>0</sat>
</trkpt>
<trkpt lat="60.919323333" lon="15.057260000">
<time>2014-07-06T12:11:23Z</time>
 <fix>none</fix>
 <sat>0</sat>
</trkpt>
<trkpt lat="60.919281667" lon="15.057263333">
<time>2014-07-06T12:11:24Z</time>
 <fix>none</fix>
 <sat>0</sat>
</trkpt>
<trkpt lat="60.919248333" lon="15.057268333">
<time>2014-07-06T12:11:25Z</time>
 <fix>none</fix>
 <sat>0</sat>
</trkpt>
<trkpt lat="60.919230000" lon="15.057275000">
<time>2014-07-06T12:11:26Z</time>
 <fix>none</fix>
 <sat>0</sat>
</trkpt>
<trkpt lat="60.919230000" lon="15.057313333">
<time>2014-07-06T12:11:27Z</time>
 <fix>none</fix>
 <sat>0</sat>
</trkpt>
<trkpt lat="60.919241667" lon="15.057385000">
<time>2014-07-06T12:11:28Z</time>
 <fix>none</fix>
 <sat>0</sat>
</trkpt>
<trkpt lat="60.919266667" lon="15.057475000">
<time>2014-07-06T12:11:29Z</time>
 <fix>none</fix>
 <sat>0</sat>
</trkpt>
<trkpt lat="60.919303333" lon="15.057561667">
<time>2014-07-06T12:11:30Z</time>
 <fix>none</fix>
 <sat>0</sat>
</trkpt>
<trkpt lat="60.919353333" lon="15.057666667">
<time>2014-07-06T12:11:31Z</time>
 <fix>none</fix>
 <sat>0</sat>
</trkpt>
<trkpt lat="60.919353333" lon="15.057666667">
<time>2014-07-06T12:11:32Z</time>
 <fix>none</fix>
 <sat>0</sat>
</trkpt>
<trkpt lat="60.919400000" lon="15.057783333">
<time>2014-07-06T12:11:33Z</time>
 <fix>none</fix>
 <sat>0</sat>
</trkpt>
<trkpt lat="60.919453333" lon="15.057885000">
<time>2014-07-06T12:11:34Z</time>
 <fix>none</fix>
 <sat>0</sat>
</trkpt>
<trkpt lat="60.919453333" lon="15.057885000">
<time>2014-07-06T12:11:35Z</time>
 <fix>none</fix>
 <sat>0</sat>
</trkpt>
<trkpt lat="60.919583333" lon="15.058148333">
<time>2014-07-06T12:11:36Z</time>
 <fix>none</fix>
 <sat>0</sat>
</trkpt>
<trkpt lat="60.919583333" lon="15.058148333">
<time>2014-07-06T12:11:37Z</time>
 <fix>none</fix>
 <sat>0</sat>
</trkpt>
<trkpt lat="60.919661667" lon="15.058326667">
<time>2014-07-06T12:11:38Z</time>
 <fix>none</fix>
 <sat>0</sat>
</trkpt>
<trkpt lat="60.919661667" lon="15.058326667">
<time>2014-07-06T12:11:39Z</time>
 <fix>none</fix>
 <sat>0</sat>
</trkpt>
<trkpt lat="60.919746667" lon="15.058488333">
<time>2014-07-06T12:11:40Z</time>
 <fix>none</fix>
 <sat>0</sat>
</trkpt>
<trkpt lat="60.919746667" lon="15.058488333">
<time>2014-07-06T12:11:41Z</time>
 <fix>none</fix>
 <sat>0</sat>
</trkpt>
<trkpt lat="60.919746667" lon="15.058488333">
<time>2014-07-06T12:11:42Z</time>
 <fix>none</fix>
 <sat>0</sat>
</trkpt>
<trkpt lat="60.919868333" lon="15.058670000">
<time>2014-07-06T12:11:43Z</time>
 <fix>none</fix>
 <sat>0</sat>
</trkpt>
<trkpt lat="60.919915000" lon="15.058820000">
<time>2014-07-06T12:11:44Z</time>
 <fix>none</fix>
 <sat>0</sat>
</trkpt>
<trkpt lat="60.919973333" lon="15.058938333">
<time>2014-07-06T12:11:45Z</time>
 <fix>none</fix>
 <sat>0</sat>
</trkpt>
<trkpt lat="60.920030000" lon="15.059051667">
<time>2014-07-06T12:11:46Z</time>
 <fix>none</fix>
 <sat>0</sat>
</trkpt>
<trkpt lat="60.920065000" lon="15.059183333">
<time>2014-07-06T12:11:47Z</time>
 <fix>none</fix>
 <sat>0</sat>
</trkpt>
<trkpt lat="60.920098333" lon="15.059335000">
<time>2014-07-06T12:11:48Z</time>
 <fix>none</fix>
 <sat>0</sat>
</trkpt>
<trkpt lat="60.920141667" lon="15.059438333">
<time>2014-07-06T12:11:49Z</time>
 <fix>none</fix>
 <sat>0</sat>
</trkpt>
<trkpt lat="60.920211667" lon="15.059460000">
<time>2014-07-06T12:11:50Z</time>
 <fix>none</fix>
 <sat>0</sat>
</trkpt>
<trkpt lat="60.920270000" lon="15.059510000">
<time>2014-07-06T12:11:51Z</time>
 <fix>none</fix>
 <sat>0</sat>
</trkpt>
<trkpt lat="60.920325000" lon="15.059506667">
<time>2014-07-06T12:11:52Z</time>
 <fix>none</fix>
 <sat>0</sat>
</trkpt>
<trkpt lat="60.920388333" lon="15.059535000">
<time>2014-07-06T12:11:53Z</time>
 <fix>none</fix>
 <sat>0</sat>
</trkpt>
<trkpt lat="60.920440000" lon="15.059530000">
<time>2014-07-06T12:11:54Z</time>
 <fix>none</fix>
 <sat>0</sat>
</trkpt>
<trkpt lat="60.920440000" lon="15.059530000">
<time>2014-07-06T12:11:55Z</time>
 <fix>none</fix>
 <sat>0</sat>
</trkpt>
<trkpt lat="60.920493333" lon="15.059546667">
<time>2014-07-06T12:11:56Z</time>
 <fix>none</fix>
 <sat>0</sat>
</trkpt>
<trkpt lat="60.920551667" lon="15.059596667">
<time>2014-07-06T12:11:57Z</time>
 <fix>none</fix>
 <sat>0</sat>
</trkpt>
<trkpt lat="60.920606667" lon="15.059648333">
<time>2014-07-06T12:11:58Z</time>
 <fix>none</fix>
 <sat>0</sat>
</trkpt>
<trkpt lat="60.920663333" lon="15.059693333">
<time>2014-07-06T12:11:59Z</time>
 <fix>none</fix>
 <sat>0</sat>
</trkpt>
<trkpt lat="60.920776667" lon="15.059781667">
<time>2014-07-06T12:12:00Z</time>
 <fix>none</fix>
 <sat>0</sat>
</trkpt>
<trkpt lat="60.920776667" lon="15.059781667">
<time>2014-07-06T12:12:01Z</time>
 <fix>none</fix>
 <sat>0</sat>
</trkpt>
<trkpt lat="60.920776667" lon="15.059781667">
<time>2014-07-06T12:12:02Z</time>
 <fix>none</fix>
 <sat>0</sat>
</trkpt>
<trkpt lat="60.920946667" lon="15.059928333">
<time>2014-07-06T12:12:03Z</time>
 <fix>none</fix>
 <sat>0</sat>
</trkpt>
<trkpt lat="60.920986667" lon="15.059966667">
<time>2014-07-06T12:12:04Z</time>
 <fix>none</fix>
 <sat>0</sat>
</trkpt>
<trkpt lat="60.921040000" lon="15.060018333">
<time>2014-07-06T12:12:05Z</time>
 <fix>none</fix>
 <sat>0</sat>
</trkpt>
<trkpt lat="60.921090000" lon="15.060055000">
<time>2014-07-06T12:12:06Z</time>
 <fix>none</fix>
 <sat>0</sat>
</trkpt>
<trkpt lat="60.921145000" lon="15.060091667">
<time>2014-07-06T12:12:07Z</time>
 <fix>none</fix>
 <sat>0</sat>
</trkpt>
<trkpt lat="60.921200000" lon="15.060133333">
<time>2014-07-06T12:12:08Z</time>
 <fix>none</fix>
 <sat>0</sat>
</trkpt>
<trkpt lat="60.921256667" lon="15.060193333">
<time>2014-07-06T12:12:09Z</time>
 <fix>none</fix>
 <sat>0</sat>
</trkpt>
<trkpt lat="60.921306667" lon="15.060266667">
<time>2014-07-06T12:12:10Z</time>
 <fix>none</fix>
 <sat>0</sat>
</trkpt>
<trkpt lat="60.921370000" lon="15.060351667">
<time>2014-07-06T12:12:11Z</time>
 <fix>none</fix>
 <sat>0</sat>
</trkpt>
<trkpt lat="60.921418333" lon="15.060431667">
<time>2014-07-06T12:12:12Z</time>
 <fix>none</fix>
 <sat>0</sat>
</trkpt>
<trkpt lat="60.921470000" lon="15.060508333">
<time>2014-07-06T12:12:13Z</time>
 <fix>none</fix>
 <sat>0</sat>
</trkpt>
<trkpt lat="60.921516667" lon="15.060585000">
<time>2014-07-06T12:12:14Z</time>
 <fix>none</fix>
 <sat>0</sat>
</trkpt>
<trkpt lat="60.921561667" lon="15.060661667">
<time>2014-07-06T12:12:15Z</time>
 <fix>none</fix>
 <sat>0</sat>
</trkpt>
<trkpt lat="60.921611667" lon="15.060730000">
<time>2014-07-06T12:12:16Z</time>
 <fix>none</fix>
 <sat>0</sat>
</trkpt>
<trkpt lat="60.921663333" lon="15.060806667">
<time>2014-07-06T12:12:17Z</time>
 <fix>none</fix>
 <sat>0</sat>
</trkpt>
<trkpt lat="60.921663333" lon="15.060806667">
<time>2014-07-06T12:12:18Z</time>
 <fix>none</fix>
 <sat>0</sat>
</trkpt>
<trkpt lat="60.921663333" lon="15.060806667">
<time>2014-07-06T12:12:19Z</time>
 <fix>none</fix>
 <sat>0</sat>
</trkpt>
<trkpt lat="60.921793333" lon="15.061071667">
<time>2014-07-06T12:12:20Z</time>
 <fix>none</fix>
 <sat>0</sat>
</trkpt>
<trkpt lat="60.921793333" lon="15.061071667">
<time>2014-07-06T12:12:21Z</time>
 <fix>none</fix>
 <sat>0</sat>
</trkpt>
<trkpt lat="60.921866667" lon="15.061270000">
<time>2014-07-06T12:12:22Z</time>
 <fix>none</fix>
 <sat>0</sat>
</trkpt>
<trkpt lat="60.921963333" lon="15.061398333">
<time>2014-07-06T12:12:23Z</time>
 <fix>none</fix>
 <sat>0</sat>
</trkpt>
<trkpt lat="60.921963333" lon="15.061398333">
<time>2014-07-06T12:12:24Z</time>
 <fix>none</fix>
 <sat>0</sat>
</trkpt>
<trkpt lat="60.921963333" lon="15.061398333">
<time>2014-07-06T12:12:25Z</time>
 <fix>none</fix>
 <sat>0</sat>
</trkpt>
<trkpt lat="60.922076667" lon="15.061473333">
<time>2014-07-06T12:12:26Z</time>
 <fix>none</fix>
 <sat>0</sat>
</trkpt>
<trkpt lat="60.922076667" lon="15.061473333">
<time>2014-07-06T12:12:27Z</time>
 <fix>none</fix>
 <sat>0</sat>
</trkpt>
<trkpt lat="60.922191667" lon="15.061588333">
<time>2014-07-06T12:12:28Z</time>
 <fix>none</fix>
 <sat>0</sat>
</trkpt>
<trkpt lat="60.922238333" lon="15.061613333">
<time>2014-07-06T12:12:29Z</time>
 <fix>none</fix>
 <sat>0</sat>
</trkpt>
<trkpt lat="60.922306667" lon="15.061656667">
<time>2014-07-06T12:12:30Z</time>
 <fix>none</fix>
 <sat>0</sat>
</trkpt>
<trkpt lat="60.922371667" lon="15.061700000">
<time>2014-07-06T12:12:31Z</time>
 <fix>none</fix>
 <sat>0</sat>
</trkpt>
<trkpt lat="60.922413333" lon="15.061730000">
<time>2014-07-06T12:12:32Z</time>
 <fix>none</fix>
 <sat>0</sat>
</trkpt>
<trkpt lat="60.922460000" lon="15.061743333">
<time>2014-07-06T12:12:33Z</time>
 <fix>none</fix>
 <sat>0</sat>
</trkpt>
<trkpt lat="60.922508333" lon="15.061760000">
<time>2014-07-06T12:12:34Z</time>
 <fix>none</fix>
 <sat>0</sat>
</trkpt>
<trkpt lat="60.922560000" lon="15.061786667">
<time>2014-07-06T12:12:35Z</time>
 <fix>none</fix>
 <sat>0</sat>
</trkpt>
<trkpt lat="60.922616667" lon="15.061803333">
<time>2014-07-06T12:12:36Z</time>
 <fix>none</fix>
 <sat>0</sat>
</trkpt>
<trkpt lat="60.922665000" lon="15.061860000">
<time>2014-07-06T12:12:37Z</time>
 <fix>none</fix>
 <sat>0</sat>
</trkpt>
<trkpt lat="60.922710000" lon="15.061928333">
<time>2014-07-06T12:12:38Z</time>
 <fix>none</fix>
 <sat>0</sat>
</trkpt>
<trkpt lat="60.922750000" lon="15.062010000">
<time>2014-07-06T12:12:39Z</time>
 <fix>none</fix>
 <sat>0</sat>
</trkpt>
<trkpt lat="60.922750000" lon="15.062010000">
<time>2014-07-06T12:12:40Z</time>
 <fix>none</fix>
 <sat>0</sat>
</trkpt>
<trkpt lat="60.922790000" lon="15.062100000">
<time>2014-07-06T12:12:41Z</time>
 <fix>none</fix>
 <sat>0</sat>
</trkpt>
<trkpt lat="60.922825000" lon="15.062180000">
<time>2014-07-06T12:12:42Z</time>
 <fix>none</fix>
 <sat>0</sat>
</trkpt>
<trkpt lat="60.922860000" lon="15.062238333">
<time>2014-07-06T12:12:43Z</time>
 <fix>none</fix>
 <sat>0</sat>
</trkpt>
<trkpt lat="60.922890000" lon="15.062305000">
<time>2014-07-06T12:12:44Z</time>
 <fix>none</fix>
 <sat>0</sat>
</trkpt>
<trkpt lat="60.922926667" lon="15.062378333">
<time>2014-07-06T12:12:45Z</time>
 <fix>none</fix>
 <sat>0</sat>
</trkpt>
<trkpt lat="60.922961667" lon="15.062455000">
<time>2014-07-06T12:12:46Z</time>
 <fix>none</fix>
 <sat>0</sat>
</trkpt>
<trkpt lat="60.923031667" lon="15.062568333">
<time>2014-07-06T12:12:47Z</time>
 <fix>none</fix>
 <sat>0</sat>
</trkpt>
<trkpt lat="60.923031667" lon="15.062568333">
<time>2014-07-06T12:12:48Z</time>
 <fix>none</fix>
 <sat>0</sat>
</trkpt>
<trkpt lat="60.923121667" lon="15.062733333">
<time>2014-07-06T12:12:49Z</time>
 <fix>none</fix>
 <sat>0</sat>
</trkpt>
<trkpt lat="60.923168333" lon="15.062800000">
<time>2014-07-06T12:12:50Z</time>
 <fix>none</fix>
 <sat>0</sat>
</trkpt>
<trkpt lat="60.923168333" lon="15.062800000">
<time>2014-07-06T12:12:51Z</time>
 <fix>none</fix>
 <sat>0</sat>
</trkpt>
<trkpt lat="60.923256667" lon="15.062991667">
<time>2014-07-06T12:12:52Z</time>
 <fix>none</fix>
 <sat>0</sat>
</trkpt>
<trkpt lat="60.923301667" lon="15.063095000">
<time>2014-07-06T12:12:53Z</time>
 <fix>none</fix>
 <sat>0</sat>
</trkpt>
<trkpt lat="60.923351667" lon="15.063175000">
<time>2014-07-06T12:12:54Z</time>
 <fix>none</fix>
 <sat>0</sat>
</trkpt>
<trkpt lat="60.923393333" lon="15.063265000">
<time>2014-07-06T12:12:55Z</time>
 <fix>none</fix>
 <sat>0</sat>
</trkpt>
<trkpt lat="60.923426667" lon="15.063353333">
<time>2014-07-06T12:12:56Z</time>
 <fix>none</fix>
 <sat>0</sat>
</trkpt>
<trkpt lat="60.923441667" lon="15.063451667">
<time>2014-07-06T12:12:57Z</time>
 <fix>none</fix>
 <sat>0</sat>
</trkpt>
<trkpt lat="60.923465000" lon="15.063545000">
<time>2014-07-06T12:12:58Z</time>
 <fix>none</fix>
 <sat>0</sat>
</trkpt>
<trkpt lat="60.923483333" lon="15.063621667">
<time>2014-07-06T12:12:59Z</time>
 <fix>none</fix>
 <sat>0</sat>
</trkpt>
<trkpt lat="60.923503333" lon="15.063690000">
<time>2014-07-06T12:13:00Z</time>
 <fix>none</fix>
 <sat>0</sat>
</trkpt>
<trkpt lat="60.923528333" lon="15.063773333">
<time>2014-07-06T12:13:01Z</time>
 <fix>none</fix>
 <sat>0</sat>
</trkpt>
<trkpt lat="60.923553333" lon="15.063863333">
<time>2014-07-06T12:13:02Z</time>
 <fix>none</fix>
 <sat>0</sat>
</trkpt>
<trkpt lat="60.923553333" lon="15.063863333">
<time>2014-07-06T12:13:03Z</time>
 <fix>none</fix>
 <sat>0</sat>
</trkpt>
<trkpt lat="60.923575000" lon="15.063946667">
<time>2014-07-06T12:13:04Z</time>
 <fix>none</fix>
 <sat>0</sat>
</trkpt>
<trkpt lat="60.923603333" lon="15.064013333">
<time>2014-07-06T12:13:05Z</time>
 <fix>none</fix>
 <sat>0</sat>
</trkpt>
<trkpt lat="60.923641667" lon="15.064096667">
<time>2014-07-06T12:13:06Z</time>
 <fix>none</fix>
 <sat>0</sat>
</trkpt>
<trkpt lat="60.923683333" lon="15.064191667">
<time>2014-07-06T12:13:07Z</time>
 <fix>none</fix>
 <sat>0</sat>
</trkpt>
<trkpt lat="60.923725000" lon="15.064285000">
<time>2014-07-06T12:13:08Z</time>
 <fix>none</fix>
 <sat>0</sat>
</trkpt>
<trkpt lat="60.923765000" lon="15.064366667">
<time>2014-07-06T12:13:09Z</time>
 <fix>none</fix>
 <sat>0</sat>
</trkpt>
<trkpt lat="60.923801667" lon="15.064465000">
<time>2014-07-06T12:13:10Z</time>
 <fix>none</fix>
 <sat>0</sat>
</trkpt>
<trkpt lat="60.923873333" lon="15.064673333">
<time>2014-07-06T12:13:11Z</time>
 <fix>none</fix>
 <sat>0</sat>
</trkpt>
<trkpt lat="60.923901667" lon="15.064768333">
<time>2014-07-06T12:13:12Z</time>
 <fix>none</fix>
 <sat>0</sat>
</trkpt>
<trkpt lat="60.923925000" lon="15.064850000">
<time>2014-07-06T12:13:13Z</time>
 <fix>none</fix>
 <sat>0</sat>
</trkpt>
<trkpt lat="60.923948333" lon="15.064930000">
<time>2014-07-06T12:13:14Z</time>
 <fix>none</fix>
 <sat>0</sat>
</trkpt>
<trkpt lat="60.923965000" lon="15.065023333">
<time>2014-07-06T12:13:15Z</time>
 <fix>none</fix>
 <sat>0</sat>
</trkpt>
<trkpt lat="60.923983333" lon="15.065123333">
<time>2014-07-06T12:13:16Z</time>
 <fix>none</fix>
 <sat>0</sat>
</trkpt>
<trkpt lat="60.924006667" lon="15.065218333">
<time>2014-07-06T12:13:17Z</time>
 <fix>none</fix>
 <sat>0</sat>
</trkpt>
<trkpt lat="60.924031667" lon="15.065306667">
<time>2014-07-06T12:13:18Z</time>
 <fix>none</fix>
 <sat>0</sat>
</trkpt>
<trkpt lat="60.924055000" lon="15.065391667">
<time>2014-07-06T12:13:19Z</time>
 <fix>none</fix>
 <sat>0</sat>
</trkpt>
<trkpt lat="60.924055000" lon="15.065391667">
<time>2014-07-06T12:13:20Z</time>
 <fix>none</fix>
 <sat>0</sat>
</trkpt>
<trkpt lat="60.924055000" lon="15.065391667">
<time>2014-07-06T12:13:21Z</time>
 <fix>none</fix>
 <sat>0</sat>
</trkpt>
<trkpt lat="60.924101667" lon="15.065648333">
<time>2014-07-06T12:13:22Z</time>
 <fix>none</fix>
 <sat>0</sat>
</trkpt>
<trkpt lat="60.924101667" lon="15.065648333">
<time>2014-07-06T12:13:23Z</time>
 <fix>none</fix>
 <sat>0</sat>
</trkpt>
<trkpt lat="60.924115000" lon="15.065850000">
<time>2014-07-06T12:13:24Z</time>
 <fix>none</fix>
 <sat>0</sat>
</trkpt>
<trkpt lat="60.924115000" lon="15.065850000">
<time>2014-07-06T12:13:25Z</time>
 <fix>none</fix>
 <sat>0</sat>
</trkpt>
<trkpt lat="60.924076667" lon="15.066020000">
<time>2014-07-06T12:13:26Z</time>
 <fix>none</fix>
 <sat>0</sat>
</trkpt>
<trkpt lat="60.924076667" lon="15.066020000">
<time>2014-07-06T12:13:27Z</time>
 <fix>none</fix>
 <sat>0</sat>
</trkpt>
<trkpt lat="60.924021667" lon="15.066170000">
<time>2014-07-06T12:13:28Z</time>
 <fix>none</fix>
 <sat>0</sat>
</trkpt>
<trkpt lat="60.924021667" lon="15.066170000">
<time>2014-07-06T12:13:29Z</time>
 <fix>none</fix>
 <sat>0</sat>
</trkpt>
<trkpt lat="60.923943333" lon="15.066288333">
<time>2014-07-06T12:13:30Z</time>
 <fix>none</fix>
 <sat>0</sat>
</trkpt>
<trkpt lat="60.923943333" lon="15.066288333">
<time>2014-07-06T12:13:31Z</time>
 <fix>none</fix>
 <sat>0</sat>
</trkpt>
<trkpt lat="60.923843333" lon="15.066446667">
<time>2014-07-06T12:13:32Z</time>
 <fix>none</fix>
 <sat>0</sat>
</trkpt>
<trkpt lat="60.923843333" lon="15.066446667">
<time>2014-07-06T12:13:33Z</time>
 <fix>none</fix>
 <sat>0</sat>
</trkpt>
<trkpt lat="60.923843333" lon="15.066446667">
<time>2014-07-06T12:13:34Z</time>
 <fix>none</fix>
 <sat>0</sat>
</trkpt>
<trkpt lat="60.923705000" lon="15.066603333">
<time>2014-07-06T12:13:35Z</time>
 <fix>none</fix>
 <sat>0</sat>
</trkpt>
<trkpt lat="60.923600000" lon="15.066788333">
<time>2014-07-06T12:13:36Z</time>
 <fix>none</fix>
 <sat>0</sat>
</trkpt>
<trkpt lat="60.923600000" lon="15.066788333">
<time>2014-07-06T12:13:37Z</time>
 <fix>none</fix>
 <sat>0</sat>
</trkpt>
<trkpt lat="60.923441667" lon="15.066973333">
<time>2014-07-06T12:13:38Z</time>
 <fix>none</fix>
 <sat>0</sat>
</trkpt>
<trkpt lat="60.923401667" lon="15.067055000">
<time>2014-07-06T12:13:39Z</time>
 <fix>none</fix>
 <sat>0</sat>
</trkpt>
<trkpt lat="60.923356667" lon="15.067091667">
<time>2014-07-06T12:13:40Z</time>
 <fix>none</fix>
 <sat>0</sat>
</trkpt>
<trkpt lat="60.923313333" lon="15.067140000">
<time>2014-07-06T12:13:41Z</time>
 <fix>none</fix>
 <sat>0</sat>
</trkpt>
<trkpt lat="60.923256667" lon="15.067206667">
<time>2014-07-06T12:13:42Z</time>
 <fix>none</fix>
 <sat>0</sat>
</trkpt>
<trkpt lat="60.923216667" lon="15.067221667">
<time>2014-07-06T12:13:43Z</time>
 <fix>none</fix>
 <sat>0</sat>
</trkpt>
<trkpt lat="60.923156667" lon="15.067248333">
<time>2014-07-06T12:13:44Z</time>
 <fix>none</fix>
 <sat>0</sat>
</trkpt>
<trkpt lat="60.923093333" lon="15.067283333">
<time>2014-07-06T12:13:45Z</time>
 <fix>none</fix>
 <sat>0</sat>
</trkpt>
<trkpt lat="60.923033333" lon="15.067331667">
<time>2014-07-06T12:13:46Z</time>
 <fix>none</fix>
 <sat>0</sat>
</trkpt>
<trkpt lat="60.922973333" lon="15.067388333">
<time>2014-07-06T12:13:47Z</time>
 <fix>none</fix>
 <sat>0</sat>
</trkpt>
<trkpt lat="60.922926667" lon="15.067465000">
<time>2014-07-06T12:13:48Z</time>
 <fix>none</fix>
 <sat>0</sat>
</trkpt>
<trkpt lat="60.922926667" lon="15.067465000">
<time>2014-07-06T12:13:49Z</time>
 <fix>none</fix>
 <sat>0</sat>
</trkpt>
<trkpt lat="60.922891667" lon="15.067566667">
<time>2014-07-06T12:13:50Z</time>
 <fix>none</fix>
 <sat>0</sat>
</trkpt>
<trkpt lat="60.922875000" lon="15.067676667">
<time>2014-07-06T12:13:51Z</time>
 <fix>none</fix>
 <sat>0</sat>
</trkpt>
<trkpt lat="60.922876667" lon="15.067781667">
<time>2014-07-06T12:13:52Z</time>
 <fix>none</fix>
 <sat>0</sat>
</trkpt>
<trkpt lat="60.922883333" lon="15.067873333">
<time>2014-07-06T12:13:53Z</time>
 <fix>none</fix>
 <sat>0</sat>
</trkpt>
<trkpt lat="60.922975000" lon="15.067926667">
<time>2014-07-06T12:13:54Z</time>
 <fix>none</fix>
 <sat>0</sat>
</trkpt>
<trkpt lat="60.923031667" lon="15.067956667">
<time>2014-07-06T12:13:55Z</time>
 <fix>none</fix>
 <sat>0</sat>
</trkpt>
<trkpt lat="60.923031667" lon="15.067956667">
<time>2014-07-06T12:13:56Z</time>
 <fix>none</fix>
 <sat>0</sat>
</trkpt>
<trkpt lat="60.923140000" lon="15.068040000">
<time>2014-07-06T12:13:57Z</time>
 <fix>none</fix>
 <sat>0</sat>
</trkpt>
<trkpt lat="60.923191667" lon="15.068080000">
<time>2014-07-06T12:13:58Z</time>
 <fix>none</fix>
 <sat>0</sat>
</trkpt>
<trkpt lat="60.923245000" lon="15.068123333">
<time>2014-07-06T12:13:59Z</time>
 <fix>none</fix>
 <sat>0</sat>
</trkpt>
<trkpt lat="60.923301667" lon="15.068175000">
<time>2014-07-06T12:14:00Z</time>
 <fix>none</fix>
 <sat>0</sat>
</trkpt>
<trkpt lat="60.923363333" lon="15.068230000">
<time>2014-07-06T12:14:01Z</time>
 <fix>none</fix>
 <sat>0</sat>
</trkpt>
<trkpt lat="60.923425000" lon="15.068275000">
<time>2014-07-06T12:14:02Z</time>
 <fix>none</fix>
 <sat>0</sat>
</trkpt>
<trkpt lat="60.923481667" lon="15.068320000">
<time>2014-07-06T12:14:03Z</time>
 <fix>none</fix>
 <sat>0</sat>
</trkpt>
<trkpt lat="60.923540000" lon="15.068361667">
<time>2014-07-06T12:14:04Z</time>
 <fix>none</fix>
 <sat>0</sat>
</trkpt>
<trkpt lat="60.923598333" lon="15.068411667">
<time>2014-07-06T12:14:05Z</time>
 <fix>none</fix>
 <sat>0</sat>
</trkpt>
<trkpt lat="60.923651667" lon="15.068450000">
<time>2014-07-06T12:14:06Z</time>
 <fix>none</fix>
 <sat>0</sat>
</trkpt>
<trkpt lat="60.923730000" lon="15.068533333">
<time>2014-07-06T12:14:07Z</time>
 <fix>none</fix>
 <sat>0</sat>
</trkpt>
<trkpt lat="60.923785000" lon="15.068563333">
<time>2014-07-06T12:14:08Z</time>
 <fix>none</fix>
 <sat>0</sat>
</trkpt>
<trkpt lat="60.923833333" lon="15.068608333">
<time>2014-07-06T12:14:09Z</time>
 <fix>none</fix>
 <sat>0</sat>
</trkpt>
<trkpt lat="60.923886667" lon="15.068643333">
<time>2014-07-06T12:14:10Z</time>
 <fix>none</fix>
 <sat>0</sat>
</trkpt>
<trkpt lat="60.923948333" lon="15.068698333">
<time>2014-07-06T12:14:11Z</time>
 <fix>none</fix>
 <sat>0</sat>
</trkpt>
<trkpt lat="60.923948333" lon="15.068698333">
<time>2014-07-06T12:14:12Z</time>
 <fix>none</fix>
 <sat>0</sat>
</trkpt>
<trkpt lat="60.924008333" lon="15.068746667">
<time>2014-07-06T12:14:13Z</time>
 <fix>none</fix>
 <sat>0</sat>
</trkpt>
<trkpt lat="60.924068333" lon="15.068798333">
<time>2014-07-06T12:14:14Z</time>
 <fix>none</fix>
 <sat>0</sat>
</trkpt>
<trkpt lat="60.924130000" lon="15.068846667">
<time>2014-07-06T12:14:15Z</time>
 <fix>none</fix>
 <sat>0</sat>
</trkpt>
<trkpt lat="60.924130000" lon="15.068846667">
<time>2014-07-06T12:14:16Z</time>
 <fix>none</fix>
 <sat>0</sat>
</trkpt>
<trkpt lat="60.924275000" lon="15.068990000">
<time>2014-07-06T12:14:17Z</time>
 <fix>none</fix>
 <sat>0</sat>
</trkpt>
<trkpt lat="60.924275000" lon="15.068990000">
<time>2014-07-06T12:14:18Z</time>
 <fix>none</fix>
 <sat>0</sat>
</trkpt>
<trkpt lat="60.924260000" lon="15.069121667">
<time>2014-07-06T12:14:19Z</time>
 <fix>none</fix>
 <sat>0</sat>
</trkpt>
<trkpt lat="60.924260000" lon="15.069121667">
<time>2014-07-06T12:14:20Z</time>
 <fix>none</fix>
 <sat>0</sat>
</trkpt>
<trkpt lat="60.924216667" lon="15.069321667">
<time>2014-07-06T12:14:21Z</time>
 <fix>none</fix>
 <sat>0</sat>
</trkpt>
<trkpt lat="60.924216667" lon="15.069321667">
<time>2014-07-06T12:14:22Z</time>
 <fix>none</fix>
 <sat>0</sat>
</trkpt>
<trkpt lat="60.924135000" lon="15.069600000">
<time>2014-07-06T12:14:23Z</time>
 <fix>none</fix>
 <sat>0</sat>
</trkpt>
<trkpt lat="60.924110000" lon="15.069721667">
<time>2014-07-06T12:14:24Z</time>
 <fix>none</fix>
 <sat>0</sat>
</trkpt>
<trkpt lat="60.924063333" lon="15.069885000">
<time>2014-07-06T12:14:25Z</time>
 <fix>none</fix>
 <sat>0</sat>
</trkpt>
<trkpt lat="60.924030000" lon="15.070048333">
<time>2014-07-06T12:14:26Z</time>
 <fix>none</fix>
 <sat>0</sat>
</trkpt>
<trkpt lat="60.924005000" lon="15.070178333">
<time>2014-07-06T12:14:27Z</time>
 <fix>none</fix>
 <sat>0</sat>
</trkpt>
<trkpt lat="60.923975000" lon="15.070300000">
<time>2014-07-06T12:14:28Z</time>
 <fix>none</fix>
 <sat>0</sat>
</trkpt>
<trkpt lat="60.923948333" lon="15.070408333">
<time>2014-07-06T12:14:29Z</time>
 <fix>none</fix>
 <sat>0</sat>
</trkpt>
<trkpt lat="60.923908333" lon="15.070535000">
<time>2014-07-06T12:14:30Z</time>
 <fix>none</fix>
 <sat>0</sat>
</trkpt>
<trkpt lat="60.923871667" lon="15.070633333">
<time>2014-07-06T12:14:31Z</time>
 <fix>none</fix>
 <sat>0</sat>
</trkpt>
<trkpt lat="60.923821667" lon="15.070723333">
<time>2014-07-06T12:14:32Z</time>
 <fix>none</fix>
 <sat>0</sat>
</trkpt>
<trkpt lat="60.923766667" lon="15.070775000">
<time>2014-07-06T12:14:33Z</time>
 <fix>none</fix>
 <sat>0</sat>
</trkpt>
<trkpt lat="60.923766667" lon="15.070775000">
<time>2014-07-06T12:14:34Z</time>
 <fix>none</fix>
 <sat>0</sat>
</trkpt>
<trkpt lat="60.923705000" lon="15.070826667">
<time>2014-07-06T12:14:35Z</time>
 <fix>none</fix>
 <sat>0</sat>
</trkpt>
<trkpt lat="60.923648333" lon="15.070868333">
<time>2014-07-06T12:14:36Z</time>
 <fix>none</fix>
 <sat>0</sat>
</trkpt>
<trkpt lat="60.923631667" lon="15.070901667">
<time>2014-07-06T12:14:37Z</time>
 <fix>none</fix>
 <sat>0</sat>
</trkpt>
<trkpt lat="60.923618333" lon="15.070931667">
<time>2014-07-06T12:14:38Z</time>
 <fix>none</fix>
 <sat>0</sat>
</trkpt>
<trkpt lat="60.923616667" lon="15.070978333">
<time>2014-07-06T12:14:39Z</time>
 <fix>none</fix>
 <sat>0</sat>
</trkpt>
<trkpt lat="60.923628333" lon="15.071018333">
<time>2014-07-06T12:14:40Z</time>
 <fix>none</fix>
 <sat>0</sat>
</trkpt>
<trkpt lat="60.923653333" lon="15.071058333">
<time>2014-07-06T12:14:41Z</time>
 <fix>none</fix>
 <sat>0</sat>
</trkpt>
<trkpt lat="60.923678333" lon="15.071095000">
<time>2014-07-06T12:14:42Z</time>
 <fix>none</fix>
 <sat>0</sat>
</trkpt>
<trkpt lat="60.923726667" lon="15.071178333">
<time>2014-07-06T12:14:43Z</time>
 <fix>none</fix>
 <sat>0</sat>
</trkpt>
<trkpt lat="60.923748333" lon="15.071216667">
<time>2014-07-06T12:14:44Z</time>
 <fix>none</fix>
 <sat>0</sat>
</trkpt>
<trkpt lat="60.923768333" lon="15.071258333">
<time>2014-07-06T12:14:45Z</time>
 <fix>none</fix>
 <sat>0</sat>
</trkpt>
<trkpt lat="60.923790000" lon="15.071300000">
<time>2014-07-06T12:14:46Z</time>
 <fix>none</fix>
 <sat>0</sat>
</trkpt>
<trkpt lat="60.923810000" lon="15.071340000">
<time>2014-07-06T12:14:47Z</time>
 <fix>none</fix>
 <sat>0</sat>
</trkpt>
<trkpt lat="60.923831667" lon="15.071378333">
<time>2014-07-06T12:14:48Z</time>
 <fix>none</fix>
 <sat>0</sat>
</trkpt>
<trkpt lat="60.923831667" lon="15.071378333">
<time>2014-07-06T12:14:49Z</time>
 <fix>none</fix>
 <sat>0</sat>
</trkpt>
<trkpt lat="60.923831667" lon="15.071378333">
<time>2014-07-06T12:14:50Z</time>
 <fix>none</fix>
 <sat>0</sat>
</trkpt>
<trkpt lat="60.923885000" lon="15.071506667">
<time>2014-07-06T12:14:51Z</time>
 <fix>none</fix>
 <sat>0</sat>
</trkpt>
<trkpt lat="60.923885000" lon="15.071506667">
<time>2014-07-06T12:14:52Z</time>
 <fix>none</fix>
 <sat>0</sat>
</trkpt>
<trkpt lat="60.923908333" lon="15.071586667">
<time>2014-07-06T12:14:53Z</time>
 <fix>none</fix>
 <sat>0</sat>
</trkpt>
<trkpt lat="60.923908333" lon="15.071586667">
<time>2014-07-06T12:14:54Z</time>
 <fix>none</fix>
 <sat>0</sat>
</trkpt>
<trkpt lat="60.923933333" lon="15.071658333">
<time>2014-07-06T12:14:55Z</time>
 <fix>none</fix>
 <sat>0</sat>
</trkpt>
<trkpt lat="60.923933333" lon="15.071658333">
<time>2014-07-06T12:14:56Z</time>
 <fix>none</fix>
 <sat>0</sat>
</trkpt>
<trkpt lat="60.923953333" lon="15.071708333">
<time>2014-07-06T12:14:57Z</time>
 <fix>none</fix>
 <sat>0</sat>
</trkpt>
<trkpt lat="60.923953333" lon="15.071708333">
<time>2014-07-06T12:14:58Z</time>
 <fix>none</fix>
 <sat>0</sat>
</trkpt>
<trkpt lat="60.923988333" lon="15.071745000">
<time>2014-07-06T12:14:59Z</time>
 <fix>none</fix>
 <sat>0</sat>
</trkpt>
<trkpt lat="60.923988333" lon="15.071745000">
<time>2014-07-06T12:15:00Z</time>
 <fix>none</fix>
 <sat>0</sat>
</trkpt>
<trkpt lat="60.924026667" lon="15.071780000">
<time>2014-07-06T12:15:01Z</time>
 <fix>none</fix>
 <sat>0</sat>
</trkpt>
<trkpt lat="60.924026667" lon="15.071780000">
<time>2014-07-06T12:15:02Z</time>
 <fix>none</fix>
 <sat>0</sat>
</trkpt>
<trkpt lat="60.924063333" lon="15.071823333">
<time>2014-07-06T12:15:03Z</time>
 <fix>none</fix>
 <sat>0</sat>
</trkpt>
<trkpt lat="60.924063333" lon="15.071823333">
<time>2014-07-06T12:15:04Z</time>
 <fix>none</fix>
 <sat>0</sat>
</trkpt>
<trkpt lat="60.924063333" lon="15.071823333">
<time>2014-07-06T12:15:05Z</time>
 <fix>none</fix>
 <sat>0</sat>
</trkpt>
<trkpt lat="60.924106667" lon="15.071875000">
<time>2014-07-06T12:15:06Z</time>
 <fix>none</fix>
 <sat>0</sat>
</trkpt>
<trkpt lat="60.924153333" lon="15.071923333">
<time>2014-07-06T12:15:07Z</time>
 <fix>none</fix>
 <sat>0</sat>
</trkpt>
<trkpt lat="60.924153333" lon="15.071923333">
<time>2014-07-06T12:15:08Z</time>
 <fix>none</fix>
 <sat>0</sat>
</trkpt>
<trkpt lat="60.924191667" lon="15.071983333">
<time>2014-07-06T12:15:09Z</time>
 <fix>none</fix>
 <sat>0</sat>
</trkpt>
<trkpt lat="60.924191667" lon="15.071983333">
<time>2014-07-06T12:15:10Z</time>
 <fix>none</fix>
 <sat>0</sat>
</trkpt>
<trkpt lat="60.924223333" lon="15.072040000">
<time>2014-07-06T12:15:11Z</time>
 <fix>none</fix>
 <sat>0</sat>
</trkpt>
<trkpt lat="60.924223333" lon="15.072040000">
<time>2014-07-06T12:15:12Z</time>
 <fix>none</fix>
 <sat>0</sat>
</trkpt>
<trkpt lat="60.924253333" lon="15.072076667">
<time>2014-07-06T12:15:13Z</time>
 <fix>none</fix>
 <sat>0</sat>
</trkpt>
<trkpt lat="60.924253333" lon="15.072076667">
<time>2014-07-06T12:15:14Z</time>
 <fix>none</fix>
 <sat>0</sat>
</trkpt>
<trkpt lat="60.924283333" lon="15.072116667">
<time>2014-07-06T12:15:15Z</time>
 <fix>none</fix>
 <sat>0</sat>
</trkpt>
<trkpt lat="60.924283333" lon="15.072116667">
<time>2014-07-06T12:15:16Z</time>
 <fix>none</fix>
 <sat>0</sat>
</trkpt>
<trkpt lat="60.924330000" lon="15.072181667">
<time>2014-07-06T12:15:17Z</time>
 <fix>none</fix>
 <sat>0</sat>
</trkpt>
<trkpt lat="60.924330000" lon="15.072181667">
<time>2014-07-06T12:15:18Z</time>
 <fix>none</fix>
 <sat>0</sat>
</trkpt>
<trkpt lat="60.924391667" lon="15.072286667">
<time>2014-07-06T12:15:19Z</time>
 <fix>none</fix>
 <sat>0</sat>
</trkpt>
<trkpt lat="60.924391667" lon="15.072286667">
<time>2014-07-06T12:15:20Z</time>
 <fix>none</fix>
 <sat>0</sat>
</trkpt>
<trkpt lat="60.924458333" lon="15.072366667">
<time>2014-07-06T12:15:21Z</time>
 <fix>none</fix>
 <sat>0</sat>
</trkpt>
<trkpt lat="60.924458333" lon="15.072366667">
<time>2014-07-06T12:15:22Z</time>
 <fix>none</fix>
 <sat>0</sat>
</trkpt>
<trkpt lat="60.924531667" lon="15.072451667">
<time>2014-07-06T12:15:23Z</time>
 <fix>none</fix>
 <sat>0</sat>
</trkpt>
<trkpt lat="60.924551667" lon="15.072458333">
<time>2014-07-06T12:15:24Z</time>
 <fix>none</fix>
 <sat>0</sat>
</trkpt>
<trkpt lat="60.924583333" lon="15.072501667">
<time>2014-07-06T12:15:25Z</time>
 <fix>none</fix>
 <sat>0</sat>
</trkpt>
<trkpt lat="60.924696667" lon="15.072630000">
<time>2014-07-06T12:15:26Z</time>
 <fix>none</fix>
 <sat>0</sat>
</trkpt>
<trkpt lat="60.924766667" lon="15.072703333">
<time>2014-07-06T12:15:27Z</time>
 <fix>none</fix>
 <sat>0</sat>
</trkpt>
<trkpt lat="60.924811667" lon="15.072775000">
<time>2014-07-06T12:15:28Z</time>
 <fix>none</fix>
 <sat>0</sat>
</trkpt>
<trkpt lat="60.924861667" lon="15.072850000">
<time>2014-07-06T12:15:29Z</time>
 <fix>none</fix>
 <sat>0</sat>
</trkpt>
<trkpt lat="60.924913333" lon="15.072903333">
<time>2014-07-06T12:15:30Z</time>
 <fix>none</fix>
 <sat>0</sat>
</trkpt>
<trkpt lat="60.924970000" lon="15.072928333">
<time>2014-07-06T12:15:31Z</time>
 <fix>none</fix>
 <sat>0</sat>
</trkpt>
<trkpt lat="60.925023333" lon="15.072913333">
<time>2014-07-06T12:15:32Z</time>
 <fix>none</fix>
 <sat>0</sat>
</trkpt>
<trkpt lat="60.925076667" lon="15.072908333">
<time>2014-07-06T12:15:33Z</time>
 <fix>none</fix>
 <sat>0</sat>
</trkpt>
<trkpt lat="60.925121667" lon="15.072918333">
<time>2014-07-06T12:15:34Z</time>
 <fix>none</fix>
 <sat>0</sat>
</trkpt>
<trkpt lat="60.925160000" lon="15.072938333">
<time>2014-07-06T12:15:35Z</time>
 <fix>none</fix>
 <sat>0</sat>
</trkpt>
<trkpt lat="60.925190000" lon="15.072955000">
<time>2014-07-06T12:15:36Z</time>
 <fix>none</fix>
 <sat>0</sat>
</trkpt>
<trkpt lat="60.925218333" lon="15.072975000">
<time>2014-07-06T12:15:37Z</time>
 <fix>none</fix>
 <sat>0</sat>
</trkpt>
<trkpt lat="60.925246667" lon="15.072993333">
<time>2014-07-06T12:15:38Z</time>
 <fix>none</fix>
 <sat>0</sat>
</trkpt>
<trkpt lat="60.925270000" lon="15.073015000">
<time>2014-07-06T12:15:39Z</time>
 <fix>none</fix>
 <sat>0</sat>
</trkpt>
<trkpt lat="60.925288333" lon="15.073026667">
<time>2014-07-06T12:15:40Z</time>
 <fix>none</fix>
 <sat>0</sat>
</trkpt>
<trkpt lat="60.925308333" lon="15.073043333">
<time>2014-07-06T12:15:41Z</time>
 <fix>none</fix>
 <sat>0</sat>
</trkpt>
<trkpt lat="60.925330000" lon="15.073065000">
<time>2014-07-06T12:15:42Z</time>
 <fix>none</fix>
 <sat>0</sat>
</trkpt>
<trkpt lat="60.925330000" lon="15.073065000">
<time>2014-07-06T12:15:43Z</time>
 <fix>none</fix>
 <sat>0</sat>
</trkpt>
<trkpt lat="60.925350000" lon="15.073086667">
<time>2014-07-06T12:15:44Z</time>
 <fix>none</fix>
 <sat>0</sat>
</trkpt>
<trkpt lat="60.925365000" lon="15.073085000">
<time>2014-07-06T12:15:45Z</time>
 <fix>none</fix>
 <sat>0</sat>
</trkpt>
<trkpt lat="60.925383333" lon="15.073095000">
<time>2014-07-06T12:15:46Z</time>
 <fix>none</fix>
 <sat>0</sat>
</trkpt>
<trkpt lat="60.925408333" lon="15.073100000">
<time>2014-07-06T12:15:47Z</time>
 <fix>none</fix>
 <sat>0</sat>
</trkpt>
<trkpt lat="60.925440000" lon="15.073110000">
<time>2014-07-06T12:15:48Z</time>
 <fix>none</fix>
 <sat>0</sat>
</trkpt>
<trkpt lat="60.925456667" lon="15.073116667">
<time>2014-07-06T12:15:49Z</time>
 <fix>none</fix>
 <sat>0</sat>
</trkpt>
<trkpt lat="60.925476667" lon="15.073130000">
<time>2014-07-06T12:15:50Z</time>
 <fix>none</fix>
 <sat>0</sat>
</trkpt>
<trkpt lat="60.925495000" lon="15.073138333">
<time>2014-07-06T12:15:51Z</time>
 <fix>none</fix>
 <sat>0</sat>
</trkpt>
<trkpt lat="60.925515000" lon="15.073158333">
<time>2014-07-06T12:15:52Z</time>
 <fix>none</fix>
 <sat>0</sat>
</trkpt>
<trkpt lat="60.925536667" lon="15.073171667">
<time>2014-07-06T12:15:53Z</time>
 <fix>none</fix>
 <sat>0</sat>
</trkpt>
<trkpt lat="60.925561667" lon="15.073191667">
<time>2014-07-06T12:15:54Z</time>
 <fix>none</fix>
 <sat>0</sat>
</trkpt>
<trkpt lat="60.925581667" lon="15.073210000">
<time>2014-07-06T12:15:55Z</time>
 <fix>none</fix>
 <sat>0</sat>
</trkpt>
<trkpt lat="60.925610000" lon="15.073235000">
<time>2014-07-06T12:15:56Z</time>
 <fix>none</fix>
 <sat>0</sat>
</trkpt>
<trkpt lat="60.925638333" lon="15.073275000">
<time>2014-07-06T12:15:57Z</time>
 <fix>none</fix>
 <sat>0</sat>
</trkpt>
<trkpt lat="60.925671667" lon="15.073326667">
<time>2014-07-06T12:15:58Z</time>
 <fix>none</fix>
 <sat>0</sat>
</trkpt>
<trkpt lat="60.925698333" lon="15.073358333">
<time>2014-07-06T12:15:59Z</time>
 <fix>none</fix>
 <sat>0</sat>
</trkpt>
<trkpt lat="60.925721667" lon="15.073385000">
<time>2014-07-06T12:16:00Z</time>
 <fix>none</fix>
 <sat>0</sat>
</trkpt>
<trkpt lat="60.925741667" lon="15.073423333">
<time>2014-07-06T12:16:01Z</time>
 <fix>none</fix>
 <sat>0</sat>
</trkpt>
<trkpt lat="60.925773333" lon="15.073451667">
<time>2014-07-06T12:16:02Z</time>
 <fix>none</fix>
 <sat>0</sat>
</trkpt>
<trkpt lat="60.925816667" lon="15.073473333">
<time>2014-07-06T12:16:03Z</time>
 <fix>none</fix>
 <sat>0</sat>
</trkpt>
<trkpt lat="60.925856667" lon="15.073501667">
<time>2014-07-06T12:16:04Z</time>
 <fix>none</fix>
 <sat>0</sat>
</trkpt>
<trkpt lat="60.925896667" lon="15.073548333">
<time>2014-07-06T12:16:05Z</time>
 <fix>none</fix>
 <sat>0</sat>
</trkpt>
<trkpt lat="60.925896667" lon="15.073548333">
<time>2014-07-06T12:16:06Z</time>
 <fix>none</fix>
 <sat>0</sat>
</trkpt>
<trkpt lat="60.925918333" lon="15.073615000">
<time>2014-07-06T12:16:07Z</time>
 <fix>none</fix>
 <sat>0</sat>
</trkpt>
<trkpt lat="60.925945000" lon="15.073681667">
<time>2014-07-06T12:16:08Z</time>
 <fix>none</fix>
 <sat>0</sat>
</trkpt>
<trkpt lat="60.925958333" lon="15.073761667">
<time>2014-07-06T12:16:09Z</time>
 <fix>none</fix>
 <sat>0</sat>
</trkpt>
<trkpt lat="60.925963333" lon="15.073831667">
<time>2014-07-06T12:16:10Z</time>
 <fix>none</fix>
 <sat>0</sat>
</trkpt>
<trkpt lat="60.925966667" lon="15.073895000">
<time>2014-07-06T12:16:11Z</time>
 <fix>none</fix>
 <sat>0</sat>
</trkpt>
<trkpt lat="60.925973333" lon="15.074018333">
<time>2014-07-06T12:16:12Z</time>
 <fix>none</fix>
 <sat>0</sat>
</trkpt>
<trkpt lat="60.925988333" lon="15.074083333">
<time>2014-07-06T12:16:13Z</time>
 <fix>none</fix>
 <sat>0</sat>
</trkpt>
<trkpt lat="60.926010000" lon="15.074131667">
<time>2014-07-06T12:16:14Z</time>
 <fix>none</fix>
 <sat>0</sat>
</trkpt>
<trkpt lat="60.926031667" lon="15.074190000">
<time>2014-07-06T12:16:15Z</time>
 <fix>none</fix>
 <sat>0</sat>
</trkpt>
<trkpt lat="60.926080000" lon="15.074258333">
<time>2014-07-06T12:16:16Z</time>
 <fix>none</fix>
 <sat>0</sat>
</trkpt>
<trkpt lat="60.926125000" lon="15.074331667">
<time>2014-07-06T12:16:17Z</time>
 <fix>none</fix>
 <sat>0</sat>
</trkpt>
<trkpt lat="60.926166667" lon="15.074406667">
<time>2014-07-06T12:16:18Z</time>
 <fix>none</fix>
 <sat>0</sat>
</trkpt>
<trkpt lat="60.926205000" lon="15.074488333">
<time>2014-07-06T12:16:19Z</time>
 <fix>none</fix>
 <sat>0</sat>
</trkpt>
<trkpt lat="60.926231667" lon="15.074568333">
<time>2014-07-06T12:16:20Z</time>
 <fix>none</fix>
 <sat>0</sat>
</trkpt>
<trkpt lat="60.926255000" lon="15.074655000">
<time>2014-07-06T12:16:21Z</time>
 <fix>none</fix>
 <sat>0</sat>
</trkpt>
<trkpt lat="60.926281667" lon="15.074746667">
<time>2014-07-06T12:16:22Z</time>
 <fix>none</fix>
 <sat>0</sat>
</trkpt>
<trkpt lat="60.926313333" lon="15.074841667">
<time>2014-07-06T12:16:23Z</time>
 <fix>none</fix>
 <sat>0</sat>
</trkpt>
<trkpt lat="60.926348333" lon="15.074928333">
<time>2014-07-06T12:16:24Z</time>
 <fix>none</fix>
 <sat>0</sat>
</trkpt>
<trkpt lat="60.926381667" lon="15.075015000">
<time>2014-07-06T12:16:25Z</time>
 <fix>none</fix>
 <sat>0</sat>
</trkpt>
<trkpt lat="60.926381667" lon="15.075015000">
<time>2014-07-06T12:16:26Z</time>
 <fix>none</fix>
 <sat>0</sat>
</trkpt>
<trkpt lat="60.926381667" lon="15.075015000">
<time>2014-07-06T12:16:27Z</time>
 <fix>none</fix>
 <sat>0</sat>
</trkpt>
<trkpt lat="60.926468333" lon="15.075215000">
<time>2014-07-06T12:16:28Z</time>
 <fix>none</fix>
 <sat>0</sat>
</trkpt>
<trkpt lat="60.926475000" lon="15.075231667">
<time>2014-07-06T12:16:29Z</time>
 <fix>none</fix>
 <sat>0</sat>
</trkpt>
<trkpt lat="60.926501667" lon="15.075271667">
<time>2014-07-06T12:16:30Z</time>
 <fix>none</fix>
 <sat>0</sat>
</trkpt>
<trkpt lat="60.926508333" lon="15.075325000">
<time>2014-07-06T12:16:31Z</time>
 <fix>none</fix>
 <sat>0</sat>
</trkpt>
<trkpt lat="60.926530000" lon="15.075381667">
<time>2014-07-06T12:16:32Z</time>
 <fix>none</fix>
 <sat>0</sat>
</trkpt>
<trkpt lat="60.926558333" lon="15.075423333">
<time>2014-07-06T12:16:33Z</time>
 <fix>none</fix>
 <sat>0</sat>
</trkpt>
<trkpt lat="60.926593333" lon="15.075513333">
<time>2014-07-06T12:16:34Z</time>
 <fix>none</fix>
 <sat>0</sat>
</trkpt>
<trkpt lat="60.926593333" lon="15.075513333">
<time>2014-07-06T12:16:35Z</time>
 <fix>none</fix>
 <sat>0</sat>
</trkpt>
<trkpt lat="60.926668333" lon="15.075636667">
<time>2014-07-06T12:16:36Z</time>
 <fix>none</fix>
 <sat>0</sat>
</trkpt>
<trkpt lat="60.926715000" lon="15.075708333">
<time>2014-07-06T12:16:37Z</time>
 <fix>none</fix>
 <sat>0</sat>
</trkpt>
<trkpt lat="60.926756667" lon="15.075775000">
<time>2014-07-06T12:16:38Z</time>
 <fix>none</fix>
 <sat>0</sat>
</trkpt>
<trkpt lat="60.926800000" lon="15.075850000">
<time>2014-07-06T12:16:39Z</time>
 <fix>none</fix>
 <sat>0</sat>
</trkpt>
<trkpt lat="60.926831667" lon="15.075930000">
<time>2014-07-06T12:16:40Z</time>
 <fix>none</fix>
 <sat>0</sat>
</trkpt>
<trkpt lat="60.926823333" lon="15.076053333">
<time>2014-07-06T12:16:41Z</time>
 <fix>none</fix>
 <sat>0</sat>
</trkpt>
<trkpt lat="60.926798333" lon="15.076205000">
<time>2014-07-06T12:16:42Z</time>
 <fix>none</fix>
 <sat>0</sat>
</trkpt>
<trkpt lat="60.926781667" lon="15.076343333">
<time>2014-07-06T12:16:43Z</time>
 <fix>none</fix>
 <sat>0</sat>
</trkpt>
<trkpt lat="60.926770000" lon="15.076455000">
<time>2014-07-06T12:16:44Z</time>
 <fix>none</fix>
 <sat>0</sat>
</trkpt>
<trkpt lat="60.926756667" lon="15.076570000">
<time>2014-07-06T12:16:45Z</time>
 <fix>none</fix>
 <sat>0</sat>
</trkpt>
<trkpt lat="60.926743333" lon="15.076690000">
<time>2014-07-06T12:16:46Z</time>
 <fix>none</fix>
 <sat>0</sat>
</trkpt>
<trkpt lat="60.926741667" lon="15.076783333">
<time>2014-07-06T12:16:47Z</time>
 <fix>none</fix>
 <sat>0</sat>
</trkpt>
<trkpt lat="60.926758333" lon="15.076895000">
<time>2014-07-06T12:16:48Z</time>
 <fix>none</fix>
 <sat>0</sat>
</trkpt>
<trkpt lat="60.926783333" lon="15.077020000">
<time>2014-07-06T12:16:49Z</time>
 <fix>none</fix>
 <sat>0</sat>
</trkpt>
<trkpt lat="60.926815000" lon="15.077135000">
<time>2014-07-06T12:16:50Z</time>
 <fix>none</fix>
 <sat>0</sat>
</trkpt>
<trkpt lat="60.926815000" lon="15.077135000">
<time>2014-07-06T12:16:51Z</time>
 <fix>none</fix>
 <sat>0</sat>
</trkpt>
<trkpt lat="60.926835000" lon="15.077241667">
<time>2014-07-06T12:16:52Z</time>
 <fix>none</fix>
 <sat>0</sat>
</trkpt>
<trkpt lat="60.926850000" lon="15.077343333">
<time>2014-07-06T12:16:53Z</time>
 <fix>none</fix>
 <sat>0</sat>
</trkpt>
<trkpt lat="60.926860000" lon="15.077440000">
<time>2014-07-06T12:16:54Z</time>
 <fix>none</fix>
 <sat>0</sat>
</trkpt>
<trkpt lat="60.926873333" lon="15.077523333">
<time>2014-07-06T12:16:55Z</time>
 <fix>none</fix>
 <sat>0</sat>
</trkpt>
<trkpt lat="60.926893333" lon="15.077676667">
<time>2014-07-06T12:16:56Z</time>
 <fix>none</fix>
 <sat>0</sat>
</trkpt>
<trkpt lat="60.926891667" lon="15.077735000">
<time>2014-07-06T12:16:57Z</time>
 <fix>none</fix>
 <sat>0</sat>
</trkpt>
<trkpt lat="60.926886667" lon="15.077776667">
<time>2014-07-06T12:16:58Z</time>
 <fix>none</fix>
 <sat>0</sat>
</trkpt>
<trkpt lat="60.926896667" lon="15.077815000">
<time>2014-07-06T12:16:59Z</time>
 <fix>none</fix>
 <sat>0</sat>
</trkpt>
<trkpt lat="60.926896667" lon="15.077815000">
<time>2014-07-06T12:17:00Z</time>
 <fix>none</fix>
 <sat>0</sat>
</trkpt>
<trkpt lat="60.926951667" lon="15.077880000">
<time>2014-07-06T12:17:01Z</time>
 <fix>none</fix>
 <sat>0</sat>
</trkpt>
<trkpt lat="60.926963333" lon="15.077931667">
<time>2014-07-06T12:17:02Z</time>
 <fix>none</fix>
 <sat>0</sat>
</trkpt>
<trkpt lat="60.926980000" lon="15.077975000">
<time>2014-07-06T12:17:03Z</time>
 <fix>none</fix>
 <sat>0</sat>
</trkpt>
<trkpt lat="60.926998333" lon="15.078011667">
<time>2014-07-06T12:17:04Z</time>
 <fix>none</fix>
 <sat>0</sat>
</trkpt>
<trkpt lat="60.927030000" lon="15.078031667">
<time>2014-07-06T12:17:05Z</time>
 <fix>none</fix>
 <sat>0</sat>
</trkpt>
<trkpt lat="60.927063333" lon="15.078048333">
<time>2014-07-06T12:17:06Z</time>
 <fix>none</fix>
 <sat>0</sat>
</trkpt>
<trkpt lat="60.927095000" lon="15.078078333">
<time>2014-07-06T12:17:07Z</time>
 <fix>none</fix>
 <sat>0</sat>
</trkpt>
<trkpt lat="60.927095000" lon="15.078078333">
<time>2014-07-06T12:17:08Z</time>
 <fix>none</fix>
 <sat>0</sat>
</trkpt>
<trkpt lat="60.927095000" lon="15.078078333">
<time>2014-07-06T12:17:09Z</time>
 <fix>none</fix>
 <sat>0</sat>
</trkpt>
<trkpt lat="60.927198333" lon="15.078141667">
<time>2014-07-06T12:17:10Z</time>
 <fix>none</fix>
 <sat>0</sat>
</trkpt>
<trkpt lat="60.927221667" lon="15.078161667">
<time>2014-07-06T12:17:11Z</time>
 <fix>none</fix>
 <sat>0</sat>
</trkpt>
<trkpt lat="60.927243333" lon="15.078203333">
<time>2014-07-06T12:17:12Z</time>
 <fix>none</fix>
 <sat>0</sat>
</trkpt>
<trkpt lat="60.927273333" lon="15.078225000">
<time>2014-07-06T12:17:13Z</time>
 <fix>none</fix>
 <sat>0</sat>
</trkpt>
<trkpt lat="60.927273333" lon="15.078225000">
<time>2014-07-06T12:17:14Z</time>
 <fix>none</fix>
 <sat>0</sat>
</trkpt>
<trkpt lat="60.927296667" lon="15.078241667">
<time>2014-07-06T12:17:15Z</time>
 <fix>none</fix>
 <sat>0</sat>
</trkpt>
<trkpt lat="60.927321667" lon="15.078265000">
<time>2014-07-06T12:17:16Z</time>
 <fix>none</fix>
 <sat>0</sat>
</trkpt>
<trkpt lat="60.927345000" lon="15.078270000">
<time>2014-07-06T12:17:17Z</time>
 <fix>none</fix>
 <sat>0</sat>
</trkpt>
<trkpt lat="60.927380000" lon="15.078293333">
<time>2014-07-06T12:17:18Z</time>
 <fix>none</fix>
 <sat>0</sat>
</trkpt>
<trkpt lat="60.927415000" lon="15.078311667">
<time>2014-07-06T12:17:19Z</time>
 <fix>none</fix>
 <sat>0</sat>
</trkpt>
<trkpt lat="60.927481667" lon="15.078356667">
<time>2014-07-06T12:17:20Z</time>
 <fix>none</fix>
 <sat>0</sat>
</trkpt>
<trkpt lat="60.927481667" lon="15.078356667">
<time>2014-07-06T12:17:21Z</time>
 <fix>none</fix>
 <sat>0</sat>
</trkpt>
<trkpt lat="60.927558333" lon="15.078415000">
<time>2014-07-06T12:17:22Z</time>
 <fix>none</fix>
 <sat>0</sat>
</trkpt>
<trkpt lat="60.927593333" lon="15.078428333">
<time>2014-07-06T12:17:23Z</time>
 <fix>none</fix>
 <sat>0</sat>
</trkpt>
<trkpt lat="60.927633333" lon="15.078441667">
<time>2014-07-06T12:17:24Z</time>
 <fix>none</fix>
 <sat>0</sat>
</trkpt>
<trkpt lat="60.927671667" lon="15.078455000">
<time>2014-07-06T12:17:25Z</time>
 <fix>none</fix>
 <sat>0</sat>
</trkpt>
<trkpt lat="60.927710000" lon="15.078460000">
<time>2014-07-06T12:17:26Z</time>
 <fix>none</fix>
 <sat>0</sat>
</trkpt>
<trkpt lat="60.927741667" lon="15.078478333">
<time>2014-07-06T12:17:27Z</time>
 <fix>none</fix>
 <sat>0</sat>
</trkpt>
<trkpt lat="60.927760000" lon="15.078505000">
<time>2014-07-06T12:17:28Z</time>
 <fix>none</fix>
 <sat>0</sat>
</trkpt>
<trkpt lat="60.927790000" lon="15.078523333">
<time>2014-07-06T12:17:29Z</time>
 <fix>none</fix>
 <sat>0</sat>
</trkpt>
<trkpt lat="60.927820000" lon="15.078535000">
<time>2014-07-06T12:17:30Z</time>
 <fix>none</fix>
 <sat>0</sat>
</trkpt>
<trkpt lat="60.927845000" lon="15.078573333">
<time>2014-07-06T12:17:31Z</time>
 <fix>none</fix>
 <sat>0</sat>
</trkpt>
<trkpt lat="60.927883333" lon="15.078618333">
<time>2014-07-06T12:17:32Z</time>
 <fix>none</fix>
 <sat>0</sat>
</trkpt>
<trkpt lat="60.927915000" lon="15.078678333">
<time>2014-07-06T12:17:33Z</time>
 <fix>none</fix>
 <sat>0</sat>
</trkpt>
<trkpt lat="60.927940000" lon="15.078718333">
<time>2014-07-06T12:17:34Z</time>
 <fix>none</fix>
 <sat>0</sat>
</trkpt>
<trkpt lat="60.927961667" lon="15.078743333">
<time>2014-07-06T12:17:35Z</time>
 <fix>none</fix>
 <sat>0</sat>
</trkpt>
<trkpt lat="60.927998333" lon="15.078778333">
<time>2014-07-06T12:17:36Z</time>
 <fix>none</fix>
 <sat>0</sat>
</trkpt>
<trkpt lat="60.927998333" lon="15.078778333">
<time>2014-07-06T12:17:37Z</time>
 <fix>none</fix>
 <sat>0</sat>
</trkpt>
<trkpt lat="60.928038333" lon="15.078833333">
<time>2014-07-06T12:17:38Z</time>
 <fix>none</fix>
 <sat>0</sat>
</trkpt>
<trkpt lat="60.928076667" lon="15.078896667">
<time>2014-07-06T12:17:39Z</time>
 <fix>none</fix>
 <sat>0</sat>
</trkpt>
<trkpt lat="60.928111667" lon="15.078968333">
<time>2014-07-06T12:17:40Z</time>
 <fix>none</fix>
 <sat>0</sat>
</trkpt>
<trkpt lat="60.928145000" lon="15.079045000">
<time>2014-07-06T12:17:41Z</time>
 <fix>none</fix>
 <sat>0</sat>
</trkpt>
<trkpt lat="60.928173333" lon="15.079133333">
<time>2014-07-06T12:17:42Z</time>
 <fix>none</fix>
 <sat>0</sat>
</trkpt>
<trkpt lat="60.928241667" lon="15.079313333">
<time>2014-07-06T12:17:43Z</time>
 <fix>none</fix>
 <sat>0</sat>
</trkpt>
<trkpt lat="60.928285000" lon="15.079418333">
<time>2014-07-06T12:17:44Z</time>
 <fix>none</fix>
 <sat>0</sat>
</trkpt>
<trkpt lat="60.928330000" lon="15.079500000">
<time>2014-07-06T12:17:45Z</time>
 <fix>none</fix>
 <sat>0</sat>
</trkpt>
<trkpt lat="60.928330000" lon="15.079500000">
<time>2014-07-06T12:17:46Z</time>
 <fix>none</fix>
 <sat>0</sat>
</trkpt>
<trkpt lat="60.928378333" lon="15.079580000">
<time>2014-07-06T12:17:47Z</time>
 <fix>none</fix>
 <sat>0</sat>
</trkpt>
<trkpt lat="60.928378333" lon="15.079580000">
<time>2014-07-06T12:17:48Z</time>
 <fix>none</fix>
 <sat>0</sat>
</trkpt>
<trkpt lat="60.928490000" lon="15.079825000">
<time>2014-07-06T12:17:49Z</time>
 <fix>none</fix>
 <sat>0</sat>
</trkpt>
<trkpt lat="60.928490000" lon="15.079825000">
<time>2014-07-06T12:17:50Z</time>
 <fix>none</fix>
 <sat>0</sat>
</trkpt>
<trkpt lat="60.928550000" lon="15.080030000">
<time>2014-07-06T12:17:51Z</time>
 <fix>none</fix>
 <sat>0</sat>
</trkpt>
<trkpt lat="60.928563333" lon="15.080116667">
<time>2014-07-06T12:17:52Z</time>
 <fix>none</fix>
 <sat>0</sat>
</trkpt>
<trkpt lat="60.928590000" lon="15.080220000">
<time>2014-07-06T12:17:53Z</time>
 <fix>none</fix>
 <sat>0</sat>
</trkpt>
<trkpt lat="60.928623333" lon="15.080300000">
<time>2014-07-06T12:17:54Z</time>
 <fix>none</fix>
 <sat>0</sat>
</trkpt>
<trkpt lat="60.928656667" lon="15.080371667">
<time>2014-07-06T12:17:55Z</time>
 <fix>none</fix>
 <sat>0</sat>
</trkpt>
<trkpt lat="60.928696667" lon="15.080428333">
<time>2014-07-06T12:17:56Z</time>
 <fix>none</fix>
 <sat>0</sat>
</trkpt>
<trkpt lat="60.928720000" lon="15.080511667">
<time>2014-07-06T12:17:57Z</time>
 <fix>none</fix>
 <sat>0</sat>
</trkpt>
<trkpt lat="60.928745000" lon="15.080600000">
<time>2014-07-06T12:17:58Z</time>
 <fix>none</fix>
 <sat>0</sat>
</trkpt>
<trkpt lat="60.928768333" lon="15.080691667">
<time>2014-07-06T12:17:59Z</time>
 <fix>none</fix>
 <sat>0</sat>
</trkpt>
<trkpt lat="60.928768333" lon="15.080691667">
<time>2014-07-06T12:18:00Z</time>
 <fix>none</fix>
 <sat>0</sat>
</trkpt>
<trkpt lat="60.928790000" lon="15.080803333">
<time>2014-07-06T12:18:01Z</time>
 <fix>none</fix>
 <sat>0</sat>
</trkpt>
<trkpt lat="60.928810000" lon="15.080908333">
<time>2014-07-06T12:18:02Z</time>
 <fix>none</fix>
 <sat>0</sat>
</trkpt>
<trkpt lat="60.928818333" lon="15.081015000">
<time>2014-07-06T12:18:03Z</time>
 <fix>none</fix>
 <sat>0</sat>
</trkpt>
<trkpt lat="60.928828333" lon="15.081135000">
<time>2014-07-06T12:18:04Z</time>
 <fix>none</fix>
 <sat>0</sat>
</trkpt>
<trkpt lat="60.928848333" lon="15.081385000">
<time>2014-07-06T12:18:05Z</time>
 <fix>none</fix>
 <sat>0</sat>
</trkpt>
<trkpt lat="60.928848333" lon="15.081385000">
<time>2014-07-06T12:18:06Z</time>
 <fix>none</fix>
 <sat>0</sat>
</trkpt>
<trkpt lat="60.928925000" lon="15.081621667">
<time>2014-07-06T12:18:07Z</time>
 <fix>none</fix>
 <sat>0</sat>
</trkpt>
<trkpt lat="60.928925000" lon="15.081621667">
<time>2014-07-06T12:18:08Z</time>
 <fix>none</fix>
 <sat>0</sat>
</trkpt>
<trkpt lat="60.928925000" lon="15.081621667">
<time>2014-07-06T12:18:09Z</time>
 <fix>none</fix>
 <sat>0</sat>
</trkpt>
<trkpt lat="60.929048333" lon="15.081841667">
<time>2014-07-06T12:18:10Z</time>
 <fix>none</fix>
 <sat>0</sat>
</trkpt>
<trkpt lat="60.929048333" lon="15.081841667">
<time>2014-07-06T12:18:11Z</time>
 <fix>none</fix>
 <sat>0</sat>
</trkpt>
<trkpt lat="60.929103333" lon="15.081951667">
<time>2014-07-06T12:18:12Z</time>
 <fix>none</fix>
 <sat>0</sat>
</trkpt>
<trkpt lat="60.929103333" lon="15.081951667">
<time>2014-07-06T12:18:13Z</time>
 <fix>none</fix>
 <sat>0</sat>
</trkpt>
<trkpt lat="60.929178333" lon="15.082065000">
<time>2014-07-06T12:18:14Z</time>
 <fix>none</fix>
 <sat>0</sat>
</trkpt>
<trkpt lat="60.929178333" lon="15.082065000">
<time>2014-07-06T12:18:15Z</time>
 <fix>none</fix>
 <sat>0</sat>
</trkpt>
<trkpt lat="60.929271667" lon="15.082280000">
<time>2014-07-06T12:18:16Z</time>
 <fix>none</fix>
 <sat>0</sat>
</trkpt>
<trkpt lat="60.929271667" lon="15.082280000">
<time>2014-07-06T12:18:17Z</time>
 <fix>none</fix>
 <sat>0</sat>
</trkpt>
<trkpt lat="60.929403333" lon="15.082551667">
<time>2014-07-06T12:18:18Z</time>
 <fix>none</fix>
 <sat>0</sat>
</trkpt>
<trkpt lat="60.929403333" lon="15.082551667">
<time>2014-07-06T12:18:19Z</time>
 <fix>none</fix>
 <sat>0</sat>
</trkpt>
<trkpt lat="60.929508333" lon="15.082813333">
<time>2014-07-06T12:18:20Z</time>
 <fix>none</fix>
 <sat>0</sat>
</trkpt>
<trkpt lat="60.929508333" lon="15.082813333">
<time>2014-07-06T12:18:21Z</time>
 <fix>none</fix>
 <sat>0</sat>
</trkpt>
<trkpt lat="60.929651667" lon="15.082945000">
<time>2014-07-06T12:18:22Z</time>
 <fix>none</fix>
 <sat>0</sat>
</trkpt>
<trkpt lat="60.929651667" lon="15.082945000">
<time>2014-07-06T12:18:23Z</time>
 <fix>none</fix>
 <sat>0</sat>
</trkpt>
<trkpt lat="60.929768333" lon="15.083146667">
<time>2014-07-06T12:18:24Z</time>
 <fix>none</fix>
 <sat>0</sat>
</trkpt>
<trkpt lat="60.929768333" lon="15.083146667">
<time>2014-07-06T12:18:25Z</time>
 <fix>none</fix>
 <sat>0</sat>
</trkpt>
<trkpt lat="60.929871667" lon="15.083331667">
<time>2014-07-06T12:18:26Z</time>
 <fix>none</fix>
 <sat>0</sat>
</trkpt>
<trkpt lat="60.929890000" lon="15.083361667">
<time>2014-07-06T12:18:27Z</time>
 <fix>none</fix>
 <sat>0</sat>
</trkpt>
<trkpt lat="60.929935000" lon="15.083440000">
<time>2014-07-06T12:18:28Z</time>
 <fix>none</fix>
 <sat>0</sat>
</trkpt>
<trkpt lat="60.929985000" lon="15.083796667">
<time>2014-07-06T12:18:29Z</time>
 <fix>none</fix>
 <sat>0</sat>
</trkpt>
<trkpt lat="60.930021667" lon="15.083930000">
<time>2014-07-06T12:18:30Z</time>
 <fix>none</fix>
 <sat>0</sat>
</trkpt>
<trkpt lat="60.930050000" lon="15.084060000">
<time>2014-07-06T12:18:31Z</time>
 <fix>none</fix>
 <sat>0</sat>
</trkpt>
<trkpt lat="60.930066667" lon="15.084206667">
<time>2014-07-06T12:18:32Z</time>
 <fix>none</fix>
 <sat>0</sat>
</trkpt>
<trkpt lat="60.930076667" lon="15.084355000">
<time>2014-07-06T12:18:33Z</time>
 <fix>none</fix>
 <sat>0</sat>
</trkpt>
<trkpt lat="60.930085000" lon="15.084510000">
<time>2014-07-06T12:18:34Z</time>
 <fix>none</fix>
 <sat>0</sat>
</trkpt>
<trkpt lat="60.930093333" lon="15.084683333">
<time>2014-07-06T12:18:35Z</time>
 <fix>none</fix>
 <sat>0</sat>
</trkpt>
<trkpt lat="60.930103333" lon="15.084850000">
<time>2014-07-06T12:18:36Z</time>
 <fix>none</fix>
 <sat>0</sat>
</trkpt>
<trkpt lat="60.930106667" lon="15.085030000">
<time>2014-07-06T12:18:37Z</time>
 <fix>none</fix>
 <sat>0</sat>
</trkpt>
<trkpt lat="60.930113333" lon="15.085206667">
<time>2014-07-06T12:18:38Z</time>
 <fix>none</fix>
 <sat>0</sat>
</trkpt>
<trkpt lat="60.930113333" lon="15.085206667">
<time>2014-07-06T12:18:39Z</time>
 <fix>none</fix>
 <sat>0</sat>
</trkpt>
<trkpt lat="60.930113333" lon="15.085206667">
<time>2014-07-06T12:18:40Z</time>
 <fix>none</fix>
 <sat>0</sat>
</trkpt>
<trkpt lat="60.930108333" lon="15.085725000">
<time>2014-07-06T12:18:41Z</time>
 <fix>none</fix>
 <sat>0</sat>
</trkpt>
<trkpt lat="60.930108333" lon="15.085725000">
<time>2014-07-06T12:18:42Z</time>
 <fix>none</fix>
 <sat>0</sat>
</trkpt>
<trkpt lat="60.930028333" lon="15.086078333">
<time>2014-07-06T12:18:43Z</time>
 <fix>none</fix>
 <sat>0</sat>
</trkpt>
<trkpt lat="60.930028333" lon="15.086078333">
<time>2014-07-06T12:18:44Z</time>
 <fix>none</fix>
 <sat>0</sat>
</trkpt>
<trkpt lat="60.929971667" lon="15.086425000">
<time>2014-07-06T12:18:45Z</time>
 <fix>none</fix>
 <sat>0</sat>
</trkpt>
<trkpt lat="60.929971667" lon="15.086425000">
<time>2014-07-06T12:18:46Z</time>
 <fix>none</fix>
 <sat>0</sat>
</trkpt>
<trkpt lat="60.929926667" lon="15.086778333">
<time>2014-07-06T12:18:47Z</time>
 <fix>none</fix>
 <sat>0</sat>
</trkpt>
<trkpt lat="60.929926667" lon="15.086778333">
<time>2014-07-06T12:18:48Z</time>
 <fix>none</fix>
 <sat>0</sat>
</trkpt>
<trkpt lat="60.929896667" lon="15.087118333">
<time>2014-07-06T12:18:49Z</time>
 <fix>none</fix>
 <sat>0</sat>
</trkpt>
<trkpt lat="60.929896667" lon="15.087118333">
<time>2014-07-06T12:18:50Z</time>
 <fix>none</fix>
 <sat>0</sat>
</trkpt>
<trkpt lat="60.929918333" lon="15.087415000">
<time>2014-07-06T12:18:51Z</time>
 <fix>none</fix>
 <sat>0</sat>
</trkpt>
<trkpt lat="60.929918333" lon="15.087415000">
<time>2014-07-06T12:18:52Z</time>
 <fix>none</fix>
 <sat>0</sat>
</trkpt>
<trkpt lat="60.929996667" lon="15.087633333">
<time>2014-07-06T12:18:53Z</time>
 <fix>none</fix>
 <sat>0</sat>
</trkpt>
<trkpt lat="60.929996667" lon="15.087633333">
<time>2014-07-06T12:18:54Z</time>
 <fix>none</fix>
 <sat>0</sat>
</trkpt>
<trkpt lat="60.930153333" lon="15.087756667">
<time>2014-07-06T12:18:55Z</time>
 <fix>none</fix>
 <sat>0</sat>
</trkpt>
<trkpt lat="60.930153333" lon="15.087756667">
<time>2014-07-06T12:18:56Z</time>
 <fix>none</fix>
 <sat>0</sat>
</trkpt>
<trkpt lat="60.930311667" lon="15.087796667">
<time>2014-07-06T12:18:57Z</time>
 <fix>none</fix>
 <sat>0</sat>
</trkpt>
<trkpt lat="60.930311667" lon="15.087796667">
<time>2014-07-06T12:18:58Z</time>
 <fix>none</fix>
 <sat>0</sat>
</trkpt>
<trkpt lat="60.930485000" lon="15.087863333">
<time>2014-07-06T12:18:59Z</time>
 <fix>none</fix>
 <sat>0</sat>
</trkpt>
<trkpt lat="60.930550000" lon="15.087891667">
<time>2014-07-06T12:19:00Z</time>
 <fix>none</fix>
 <sat>0</sat>
</trkpt>
<trkpt lat="60.930656667" lon="15.087931667">
<time>2014-07-06T12:19:01Z</time>
 <fix>none</fix>
 <sat>0</sat>
</trkpt>
<trkpt lat="60.930740000" lon="15.087991667">
<time>2014-07-06T12:19:02Z</time>
 <fix>none</fix>
 <sat>0</sat>
</trkpt>
<trkpt lat="60.930813333" lon="15.088081667">
<time>2014-07-06T12:19:03Z</time>
 <fix>none</fix>
 <sat>0</sat>
</trkpt>
<trkpt lat="60.930881667" lon="15.088193333">
<time>2014-07-06T12:19:04Z</time>
 <fix>none</fix>
 <sat>0</sat>
</trkpt>
<trkpt lat="60.930923333" lon="15.088336667">
<time>2014-07-06T12:19:05Z</time>
 <fix>none</fix>
 <sat>0</sat>
</trkpt>
<trkpt lat="60.930940000" lon="15.088516667">
<time>2014-07-06T12:19:06Z</time>
 <fix>none</fix>
 <sat>0</sat>
</trkpt>
<trkpt lat="60.930941667" lon="15.088721667">
<time>2014-07-06T12:19:07Z</time>
 <fix>none</fix>
 <sat>0</sat>
</trkpt>
<trkpt lat="60.930941667" lon="15.088721667">
<time>2014-07-06T12:19:08Z</time>
 <fix>none</fix>
 <sat>0</sat>
</trkpt>
<trkpt lat="60.930946667" lon="15.088931667">
<time>2014-07-06T12:19:09Z</time>
 <fix>none</fix>
 <sat>0</sat>
</trkpt>
<trkpt lat="60.930948333" lon="15.089153333">
<time>2014-07-06T12:19:10Z</time>
 <fix>none</fix>
 <sat>0</sat>
</trkpt>
<trkpt lat="60.930953333" lon="15.089398333">
<time>2014-07-06T12:19:11Z</time>
 <fix>none</fix>
 <sat>0</sat>
</trkpt>
<trkpt lat="60.930965000" lon="15.089643333">
<time>2014-07-06T12:19:12Z</time>
 <fix>none</fix>
 <sat>0</sat>
</trkpt>
<trkpt lat="60.930981667" lon="15.089893333">
<time>2014-07-06T12:19:13Z</time>
 <fix>none</fix>
 <sat>0</sat>
</trkpt>
<trkpt lat="60.930995000" lon="15.090148333">
<time>2014-07-06T12:19:14Z</time>
 <fix>none</fix>
 <sat>0</sat>
</trkpt>
<trkpt lat="60.931003333" lon="15.090408333">
<time>2014-07-06T12:19:15Z</time>
 <fix>none</fix>
 <sat>0</sat>
</trkpt>
<trkpt lat="60.930991667" lon="15.090943333">
<time>2014-07-06T12:19:16Z</time>
 <fix>none</fix>
 <sat>0</sat>
</trkpt>
<trkpt lat="60.930976667" lon="15.091213333">
<time>2014-07-06T12:19:17Z</time>
 <fix>none</fix>
 <sat>0</sat>
</trkpt>
<trkpt lat="60.930948333" lon="15.091480000">
<time>2014-07-06T12:19:18Z</time>
 <fix>none</fix>
 <sat>0</sat>
</trkpt>
<trkpt lat="60.930910000" lon="15.091745000">
<time>2014-07-06T12:19:19Z</time>
 <fix>none</fix>
 <sat>0</sat>
</trkpt>
<trkpt lat="60.930873333" lon="15.092005000">
<time>2014-07-06T12:19:20Z</time>
 <fix>none</fix>
 <sat>0</sat>
</trkpt>
<trkpt lat="60.930831667" lon="15.092260000">
<time>2014-07-06T12:19:21Z</time>
 <fix>none</fix>
 <sat>0</sat>
</trkpt>
<trkpt lat="60.930790000" lon="15.092508333">
<time>2014-07-06T12:19:22Z</time>
 <fix>none</fix>
 <sat>0</sat>
</trkpt>
<trkpt lat="60.930746667" lon="15.092750000">
<time>2014-07-06T12:19:23Z</time>
 <fix>none</fix>
 <sat>0</sat>
</trkpt>
<trkpt lat="60.930708333" lon="15.092986667">
<time>2014-07-06T12:19:24Z</time>
 <fix>none</fix>
 <sat>0</sat>
</trkpt>
<trkpt lat="60.930668333" lon="15.093213333">
<time>2014-07-06T12:19:25Z</time>
 <fix>none</fix>
 <sat>0</sat>
</trkpt>
<trkpt lat="60.930630000" lon="15.093431667">
<time>2014-07-06T12:19:26Z</time>
 <fix>none</fix>
 <sat>0</sat>
</trkpt>
<trkpt lat="60.930630000" lon="15.093431667">
<time>2014-07-06T12:19:27Z</time>
 <fix>none</fix>
 <sat>0</sat>
</trkpt>
<trkpt lat="60.930630000" lon="15.093431667">
<time>2014-07-06T12:19:28Z</time>
 <fix>none</fix>
 <sat>0</sat>
</trkpt>
<trkpt lat="60.930516667" lon="15.094080000">
<time>2014-07-06T12:19:29Z</time>
 <fix>none</fix>
 <sat>0</sat>
</trkpt>
<trkpt lat="60.930480000" lon="15.094296667">
<time>2014-07-06T12:19:30Z</time>
 <fix>none</fix>
 <sat>0</sat>
</trkpt>
<trkpt lat="60.930480000" lon="15.094296667">
<time>2014-07-06T12:19:31Z</time>
 <fix>none</fix>
 <sat>0</sat>
</trkpt>
<trkpt lat="60.930451667" lon="15.094428333">
<time>2014-07-06T12:19:32Z</time>
 <fix>none</fix>
 <sat>0</sat>
</trkpt>
<trkpt lat="60.930430000" lon="15.094606667">
<time>2014-07-06T12:19:33Z</time>
 <fix>none</fix>
 <sat>0</sat>
</trkpt>
<trkpt lat="60.930400000" lon="15.094813333">
<time>2014-07-06T12:19:34Z</time>
 <fix>none</fix>
 <sat>0</sat>
</trkpt>
<trkpt lat="60.930368333" lon="15.094998333">
<time>2014-07-06T12:19:35Z</time>
 <fix>none</fix>
 <sat>0</sat>
</trkpt>
<trkpt lat="60.930338333" lon="15.095180000">
<time>2014-07-06T12:19:36Z</time>
 <fix>none</fix>
 <sat>0</sat>
</trkpt>
<trkpt lat="60.930296667" lon="15.095358333">
<time>2014-07-06T12:19:37Z</time>
 <fix>none</fix>
 <sat>0</sat>
</trkpt>
<trkpt lat="60.930248333" lon="15.095526667">
<time>2014-07-06T12:19:38Z</time>
 <fix>none</fix>
 <sat>0</sat>
</trkpt>
<trkpt lat="60.930130000" lon="15.095741667">
<time>2014-07-06T12:19:39Z</time>
 <fix>none</fix>
 <sat>0</sat>
</trkpt>
<trkpt lat="60.930078333" lon="15.095781667">
<time>2014-07-06T12:19:40Z</time>
 <fix>none</fix>
 <sat>0</sat>
</trkpt>
<trkpt lat="60.930061667" lon="15.095811667">
<time>2014-07-06T12:19:41Z</time>
 <fix>none</fix>
 <sat>0</sat>
</trkpt>
<trkpt lat="60.929996667" lon="15.095845000">
<time>2014-07-06T12:19:42Z</time>
 <fix>none</fix>
 <sat>0</sat>
</trkpt>
<trkpt lat="60.929915000" lon="15.095873333">
<time>2014-07-06T12:19:43Z</time>
 <fix>none</fix>
 <sat>0</sat>
</trkpt>
<trkpt lat="60.929833333" lon="15.095900000">
<time>2014-07-06T12:19:44Z</time>
 <fix>none</fix>
 <sat>0</sat>
</trkpt>
<trkpt lat="60.929756667" lon="15.095931667">
<time>2014-07-06T12:19:45Z</time>
 <fix>none</fix>
 <sat>0</sat>
</trkpt>
<trkpt lat="60.929686667" lon="15.095973333">
<time>2014-07-06T12:19:46Z</time>
 <fix>none</fix>
 <sat>0</sat>
</trkpt>
<trkpt lat="60.929623333" lon="15.096026667">
<time>2014-07-06T12:19:47Z</time>
 <fix>none</fix>
 <sat>0</sat>
</trkpt>
<trkpt lat="60.929565000" lon="15.096093333">
<time>2014-07-06T12:19:48Z</time>
 <fix>none</fix>
 <sat>0</sat>
</trkpt>
<trkpt lat="60.929508333" lon="15.096165000">
<time>2014-07-06T12:19:49Z</time>
 <fix>none</fix>
 <sat>0</sat>
</trkpt>
<trkpt lat="60.929453333" lon="15.096236667">
<time>2014-07-06T12:19:50Z</time>
 <fix>none</fix>
 <sat>0</sat>
</trkpt>
<trkpt lat="60.929453333" lon="15.096236667">
<time>2014-07-06T12:19:51Z</time>
 <fix>none</fix>
 <sat>0</sat>
</trkpt>
<trkpt lat="60.929453333" lon="15.096236667">
<time>2014-07-06T12:19:52Z</time>
 <fix>none</fix>
 <sat>0</sat>
</trkpt>
<trkpt lat="60.929291667" lon="15.096420000">
<time>2014-07-06T12:19:53Z</time>
 <fix>none</fix>
 <sat>0</sat>
</trkpt>
<trkpt lat="60.929291667" lon="15.096420000">
<time>2014-07-06T12:19:54Z</time>
 <fix>none</fix>
 <sat>0</sat>
</trkpt>
<trkpt lat="60.929176667" lon="15.096521667">
<time>2014-07-06T12:19:55Z</time>
 <fix>none</fix>
 <sat>0</sat>
</trkpt>
<trkpt lat="60.929176667" lon="15.096521667">
<time>2014-07-06T12:19:56Z</time>
 <fix>none</fix>
 <sat>0</sat>
</trkpt>
<trkpt lat="60.929063333" lon="15.096613333">
<time>2014-07-06T12:19:57Z</time>
 <fix>none</fix>
 <sat>0</sat>
</trkpt>
<trkpt lat="60.929063333" lon="15.096613333">
<time>2014-07-06T12:19:58Z</time>
 <fix>none</fix>
 <sat>0</sat>
</trkpt>
<trkpt lat="60.928950000" lon="15.096723333">
<time>2014-07-06T12:19:59Z</time>
 <fix>none</fix>
 <sat>0</sat>
</trkpt>
<trkpt lat="60.928950000" lon="15.096723333">
<time>2014-07-06T12:20:00Z</time>
 <fix>none</fix>
 <sat>0</sat>
</trkpt>
<trkpt lat="60.928950000" lon="15.096723333">
<time>2014-07-06T12:20:01Z</time>
 <fix>none</fix>
 <sat>0</sat>
</trkpt>
<trkpt lat="60.928840000" lon="15.096813333">
<time>2014-07-06T12:20:02Z</time>
 <fix>none</fix>
 <sat>0</sat>
</trkpt>
<trkpt lat="60.928713333" lon="15.096946667">
<time>2014-07-06T12:20:03Z</time>
 <fix>none</fix>
 <sat>0</sat>
</trkpt>
<trkpt lat="60.928713333" lon="15.096946667">
<time>2014-07-06T12:20:04Z</time>
 <fix>none</fix>
 <sat>0</sat>
</trkpt>
<trkpt lat="60.928593333" lon="15.097066667">
<time>2014-07-06T12:20:05Z</time>
 <fix>none</fix>
 <sat>0</sat>
</trkpt>
<trkpt lat="60.928593333" lon="15.097066667">
<time>2014-07-06T12:20:06Z</time>
 <fix>none</fix>
 <sat>0</sat>
</trkpt>
<trkpt lat="60.928468333" lon="15.097228333">
<time>2014-07-06T12:20:07Z</time>
 <fix>none</fix>
 <sat>0</sat>
</trkpt>
<trkpt lat="60.928468333" lon="15.097228333">
<time>2014-07-06T12:20:08Z</time>
 <fix>none</fix>
 <sat>0</sat>
</trkpt>
<trkpt lat="60.928348333" lon="15.097360000">
<time>2014-07-06T12:20:09Z</time>
 <fix>none</fix>
 <sat>0</sat>
</trkpt>
<trkpt lat="60.928348333" lon="15.097360000">
<time>2014-07-06T12:20:10Z</time>
 <fix>none</fix>
 <sat>0</sat>
</trkpt>
<trkpt lat="60.928230000" lon="15.097476667">
<time>2014-07-06T12:20:11Z</time>
 <fix>none</fix>
 <sat>0</sat>
</trkpt>
<trkpt lat="60.928230000" lon="15.097476667">
<time>2014-07-06T12:20:12Z</time>
 <fix>none</fix>
 <sat>0</sat>
</trkpt>
<trkpt lat="60.928101667" lon="15.097566667">
<time>2014-07-06T12:20:13Z</time>
 <fix>none</fix>
 <sat>0</sat>
</trkpt>
<trkpt lat="60.928101667" lon="15.097566667">
<time>2014-07-06T12:20:14Z</time>
 <fix>none</fix>
 <sat>0</sat>
</trkpt>
<trkpt lat="60.927968333" lon="15.097606667">
<time>2014-07-06T12:20:15Z</time>
 <fix>none</fix>
 <sat>0</sat>
</trkpt>
<trkpt lat="60.927968333" lon="15.097606667">
<time>2014-07-06T12:20:16Z</time>
 <fix>none</fix>
 <sat>0</sat>
</trkpt>
<trkpt lat="60.927826667" lon="15.097650000">
<time>2014-07-06T12:20:17Z</time>
 <fix>none</fix>
 <sat>0</sat>
</trkpt>
<trkpt lat="60.927826667" lon="15.097650000">
<time>2014-07-06T12:20:18Z</time>
 <fix>none</fix>
 <sat>0</sat>
</trkpt>
<trkpt lat="60.927683333" lon="15.097670000">
<time>2014-07-06T12:20:19Z</time>
 <fix>none</fix>
 <sat>0</sat>
</trkpt>
<trkpt lat="60.927683333" lon="15.097670000">
<time>2014-07-06T12:20:20Z</time>
 <fix>none</fix>
 <sat>0</sat>
</trkpt>
<trkpt lat="60.927550000" lon="15.097685000">
<time>2014-07-06T12:20:21Z</time>
 <fix>none</fix>
 <sat>0</sat>
</trkpt>
<trkpt lat="60.927498333" lon="15.097688333">
<time>2014-07-06T12:20:22Z</time>
 <fix>none</fix>
 <sat>0</sat>
</trkpt>
<trkpt lat="60.927435000" lon="15.097758333">
<time>2014-07-06T12:20:23Z</time>
 <fix>none</fix>
 <sat>0</sat>
</trkpt>
<trkpt lat="60.927435000" lon="15.097758333">
<time>2014-07-06T12:20:24Z</time>
 <fix>none</fix>
 <sat>0</sat>
</trkpt>
<trkpt lat="60.927333333" lon="15.098036667">
<time>2014-07-06T12:20:25Z</time>
 <fix>none</fix>
 <sat>0</sat>
</trkpt>
<trkpt lat="60.927308333" lon="15.098208333">
<time>2014-07-06T12:20:26Z</time>
 <fix>none</fix>
 <sat>0</sat>
</trkpt>
<trkpt lat="60.927316667" lon="15.098365000">
<time>2014-07-06T12:20:27Z</time>
 <fix>none</fix>
 <sat>0</sat>
</trkpt>
<trkpt lat="60.927330000" lon="15.098535000">
<time>2014-07-06T12:20:28Z</time>
 <fix>none</fix>
 <sat>0</sat>
</trkpt>
<trkpt lat="60.927345000" lon="15.098698333">
<time>2014-07-06T12:20:29Z</time>
 <fix>none</fix>
 <sat>0</sat>
</trkpt>
<trkpt lat="60.927363333" lon="15.098870000">
<time>2014-07-06T12:20:30Z</time>
 <fix>none</fix>
 <sat>0</sat>
</trkpt>
<trkpt lat="60.927381667" lon="15.099040000">
<time>2014-07-06T12:20:31Z</time>
 <fix>none</fix>
 <sat>0</sat>
</trkpt>
<trkpt lat="60.927401667" lon="15.099223333">
<time>2014-07-06T12:20:32Z</time>
 <fix>none</fix>
 <sat>0</sat>
</trkpt>
<trkpt lat="60.927421667" lon="15.099410000">
<time>2014-07-06T12:20:33Z</time>
 <fix>none</fix>
 <sat>0</sat>
</trkpt>
<trkpt lat="60.927430000" lon="15.099598333">
<time>2014-07-06T12:20:34Z</time>
 <fix>none</fix>
 <sat>0</sat>
</trkpt>
<trkpt lat="60.927430000" lon="15.099598333">
<time>2014-07-06T12:20:35Z</time>
 <fix>none</fix>
 <sat>0</sat>
</trkpt>
<trkpt lat="60.927430000" lon="15.099598333">
<time>2014-07-06T12:20:36Z</time>
 <fix>none</fix>
 <sat>0</sat>
</trkpt>
<trkpt lat="60.927481667" lon="15.100121667">
<time>2014-07-06T12:20:37Z</time>
 <fix>none</fix>
 <sat>0</sat>
</trkpt>
<trkpt lat="60.927481667" lon="15.100121667">
<time>2014-07-06T12:20:38Z</time>
 <fix>none</fix>
 <sat>0</sat>
</trkpt>
<trkpt lat="60.927511667" lon="15.100440000">
<time>2014-07-06T12:20:39Z</time>
 <fix>none</fix>
 <sat>0</sat>
</trkpt>
<trkpt lat="60.927513333" lon="15.100461667">
<time>2014-07-06T12:20:40Z</time>
 <fix>none</fix>
 <sat>0</sat>
</trkpt>
<trkpt lat="60.927505000" lon="15.100580000">
<time>2014-07-06T12:20:41Z</time>
 <fix>none</fix>
 <sat>0</sat>
</trkpt>
<trkpt lat="60.927493333" lon="15.100686667">
<time>2014-07-06T12:20:42Z</time>
 <fix>none</fix>
 <sat>0</sat>
</trkpt>
<trkpt lat="60.927483333" lon="15.100798333">
<time>2014-07-06T12:20:43Z</time>
 <fix>none</fix>
 <sat>0</sat>
</trkpt>
<trkpt lat="60.927473333" lon="15.100883333">
<time>2014-07-06T12:20:44Z</time>
 <fix>none</fix>
 <sat>0</sat>
</trkpt>
<trkpt lat="60.927440000" lon="15.101041667">
<time>2014-07-06T12:20:45Z</time>
 <fix>none</fix>
 <sat>0</sat>
</trkpt>
<trkpt lat="60.927425000" lon="15.101108333">
<time>2014-07-06T12:20:46Z</time>
 <fix>none</fix>
 <sat>0</sat>
</trkpt>
<trkpt lat="60.927425000" lon="15.101108333">
<time>2014-07-06T12:20:47Z</time>
 <fix>none</fix>
 <sat>0</sat>
</trkpt>
<trkpt lat="60.927398333" lon="15.101248333">
<time>2014-07-06T12:20:48Z</time>
 <fix>none</fix>
 <sat>0</sat>
</trkpt>
<trkpt lat="60.927381667" lon="15.101321667">
<time>2014-07-06T12:20:49Z</time>
 <fix>none</fix>
 <sat>0</sat>
</trkpt>
<trkpt lat="60.927365000" lon="15.101386667">
<time>2014-07-06T12:20:50Z</time>
 <fix>none</fix>
 <sat>0</sat>
</trkpt>
<trkpt lat="60.927350000" lon="15.101463333">
<time>2014-07-06T12:20:51Z</time>
 <fix>none</fix>
 <sat>0</sat>
</trkpt>
<trkpt lat="60.927331667" lon="15.101536667">
<time>2014-07-06T12:20:52Z</time>
 <fix>none</fix>
 <sat>0</sat>
</trkpt>
<trkpt lat="60.927331667" lon="15.101536667">
<time>2014-07-06T12:20:53Z</time>
 <fix>none</fix>
 <sat>0</sat>
</trkpt>
<trkpt lat="60.927331667" lon="15.101536667">
<time>2014-07-06T12:20:54Z</time>
 <fix>none</fix>
 <sat>0</sat>
</trkpt>
<trkpt lat="60.927278333" lon="15.101776667">
<time>2014-07-06T12:20:55Z</time>
 <fix>none</fix>
 <sat>0</sat>
</trkpt>
<trkpt lat="60.927278333" lon="15.101776667">
<time>2014-07-06T12:20:56Z</time>
 <fix>none</fix>
 <sat>0</sat>
</trkpt>
<trkpt lat="60.927231667" lon="15.101916667">
<time>2014-07-06T12:20:57Z</time>
 <fix>none</fix>
 <sat>0</sat>
</trkpt>
<trkpt lat="60.927231667" lon="15.101916667">
<time>2014-07-06T12:20:58Z</time>
 <fix>none</fix>
 <sat>0</sat>
</trkpt>
<trkpt lat="60.927191667" lon="15.102083333">
<time>2014-07-06T12:20:59Z</time>
 <fix>none</fix>
 <sat>0</sat>
</trkpt>
<trkpt lat="60.927191667" lon="15.102083333">
<time>2014-07-06T12:21:00Z</time>
 <fix>none</fix>
 <sat>0</sat>
</trkpt>
<trkpt lat="60.927173333" lon="15.102276667">
<time>2014-07-06T12:21:01Z</time>
 <fix>none</fix>
 <sat>0</sat>
</trkpt>
<trkpt lat="60.927173333" lon="15.102276667">
<time>2014-07-06T12:21:02Z</time>
 <fix>none</fix>
 <sat>0</sat>
</trkpt>
<trkpt lat="60.927168333" lon="15.102471667">
<time>2014-07-06T12:21:03Z</time>
 <fix>none</fix>
 <sat>0</sat>
</trkpt>
<trkpt lat="60.927168333" lon="15.102471667">
<time>2014-07-06T12:21:04Z</time>
 <fix>none</fix>
 <sat>0</sat>
</trkpt>
<trkpt lat="60.927191667" lon="15.102698333">
<time>2014-07-06T12:21:05Z</time>
 <fix>none</fix>
 <sat>0</sat>
</trkpt>
<trkpt lat="60.927191667" lon="15.102698333">
<time>2014-07-06T12:21:06Z</time>
 <fix>none</fix>
 <sat>0</sat>
</trkpt>
<trkpt lat="60.927243333" lon="15.102968333">
<time>2014-07-06T12:21:07Z</time>
 <fix>none</fix>
 <sat>0</sat>
</trkpt>
<trkpt lat="60.927243333" lon="15.102968333">
<time>2014-07-06T12:21:08Z</time>
 <fix>none</fix>
 <sat>0</sat>
</trkpt>
<trkpt lat="60.927243333" lon="15.102968333">
<time>2014-07-06T12:21:09Z</time>
 <fix>none</fix>
 <sat>0</sat>
</trkpt>
<trkpt lat="60.927318333" lon="15.103261667">
<time>2014-07-06T12:21:10Z</time>
 <fix>none</fix>
 <sat>0</sat>
</trkpt>
<trkpt lat="60.927388333" lon="15.103573333">
<time>2014-07-06T12:21:11Z</time>
 <fix>none</fix>
 <sat>0</sat>
</trkpt>
<trkpt lat="60.927388333" lon="15.103573333">
<time>2014-07-06T12:21:12Z</time>
 <fix>none</fix>
 <sat>0</sat>
</trkpt>
<trkpt lat="60.927481667" lon="15.103880000">
<time>2014-07-06T12:21:13Z</time>
 <fix>none</fix>
 <sat>0</sat>
</trkpt>
<trkpt lat="60.927481667" lon="15.103880000">
<time>2014-07-06T12:21:14Z</time>
 <fix>none</fix>
 <sat>0</sat>
</trkpt>
<trkpt lat="60.927566667" lon="15.104151667">
<time>2014-07-06T12:21:15Z</time>
 <fix>none</fix>
 <sat>0</sat>
</trkpt>
<trkpt lat="60.927566667" lon="15.104151667">
<time>2014-07-06T12:21:16Z</time>
 <fix>none</fix>
 <sat>0</sat>
</trkpt>
<trkpt lat="60.927631667" lon="15.104385000">
<time>2014-07-06T12:21:17Z</time>
 <fix>none</fix>
 <sat>0</sat>
</trkpt>
<trkpt lat="60.927631667" lon="15.104385000">
<time>2014-07-06T12:21:18Z</time>
 <fix>none</fix>
 <sat>0</sat>
</trkpt>
<trkpt lat="60.927695000" lon="15.104620000">
<time>2014-07-06T12:21:19Z</time>
 <fix>none</fix>
 <sat>0</sat>
</trkpt>
<trkpt lat="60.927695000" lon="15.104620000">
<time>2014-07-06T12:21:20Z</time>
 <fix>none</fix>
 <sat>0</sat>
</trkpt>
<trkpt lat="60.927740000" lon="15.104875000">
<time>2014-07-06T12:21:21Z</time>
 <fix>none</fix>
 <sat>0</sat>
</trkpt>
<trkpt lat="60.927740000" lon="15.104875000">
<time>2014-07-06T12:21:22Z</time>
 <fix>none</fix>
 <sat>0</sat>
</trkpt>
<trkpt lat="60.927778333" lon="15.105131667">
<time>2014-07-06T12:21:23Z</time>
 <fix>none</fix>
 <sat>0</sat>
</trkpt>
<trkpt lat="60.927778333" lon="15.105131667">
<time>2014-07-06T12:21:24Z</time>
 <fix>none</fix>
 <sat>0</sat>
</trkpt>
<trkpt lat="60.927768333" lon="15.105416667">
<time>2014-07-06T12:21:25Z</time>
 <fix>none</fix>
 <sat>0</sat>
</trkpt>
<trkpt lat="60.927768333" lon="15.105416667">
<time>2014-07-06T12:21:26Z</time>
 <fix>none</fix>
 <sat>0</sat>
</trkpt>
<trkpt lat="60.927753333" lon="15.105720000">
<time>2014-07-06T12:21:27Z</time>
 <fix>none</fix>
 <sat>0</sat>
</trkpt>
<trkpt lat="60.927753333" lon="15.105720000">
<time>2014-07-06T12:21:28Z</time>
 <fix>none</fix>
 <sat>0</sat>
</trkpt>
<trkpt lat="60.927691667" lon="15.106061667">
<time>2014-07-06T12:21:29Z</time>
 <fix>none</fix>
 <sat>0</sat>
</trkpt>
<trkpt lat="60.927655000" lon="15.106383333">
<time>2014-07-06T12:21:30Z</time>
 <fix>none</fix>
 <sat>0</sat>
</trkpt>
<trkpt lat="60.927655000" lon="15.106383333">
<time>2014-07-06T12:21:31Z</time>
 <fix>none</fix>
 <sat>0</sat>
</trkpt>
<trkpt lat="60.927655000" lon="15.106383333">
<time>2014-07-06T12:21:32Z</time>
 <fix>none</fix>
 <sat>0</sat>
</trkpt>
<trkpt lat="60.927613333" lon="15.106685000">
<time>2014-07-06T12:21:33Z</time>
 <fix>none</fix>
 <sat>0</sat>
</trkpt>
<trkpt lat="60.927613333" lon="15.106685000">
<time>2014-07-06T12:21:34Z</time>
 <fix>none</fix>
 <sat>0</sat>
</trkpt>
<trkpt lat="60.927608333" lon="15.106960000">
<time>2014-07-06T12:21:35Z</time>
 <fix>none</fix>
 <sat>0</sat>
</trkpt>
<trkpt lat="60.927608333" lon="15.106960000">
<time>2014-07-06T12:21:36Z</time>
 <fix>none</fix>
 <sat>0</sat>
</trkpt>
<trkpt lat="60.927608333" lon="15.107260000">
<time>2014-07-06T12:21:37Z</time>
 <fix>none</fix>
 <sat>0</sat>
</trkpt>
<trkpt lat="60.927608333" lon="15.107260000">
<time>2014-07-06T12:21:38Z</time>
 <fix>none</fix>
 <sat>0</sat>
</trkpt>
<trkpt lat="60.927655000" lon="15.107548333">
<time>2014-07-06T12:21:39Z</time>
 <fix>none</fix>
 <sat>0</sat>
</trkpt>
<trkpt lat="60.927655000" lon="15.107548333">
<time>2014-07-06T12:21:40Z</time>
 <fix>none</fix>
 <sat>0</sat>
</trkpt>
<trkpt lat="60.927678333" lon="15.107836667">
<time>2014-07-06T12:21:41Z</time>
 <fix>none</fix>
 <sat>0</sat>
</trkpt>
<trkpt lat="60.927678333" lon="15.107836667">
<time>2014-07-06T12:21:42Z</time>
 <fix>none</fix>
 <sat>0</sat>
</trkpt>
<trkpt lat="60.927761667" lon="15.108010000">
<time>2014-07-06T12:21:43Z</time>
 <fix>none</fix>
 <sat>0</sat>
</trkpt>
<trkpt lat="60.927761667" lon="15.108010000">
<time>2014-07-06T12:21:44Z</time>
 <fix>none</fix>
 <sat>0</sat>
</trkpt>
<trkpt lat="60.927891667" lon="15.108096667">
<time>2014-07-06T12:21:45Z</time>
 <fix>none</fix>
 <sat>0</sat>
</trkpt>
<trkpt lat="60.927891667" lon="15.108096667">
<time>2014-07-06T12:21:46Z</time>
 <fix>none</fix>
 <sat>0</sat>
</trkpt>
<trkpt lat="60.927955000" lon="15.108271667">
<time>2014-07-06T12:21:47Z</time>
 <fix>none</fix>
 <sat>0</sat>
</trkpt>
<trkpt lat="60.927955000" lon="15.108271667">
<time>2014-07-06T12:21:48Z</time>
 <fix>none</fix>
 <sat>0</sat>
</trkpt>
<trkpt lat="60.927990000" lon="15.108443333">
<time>2014-07-06T12:21:49Z</time>
 <fix>none</fix>
 <sat>0</sat>
</trkpt>
<trkpt lat="60.927990000" lon="15.108443333">
<time>2014-07-06T12:21:50Z</time>
 <fix>none</fix>
 <sat>0</sat>
</trkpt>
<trkpt lat="60.928011667" lon="15.108583333">
<time>2014-07-06T12:21:51Z</time>
 <fix>none</fix>
 <sat>0</sat>
</trkpt>
<trkpt lat="60.928011667" lon="15.108583333">
<time>2014-07-06T12:21:52Z</time>
 <fix>none</fix>
 <sat>0</sat>
</trkpt>
<trkpt lat="60.928023333" lon="15.108705000">
<time>2014-07-06T12:21:53Z</time>
 <fix>none</fix>
 <sat>0</sat>
</trkpt>
<trkpt lat="60.928023333" lon="15.108705000">
<time>2014-07-06T12:21:54Z</time>
 <fix>none</fix>
 <sat>0</sat>
</trkpt>
<trkpt lat="60.928023333" lon="15.108705000">
<time>2014-07-06T12:21:55Z</time>
 <fix>none</fix>
 <sat>0</sat>
</trkpt>
<trkpt lat="60.928035000" lon="15.108811667">
<time>2014-07-06T12:21:56Z</time>
 <fix>none</fix>
 <sat>0</sat>
</trkpt>
<trkpt lat="60.928058333" lon="15.108905000">
<time>2014-07-06T12:21:57Z</time>
 <fix>none</fix>
 <sat>0</sat>
</trkpt>
<trkpt lat="60.928058333" lon="15.108905000">
<time>2014-07-06T12:21:58Z</time>
 <fix>none</fix>
 <sat>0</sat>
</trkpt>
<trkpt lat="60.928083333" lon="15.108988333">
<time>2014-07-06T12:21:59Z</time>
 <fix>none</fix>
 <sat>0</sat>
</trkpt>
<trkpt lat="60.928083333" lon="15.108988333">
<time>2014-07-06T12:22:00Z</time>
 <fix>none</fix>
 <sat>0</sat>
</trkpt>
<trkpt lat="60.928078333" lon="15.109081667">
<time>2014-07-06T12:22:01Z</time>
 <fix>none</fix>
 <sat>0</sat>
</trkpt>
<trkpt lat="60.928078333" lon="15.109081667">
<time>2014-07-06T12:22:02Z</time>
 <fix>none</fix>
 <sat>0</sat>
</trkpt>
<trkpt lat="60.928098333" lon="15.109168333">
<time>2014-07-06T12:22:03Z</time>
 <fix>none</fix>
 <sat>0</sat>
</trkpt>
<trkpt lat="60.928098333" lon="15.109168333">
<time>2014-07-06T12:22:04Z</time>
 <fix>none</fix>
 <sat>0</sat>
</trkpt>
<trkpt lat="60.928101667" lon="15.109280000">
<time>2014-07-06T12:22:05Z</time>
 <fix>none</fix>
 <sat>0</sat>
</trkpt>
<trkpt lat="60.928101667" lon="15.109280000">
<time>2014-07-06T12:22:06Z</time>
 <fix>none</fix>
 <sat>0</sat>
</trkpt>
<trkpt lat="60.928105000" lon="15.109378333">
<time>2014-07-06T12:22:07Z</time>
 <fix>none</fix>
 <sat>0</sat>
</trkpt>
<trkpt lat="60.928105000" lon="15.109378333">
<time>2014-07-06T12:22:08Z</time>
 <fix>none</fix>
 <sat>0</sat>
</trkpt>
<trkpt lat="60.928133333" lon="15.109461667">
<time>2014-07-06T12:22:09Z</time>
 <fix>none</fix>
 <sat>0</sat>
</trkpt>
<trkpt lat="60.928133333" lon="15.109461667">
<time>2014-07-06T12:22:10Z</time>
 <fix>none</fix>
 <sat>0</sat>
</trkpt>
<trkpt lat="60.928140000" lon="15.109558333">
<time>2014-07-06T12:22:11Z</time>
 <fix>none</fix>
 <sat>0</sat>
</trkpt>
<trkpt lat="60.928140000" lon="15.109558333">
<time>2014-07-06T12:22:12Z</time>
 <fix>none</fix>
 <sat>0</sat>
</trkpt>
<trkpt lat="60.928151667" lon="15.109645000">
<time>2014-07-06T12:22:13Z</time>
 <fix>none</fix>
 <sat>0</sat>
</trkpt>
<trkpt lat="60.928151667" lon="15.109645000">
<time>2014-07-06T12:22:14Z</time>
 <fix>none</fix>
 <sat>0</sat>
</trkpt>
<trkpt lat="60.928165000" lon="15.109715000">
<time>2014-07-06T12:22:15Z</time>
 <fix>none</fix>
 <sat>0</sat>
</trkpt>
<trkpt lat="60.928165000" lon="15.109715000">
<time>2014-07-06T12:22:16Z</time>
 <fix>none</fix>
 <sat>0</sat>
</trkpt>
<trkpt lat="60.928150000" lon="15.109826667">
<time>2014-07-06T12:22:17Z</time>
 <fix>none</fix>
 <sat>0</sat>
</trkpt>
<trkpt lat="60.928150000" lon="15.109826667">
<time>2014-07-06T12:22:18Z</time>
 <fix>none</fix>
 <sat>0</sat>
</trkpt>
<trkpt lat="60.928133333" lon="15.109926667">
<time>2014-07-06T12:22:19Z</time>
 <fix>none</fix>
 <sat>0</sat>
</trkpt>
<trkpt lat="60.928133333" lon="15.109926667">
<time>2014-07-06T12:22:20Z</time>
 <fix>none</fix>
 <sat>0</sat>
</trkpt>
<trkpt lat="60.928095000" lon="15.110026667">
<time>2014-07-06T12:22:21Z</time>
 <fix>none</fix>
 <sat>0</sat>
</trkpt>
<trkpt lat="60.928095000" lon="15.110026667">
<time>2014-07-06T12:22:22Z</time>
 <fix>none</fix>
 <sat>0</sat>
</trkpt>
<trkpt lat="60.928043333" lon="15.110116667">
<time>2014-07-06T12:22:23Z</time>
 <fix>none</fix>
 <sat>0</sat>
</trkpt>
<trkpt lat="60.928043333" lon="15.110116667">
<time>2014-07-06T12:22:24Z</time>
 <fix>none</fix>
 <sat>0</sat>
</trkpt>
<trkpt lat="60.928020000" lon="15.110173333">
<time>2014-07-06T12:22:25Z</time>
 <fix>none</fix>
 <sat>0</sat>
</trkpt>
<trkpt lat="60.928020000" lon="15.110173333">
<time>2014-07-06T12:22:26Z</time>
 <fix>none</fix>
 <sat>0</sat>
</trkpt>
<trkpt lat="60.927990000" lon="15.110250000">
<time>2014-07-06T12:22:27Z</time>
 <fix>none</fix>
 <sat>0</sat>
</trkpt>
<trkpt lat="60.927990000" lon="15.110250000">
<time>2014-07-06T12:22:28Z</time>
 <fix>none</fix>
 <sat>0</sat>
</trkpt>
<trkpt lat="60.927963333" lon="15.110333333">
<time>2014-07-06T12:22:29Z</time>
 <fix>none</fix>
 <sat>0</sat>
</trkpt>
<trkpt lat="60.927963333" lon="15.110333333">
<time>2014-07-06T12:22:30Z</time>
 <fix>none</fix>
 <sat>0</sat>
</trkpt>
<trkpt lat="60.927930000" lon="15.110415000">
<time>2014-07-06T12:22:31Z</time>
 <fix>none</fix>
 <sat>0</sat>
</trkpt>
<trkpt lat="60.927930000" lon="15.110415000">
<time>2014-07-06T12:22:32Z</time>
 <fix>none</fix>
 <sat>0</sat>
</trkpt>
<trkpt lat="60.927928333" lon="15.110545000">
<time>2014-07-06T12:22:33Z</time>
 <fix>none</fix>
 <sat>0</sat>
</trkpt>
<trkpt lat="60.927928333" lon="15.110545000">
<time>2014-07-06T12:22:34Z</time>
 <fix>none</fix>
 <sat>0</sat>
</trkpt>
<trkpt lat="60.927943333" lon="15.110666667">
<time>2014-07-06T12:22:35Z</time>
 <fix>none</fix>
 <sat>0</sat>
</trkpt>
<trkpt lat="60.927943333" lon="15.110666667">
<time>2014-07-06T12:22:36Z</time>
 <fix>none</fix>
 <sat>0</sat>
</trkpt>
<trkpt lat="60.927943333" lon="15.110840000">
<time>2014-07-06T12:22:37Z</time>
 <fix>none</fix>
 <sat>0</sat>
</trkpt>
<trkpt lat="60.927936667" lon="15.110998333">
<time>2014-07-06T12:22:38Z</time>
 <fix>none</fix>
 <sat>0</sat>
</trkpt>
<trkpt lat="60.927936667" lon="15.110998333">
<time>2014-07-06T12:22:39Z</time>
 <fix>none</fix>
 <sat>0</sat>
</trkpt>
<trkpt lat="60.927936667" lon="15.110998333">
<time>2014-07-06T12:22:40Z</time>
 <fix>none</fix>
 <sat>0</sat>
</trkpt>
<trkpt lat="60.927940000" lon="15.111193333">
<time>2014-07-06T12:22:41Z</time>
 <fix>none</fix>
 <sat>0</sat>
</trkpt>
<trkpt lat="60.927940000" lon="15.111193333">
<time>2014-07-06T12:22:42Z</time>
 <fix>none</fix>
 <sat>0</sat>
</trkpt>
<trkpt lat="60.927953333" lon="15.111381667">
<time>2014-07-06T12:22:43Z</time>
 <fix>none</fix>
 <sat>0</sat>
</trkpt>
<trkpt lat="60.927953333" lon="15.111381667">
<time>2014-07-06T12:22:44Z</time>
 <fix>none</fix>
 <sat>0</sat>
</trkpt>
<trkpt lat="60.927963333" lon="15.111575000">
<time>2014-07-06T12:22:45Z</time>
 <fix>none</fix>
 <sat>0</sat>
</trkpt>
<trkpt lat="60.927963333" lon="15.111575000">
<time>2014-07-06T12:22:46Z</time>
 <fix>none</fix>
 <sat>0</sat>
</trkpt>
<trkpt lat="60.927986667" lon="15.111755000">
<time>2014-07-06T12:22:47Z</time>
 <fix>none</fix>
 <sat>0</sat>
</trkpt>
<trkpt lat="60.927986667" lon="15.111755000">
<time>2014-07-06T12:22:48Z</time>
 <fix>none</fix>
 <sat>0</sat>
</trkpt>
<trkpt lat="60.927988333" lon="15.111958333">
<time>2014-07-06T12:22:49Z</time>
 <fix>none</fix>
 <sat>0</sat>
</trkpt>
<trkpt lat="60.927988333" lon="15.111958333">
<time>2014-07-06T12:22:50Z</time>
 <fix>none</fix>
 <sat>0</sat>
</trkpt>
<trkpt lat="60.928016667" lon="15.112131667">
<time>2014-07-06T12:22:51Z</time>
 <fix>none</fix>
 <sat>0</sat>
</trkpt>
<trkpt lat="60.928016667" lon="15.112131667">
<time>2014-07-06T12:22:52Z</time>
 <fix>none</fix>
 <sat>0</sat>
</trkpt>
<trkpt lat="60.928041667" lon="15.112318333">
<time>2014-07-06T12:22:53Z</time>
 <fix>none</fix>
 <sat>0</sat>
</trkpt>
<trkpt lat="60.928041667" lon="15.112318333">
<time>2014-07-06T12:22:54Z</time>
 <fix>none</fix>
 <sat>0</sat>
</trkpt>
<trkpt lat="60.928058333" lon="15.112533333">
<time>2014-07-06T12:22:55Z</time>
 <fix>none</fix>
 <sat>0</sat>
</trkpt>
<trkpt lat="60.928058333" lon="15.112533333">
<time>2014-07-06T12:22:56Z</time>
 <fix>none</fix>
 <sat>0</sat>
</trkpt>
<trkpt lat="60.928058333" lon="15.112748333">
<time>2014-07-06T12:22:57Z</time>
 <fix>none</fix>
 <sat>0</sat>
</trkpt>
<trkpt lat="60.928058333" lon="15.112748333">
<time>2014-07-06T12:22:58Z</time>
 <fix>none</fix>
 <sat>0</sat>
</trkpt>
<trkpt lat="60.928036667" lon="15.112963333">
<time>2014-07-06T12:22:59Z</time>
 <fix>none</fix>
 <sat>0</sat>
</trkpt>
<trkpt lat="60.928036667" lon="15.112963333">
<time>2014-07-06T12:23:00Z</time>
 <fix>none</fix>
 <sat>0</sat>
</trkpt>
<trkpt lat="60.928006667" lon="15.113173333">
<time>2014-07-06T12:23:01Z</time>
 <fix>none</fix>
 <sat>0</sat>
</trkpt>
<trkpt lat="60.928006667" lon="15.113173333">
<time>2014-07-06T12:23:02Z</time>
 <fix>none</fix>
 <sat>0</sat>
</trkpt>
<trkpt lat="60.927973333" lon="15.113383333">
<time>2014-07-06T12:23:03Z</time>
 <fix>none</fix>
 <sat>0</sat>
</trkpt>
<trkpt lat="60.927973333" lon="15.113383333">
<time>2014-07-06T12:23:04Z</time>
 <fix>none</fix>
 <sat>0</sat>
</trkpt>
<trkpt lat="60.927948333" lon="15.113603333">
<time>2014-07-06T12:23:05Z</time>
 <fix>none</fix>
 <sat>0</sat>
</trkpt>
<trkpt lat="60.927948333" lon="15.113603333">
<time>2014-07-06T12:23:06Z</time>
 <fix>none</fix>
 <sat>0</sat>
</trkpt>
<trkpt lat="60.927950000" lon="15.113836667">
<time>2014-07-06T12:23:07Z</time>
 <fix>none</fix>
 <sat>0</sat>
</trkpt>
<trkpt lat="60.927948333" lon="15.113920000">
<time>2014-07-06T12:23:08Z</time>
 <fix>none</fix>
 <sat>0</sat>
</trkpt>
<trkpt lat="60.927943333" lon="15.114026667">
<time>2014-07-06T12:23:09Z</time>
 <fix>none</fix>
 <sat>0</sat>
</trkpt>
<trkpt lat="60.927943333" lon="15.114151667">
<time>2014-07-06T12:23:10Z</time>
 <fix>none</fix>
 <sat>0</sat>
</trkpt>
<trkpt lat="60.927926667" lon="15.114273333">
<time>2014-07-06T12:23:11Z</time>
 <fix>none</fix>
 <sat>0</sat>
</trkpt>
<trkpt lat="60.927920000" lon="15.114376667">
<time>2014-07-06T12:23:12Z</time>
 <fix>none</fix>
 <sat>0</sat>
</trkpt>
<trkpt lat="60.927918333" lon="15.114475000">
<time>2014-07-06T12:23:13Z</time>
 <fix>none</fix>
 <sat>0</sat>
</trkpt>
<trkpt lat="60.927923333" lon="15.114588333">
<time>2014-07-06T12:23:14Z</time>
 <fix>none</fix>
 <sat>0</sat>
</trkpt>
<trkpt lat="60.927926667" lon="15.114705000">
<time>2014-07-06T12:23:15Z</time>
 <fix>none</fix>
 <sat>0</sat>
</trkpt>
<trkpt lat="60.927925000" lon="15.114811667">
<time>2014-07-06T12:23:16Z</time>
 <fix>none</fix>
 <sat>0</sat>
</trkpt>
<trkpt lat="60.927918333" lon="15.114925000">
<time>2014-07-06T12:23:17Z</time>
 <fix>none</fix>
 <sat>0</sat>
</trkpt>
<trkpt lat="60.927910000" lon="15.115030000">
<time>2014-07-06T12:23:18Z</time>
 <fix>none</fix>
 <sat>0</sat>
</trkpt>
<trkpt lat="60.927910000" lon="15.115030000">
<time>2014-07-06T12:23:19Z</time>
 <fix>none</fix>
 <sat>0</sat>
</trkpt>
<trkpt lat="60.927898333" lon="15.115131667">
<time>2014-07-06T12:23:20Z</time>
 <fix>none</fix>
 <sat>0</sat>
</trkpt>
<trkpt lat="60.927885000" lon="15.115231667">
<time>2014-07-06T12:23:21Z</time>
 <fix>none</fix>
 <sat>0</sat>
</trkpt>
<trkpt lat="60.927868333" lon="15.115328333">
<time>2014-07-06T12:23:22Z</time>
 <fix>none</fix>
 <sat>0</sat>
</trkpt>
<trkpt lat="60.927851667" lon="15.115421667">
<time>2014-07-06T12:23:23Z</time>
 <fix>none</fix>
 <sat>0</sat>
</trkpt>
<trkpt lat="60.927808333" lon="15.115610000">
<time>2014-07-06T12:23:24Z</time>
 <fix>none</fix>
 <sat>0</sat>
</trkpt>
<trkpt lat="60.927791667" lon="15.115706667">
<time>2014-07-06T12:23:25Z</time>
 <fix>none</fix>
 <sat>0</sat>
</trkpt>
<trkpt lat="60.927791667" lon="15.115706667">
<time>2014-07-06T12:23:26Z</time>
 <fix>none</fix>
 <sat>0</sat>
</trkpt>
<trkpt lat="60.927770000" lon="15.115905000">
<time>2014-07-06T12:23:27Z</time>
 <fix>none</fix>
 <sat>0</sat>
</trkpt>
<trkpt lat="60.927763333" lon="15.116005000">
<time>2014-07-06T12:23:28Z</time>
 <fix>none</fix>
 <sat>0</sat>
</trkpt>
<trkpt lat="60.927756667" lon="15.116103333">
<time>2014-07-06T12:23:29Z</time>
 <fix>none</fix>
 <sat>0</sat>
</trkpt>
<trkpt lat="60.927756667" lon="15.116103333">
<time>2014-07-06T12:23:30Z</time>
 <fix>none</fix>
 <sat>0</sat>
</trkpt>
<trkpt lat="60.927756667" lon="15.116103333">
<time>2014-07-06T12:23:31Z</time>
 <fix>none</fix>
 <sat>0</sat>
</trkpt>
<trkpt lat="60.927760000" lon="15.116418333">
<time>2014-07-06T12:23:32Z</time>
 <fix>none</fix>
 <sat>0</sat>
</trkpt>
<trkpt lat="60.927763333" lon="15.116495000">
<time>2014-07-06T12:23:33Z</time>
 <fix>none</fix>
 <sat>0</sat>
</trkpt>
<trkpt lat="60.927770000" lon="15.116606667">
<time>2014-07-06T12:23:34Z</time>
 <fix>none</fix>
 <sat>0</sat>
</trkpt>
<trkpt lat="60.927765000" lon="15.116691667">
<time>2014-07-06T12:23:35Z</time>
 <fix>none</fix>
 <sat>0</sat>
</trkpt>
<trkpt lat="60.927768333" lon="15.116763333">
<time>2014-07-06T12:23:36Z</time>
 <fix>none</fix>
 <sat>0</sat>
</trkpt>
<trkpt lat="60.927780000" lon="15.116863333">
<time>2014-07-06T12:23:37Z</time>
 <fix>none</fix>
 <sat>0</sat>
</trkpt>
<trkpt lat="60.927785000" lon="15.116941667">
<time>2014-07-06T12:23:38Z</time>
 <fix>none</fix>
 <sat>0</sat>
</trkpt>
<trkpt lat="60.927786667" lon="15.117030000">
<time>2014-07-06T12:23:39Z</time>
 <fix>none</fix>
 <sat>0</sat>
</trkpt>
<trkpt lat="60.927781667" lon="15.117125000">
<time>2014-07-06T12:23:40Z</time>
 <fix>none</fix>
 <sat>0</sat>
</trkpt>
<trkpt lat="60.927765000" lon="15.117218333">
<time>2014-07-06T12:23:41Z</time>
 <fix>none</fix>
 <sat>0</sat>
</trkpt>
<trkpt lat="60.927765000" lon="15.117218333">
<time>2014-07-06T12:23:42Z</time>
 <fix>none</fix>
 <sat>0</sat>
</trkpt>
<trkpt lat="60.927748333" lon="15.117285000">
<time>2014-07-06T12:23:43Z</time>
 <fix>none</fix>
 <sat>0</sat>
</trkpt>
<trkpt lat="60.927715000" lon="15.117330000">
<time>2014-07-06T12:23:44Z</time>
 <fix>none</fix>
 <sat>0</sat>
</trkpt>
<trkpt lat="60.927661667" lon="15.117368333">
<time>2014-07-06T12:23:45Z</time>
 <fix>none</fix>
 <sat>0</sat>
</trkpt>
<trkpt lat="60.927611667" lon="15.117415000">
<time>2014-07-06T12:23:46Z</time>
 <fix>none</fix>
 <sat>0</sat>
</trkpt>
<trkpt lat="60.927510000" lon="15.117511667">
<time>2014-07-06T12:23:47Z</time>
 <fix>none</fix>
 <sat>0</sat>
</trkpt>
<trkpt lat="60.927510000" lon="15.117511667">
<time>2014-07-06T12:23:48Z</time>
 <fix>none</fix>
 <sat>0</sat>
</trkpt>
<trkpt lat="60.927456667" lon="15.117560000">
<time>2014-07-06T12:23:49Z</time>
 <fix>none</fix>
 <sat>0</sat>
</trkpt>
<trkpt lat="60.927355000" lon="15.117663333">
<time>2014-07-06T12:23:50Z</time>
 <fix>none</fix>
 <sat>0</sat>
</trkpt>
<trkpt lat="60.927305000" lon="15.117718333">
<time>2014-07-06T12:23:51Z</time>
 <fix>none</fix>
 <sat>0</sat>
</trkpt>
<trkpt lat="60.927256667" lon="15.117778333">
<time>2014-07-06T12:23:52Z</time>
 <fix>none</fix>
 <sat>0</sat>
</trkpt>
<trkpt lat="60.927223333" lon="15.117856667">
<time>2014-07-06T12:23:53Z</time>
 <fix>none</fix>
 <sat>0</sat>
</trkpt>
<trkpt lat="60.927193333" lon="15.117948333">
<time>2014-07-06T12:23:54Z</time>
 <fix>none</fix>
 <sat>0</sat>
</trkpt>
<trkpt lat="60.927163333" lon="15.118043333">
<time>2014-07-06T12:23:55Z</time>
 <fix>none</fix>
 <sat>0</sat>
</trkpt>
<trkpt lat="60.927138333" lon="15.118130000">
<time>2014-07-06T12:23:56Z</time>
 <fix>none</fix>
 <sat>0</sat>
</trkpt>
<trkpt lat="60.927113333" lon="15.118200000">
<time>2014-07-06T12:23:57Z</time>
 <fix>none</fix>
 <sat>0</sat>
</trkpt>
<trkpt lat="60.927090000" lon="15.118268333">
<time>2014-07-06T12:23:58Z</time>
 <fix>none</fix>
 <sat>0</sat>
</trkpt>
<trkpt lat="60.927090000" lon="15.118268333">
<time>2014-07-06T12:23:59Z</time>
 <fix>none</fix>
 <sat>0</sat>
</trkpt>
<trkpt lat="60.927090000" lon="15.118268333">
<time>2014-07-06T12:24:00Z</time>
 <fix>none</fix>
 <sat>0</sat>
</trkpt>
<trkpt lat="60.927020000" lon="15.118520000">
<time>2014-07-06T12:24:01Z</time>
 <fix>none</fix>
 <sat>0</sat>
</trkpt>
<trkpt lat="60.926998333" lon="15.118595000">
<time>2014-07-06T12:24:02Z</time>
 <fix>none</fix>
 <sat>0</sat>
</trkpt>
<trkpt lat="60.926960000" lon="15.118711667">
<time>2014-07-06T12:24:03Z</time>
 <fix>none</fix>
 <sat>0</sat>
</trkpt>
<trkpt lat="60.926916667" lon="15.118820000">
<time>2014-07-06T12:24:04Z</time>
 <fix>none</fix>
 <sat>0</sat>
</trkpt>
<trkpt lat="60.926916667" lon="15.118820000">
<time>2014-07-06T12:24:05Z</time>
 <fix>none</fix>
 <sat>0</sat>
</trkpt>
<trkpt lat="60.926875000" lon="15.118923333">
<time>2014-07-06T12:24:06Z</time>
 <fix>none</fix>
 <sat>0</sat>
</trkpt>
<trkpt lat="60.926828333" lon="15.119026667">
<time>2014-07-06T12:24:07Z</time>
 <fix>none</fix>
 <sat>0</sat>
</trkpt>
<trkpt lat="60.926793333" lon="15.119126667">
<time>2014-07-06T12:24:08Z</time>
 <fix>none</fix>
 <sat>0</sat>
</trkpt>
<trkpt lat="60.926778333" lon="15.119220000">
<time>2014-07-06T12:24:09Z</time>
 <fix>none</fix>
 <sat>0</sat>
</trkpt>
<trkpt lat="60.926776667" lon="15.119316667">
<time>2014-07-06T12:24:10Z</time>
 <fix>none</fix>
 <sat>0</sat>
</trkpt>
<trkpt lat="60.926805000" lon="15.119401667">
<time>2014-07-06T12:24:11Z</time>
 <fix>none</fix>
 <sat>0</sat>
</trkpt>
<trkpt lat="60.926888333" lon="15.119553333">
<time>2014-07-06T12:24:12Z</time>
 <fix>none</fix>
 <sat>0</sat>
</trkpt>
<trkpt lat="60.926931667" lon="15.119635000">
<time>2014-07-06T12:24:13Z</time>
 <fix>none</fix>
 <sat>0</sat>
</trkpt>
<trkpt lat="60.926973333" lon="15.119723333">
<time>2014-07-06T12:24:14Z</time>
 <fix>none</fix>
 <sat>0</sat>
</trkpt>
<trkpt lat="60.927003333" lon="15.119825000">
<time>2014-07-06T12:24:15Z</time>
 <fix>none</fix>
 <sat>0</sat>
</trkpt>
<trkpt lat="60.927015000" lon="15.119935000">
<time>2014-07-06T12:24:16Z</time>
 <fix>none</fix>
 <sat>0</sat>
</trkpt>
<trkpt lat="60.927010000" lon="15.120030000">
<time>2014-07-06T12:24:17Z</time>
 <fix>none</fix>
 <sat>0</sat>
</trkpt>
<trkpt lat="60.926965000" lon="15.120120000">
<time>2014-07-06T12:24:18Z</time>
 <fix>none</fix>
 <sat>0</sat>
</trkpt>
<trkpt lat="60.926965000" lon="15.120120000">
<time>2014-07-06T12:24:19Z</time>
 <fix>none</fix>
 <sat>0</sat>
</trkpt>
<trkpt lat="60.926965000" lon="15.120120000">
<time>2014-07-06T12:24:20Z</time>
 <fix>none</fix>
 <sat>0</sat>
</trkpt>
<trkpt lat="60.926820000" lon="15.120363333">
<time>2014-07-06T12:24:21Z</time>
 <fix>none</fix>
 <sat>0</sat>
</trkpt>
<trkpt lat="60.926820000" lon="15.120363333">
<time>2014-07-06T12:24:22Z</time>
 <fix>none</fix>
 <sat>0</sat>
</trkpt>
<trkpt lat="60.926713333" lon="15.120563333">
<time>2014-07-06T12:24:23Z</time>
 <fix>none</fix>
 <sat>0</sat>
</trkpt>
<trkpt lat="60.926713333" lon="15.120563333">
<time>2014-07-06T12:24:24Z</time>
 <fix>none</fix>
 <sat>0</sat>
</trkpt>
<trkpt lat="60.926626667" lon="15.120810000">
<time>2014-07-06T12:24:25Z</time>
 <fix>none</fix>
 <sat>0</sat>
</trkpt>
<trkpt lat="60.926626667" lon="15.120810000">
<time>2014-07-06T12:24:26Z</time>
 <fix>none</fix>
 <sat>0</sat>
</trkpt>
<trkpt lat="60.926543333" lon="15.121078333">
<time>2014-07-06T12:24:27Z</time>
 <fix>none</fix>
 <sat>0</sat>
</trkpt>
<trkpt lat="60.926543333" lon="15.121078333">
<time>2014-07-06T12:24:28Z</time>
 <fix>none</fix>
 <sat>0</sat>
</trkpt>
<trkpt lat="60.926453333" lon="15.121341667">
<time>2014-07-06T12:24:29Z</time>
 <fix>none</fix>
 <sat>0</sat>
</trkpt>
<trkpt lat="60.926453333" lon="15.121341667">
<time>2014-07-06T12:24:30Z</time>
 <fix>none</fix>
 <sat>0</sat>
</trkpt>
<trkpt lat="60.926370000" lon="15.121598333">
<time>2014-07-06T12:24:31Z</time>
 <fix>none</fix>
 <sat>0</sat>
</trkpt>
<trkpt lat="60.926370000" lon="15.121598333">
<time>2014-07-06T12:24:32Z</time>
 <fix>none</fix>
 <sat>0</sat>
</trkpt>
<trkpt lat="60.926295000" lon="15.121796667">
<time>2014-07-06T12:24:33Z</time>
 <fix>none</fix>
 <sat>0</sat>
</trkpt>
<trkpt lat="60.926295000" lon="15.121796667">
<time>2014-07-06T12:24:34Z</time>
 <fix>none</fix>
 <sat>0</sat>
</trkpt>
<trkpt lat="60.926183333" lon="15.121901667">
<time>2014-07-06T12:24:35Z</time>
 <fix>none</fix>
 <sat>0</sat>
</trkpt>
<trkpt lat="60.926183333" lon="15.121901667">
<time>2014-07-06T12:24:36Z</time>
 <fix>none</fix>
 <sat>0</sat>
</trkpt>
<trkpt lat="60.926008333" lon="15.121998333">
<time>2014-07-06T12:24:37Z</time>
 <fix>none</fix>
 <sat>0</sat>
</trkpt>
<trkpt lat="60.926008333" lon="15.121998333">
<time>2014-07-06T12:24:38Z</time>
 <fix>none</fix>
 <sat>0</sat>
</trkpt>
<trkpt lat="60.925836667" lon="15.122106667">
<time>2014-07-06T12:24:39Z</time>
 <fix>none</fix>
 <sat>0</sat>
</trkpt>
<trkpt lat="60.925836667" lon="15.122106667">
<time>2014-07-06T12:24:40Z</time>
 <fix>none</fix>
 <sat>0</sat>
</trkpt>
<trkpt lat="60.925683333" lon="15.122183333">
<time>2014-07-06T12:24:41Z</time>
 <fix>none</fix>
 <sat>0</sat>
</trkpt>
<trkpt lat="60.925683333" lon="15.122183333">
<time>2014-07-06T12:24:42Z</time>
 <fix>none</fix>
 <sat>0</sat>
</trkpt>
<trkpt lat="60.925531667" lon="15.122281667">
<time>2014-07-06T12:24:43Z</time>
 <fix>none</fix>
 <sat>0</sat>
</trkpt>
<trkpt lat="60.925531667" lon="15.122281667">
<time>2014-07-06T12:24:44Z</time>
 <fix>none</fix>
 <sat>0</sat>
</trkpt>
<trkpt lat="60.925400000" lon="15.122386667">
<time>2014-07-06T12:24:45Z</time>
 <fix>none</fix>
 <sat>0</sat>
</trkpt>
<trkpt lat="60.925400000" lon="15.122386667">
<time>2014-07-06T12:24:46Z</time>
 <fix>none</fix>
 <sat>0</sat>
</trkpt>
<trkpt lat="60.925283333" lon="15.122476667">
<time>2014-07-06T12:24:47Z</time>
 <fix>none</fix>
 <sat>0</sat>
</trkpt>
<trkpt lat="60.925226667" lon="15.122525000">
<time>2014-07-06T12:24:48Z</time>
 <fix>none</fix>
 <sat>0</sat>
</trkpt>
<trkpt lat="60.925160000" lon="15.122555000">
<time>2014-07-06T12:24:49Z</time>
 <fix>none</fix>
 <sat>0</sat>
</trkpt>
<trkpt lat="60.925160000" lon="15.122555000">
<time>2014-07-06T12:24:50Z</time>
 <fix>none</fix>
 <sat>0</sat>
</trkpt>
<trkpt lat="60.925091667" lon="15.122596667">
<time>2014-07-06T12:24:51Z</time>
 <fix>none</fix>
 <sat>0</sat>
</trkpt>
<trkpt lat="60.925021667" lon="15.122641667">
<time>2014-07-06T12:24:52Z</time>
 <fix>none</fix>
 <sat>0</sat>
</trkpt>
<trkpt lat="60.924953333" lon="15.122686667">
<time>2014-07-06T12:24:53Z</time>
 <fix>none</fix>
 <sat>0</sat>
</trkpt>
<trkpt lat="60.924886667" lon="15.122726667">
<time>2014-07-06T12:24:54Z</time>
 <fix>none</fix>
 <sat>0</sat>
</trkpt>
<trkpt lat="60.924818333" lon="15.122765000">
<time>2014-07-06T12:24:55Z</time>
 <fix>none</fix>
 <sat>0</sat>
</trkpt>
<trkpt lat="60.924681667" lon="15.122855000">
<time>2014-07-06T12:24:56Z</time>
 <fix>none</fix>
 <sat>0</sat>
</trkpt>
<trkpt lat="60.924610000" lon="15.122893333">
<time>2014-07-06T12:24:57Z</time>
 <fix>none</fix>
 <sat>0</sat>
</trkpt>
<trkpt lat="60.924535000" lon="15.122926667">
<time>2014-07-06T12:24:58Z</time>
 <fix>none</fix>
 <sat>0</sat>
</trkpt>
<trkpt lat="60.924460000" lon="15.122966667">
<time>2014-07-06T12:24:59Z</time>
 <fix>none</fix>
 <sat>0</sat>
</trkpt>
<trkpt lat="60.924460000" lon="15.122966667">
<time>2014-07-06T12:25:00Z</time>
 <fix>none</fix>
 <sat>0</sat>
</trkpt>
<trkpt lat="60.924460000" lon="15.122966667">
<time>2014-07-06T12:25:01Z</time>
 <fix>none</fix>
 <sat>0</sat>
</trkpt>
<trkpt lat="60.924246667" lon="15.123140000">
<time>2014-07-06T12:25:02Z</time>
 <fix>none</fix>
 <sat>0</sat>
</trkpt>
<trkpt lat="60.924246667" lon="15.123140000">
<time>2014-07-06T12:25:03Z</time>
 <fix>none</fix>
 <sat>0</sat>
</trkpt>
<trkpt lat="60.924105000" lon="15.123261667">
<time>2014-07-06T12:25:04Z</time>
 <fix>none</fix>
 <sat>0</sat>
</trkpt>
<trkpt lat="60.924105000" lon="15.123261667">
<time>2014-07-06T12:25:05Z</time>
 <fix>none</fix>
 <sat>0</sat>
</trkpt>
<trkpt lat="60.923966667" lon="15.123418333">
<time>2014-07-06T12:25:06Z</time>
 <fix>none</fix>
 <sat>0</sat>
</trkpt>
<trkpt lat="60.923966667" lon="15.123418333">
<time>2014-07-06T12:25:07Z</time>
 <fix>none</fix>
 <sat>0</sat>
</trkpt>
<trkpt lat="60.923828333" lon="15.123576667">
<time>2014-07-06T12:25:08Z</time>
 <fix>none</fix>
 <sat>0</sat>
</trkpt>
<trkpt lat="60.923828333" lon="15.123576667">
<time>2014-07-06T12:25:09Z</time>
 <fix>none</fix>
 <sat>0</sat>
</trkpt>
<trkpt lat="60.923671667" lon="15.123706667">
<time>2014-07-06T12:25:10Z</time>
 <fix>none</fix>
 <sat>0</sat>
</trkpt>
<trkpt lat="60.923671667" lon="15.123706667">
<time>2014-07-06T12:25:11Z</time>
 <fix>none</fix>
 <sat>0</sat>
</trkpt>
<trkpt lat="60.923518333" lon="15.123820000">
<time>2014-07-06T12:25:12Z</time>
 <fix>none</fix>
 <sat>0</sat>
</trkpt>
<trkpt lat="60.923505000" lon="15.123833333">
<time>2014-07-06T12:25:13Z</time>
 <fix>none</fix>
 <sat>0</sat>
</trkpt>
<trkpt lat="60.923445000" lon="15.123870000">
<time>2014-07-06T12:25:14Z</time>
 <fix>none</fix>
 <sat>0</sat>
</trkpt>
<trkpt lat="60.923365000" lon="15.123898333">
<time>2014-07-06T12:25:15Z</time>
 <fix>none</fix>
 <sat>0</sat>
</trkpt>
<trkpt lat="60.923290000" lon="15.123921667">
<time>2014-07-06T12:25:16Z</time>
 <fix>none</fix>
 <sat>0</sat>
</trkpt>
<trkpt lat="60.923223333" lon="15.123973333">
<time>2014-07-06T12:25:17Z</time>
 <fix>none</fix>
 <sat>0</sat>
</trkpt>
<trkpt lat="60.923091667" lon="15.124006667">
<time>2014-07-06T12:25:18Z</time>
 <fix>none</fix>
 <sat>0</sat>
</trkpt>
<trkpt lat="60.923091667" lon="15.124006667">
<time>2014-07-06T12:25:19Z</time>
 <fix>none</fix>
 <sat>0</sat>
</trkpt>
<trkpt lat="60.923023333" lon="15.124043333">
<time>2014-07-06T12:25:20Z</time>
 <fix>none</fix>
 <sat>0</sat>
</trkpt>
<trkpt lat="60.922873333" lon="15.124136667">
<time>2014-07-06T12:25:21Z</time>
 <fix>none</fix>
 <sat>0</sat>
</trkpt>
<trkpt lat="60.922805000" lon="15.124205000">
<time>2014-07-06T12:25:22Z</time>
 <fix>none</fix>
 <sat>0</sat>
</trkpt>
<trkpt lat="60.922735000" lon="15.124280000">
<time>2014-07-06T12:25:23Z</time>
 <fix>none</fix>
 <sat>0</sat>
</trkpt>
<trkpt lat="60.922666667" lon="15.124350000">
<time>2014-07-06T12:25:24Z</time>
 <fix>none</fix>
 <sat>0</sat>
</trkpt>
<trkpt lat="60.922595000" lon="15.124398333">
<time>2014-07-06T12:25:25Z</time>
 <fix>none</fix>
 <sat>0</sat>
</trkpt>
<trkpt lat="60.922515000" lon="15.124441667">
<time>2014-07-06T12:25:26Z</time>
 <fix>none</fix>
 <sat>0</sat>
</trkpt>
<trkpt lat="60.922431667" lon="15.124475000">
<time>2014-07-06T12:25:27Z</time>
 <fix>none</fix>
 <sat>0</sat>
</trkpt>
<trkpt lat="60.922346667" lon="15.124490000">
<time>2014-07-06T12:25:28Z</time>
 <fix>none</fix>
 <sat>0</sat>
</trkpt>
<trkpt lat="60.922261667" lon="15.124536667">
<time>2014-07-06T12:25:29Z</time>
 <fix>none</fix>
 <sat>0</sat>
</trkpt>
<trkpt lat="60.922171667" lon="15.124566667">
<time>2014-07-06T12:25:30Z</time>
 <fix>none</fix>
 <sat>0</sat>
</trkpt>
<trkpt lat="60.922081667" lon="15.124600000">
<time>2014-07-06T12:25:31Z</time>
 <fix>none</fix>
 <sat>0</sat>
</trkpt>
<trkpt lat="60.921990000" lon="15.124630000">
<time>2014-07-06T12:25:32Z</time>
 <fix>none</fix>
 <sat>0</sat>
</trkpt>
<trkpt lat="60.921903333" lon="15.124656667">
<time>2014-07-06T12:25:33Z</time>
 <fix>none</fix>
 <sat>0</sat>
</trkpt>
<trkpt lat="60.921818333" lon="15.124701667">
<time>2014-07-06T12:25:34Z</time>
 <fix>none</fix>
 <sat>0</sat>
</trkpt>
<trkpt lat="60.921730000" lon="15.124786667">
<time>2014-07-06T12:25:35Z</time>
 <fix>none</fix>
 <sat>0</sat>
</trkpt>
<trkpt lat="60.921730000" lon="15.124786667">
<time>2014-07-06T12:25:36Z</time>
 <fix>none</fix>
 <sat>0</sat>
</trkpt>
<trkpt lat="60.921646667" lon="15.124936667">
<time>2014-07-06T12:25:37Z</time>
 <fix>none</fix>
 <sat>0</sat>
</trkpt>
<trkpt lat="60.921576667" lon="15.125093333">
<time>2014-07-06T12:25:38Z</time>
 <fix>none</fix>
 <sat>0</sat>
</trkpt>
<trkpt lat="60.921511667" lon="15.125253333">
<time>2014-07-06T12:25:39Z</time>
 <fix>none</fix>
 <sat>0</sat>
</trkpt>
<trkpt lat="60.921468333" lon="15.125460000">
<time>2014-07-06T12:25:40Z</time>
 <fix>none</fix>
 <sat>0</sat>
</trkpt>
<trkpt lat="60.921426667" lon="15.125665000">
<time>2014-07-06T12:25:41Z</time>
 <fix>none</fix>
 <sat>0</sat>
</trkpt>
<trkpt lat="60.921325000" lon="15.126046667">
<time>2014-07-06T12:25:42Z</time>
 <fix>none</fix>
 <sat>0</sat>
</trkpt>
<trkpt lat="60.921325000" lon="15.126046667">
<time>2014-07-06T12:25:43Z</time>
 <fix>none</fix>
 <sat>0</sat>
</trkpt>
<trkpt lat="60.921185000" lon="15.126366667">
<time>2014-07-06T12:25:44Z</time>
 <fix>none</fix>
 <sat>0</sat>
</trkpt>
<trkpt lat="60.921098333" lon="15.126468333">
<time>2014-07-06T12:25:45Z</time>
 <fix>none</fix>
 <sat>0</sat>
</trkpt>
<trkpt lat="60.921098333" lon="15.126468333">
<time>2014-07-06T12:25:46Z</time>
 <fix>none</fix>
 <sat>0</sat>
</trkpt>
<trkpt lat="60.920896667" lon="15.126540000">
<time>2014-07-06T12:25:47Z</time>
 <fix>none</fix>
 <sat>0</sat>
</trkpt>
<trkpt lat="60.920801667" lon="15.126576667">
<time>2014-07-06T12:25:48Z</time>
 <fix>none</fix>
 <sat>0</sat>
</trkpt>
<trkpt lat="60.920706667" lon="15.126645000">
<time>2014-07-06T12:25:49Z</time>
 <fix>none</fix>
 <sat>0</sat>
</trkpt>
<trkpt lat="60.920621667" lon="15.126726667">
<time>2014-07-06T12:25:50Z</time>
 <fix>none</fix>
 <sat>0</sat>
</trkpt>
<trkpt lat="60.920531667" lon="15.126825000">
<time>2014-07-06T12:25:51Z</time>
 <fix>none</fix>
 <sat>0</sat>
</trkpt>
<trkpt lat="60.920445000" lon="15.126936667">
<time>2014-07-06T12:25:52Z</time>
 <fix>none</fix>
 <sat>0</sat>
</trkpt>
<trkpt lat="60.920368333" lon="15.127071667">
<time>2014-07-06T12:25:53Z</time>
 <fix>none</fix>
 <sat>0</sat>
</trkpt>
<trkpt lat="60.920306667" lon="15.127245000">
<time>2014-07-06T12:25:54Z</time>
 <fix>none</fix>
 <sat>0</sat>
</trkpt>
<trkpt lat="60.920225000" lon="15.127370000">
<time>2014-07-06T12:25:55Z</time>
 <fix>none</fix>
 <sat>0</sat>
</trkpt>
<trkpt lat="60.920115000" lon="15.127408333">
<time>2014-07-06T12:25:56Z</time>
 <fix>none</fix>
 <sat>0</sat>
</trkpt>
<trkpt lat="60.920006667" lon="15.127425000">
<time>2014-07-06T12:25:57Z</time>
 <fix>none</fix>
 <sat>0</sat>
</trkpt>
<trkpt lat="60.920006667" lon="15.127425000">
<time>2014-07-06T12:25:58Z</time>
 <fix>none</fix>
 <sat>0</sat>
</trkpt>
<trkpt lat="60.919910000" lon="15.127461667">
<time>2014-07-06T12:25:59Z</time>
 <fix>none</fix>
 <sat>0</sat>
</trkpt>
<trkpt lat="60.919805000" lon="15.127483333">
<time>2014-07-06T12:26:00Z</time>
 <fix>none</fix>
 <sat>0</sat>
</trkpt>
<trkpt lat="60.919705000" lon="15.127506667">
<time>2014-07-06T12:26:01Z</time>
 <fix>none</fix>
 <sat>0</sat>
</trkpt>
<trkpt lat="60.919608333" lon="15.127535000">
<time>2014-07-06T12:26:02Z</time>
 <fix>none</fix>
 <sat>0</sat>
</trkpt>
<trkpt lat="60.919515000" lon="15.127556667">
<time>2014-07-06T12:26:03Z</time>
 <fix>none</fix>
 <sat>0</sat>
</trkpt>
<trkpt lat="60.919415000" lon="15.127583333">
<time>2014-07-06T12:26:04Z</time>
 <fix>none</fix>
 <sat>0</sat>
</trkpt>
<trkpt lat="60.919316667" lon="15.127616667">
<time>2014-07-06T12:26:05Z</time>
 <fix>none</fix>
 <sat>0</sat>
</trkpt>
<trkpt lat="60.919220000" lon="15.127646667">
<time>2014-07-06T12:26:06Z</time>
 <fix>none</fix>
 <sat>0</sat>
</trkpt>
<trkpt lat="60.919031667" lon="15.127698333">
<time>2014-07-06T12:26:07Z</time>
 <fix>none</fix>
 <sat>0</sat>
</trkpt>
<trkpt lat="60.918938333" lon="15.127735000">
<time>2014-07-06T12:26:08Z</time>
 <fix>none</fix>
 <sat>0</sat>
</trkpt>
<trkpt lat="60.918845000" lon="15.127775000">
<time>2014-07-06T12:26:09Z</time>
 <fix>none</fix>
 <sat>0</sat>
</trkpt>
<trkpt lat="60.918751667" lon="15.127820000">
<time>2014-07-06T12:26:10Z</time>
 <fix>none</fix>
 <sat>0</sat>
</trkpt>
<trkpt lat="60.918660000" lon="15.127878333">
<time>2014-07-06T12:26:11Z</time>
 <fix>none</fix>
 <sat>0</sat>
</trkpt>
<trkpt lat="60.918563333" lon="15.127941667">
<time>2014-07-06T12:26:12Z</time>
 <fix>none</fix>
 <sat>0</sat>
</trkpt>
<trkpt lat="60.918473333" lon="15.128011667">
<time>2014-07-06T12:26:13Z</time>
 <fix>none</fix>
 <sat>0</sat>
</trkpt>
<trkpt lat="60.918395000" lon="15.128076667">
<time>2014-07-06T12:26:14Z</time>
 <fix>none</fix>
 <sat>0</sat>
</trkpt>
<trkpt lat="60.918308333" lon="15.128126667">
<time>2014-07-06T12:26:15Z</time>
 <fix>none</fix>
 <sat>0</sat>
</trkpt>
<trkpt lat="60.918218333" lon="15.128156667">
<time>2014-07-06T12:26:16Z</time>
 <fix>none</fix>
 <sat>0</sat>
</trkpt>
<trkpt lat="60.918126667" lon="15.128160000">
<time>2014-07-06T12:26:17Z</time>
 <fix>none</fix>
 <sat>0</sat>
</trkpt>
<trkpt lat="60.918041667" lon="15.128156667">
<time>2014-07-06T12:26:18Z</time>
 <fix>none</fix>
 <sat>0</sat>
</trkpt>
<trkpt lat="60.917948333" lon="15.128120000">
<time>2014-07-06T12:26:19Z</time>
 <fix>none</fix>
 <sat>0</sat>
</trkpt>
<trkpt lat="60.917846667" lon="15.128035000">
<time>2014-07-06T12:26:20Z</time>
 <fix>none</fix>
 <sat>0</sat>
</trkpt>
<trkpt lat="60.917846667" lon="15.128035000">
<time>2014-07-06T12:26:21Z</time>
 <fix>none</fix>
 <sat>0</sat>
</trkpt>
<trkpt lat="60.917751667" lon="15.127943333">
<time>2014-07-06T12:26:22Z</time>
 <fix>none</fix>
 <sat>0</sat>
</trkpt>
<trkpt lat="60.917663333" lon="15.127858333">
<time>2014-07-06T12:26:23Z</time>
 <fix>none</fix>
 <sat>0</sat>
</trkpt>
<trkpt lat="60.917573333" lon="15.127801667">
<time>2014-07-06T12:26:24Z</time>
 <fix>none</fix>
 <sat>0</sat>
</trkpt>
<trkpt lat="60.917496667" lon="15.127750000">
<time>2014-07-06T12:26:25Z</time>
 <fix>none</fix>
 <sat>0</sat>
</trkpt>
<trkpt lat="60.917373333" lon="15.127716667">
<time>2014-07-06T12:26:26Z</time>
 <fix>none</fix>
 <sat>0</sat>
</trkpt>
<trkpt lat="60.917340000" lon="15.127716667">
<time>2014-07-06T12:26:27Z</time>
 <fix>none</fix>
 <sat>0</sat>
</trkpt>
<trkpt lat="60.917340000" lon="15.127716667">
<time>2014-07-06T12:26:28Z</time>
 <fix>none</fix>
 <sat>0</sat>
</trkpt>
<trkpt lat="60.917290000" lon="15.127830000">
<time>2014-07-06T12:26:29Z</time>
 <fix>none</fix>
 <sat>0</sat>
</trkpt>
<trkpt lat="60.917293333" lon="15.127993333">
<time>2014-07-06T12:26:30Z</time>
 <fix>none</fix>
 <sat>0</sat>
</trkpt>
<trkpt lat="60.917295000" lon="15.128168333">
<time>2014-07-06T12:26:31Z</time>
 <fix>none</fix>
 <sat>0</sat>
</trkpt>
<trkpt lat="60.917290000" lon="15.128340000">
<time>2014-07-06T12:26:32Z</time>
 <fix>none</fix>
 <sat>0</sat>
</trkpt>
<trkpt lat="60.917280000" lon="15.128510000">
<time>2014-07-06T12:26:33Z</time>
 <fix>none</fix>
 <sat>0</sat>
</trkpt>
<trkpt lat="60.917263333" lon="15.128678333">
<time>2014-07-06T12:26:34Z</time>
 <fix>none</fix>
 <sat>0</sat>
</trkpt>
<trkpt lat="60.917236667" lon="15.128835000">
<time>2014-07-06T12:26:35Z</time>
 <fix>none</fix>
 <sat>0</sat>
</trkpt>
<trkpt lat="60.917196667" lon="15.128993333">
<time>2014-07-06T12:26:36Z</time>
 <fix>none</fix>
 <sat>0</sat>
</trkpt>
<trkpt lat="60.917145000" lon="15.129155000">
<time>2014-07-06T12:26:37Z</time>
 <fix>none</fix>
 <sat>0</sat>
</trkpt>
<trkpt lat="60.917083333" lon="15.129306667">
<time>2014-07-06T12:26:38Z</time>
 <fix>none</fix>
 <sat>0</sat>
</trkpt>
<trkpt lat="60.917023333" lon="15.129470000">
<time>2014-07-06T12:26:39Z</time>
 <fix>none</fix>
 <sat>0</sat>
</trkpt>
<trkpt lat="60.917023333" lon="15.129470000">
<time>2014-07-06T12:26:40Z</time>
 <fix>none</fix>
 <sat>0</sat>
</trkpt>
<trkpt lat="60.917023333" lon="15.129470000">
<time>2014-07-06T12:26:41Z</time>
 <fix>none</fix>
 <sat>0</sat>
</trkpt>
<trkpt lat="60.916851667" lon="15.129941667">
<time>2014-07-06T12:26:42Z</time>
 <fix>none</fix>
 <sat>0</sat>
</trkpt>
<trkpt lat="60.916795000" lon="15.130098333">
<time>2014-07-06T12:26:43Z</time>
 <fix>none</fix>
 <sat>0</sat>
</trkpt>
<trkpt lat="60.916795000" lon="15.130098333">
<time>2014-07-06T12:26:44Z</time>
 <fix>none</fix>
 <sat>0</sat>
</trkpt>
<trkpt lat="60.916791667" lon="15.130330000">
<time>2014-07-06T12:26:45Z</time>
 <fix>none</fix>
 <sat>0</sat>
</trkpt>
<trkpt lat="60.916778333" lon="15.130556667">
<time>2014-07-06T12:26:46Z</time>
 <fix>none</fix>
 <sat>0</sat>
</trkpt>
<trkpt lat="60.916751667" lon="15.130740000">
<time>2014-07-06T12:26:47Z</time>
 <fix>none</fix>
 <sat>0</sat>
</trkpt>
<trkpt lat="60.916720000" lon="15.130923333">
<time>2014-07-06T12:26:48Z</time>
 <fix>none</fix>
 <sat>0</sat>
</trkpt>
<trkpt lat="60.916643333" lon="15.131300000">
<time>2014-07-06T12:26:49Z</time>
 <fix>none</fix>
 <sat>0</sat>
</trkpt>
<trkpt lat="60.916643333" lon="15.131300000">
<time>2014-07-06T12:26:50Z</time>
 <fix>none</fix>
 <sat>0</sat>
</trkpt>
<trkpt lat="60.916600000" lon="15.131481667">
<time>2014-07-06T12:26:51Z</time>
 <fix>none</fix>
 <sat>0</sat>
</trkpt>
<trkpt lat="60.916511667" lon="15.131853333">
<time>2014-07-06T12:26:52Z</time>
 <fix>none</fix>
 <sat>0</sat>
</trkpt>
<trkpt lat="60.916470000" lon="15.132036667">
<time>2014-07-06T12:26:53Z</time>
 <fix>none</fix>
 <sat>0</sat>
</trkpt>
<trkpt lat="60.916423333" lon="15.132223333">
<time>2014-07-06T12:26:54Z</time>
 <fix>none</fix>
 <sat>0</sat>
</trkpt>
<trkpt lat="60.916423333" lon="15.132223333">
<time>2014-07-06T12:26:55Z</time>
 <fix>none</fix>
 <sat>0</sat>
</trkpt>
<trkpt lat="60.916423333" lon="15.132223333">
<time>2014-07-06T12:26:56Z</time>
 <fix>none</fix>
 <sat>0</sat>
</trkpt>
<trkpt lat="60.916273333" lon="15.132750000">
<time>2014-07-06T12:26:57Z</time>
 <fix>none</fix>
 <sat>0</sat>
</trkpt>
<trkpt lat="60.916273333" lon="15.132750000">
<time>2014-07-06T12:26:58Z</time>
 <fix>none</fix>
 <sat>0</sat>
</trkpt>
<trkpt lat="60.916146667" lon="15.133033333">
<time>2014-07-06T12:26:59Z</time>
 <fix>none</fix>
 <sat>0</sat>
</trkpt>
<trkpt lat="60.916146667" lon="15.133033333">
<time>2014-07-06T12:27:00Z</time>
 <fix>none</fix>
 <sat>0</sat>
</trkpt>
<trkpt lat="60.915990000" lon="15.133253333">
<time>2014-07-06T12:27:01Z</time>
 <fix>none</fix>
 <sat>0</sat>
</trkpt>
<trkpt lat="60.915990000" lon="15.133253333">
<time>2014-07-06T12:27:02Z</time>
 <fix>none</fix>
 <sat>0</sat>
</trkpt>
<trkpt lat="60.915790000" lon="15.133393333">
<time>2014-07-06T12:27:03Z</time>
 <fix>none</fix>
 <sat>0</sat>
</trkpt>
<trkpt lat="60.915790000" lon="15.133393333">
<time>2014-07-06T12:27:04Z</time>
 <fix>none</fix>
 <sat>0</sat>
</trkpt>
<trkpt lat="60.915585000" lon="15.133603333">
<time>2014-07-06T12:27:05Z</time>
 <fix>none</fix>
 <sat>0</sat>
</trkpt>
<trkpt lat="60.915585000" lon="15.133603333">
<time>2014-07-06T12:27:06Z</time>
 <fix>none</fix>
 <sat>0</sat>
</trkpt>
<trkpt lat="60.915393333" lon="15.133823333">
<time>2014-07-06T12:27:07Z</time>
 <fix>none</fix>
 <sat>0</sat>
</trkpt>
<trkpt lat="60.915393333" lon="15.133823333">
<time>2014-07-06T12:27:08Z</time>
 <fix>none</fix>
 <sat>0</sat>
</trkpt>
<trkpt lat="60.915238333" lon="15.134085000">
<time>2014-07-06T12:27:09Z</time>
 <fix>none</fix>
 <sat>0</sat>
</trkpt>
<trkpt lat="60.915238333" lon="15.134085000">
<time>2014-07-06T12:27:10Z</time>
 <fix>none</fix>
 <sat>0</sat>
</trkpt>
<trkpt lat="60.915093333" lon="15.134350000">
<time>2014-07-06T12:27:11Z</time>
 <fix>none</fix>
 <sat>0</sat>
</trkpt>
<trkpt lat="60.914955000" lon="15.134648333">
<time>2014-07-06T12:27:12Z</time>
 <fix>none</fix>
 <sat>0</sat>
</trkpt>
<trkpt lat="60.914955000" lon="15.134648333">
<time>2014-07-06T12:27:13Z</time>
 <fix>none</fix>
 <sat>0</sat>
</trkpt>
<trkpt lat="60.914955000" lon="15.134648333">
<time>2014-07-06T12:27:14Z</time>
 <fix>none</fix>
 <sat>0</sat>
</trkpt>
<trkpt lat="60.914955000" lon="15.134648333">
<time>2014-07-06T12:27:15Z</time>
 <fix>none</fix>
 <sat>0</sat>
</trkpt>
<trkpt lat="60.914835000" lon="15.134980000">
<time>2014-07-06T12:27:16Z</time>
 <fix>none</fix>
 <sat>0</sat>
</trkpt>
<trkpt lat="60.914835000" lon="15.134980000">
<time>2014-07-06T12:27:17Z</time>
 <fix>none</fix>
 <sat>0</sat>
</trkpt>
<trkpt lat="60.914685000" lon="15.135541667">
<time>2014-07-06T12:27:18Z</time>
 <fix>none</fix>
 <sat>0</sat>
</trkpt>
<trkpt lat="60.914670000" lon="15.135750000">
<time>2014-07-06T12:27:19Z</time>
 <fix>none</fix>
 <sat>0</sat>
</trkpt>
<trkpt lat="60.914666667" lon="15.135943333">
<time>2014-07-06T12:27:20Z</time>
 <fix>none</fix>
 <sat>0</sat>
</trkpt>
<trkpt lat="60.914663333" lon="15.136131667">
<time>2014-07-06T12:27:21Z</time>
 <fix>none</fix>
 <sat>0</sat>
</trkpt>
<trkpt lat="60.914683333" lon="15.136306667">
<time>2014-07-06T12:27:22Z</time>
 <fix>none</fix>
 <sat>0</sat>
</trkpt>
<trkpt lat="60.914728333" lon="15.136478333">
<time>2014-07-06T12:27:23Z</time>
 <fix>none</fix>
 <sat>0</sat>
</trkpt>
<trkpt lat="60.914786667" lon="15.136646667">
<time>2014-07-06T12:27:24Z</time>
 <fix>none</fix>
 <sat>0</sat>
</trkpt>
<trkpt lat="60.914840000" lon="15.136803333">
<time>2014-07-06T12:27:25Z</time>
 <fix>none</fix>
 <sat>0</sat>
</trkpt>
<trkpt lat="60.914903333" lon="15.136958333">
<time>2014-07-06T12:27:26Z</time>
 <fix>none</fix>
 <sat>0</sat>
</trkpt>
<trkpt lat="60.914963333" lon="15.137121667">
<time>2014-07-06T12:27:27Z</time>
 <fix>none</fix>
 <sat>0</sat>
</trkpt>
<trkpt lat="60.915023333" lon="15.137283333">
<time>2014-07-06T12:27:28Z</time>
 <fix>none</fix>
 <sat>0</sat>
</trkpt>
<trkpt lat="60.915086667" lon="15.137445000">
<time>2014-07-06T12:27:29Z</time>
 <fix>none</fix>
 <sat>0</sat>
</trkpt>
<trkpt lat="60.915086667" lon="15.137445000">
<time>2014-07-06T12:27:30Z</time>
 <fix>none</fix>
 <sat>0</sat>
</trkpt>
<trkpt lat="60.915138333" lon="15.137618333">
<time>2014-07-06T12:27:31Z</time>
 <fix>none</fix>
 <sat>0</sat>
</trkpt>
<trkpt lat="60.915183333" lon="15.137806667">
<time>2014-07-06T12:27:32Z</time>
 <fix>none</fix>
 <sat>0</sat>
</trkpt>
<trkpt lat="60.915225000" lon="15.137993333">
<time>2014-07-06T12:27:33Z</time>
 <fix>none</fix>
 <sat>0</sat>
</trkpt>
<trkpt lat="60.915256667" lon="15.138186667">
<time>2014-07-06T12:27:34Z</time>
 <fix>none</fix>
 <sat>0</sat>
</trkpt>
<trkpt lat="60.915288333" lon="15.138576667">
<time>2014-07-06T12:27:35Z</time>
 <fix>none</fix>
 <sat>0</sat>
</trkpt>
<trkpt lat="60.915288333" lon="15.138576667">
<time>2014-07-06T12:27:36Z</time>
 <fix>none</fix>
 <sat>0</sat>
</trkpt>
<trkpt lat="60.915283333" lon="15.138780000">
<time>2014-07-06T12:27:37Z</time>
 <fix>none</fix>
 <sat>0</sat>
</trkpt>
<trkpt lat="60.915141667" lon="15.139176667">
<time>2014-07-06T12:27:38Z</time>
 <fix>none</fix>
 <sat>0</sat>
</trkpt>
<trkpt lat="60.915043333" lon="15.139303333">
<time>2014-07-06T12:27:39Z</time>
 <fix>none</fix>
 <sat>0</sat>
</trkpt>
<trkpt lat="60.914950000" lon="15.139423333">
<time>2014-07-06T12:27:40Z</time>
 <fix>none</fix>
 <sat>0</sat>
</trkpt>
<trkpt lat="60.914858333" lon="15.139541667">
<time>2014-07-06T12:27:41Z</time>
 <fix>none</fix>
 <sat>0</sat>
</trkpt>
<trkpt lat="60.914778333" lon="15.139673333">
<time>2014-07-06T12:27:42Z</time>
 <fix>none</fix>
 <sat>0</sat>
</trkpt>
<trkpt lat="60.914701667" lon="15.139815000">
<time>2014-07-06T12:27:43Z</time>
 <fix>none</fix>
 <sat>0</sat>
</trkpt>
<trkpt lat="60.914648333" lon="15.139976667">
<time>2014-07-06T12:27:44Z</time>
 <fix>none</fix>
 <sat>0</sat>
</trkpt>
<trkpt lat="60.914620000" lon="15.140170000">
<time>2014-07-06T12:27:45Z</time>
 <fix>none</fix>
 <sat>0</sat>
</trkpt>
<trkpt lat="60.914581667" lon="15.140353333">
<time>2014-07-06T12:27:46Z</time>
 <fix>none</fix>
 <sat>0</sat>
</trkpt>
<trkpt lat="60.914550000" lon="15.140545000">
<time>2014-07-06T12:27:47Z</time>
 <fix>none</fix>
 <sat>0</sat>
</trkpt>
<trkpt lat="60.914520000" lon="15.140733333">
<time>2014-07-06T12:27:48Z</time>
 <fix>none</fix>
 <sat>0</sat>
</trkpt>
<trkpt lat="60.914490000" lon="15.140915000">
<time>2014-07-06T12:27:49Z</time>
 <fix>none</fix>
 <sat>0</sat>
</trkpt>
<trkpt lat="60.914456667" lon="15.141085000">
<time>2014-07-06T12:27:50Z</time>
 <fix>none</fix>
 <sat>0</sat>
</trkpt>
<trkpt lat="60.914431667" lon="15.141251667">
<time>2014-07-06T12:27:51Z</time>
 <fix>none</fix>
 <sat>0</sat>
</trkpt>
<trkpt lat="60.914431667" lon="15.141251667">
<time>2014-07-06T12:27:52Z</time>
 <fix>none</fix>
 <sat>0</sat>
</trkpt>
<trkpt lat="60.914410000" lon="15.141418333">
<time>2014-07-06T12:27:53Z</time>
 <fix>none</fix>
 <sat>0</sat>
</trkpt>
<trkpt lat="60.914396667" lon="15.141590000">
<time>2014-07-06T12:27:54Z</time>
 <fix>none</fix>
 <sat>0</sat>
</trkpt>
<trkpt lat="60.914396667" lon="15.141590000">
<time>2014-07-06T12:27:55Z</time>
 <fix>none</fix>
 <sat>0</sat>
</trkpt>
<trkpt lat="60.914423333" lon="15.142098333">
<time>2014-07-06T12:27:56Z</time>
 <fix>none</fix>
 <sat>0</sat>
</trkpt>
<trkpt lat="60.914423333" lon="15.142098333">
<time>2014-07-06T12:27:57Z</time>
 <fix>none</fix>
 <sat>0</sat>
</trkpt>
<trkpt lat="60.914481667" lon="15.142466667">
<time>2014-07-06T12:27:58Z</time>
 <fix>none</fix>
 <sat>0</sat>
</trkpt>
<trkpt lat="60.914481667" lon="15.142466667">
<time>2014-07-06T12:27:59Z</time>
 <fix>none</fix>
 <sat>0</sat>
</trkpt>
<trkpt lat="60.914543333" lon="15.142785000">
<time>2014-07-06T12:28:00Z</time>
 <fix>none</fix>
 <sat>0</sat>
</trkpt>
<trkpt lat="60.914590000" lon="15.142958333">
<time>2014-07-06T12:28:01Z</time>
 <fix>none</fix>
 <sat>0</sat>
</trkpt>
<trkpt lat="60.914631667" lon="15.143133333">
<time>2014-07-06T12:28:02Z</time>
 <fix>none</fix>
 <sat>0</sat>
</trkpt>
<trkpt lat="60.914675000" lon="15.143303333">
<time>2014-07-06T12:28:03Z</time>
 <fix>none</fix>
 <sat>0</sat>
</trkpt>
<trkpt lat="60.914708333" lon="15.143471667">
<time>2014-07-06T12:28:04Z</time>
 <fix>none</fix>
 <sat>0</sat>
</trkpt>
<trkpt lat="60.914745000" lon="15.143640000">
<time>2014-07-06T12:28:05Z</time>
 <fix>none</fix>
 <sat>0</sat>
</trkpt>
<trkpt lat="60.914791667" lon="15.143790000">
<time>2014-07-06T12:28:06Z</time>
 <fix>none</fix>
 <sat>0</sat>
</trkpt>
<trkpt lat="60.914843333" lon="15.143940000">
<time>2014-07-06T12:28:07Z</time>
 <fix>none</fix>
 <sat>0</sat>
</trkpt>
<trkpt lat="60.914890000" lon="15.144088333">
<time>2014-07-06T12:28:08Z</time>
 <fix>none</fix>
 <sat>0</sat>
</trkpt>
<trkpt lat="60.914940000" lon="15.144230000">
<time>2014-07-06T12:28:09Z</time>
 <fix>none</fix>
 <sat>0</sat>
</trkpt>
<trkpt lat="60.914988333" lon="15.144368333">
<time>2014-07-06T12:28:10Z</time>
 <fix>none</fix>
 <sat>0</sat>
</trkpt>
<trkpt lat="60.915035000" lon="15.144506667">
<time>2014-07-06T12:28:11Z</time>
 <fix>none</fix>
 <sat>0</sat>
</trkpt>
<trkpt lat="60.915035000" lon="15.144506667">
<time>2014-07-06T12:28:12Z</time>
 <fix>none</fix>
 <sat>0</sat>
</trkpt>
<trkpt lat="60.915035000" lon="15.144506667">
<time>2014-07-06T12:28:13Z</time>
 <fix>none</fix>
 <sat>0</sat>
</trkpt>
<trkpt lat="60.915173333" lon="15.144921667">
<time>2014-07-06T12:28:14Z</time>
 <fix>none</fix>
 <sat>0</sat>
</trkpt>
<trkpt lat="60.915173333" lon="15.144921667">
<time>2014-07-06T12:28:15Z</time>
 <fix>none</fix>
 <sat>0</sat>
</trkpt>
<trkpt lat="60.915258333" lon="15.145198333">
<time>2014-07-06T12:28:16Z</time>
 <fix>none</fix>
 <sat>0</sat>
</trkpt>
<trkpt lat="60.915258333" lon="15.145198333">
<time>2014-07-06T12:28:17Z</time>
 <fix>none</fix>
 <sat>0</sat>
</trkpt>
<trkpt lat="60.915351667" lon="15.145453333">
<time>2014-07-06T12:28:18Z</time>
 <fix>none</fix>
 <sat>0</sat>
</trkpt>
<trkpt lat="60.915351667" lon="15.145453333">
<time>2014-07-06T12:28:19Z</time>
 <fix>none</fix>
 <sat>0</sat>
</trkpt>
<trkpt lat="60.915446667" lon="15.145710000">
<time>2014-07-06T12:28:20Z</time>
 <fix>none</fix>
 <sat>0</sat>
</trkpt>
<trkpt lat="60.915446667" lon="15.145710000">
<time>2014-07-06T12:28:21Z</time>
 <fix>none</fix>
 <sat>0</sat>
</trkpt>
<trkpt lat="60.915446667" lon="15.145710000">
<time>2014-07-06T12:28:22Z</time>
 <fix>none</fix>
 <sat>0</sat>
</trkpt>
<trkpt lat="60.915593333" lon="15.146098333">
<time>2014-07-06T12:28:23Z</time>
 <fix>none</fix>
 <sat>0</sat>
</trkpt>
<trkpt lat="60.915618333" lon="15.146288333">
<time>2014-07-06T12:28:24Z</time>
 <fix>none</fix>
 <sat>0</sat>
</trkpt>
<trkpt lat="60.915683333" lon="15.146420000">
<time>2014-07-06T12:28:25Z</time>
 <fix>none</fix>
 <sat>0</sat>
</trkpt>
<trkpt lat="60.915748333" lon="15.146545000">
<time>2014-07-06T12:28:26Z</time>
 <fix>none</fix>
 <sat>0</sat>
</trkpt>
<trkpt lat="60.915805000" lon="15.146665000">
<time>2014-07-06T12:28:27Z</time>
 <fix>none</fix>
 <sat>0</sat>
</trkpt>
<trkpt lat="60.915865000" lon="15.146781667">
<time>2014-07-06T12:28:28Z</time>
 <fix>none</fix>
 <sat>0</sat>
</trkpt>
<trkpt lat="60.915928333" lon="15.146888333">
<time>2014-07-06T12:28:29Z</time>
 <fix>none</fix>
 <sat>0</sat>
</trkpt>
<trkpt lat="60.915986667" lon="15.146996667">
<time>2014-07-06T12:28:30Z</time>
 <fix>none</fix>
 <sat>0</sat>
</trkpt>
<trkpt lat="60.916040000" lon="15.147115000">
<time>2014-07-06T12:28:31Z</time>
 <fix>none</fix>
 <sat>0</sat>
</trkpt>
<trkpt lat="60.916088333" lon="15.147233333">
<time>2014-07-06T12:28:32Z</time>
 <fix>none</fix>
 <sat>0</sat>
</trkpt>
<trkpt lat="60.916140000" lon="15.147348333">
<time>2014-07-06T12:28:33Z</time>
 <fix>none</fix>
 <sat>0</sat>
</trkpt>
<trkpt lat="60.916191667" lon="15.147466667">
<time>2014-07-06T12:28:34Z</time>
 <fix>none</fix>
 <sat>0</sat>
</trkpt>
<trkpt lat="60.916240000" lon="15.147581667">
<time>2014-07-06T12:28:35Z</time>
 <fix>none</fix>
 <sat>0</sat>
</trkpt>
<trkpt lat="60.916240000" lon="15.147581667">
<time>2014-07-06T12:28:36Z</time>
 <fix>none</fix>
 <sat>0</sat>
</trkpt>
<trkpt lat="60.916240000" lon="15.147581667">
<time>2014-07-06T12:28:37Z</time>
 <fix>none</fix>
 <sat>0</sat>
</trkpt>
<trkpt lat="60.916401667" lon="15.147925000">
<time>2014-07-06T12:28:38Z</time>
 <fix>none</fix>
 <sat>0</sat>
</trkpt>
<trkpt lat="60.916401667" lon="15.147925000">
<time>2014-07-06T12:28:39Z</time>
 <fix>none</fix>
 <sat>0</sat>
</trkpt>
<trkpt lat="60.916508333" lon="15.148151667">
<time>2014-07-06T12:28:40Z</time>
 <fix>none</fix>
 <sat>0</sat>
</trkpt>
<trkpt lat="60.916520000" lon="15.148171667">
<time>2014-07-06T12:28:41Z</time>
 <fix>none</fix>
 <sat>0</sat>
</trkpt>
<trkpt lat="60.916566667" lon="15.148265000">
<time>2014-07-06T12:28:42Z</time>
 <fix>none</fix>
 <sat>0</sat>
</trkpt>
<trkpt lat="60.916686667" lon="15.148476667">
<time>2014-07-06T12:28:43Z</time>
 <fix>none</fix>
 <sat>0</sat>
</trkpt>
<trkpt lat="60.916686667" lon="15.148476667">
<time>2014-07-06T12:28:44Z</time>
 <fix>none</fix>
 <sat>0</sat>
</trkpt>
<trkpt lat="60.916736667" lon="15.148590000">
<time>2014-07-06T12:28:45Z</time>
 <fix>none</fix>
 <sat>0</sat>
</trkpt>
<trkpt lat="60.916860000" lon="15.148790000">
<time>2014-07-06T12:28:46Z</time>
 <fix>none</fix>
 <sat>0</sat>
</trkpt>
<trkpt lat="60.916921667" lon="15.148888333">
<time>2014-07-06T12:28:47Z</time>
 <fix>none</fix>
 <sat>0</sat>
</trkpt>
<trkpt lat="60.916988333" lon="15.148975000">
<time>2014-07-06T12:28:48Z</time>
 <fix>none</fix>
 <sat>0</sat>
</trkpt>
<trkpt lat="60.917053333" lon="15.149053333">
<time>2014-07-06T12:28:49Z</time>
 <fix>none</fix>
 <sat>0</sat>
</trkpt>
<trkpt lat="60.917120000" lon="15.149133333">
<time>2014-07-06T12:28:50Z</time>
 <fix>none</fix>
 <sat>0</sat>
</trkpt>
<trkpt lat="60.917190000" lon="15.149203333">
<time>2014-07-06T12:28:51Z</time>
 <fix>none</fix>
 <sat>0</sat>
</trkpt>
<trkpt lat="60.917256667" lon="15.149266667">
<time>2014-07-06T12:28:52Z</time>
 <fix>none</fix>
 <sat>0</sat>
</trkpt>
<trkpt lat="60.917256667" lon="15.149266667">
<time>2014-07-06T12:28:53Z</time>
 <fix>none</fix>
 <sat>0</sat>
</trkpt>
<trkpt lat="60.917256667" lon="15.149266667">
<time>2014-07-06T12:28:54Z</time>
 <fix>none</fix>
 <sat>0</sat>
</trkpt>
<trkpt lat="60.917453333" lon="15.149488333">
<time>2014-07-06T12:28:55Z</time>
 <fix>none</fix>
 <sat>0</sat>
</trkpt>
<trkpt lat="60.917453333" lon="15.149488333">
<time>2014-07-06T12:28:56Z</time>
 <fix>none</fix>
 <sat>0</sat>
</trkpt>
<trkpt lat="60.917591667" lon="15.149671667">
<time>2014-07-06T12:28:57Z</time>
 <fix>none</fix>
 <sat>0</sat>
</trkpt>
<trkpt lat="60.917591667" lon="15.149671667">
<time>2014-07-06T12:28:58Z</time>
 <fix>none</fix>
 <sat>0</sat>
</trkpt>
<trkpt lat="60.917710000" lon="15.149853333">
<time>2014-07-06T12:28:59Z</time>
 <fix>none</fix>
 <sat>0</sat>
</trkpt>
<trkpt lat="60.917710000" lon="15.149853333">
<time>2014-07-06T12:29:00Z</time>
 <fix>none</fix>
 <sat>0</sat>
</trkpt>
<trkpt lat="60.917823333" lon="15.150053333">
<time>2014-07-06T12:29:01Z</time>
 <fix>none</fix>
 <sat>0</sat>
</trkpt>
<trkpt lat="60.917823333" lon="15.150053333">
<time>2014-07-06T12:29:02Z</time>
 <fix>none</fix>
 <sat>0</sat>
</trkpt>
<trkpt lat="60.917953333" lon="15.150223333">
<time>2014-07-06T12:29:03Z</time>
 <fix>none</fix>
 <sat>0</sat>
</trkpt>
<trkpt lat="60.917953333" lon="15.150223333">
<time>2014-07-06T12:29:04Z</time>
 <fix>none</fix>
 <sat>0</sat>
</trkpt>
<trkpt lat="60.918073333" lon="15.150391667">
<time>2014-07-06T12:29:05Z</time>
 <fix>none</fix>
 <sat>0</sat>
</trkpt>
<trkpt lat="60.918073333" lon="15.150391667">
<time>2014-07-06T12:29:06Z</time>
 <fix>none</fix>
 <sat>0</sat>
</trkpt>
<trkpt lat="60.918206667" lon="15.150546667">
<time>2014-07-06T12:29:07Z</time>
 <fix>none</fix>
 <sat>0</sat>
</trkpt>
<trkpt lat="60.918206667" lon="15.150546667">
<time>2014-07-06T12:29:08Z</time>
 <fix>none</fix>
 <sat>0</sat>
</trkpt>
<trkpt lat="60.918353333" lon="15.150696667">
<time>2014-07-06T12:29:09Z</time>
 <fix>none</fix>
 <sat>0</sat>
</trkpt>
<trkpt lat="60.918410000" lon="15.150763333">
<time>2014-07-06T12:29:10Z</time>
 <fix>none</fix>
 <sat>0</sat>
</trkpt>
<trkpt lat="60.918486667" lon="15.150850000">
<time>2014-07-06T12:29:11Z</time>
 <fix>none</fix>
 <sat>0</sat>
</trkpt>
<trkpt lat="60.918561667" lon="15.150928333">
<time>2014-07-06T12:29:12Z</time>
 <fix>none</fix>
 <sat>0</sat>
</trkpt>
<trkpt lat="60.918635000" lon="15.151006667">
<time>2014-07-06T12:29:13Z</time>
 <fix>none</fix>
 <sat>0</sat>
</trkpt>
<trkpt lat="60.918698333" lon="15.151093333">
<time>2014-07-06T12:29:14Z</time>
 <fix>none</fix>
 <sat>0</sat>
</trkpt>
<trkpt lat="60.918761667" lon="15.151171667">
<time>2014-07-06T12:29:15Z</time>
 <fix>none</fix>
 <sat>0</sat>
</trkpt>
<trkpt lat="60.918818333" lon="15.151270000">
<time>2014-07-06T12:29:16Z</time>
 <fix>none</fix>
 <sat>0</sat>
</trkpt>
<trkpt lat="60.918873333" lon="15.151373333">
<time>2014-07-06T12:29:17Z</time>
 <fix>none</fix>
 <sat>0</sat>
</trkpt>
<trkpt lat="60.918931667" lon="15.151475000">
<time>2014-07-06T12:29:18Z</time>
 <fix>none</fix>
 <sat>0</sat>
</trkpt>
<trkpt lat="60.918991667" lon="15.151580000">
<time>2014-07-06T12:29:19Z</time>
 <fix>none</fix>
 <sat>0</sat>
</trkpt>
<trkpt lat="60.919060000" lon="15.151670000">
<time>2014-07-06T12:29:20Z</time>
 <fix>none</fix>
 <sat>0</sat>
</trkpt>
<trkpt lat="60.919131667" lon="15.151751667">
<time>2014-07-06T12:29:21Z</time>
 <fix>none</fix>
 <sat>0</sat>
</trkpt>
<trkpt lat="60.919131667" lon="15.151751667">
<time>2014-07-06T12:29:22Z</time>
 <fix>none</fix>
 <sat>0</sat>
</trkpt>
<trkpt lat="60.919131667" lon="15.151751667">
<time>2014-07-06T12:29:23Z</time>
 <fix>none</fix>
 <sat>0</sat>
</trkpt>
<trkpt lat="60.919358333" lon="15.151961667">
<time>2014-07-06T12:29:24Z</time>
 <fix>none</fix>
 <sat>0</sat>
</trkpt>
<trkpt lat="60.919380000" lon="15.151970000">
<time>2014-07-06T12:29:25Z</time>
 <fix>none</fix>
 <sat>0</sat>
</trkpt>
<trkpt lat="60.919460000" lon="15.152006667">
<time>2014-07-06T12:29:26Z</time>
 <fix>none</fix>
 <sat>0</sat>
</trkpt>
<trkpt lat="60.919505000" lon="15.151946667">
<time>2014-07-06T12:29:27Z</time>
 <fix>none</fix>
 <sat>0</sat>
</trkpt>
<trkpt lat="60.919611667" lon="15.151986667">
<time>2014-07-06T12:29:28Z</time>
 <fix>none</fix>
 <sat>0</sat>
</trkpt>
<trkpt lat="60.919700000" lon="15.152010000">
<time>2014-07-06T12:29:29Z</time>
 <fix>none</fix>
 <sat>0</sat>
</trkpt>
<trkpt lat="60.919800000" lon="15.152038333">
<time>2014-07-06T12:29:30Z</time>
 <fix>none</fix>
 <sat>0</sat>
</trkpt>
<trkpt lat="60.919905000" lon="15.152073333">
<time>2014-07-06T12:29:31Z</time>
 <fix>none</fix>
 <sat>0</sat>
</trkpt>
<trkpt lat="60.920091667" lon="15.152186667">
<time>2014-07-06T12:29:32Z</time>
 <fix>none</fix>
 <sat>0</sat>
</trkpt>
<trkpt lat="60.920181667" lon="15.152266667">
<time>2014-07-06T12:29:33Z</time>
 <fix>none</fix>
 <sat>0</sat>
</trkpt>
<trkpt lat="60.920275000" lon="15.152361667">
<time>2014-07-06T12:29:34Z</time>
 <fix>none</fix>
 <sat>0</sat>
</trkpt>
<trkpt lat="60.920365000" lon="15.152448333">
<time>2014-07-06T12:29:35Z</time>
 <fix>none</fix>
 <sat>0</sat>
</trkpt>
<trkpt lat="60.920453333" lon="15.152543333">
<time>2014-07-06T12:29:36Z</time>
 <fix>none</fix>
 <sat>0</sat>
</trkpt>
<trkpt lat="60.920535000" lon="15.152638333">
<time>2014-07-06T12:29:37Z</time>
 <fix>none</fix>
 <sat>0</sat>
</trkpt>
<trkpt lat="60.920613333" lon="15.152731667">
<time>2014-07-06T12:29:38Z</time>
 <fix>none</fix>
 <sat>0</sat>
</trkpt>
<trkpt lat="60.920690000" lon="15.152830000">
<time>2014-07-06T12:29:39Z</time>
 <fix>none</fix>
 <sat>0</sat>
</trkpt>
<trkpt lat="60.920765000" lon="15.152940000">
<time>2014-07-06T12:29:40Z</time>
 <fix>none</fix>
 <sat>0</sat>
</trkpt>
<trkpt lat="60.920836667" lon="15.153060000">
<time>2014-07-06T12:29:41Z</time>
 <fix>none</fix>
 <sat>0</sat>
</trkpt>
<trkpt lat="60.920903333" lon="15.153180000">
<time>2014-07-06T12:29:42Z</time>
 <fix>none</fix>
 <sat>0</sat>
</trkpt>
<trkpt lat="60.920966667" lon="15.153300000">
<time>2014-07-06T12:29:43Z</time>
 <fix>none</fix>
 <sat>0</sat>
</trkpt>
<trkpt lat="60.921023333" lon="15.153421667">
<time>2014-07-06T12:29:44Z</time>
 <fix>none</fix>
 <sat>0</sat>
</trkpt>
<trkpt lat="60.921080000" lon="15.153550000">
<time>2014-07-06T12:29:45Z</time>
 <fix>none</fix>
 <sat>0</sat>
</trkpt>
<trkpt lat="60.921128333" lon="15.153678333">
<time>2014-07-06T12:29:46Z</time>
 <fix>none</fix>
 <sat>0</sat>
</trkpt>
<trkpt lat="60.921128333" lon="15.153678333">
<time>2014-07-06T12:29:47Z</time>
 <fix>none</fix>
 <sat>0</sat>
</trkpt>
<trkpt lat="60.921175000" lon="15.153813333">
<time>2014-07-06T12:29:48Z</time>
 <fix>none</fix>
 <sat>0</sat>
</trkpt>
<trkpt lat="60.921175000" lon="15.153813333">
<time>2014-07-06T12:29:49Z</time>
 <fix>none</fix>
 <sat>0</sat>
</trkpt>
<trkpt lat="60.921310000" lon="15.154175000">
<time>2014-07-06T12:29:50Z</time>
 <fix>none</fix>
 <sat>0</sat>
</trkpt>
<trkpt lat="60.921310000" lon="15.154175000">
<time>2014-07-06T12:29:51Z</time>
 <fix>none</fix>
 <sat>0</sat>
</trkpt>
<trkpt lat="60.921400000" lon="15.154416667">
<time>2014-07-06T12:29:52Z</time>
 <fix>none</fix>
 <sat>0</sat>
</trkpt>
<trkpt lat="60.921400000" lon="15.154416667">
<time>2014-07-06T12:29:53Z</time>
 <fix>none</fix>
 <sat>0</sat>
</trkpt>
<trkpt lat="60.921400000" lon="15.154416667">
<time>2014-07-06T12:29:54Z</time>
 <fix>none</fix>
 <sat>0</sat>
</trkpt>
<trkpt lat="60.921486667" lon="15.154690000">
<time>2014-07-06T12:29:55Z</time>
 <fix>none</fix>
 <sat>0</sat>
</trkpt>
<trkpt lat="60.921570000" lon="15.154995000">
<time>2014-07-06T12:29:56Z</time>
 <fix>none</fix>
 <sat>0</sat>
</trkpt>
<trkpt lat="60.921570000" lon="15.154995000">
<time>2014-07-06T12:29:57Z</time>
 <fix>none</fix>
 <sat>0</sat>
</trkpt>
<trkpt lat="60.921665000" lon="15.155295000">
<time>2014-07-06T12:29:58Z</time>
 <fix>none</fix>
 <sat>0</sat>
</trkpt>
<trkpt lat="60.921665000" lon="15.155295000">
<time>2014-07-06T12:29:59Z</time>
 <fix>none</fix>
 <sat>0</sat>
</trkpt>
<trkpt lat="60.921766667" lon="15.155580000">
<time>2014-07-06T12:30:00Z</time>
 <fix>none</fix>
 <sat>0</sat>
</trkpt>
<trkpt lat="60.921766667" lon="15.155580000">
<time>2014-07-06T12:30:01Z</time>
 <fix>none</fix>
 <sat>0</sat>
</trkpt>
<trkpt lat="60.921871667" lon="15.155845000">
<time>2014-07-06T12:30:02Z</time>
 <fix>none</fix>
 <sat>0</sat>
</trkpt>
<trkpt lat="60.921871667" lon="15.155845000">
<time>2014-07-06T12:30:03Z</time>
 <fix>none</fix>
 <sat>0</sat>
</trkpt>
<trkpt lat="60.922001667" lon="15.156083333">
<time>2014-07-06T12:30:04Z</time>
 <fix>none</fix>
 <sat>0</sat>
</trkpt>
<trkpt lat="60.922001667" lon="15.156083333">
<time>2014-07-06T12:30:05Z</time>
 <fix>none</fix>
 <sat>0</sat>
</trkpt>
<trkpt lat="60.922136667" lon="15.156313333">
<time>2014-07-06T12:30:06Z</time>
 <fix>none</fix>
 <sat>0</sat>
</trkpt>
<trkpt lat="60.922136667" lon="15.156313333">
<time>2014-07-06T12:30:07Z</time>
 <fix>none</fix>
 <sat>0</sat>
</trkpt>
<trkpt lat="60.922245000" lon="15.156553333">
<time>2014-07-06T12:30:08Z</time>
 <fix>none</fix>
 <sat>0</sat>
</trkpt>
<trkpt lat="60.922245000" lon="15.156553333">
<time>2014-07-06T12:30:09Z</time>
 <fix>none</fix>
 <sat>0</sat>
</trkpt>
<trkpt lat="60.922353333" lon="15.156780000">
<time>2014-07-06T12:30:10Z</time>
 <fix>none</fix>
 <sat>0</sat>
</trkpt>
<trkpt lat="60.922353333" lon="15.156780000">
<time>2014-07-06T12:30:11Z</time>
 <fix>none</fix>
 <sat>0</sat>
</trkpt>
<trkpt lat="60.922451667" lon="15.156983333">
<time>2014-07-06T12:30:12Z</time>
 <fix>none</fix>
 <sat>0</sat>
</trkpt>
<trkpt lat="60.922451667" lon="15.156983333">
<time>2014-07-06T12:30:13Z</time>
 <fix>none</fix>
 <sat>0</sat>
</trkpt>
<trkpt lat="60.922505000" lon="15.157216667">
<time>2014-07-06T12:30:14Z</time>
 <fix>none</fix>
 <sat>0</sat>
</trkpt>
<trkpt lat="60.922510000" lon="15.157475000">
<time>2014-07-06T12:30:15Z</time>
 <fix>none</fix>
 <sat>0</sat>
</trkpt>
<trkpt lat="60.922510000" lon="15.157475000">
<time>2014-07-06T12:30:16Z</time>
 <fix>none</fix>
 <sat>0</sat>
</trkpt>
<trkpt lat="60.922510000" lon="15.157475000">
<time>2014-07-06T12:30:17Z</time>
 <fix>none</fix>
 <sat>0</sat>
</trkpt>
<trkpt lat="60.922436667" lon="15.157370000">
<time>2014-07-06T12:30:18Z</time>
 <fix>none</fix>
 <sat>0</sat>
</trkpt>
<trkpt lat="60.922436667" lon="15.157370000">
<time>2014-07-06T12:30:19Z</time>
 <fix>none</fix>
 <sat>0</sat>
</trkpt>
<trkpt lat="60.922343333" lon="15.157153333">
<time>2014-07-06T12:30:20Z</time>
 <fix>none</fix>
 <sat>0</sat>
</trkpt>
<trkpt lat="60.922343333" lon="15.157153333">
<time>2014-07-06T12:30:21Z</time>
 <fix>none</fix>
 <sat>0</sat>
</trkpt>
<trkpt lat="60.922230000" lon="15.157026667">
<time>2014-07-06T12:30:22Z</time>
 <fix>none</fix>
 <sat>0</sat>
</trkpt>
<trkpt lat="60.922230000" lon="15.157026667">
<time>2014-07-06T12:30:23Z</time>
 <fix>none</fix>
 <sat>0</sat>
</trkpt>
<trkpt lat="60.922156667" lon="15.156823333">
<time>2014-07-06T12:30:24Z</time>
 <fix>none</fix>
 <sat>0</sat>
</trkpt>
<trkpt lat="60.922156667" lon="15.156823333">
<time>2014-07-06T12:30:25Z</time>
 <fix>none</fix>
 <sat>0</sat>
</trkpt>
<trkpt lat="60.922048333" lon="15.156706667">
<time>2014-07-06T12:30:26Z</time>
 <fix>none</fix>
 <sat>0</sat>
</trkpt>
<trkpt lat="60.922048333" lon="15.156706667">
<time>2014-07-06T12:30:27Z</time>
 <fix>none</fix>
 <sat>0</sat>
</trkpt>
<trkpt lat="60.921936667" lon="15.156603333">
<time>2014-07-06T12:30:28Z</time>
 <fix>none</fix>
 <sat>0</sat>
</trkpt>
<trkpt lat="60.921936667" lon="15.156603333">
<time>2014-07-06T12:30:29Z</time>
 <fix>none</fix>
 <sat>0</sat>
</trkpt>
<trkpt lat="60.921826667" lon="15.156495000">
<time>2014-07-06T12:30:30Z</time>
 <fix>none</fix>
 <sat>0</sat>
</trkpt>
<trkpt lat="60.921768333" lon="15.156468333">
<time>2014-07-06T12:30:31Z</time>
 <fix>none</fix>
 <sat>0</sat>
</trkpt>
<trkpt lat="60.921768333" lon="15.156468333">
<time>2014-07-06T12:30:32Z</time>
 <fix>none</fix>
 <sat>0</sat>
</trkpt>
<trkpt lat="60.921691667" lon="15.156576667">
<time>2014-07-06T12:30:33Z</time>
 <fix>none</fix>
 <sat>0</sat>
</trkpt>
<trkpt lat="60.921610000" lon="15.156600000">
<time>2014-07-06T12:30:34Z</time>
 <fix>none</fix>
 <sat>0</sat>
</trkpt>
<trkpt lat="60.921540000" lon="15.156566667">
<time>2014-07-06T12:30:35Z</time>
 <fix>none</fix>
 <sat>0</sat>
</trkpt>
<trkpt lat="60.921463333" lon="15.156545000">
<time>2014-07-06T12:30:36Z</time>
 <fix>none</fix>
 <sat>0</sat>
</trkpt>
<trkpt lat="60.921325000" lon="15.156490000">
<time>2014-07-06T12:30:37Z</time>
 <fix>none</fix>
 <sat>0</sat>
</trkpt>
<trkpt lat="60.921325000" lon="15.156490000">
<time>2014-07-06T12:30:38Z</time>
 <fix>none</fix>
 <sat>0</sat>
</trkpt>
<trkpt lat="60.921250000" lon="15.156468333">
<time>2014-07-06T12:30:39Z</time>
 <fix>none</fix>
 <sat>0</sat>
</trkpt>
<trkpt lat="60.921116667" lon="15.156416667">
<time>2014-07-06T12:30:40Z</time>
 <fix>none</fix>
 <sat>0</sat>
</trkpt>
<trkpt lat="60.921051667" lon="15.156395000">
<time>2014-07-06T12:30:41Z</time>
 <fix>none</fix>
 <sat>0</sat>
</trkpt>
<trkpt lat="60.920985000" lon="15.156373333">
<time>2014-07-06T12:30:42Z</time>
 <fix>none</fix>
 <sat>0</sat>
</trkpt>
<trkpt lat="60.920926667" lon="15.156353333">
<time>2014-07-06T12:30:43Z</time>
 <fix>none</fix>
 <sat>0</sat>
</trkpt>
<trkpt lat="60.920875000" lon="15.156311667">
<time>2014-07-06T12:30:44Z</time>
 <fix>none</fix>
 <sat>0</sat>
</trkpt>
<trkpt lat="60.920830000" lon="15.156251667">
<time>2014-07-06T12:30:45Z</time>
 <fix>none</fix>
 <sat>0</sat>
</trkpt>
<trkpt lat="60.920785000" lon="15.156186667">
<time>2014-07-06T12:30:46Z</time>
 <fix>none</fix>
 <sat>0</sat>
</trkpt>
<trkpt lat="60.920731667" lon="15.156138333">
<time>2014-07-06T12:30:47Z</time>
 <fix>none</fix>
 <sat>0</sat>
</trkpt>
<trkpt lat="60.920678333" lon="15.156100000">
<time>2014-07-06T12:30:48Z</time>
 <fix>none</fix>
 <sat>0</sat>
</trkpt>
<trkpt lat="60.920613333" lon="15.156090000">
<time>2014-07-06T12:30:49Z</time>
 <fix>none</fix>
 <sat>0</sat>
</trkpt>
<trkpt lat="60.920546667" lon="15.156073333">
<time>2014-07-06T12:30:50Z</time>
 <fix>none</fix>
 <sat>0</sat>
</trkpt>
<trkpt lat="60.920476667" lon="15.156105000">
<time>2014-07-06T12:30:51Z</time>
 <fix>none</fix>
 <sat>0</sat>
</trkpt>
<trkpt lat="60.920425000" lon="15.156115000">
<time>2014-07-06T12:30:52Z</time>
 <fix>none</fix>
 <sat>0</sat>
</trkpt>
<trkpt lat="60.920368333" lon="15.156143333">
<time>2014-07-06T12:30:53Z</time>
 <fix>none</fix>
 <sat>0</sat>
</trkpt>
<trkpt lat="60.920318333" lon="15.156180000">
<time>2014-07-06T12:30:54Z</time>
 <fix>none</fix>
 <sat>0</sat>
</trkpt>
<trkpt lat="60.920318333" lon="15.156180000">
<time>2014-07-06T12:30:55Z</time>
 <fix>none</fix>
 <sat>0</sat>
</trkpt>
<trkpt lat="60.920270000" lon="15.156248333">
<time>2014-07-06T12:30:56Z</time>
 <fix>none</fix>
 <sat>0</sat>
</trkpt>
<trkpt lat="60.920215000" lon="15.156298333">
<time>2014-07-06T12:30:57Z</time>
 <fix>none</fix>
 <sat>0</sat>
</trkpt>
<trkpt lat="60.920156667" lon="15.156335000">
<time>2014-07-06T12:30:58Z</time>
 <fix>none</fix>
 <sat>0</sat>
</trkpt>
<trkpt lat="60.920100000" lon="15.156355000">
<time>2014-07-06T12:30:59Z</time>
 <fix>none</fix>
 <sat>0</sat>
</trkpt>
<trkpt lat="60.920041667" lon="15.156358333">
<time>2014-07-06T12:31:00Z</time>
 <fix>none</fix>
 <sat>0</sat>
</trkpt>
<trkpt lat="60.919981667" lon="15.156380000">
<time>2014-07-06T12:31:01Z</time>
 <fix>none</fix>
 <sat>0</sat>
</trkpt>
<trkpt lat="60.919916667" lon="15.156385000">
<time>2014-07-06T12:31:02Z</time>
 <fix>none</fix>
 <sat>0</sat>
</trkpt>
<trkpt lat="60.919791667" lon="15.156398333">
<time>2014-07-06T12:31:03Z</time>
 <fix>none</fix>
 <sat>0</sat>
</trkpt>
<trkpt lat="60.919728333" lon="15.156388333">
<time>2014-07-06T12:31:04Z</time>
 <fix>none</fix>
 <sat>0</sat>
</trkpt>
<trkpt lat="60.919666667" lon="15.156391667">
<time>2014-07-06T12:31:05Z</time>
 <fix>none</fix>
 <sat>0</sat>
</trkpt>
<trkpt lat="60.919605000" lon="15.156405000">
<time>2014-07-06T12:31:06Z</time>
 <fix>none</fix>
 <sat>0</sat>
</trkpt>
<trkpt lat="60.919543333" lon="15.156405000">
<time>2014-07-06T12:31:07Z</time>
 <fix>none</fix>
 <sat>0</sat>
</trkpt>
<trkpt lat="60.919485000" lon="15.156373333">
<time>2014-07-06T12:31:08Z</time>
 <fix>none</fix>
 <sat>0</sat>
</trkpt>
<trkpt lat="60.919433333" lon="15.156323333">
<time>2014-07-06T12:31:09Z</time>
 <fix>none</fix>
 <sat>0</sat>
</trkpt>
<trkpt lat="60.919385000" lon="15.156253333">
<time>2014-07-06T12:31:10Z</time>
 <fix>none</fix>
 <sat>0</sat>
</trkpt>
<trkpt lat="60.919341667" lon="15.156168333">
<time>2014-07-06T12:31:11Z</time>
 <fix>none</fix>
 <sat>0</sat>
</trkpt>
<trkpt lat="60.919298333" lon="15.156086667">
<time>2014-07-06T12:31:12Z</time>
 <fix>none</fix>
 <sat>0</sat>
</trkpt>
<trkpt lat="60.919258333" lon="15.156003333">
<time>2014-07-06T12:31:13Z</time>
 <fix>none</fix>
 <sat>0</sat>
</trkpt>
<trkpt lat="60.919216667" lon="15.155926667">
<time>2014-07-06T12:31:14Z</time>
 <fix>none</fix>
 <sat>0</sat>
</trkpt>
<trkpt lat="60.919168333" lon="15.155886667">
<time>2014-07-06T12:31:15Z</time>
 <fix>none</fix>
 <sat>0</sat>
</trkpt>
<trkpt lat="60.919113333" lon="15.155910000">
<time>2014-07-06T12:31:16Z</time>
 <fix>none</fix>
 <sat>0</sat>
</trkpt>
<trkpt lat="60.919050000" lon="15.155943333">
<time>2014-07-06T12:31:17Z</time>
 <fix>none</fix>
 <sat>0</sat>
</trkpt>
<trkpt lat="60.919050000" lon="15.155943333">
<time>2014-07-06T12:31:18Z</time>
 <fix>none</fix>
 <sat>0</sat>
</trkpt>
<trkpt lat="60.918988333" lon="15.156000000">
<time>2014-07-06T12:31:19Z</time>
 <fix>none</fix>
 <sat>0</sat>
</trkpt>
<trkpt lat="60.918933333" lon="15.156041667">
<time>2014-07-06T12:31:20Z</time>
 <fix>none</fix>
 <sat>0</sat>
</trkpt>
<trkpt lat="60.918876667" lon="15.156095000">
<time>2014-07-06T12:31:21Z</time>
 <fix>none</fix>
 <sat>0</sat>
</trkpt>
<trkpt lat="60.918821667" lon="15.156123333">
<time>2014-07-06T12:31:22Z</time>
 <fix>none</fix>
 <sat>0</sat>
</trkpt>
<trkpt lat="60.918703333" lon="15.156206667">
<time>2014-07-06T12:31:23Z</time>
 <fix>none</fix>
 <sat>0</sat>
</trkpt>
<trkpt lat="60.918638333" lon="15.156241667">
<time>2014-07-06T12:31:24Z</time>
 <fix>none</fix>
 <sat>0</sat>
</trkpt>
<trkpt lat="60.918638333" lon="15.156241667">
<time>2014-07-06T12:31:25Z</time>
 <fix>none</fix>
 <sat>0</sat>
</trkpt>
<trkpt lat="60.918571667" lon="15.156260000">
<time>2014-07-06T12:31:26Z</time>
 <fix>none</fix>
 <sat>0</sat>
</trkpt>
<trkpt lat="60.918571667" lon="15.156260000">
<time>2014-07-06T12:31:27Z</time>
 <fix>none</fix>
 <sat>0</sat>
</trkpt>
<trkpt lat="60.918361667" lon="15.156286667">
<time>2014-07-06T12:31:28Z</time>
 <fix>none</fix>
 <sat>0</sat>
</trkpt>
<trkpt lat="60.918361667" lon="15.156286667">
<time>2014-07-06T12:31:29Z</time>
 <fix>none</fix>
 <sat>0</sat>
</trkpt>
<trkpt lat="60.918236667" lon="15.156215000">
<time>2014-07-06T12:31:30Z</time>
 <fix>none</fix>
 <sat>0</sat>
</trkpt>
<trkpt lat="60.918191667" lon="15.156171667">
<time>2014-07-06T12:31:31Z</time>
 <fix>none</fix>
 <sat>0</sat>
</trkpt>
<trkpt lat="60.918168333" lon="15.155996667">
<time>2014-07-06T12:31:32Z</time>
 <fix>none</fix>
 <sat>0</sat>
</trkpt>
<trkpt lat="60.918131667" lon="15.155881667">
<time>2014-07-06T12:31:33Z</time>
 <fix>none</fix>
 <sat>0</sat>
</trkpt>
<trkpt lat="60.918073333" lon="15.155833333">
<time>2014-07-06T12:31:34Z</time>
 <fix>none</fix>
 <sat>0</sat>
</trkpt>
<trkpt lat="60.918025000" lon="15.155753333">
<time>2014-07-06T12:31:35Z</time>
 <fix>none</fix>
 <sat>0</sat>
</trkpt>
<trkpt lat="60.917983333" lon="15.155665000">
<time>2014-07-06T12:31:36Z</time>
 <fix>none</fix>
 <sat>0</sat>
</trkpt>
<trkpt lat="60.917946667" lon="15.155560000">
<time>2014-07-06T12:31:37Z</time>
 <fix>none</fix>
 <sat>0</sat>
</trkpt>
<trkpt lat="60.917915000" lon="15.155445000">
<time>2014-07-06T12:31:38Z</time>
 <fix>none</fix>
 <sat>0</sat>
</trkpt>
<trkpt lat="60.917880000" lon="15.155365000">
<time>2014-07-06T12:31:39Z</time>
 <fix>none</fix>
 <sat>0</sat>
</trkpt>
<trkpt lat="60.917880000" lon="15.155365000">
<time>2014-07-06T12:31:40Z</time>
 <fix>none</fix>
 <sat>0</sat>
</trkpt>
<trkpt lat="60.917843333" lon="15.155290000">
<time>2014-07-06T12:31:41Z</time>
 <fix>none</fix>
 <sat>0</sat>
</trkpt>
<trkpt lat="60.917801667" lon="15.155228333">
<time>2014-07-06T12:31:42Z</time>
 <fix>none</fix>
 <sat>0</sat>
</trkpt>
<trkpt lat="60.917760000" lon="15.155171667">
<time>2014-07-06T12:31:43Z</time>
 <fix>none</fix>
 <sat>0</sat>
</trkpt>
<trkpt lat="60.917716667" lon="15.155135000">
<time>2014-07-06T12:31:44Z</time>
 <fix>none</fix>
 <sat>0</sat>
</trkpt>
<trkpt lat="60.917670000" lon="15.155106667">
<time>2014-07-06T12:31:45Z</time>
 <fix>none</fix>
 <sat>0</sat>
</trkpt>
<trkpt lat="60.917573333" lon="15.155028333">
<time>2014-07-06T12:31:46Z</time>
 <fix>none</fix>
 <sat>0</sat>
</trkpt>
<trkpt lat="60.917573333" lon="15.155028333">
<time>2014-07-06T12:31:47Z</time>
 <fix>none</fix>
 <sat>0</sat>
</trkpt>
<trkpt lat="60.917478333" lon="15.154911667">
<time>2014-07-06T12:31:48Z</time>
 <fix>none</fix>
 <sat>0</sat>
</trkpt>
<trkpt lat="60.917433333" lon="15.154841667">
<time>2014-07-06T12:31:49Z</time>
 <fix>none</fix>
 <sat>0</sat>
</trkpt>
<trkpt lat="60.917386667" lon="15.154755000">
<time>2014-07-06T12:31:50Z</time>
 <fix>none</fix>
 <sat>0</sat>
</trkpt>
<trkpt lat="60.917336667" lon="15.154666667">
<time>2014-07-06T12:31:51Z</time>
 <fix>none</fix>
 <sat>0</sat>
</trkpt>
<trkpt lat="60.917288333" lon="15.154581667">
<time>2014-07-06T12:31:52Z</time>
 <fix>none</fix>
 <sat>0</sat>
</trkpt>
<trkpt lat="60.917238333" lon="15.154520000">
<time>2014-07-06T12:31:53Z</time>
 <fix>none</fix>
 <sat>0</sat>
</trkpt>
<trkpt lat="60.917186667" lon="15.154455000">
<time>2014-07-06T12:31:54Z</time>
 <fix>none</fix>
 <sat>0</sat>
</trkpt>
<trkpt lat="60.917136667" lon="15.154385000">
<time>2014-07-06T12:31:55Z</time>
 <fix>none</fix>
 <sat>0</sat>
</trkpt>
<trkpt lat="60.917086667" lon="15.154331667">
<time>2014-07-06T12:31:56Z</time>
 <fix>none</fix>
 <sat>0</sat>
</trkpt>
<trkpt lat="60.917035000" lon="15.154286667">
<time>2014-07-06T12:31:57Z</time>
 <fix>none</fix>
 <sat>0</sat>
</trkpt>
<trkpt lat="60.916980000" lon="15.154245000">
<time>2014-07-06T12:31:58Z</time>
 <fix>none</fix>
 <sat>0</sat>
</trkpt>
<trkpt lat="60.916925000" lon="15.154191667">
<time>2014-07-06T12:31:59Z</time>
 <fix>none</fix>
 <sat>0</sat>
</trkpt>
<trkpt lat="60.916871667" lon="15.154133333">
<time>2014-07-06T12:32:00Z</time>
 <fix>none</fix>
 <sat>0</sat>
</trkpt>
<trkpt lat="60.916815000" lon="15.154096667">
<time>2014-07-06T12:32:01Z</time>
 <fix>none</fix>
 <sat>0</sat>
</trkpt>
<trkpt lat="60.916760000" lon="15.154053333">
<time>2014-07-06T12:32:02Z</time>
 <fix>none</fix>
 <sat>0</sat>
</trkpt>
<trkpt lat="60.916760000" lon="15.154053333">
<time>2014-07-06T12:32:03Z</time>
 <fix>none</fix>
 <sat>0</sat>
</trkpt>
<trkpt lat="60.916706667" lon="15.153996667">
<time>2014-07-06T12:32:04Z</time>
 <fix>none</fix>
 <sat>0</sat>
</trkpt>
<trkpt lat="60.916655000" lon="15.153930000">
<time>2014-07-06T12:32:05Z</time>
 <fix>none</fix>
 <sat>0</sat>
</trkpt>
<trkpt lat="60.916603333" lon="15.153866667">
<time>2014-07-06T12:32:06Z</time>
 <fix>none</fix>
 <sat>0</sat>
</trkpt>
<trkpt lat="60.916555000" lon="15.153818333">
<time>2014-07-06T12:32:07Z</time>
 <fix>none</fix>
 <sat>0</sat>
</trkpt>
<trkpt lat="60.916505000" lon="15.153761667">
<time>2014-07-06T12:32:08Z</time>
 <fix>none</fix>
 <sat>0</sat>
</trkpt>
<trkpt lat="60.916460000" lon="15.153701667">
<time>2014-07-06T12:32:09Z</time>
 <fix>none</fix>
 <sat>0</sat>
</trkpt>
<trkpt lat="60.916373333" lon="15.153561667">
<time>2014-07-06T12:32:10Z</time>
 <fix>none</fix>
 <sat>0</sat>
</trkpt>
<trkpt lat="60.916328333" lon="15.153493333">
<time>2014-07-06T12:32:11Z</time>
 <fix>none</fix>
 <sat>0</sat>
</trkpt>
<trkpt lat="60.916285000" lon="15.153430000">
<time>2014-07-06T12:32:12Z</time>
 <fix>none</fix>
 <sat>0</sat>
</trkpt>
<trkpt lat="60.916243333" lon="15.153350000">
<time>2014-07-06T12:32:13Z</time>
 <fix>none</fix>
 <sat>0</sat>
</trkpt>
<trkpt lat="60.916200000" lon="15.153256667">
<time>2014-07-06T12:32:14Z</time>
 <fix>none</fix>
 <sat>0</sat>
</trkpt>
<trkpt lat="60.916161667" lon="15.153161667">
<time>2014-07-06T12:32:15Z</time>
 <fix>none</fix>
 <sat>0</sat>
</trkpt>
<trkpt lat="60.916130000" lon="15.153055000">
<time>2014-07-06T12:32:16Z</time>
 <fix>none</fix>
 <sat>0</sat>
</trkpt>
<trkpt lat="60.916103333" lon="15.152980000">
<time>2014-07-06T12:32:17Z</time>
 <fix>none</fix>
 <sat>0</sat>
</trkpt>
<trkpt lat="60.916076667" lon="15.152908333">
<time>2014-07-06T12:32:18Z</time>
 <fix>none</fix>
 <sat>0</sat>
</trkpt>
<trkpt lat="60.916046667" lon="15.152836667">
<time>2014-07-06T12:32:19Z</time>
 <fix>none</fix>
 <sat>0</sat>
</trkpt>
<trkpt lat="60.916015000" lon="15.152758333">
<time>2014-07-06T12:32:20Z</time>
 <fix>none</fix>
 <sat>0</sat>
</trkpt>
<trkpt lat="60.915988333" lon="15.152668333">
<time>2014-07-06T12:32:21Z</time>
 <fix>none</fix>
 <sat>0</sat>
</trkpt>
<trkpt lat="60.915973333" lon="15.152563333">
<time>2014-07-06T12:32:22Z</time>
 <fix>none</fix>
 <sat>0</sat>
</trkpt>
<trkpt lat="60.915965000" lon="15.152441667">
<time>2014-07-06T12:32:23Z</time>
 <fix>none</fix>
 <sat>0</sat>
</trkpt>
<trkpt lat="60.915963333" lon="15.152316667">
<time>2014-07-06T12:32:24Z</time>
 <fix>none</fix>
 <sat>0</sat>
</trkpt>
<trkpt lat="60.915955000" lon="15.152195000">
<time>2014-07-06T12:32:25Z</time>
 <fix>none</fix>
 <sat>0</sat>
</trkpt>
<trkpt lat="60.915955000" lon="15.152195000">
<time>2014-07-06T12:32:26Z</time>
 <fix>none</fix>
 <sat>0</sat>
</trkpt>
<trkpt lat="60.915936667" lon="15.152076667">
<time>2014-07-06T12:32:27Z</time>
 <fix>none</fix>
 <sat>0</sat>
</trkpt>
<trkpt lat="60.915913333" lon="15.151975000">
<time>2014-07-06T12:32:28Z</time>
 <fix>none</fix>
 <sat>0</sat>
</trkpt>
<trkpt lat="60.915880000" lon="15.151863333">
<time>2014-07-06T12:32:29Z</time>
 <fix>none</fix>
 <sat>0</sat>
</trkpt>
<trkpt lat="60.915841667" lon="15.151761667">
<time>2014-07-06T12:32:30Z</time>
 <fix>none</fix>
 <sat>0</sat>
</trkpt>
<trkpt lat="60.915771667" lon="15.151528333">
<time>2014-07-06T12:32:31Z</time>
 <fix>none</fix>
 <sat>0</sat>
</trkpt>
<trkpt lat="60.915771667" lon="15.151528333">
<time>2014-07-06T12:32:32Z</time>
 <fix>none</fix>
 <sat>0</sat>
</trkpt>
<trkpt lat="60.915736667" lon="15.151438333">
<time>2014-07-06T12:32:33Z</time>
 <fix>none</fix>
 <sat>0</sat>
</trkpt>
<trkpt lat="60.915648333" lon="15.151250000">
<time>2014-07-06T12:32:34Z</time>
 <fix>none</fix>
 <sat>0</sat>
</trkpt>
<trkpt lat="60.915600000" lon="15.151153333">
<time>2014-07-06T12:32:35Z</time>
 <fix>none</fix>
 <sat>0</sat>
</trkpt>
<trkpt lat="60.915548333" lon="15.151071667">
<time>2014-07-06T12:32:36Z</time>
 <fix>none</fix>
 <sat>0</sat>
</trkpt>
<trkpt lat="60.915548333" lon="15.151071667">
<time>2014-07-06T12:32:37Z</time>
 <fix>none</fix>
 <sat>0</sat>
</trkpt>
<trkpt lat="60.915548333" lon="15.151071667">
<time>2014-07-06T12:32:38Z</time>
 <fix>none</fix>
 <sat>0</sat>
</trkpt>
<trkpt lat="60.915406667" lon="15.150801667">
<time>2014-07-06T12:32:39Z</time>
 <fix>none</fix>
 <sat>0</sat>
</trkpt>
<trkpt lat="60.915383333" lon="15.150738333">
<time>2014-07-06T12:32:40Z</time>
 <fix>none</fix>
 <sat>0</sat>
</trkpt>
<trkpt lat="60.915330000" lon="15.150701667">
<time>2014-07-06T12:32:41Z</time>
 <fix>none</fix>
 <sat>0</sat>
</trkpt>
<trkpt lat="60.915281667" lon="15.150703333">
<time>2014-07-06T12:32:42Z</time>
 <fix>none</fix>
 <sat>0</sat>
</trkpt>
<trkpt lat="60.915243333" lon="15.150736667">
<time>2014-07-06T12:32:43Z</time>
 <fix>none</fix>
 <sat>0</sat>
</trkpt>
<trkpt lat="60.915215000" lon="15.150826667">
<time>2014-07-06T12:32:44Z</time>
 <fix>none</fix>
 <sat>0</sat>
</trkpt>
<trkpt lat="60.915203333" lon="15.150935000">
<time>2014-07-06T12:32:45Z</time>
 <fix>none</fix>
 <sat>0</sat>
</trkpt>
<trkpt lat="60.915193333" lon="15.151040000">
<time>2014-07-06T12:32:46Z</time>
 <fix>none</fix>
 <sat>0</sat>
</trkpt>
<trkpt lat="60.915170000" lon="15.151150000">
<time>2014-07-06T12:32:47Z</time>
 <fix>none</fix>
 <sat>0</sat>
</trkpt>
<trkpt lat="60.915143333" lon="15.151261667">
<time>2014-07-06T12:32:48Z</time>
 <fix>none</fix>
 <sat>0</sat>
</trkpt>
<trkpt lat="60.915143333" lon="15.151261667">
<time>2014-07-06T12:32:49Z</time>
 <fix>none</fix>
 <sat>0</sat>
</trkpt>
<trkpt lat="60.915111667" lon="15.151381667">
<time>2014-07-06T12:32:50Z</time>
 <fix>none</fix>
 <sat>0</sat>
</trkpt>
<trkpt lat="60.915076667" lon="15.151508333">
<time>2014-07-06T12:32:51Z</time>
 <fix>none</fix>
 <sat>0</sat>
</trkpt>
<trkpt lat="60.915045000" lon="15.151633333">
<time>2014-07-06T12:32:52Z</time>
 <fix>none</fix>
 <sat>0</sat>
</trkpt>
<trkpt lat="60.915008333" lon="15.151765000">
<time>2014-07-06T12:32:53Z</time>
 <fix>none</fix>
 <sat>0</sat>
</trkpt>
<trkpt lat="60.914973333" lon="15.151898333">
<time>2014-07-06T12:32:54Z</time>
 <fix>none</fix>
 <sat>0</sat>
</trkpt>
<trkpt lat="60.914973333" lon="15.151898333">
<time>2014-07-06T12:32:55Z</time>
 <fix>none</fix>
 <sat>0</sat>
</trkpt>
<trkpt lat="60.914871667" lon="15.152303333">
<time>2014-07-06T12:32:56Z</time>
 <fix>none</fix>
 <sat>0</sat>
</trkpt>
<trkpt lat="60.914871667" lon="15.152303333">
<time>2014-07-06T12:32:57Z</time>
 <fix>none</fix>
 <sat>0</sat>
</trkpt>
<trkpt lat="60.914813333" lon="15.152578333">
<time>2014-07-06T12:32:58Z</time>
 <fix>none</fix>
 <sat>0</sat>
</trkpt>
<trkpt lat="60.914813333" lon="15.152578333">
<time>2014-07-06T12:32:59Z</time>
 <fix>none</fix>
 <sat>0</sat>
</trkpt>
<trkpt lat="60.914755000" lon="15.152858333">
<time>2014-07-06T12:33:00Z</time>
 <fix>none</fix>
 <sat>0</sat>
</trkpt>
<trkpt lat="60.914755000" lon="15.152858333">
<time>2014-07-06T12:33:01Z</time>
 <fix>none</fix>
 <sat>0</sat>
</trkpt>
<trkpt lat="60.914693333" lon="15.153125000">
<time>2014-07-06T12:33:02Z</time>
 <fix>none</fix>
 <sat>0</sat>
</trkpt>
<trkpt lat="60.914693333" lon="15.153125000">
<time>2014-07-06T12:33:03Z</time>
 <fix>none</fix>
 <sat>0</sat>
</trkpt>
<trkpt lat="60.914636667" lon="15.153400000">
<time>2014-07-06T12:33:04Z</time>
 <fix>none</fix>
 <sat>0</sat>
</trkpt>
<trkpt lat="60.914636667" lon="15.153400000">
<time>2014-07-06T12:33:05Z</time>
 <fix>none</fix>
 <sat>0</sat>
</trkpt>
<trkpt lat="60.914588333" lon="15.153658333">
<time>2014-07-06T12:33:06Z</time>
 <fix>none</fix>
 <sat>0</sat>
</trkpt>
<trkpt lat="60.914588333" lon="15.153658333">
<time>2014-07-06T12:33:07Z</time>
 <fix>none</fix>
 <sat>0</sat>
</trkpt>
<trkpt lat="60.914545000" lon="15.153908333">
<time>2014-07-06T12:33:08Z</time>
 <fix>none</fix>
 <sat>0</sat>
</trkpt>
<trkpt lat="60.914545000" lon="15.153908333">
<time>2014-07-06T12:33:09Z</time>
 <fix>none</fix>
 <sat>0</sat>
</trkpt>
<trkpt lat="60.914483333" lon="15.154133333">
<time>2014-07-06T12:33:10Z</time>
 <fix>none</fix>
 <sat>0</sat>
</trkpt>
<trkpt lat="60.914438333" lon="15.154196667">
<time>2014-07-06T12:33:11Z</time>
 <fix>none</fix>
 <sat>0</sat>
</trkpt>
<trkpt lat="60.914438333" lon="15.154196667">
<time>2014-07-06T12:33:12Z</time>
 <fix>none</fix>
 <sat>0</sat>
</trkpt>
<trkpt lat="60.914386667" lon="15.154223333">
<time>2014-07-06T12:33:13Z</time>
 <fix>none</fix>
 <sat>0</sat>
</trkpt>
<trkpt lat="60.914348333" lon="15.154281667">
<time>2014-07-06T12:33:14Z</time>
 <fix>none</fix>
 <sat>0</sat>
</trkpt>
<trkpt lat="60.914318333" lon="15.154283333">
<time>2014-07-06T12:33:15Z</time>
 <fix>none</fix>
 <sat>0</sat>
</trkpt>
<trkpt lat="60.914296667" lon="15.154285000">
<time>2014-07-06T12:33:16Z</time>
 <fix>none</fix>
 <sat>0</sat>
</trkpt>
<trkpt lat="60.914205000" lon="15.154228333">
<time>2014-07-06T12:33:17Z</time>
 <fix>none</fix>
 <sat>0</sat>
</trkpt>
<trkpt lat="60.914205000" lon="15.154228333">
<time>2014-07-06T12:33:18Z</time>
 <fix>none</fix>
 <sat>0</sat>
</trkpt>
<trkpt lat="60.914101667" lon="15.154141667">
<time>2014-07-06T12:33:19Z</time>
 <fix>none</fix>
 <sat>0</sat>
</trkpt>
<trkpt lat="60.914071667" lon="15.154120000">
<time>2014-07-06T12:33:20Z</time>
 <fix>none</fix>
 <sat>0</sat>
</trkpt>
<trkpt lat="60.914041667" lon="15.154095000">
<time>2014-07-06T12:33:21Z</time>
 <fix>none</fix>
 <sat>0</sat>
</trkpt>
<trkpt lat="60.914006667" lon="15.154063333">
<time>2014-07-06T12:33:22Z</time>
 <fix>none</fix>
 <sat>0</sat>
</trkpt>
<trkpt lat="60.913971667" lon="15.154038333">
<time>2014-07-06T12:33:23Z</time>
 <fix>none</fix>
 <sat>0</sat>
</trkpt>
<trkpt lat="60.913930000" lon="15.154026667">
<time>2014-07-06T12:33:24Z</time>
 <fix>none</fix>
 <sat>0</sat>
</trkpt>
<trkpt lat="60.913888333" lon="15.154015000">
<time>2014-07-06T12:33:25Z</time>
 <fix>none</fix>
 <sat>0</sat>
</trkpt>
<trkpt lat="60.913848333" lon="15.153990000">
<time>2014-07-06T12:33:26Z</time>
 <fix>none</fix>
 <sat>0</sat>
</trkpt>
<trkpt lat="60.913816667" lon="15.153965000">
<time>2014-07-06T12:33:27Z</time>
 <fix>none</fix>
 <sat>0</sat>
</trkpt>
<trkpt lat="60.913778333" lon="15.153926667">
<time>2014-07-06T12:33:28Z</time>
 <fix>none</fix>
 <sat>0</sat>
</trkpt>
<trkpt lat="60.913740000" lon="15.153875000">
<time>2014-07-06T12:33:29Z</time>
 <fix>none</fix>
 <sat>0</sat>
</trkpt>
<trkpt lat="60.913698333" lon="15.153823333">
<time>2014-07-06T12:33:30Z</time>
 <fix>none</fix>
 <sat>0</sat>
</trkpt>
<trkpt lat="60.913655000" lon="15.153758333">
<time>2014-07-06T12:33:31Z</time>
 <fix>none</fix>
 <sat>0</sat>
</trkpt>
<trkpt lat="60.913616667" lon="15.153690000">
<time>2014-07-06T12:33:32Z</time>
 <fix>none</fix>
 <sat>0</sat>
</trkpt>
<trkpt lat="60.913570000" lon="15.153605000">
<time>2014-07-06T12:33:33Z</time>
 <fix>none</fix>
 <sat>0</sat>
</trkpt>
<trkpt lat="60.913570000" lon="15.153605000">
<time>2014-07-06T12:33:34Z</time>
 <fix>none</fix>
 <sat>0</sat>
</trkpt>
<trkpt lat="60.913531667" lon="15.153510000">
<time>2014-07-06T12:33:35Z</time>
 <fix>none</fix>
 <sat>0</sat>
</trkpt>
<trkpt lat="60.913501667" lon="15.153398333">
<time>2014-07-06T12:33:36Z</time>
 <fix>none</fix>
 <sat>0</sat>
</trkpt>
<trkpt lat="60.913461667" lon="15.153295000">
<time>2014-07-06T12:33:37Z</time>
 <fix>none</fix>
 <sat>0</sat>
</trkpt>
<trkpt lat="60.913423333" lon="15.153233333">
<time>2014-07-06T12:33:38Z</time>
 <fix>none</fix>
 <sat>0</sat>
</trkpt>
<trkpt lat="60.913400000" lon="15.153230000">
<time>2014-07-06T12:33:39Z</time>
 <fix>none</fix>
 <sat>0</sat>
</trkpt>
<trkpt lat="60.913313333" lon="15.153193333">
<time>2014-07-06T12:33:40Z</time>
 <fix>none</fix>
 <sat>0</sat>
</trkpt>
<trkpt lat="60.913313333" lon="15.153193333">
<time>2014-07-06T12:33:41Z</time>
 <fix>none</fix>
 <sat>0</sat>
</trkpt>
<trkpt lat="60.913216667" lon="15.153165000">
<time>2014-07-06T12:33:42Z</time>
 <fix>none</fix>
 <sat>0</sat>
</trkpt>
<trkpt lat="60.913183333" lon="15.153151667">
<time>2014-07-06T12:33:43Z</time>
 <fix>none</fix>
 <sat>0</sat>
</trkpt>
<trkpt lat="60.913146667" lon="15.153121667">
<time>2014-07-06T12:33:44Z</time>
 <fix>none</fix>
 <sat>0</sat>
</trkpt>
<trkpt lat="60.913123333" lon="15.153083333">
<time>2014-07-06T12:33:45Z</time>
 <fix>none</fix>
 <sat>0</sat>
</trkpt>
<trkpt lat="60.913088333" lon="15.153078333">
<time>2014-07-06T12:33:46Z</time>
 <fix>none</fix>
 <sat>0</sat>
</trkpt>
<trkpt lat="60.913053333" lon="15.153043333">
<time>2014-07-06T12:33:47Z</time>
 <fix>none</fix>
 <sat>0</sat>
</trkpt>
<trkpt lat="60.913010000" lon="15.152991667">
<time>2014-07-06T12:33:48Z</time>
 <fix>none</fix>
 <sat>0</sat>
</trkpt>
<trkpt lat="60.912951667" lon="15.152933333">
<time>2014-07-06T12:33:49Z</time>
 <fix>none</fix>
 <sat>0</sat>
</trkpt>
<trkpt lat="60.912901667" lon="15.152886667">
<time>2014-07-06T12:33:50Z</time>
 <fix>none</fix>
 <sat>0</sat>
</trkpt>
<trkpt lat="60.912860000" lon="15.152851667">
<time>2014-07-06T12:33:51Z</time>
 <fix>none</fix>
 <sat>0</sat>
</trkpt>
<trkpt lat="60.912816667" lon="15.152820000">
<time>2014-07-06T12:33:52Z</time>
 <fix>none</fix>
 <sat>0</sat>
</trkpt>
<trkpt lat="60.912761667" lon="15.152790000">
<time>2014-07-06T12:33:53Z</time>
 <fix>none</fix>
 <sat>0</sat>
</trkpt>
<trkpt lat="60.912721667" lon="15.152738333">
<time>2014-07-06T12:33:54Z</time>
 <fix>none</fix>
 <sat>0</sat>
</trkpt>
<trkpt lat="60.912691667" lon="15.152675000">
<time>2014-07-06T12:33:55Z</time>
 <fix>none</fix>
 <sat>0</sat>
</trkpt>
<trkpt lat="60.912663333" lon="15.152603333">
<time>2014-07-06T12:33:56Z</time>
 <fix>none</fix>
 <sat>0</sat>
</trkpt>
<trkpt lat="60.912663333" lon="15.152603333">
<time>2014-07-06T12:33:57Z</time>
 <fix>none</fix>
 <sat>0</sat>
</trkpt>
<trkpt lat="60.912621667" lon="15.152491667">
<time>2014-07-06T12:33:58Z</time>
 <fix>none</fix>
 <sat>0</sat>
</trkpt>
<trkpt lat="60.912611667" lon="15.152363333">
<time>2014-07-06T12:33:59Z</time>
 <fix>none</fix>
 <sat>0</sat>
</trkpt>
<trkpt lat="60.912610000" lon="15.152228333">
<time>2014-07-06T12:34:00Z</time>
 <fix>none</fix>
 <sat>0</sat>
</trkpt>
<trkpt lat="60.912620000" lon="15.152100000">
<time>2014-07-06T12:34:01Z</time>
 <fix>none</fix>
 <sat>0</sat>
</trkpt>
<trkpt lat="60.912605000" lon="15.151803333">
<time>2014-07-06T12:34:02Z</time>
 <fix>none</fix>
 <sat>0</sat>
</trkpt>
<trkpt lat="60.912593333" lon="15.151693333">
<time>2014-07-06T12:34:03Z</time>
 <fix>none</fix>
 <sat>0</sat>
</trkpt>
<trkpt lat="60.912576667" lon="15.151551667">
<time>2014-07-06T12:34:04Z</time>
 <fix>none</fix>
 <sat>0</sat>
</trkpt>
<trkpt lat="60.912555000" lon="15.151415000">
<time>2014-07-06T12:34:05Z</time>
 <fix>none</fix>
 <sat>0</sat>
</trkpt>
<trkpt lat="60.912531667" lon="15.151321667">
<time>2014-07-06T12:34:06Z</time>
 <fix>none</fix>
 <sat>0</sat>
</trkpt>
<trkpt lat="60.912531667" lon="15.151321667">
<time>2014-07-06T12:34:07Z</time>
 <fix>none</fix>
 <sat>0</sat>
</trkpt>
<trkpt lat="60.912528333" lon="15.151033333">
<time>2014-07-06T12:34:08Z</time>
 <fix>none</fix>
 <sat>0</sat>
</trkpt>
<trkpt lat="60.912530000" lon="15.150880000">
<time>2014-07-06T12:34:09Z</time>
 <fix>none</fix>
 <sat>0</sat>
</trkpt>
<trkpt lat="60.912523333" lon="15.150738333">
<time>2014-07-06T12:34:10Z</time>
 <fix>none</fix>
 <sat>0</sat>
</trkpt>
<trkpt lat="60.912510000" lon="15.150588333">
<time>2014-07-06T12:34:11Z</time>
 <fix>none</fix>
 <sat>0</sat>
</trkpt>
<trkpt lat="60.912508333" lon="15.150446667">
<time>2014-07-06T12:34:12Z</time>
 <fix>none</fix>
 <sat>0</sat>
</trkpt>
<trkpt lat="60.912526667" lon="15.150325000">
<time>2014-07-06T12:34:13Z</time>
 <fix>none</fix>
 <sat>0</sat>
</trkpt>
<trkpt lat="60.912566667" lon="15.150215000">
<time>2014-07-06T12:34:14Z</time>
 <fix>none</fix>
 <sat>0</sat>
</trkpt>
<trkpt lat="60.912613333" lon="15.150095000">
<time>2014-07-06T12:34:15Z</time>
 <fix>none</fix>
 <sat>0</sat>
</trkpt>
<trkpt lat="60.912655000" lon="15.149961667">
<time>2014-07-06T12:34:16Z</time>
 <fix>none</fix>
 <sat>0</sat>
</trkpt>
<trkpt lat="60.912700000" lon="15.149823333">
<time>2014-07-06T12:34:17Z</time>
 <fix>none</fix>
 <sat>0</sat>
</trkpt>
<trkpt lat="60.912723333" lon="15.149633333">
<time>2014-07-06T12:34:18Z</time>
 <fix>none</fix>
 <sat>0</sat>
</trkpt>
<trkpt lat="60.912758333" lon="15.149451667">
<time>2014-07-06T12:34:19Z</time>
 <fix>none</fix>
 <sat>0</sat>
</trkpt>
<trkpt lat="60.912758333" lon="15.149451667">
<time>2014-07-06T12:34:20Z</time>
 <fix>none</fix>
 <sat>0</sat>
</trkpt>
<trkpt lat="60.912803333" lon="15.149273333">
<time>2014-07-06T12:34:21Z</time>
 <fix>none</fix>
 <sat>0</sat>
</trkpt>
<trkpt lat="60.912846667" lon="15.149106667">
<time>2014-07-06T12:34:22Z</time>
 <fix>none</fix>
 <sat>0</sat>
</trkpt>
<trkpt lat="60.912896667" lon="15.148950000">
<time>2014-07-06T12:34:23Z</time>
 <fix>none</fix>
 <sat>0</sat>
</trkpt>
<trkpt lat="60.912935000" lon="15.148796667">
<time>2014-07-06T12:34:24Z</time>
 <fix>none</fix>
 <sat>0</sat>
</trkpt>
<trkpt lat="60.912983333" lon="15.148518333">
<time>2014-07-06T12:34:25Z</time>
 <fix>none</fix>
 <sat>0</sat>
</trkpt>
<trkpt lat="60.912983333" lon="15.148518333">
<time>2014-07-06T12:34:26Z</time>
 <fix>none</fix>
 <sat>0</sat>
</trkpt>
<trkpt lat="60.912993333" lon="15.148381667">
<time>2014-07-06T12:34:27Z</time>
 <fix>none</fix>
 <sat>0</sat>
</trkpt>
<trkpt lat="60.912971667" lon="15.148068333">
<time>2014-07-06T12:34:28Z</time>
 <fix>none</fix>
 <sat>0</sat>
</trkpt>
<trkpt lat="60.912981667" lon="15.147978333">
<time>2014-07-06T12:34:29Z</time>
 <fix>none</fix>
 <sat>0</sat>
</trkpt>
<trkpt lat="60.912980000" lon="15.147880000">
<time>2014-07-06T12:34:30Z</time>
 <fix>none</fix>
 <sat>0</sat>
</trkpt>
<trkpt lat="60.912955000" lon="15.147781667">
<time>2014-07-06T12:34:31Z</time>
 <fix>none</fix>
 <sat>0</sat>
</trkpt>
<trkpt lat="60.912930000" lon="15.147708333">
<time>2014-07-06T12:34:32Z</time>
 <fix>none</fix>
 <sat>0</sat>
</trkpt>
<trkpt lat="60.912910000" lon="15.147650000">
<time>2014-07-06T12:34:33Z</time>
 <fix>none</fix>
 <sat>0</sat>
</trkpt>
<trkpt lat="60.912888333" lon="15.147595000">
<time>2014-07-06T12:34:34Z</time>
 <fix>none</fix>
 <sat>0</sat>
</trkpt>
<trkpt lat="60.912868333" lon="15.147540000">
<time>2014-07-06T12:34:35Z</time>
 <fix>none</fix>
 <sat>0</sat>
</trkpt>
<trkpt lat="60.912850000" lon="15.147478333">
<time>2014-07-06T12:34:36Z</time>
 <fix>none</fix>
 <sat>0</sat>
</trkpt>
<trkpt lat="60.912831667" lon="15.147411667">
<time>2014-07-06T12:34:37Z</time>
 <fix>none</fix>
 <sat>0</sat>
</trkpt>
<trkpt lat="60.912813333" lon="15.147348333">
<time>2014-07-06T12:34:38Z</time>
 <fix>none</fix>
 <sat>0</sat>
</trkpt>
<trkpt lat="60.912813333" lon="15.147348333">
<time>2014-07-06T12:34:39Z</time>
 <fix>none</fix>
 <sat>0</sat>
</trkpt>
<trkpt lat="60.912813333" lon="15.147348333">
<time>2014-07-06T12:34:40Z</time>
 <fix>none</fix>
 <sat>0</sat>
</trkpt>
<trkpt lat="60.912770000" lon="15.147126667">
<time>2014-07-06T12:34:41Z</time>
 <fix>none</fix>
 <sat>0</sat>
</trkpt>
<trkpt lat="60.912770000" lon="15.147126667">
<time>2014-07-06T12:34:42Z</time>
 <fix>none</fix>
 <sat>0</sat>
</trkpt>
<trkpt lat="60.912740000" lon="15.146996667">
<time>2014-07-06T12:34:43Z</time>
 <fix>none</fix>
 <sat>0</sat>
</trkpt>
<trkpt lat="60.912730000" lon="15.146988333">
<time>2014-07-06T12:34:44Z</time>
 <fix>none</fix>
 <sat>0</sat>
</trkpt>
<trkpt lat="60.912700000" lon="15.146926667">
<time>2014-07-06T12:34:45Z</time>
 <fix>none</fix>
 <sat>0</sat>
</trkpt>
<trkpt lat="60.912673333" lon="15.146830000">
<time>2014-07-06T12:34:46Z</time>
 <fix>none</fix>
 <sat>0</sat>
</trkpt>
<trkpt lat="60.912656667" lon="15.146720000">
<time>2014-07-06T12:34:47Z</time>
 <fix>none</fix>
 <sat>0</sat>
</trkpt>
<trkpt lat="60.912630000" lon="15.146473333">
<time>2014-07-06T12:34:48Z</time>
 <fix>none</fix>
 <sat>0</sat>
</trkpt>
<trkpt lat="60.912625000" lon="15.146366667">
<time>2014-07-06T12:34:49Z</time>
 <fix>none</fix>
 <sat>0</sat>
</trkpt>
<trkpt lat="60.912635000" lon="15.146293333">
<time>2014-07-06T12:34:50Z</time>
 <fix>none</fix>
 <sat>0</sat>
</trkpt>
<trkpt lat="60.912628333" lon="15.146271667">
<time>2014-07-06T12:34:51Z</time>
 <fix>none</fix>
 <sat>0</sat>
</trkpt>
<trkpt lat="60.912615000" lon="15.146263333">
<time>2014-07-06T12:34:52Z</time>
 <fix>none</fix>
 <sat>0</sat>
</trkpt>
<trkpt lat="60.912596667" lon="15.146196667">
<time>2014-07-06T12:34:53Z</time>
 <fix>none</fix>
 <sat>0</sat>
</trkpt>
<trkpt lat="60.912570000" lon="15.146108333">
<time>2014-07-06T12:34:54Z</time>
 <fix>none</fix>
 <sat>0</sat>
</trkpt>
<trkpt lat="60.912545000" lon="15.146021667">
<time>2014-07-06T12:34:55Z</time>
 <fix>none</fix>
 <sat>0</sat>
</trkpt>
<trkpt lat="60.912520000" lon="15.145935000">
<time>2014-07-06T12:34:56Z</time>
 <fix>none</fix>
 <sat>0</sat>
</trkpt>
<trkpt lat="60.912490000" lon="15.145838333">
<time>2014-07-06T12:34:57Z</time>
 <fix>none</fix>
 <sat>0</sat>
</trkpt>
<trkpt lat="60.912465000" lon="15.145778333">
<time>2014-07-06T12:34:58Z</time>
 <fix>none</fix>
 <sat>0</sat>
</trkpt>
<trkpt lat="60.912438333" lon="15.145720000">
<time>2014-07-06T12:34:59Z</time>
 <fix>none</fix>
 <sat>0</sat>
</trkpt>
<trkpt lat="60.912401667" lon="15.145650000">
<time>2014-07-06T12:35:00Z</time>
 <fix>none</fix>
 <sat>0</sat>
</trkpt>
<trkpt lat="60.912356667" lon="15.145591667">
<time>2014-07-06T12:35:01Z</time>
 <fix>none</fix>
 <sat>0</sat>
</trkpt>
<trkpt lat="60.912306667" lon="15.145546667">
<time>2014-07-06T12:35:02Z</time>
 <fix>none</fix>
 <sat>0</sat>
</trkpt>
<trkpt lat="60.912258333" lon="15.145501667">
<time>2014-07-06T12:35:03Z</time>
 <fix>none</fix>
 <sat>0</sat>
</trkpt>
<trkpt lat="60.912208333" lon="15.145473333">
<time>2014-07-06T12:35:04Z</time>
 <fix>none</fix>
 <sat>0</sat>
</trkpt>
<trkpt lat="60.912165000" lon="15.145441667">
<time>2014-07-06T12:35:05Z</time>
 <fix>none</fix>
 <sat>0</sat>
</trkpt>
<trkpt lat="60.912165000" lon="15.145441667">
<time>2014-07-06T12:35:06Z</time>
 <fix>none</fix>
 <sat>0</sat>
</trkpt>
<trkpt lat="60.912125000" lon="15.145418333">
<time>2014-07-06T12:35:07Z</time>
 <fix>none</fix>
 <sat>0</sat>
</trkpt>
<trkpt lat="60.912085000" lon="15.145403333">
<time>2014-07-06T12:35:08Z</time>
 <fix>none</fix>
 <sat>0</sat>
</trkpt>
<trkpt lat="60.912050000" lon="15.145388333">
<time>2014-07-06T12:35:09Z</time>
 <fix>none</fix>
 <sat>0</sat>
</trkpt>
<trkpt lat="60.912020000" lon="15.145383333">
<time>2014-07-06T12:35:10Z</time>
 <fix>none</fix>
 <sat>0</sat>
</trkpt>
<trkpt lat="60.911993333" lon="15.145385000">
<time>2014-07-06T12:35:11Z</time>
 <fix>none</fix>
 <sat>0</sat>
</trkpt>
<trkpt lat="60.911965000" lon="15.145385000">
<time>2014-07-06T12:35:12Z</time>
 <fix>none</fix>
 <sat>0</sat>
</trkpt>
<trkpt lat="60.911900000" lon="15.145393333">
<time>2014-07-06T12:35:13Z</time>
 <fix>none</fix>
 <sat>0</sat>
</trkpt>
<trkpt lat="60.911875000" lon="15.145415000">
<time>2014-07-06T12:35:14Z</time>
 <fix>none</fix>
 <sat>0</sat>
</trkpt>
<trkpt lat="60.911875000" lon="15.145415000">
<time>2014-07-06T12:35:15Z</time>
 <fix>none</fix>
 <sat>0</sat>
</trkpt>
<trkpt lat="60.911875000" lon="15.145415000">
<time>2014-07-06T12:35:16Z</time>
 <fix>none</fix>
 <sat>0</sat>
</trkpt>
<trkpt lat="60.911815000" lon="15.145446667">
<time>2014-07-06T12:35:17Z</time>
 <fix>none</fix>
 <sat>0</sat>
</trkpt>
<trkpt lat="60.911815000" lon="15.145446667">
<time>2014-07-06T12:35:18Z</time>
 <fix>none</fix>
 <sat>0</sat>
</trkpt>
<trkpt lat="60.911765000" lon="15.145441667">
<time>2014-07-06T12:35:19Z</time>
 <fix>none</fix>
 <sat>0</sat>
</trkpt>
<trkpt lat="60.911748333" lon="15.145443333">
<time>2014-07-06T12:35:20Z</time>
 <fix>none</fix>
 <sat>0</sat>
</trkpt>
<trkpt lat="60.911723333" lon="15.145433333">
<time>2014-07-06T12:35:21Z</time>
 <fix>none</fix>
 <sat>0</sat>
</trkpt>
<trkpt lat="60.911698333" lon="15.145400000">
<time>2014-07-06T12:35:22Z</time>
 <fix>none</fix>
 <sat>0</sat>
</trkpt>
<trkpt lat="60.911676667" lon="15.145378333">
<time>2014-07-06T12:35:23Z</time>
 <fix>none</fix>
 <sat>0</sat>
</trkpt>
<trkpt lat="60.911650000" lon="15.145366667">
<time>2014-07-06T12:35:24Z</time>
 <fix>none</fix>
 <sat>0</sat>
</trkpt>
<trkpt lat="60.911630000" lon="15.145335000">
<time>2014-07-06T12:35:25Z</time>
 <fix>none</fix>
 <sat>0</sat>
</trkpt>
<trkpt lat="60.911608333" lon="15.145283333">
<time>2014-07-06T12:35:26Z</time>
 <fix>none</fix>
 <sat>0</sat>
</trkpt>
<trkpt lat="60.911586667" lon="15.145221667">
<time>2014-07-06T12:35:27Z</time>
 <fix>none</fix>
 <sat>0</sat>
</trkpt>
<trkpt lat="60.911586667" lon="15.145221667">
<time>2014-07-06T12:35:28Z</time>
 <fix>none</fix>
 <sat>0</sat>
</trkpt>
<trkpt lat="60.911565000" lon="15.145153333">
<time>2014-07-06T12:35:29Z</time>
 <fix>none</fix>
 <sat>0</sat>
</trkpt>
<trkpt lat="60.911540000" lon="15.145083333">
<time>2014-07-06T12:35:30Z</time>
 <fix>none</fix>
 <sat>0</sat>
</trkpt>
<trkpt lat="60.911505000" lon="15.144996667">
<time>2014-07-06T12:35:31Z</time>
 <fix>none</fix>
 <sat>0</sat>
</trkpt>
<trkpt lat="60.911471667" lon="15.144893333">
<time>2014-07-06T12:35:32Z</time>
 <fix>none</fix>
 <sat>0</sat>
</trkpt>
<trkpt lat="60.911440000" lon="15.144776667">
<time>2014-07-06T12:35:33Z</time>
 <fix>none</fix>
 <sat>0</sat>
</trkpt>
<trkpt lat="60.911373333" lon="15.144558333">
<time>2014-07-06T12:35:34Z</time>
 <fix>none</fix>
 <sat>0</sat>
</trkpt>
<trkpt lat="60.911373333" lon="15.144558333">
<time>2014-07-06T12:35:35Z</time>
 <fix>none</fix>
 <sat>0</sat>
</trkpt>
<trkpt lat="60.911305000" lon="15.144353333">
<time>2014-07-06T12:35:36Z</time>
 <fix>none</fix>
 <sat>0</sat>
</trkpt>
<trkpt lat="60.911268333" lon="15.144258333">
<time>2014-07-06T12:35:37Z</time>
 <fix>none</fix>
 <sat>0</sat>
</trkpt>
<trkpt lat="60.911230000" lon="15.144178333">
<time>2014-07-06T12:35:38Z</time>
 <fix>none</fix>
 <sat>0</sat>
</trkpt>
<trkpt lat="60.911183333" lon="15.144095000">
<time>2014-07-06T12:35:39Z</time>
 <fix>none</fix>
 <sat>0</sat>
</trkpt>
<trkpt lat="60.911135000" lon="15.144035000">
<time>2014-07-06T12:35:40Z</time>
 <fix>none</fix>
 <sat>0</sat>
</trkpt>
<trkpt lat="60.911081667" lon="15.143966667">
<time>2014-07-06T12:35:41Z</time>
 <fix>none</fix>
 <sat>0</sat>
</trkpt>
<trkpt lat="60.911030000" lon="15.143886667">
<time>2014-07-06T12:35:42Z</time>
 <fix>none</fix>
 <sat>0</sat>
</trkpt>
<trkpt lat="60.910976667" lon="15.143823333">
<time>2014-07-06T12:35:43Z</time>
 <fix>none</fix>
 <sat>0</sat>
</trkpt>
<trkpt lat="60.910923333" lon="15.143735000">
<time>2014-07-06T12:35:44Z</time>
 <fix>none</fix>
 <sat>0</sat>
</trkpt>
<trkpt lat="60.910880000" lon="15.143636667">
<time>2014-07-06T12:35:45Z</time>
 <fix>none</fix>
 <sat>0</sat>
</trkpt>
<trkpt lat="60.910845000" lon="15.143523333">
<time>2014-07-06T12:35:46Z</time>
 <fix>none</fix>
 <sat>0</sat>
</trkpt>
<trkpt lat="60.910820000" lon="15.143416667">
<time>2014-07-06T12:35:47Z</time>
 <fix>none</fix>
 <sat>0</sat>
</trkpt>
<trkpt lat="60.910796667" lon="15.143315000">
<time>2014-07-06T12:35:48Z</time>
 <fix>none</fix>
 <sat>0</sat>
</trkpt>
<trkpt lat="60.910776667" lon="15.143220000">
<time>2014-07-06T12:35:49Z</time>
 <fix>none</fix>
 <sat>0</sat>
</trkpt>
<trkpt lat="60.910745000" lon="15.143106667">
<time>2014-07-06T12:35:50Z</time>
 <fix>none</fix>
 <sat>0</sat>
</trkpt>
<trkpt lat="60.910745000" lon="15.143106667">
<time>2014-07-06T12:35:51Z</time>
 <fix>none</fix>
 <sat>0</sat>
</trkpt>
<trkpt lat="60.910718333" lon="15.142996667">
<time>2014-07-06T12:35:52Z</time>
 <fix>none</fix>
 <sat>0</sat>
</trkpt>
<trkpt lat="60.910698333" lon="15.142905000">
<time>2014-07-06T12:35:53Z</time>
 <fix>none</fix>
 <sat>0</sat>
</trkpt>
<trkpt lat="60.910666667" lon="15.142830000">
<time>2014-07-06T12:35:54Z</time>
 <fix>none</fix>
 <sat>0</sat>
</trkpt>
<trkpt lat="60.910633333" lon="15.142753333">
<time>2014-07-06T12:35:55Z</time>
 <fix>none</fix>
 <sat>0</sat>
</trkpt>
<trkpt lat="60.910603333" lon="15.142658333">
<time>2014-07-06T12:35:56Z</time>
 <fix>none</fix>
 <sat>0</sat>
</trkpt>
<trkpt lat="60.910533333" lon="15.142473333">
<time>2014-07-06T12:35:57Z</time>
 <fix>none</fix>
 <sat>0</sat>
</trkpt>
<trkpt lat="60.910533333" lon="15.142473333">
<time>2014-07-06T12:35:58Z</time>
 <fix>none</fix>
 <sat>0</sat>
</trkpt>
<trkpt lat="60.910448333" lon="15.142320000">
<time>2014-07-06T12:35:59Z</time>
 <fix>none</fix>
 <sat>0</sat>
</trkpt>
<trkpt lat="60.910408333" lon="15.142283333">
<time>2014-07-06T12:36:00Z</time>
 <fix>none</fix>
 <sat>0</sat>
</trkpt>
<trkpt lat="60.910346667" lon="15.142293333">
<time>2014-07-06T12:36:01Z</time>
 <fix>none</fix>
 <sat>0</sat>
</trkpt>
<trkpt lat="60.910280000" lon="15.142281667">
<time>2014-07-06T12:36:02Z</time>
 <fix>none</fix>
 <sat>0</sat>
</trkpt>
<trkpt lat="60.910221667" lon="15.142291667">
<time>2014-07-06T12:36:03Z</time>
 <fix>none</fix>
 <sat>0</sat>
</trkpt>
<trkpt lat="60.910163333" lon="15.142271667">
<time>2014-07-06T12:36:04Z</time>
 <fix>none</fix>
 <sat>0</sat>
</trkpt>
<trkpt lat="60.910106667" lon="15.142225000">
<time>2014-07-06T12:36:05Z</time>
 <fix>none</fix>
 <sat>0</sat>
</trkpt>
<trkpt lat="60.910045000" lon="15.142146667">
<time>2014-07-06T12:36:06Z</time>
 <fix>none</fix>
 <sat>0</sat>
</trkpt>
<trkpt lat="60.909993333" lon="15.142053333">
<time>2014-07-06T12:36:07Z</time>
 <fix>none</fix>
 <sat>0</sat>
</trkpt>
<trkpt lat="60.909946667" lon="15.141958333">
<time>2014-07-06T12:36:08Z</time>
 <fix>none</fix>
 <sat>0</sat>
</trkpt>
<trkpt lat="60.909913333" lon="15.141841667">
<time>2014-07-06T12:36:09Z</time>
 <fix>none</fix>
 <sat>0</sat>
</trkpt>
<trkpt lat="60.909878333" lon="15.141716667">
<time>2014-07-06T12:36:10Z</time>
 <fix>none</fix>
 <sat>0</sat>
</trkpt>
<trkpt lat="60.909850000" lon="15.141581667">
<time>2014-07-06T12:36:11Z</time>
 <fix>none</fix>
 <sat>0</sat>
</trkpt>
<trkpt lat="60.909831667" lon="15.141445000">
<time>2014-07-06T12:36:12Z</time>
 <fix>none</fix>
 <sat>0</sat>
</trkpt>
<trkpt lat="60.909836667" lon="15.141346667">
<time>2014-07-06T12:36:13Z</time>
 <fix>none</fix>
 <sat>0</sat>
</trkpt>
<trkpt lat="60.909836667" lon="15.141346667">
<time>2014-07-06T12:36:14Z</time>
 <fix>none</fix>
 <sat>0</sat>
</trkpt>
<trkpt lat="60.909846667" lon="15.141268333">
<time>2014-07-06T12:36:15Z</time>
 <fix>none</fix>
 <sat>0</sat>
</trkpt>
<trkpt lat="60.909828333" lon="15.141128333">
<time>2014-07-06T12:36:16Z</time>
 <fix>none</fix>
 <sat>0</sat>
</trkpt>
<trkpt lat="60.909830000" lon="15.140993333">
<time>2014-07-06T12:36:17Z</time>
 <fix>none</fix>
 <sat>0</sat>
</trkpt>
<trkpt lat="60.909833333" lon="15.140875000">
<time>2014-07-06T12:36:18Z</time>
 <fix>none</fix>
 <sat>0</sat>
</trkpt>
<trkpt lat="60.909861667" lon="15.140625000">
<time>2014-07-06T12:36:19Z</time>
 <fix>none</fix>
 <sat>0</sat>
</trkpt>
<trkpt lat="60.909861667" lon="15.140625000">
<time>2014-07-06T12:36:20Z</time>
 <fix>none</fix>
 <sat>0</sat>
</trkpt>
<trkpt lat="60.909870000" lon="15.140553333">
<time>2014-07-06T12:36:21Z</time>
 <fix>none</fix>
 <sat>0</sat>
</trkpt>
<trkpt lat="60.909833333" lon="15.140541667">
<time>2014-07-06T12:36:22Z</time>
 <fix>none</fix>
 <sat>0</sat>
</trkpt>
<trkpt lat="60.909795000" lon="15.140573333">
<time>2014-07-06T12:36:23Z</time>
 <fix>none</fix>
 <sat>0</sat>
</trkpt>
<trkpt lat="60.909738333" lon="15.140636667">
<time>2014-07-06T12:36:24Z</time>
 <fix>none</fix>
 <sat>0</sat>
</trkpt>
<trkpt lat="60.909673333" lon="15.140741667">
<time>2014-07-06T12:36:25Z</time>
 <fix>none</fix>
 <sat>0</sat>
</trkpt>
<trkpt lat="60.909611667" lon="15.140850000">
<time>2014-07-06T12:36:26Z</time>
 <fix>none</fix>
 <sat>0</sat>
</trkpt>
<trkpt lat="60.909551667" lon="15.140930000">
<time>2014-07-06T12:36:27Z</time>
 <fix>none</fix>
 <sat>0</sat>
</trkpt>
<trkpt lat="60.909495000" lon="15.141023333">
<time>2014-07-06T12:36:28Z</time>
 <fix>none</fix>
 <sat>0</sat>
</trkpt>
<trkpt lat="60.909435000" lon="15.141103333">
<time>2014-07-06T12:36:29Z</time>
 <fix>none</fix>
 <sat>0</sat>
</trkpt>
<trkpt lat="60.909363333" lon="15.141155000">
<time>2014-07-06T12:36:30Z</time>
 <fix>none</fix>
 <sat>0</sat>
</trkpt>
<trkpt lat="60.909280000" lon="15.141203333">
<time>2014-07-06T12:36:31Z</time>
 <fix>none</fix>
 <sat>0</sat>
</trkpt>
<trkpt lat="60.909205000" lon="15.141263333">
<time>2014-07-06T12:36:32Z</time>
 <fix>none</fix>
 <sat>0</sat>
</trkpt>
<trkpt lat="60.909135000" lon="15.141325000">
<time>2014-07-06T12:36:33Z</time>
 <fix>none</fix>
 <sat>0</sat>
</trkpt>
<trkpt lat="60.909051667" lon="15.141405000">
<time>2014-07-06T12:36:34Z</time>
 <fix>none</fix>
 <sat>0</sat>
</trkpt>
<trkpt lat="60.908963333" lon="15.141481667">
<time>2014-07-06T12:36:35Z</time>
 <fix>none</fix>
 <sat>0</sat>
</trkpt>
<trkpt lat="60.908893333" lon="15.141608333">
<time>2014-07-06T12:36:36Z</time>
 <fix>none</fix>
 <sat>0</sat>
</trkpt>
<trkpt lat="60.908893333" lon="15.141608333">
<time>2014-07-06T12:36:37Z</time>
 <fix>none</fix>
 <sat>0</sat>
</trkpt>
<trkpt lat="60.908820000" lon="15.141766667">
<time>2014-07-06T12:36:38Z</time>
 <fix>none</fix>
 <sat>0</sat>
</trkpt>
<trkpt lat="60.908736667" lon="15.141966667">
<time>2014-07-06T12:36:39Z</time>
 <fix>none</fix>
 <sat>0</sat>
</trkpt>
<trkpt lat="60.908646667" lon="15.142131667">
<time>2014-07-06T12:36:40Z</time>
 <fix>none</fix>
 <sat>0</sat>
</trkpt>
<trkpt lat="60.908546667" lon="15.142283333">
<time>2014-07-06T12:36:41Z</time>
 <fix>none</fix>
 <sat>0</sat>
</trkpt>
<trkpt lat="60.908270000" lon="15.142395000">
<time>2014-07-06T12:36:42Z</time>
 <fix>none</fix>
 <sat>0</sat>
</trkpt>
<trkpt lat="60.908128333" lon="15.142406667">
<time>2014-07-06T12:36:43Z</time>
 <fix>none</fix>
 <sat>0</sat>
</trkpt>
<trkpt lat="60.908128333" lon="15.142406667">
<time>2014-07-06T12:36:44Z</time>
 <fix>none</fix>
 <sat>0</sat>
</trkpt>
<trkpt lat="60.907931667" lon="15.142231667">
<time>2014-07-06T12:36:45Z</time>
 <fix>none</fix>
 <sat>0</sat>
</trkpt>
<trkpt lat="60.907931667" lon="15.142231667">
<time>2014-07-06T12:36:46Z</time>
 <fix>none</fix>
 <sat>0</sat>
</trkpt>
<trkpt lat="60.907793333" lon="15.142005000">
<time>2014-07-06T12:36:47Z</time>
 <fix>none</fix>
 <sat>0</sat>
</trkpt>
<trkpt lat="60.907770000" lon="15.141881667">
<time>2014-07-06T12:36:48Z</time>
 <fix>none</fix>
 <sat>0</sat>
</trkpt>
<trkpt lat="60.907703333" lon="15.141765000">
<time>2014-07-06T12:36:49Z</time>
 <fix>none</fix>
 <sat>0</sat>
</trkpt>
<trkpt lat="60.907650000" lon="15.141686667">
<time>2014-07-06T12:36:50Z</time>
 <fix>none</fix>
 <sat>0</sat>
</trkpt>
<trkpt lat="60.907593333" lon="15.141625000">
<time>2014-07-06T12:36:51Z</time>
 <fix>none</fix>
 <sat>0</sat>
</trkpt>
<trkpt lat="60.907528333" lon="15.141576667">
<time>2014-07-06T12:36:52Z</time>
 <fix>none</fix>
 <sat>0</sat>
</trkpt>
<trkpt lat="60.907466667" lon="15.141555000">
<time>2014-07-06T12:36:53Z</time>
 <fix>none</fix>
 <sat>0</sat>
</trkpt>
<trkpt lat="60.907423333" lon="15.141603333">
<time>2014-07-06T12:36:54Z</time>
 <fix>none</fix>
 <sat>0</sat>
</trkpt>
<trkpt lat="60.907381667" lon="15.141743333">
<time>2014-07-06T12:36:55Z</time>
 <fix>none</fix>
 <sat>0</sat>
</trkpt>
<trkpt lat="60.907323333" lon="15.141881667">
<time>2014-07-06T12:36:56Z</time>
 <fix>none</fix>
 <sat>0</sat>
</trkpt>
<trkpt lat="60.907271667" lon="15.142063333">
<time>2014-07-06T12:36:57Z</time>
 <fix>none</fix>
 <sat>0</sat>
</trkpt>
<trkpt lat="60.907218333" lon="15.142183333">
<time>2014-07-06T12:36:58Z</time>
 <fix>none</fix>
 <sat>0</sat>
</trkpt>
<trkpt lat="60.907158333" lon="15.142281667">
<time>2014-07-06T12:36:59Z</time>
 <fix>none</fix>
 <sat>0</sat>
</trkpt>
<trkpt lat="60.907158333" lon="15.142281667">
<time>2014-07-06T12:37:00Z</time>
 <fix>none</fix>
 <sat>0</sat>
</trkpt>
<trkpt lat="60.907101667" lon="15.142358333">
<time>2014-07-06T12:37:01Z</time>
 <fix>none</fix>
 <sat>0</sat>
</trkpt>
<trkpt lat="60.907016667" lon="15.142403333">
<time>2014-07-06T12:37:02Z</time>
 <fix>none</fix>
 <sat>0</sat>
</trkpt>
<trkpt lat="60.906921667" lon="15.142415000">
<time>2014-07-06T12:37:03Z</time>
 <fix>none</fix>
 <sat>0</sat>
</trkpt>
<trkpt lat="60.906818333" lon="15.142386667">
<time>2014-07-06T12:37:04Z</time>
 <fix>none</fix>
 <sat>0</sat>
</trkpt>
<trkpt lat="60.906633333" lon="15.142326667">
<time>2014-07-06T12:37:05Z</time>
 <fix>none</fix>
 <sat>0</sat>
</trkpt>
<trkpt lat="60.906633333" lon="15.142326667">
<time>2014-07-06T12:37:06Z</time>
 <fix>none</fix>
 <sat>0</sat>
</trkpt>
<trkpt lat="60.906525000" lon="15.142110000">
<time>2014-07-06T12:37:07Z</time>
 <fix>none</fix>
 <sat>0</sat>
</trkpt>
<trkpt lat="60.906490000" lon="15.141973333">
<time>2014-07-06T12:37:08Z</time>
 <fix>none</fix>
 <sat>0</sat>
</trkpt>
<trkpt lat="60.906453333" lon="15.141863333">
<time>2014-07-06T12:37:09Z</time>
 <fix>none</fix>
 <sat>0</sat>
</trkpt>
<trkpt lat="60.906411667" lon="15.141778333">
<time>2014-07-06T12:37:10Z</time>
 <fix>none</fix>
 <sat>0</sat>
</trkpt>
<trkpt lat="60.906366667" lon="15.141665000">
<time>2014-07-06T12:37:11Z</time>
 <fix>none</fix>
 <sat>0</sat>
</trkpt>
<trkpt lat="60.906316667" lon="15.141615000">
<time>2014-07-06T12:37:12Z</time>
 <fix>none</fix>
 <sat>0</sat>
</trkpt>
<trkpt lat="60.906268333" lon="15.141580000">
<time>2014-07-06T12:37:13Z</time>
 <fix>none</fix>
 <sat>0</sat>
</trkpt>
<trkpt lat="60.906193333" lon="15.141546667">
<time>2014-07-06T12:37:14Z</time>
 <fix>none</fix>
 <sat>0</sat>
</trkpt>
<trkpt lat="60.906130000" lon="15.141473333">
<time>2014-07-06T12:37:15Z</time>
 <fix>none</fix>
 <sat>0</sat>
</trkpt>
<trkpt lat="60.906066667" lon="15.141416667">
<time>2014-07-06T12:37:16Z</time>
 <fix>none</fix>
 <sat>0</sat>
</trkpt>
<trkpt lat="60.906008333" lon="15.141413333">
<time>2014-07-06T12:37:17Z</time>
 <fix>none</fix>
 <sat>0</sat>
</trkpt>
<trkpt lat="60.905973333" lon="15.141460000">
<time>2014-07-06T12:37:18Z</time>
 <fix>none</fix>
 <sat>0</sat>
</trkpt>
<trkpt lat="60.905946667" lon="15.141501667">
<time>2014-07-06T12:37:19Z</time>
 <fix>none</fix>
 <sat>0</sat>
</trkpt>
<trkpt lat="60.905910000" lon="15.141585000">
<time>2014-07-06T12:37:20Z</time>
 <fix>none</fix>
 <sat>0</sat>
</trkpt>
<trkpt lat="60.905858333" lon="15.141658333">
<time>2014-07-06T12:37:21Z</time>
 <fix>none</fix>
 <sat>0</sat>
</trkpt>
<trkpt lat="60.905821667" lon="15.141736667">
<time>2014-07-06T12:37:22Z</time>
 <fix>none</fix>
 <sat>0</sat>
</trkpt>
<trkpt lat="60.905821667" lon="15.141736667">
<time>2014-07-06T12:37:23Z</time>
 <fix>none</fix>
 <sat>0</sat>
</trkpt>
<trkpt lat="60.905783333" lon="15.141821667">
<time>2014-07-06T12:37:24Z</time>
 <fix>none</fix>
 <sat>0</sat>
</trkpt>
<trkpt lat="60.905755000" lon="15.141926667">
<time>2014-07-06T12:37:25Z</time>
 <fix>none</fix>
 <sat>0</sat>
</trkpt>
<trkpt lat="60.905718333" lon="15.142041667">
<time>2014-07-06T12:37:26Z</time>
 <fix>none</fix>
 <sat>0</sat>
</trkpt>
<trkpt lat="60.905680000" lon="15.142151667">
<time>2014-07-06T12:37:27Z</time>
 <fix>none</fix>
 <sat>0</sat>
</trkpt>
<trkpt lat="60.905633333" lon="15.142255000">
<time>2014-07-06T12:37:28Z</time>
 <fix>none</fix>
 <sat>0</sat>
</trkpt>
<trkpt lat="60.905586667" lon="15.142345000">
<time>2014-07-06T12:37:29Z</time>
 <fix>none</fix>
 <sat>0</sat>
</trkpt>
<trkpt lat="60.905506667" lon="15.142523333">
<time>2014-07-06T12:37:30Z</time>
 <fix>none</fix>
 <sat>0</sat>
</trkpt>
<trkpt lat="60.905465000" lon="15.142591667">
<time>2014-07-06T12:37:31Z</time>
 <fix>none</fix>
 <sat>0</sat>
</trkpt>
<trkpt lat="60.905426667" lon="15.142656667">
<time>2014-07-06T12:37:32Z</time>
 <fix>none</fix>
 <sat>0</sat>
</trkpt>
<trkpt lat="60.905400000" lon="15.142718333">
<time>2014-07-06T12:37:33Z</time>
 <fix>none</fix>
 <sat>0</sat>
</trkpt>
<trkpt lat="60.905365000" lon="15.142765000">
<time>2014-07-06T12:37:34Z</time>
 <fix>none</fix>
 <sat>0</sat>
</trkpt>
<trkpt lat="60.905348333" lon="15.142815000">
<time>2014-07-06T12:37:35Z</time>
 <fix>none</fix>
 <sat>0</sat>
</trkpt>
<trkpt lat="60.905346667" lon="15.142885000">
<time>2014-07-06T12:37:36Z</time>
 <fix>none</fix>
 <sat>0</sat>
</trkpt>
<trkpt lat="60.905348333" lon="15.142963333">
<time>2014-07-06T12:37:37Z</time>
 <fix>none</fix>
 <sat>0</sat>
</trkpt>
<trkpt lat="60.905338333" lon="15.143043333">
<time>2014-07-06T12:37:38Z</time>
 <fix>none</fix>
 <sat>0</sat>
</trkpt>
<trkpt lat="60.905353333" lon="15.143100000">
<time>2014-07-06T12:37:39Z</time>
 <fix>none</fix>
 <sat>0</sat>
</trkpt>
<trkpt lat="60.905348333" lon="15.143126667">
<time>2014-07-06T12:37:40Z</time>
 <fix>none</fix>
 <sat>0</sat>
</trkpt>
<trkpt lat="60.905326667" lon="15.143160000">
<time>2014-07-06T12:37:41Z</time>
 <fix>none</fix>
 <sat>0</sat>
</trkpt>
<trkpt lat="60.905293333" lon="15.143170000">
<time>2014-07-06T12:37:42Z</time>
 <fix>none</fix>
 <sat>0</sat>
</trkpt>
<trkpt lat="60.905256667" lon="15.143190000">
<time>2014-07-06T12:37:43Z</time>
 <fix>none</fix>
 <sat>0</sat>
</trkpt>
<trkpt lat="60.905233333" lon="15.143221667">
<time>2014-07-06T12:37:44Z</time>
 <fix>none</fix>
 <sat>0</sat>
</trkpt>
<trkpt lat="60.905233333" lon="15.143221667">
<time>2014-07-06T12:37:45Z</time>
 <fix>none</fix>
 <sat>0</sat>
</trkpt>
<trkpt lat="60.905205000" lon="15.143251667">
<time>2014-07-06T12:37:46Z</time>
 <fix>none</fix>
 <sat>0</sat>
</trkpt>
<trkpt lat="60.905180000" lon="15.143308333">
<time>2014-07-06T12:37:47Z</time>
 <fix>none</fix>
 <sat>0</sat>
</trkpt>
<trkpt lat="60.905180000" lon="15.143401667">
<time>2014-07-06T12:37:48Z</time>
 <fix>none</fix>
 <sat>0</sat>
</trkpt>
<trkpt lat="60.905151667" lon="15.143456667">
<time>2014-07-06T12:37:49Z</time>
 <fix>none</fix>
 <sat>0</sat>
</trkpt>
<trkpt lat="60.905120000" lon="15.143498333">
<time>2014-07-06T12:37:50Z</time>
 <fix>none</fix>
 <sat>0</sat>
</trkpt>
<trkpt lat="60.905078333" lon="15.143511667">
<time>2014-07-06T12:37:51Z</time>
 <fix>none</fix>
 <sat>0</sat>
</trkpt>
<trkpt lat="60.905041667" lon="15.143430000">
<time>2014-07-06T12:37:52Z</time>
 <fix>none</fix>
 <sat>0</sat>
</trkpt>
<trkpt lat="60.905031667" lon="15.143338333">
<time>2014-07-06T12:37:53Z</time>
 <fix>none</fix>
 <sat>0</sat>
</trkpt>
<trkpt lat="60.905040000" lon="15.143285000">
<time>2014-07-06T12:37:54Z</time>
 <fix>none</fix>
 <sat>0</sat>
</trkpt>
<trkpt lat="60.905043333" lon="15.143256667">
<time>2014-07-06T12:37:55Z</time>
 <fix>none</fix>
 <sat>0</sat>
</trkpt>
<trkpt lat="60.905051667" lon="15.143231667">
<time>2014-07-06T12:37:56Z</time>
 <fix>none</fix>
 <sat>0</sat>
</trkpt>
<trkpt lat="60.905051667" lon="15.143231667">
<time>2014-07-06T12:37:57Z</time>
 <fix>none</fix>
 <sat>0</sat>
</trkpt>
<trkpt lat="60.905025000" lon="15.143220000">
<time>2014-07-06T12:37:58Z</time>
 <fix>none</fix>
 <sat>0</sat>
</trkpt>
<trkpt lat="60.904991667" lon="15.143208333">
<time>2014-07-06T12:37:59Z</time>
 <fix>none</fix>
 <sat>0</sat>
</trkpt>
<trkpt lat="60.904976667" lon="15.143191667">
<time>2014-07-06T12:38:00Z</time>
 <fix>none</fix>
 <sat>0</sat>
</trkpt>
<trkpt lat="60.904951667" lon="15.143125000">
<time>2014-07-06T12:38:01Z</time>
 <fix>none</fix>
 <sat>0</sat>
</trkpt>
<trkpt lat="60.904946667" lon="15.143080000">
<time>2014-07-06T12:38:02Z</time>
 <fix>none</fix>
 <sat>0</sat>
</trkpt>
<trkpt lat="60.904945000" lon="15.143005000">
<time>2014-07-06T12:38:03Z</time>
 <fix>none</fix>
 <sat>0</sat>
</trkpt>
<trkpt lat="60.904925000" lon="15.142893333">
<time>2014-07-06T12:38:04Z</time>
 <fix>none</fix>
 <sat>0</sat>
</trkpt>
<trkpt lat="60.904880000" lon="15.142790000">
<time>2014-07-06T12:38:05Z</time>
 <fix>none</fix>
 <sat>0</sat>
</trkpt>
<trkpt lat="60.904823333" lon="15.142715000">
<time>2014-07-06T12:38:06Z</time>
 <fix>none</fix>
 <sat>0</sat>
</trkpt>
<trkpt lat="60.904766667" lon="15.142660000">
<time>2014-07-06T12:38:07Z</time>
 <fix>none</fix>
 <sat>0</sat>
</trkpt>
<trkpt lat="60.904766667" lon="15.142660000">
<time>2014-07-06T12:38:08Z</time>
 <fix>none</fix>
 <sat>0</sat>
</trkpt>
<trkpt lat="60.904695000" lon="15.142618333">
<time>2014-07-06T12:38:09Z</time>
 <fix>none</fix>
 <sat>0</sat>
</trkpt>
<trkpt lat="60.904613333" lon="15.142556667">
<time>2014-07-06T12:38:10Z</time>
 <fix>none</fix>
 <sat>0</sat>
</trkpt>
<trkpt lat="60.904550000" lon="15.142510000">
<time>2014-07-06T12:38:11Z</time>
 <fix>none</fix>
 <sat>0</sat>
</trkpt>
<trkpt lat="60.904521667" lon="15.142503333">
<time>2014-07-06T12:38:12Z</time>
 <fix>none</fix>
 <sat>0</sat>
</trkpt>
<trkpt lat="60.904496667" lon="15.142455000">
<time>2014-07-06T12:38:13Z</time>
 <fix>none</fix>
 <sat>0</sat>
</trkpt>
<trkpt lat="60.904438333" lon="15.142176667">
<time>2014-07-06T12:38:14Z</time>
 <fix>none</fix>
 <sat>0</sat>
</trkpt>
<trkpt lat="60.904438333" lon="15.142176667">
<time>2014-07-06T12:38:15Z</time>
 <fix>none</fix>
 <sat>0</sat>
</trkpt>
<trkpt lat="60.904385000" lon="15.141931667">
<time>2014-07-06T12:38:16Z</time>
 <fix>none</fix>
 <sat>0</sat>
</trkpt>
<trkpt lat="60.904366667" lon="15.141845000">
<time>2014-07-06T12:38:17Z</time>
 <fix>none</fix>
 <sat>0</sat>
</trkpt>
<trkpt lat="60.904360000" lon="15.141790000">
<time>2014-07-06T12:38:18Z</time>
 <fix>none</fix>
 <sat>0</sat>
</trkpt>
<trkpt lat="60.904330000" lon="15.141725000">
<time>2014-07-06T12:38:19Z</time>
 <fix>none</fix>
 <sat>0</sat>
</trkpt>
<trkpt lat="60.904308333" lon="15.141675000">
<time>2014-07-06T12:38:20Z</time>
 <fix>none</fix>
 <sat>0</sat>
</trkpt>
<trkpt lat="60.904271667" lon="15.141596667">
<time>2014-07-06T12:38:21Z</time>
 <fix>none</fix>
 <sat>0</sat>
</trkpt>
<trkpt lat="60.904245000" lon="15.141520000">
<time>2014-07-06T12:38:22Z</time>
 <fix>none</fix>
 <sat>0</sat>
</trkpt>
<trkpt lat="60.904216667" lon="15.141458333">
<time>2014-07-06T12:38:23Z</time>
 <fix>none</fix>
 <sat>0</sat>
</trkpt>
<trkpt lat="60.904186667" lon="15.141383333">
<time>2014-07-06T12:38:24Z</time>
 <fix>none</fix>
 <sat>0</sat>
</trkpt>
<trkpt lat="60.904173333" lon="15.141353333">
<time>2014-07-06T12:38:25Z</time>
 <fix>none</fix>
 <sat>0</sat>
</trkpt>
<trkpt lat="60.904186667" lon="15.141381667">
<time>2014-07-06T12:38:26Z</time>
 <fix>none</fix>
 <sat>0</sat>
</trkpt>
<trkpt lat="60.904193333" lon="15.141416667">
<time>2014-07-06T12:38:27Z</time>
 <fix>none</fix>
 <sat>0</sat>
</trkpt>
<trkpt lat="60.904158333" lon="15.141465000">
<time>2014-07-06T12:38:28Z</time>
 <fix>none</fix>
 <sat>0</sat>
</trkpt>
<trkpt lat="60.904088333" lon="15.141540000">
<time>2014-07-06T12:38:29Z</time>
 <fix>none</fix>
 <sat>0</sat>
</trkpt>
<trkpt lat="60.904013333" lon="15.141643333">
<time>2014-07-06T12:38:30Z</time>
 <fix>none</fix>
 <sat>0</sat>
</trkpt>
<trkpt lat="60.904013333" lon="15.141643333">
<time>2014-07-06T12:38:31Z</time>
 <fix>none</fix>
 <sat>0</sat>
</trkpt>
<trkpt lat="60.903965000" lon="15.141731667">
<time>2014-07-06T12:38:32Z</time>
 <fix>none</fix>
 <sat>0</sat>
</trkpt>
<trkpt lat="60.903930000" lon="15.141825000">
<time>2014-07-06T12:38:33Z</time>
 <fix>none</fix>
 <sat>0</sat>
</trkpt>
<trkpt lat="60.903910000" lon="15.141925000">
<time>2014-07-06T12:38:34Z</time>
 <fix>none</fix>
 <sat>0</sat>
</trkpt>
<trkpt lat="60.903880000" lon="15.142011667">
<time>2014-07-06T12:38:35Z</time>
 <fix>none</fix>
 <sat>0</sat>
</trkpt>
<trkpt lat="60.903840000" lon="15.142083333">
<time>2014-07-06T12:38:36Z</time>
 <fix>none</fix>
 <sat>0</sat>
</trkpt>
<trkpt lat="60.903791667" lon="15.142255000">
<time>2014-07-06T12:38:37Z</time>
 <fix>none</fix>
 <sat>0</sat>
</trkpt>
<trkpt lat="60.903791667" lon="15.142255000">
<time>2014-07-06T12:38:38Z</time>
 <fix>none</fix>
 <sat>0</sat>
</trkpt>
<trkpt lat="60.903725000" lon="15.142336667">
<time>2014-07-06T12:38:39Z</time>
 <fix>none</fix>
 <sat>0</sat>
</trkpt>
<trkpt lat="60.903686667" lon="15.142366667">
<time>2014-07-06T12:38:40Z</time>
 <fix>none</fix>
 <sat>0</sat>
</trkpt>
<trkpt lat="60.903640000" lon="15.142355000">
<time>2014-07-06T12:38:41Z</time>
 <fix>none</fix>
 <sat>0</sat>
</trkpt>
<trkpt lat="60.903601667" lon="15.142356667">
<time>2014-07-06T12:38:42Z</time>
 <fix>none</fix>
 <sat>0</sat>
</trkpt>
<trkpt lat="60.903570000" lon="15.142370000">
<time>2014-07-06T12:38:43Z</time>
 <fix>none</fix>
 <sat>0</sat>
</trkpt>
<trkpt lat="60.903536667" lon="15.142358333">
<time>2014-07-06T12:38:44Z</time>
 <fix>none</fix>
 <sat>0</sat>
</trkpt>
<trkpt lat="60.903483333" lon="15.142331667">
<time>2014-07-06T12:38:45Z</time>
 <fix>none</fix>
 <sat>0</sat>
</trkpt>
<trkpt lat="60.903420000" lon="15.142295000">
<time>2014-07-06T12:38:46Z</time>
 <fix>none</fix>
 <sat>0</sat>
</trkpt>
<trkpt lat="60.903368333" lon="15.142278333">
<time>2014-07-06T12:38:47Z</time>
 <fix>none</fix>
 <sat>0</sat>
</trkpt>
<trkpt lat="60.903320000" lon="15.142240000">
<time>2014-07-06T12:38:48Z</time>
 <fix>none</fix>
 <sat>0</sat>
</trkpt>
<trkpt lat="60.903271667" lon="15.142195000">
<time>2014-07-06T12:38:49Z</time>
 <fix>none</fix>
 <sat>0</sat>
</trkpt>
<trkpt lat="60.903225000" lon="15.142158333">
<time>2014-07-06T12:38:50Z</time>
 <fix>none</fix>
 <sat>0</sat>
</trkpt>
<trkpt lat="60.903190000" lon="15.142153333">
<time>2014-07-06T12:38:51Z</time>
 <fix>none</fix>
 <sat>0</sat>
</trkpt>
<trkpt lat="60.903160000" lon="15.142121667">
<time>2014-07-06T12:38:52Z</time>
 <fix>none</fix>
 <sat>0</sat>
</trkpt>
<trkpt lat="60.903116667" lon="15.142075000">
<time>2014-07-06T12:38:53Z</time>
 <fix>none</fix>
 <sat>0</sat>
</trkpt>
<trkpt lat="60.903116667" lon="15.142075000">
<time>2014-07-06T12:38:54Z</time>
 <fix>none</fix>
 <sat>0</sat>
</trkpt>
<trkpt lat="60.903073333" lon="15.142041667">
<time>2014-07-06T12:38:55Z</time>
 <fix>none</fix>
 <sat>0</sat>
</trkpt>
<trkpt lat="60.903020000" lon="15.142006667">
<time>2014-07-06T12:38:56Z</time>
 <fix>none</fix>
 <sat>0</sat>
</trkpt>
<trkpt lat="60.902966667" lon="15.141981667">
<time>2014-07-06T12:38:57Z</time>
 <fix>none</fix>
 <sat>0</sat>
</trkpt>
<trkpt lat="60.902918333" lon="15.141961667">
<time>2014-07-06T12:38:58Z</time>
 <fix>none</fix>
 <sat>0</sat>
</trkpt>
<trkpt lat="60.902870000" lon="15.141960000">
<time>2014-07-06T12:38:59Z</time>
 <fix>none</fix>
 <sat>0</sat>
</trkpt>
<trkpt lat="60.902831667" lon="15.141983333">
<time>2014-07-06T12:39:00Z</time>
 <fix>none</fix>
 <sat>0</sat>
</trkpt>
<trkpt lat="60.902718333" lon="15.142035000">
<time>2014-07-06T12:39:01Z</time>
 <fix>none</fix>
 <sat>0</sat>
</trkpt>
<trkpt lat="60.902675000" lon="15.142100000">
<time>2014-07-06T12:39:02Z</time>
 <fix>none</fix>
 <sat>0</sat>
</trkpt>
<trkpt lat="60.902633333" lon="15.142156667">
<time>2014-07-06T12:39:03Z</time>
 <fix>none</fix>
 <sat>0</sat>
</trkpt>
<trkpt lat="60.902598333" lon="15.142221667">
<time>2014-07-06T12:39:04Z</time>
 <fix>none</fix>
 <sat>0</sat>
</trkpt>
<trkpt lat="60.902563333" lon="15.142290000">
<time>2014-07-06T12:39:05Z</time>
 <fix>none</fix>
 <sat>0</sat>
</trkpt>
<trkpt lat="60.902533333" lon="15.142363333">
<time>2014-07-06T12:39:06Z</time>
 <fix>none</fix>
 <sat>0</sat>
</trkpt>
<trkpt lat="60.902496667" lon="15.142453333">
<time>2014-07-06T12:39:07Z</time>
 <fix>none</fix>
 <sat>0</sat>
</trkpt>
<trkpt lat="60.902453333" lon="15.142526667">
<time>2014-07-06T12:39:08Z</time>
 <fix>none</fix>
 <sat>0</sat>
</trkpt>
<trkpt lat="60.902408333" lon="15.142575000">
<time>2014-07-06T12:39:09Z</time>
 <fix>none</fix>
 <sat>0</sat>
</trkpt>
<trkpt lat="60.902348333" lon="15.142615000">
<time>2014-07-06T12:39:10Z</time>
 <fix>none</fix>
 <sat>0</sat>
</trkpt>
<trkpt lat="60.902293333" lon="15.142670000">
<time>2014-07-06T12:39:11Z</time>
 <fix>none</fix>
 <sat>0</sat>
</trkpt>
<trkpt lat="60.902235000" lon="15.142716667">
<time>2014-07-06T12:39:12Z</time>
 <fix>none</fix>
 <sat>0</sat>
</trkpt>
<trkpt lat="60.902178333" lon="15.142753333">
<time>2014-07-06T12:39:13Z</time>
 <fix>none</fix>
 <sat>0</sat>
</trkpt>
<trkpt lat="60.902116667" lon="15.142761667">
<time>2014-07-06T12:39:14Z</time>
 <fix>none</fix>
 <sat>0</sat>
</trkpt>
<trkpt lat="60.902058333" lon="15.142745000">
<time>2014-07-06T12:39:15Z</time>
 <fix>none</fix>
 <sat>0</sat>
</trkpt>
<trkpt lat="60.902011667" lon="15.142751667">
<time>2014-07-06T12:39:16Z</time>
 <fix>none</fix>
 <sat>0</sat>
</trkpt>
<trkpt lat="60.902011667" lon="15.142751667">
<time>2014-07-06T12:39:17Z</time>
 <fix>none</fix>
 <sat>0</sat>
</trkpt>
<trkpt lat="60.901961667" lon="15.142773333">
<time>2014-07-06T12:39:18Z</time>
 <fix>none</fix>
 <sat>0</sat>
</trkpt>
<trkpt lat="60.901915000" lon="15.142796667">
<time>2014-07-06T12:39:19Z</time>
 <fix>none</fix>
 <sat>0</sat>
</trkpt>
<trkpt lat="60.901863333" lon="15.142833333">
<time>2014-07-06T12:39:20Z</time>
 <fix>none</fix>
 <sat>0</sat>
</trkpt>
<trkpt lat="60.901811667" lon="15.142856667">
<time>2014-07-06T12:39:21Z</time>
 <fix>none</fix>
 <sat>0</sat>
</trkpt>
<trkpt lat="60.901703333" lon="15.142855000">
<time>2014-07-06T12:39:22Z</time>
 <fix>none</fix>
 <sat>0</sat>
</trkpt>
<trkpt lat="60.901653333" lon="15.142853333">
<time>2014-07-06T12:39:23Z</time>
 <fix>none</fix>
 <sat>0</sat>
</trkpt>
<trkpt lat="60.901618333" lon="15.142870000">
<time>2014-07-06T12:39:24Z</time>
 <fix>none</fix>
 <sat>0</sat>
</trkpt>
<trkpt lat="60.901595000" lon="15.142900000">
<time>2014-07-06T12:39:25Z</time>
 <fix>none</fix>
 <sat>0</sat>
</trkpt>
<trkpt lat="60.901571667" lon="15.142920000">
<time>2014-07-06T12:39:26Z</time>
 <fix>none</fix>
 <sat>0</sat>
</trkpt>
<trkpt lat="60.901555000" lon="15.142940000">
<time>2014-07-06T12:39:27Z</time>
 <fix>none</fix>
 <sat>0</sat>
</trkpt>
<trkpt lat="60.901526667" lon="15.142945000">
<time>2014-07-06T12:39:28Z</time>
 <fix>none</fix>
 <sat>0</sat>
</trkpt>
<trkpt lat="60.901511667" lon="15.142970000">
<time>2014-07-06T12:39:29Z</time>
 <fix>none</fix>
 <sat>0</sat>
</trkpt>
<trkpt lat="60.901495000" lon="15.142980000">
<time>2014-07-06T12:39:30Z</time>
 <fix>none</fix>
 <sat>0</sat>
</trkpt>
<trkpt lat="60.901483333" lon="15.142990000">
<time>2014-07-06T12:39:31Z</time>
 <fix>none</fix>
 <sat>0</sat>
</trkpt>
<trkpt lat="60.901468333" lon="15.142991667">
<time>2014-07-06T12:39:32Z</time>
 <fix>none</fix>
 <sat>0</sat>
</trkpt>
<trkpt lat="60.901458333" lon="15.142983333">
<time>2014-07-06T12:39:33Z</time>
 <fix>none</fix>
 <sat>0</sat>
</trkpt>
<trkpt lat="60.901440000" lon="15.142970000">
<time>2014-07-06T12:39:34Z</time>
 <fix>none</fix>
 <sat>0</sat>
</trkpt>
<trkpt lat="60.901435000" lon="15.142958333">
<time>2014-07-06T12:39:35Z</time>
 <fix>none</fix>
 <sat>0</sat>
</trkpt>
<trkpt lat="60.901421667" lon="15.142958333">
<time>2014-07-06T12:39:36Z</time>
 <fix>none</fix>
 <sat>0</sat>
</trkpt>
<trkpt lat="60.901388333" lon="15.142918333">
<time>2014-07-06T12:39:37Z</time>
 <fix>none</fix>
 <sat>0</sat>
</trkpt>
<trkpt lat="60.901368333" lon="15.142926667">
<time>2014-07-06T12:39:38Z</time>
 <fix>none</fix>
 <sat>0</sat>
</trkpt>
<trkpt lat="60.901368333" lon="15.142926667">
<time>2014-07-06T12:39:39Z</time>
 <fix>none</fix>
 <sat>0</sat>
</trkpt>
<trkpt lat="60.901340000" lon="15.142900000">
<time>2014-07-06T12:39:40Z</time>
 <fix>none</fix>
 <sat>0</sat>
</trkpt>
<trkpt lat="60.901321667" lon="15.142881667">
<time>2014-07-06T12:39:41Z</time>
 <fix>none</fix>
 <sat>0</sat>
</trkpt>
<trkpt lat="60.901310000" lon="15.142875000">
<time>2014-07-06T12:39:42Z</time>
 <fix>none</fix>
 <sat>0</sat>
</trkpt>
<trkpt lat="60.901291667" lon="15.142863333">
<time>2014-07-06T12:39:43Z</time>
 <fix>none</fix>
 <sat>0</sat>
</trkpt>
<trkpt lat="60.901258333" lon="15.142833333">
<time>2014-07-06T12:39:44Z</time>
 <fix>none</fix>
 <sat>0</sat>
</trkpt>
<trkpt lat="60.901210000" lon="15.142810000">
<time>2014-07-06T12:39:45Z</time>
 <fix>none</fix>
 <sat>0</sat>
</trkpt>
<trkpt lat="60.901210000" lon="15.142810000">
<time>2014-07-06T12:39:46Z</time>
 <fix>none</fix>
 <sat>0</sat>
</trkpt>
<trkpt lat="60.901196667" lon="15.142805000">
<time>2014-07-06T12:39:47Z</time>
 <fix>none</fix>
 <sat>0</sat>
</trkpt>
<trkpt lat="60.901165000" lon="15.142810000">
<time>2014-07-06T12:39:48Z</time>
 <fix>none</fix>
 <sat>0</sat>
</trkpt>
<trkpt lat="60.901156667" lon="15.142828333">
<time>2014-07-06T12:39:49Z</time>
 <fix>none</fix>
 <sat>0</sat>
</trkpt>
<trkpt lat="60.901145000" lon="15.142843333">
<time>2014-07-06T12:39:50Z</time>
 <fix>none</fix>
 <sat>0</sat>
</trkpt>
<trkpt lat="60.901126667" lon="15.142860000">
<time>2014-07-06T12:39:51Z</time>
 <fix>none</fix>
 <sat>0</sat>
</trkpt>
<trkpt lat="60.901108333" lon="15.142865000">
<time>2014-07-06T12:39:52Z</time>
 <fix>none</fix>
 <sat>0</sat>
</trkpt>
<trkpt lat="60.901086667" lon="15.142863333">
<time>2014-07-06T12:39:53Z</time>
 <fix>none</fix>
 <sat>0</sat>
</trkpt>
<trkpt lat="60.901073333" lon="15.142873333">
<time>2014-07-06T12:39:54Z</time>
 <fix>none</fix>
 <sat>0</sat>
</trkpt>
<trkpt lat="60.901050000" lon="15.142873333">
<time>2014-07-06T12:39:55Z</time>
 <fix>none</fix>
 <sat>0</sat>
</trkpt>
<trkpt lat="60.901050000" lon="15.142873333">
<time>2014-07-06T12:39:56Z</time>
 <fix>none</fix>
 <sat>0</sat>
</trkpt>
<trkpt lat="60.901025000" lon="15.142900000">
<time>2014-07-06T12:39:57Z</time>
 <fix>none</fix>
 <sat>0</sat>
</trkpt>
<trkpt lat="60.901020000" lon="15.142913333">
<time>2014-07-06T12:39:58Z</time>
 <fix>none</fix>
 <sat>0</sat>
</trkpt>
<trkpt lat="60.901010000" lon="15.142913333">
<time>2014-07-06T12:39:59Z</time>
 <fix>none</fix>
 <sat>0</sat>
</trkpt>
<trkpt lat="60.901005000" lon="15.142928333">
<time>2014-07-06T12:40:00Z</time>
 <fix>none</fix>
 <sat>0</sat>
</trkpt>
<trkpt lat="60.900996667" lon="15.142915000">
<time>2014-07-06T12:40:01Z</time>
 <fix>none</fix>
 <sat>0</sat>
</trkpt>
<trkpt lat="60.900996667" lon="15.142915000">
<time>2014-07-06T12:40:02Z</time>
 <fix>none</fix>
 <sat>0</sat>
</trkpt>
<trkpt lat="60.900978333" lon="15.142873333">
<time>2014-07-06T12:40:03Z</time>
 <fix>none</fix>
 <sat>0</sat>
</trkpt>
<trkpt lat="60.900963333" lon="15.142828333">
<time>2014-07-06T12:40:04Z</time>
 <fix>none</fix>
 <sat>0</sat>
</trkpt>
<trkpt lat="60.900945000" lon="15.142768333">
<time>2014-07-06T12:40:05Z</time>
 <fix>none</fix>
 <sat>0</sat>
</trkpt>
<trkpt lat="60.900923333" lon="15.142703333">
<time>2014-07-06T12:40:06Z</time>
 <fix>none</fix>
 <sat>0</sat>
</trkpt>
<trkpt lat="60.900918333" lon="15.142633333">
<time>2014-07-06T12:40:07Z</time>
 <fix>none</fix>
 <sat>0</sat>
</trkpt>
<trkpt lat="60.900923333" lon="15.142595000">
<time>2014-07-06T12:40:08Z</time>
 <fix>none</fix>
 <sat>0</sat>
</trkpt>
<trkpt lat="60.900923333" lon="15.142595000">
<time>2014-07-06T12:40:09Z</time>
 <fix>none</fix>
 <sat>0</sat>
</trkpt>
<trkpt lat="60.900911667" lon="15.142538333">
<time>2014-07-06T12:40:10Z</time>
 <fix>none</fix>
 <sat>0</sat>
</trkpt>
<trkpt lat="60.900911667" lon="15.142538333">
<time>2014-07-06T12:40:11Z</time>
 <fix>none</fix>
 <sat>0</sat>
</trkpt>
<trkpt lat="60.900891667" lon="15.142483333">
<time>2014-07-06T12:40:12Z</time>
 <fix>none</fix>
 <sat>0</sat>
</trkpt>
<trkpt lat="60.900876667" lon="15.142455000">
<time>2014-07-06T12:40:13Z</time>
 <fix>none</fix>
 <sat>0</sat>
</trkpt>
<trkpt lat="60.900856667" lon="15.142440000">
<time>2014-07-06T12:40:14Z</time>
 <fix>none</fix>
 <sat>0</sat>
</trkpt>
<trkpt lat="60.900828333" lon="15.142410000">
<time>2014-07-06T12:40:15Z</time>
 <fix>none</fix>
 <sat>0</sat>
</trkpt>
<trkpt lat="60.900810000" lon="15.142393333">
<time>2014-07-06T12:40:16Z</time>
 <fix>none</fix>
 <sat>0</sat>
</trkpt>
<trkpt lat="60.900806667" lon="15.142398333">
<time>2014-07-06T12:40:17Z</time>
 <fix>none</fix>
 <sat>0</sat>
</trkpt>
<trkpt lat="60.900826667" lon="15.142476667">
<time>2014-07-06T12:40:18Z</time>
 <fix>none</fix>
 <sat>0</sat>
</trkpt>
<trkpt lat="60.900828333" lon="15.142523333">
<time>2014-07-06T12:40:19Z</time>
 <fix>none</fix>
 <sat>0</sat>
</trkpt>
<trkpt lat="60.900816667" lon="15.142560000">
<time>2014-07-06T12:40:20Z</time>
 <fix>none</fix>
 <sat>0</sat>
</trkpt>
<trkpt lat="60.900820000" lon="15.142623333">
<time>2014-07-06T12:40:21Z</time>
 <fix>none</fix>
 <sat>0</sat>
</trkpt>
<trkpt lat="60.900820000" lon="15.142676667">
<time>2014-07-06T12:40:22Z</time>
 <fix>none</fix>
 <sat>0</sat>
</trkpt>
<trkpt lat="60.900820000" lon="15.142748333">
<time>2014-07-06T12:40:23Z</time>
 <fix>none</fix>
 <sat>0</sat>
</trkpt>
<trkpt lat="60.900828333" lon="15.142810000">
<time>2014-07-06T12:40:24Z</time>
 <fix>none</fix>
 <sat>0</sat>
</trkpt>
<trkpt lat="60.900828333" lon="15.142810000">
<time>2014-07-06T12:40:25Z</time>
 <fix>none</fix>
 <sat>0</sat>
</trkpt>
<trkpt lat="60.900831667" lon="15.142855000">
<time>2014-07-06T12:40:26Z</time>
 <fix>none</fix>
 <sat>0</sat>
</trkpt>
<trkpt lat="60.900831667" lon="15.142895000">
<time>2014-07-06T12:40:27Z</time>
 <fix>none</fix>
 <sat>0</sat>
</trkpt>
<trkpt lat="60.900830000" lon="15.142913333">
<time>2014-07-06T12:40:28Z</time>
 <fix>none</fix>
 <sat>0</sat>
</trkpt>
<trkpt lat="60.900830000" lon="15.142955000">
<time>2014-07-06T12:40:29Z</time>
 <fix>none</fix>
 <sat>0</sat>
</trkpt>
<trkpt lat="60.900825000" lon="15.143015000">
<time>2014-07-06T12:40:30Z</time>
 <fix>none</fix>
 <sat>0</sat>
</trkpt>
<trkpt lat="60.900810000" lon="15.143090000">
<time>2014-07-06T12:40:31Z</time>
 <fix>none</fix>
 <sat>0</sat>
</trkpt>
<trkpt lat="60.900810000" lon="15.143090000">
<time>2014-07-06T12:40:32Z</time>
 <fix>none</fix>
 <sat>0</sat>
</trkpt>
<trkpt lat="60.900813333" lon="15.143165000">
<time>2014-07-06T12:40:33Z</time>
 <fix>none</fix>
 <sat>0</sat>
</trkpt>
<trkpt lat="60.900813333" lon="15.143165000">
<time>2014-07-06T12:40:34Z</time>
 <fix>none</fix>
 <sat>0</sat>
</trkpt>
<trkpt lat="60.900813333" lon="15.143165000">
<time>2014-07-06T12:40:35Z</time>
 <fix>none</fix>
 <sat>0</sat>
</trkpt>
<trkpt lat="60.900815000" lon="15.143243333">
<time>2014-07-06T12:40:36Z</time>
 <fix>none</fix>
 <sat>0</sat>
</trkpt>
<trkpt lat="60.900815000" lon="15.143243333">
<time>2014-07-06T12:40:37Z</time>
 <fix>none</fix>
 <sat>0</sat>
</trkpt>
<trkpt lat="60.900808333" lon="15.143273333">
<time>2014-07-06T12:40:38Z</time>
 <fix>none</fix>
 <sat>0</sat>
</trkpt>
<trkpt lat="60.900808333" lon="15.143273333">
<time>2014-07-06T12:40:39Z</time>
 <fix>none</fix>
 <sat>0</sat>
</trkpt>
<trkpt lat="60.900808333" lon="15.143320000">
<time>2014-07-06T12:40:40Z</time>
 <fix>none</fix>
 <sat>0</sat>
</trkpt>
<trkpt lat="60.900810000" lon="15.143340000">
<time>2014-07-06T12:40:41Z</time>
 <fix>none</fix>
 <sat>0</sat>
</trkpt>
<trkpt lat="60.900813333" lon="15.143370000">
<time>2014-07-06T12:40:42Z</time>
 <fix>none</fix>
 <sat>0</sat>
</trkpt>
<trkpt lat="60.900815000" lon="15.143401667">
<time>2014-07-06T12:40:43Z</time>
 <fix>none</fix>
 <sat>0</sat>
</trkpt>
<trkpt lat="60.900813333" lon="15.143458333">
<time>2014-07-06T12:40:44Z</time>
 <fix>none</fix>
 <sat>0</sat>
</trkpt>
<trkpt lat="60.900816667" lon="15.143480000">
<time>2014-07-06T12:40:45Z</time>
 <fix>none</fix>
 <sat>0</sat>
</trkpt>
<trkpt lat="60.900803333" lon="15.143506667">
<time>2014-07-06T12:40:46Z</time>
 <fix>none</fix>
 <sat>0</sat>
</trkpt>
<trkpt lat="60.900803333" lon="15.143531667">
<time>2014-07-06T12:40:47Z</time>
 <fix>none</fix>
 <sat>0</sat>
</trkpt>
<trkpt lat="60.900803333" lon="15.143531667">
<time>2014-07-06T12:40:48Z</time>
 <fix>none</fix>
 <sat>0</sat>
</trkpt>
<trkpt lat="60.900808333" lon="15.143565000">
<time>2014-07-06T12:40:49Z</time>
 <fix>none</fix>
 <sat>0</sat>
</trkpt>
<trkpt lat="60.900791667" lon="15.143586667">
<time>2014-07-06T12:40:50Z</time>
 <fix>none</fix>
 <sat>0</sat>
</trkpt>
<trkpt lat="60.900775000" lon="15.143596667">
<time>2014-07-06T12:40:51Z</time>
 <fix>none</fix>
 <sat>0</sat>
</trkpt>
<trkpt lat="60.900761667" lon="15.143583333">
<time>2014-07-06T12:40:52Z</time>
 <fix>none</fix>
 <sat>0</sat>
</trkpt>
<trkpt lat="60.900721667" lon="15.143538333">
<time>2014-07-06T12:40:53Z</time>
 <fix>none</fix>
 <sat>0</sat>
</trkpt>
<trkpt lat="60.900721667" lon="15.143538333">
<time>2014-07-06T12:40:54Z</time>
 <fix>none</fix>
 <sat>0</sat>
</trkpt>
<trkpt lat="60.900695000" lon="15.143448333">
<time>2014-07-06T12:40:55Z</time>
 <fix>none</fix>
 <sat>0</sat>
</trkpt>
<trkpt lat="60.900670000" lon="15.143398333">
<time>2014-07-06T12:40:56Z</time>
 <fix>none</fix>
 <sat>0</sat>
</trkpt>
<trkpt lat="60.900641667" lon="15.143336667">
<time>2014-07-06T12:40:57Z</time>
 <fix>none</fix>
 <sat>0</sat>
</trkpt>
<trkpt lat="60.900620000" lon="15.143291667">
<time>2014-07-06T12:40:58Z</time>
 <fix>none</fix>
 <sat>0</sat>
</trkpt>
<trkpt lat="60.900595000" lon="15.143226667">
<time>2014-07-06T12:40:59Z</time>
 <fix>none</fix>
 <sat>0</sat>
</trkpt>
<trkpt lat="60.900560000" lon="15.143135000">
<time>2014-07-06T12:41:00Z</time>
 <fix>none</fix>
 <sat>0</sat>
</trkpt>
<trkpt lat="60.900525000" lon="15.143036667">
<time>2014-07-06T12:41:01Z</time>
 <fix>none</fix>
 <sat>0</sat>
</trkpt>
<trkpt lat="60.900475000" lon="15.142885000">
<time>2014-07-06T12:41:02Z</time>
 <fix>none</fix>
 <sat>0</sat>
</trkpt>
<trkpt lat="60.900441667" lon="15.142748333">
<time>2014-07-06T12:41:03Z</time>
 <fix>none</fix>
 <sat>0</sat>
</trkpt>
<trkpt lat="60.900418333" lon="15.142616667">
<time>2014-07-06T12:41:04Z</time>
 <fix>none</fix>
 <sat>0</sat>
</trkpt>
<trkpt lat="60.900391667" lon="15.142465000">
<time>2014-07-06T12:41:05Z</time>
 <fix>none</fix>
 <sat>0</sat>
</trkpt>
<trkpt lat="60.900376667" lon="15.142336667">
<time>2014-07-06T12:41:06Z</time>
 <fix>none</fix>
 <sat>0</sat>
</trkpt>
<trkpt lat="60.900373333" lon="15.142250000">
<time>2014-07-06T12:41:07Z</time>
 <fix>none</fix>
 <sat>0</sat>
</trkpt>
<trkpt lat="60.900361667" lon="15.142150000">
<time>2014-07-06T12:41:08Z</time>
 <fix>none</fix>
 <sat>0</sat>
</trkpt>
<trkpt lat="60.900338333" lon="15.142040000">
<time>2014-07-06T12:41:09Z</time>
 <fix>none</fix>
 <sat>0</sat>
</trkpt>
<trkpt lat="60.900325000" lon="15.141918333">
<time>2014-07-06T12:41:10Z</time>
 <fix>none</fix>
 <sat>0</sat>
</trkpt>
<trkpt lat="60.900325000" lon="15.141918333">
<time>2014-07-06T12:41:11Z</time>
 <fix>none</fix>
 <sat>0</sat>
</trkpt>
<trkpt lat="60.900318333" lon="15.141806667">
<time>2014-07-06T12:41:12Z</time>
 <fix>none</fix>
 <sat>0</sat>
</trkpt>
<trkpt lat="60.900311667" lon="15.141706667">
<time>2014-07-06T12:41:13Z</time>
 <fix>none</fix>
 <sat>0</sat>
</trkpt>
<trkpt lat="60.900315000" lon="15.141596667">
<time>2014-07-06T12:41:14Z</time>
 <fix>none</fix>
 <sat>0</sat>
</trkpt>
<trkpt lat="60.900305000" lon="15.141460000">
<time>2014-07-06T12:41:15Z</time>
 <fix>none</fix>
 <sat>0</sat>
</trkpt>
<trkpt lat="60.900266667" lon="15.141180000">
<time>2014-07-06T12:41:16Z</time>
 <fix>none</fix>
 <sat>0</sat>
</trkpt>
<trkpt lat="60.900246667" lon="15.141038333">
<time>2014-07-06T12:41:17Z</time>
 <fix>none</fix>
 <sat>0</sat>
</trkpt>
<trkpt lat="60.900246667" lon="15.140938333">
<time>2014-07-06T12:41:18Z</time>
 <fix>none</fix>
 <sat>0</sat>
</trkpt>
<trkpt lat="60.900288333" lon="15.140886667">
<time>2014-07-06T12:41:19Z</time>
 <fix>none</fix>
 <sat>0</sat>
</trkpt>
<trkpt lat="60.900295000" lon="15.140788333">
<time>2014-07-06T12:41:20Z</time>
 <fix>none</fix>
 <sat>0</sat>
</trkpt>
<trkpt lat="60.900298333" lon="15.140703333">
<time>2014-07-06T12:41:21Z</time>
 <fix>none</fix>
 <sat>0</sat>
</trkpt>
<trkpt lat="60.900286667" lon="15.140630000">
<time>2014-07-06T12:41:22Z</time>
 <fix>none</fix>
 <sat>0</sat>
</trkpt>
<trkpt lat="60.900256667" lon="15.140545000">
<time>2014-07-06T12:41:23Z</time>
 <fix>none</fix>
 <sat>0</sat>
</trkpt>
<trkpt lat="60.900235000" lon="15.140448333">
<time>2014-07-06T12:41:24Z</time>
 <fix>none</fix>
 <sat>0</sat>
</trkpt>
<trkpt lat="60.900210000" lon="15.140343333">
<time>2014-07-06T12:41:25Z</time>
 <fix>none</fix>
 <sat>0</sat>
</trkpt>
<trkpt lat="60.900183333" lon="15.140216667">
<time>2014-07-06T12:41:26Z</time>
 <fix>none</fix>
 <sat>0</sat>
</trkpt>
<trkpt lat="60.900163333" lon="15.140075000">
<time>2014-07-06T12:41:27Z</time>
 <fix>none</fix>
 <sat>0</sat>
</trkpt>
<trkpt lat="60.900130000" lon="15.139916667">
<time>2014-07-06T12:41:28Z</time>
 <fix>none</fix>
 <sat>0</sat>
</trkpt>
<trkpt lat="60.900111667" lon="15.139760000">
<time>2014-07-06T12:41:29Z</time>
 <fix>none</fix>
 <sat>0</sat>
</trkpt>
<trkpt lat="60.900093333" lon="15.139595000">
<time>2014-07-06T12:41:30Z</time>
 <fix>none</fix>
 <sat>0</sat>
</trkpt>
<trkpt lat="60.900083333" lon="15.139421667">
<time>2014-07-06T12:41:31Z</time>
 <fix>none</fix>
 <sat>0</sat>
</trkpt>
<trkpt lat="60.900090000" lon="15.139265000">
<time>2014-07-06T12:41:32Z</time>
 <fix>none</fix>
 <sat>0</sat>
</trkpt>
<trkpt lat="60.900090000" lon="15.139265000">
<time>2014-07-06T12:41:33Z</time>
 <fix>none</fix>
 <sat>0</sat>
</trkpt>
<trkpt lat="60.900081667" lon="15.139085000">
<time>2014-07-06T12:41:34Z</time>
 <fix>none</fix>
 <sat>0</sat>
</trkpt>
<trkpt lat="60.900085000" lon="15.138903333">
<time>2014-07-06T12:41:35Z</time>
 <fix>none</fix>
 <sat>0</sat>
</trkpt>
<trkpt lat="60.900113333" lon="15.138765000">
<time>2014-07-06T12:41:36Z</time>
 <fix>none</fix>
 <sat>0</sat>
</trkpt>
<trkpt lat="60.900143333" lon="15.138648333">
<time>2014-07-06T12:41:37Z</time>
 <fix>none</fix>
 <sat>0</sat>
</trkpt>
<trkpt lat="60.900216667" lon="15.138406667">
<time>2014-07-06T12:41:38Z</time>
 <fix>none</fix>
 <sat>0</sat>
</trkpt>
<trkpt lat="60.900233333" lon="15.138283333">
<time>2014-07-06T12:41:39Z</time>
 <fix>none</fix>
 <sat>0</sat>
</trkpt>
<trkpt lat="60.900233333" lon="15.138283333">
<time>2014-07-06T12:41:40Z</time>
 <fix>none</fix>
 <sat>0</sat>
</trkpt>
<trkpt lat="60.900261667" lon="15.138023333">
<time>2014-07-06T12:41:41Z</time>
 <fix>none</fix>
 <sat>0</sat>
</trkpt>
<trkpt lat="60.900253333" lon="15.137911667">
<time>2014-07-06T12:41:42Z</time>
 <fix>none</fix>
 <sat>0</sat>
</trkpt>
<trkpt lat="60.900208333" lon="15.137853333">
<time>2014-07-06T12:41:43Z</time>
 <fix>none</fix>
 <sat>0</sat>
</trkpt>
<trkpt lat="60.900128333" lon="15.137831667">
<time>2014-07-06T12:41:44Z</time>
 <fix>none</fix>
 <sat>0</sat>
</trkpt>
<trkpt lat="60.900036667" lon="15.137843333">
<time>2014-07-06T12:41:45Z</time>
 <fix>none</fix>
 <sat>0</sat>
</trkpt>
<trkpt lat="60.899956667" lon="15.137821667">
<time>2014-07-06T12:41:46Z</time>
 <fix>none</fix>
 <sat>0</sat>
</trkpt>
<trkpt lat="60.899876667" lon="15.137771667">
<time>2014-07-06T12:41:47Z</time>
 <fix>none</fix>
 <sat>0</sat>
</trkpt>
<trkpt lat="60.899796667" lon="15.137711667">
<time>2014-07-06T12:41:48Z</time>
 <fix>none</fix>
 <sat>0</sat>
</trkpt>
<trkpt lat="60.899713333" lon="15.137611667">
<time>2014-07-06T12:41:49Z</time>
 <fix>none</fix>
 <sat>0</sat>
</trkpt>
<trkpt lat="60.899638333" lon="15.137515000">
<time>2014-07-06T12:41:50Z</time>
 <fix>none</fix>
 <sat>0</sat>
</trkpt>
<trkpt lat="60.899565000" lon="15.137408333">
<time>2014-07-06T12:41:51Z</time>
 <fix>none</fix>
 <sat>0</sat>
</trkpt>
<trkpt lat="60.899496667" lon="15.137335000">
<time>2014-07-06T12:41:52Z</time>
 <fix>none</fix>
 <sat>0</sat>
</trkpt>
<trkpt lat="60.899430000" lon="15.137266667">
<time>2014-07-06T12:41:53Z</time>
 <fix>none</fix>
 <sat>0</sat>
</trkpt>
<trkpt lat="60.899356667" lon="15.137220000">
<time>2014-07-06T12:41:54Z</time>
 <fix>none</fix>
 <sat>0</sat>
</trkpt>
<trkpt lat="60.899285000" lon="15.137158333">
<time>2014-07-06T12:41:55Z</time>
 <fix>none</fix>
 <sat>0</sat>
</trkpt>
<trkpt lat="60.899285000" lon="15.137158333">
<time>2014-07-06T12:41:56Z</time>
 <fix>none</fix>
 <sat>0</sat>
</trkpt>
<trkpt lat="60.899221667" lon="15.137078333">
<time>2014-07-06T12:41:57Z</time>
 <fix>none</fix>
 <sat>0</sat>
</trkpt>
<trkpt lat="60.899160000" lon="15.136971667">
<time>2014-07-06T12:41:58Z</time>
 <fix>none</fix>
 <sat>0</sat>
</trkpt>
<trkpt lat="60.899123333" lon="15.136850000">
<time>2014-07-06T12:41:59Z</time>
 <fix>none</fix>
 <sat>0</sat>
</trkpt>
<trkpt lat="60.899108333" lon="15.136661667">
<time>2014-07-06T12:42:00Z</time>
 <fix>none</fix>
 <sat>0</sat>
</trkpt>
<trkpt lat="60.899043333" lon="15.136470000">
<time>2014-07-06T12:42:01Z</time>
 <fix>none</fix>
 <sat>0</sat>
</trkpt>
<trkpt lat="60.899043333" lon="15.136470000">
<time>2014-07-06T12:42:02Z</time>
 <fix>none</fix>
 <sat>0</sat>
</trkpt>
<trkpt lat="60.898995000" lon="15.136353333">
<time>2014-07-06T12:42:03Z</time>
 <fix>none</fix>
 <sat>0</sat>
</trkpt>
<trkpt lat="60.898873333" lon="15.136183333">
<time>2014-07-06T12:42:04Z</time>
 <fix>none</fix>
 <sat>0</sat>
</trkpt>
<trkpt lat="60.898801667" lon="15.136081667">
<time>2014-07-06T12:42:05Z</time>
 <fix>none</fix>
 <sat>0</sat>
</trkpt>
<trkpt lat="60.898758333" lon="15.135968333">
<time>2014-07-06T12:42:06Z</time>
 <fix>none</fix>
 <sat>0</sat>
</trkpt>
<trkpt lat="60.898726667" lon="15.135876667">
<time>2014-07-06T12:42:07Z</time>
 <fix>none</fix>
 <sat>0</sat>
</trkpt>
<trkpt lat="60.898686667" lon="15.135786667">
<time>2014-07-06T12:42:08Z</time>
 <fix>none</fix>
 <sat>0</sat>
</trkpt>
<trkpt lat="60.898631667" lon="15.135671667">
<time>2014-07-06T12:42:09Z</time>
 <fix>none</fix>
 <sat>0</sat>
</trkpt>
<trkpt lat="60.898555000" lon="15.135531667">
<time>2014-07-06T12:42:10Z</time>
 <fix>none</fix>
 <sat>0</sat>
</trkpt>
<trkpt lat="60.898503333" lon="15.135438333">
<time>2014-07-06T12:42:11Z</time>
 <fix>none</fix>
 <sat>0</sat>
</trkpt>
<trkpt lat="60.898448333" lon="15.135385000">
<time>2014-07-06T12:42:12Z</time>
 <fix>none</fix>
 <sat>0</sat>
</trkpt>
<trkpt lat="60.898390000" lon="15.135315000">
<time>2014-07-06T12:42:13Z</time>
 <fix>none</fix>
 <sat>0</sat>
</trkpt>
<trkpt lat="60.898348333" lon="15.135241667">
<time>2014-07-06T12:42:14Z</time>
 <fix>none</fix>
 <sat>0</sat>
</trkpt>
<trkpt lat="60.898313333" lon="15.135145000">
<time>2014-07-06T12:42:15Z</time>
 <fix>none</fix>
 <sat>0</sat>
</trkpt>
<trkpt lat="60.898295000" lon="15.135028333">
<time>2014-07-06T12:42:16Z</time>
 <fix>none</fix>
 <sat>0</sat>
</trkpt>
<trkpt lat="60.898275000" lon="15.134873333">
<time>2014-07-06T12:42:17Z</time>
 <fix>none</fix>
 <sat>0</sat>
</trkpt>
<trkpt lat="60.898275000" lon="15.134693333">
<time>2014-07-06T12:42:18Z</time>
 <fix>none</fix>
 <sat>0</sat>
</trkpt>
<trkpt lat="60.898275000" lon="15.134693333">
<time>2014-07-06T12:42:19Z</time>
 <fix>none</fix>
 <sat>0</sat>
</trkpt>
<trkpt lat="60.898270000" lon="15.134518333">
<time>2014-07-06T12:42:20Z</time>
 <fix>none</fix>
 <sat>0</sat>
</trkpt>
<trkpt lat="60.898260000" lon="15.134351667">
<time>2014-07-06T12:42:21Z</time>
 <fix>none</fix>
 <sat>0</sat>
</trkpt>
<trkpt lat="60.898268333" lon="15.134225000">
<time>2014-07-06T12:42:22Z</time>
 <fix>none</fix>
 <sat>0</sat>
</trkpt>
<trkpt lat="60.898288333" lon="15.134118333">
<time>2014-07-06T12:42:23Z</time>
 <fix>none</fix>
 <sat>0</sat>
</trkpt>
<trkpt lat="60.898330000" lon="15.133920000">
<time>2014-07-06T12:42:24Z</time>
 <fix>none</fix>
 <sat>0</sat>
</trkpt>
<trkpt lat="60.898345000" lon="15.133815000">
<time>2014-07-06T12:42:25Z</time>
 <fix>none</fix>
 <sat>0</sat>
</trkpt>
<trkpt lat="60.898360000" lon="15.133710000">
<time>2014-07-06T12:42:26Z</time>
 <fix>none</fix>
 <sat>0</sat>
</trkpt>
<trkpt lat="60.898371667" lon="15.133595000">
<time>2014-07-06T12:42:27Z</time>
 <fix>none</fix>
 <sat>0</sat>
</trkpt>
<trkpt lat="60.898371667" lon="15.133463333">
<time>2014-07-06T12:42:28Z</time>
 <fix>none</fix>
 <sat>0</sat>
</trkpt>
<trkpt lat="60.898370000" lon="15.133345000">
<time>2014-07-06T12:42:29Z</time>
 <fix>none</fix>
 <sat>0</sat>
</trkpt>
<trkpt lat="60.898370000" lon="15.133280000">
<time>2014-07-06T12:42:30Z</time>
 <fix>none</fix>
 <sat>0</sat>
</trkpt>
<trkpt lat="60.898345000" lon="15.133216667">
<time>2014-07-06T12:42:31Z</time>
 <fix>none</fix>
 <sat>0</sat>
</trkpt>
<trkpt lat="60.898303333" lon="15.133160000">
<time>2014-07-06T12:42:32Z</time>
 <fix>none</fix>
 <sat>0</sat>
</trkpt>
<trkpt lat="60.898255000" lon="15.133101667">
<time>2014-07-06T12:42:33Z</time>
 <fix>none</fix>
 <sat>0</sat>
</trkpt>
<trkpt lat="60.898210000" lon="15.133056667">
<time>2014-07-06T12:42:34Z</time>
 <fix>none</fix>
 <sat>0</sat>
</trkpt>
<trkpt lat="60.898163333" lon="15.132978333">
<time>2014-07-06T12:42:35Z</time>
 <fix>none</fix>
 <sat>0</sat>
</trkpt>
<trkpt lat="60.898103333" lon="15.132878333">
<time>2014-07-06T12:42:36Z</time>
 <fix>none</fix>
 <sat>0</sat>
</trkpt>
<trkpt lat="60.898050000" lon="15.132775000">
<time>2014-07-06T12:42:37Z</time>
 <fix>none</fix>
 <sat>0</sat>
</trkpt>
<trkpt lat="60.898005000" lon="15.132680000">
<time>2014-07-06T12:42:38Z</time>
 <fix>none</fix>
 <sat>0</sat>
</trkpt>
<trkpt lat="60.897966667" lon="15.132578333">
<time>2014-07-06T12:42:39Z</time>
 <fix>none</fix>
 <sat>0</sat>
</trkpt>
<trkpt lat="60.897928333" lon="15.132458333">
<time>2014-07-06T12:42:40Z</time>
 <fix>none</fix>
 <sat>0</sat>
</trkpt>
<trkpt lat="60.897896667" lon="15.132340000">
<time>2014-07-06T12:42:41Z</time>
 <fix>none</fix>
 <sat>0</sat>
</trkpt>
<trkpt lat="60.897896667" lon="15.132340000">
<time>2014-07-06T12:42:42Z</time>
 <fix>none</fix>
 <sat>0</sat>
</trkpt>
<trkpt lat="60.897866667" lon="15.132218333">
<time>2014-07-06T12:42:43Z</time>
 <fix>none</fix>
 <sat>0</sat>
</trkpt>
<trkpt lat="60.897830000" lon="15.132091667">
<time>2014-07-06T12:42:44Z</time>
 <fix>none</fix>
 <sat>0</sat>
</trkpt>
<trkpt lat="60.897795000" lon="15.131996667">
<time>2014-07-06T12:42:45Z</time>
 <fix>none</fix>
 <sat>0</sat>
</trkpt>
<trkpt lat="60.897761667" lon="15.131918333">
<time>2014-07-06T12:42:46Z</time>
 <fix>none</fix>
 <sat>0</sat>
</trkpt>
<trkpt lat="60.897700000" lon="15.131855000">
<time>2014-07-06T12:42:47Z</time>
 <fix>none</fix>
 <sat>0</sat>
</trkpt>
<trkpt lat="60.897561667" lon="15.131746667">
<time>2014-07-06T12:42:48Z</time>
 <fix>none</fix>
 <sat>0</sat>
</trkpt>
<trkpt lat="60.897505000" lon="15.131686667">
<time>2014-07-06T12:42:49Z</time>
 <fix>none</fix>
 <sat>0</sat>
</trkpt>
<trkpt lat="60.897465000" lon="15.131621667">
<time>2014-07-06T12:42:50Z</time>
 <fix>none</fix>
 <sat>0</sat>
</trkpt>
<trkpt lat="60.897408333" lon="15.131510000">
<time>2014-07-06T12:42:51Z</time>
 <fix>none</fix>
 <sat>0</sat>
</trkpt>
<trkpt lat="60.897340000" lon="15.131408333">
<time>2014-07-06T12:42:52Z</time>
 <fix>none</fix>
 <sat>0</sat>
</trkpt>
<trkpt lat="60.897270000" lon="15.131288333">
<time>2014-07-06T12:42:53Z</time>
 <fix>none</fix>
 <sat>0</sat>
</trkpt>
<trkpt lat="60.897198333" lon="15.131156667">
<time>2014-07-06T12:42:54Z</time>
 <fix>none</fix>
 <sat>0</sat>
</trkpt>
<trkpt lat="60.897111667" lon="15.131018333">
<time>2014-07-06T12:42:55Z</time>
 <fix>none</fix>
 <sat>0</sat>
</trkpt>
<trkpt lat="60.897021667" lon="15.130861667">
<time>2014-07-06T12:42:56Z</time>
 <fix>none</fix>
 <sat>0</sat>
</trkpt>
<trkpt lat="60.896936667" lon="15.130715000">
<time>2014-07-06T12:42:57Z</time>
 <fix>none</fix>
 <sat>0</sat>
</trkpt>
<trkpt lat="60.896858333" lon="15.130561667">
<time>2014-07-06T12:42:58Z</time>
 <fix>none</fix>
 <sat>0</sat>
</trkpt>
<trkpt lat="60.896808333" lon="15.130323333">
<time>2014-07-06T12:42:59Z</time>
 <fix>none</fix>
 <sat>0</sat>
</trkpt>
<trkpt lat="60.896765000" lon="15.130133333">
<time>2014-07-06T12:43:00Z</time>
 <fix>none</fix>
 <sat>0</sat>
</trkpt>
<trkpt lat="60.896730000" lon="15.129976667">
<time>2014-07-06T12:43:01Z</time>
 <fix>none</fix>
 <sat>0</sat>
</trkpt>
<trkpt lat="60.896745000" lon="15.129725000">
<time>2014-07-06T12:43:02Z</time>
 <fix>none</fix>
 <sat>0</sat>
</trkpt>
<trkpt lat="60.896753333" lon="15.129573333">
<time>2014-07-06T12:43:03Z</time>
 <fix>none</fix>
 <sat>0</sat>
</trkpt>
<trkpt lat="60.896753333" lon="15.129573333">
<time>2014-07-06T12:43:04Z</time>
 <fix>none</fix>
 <sat>0</sat>
</trkpt>
<trkpt lat="60.896791667" lon="15.129538333">
<time>2014-07-06T12:43:05Z</time>
 <fix>none</fix>
 <sat>0</sat>
</trkpt>
<trkpt lat="60.896853333" lon="15.129548333">
<time>2014-07-06T12:43:06Z</time>
 <fix>none</fix>
 <sat>0</sat>
</trkpt>
<trkpt lat="60.896883333" lon="15.129538333">
<time>2014-07-06T12:43:07Z</time>
 <fix>none</fix>
 <sat>0</sat>
</trkpt>
<trkpt lat="60.896928333" lon="15.129526667">
<time>2014-07-06T12:43:08Z</time>
 <fix>none</fix>
 <sat>0</sat>
</trkpt>
<trkpt lat="60.896943333" lon="15.129496667">
<time>2014-07-06T12:43:09Z</time>
 <fix>none</fix>
 <sat>0</sat>
</trkpt>
<trkpt lat="60.897000000" lon="15.129493333">
<time>2014-07-06T12:43:10Z</time>
 <fix>none</fix>
 <sat>0</sat>
</trkpt>
<trkpt lat="60.897025000" lon="15.129491667">
<time>2014-07-06T12:43:11Z</time>
 <fix>none</fix>
 <sat>0</sat>
</trkpt>
<trkpt lat="60.897066667" lon="15.129491667">
<time>2014-07-06T12:43:12Z</time>
 <fix>none</fix>
 <sat>0</sat>
</trkpt>
<trkpt lat="60.897100000" lon="15.129481667">
<time>2014-07-06T12:43:13Z</time>
 <fix>none</fix>
 <sat>0</sat>
</trkpt>
<trkpt lat="60.897143333" lon="15.129458333">
<time>2014-07-06T12:43:14Z</time>
 <fix>none</fix>
 <sat>0</sat>
</trkpt>
<trkpt lat="60.897181667" lon="15.129411667">
<time>2014-07-06T12:43:15Z</time>
 <fix>none</fix>
 <sat>0</sat>
</trkpt>
<trkpt lat="60.897228333" lon="15.129366667">
<time>2014-07-06T12:43:16Z</time>
 <fix>none</fix>
 <sat>0</sat>
</trkpt>
<trkpt lat="60.897275000" lon="15.129323333">
<time>2014-07-06T12:43:17Z</time>
 <fix>none</fix>
 <sat>0</sat>
</trkpt>
<trkpt lat="60.897326667" lon="15.129315000">
<time>2014-07-06T12:43:18Z</time>
 <fix>none</fix>
 <sat>0</sat>
</trkpt>
<trkpt lat="60.897383333" lon="15.129311667">
<time>2014-07-06T12:43:19Z</time>
 <fix>none</fix>
 <sat>0</sat>
</trkpt>
<trkpt lat="60.897438333" lon="15.129340000">
<time>2014-07-06T12:43:20Z</time>
 <fix>none</fix>
 <sat>0</sat>
</trkpt>
<trkpt lat="60.897481667" lon="15.129371667">
<time>2014-07-06T12:43:21Z</time>
 <fix>none</fix>
 <sat>0</sat>
</trkpt>
<trkpt lat="60.897531667" lon="15.129410000">
<time>2014-07-06T12:43:22Z</time>
 <fix>none</fix>
 <sat>0</sat>
</trkpt>
<trkpt lat="60.897566667" lon="15.129443333">
<time>2014-07-06T12:43:23Z</time>
 <fix>none</fix>
 <sat>0</sat>
</trkpt>
<trkpt lat="60.897603333" lon="15.129486667">
<time>2014-07-06T12:43:24Z</time>
 <fix>none</fix>
 <sat>0</sat>
</trkpt>
<trkpt lat="60.897648333" lon="15.129560000">
<time>2014-07-06T12:43:25Z</time>
 <fix>none</fix>
 <sat>0</sat>
</trkpt>
<trkpt lat="60.897685000" lon="15.129631667">
<time>2014-07-06T12:43:26Z</time>
 <fix>none</fix>
 <sat>0</sat>
</trkpt>
<trkpt lat="60.897685000" lon="15.129631667">
<time>2014-07-06T12:43:27Z</time>
 <fix>none</fix>
 <sat>0</sat>
</trkpt>
<trkpt lat="60.897710000" lon="15.129693333">
<time>2014-07-06T12:43:28Z</time>
 <fix>none</fix>
 <sat>0</sat>
</trkpt>
<trkpt lat="60.897733333" lon="15.129775000">
<time>2014-07-06T12:43:29Z</time>
 <fix>none</fix>
 <sat>0</sat>
</trkpt>
<trkpt lat="60.897765000" lon="15.129838333">
<time>2014-07-06T12:43:30Z</time>
 <fix>none</fix>
 <sat>0</sat>
</trkpt>
<trkpt lat="60.897783333" lon="15.129893333">
<time>2014-07-06T12:43:31Z</time>
 <fix>none</fix>
 <sat>0</sat>
</trkpt>
<trkpt lat="60.897845000" lon="15.130035000">
<time>2014-07-06T12:43:32Z</time>
 <fix>none</fix>
 <sat>0</sat>
</trkpt>
<trkpt lat="60.897845000" lon="15.130035000">
<time>2014-07-06T12:43:33Z</time>
 <fix>none</fix>
 <sat>0</sat>
</trkpt>
<trkpt lat="60.897923333" lon="15.130175000">
<time>2014-07-06T12:43:34Z</time>
 <fix>none</fix>
 <sat>0</sat>
</trkpt>
<trkpt lat="60.897955000" lon="15.130231667">
<time>2014-07-06T12:43:35Z</time>
 <fix>none</fix>
 <sat>0</sat>
</trkpt>
<trkpt lat="60.897983333" lon="15.130266667">
<time>2014-07-06T12:43:36Z</time>
 <fix>none</fix>
 <sat>0</sat>
</trkpt>
<trkpt lat="60.897983333" lon="15.130266667">
<time>2014-07-06T12:43:37Z</time>
 <fix>none</fix>
 <sat>0</sat>
</trkpt>
<trkpt lat="60.898041667" lon="15.130285000">
<time>2014-07-06T12:43:38Z</time>
 <fix>none</fix>
 <sat>0</sat>
</trkpt>
<trkpt lat="60.898080000" lon="15.130296667">
<time>2014-07-06T12:43:39Z</time>
 <fix>none</fix>
 <sat>0</sat>
</trkpt>
<trkpt lat="60.898116667" lon="15.130271667">
<time>2014-07-06T12:43:40Z</time>
 <fix>none</fix>
 <sat>0</sat>
</trkpt>
<trkpt lat="60.898158333" lon="15.130270000">
<time>2014-07-06T12:43:41Z</time>
 <fix>none</fix>
 <sat>0</sat>
</trkpt>
<trkpt lat="60.898216667" lon="15.130261667">
<time>2014-07-06T12:43:42Z</time>
 <fix>none</fix>
 <sat>0</sat>
</trkpt>
<trkpt lat="60.898268333" lon="15.130255000">
<time>2014-07-06T12:43:43Z</time>
 <fix>none</fix>
 <sat>0</sat>
</trkpt>
<trkpt lat="60.898315000" lon="15.130228333">
<time>2014-07-06T12:43:44Z</time>
 <fix>none</fix>
 <sat>0</sat>
</trkpt>
<trkpt lat="60.898358333" lon="15.130211667">
<time>2014-07-06T12:43:45Z</time>
 <fix>none</fix>
 <sat>0</sat>
</trkpt>
<trkpt lat="60.898406667" lon="15.130191667">
<time>2014-07-06T12:43:46Z</time>
 <fix>none</fix>
 <sat>0</sat>
</trkpt>
<trkpt lat="60.898453333" lon="15.130151667">
<time>2014-07-06T12:43:47Z</time>
 <fix>none</fix>
 <sat>0</sat>
</trkpt>
<trkpt lat="60.898491667" lon="15.130083333">
<time>2014-07-06T12:43:48Z</time>
 <fix>none</fix>
 <sat>0</sat>
</trkpt>
<trkpt lat="60.898515000" lon="15.130000000">
<time>2014-07-06T12:43:49Z</time>
 <fix>none</fix>
 <sat>0</sat>
</trkpt>
<trkpt lat="60.898515000" lon="15.130000000">
<time>2014-07-06T12:43:50Z</time>
 <fix>none</fix>
 <sat>0</sat>
</trkpt>
<trkpt lat="60.898545000" lon="15.129916667">
<time>2014-07-06T12:43:51Z</time>
 <fix>none</fix>
 <sat>0</sat>
</trkpt>
<trkpt lat="60.898573333" lon="15.129813333">
<time>2014-07-06T12:43:52Z</time>
 <fix>none</fix>
 <sat>0</sat>
</trkpt>
<trkpt lat="60.898580000" lon="15.129666667">
<time>2014-07-06T12:43:53Z</time>
 <fix>none</fix>
 <sat>0</sat>
</trkpt>
<trkpt lat="60.898588333" lon="15.129515000">
<time>2014-07-06T12:43:54Z</time>
 <fix>none</fix>
 <sat>0</sat>
</trkpt>
<trkpt lat="60.898595000" lon="15.129186667">
<time>2014-07-06T12:43:55Z</time>
 <fix>none</fix>
 <sat>0</sat>
</trkpt>
<trkpt lat="60.898598333" lon="15.129013333">
<time>2014-07-06T12:43:56Z</time>
 <fix>none</fix>
 <sat>0</sat>
</trkpt>
<trkpt lat="60.898598333" lon="15.129013333">
<time>2014-07-06T12:43:57Z</time>
 <fix>none</fix>
 <sat>0</sat>
</trkpt>
<trkpt lat="60.898603333" lon="15.128678333">
<time>2014-07-06T12:43:58Z</time>
 <fix>none</fix>
 <sat>0</sat>
</trkpt>
<trkpt lat="60.898611667" lon="15.128525000">
<time>2014-07-06T12:43:59Z</time>
 <fix>none</fix>
 <sat>0</sat>
</trkpt>
<trkpt lat="60.898606667" lon="15.128370000">
<time>2014-07-06T12:44:00Z</time>
 <fix>none</fix>
 <sat>0</sat>
</trkpt>
<trkpt lat="60.898620000" lon="15.128223333">
<time>2014-07-06T12:44:01Z</time>
 <fix>none</fix>
 <sat>0</sat>
</trkpt>
<trkpt lat="60.898625000" lon="15.128078333">
<time>2014-07-06T12:44:02Z</time>
 <fix>none</fix>
 <sat>0</sat>
</trkpt>
<trkpt lat="60.898621667" lon="15.127940000">
<time>2014-07-06T12:44:03Z</time>
 <fix>none</fix>
 <sat>0</sat>
</trkpt>
<trkpt lat="60.898618333" lon="15.127806667">
<time>2014-07-06T12:44:04Z</time>
 <fix>none</fix>
 <sat>0</sat>
</trkpt>
<trkpt lat="60.898585000" lon="15.127675000">
<time>2014-07-06T12:44:05Z</time>
 <fix>none</fix>
 <sat>0</sat>
</trkpt>
<trkpt lat="60.898555000" lon="15.127566667">
<time>2014-07-06T12:44:06Z</time>
 <fix>none</fix>
 <sat>0</sat>
</trkpt>
<trkpt lat="60.898520000" lon="15.127488333">
<time>2014-07-06T12:44:07Z</time>
 <fix>none</fix>
 <sat>0</sat>
</trkpt>
<trkpt lat="60.898480000" lon="15.127388333">
<time>2014-07-06T12:44:08Z</time>
 <fix>none</fix>
 <sat>0</sat>
</trkpt>
<trkpt lat="60.898435000" lon="15.127281667">
<time>2014-07-06T12:44:09Z</time>
 <fix>none</fix>
 <sat>0</sat>
</trkpt>
<trkpt lat="60.898388333" lon="15.127180000">
<time>2014-07-06T12:44:10Z</time>
 <fix>none</fix>
 <sat>0</sat>
</trkpt>
<trkpt lat="60.898345000" lon="15.127101667">
<time>2014-07-06T12:44:11Z</time>
 <fix>none</fix>
 <sat>0</sat>
</trkpt>
<trkpt lat="60.898310000" lon="15.127030000">
<time>2014-07-06T12:44:12Z</time>
 <fix>none</fix>
 <sat>0</sat>
</trkpt>
<trkpt lat="60.898310000" lon="15.127030000">
<time>2014-07-06T12:44:13Z</time>
 <fix>none</fix>
 <sat>0</sat>
</trkpt>
<trkpt lat="60.898266667" lon="15.126976667">
<time>2014-07-06T12:44:14Z</time>
 <fix>none</fix>
 <sat>0</sat>
</trkpt>
<trkpt lat="60.898225000" lon="15.126936667">
<time>2014-07-06T12:44:15Z</time>
 <fix>none</fix>
 <sat>0</sat>
</trkpt>
<trkpt lat="60.898190000" lon="15.126916667">
<time>2014-07-06T12:44:16Z</time>
 <fix>none</fix>
 <sat>0</sat>
</trkpt>
<trkpt lat="60.898158333" lon="15.126901667">
<time>2014-07-06T12:44:17Z</time>
 <fix>none</fix>
 <sat>0</sat>
</trkpt>
<trkpt lat="60.898068333" lon="15.126870000">
<time>2014-07-06T12:44:18Z</time>
 <fix>none</fix>
 <sat>0</sat>
</trkpt>
<trkpt lat="60.898033333" lon="15.126873333">
<time>2014-07-06T12:44:19Z</time>
 <fix>none</fix>
 <sat>0</sat>
</trkpt>
<trkpt lat="60.898033333" lon="15.126873333">
<time>2014-07-06T12:44:20Z</time>
 <fix>none</fix>
 <sat>0</sat>
</trkpt>
<trkpt lat="60.897955000" lon="15.126856667">
<time>2014-07-06T12:44:21Z</time>
 <fix>none</fix>
 <sat>0</sat>
</trkpt>
<trkpt lat="60.897910000" lon="15.126853333">
<time>2014-07-06T12:44:22Z</time>
 <fix>none</fix>
 <sat>0</sat>
</trkpt>
<trkpt lat="60.897866667" lon="15.126850000">
<time>2014-07-06T12:44:23Z</time>
 <fix>none</fix>
 <sat>0</sat>
</trkpt>
<trkpt lat="60.897811667" lon="15.126848333">
<time>2014-07-06T12:44:24Z</time>
 <fix>none</fix>
 <sat>0</sat>
</trkpt>
<trkpt lat="60.897811667" lon="15.126848333">
<time>2014-07-06T12:44:25Z</time>
 <fix>none</fix>
 <sat>0</sat>
</trkpt>
<trkpt lat="60.897811667" lon="15.126848333">
<time>2014-07-06T12:44:26Z</time>
 <fix>none</fix>
 <sat>0</sat>
</trkpt>
<trkpt lat="60.897660000" lon="15.126846667">
<time>2014-07-06T12:44:27Z</time>
 <fix>none</fix>
 <sat>0</sat>
</trkpt>
<trkpt lat="60.897660000" lon="15.126846667">
<time>2014-07-06T12:44:28Z</time>
 <fix>none</fix>
 <sat>0</sat>
</trkpt>
<trkpt lat="60.897528333" lon="15.126841667">
<time>2014-07-06T12:44:29Z</time>
 <fix>none</fix>
 <sat>0</sat>
</trkpt>
<trkpt lat="60.897478333" lon="15.126828333">
<time>2014-07-06T12:44:30Z</time>
 <fix>none</fix>
 <sat>0</sat>
</trkpt>
<trkpt lat="60.897411667" lon="15.126796667">
<time>2014-07-06T12:44:31Z</time>
 <fix>none</fix>
 <sat>0</sat>
</trkpt>
<trkpt lat="60.897356667" lon="15.126756667">
<time>2014-07-06T12:44:32Z</time>
 <fix>none</fix>
 <sat>0</sat>
</trkpt>
<trkpt lat="60.897305000" lon="15.126686667">
<time>2014-07-06T12:44:33Z</time>
 <fix>none</fix>
 <sat>0</sat>
</trkpt>
<trkpt lat="60.897285000" lon="15.126608333">
<time>2014-07-06T12:44:34Z</time>
 <fix>none</fix>
 <sat>0</sat>
</trkpt>
<trkpt lat="60.897280000" lon="15.126508333">
<time>2014-07-06T12:44:35Z</time>
 <fix>none</fix>
 <sat>0</sat>
</trkpt>
<trkpt lat="60.897280000" lon="15.126508333">
<time>2014-07-06T12:44:36Z</time>
 <fix>none</fix>
 <sat>0</sat>
</trkpt>
<trkpt lat="60.897288333" lon="15.126405000">
<time>2014-07-06T12:44:37Z</time>
 <fix>none</fix>
 <sat>0</sat>
</trkpt>
<trkpt lat="60.897301667" lon="15.126310000">
<time>2014-07-06T12:44:38Z</time>
 <fix>none</fix>
 <sat>0</sat>
</trkpt>
<trkpt lat="60.897323333" lon="15.126230000">
<time>2014-07-06T12:44:39Z</time>
 <fix>none</fix>
 <sat>0</sat>
</trkpt>
<trkpt lat="60.897358333" lon="15.126180000">
<time>2014-07-06T12:44:40Z</time>
 <fix>none</fix>
 <sat>0</sat>
</trkpt>
<trkpt lat="60.897386667" lon="15.126125000">
<time>2014-07-06T12:44:41Z</time>
 <fix>none</fix>
 <sat>0</sat>
</trkpt>
<trkpt lat="60.897455000" lon="15.126018333">
<time>2014-07-06T12:44:42Z</time>
 <fix>none</fix>
 <sat>0</sat>
</trkpt>
<trkpt lat="60.897455000" lon="15.126018333">
<time>2014-07-06T12:44:43Z</time>
 <fix>none</fix>
 <sat>0</sat>
</trkpt>
<trkpt lat="60.897560000" lon="15.125951667">
<time>2014-07-06T12:44:44Z</time>
 <fix>none</fix>
 <sat>0</sat>
</trkpt>
<trkpt lat="60.897616667" lon="15.125920000">
<time>2014-07-06T12:44:45Z</time>
 <fix>none</fix>
 <sat>0</sat>
</trkpt>
<trkpt lat="60.897673333" lon="15.125891667">
<time>2014-07-06T12:44:46Z</time>
 <fix>none</fix>
 <sat>0</sat>
</trkpt>
<trkpt lat="60.897735000" lon="15.125885000">
<time>2014-07-06T12:44:47Z</time>
 <fix>none</fix>
 <sat>0</sat>
</trkpt>
<trkpt lat="60.897801667" lon="15.125896667">
<time>2014-07-06T12:44:48Z</time>
 <fix>none</fix>
 <sat>0</sat>
</trkpt>
<trkpt lat="60.897873333" lon="15.125903333">
<time>2014-07-06T12:44:49Z</time>
 <fix>none</fix>
 <sat>0</sat>
</trkpt>
<trkpt lat="60.897873333" lon="15.125903333">
<time>2014-07-06T12:44:50Z</time>
 <fix>none</fix>
 <sat>0</sat>
</trkpt>
<trkpt lat="60.898025000" lon="15.125865000">
<time>2014-07-06T12:44:51Z</time>
 <fix>none</fix>
 <sat>0</sat>
</trkpt>
<trkpt lat="60.898103333" lon="15.125851667">
<time>2014-07-06T12:44:52Z</time>
 <fix>none</fix>
 <sat>0</sat>
</trkpt>
<trkpt lat="60.898186667" lon="15.125836667">
<time>2014-07-06T12:44:53Z</time>
 <fix>none</fix>
 <sat>0</sat>
</trkpt>
<trkpt lat="60.898268333" lon="15.125823333">
<time>2014-07-06T12:44:54Z</time>
 <fix>none</fix>
 <sat>0</sat>
</trkpt>
<trkpt lat="60.898343333" lon="15.125805000">
<time>2014-07-06T12:44:55Z</time>
 <fix>none</fix>
 <sat>0</sat>
</trkpt>
<trkpt lat="60.898421667" lon="15.125793333">
<time>2014-07-06T12:44:56Z</time>
 <fix>none</fix>
 <sat>0</sat>
</trkpt>
<trkpt lat="60.898498333" lon="15.125780000">
<time>2014-07-06T12:44:57Z</time>
 <fix>none</fix>
 <sat>0</sat>
</trkpt>
<trkpt lat="60.898498333" lon="15.125780000">
<time>2014-07-06T12:44:58Z</time>
 <fix>none</fix>
 <sat>0</sat>
</trkpt>
<trkpt lat="60.898568333" lon="15.125763333">
<time>2014-07-06T12:44:59Z</time>
 <fix>none</fix>
 <sat>0</sat>
</trkpt>
<trkpt lat="60.898633333" lon="15.125753333">
<time>2014-07-06T12:45:00Z</time>
 <fix>none</fix>
 <sat>0</sat>
</trkpt>
<trkpt lat="60.898690000" lon="15.125745000">
<time>2014-07-06T12:45:01Z</time>
 <fix>none</fix>
 <sat>0</sat>
</trkpt>
<trkpt lat="60.898690000" lon="15.125745000">
<time>2014-07-06T12:45:02Z</time>
 <fix>none</fix>
 <sat>0</sat>
</trkpt>
<trkpt lat="60.898818333" lon="15.125750000">
<time>2014-07-06T12:45:03Z</time>
 <fix>none</fix>
 <sat>0</sat>
</trkpt>
<trkpt lat="60.898896667" lon="15.125795000">
<time>2014-07-06T12:45:04Z</time>
 <fix>none</fix>
 <sat>0</sat>
</trkpt>
<trkpt lat="60.898896667" lon="15.125795000">
<time>2014-07-06T12:45:05Z</time>
 <fix>none</fix>
 <sat>0</sat>
</trkpt>
<trkpt lat="60.898896667" lon="15.125795000">
<time>2014-07-06T12:45:06Z</time>
 <fix>none</fix>
 <sat>0</sat>
</trkpt>
<trkpt lat="60.898985000" lon="15.125841667">
<time>2014-07-06T12:45:07Z</time>
 <fix>none</fix>
 <sat>0</sat>
</trkpt>
<trkpt lat="60.898985000" lon="15.125841667">
<time>2014-07-06T12:45:08Z</time>
 <fix>none</fix>
 <sat>0</sat>
</trkpt>
<trkpt lat="60.899065000" lon="15.125883333">
<time>2014-07-06T12:45:09Z</time>
 <fix>none</fix>
 <sat>0</sat>
</trkpt>
<trkpt lat="60.899065000" lon="15.125883333">
<time>2014-07-06T12:45:10Z</time>
 <fix>none</fix>
 <sat>0</sat>
</trkpt>
<trkpt lat="60.899141667" lon="15.125895000">
<time>2014-07-06T12:45:11Z</time>
 <fix>none</fix>
 <sat>0</sat>
</trkpt>
<trkpt lat="60.899141667" lon="15.125895000">
<time>2014-07-06T12:45:12Z</time>
 <fix>none</fix>
 <sat>0</sat>
</trkpt>
<trkpt lat="60.899235000" lon="15.125921667">
<time>2014-07-06T12:45:13Z</time>
 <fix>none</fix>
 <sat>0</sat>
</trkpt>
<trkpt lat="60.899235000" lon="15.125921667">
<time>2014-07-06T12:45:14Z</time>
 <fix>none</fix>
 <sat>0</sat>
</trkpt>
<trkpt lat="60.899390000" lon="15.126030000">
<time>2014-07-06T12:45:15Z</time>
 <fix>none</fix>
 <sat>0</sat>
</trkpt>
<trkpt lat="60.899390000" lon="15.126030000">
<time>2014-07-06T12:45:16Z</time>
 <fix>none</fix>
 <sat>0</sat>
</trkpt>
<trkpt lat="60.899531667" lon="15.126150000">
<time>2014-07-06T12:45:17Z</time>
 <fix>none</fix>
 <sat>0</sat>
</trkpt>
<trkpt lat="60.899531667" lon="15.126150000">
<time>2014-07-06T12:45:18Z</time>
 <fix>none</fix>
 <sat>0</sat>
</trkpt>
<trkpt lat="60.899661667" lon="15.126273333">
<time>2014-07-06T12:45:19Z</time>
 <fix>none</fix>
 <sat>0</sat>
</trkpt>
<trkpt lat="60.899718333" lon="15.126341667">
<time>2014-07-06T12:45:20Z</time>
 <fix>none</fix>
 <sat>0</sat>
</trkpt>
<trkpt lat="60.899718333" lon="15.126341667">
<time>2014-07-06T12:45:21Z</time>
 <fix>none</fix>
 <sat>0</sat>
</trkpt>
<trkpt lat="60.899711667" lon="15.126493333">
<time>2014-07-06T12:45:22Z</time>
 <fix>none</fix>
 <sat>0</sat>
</trkpt>
<trkpt lat="60.899655000" lon="15.126693333">
<time>2014-07-06T12:45:23Z</time>
 <fix>none</fix>
 <sat>0</sat>
</trkpt>
<trkpt lat="60.899613333" lon="15.126751667">
<time>2014-07-06T12:45:24Z</time>
 <fix>none</fix>
 <sat>0</sat>
</trkpt>
<trkpt lat="60.899566667" lon="15.126796667">
<time>2014-07-06T12:45:25Z</time>
 <fix>none</fix>
 <sat>0</sat>
</trkpt>
<trkpt lat="60.899460000" lon="15.126713333">
<time>2014-07-06T12:45:26Z</time>
 <fix>none</fix>
 <sat>0</sat>
</trkpt>
<trkpt lat="60.899460000" lon="15.126713333">
<time>2014-07-06T12:45:27Z</time>
 <fix>none</fix>
 <sat>0</sat>
</trkpt>
<trkpt lat="60.899410000" lon="15.126615000">
<time>2014-07-06T12:45:28Z</time>
 <fix>none</fix>
 <sat>0</sat>
</trkpt>
<trkpt lat="60.899358333" lon="15.126533333">
<time>2014-07-06T12:45:29Z</time>
 <fix>none</fix>
 <sat>0</sat>
</trkpt>
<trkpt lat="60.899275000" lon="15.126390000">
<time>2014-07-06T12:45:30Z</time>
 <fix>none</fix>
 <sat>0</sat>
</trkpt>
<trkpt lat="60.899241667" lon="15.126323333">
<time>2014-07-06T12:45:31Z</time>
 <fix>none</fix>
 <sat>0</sat>
</trkpt>
<trkpt lat="60.899210000" lon="15.126261667">
<time>2014-07-06T12:45:32Z</time>
 <fix>none</fix>
 <sat>0</sat>
</trkpt>
<trkpt lat="60.899181667" lon="15.126215000">
<time>2014-07-06T12:45:33Z</time>
 <fix>none</fix>
 <sat>0</sat>
</trkpt>
<trkpt lat="60.899155000" lon="15.126185000">
<time>2014-07-06T12:45:34Z</time>
 <fix>none</fix>
 <sat>0</sat>
</trkpt>
<trkpt lat="60.899128333" lon="15.126160000">
<time>2014-07-06T12:45:35Z</time>
 <fix>none</fix>
 <sat>0</sat>
</trkpt>
<trkpt lat="60.899106667" lon="15.126148333">
<time>2014-07-06T12:45:36Z</time>
 <fix>none</fix>
 <sat>0</sat>
</trkpt>
<trkpt lat="60.899080000" lon="15.126145000">
<time>2014-07-06T12:45:37Z</time>
 <fix>none</fix>
 <sat>0</sat>
</trkpt>
<trkpt lat="60.899051667" lon="15.126133333">
<time>2014-07-06T12:45:38Z</time>
 <fix>none</fix>
 <sat>0</sat>
</trkpt>
<trkpt lat="60.899018333" lon="15.126121667">
<time>2014-07-06T12:45:39Z</time>
 <fix>none</fix>
 <sat>0</sat>
</trkpt>
<trkpt lat="60.898980000" lon="15.126111667">
<time>2014-07-06T12:45:40Z</time>
 <fix>none</fix>
 <sat>0</sat>
</trkpt>
<trkpt lat="60.898945000" lon="15.126110000">
<time>2014-07-06T12:45:41Z</time>
 <fix>none</fix>
 <sat>0</sat>
</trkpt>
<trkpt lat="60.898906667" lon="15.126098333">
<time>2014-07-06T12:45:42Z</time>
 <fix>none</fix>
 <sat>0</sat>
</trkpt>
<trkpt lat="60.898906667" lon="15.126098333">
<time>2014-07-06T12:45:43Z</time>
 <fix>none</fix>
 <sat>0</sat>
</trkpt>
<trkpt lat="60.898906667" lon="15.126098333">
<time>2014-07-06T12:45:44Z</time>
 <fix>none</fix>
 <sat>0</sat>
</trkpt>
<trkpt lat="60.898783333" lon="15.126088333">
<time>2014-07-06T12:45:45Z</time>
 <fix>none</fix>
 <sat>0</sat>
</trkpt>
<trkpt lat="60.898783333" lon="15.126088333">
<time>2014-07-06T12:45:46Z</time>
 <fix>none</fix>
 <sat>0</sat>
</trkpt>
<trkpt lat="60.898686667" lon="15.126158333">
<time>2014-07-06T12:45:47Z</time>
 <fix>none</fix>
 <sat>0</sat>
</trkpt>
<trkpt lat="60.898686667" lon="15.126158333">
<time>2014-07-06T12:45:48Z</time>
 <fix>none</fix>
 <sat>0</sat>
</trkpt>
<trkpt lat="60.898601667" lon="15.126110000">
<time>2014-07-06T12:45:49Z</time>
 <fix>none</fix>
 <sat>0</sat>
</trkpt>
<trkpt lat="60.898601667" lon="15.126110000">
<time>2014-07-06T12:45:50Z</time>
 <fix>none</fix>
 <sat>0</sat>
</trkpt>
<trkpt lat="60.898601667" lon="15.126110000">
<time>2014-07-06T12:45:51Z</time>
 <fix>none</fix>
 <sat>0</sat>
</trkpt>
<trkpt lat="60.898516667" lon="15.126166667">
<time>2014-07-06T12:45:52Z</time>
 <fix>none</fix>
 <sat>0</sat>
</trkpt>
<trkpt lat="60.898300000" lon="15.126090000">
<time>2014-07-06T12:45:53Z</time>
 <fix>none</fix>
 <sat>0</sat>
</trkpt>
<trkpt lat="60.898221667" lon="15.126093333">
<time>2014-07-06T12:45:54Z</time>
 <fix>none</fix>
 <sat>0</sat>
</trkpt>
<trkpt lat="60.898086667" lon="15.126120000">
<time>2014-07-06T12:45:55Z</time>
 <fix>none</fix>
 <sat>0</sat>
</trkpt>
<trkpt lat="60.897991667" lon="15.126130000">
<time>2014-07-06T12:45:56Z</time>
 <fix>none</fix>
 <sat>0</sat>
</trkpt>
<trkpt lat="60.897898333" lon="15.126145000">
<time>2014-07-06T12:45:57Z</time>
 <fix>none</fix>
 <sat>0</sat>
</trkpt>
<trkpt lat="60.897815000" lon="15.126163333">
<time>2014-07-06T12:45:58Z</time>
 <fix>none</fix>
 <sat>0</sat>
</trkpt>
<trkpt lat="60.897738333" lon="15.126183333">
<time>2014-07-06T12:45:59Z</time>
 <fix>none</fix>
 <sat>0</sat>
</trkpt>
<trkpt lat="60.897671667" lon="15.126195000">
<time>2014-07-06T12:46:00Z</time>
 <fix>none</fix>
 <sat>0</sat>
</trkpt>
<trkpt lat="60.897623333" lon="15.126206667">
<time>2014-07-06T12:46:01Z</time>
 <fix>none</fix>
 <sat>0</sat>
</trkpt>
</trkseg>
</trk>
</gpx>